<?xml version="1.0" encoding="utf-8"?>
<gpx xmlns:xsi="http://www.w3.org/2001/XMLSchema-instance" xmlns:xsd="http://www.w3.org/2001/XMLSchema" version="1.1" creator="Shapelink.com" xmlns="http://www.topografix.com/GPX/1/1" xmlns:gpxtpx="http://www.garmin.com/xmlschemas/TrackPointExtension/v1">
  <metadata>
    <name>Cykling - CX 116.46 km, 2018-12-15</name>
    <desc></desc>
    <author><name>Alexander Engvall</name></author> 
    <time>2018-12-15T07:43:03Z</time>
  </metadata>
  <trk>
    <name>Cykling - CX 116.46 km, 2018-12-15</name>
    <trkseg>
      <trkpt lat="59.219797616887" lon="17.90714731873">
        <ele>44</ele>
        <time>2018-12-15T07:43:03Z</time>
      </trkpt>
      <trkpt lat="59.219809183909" lon="17.907210769713">
        <ele>43.6</ele>
        <time>2018-12-15T07:43:16Z</time>
      </trkpt>
      <trkpt lat="59.219817062895" lon="17.907243123847">
        <ele>43.6</ele>
        <time>2018-12-15T07:43:17Z</time>
      </trkpt>
      <trkpt lat="59.219830222478" lon="17.907286961184">
        <ele>43.6</ele>
        <time>2018-12-15T07:43:18Z</time>
      </trkpt>
      <trkpt lat="59.219850087581" lon="17.907340353887">
        <ele>43.6</ele>
        <time>2018-12-15T07:43:19Z</time>
      </trkpt>
      <trkpt lat="59.21987615529" lon="17.90740715763">
        <ele>43.4</ele>
        <time>2018-12-15T07:43:20Z</time>
      </trkpt>
      <trkpt lat="59.219904234655" lon="17.907478990513">
        <ele>43.4</ele>
        <time>2018-12-15T07:43:21Z</time>
      </trkpt>
      <trkpt lat="59.219931811106" lon="17.907551996862">
        <ele>43.4</ele>
        <time>2018-12-15T07:43:22Z</time>
      </trkpt>
      <trkpt lat="59.219960477204" lon="17.907628607428">
        <ele>43.4</ele>
        <time>2018-12-15T07:43:23Z</time>
      </trkpt>
      <trkpt lat="59.219984700895" lon="17.907700607949">
        <ele>43.4</ele>
        <time>2018-12-15T07:43:24Z</time>
      </trkpt>
      <trkpt lat="59.220014875735" lon="17.907778056705">
        <ele>43.2</ele>
        <time>2018-12-15T07:43:25Z</time>
      </trkpt>
      <trkpt lat="59.220047313688" lon="17.907854918728">
        <ele>43.2</ele>
        <time>2018-12-15T07:43:26Z</time>
      </trkpt>
      <trkpt lat="59.220081679478" lon="17.90793102638">
        <ele>43.2</ele>
        <time>2018-12-15T07:43:27Z</time>
      </trkpt>
      <trkpt lat="59.22011671582" lon="17.908007469308">
        <ele>43</ele>
        <time>2018-12-15T07:43:28Z</time>
      </trkpt>
      <trkpt lat="59.22015108161" lon="17.90808190058">
        <ele>42.8</ele>
        <time>2018-12-15T07:43:29Z</time>
      </trkpt>
      <trkpt lat="59.220185195943" lon="17.90815147035">
        <ele>42.8</ele>
        <time>2018-12-15T07:43:30Z</time>
      </trkpt>
      <trkpt lat="59.220362137852" lon="17.908561764355">
        <ele>42.8</ele>
        <time>2018-12-15T07:43:36Z</time>
      </trkpt>
      <trkpt lat="59.220302123448" lon="17.908869128628">
        <ele>43</ele>
        <time>2018-12-15T07:43:41Z</time>
      </trkpt>
      <trkpt lat="59.220172120179" lon="17.909025953977">
        <ele>43</ele>
        <time>2018-12-15T07:43:44Z</time>
      </trkpt>
      <trkpt lat="59.219851093409" lon="17.909521240448">
        <ele>43.2</ele>
        <time>2018-12-15T07:43:53Z</time>
      </trkpt>
      <trkpt lat="59.219915885496" lon="17.909869508393">
        <ele>43</ele>
        <time>2018-12-15T07:43:57Z</time>
      </trkpt>
      <trkpt lat="59.220183268106" lon="17.910530924122">
        <ele>42.8</ele>
        <time>2018-12-15T07:44:05Z</time>
      </trkpt>
      <trkpt lat="59.220525920178" lon="17.911371377235">
        <ele>43</ele>
        <time>2018-12-15T07:44:15Z</time>
      </trkpt>
      <trkpt lat="59.220845354387" lon="17.912177464558">
        <ele>44</ele>
        <time>2018-12-15T07:44:24Z</time>
      </trkpt>
      <trkpt lat="59.220973094543" lon="17.912497904595">
        <ele>44.2</ele>
        <time>2018-12-15T07:44:27Z</time>
      </trkpt>
      <trkpt lat="59.221317171538" lon="17.913390912221">
        <ele>44.6</ele>
        <time>2018-12-15T07:44:35Z</time>
      </trkpt>
      <trkpt lat="59.221381125435" lon="17.913618816082">
        <ele>44.6</ele>
        <time>2018-12-15T07:44:37Z</time>
      </trkpt>
      <trkpt lat="59.221396045217" lon="17.913984266922">
        <ele>45.4</ele>
        <time>2018-12-15T07:44:40Z</time>
      </trkpt>
      <trkpt lat="59.221225054457" lon="17.914406798501">
        <ele>46.4</ele>
        <time>2018-12-15T07:44:44Z</time>
      </trkpt>
      <trkpt lat="59.221009974903" lon="17.914819690895">
        <ele>47</ele>
        <time>2018-12-15T07:44:48Z</time>
      </trkpt>
      <trkpt lat="59.220821717429" lon="17.91530039286">
        <ele>47.4</ele>
        <time>2018-12-15T07:44:52Z</time>
      </trkpt>
      <trkpt lat="59.220653492696" lon="17.916403702357">
        <ele>47.4</ele>
        <time>2018-12-15T07:45:00Z</time>
      </trkpt>
      <trkpt lat="59.220607392246" lon="17.916660607592">
        <ele>47.4</ele>
        <time>2018-12-15T07:45:02Z</time>
      </trkpt>
      <trkpt lat="59.220498679003" lon="17.917016503066">
        <ele>47.6</ele>
        <time>2018-12-15T07:45:05Z</time>
      </trkpt>
      <trkpt lat="59.220405723732" lon="17.917246921497">
        <ele>47.8</ele>
        <time>2018-12-15T07:45:07Z</time>
      </trkpt>
      <trkpt lat="59.220295585566" lon="17.917431826211">
        <ele>48.6</ele>
        <time>2018-12-15T07:45:09Z</time>
      </trkpt>
      <trkpt lat="59.219933236029" lon="17.91796332249">
        <ele>49.6</ele>
        <time>2018-12-15T07:45:16Z</time>
      </trkpt>
      <trkpt lat="59.219717402104" lon="17.9183061422">
        <ele>50.8</ele>
        <time>2018-12-15T07:45:20Z</time>
      </trkpt>
      <trkpt lat="59.219291769222" lon="17.918954985079">
        <ele>51.2</ele>
        <time>2018-12-15T07:45:27Z</time>
      </trkpt>
      <trkpt lat="59.218985662234" lon="17.919406518032">
        <ele>50.2</ele>
        <time>2018-12-15T07:45:32Z</time>
      </trkpt>
      <trkpt lat="59.218563298293" lon="17.920066592657">
        <ele>49.8</ele>
        <time>2018-12-15T07:45:39Z</time>
      </trkpt>
      <trkpt lat="59.218437402155" lon="17.920261052737">
        <ele>49.8</ele>
        <time>2018-12-15T07:45:41Z</time>
      </trkpt>
      <trkpt lat="59.218069520564" lon="17.920831105756">
        <ele>49.6</ele>
        <time>2018-12-15T07:45:47Z</time>
      </trkpt>
      <trkpt lat="59.217501982115" lon="17.921237795544">
        <ele>49.6</ele>
        <time>2018-12-15T07:45:55Z</time>
      </trkpt>
      <trkpt lat="59.21743283144" lon="17.921280794691">
        <ele>49.6</ele>
        <time>2018-12-15T07:45:56Z</time>
      </trkpt>
      <trkpt lat="59.216841572214" lon="17.921554715183">
        <ele>49.8</ele>
        <time>2018-12-15T07:46:04Z</time>
      </trkpt>
      <trkpt lat="59.216264059304" lon="17.921612466474">
        <ele>49.4</ele>
        <time>2018-12-15T07:46:12Z</time>
      </trkpt>
      <trkpt lat="59.216151825663" lon="17.921641886943">
        <ele>49.4</ele>
        <time>2018-12-15T07:46:14Z</time>
      </trkpt>
      <trkpt lat="59.216050153216" lon="17.922184866425">
        <ele>49.4</ele>
        <time>2018-12-15T07:46:20Z</time>
      </trkpt>
      <trkpt lat="59.21605400889" lon="17.922322078128">
        <ele>49.4</ele>
        <time>2018-12-15T07:46:21Z</time>
      </trkpt>
      <trkpt lat="59.216041771316" lon="17.92340652835">
        <ele>49.4</ele>
        <time>2018-12-15T07:46:28Z</time>
      </trkpt>
      <trkpt lat="59.21603053957" lon="17.924509921666">
        <ele>49</ele>
        <time>2018-12-15T07:46:35Z</time>
      </trkpt>
      <trkpt lat="59.21601377577" lon="17.92564449565">
        <ele>49.2</ele>
        <time>2018-12-15T07:46:43Z</time>
      </trkpt>
      <trkpt lat="59.215994581219" lon="17.926264337155">
        <ele>50</ele>
        <time>2018-12-15T07:46:48Z</time>
      </trkpt>
      <trkpt lat="59.215983014197" lon="17.926547142461">
        <ele>50.6</ele>
        <time>2018-12-15T07:46:51Z</time>
      </trkpt>
      <trkpt lat="59.215976224858" lon="17.926924914694">
        <ele>51.8</ele>
        <time>2018-12-15T07:46:55Z</time>
      </trkpt>
      <trkpt lat="59.215974297021" lon="17.927230854044">
        <ele>53.6</ele>
        <time>2018-12-15T07:46:58Z</time>
      </trkpt>
      <trkpt lat="59.215971363356" lon="17.927453644946">
        <ele>54.8</ele>
        <time>2018-12-15T07:47:00Z</time>
      </trkpt>
      <trkpt lat="59.21597018989" lon="17.927673837459">
        <ele>55.6</ele>
        <time>2018-12-15T07:47:02Z</time>
      </trkpt>
      <trkpt lat="59.215968597329" lon="17.92788078657">
        <ele>56</ele>
        <time>2018-12-15T07:47:04Z</time>
      </trkpt>
      <trkpt lat="59.215962813818" lon="17.928080108152">
        <ele>56.2</ele>
        <time>2018-12-15T07:47:06Z</time>
      </trkpt>
      <trkpt lat="59.215939595955" lon="17.928500795713">
        <ele>56.2</ele>
        <time>2018-12-15T07:47:10Z</time>
      </trkpt>
      <trkpt lat="59.215857704792" lon="17.929131449869">
        <ele>57</ele>
        <time>2018-12-15T07:47:19Z</time>
      </trkpt>
      <trkpt lat="59.215874552411" lon="17.929246449537">
        <ele>57.6</ele>
        <time>2018-12-15T07:47:20Z</time>
      </trkpt>
      <trkpt lat="59.215906655088" lon="17.929504109143">
        <ele>58</ele>
        <time>2018-12-15T07:47:22Z</time>
      </trkpt>
      <trkpt lat="59.216019307824" lon="17.93063172615">
        <ele>58</ele>
        <time>2018-12-15T07:47:30Z</time>
      </trkpt>
      <trkpt lat="59.216040765488" lon="17.931713997078">
        <ele>57.8</ele>
        <time>2018-12-15T07:47:38Z</time>
      </trkpt>
      <trkpt lat="59.216030204294" lon="17.932823090086">
        <ele>58.2</ele>
        <time>2018-12-15T07:47:46Z</time>
      </trkpt>
      <trkpt lat="59.216018721091" lon="17.933612245971">
        <ele>59</ele>
        <time>2018-12-15T07:47:52Z</time>
      </trkpt>
      <trkpt lat="59.216016960892" lon="17.934135444169">
        <ele>59.8</ele>
        <time>2018-12-15T07:47:56Z</time>
      </trkpt>
      <trkpt lat="59.216013189037" lon="17.934530315478">
        <ele>60.2</ele>
        <time>2018-12-15T07:47:59Z</time>
      </trkpt>
      <trkpt lat="59.216027941181" lon="17.935064242508">
        <ele>60.4</ele>
        <time>2018-12-15T07:48:03Z</time>
      </trkpt>
      <trkpt lat="59.216146796523" lon="17.935818110594">
        <ele>60.6</ele>
        <time>2018-12-15T07:48:09Z</time>
      </trkpt>
      <trkpt lat="59.216394900763" lon="17.9367044127">
        <ele>61</ele>
        <time>2018-12-15T07:48:17Z</time>
      </trkpt>
      <trkpt lat="59.216476205193" lon="17.93689468183">
        <ele>61.2</ele>
        <time>2018-12-15T07:48:19Z</time>
      </trkpt>
      <trkpt lat="59.216576620355" lon="17.937051507179">
        <ele>61.4</ele>
        <time>2018-12-15T07:48:21Z</time>
      </trkpt>
      <trkpt lat="59.216731601686" lon="17.937295001374">
        <ele>61.8</ele>
        <time>2018-12-15T07:48:24Z</time>
      </trkpt>
      <trkpt lat="59.216969647646" lon="17.937734967305">
        <ele>62.2</ele>
        <time>2018-12-15T07:48:29Z</time>
      </trkpt>
      <trkpt lat="59.217086323694" lon="17.937890367731">
        <ele>62.2</ele>
        <time>2018-12-15T07:48:31Z</time>
      </trkpt>
      <trkpt lat="59.217561409786" lon="17.93853669604">
        <ele>62.4</ele>
        <time>2018-12-15T07:48:39Z</time>
      </trkpt>
      <trkpt lat="59.218045883606" lon="17.939226610229">
        <ele>62.2</ele>
        <time>2018-12-15T07:48:48Z</time>
      </trkpt>
      <trkpt lat="59.218496746007" lon="17.93983253778">
        <ele>62.2</ele>
        <time>2018-12-15T07:48:56Z</time>
      </trkpt>
      <trkpt lat="59.218944004191" lon="17.940465874144">
        <ele>62.2</ele>
        <time>2018-12-15T07:49:04Z</time>
      </trkpt>
      <trkpt lat="59.21937575586" lon="17.94109904287">
        <ele>61.8</ele>
        <time>2018-12-15T07:49:12Z</time>
      </trkpt>
      <trkpt lat="59.219524702223" lon="17.941382518728">
        <ele>61.8</ele>
        <time>2018-12-15T07:49:15Z</time>
      </trkpt>
      <trkpt lat="59.219689909472" lon="17.941598771748">
        <ele>61.8</ele>
        <time>2018-12-15T07:49:18Z</time>
      </trkpt>
      <trkpt lat="59.220140268959" lon="17.942177709581">
        <ele>61.8</ele>
        <time>2018-12-15T07:49:26Z</time>
      </trkpt>
      <trkpt lat="59.22026423726" lon="17.942341491907">
        <ele>61.6</ele>
        <time>2018-12-15T07:49:28Z</time>
      </trkpt>
      <trkpt lat="59.220470348181" lon="17.942682635237">
        <ele>61</ele>
        <time>2018-12-15T07:49:32Z</time>
      </trkpt>
      <trkpt lat="59.220521310133" lon="17.942947754734">
        <ele>60</ele>
        <time>2018-12-15T07:49:35Z</time>
      </trkpt>
      <trkpt lat="59.220493733682" lon="17.943165851772">
        <ele>58.4</ele>
        <time>2018-12-15T07:49:37Z</time>
      </trkpt>
      <trkpt lat="59.220371357942" lon="17.943503558523">
        <ele>57.4</ele>
        <time>2018-12-15T07:49:40Z</time>
      </trkpt>
      <trkpt lat="59.220324000207" lon="17.943616211259">
        <ele>57.4</ele>
        <time>2018-12-15T07:49:41Z</time>
      </trkpt>
      <trkpt lat="59.220005068912" lon="17.944233286737">
        <ele>56.4</ele>
        <time>2018-12-15T07:49:47Z</time>
      </trkpt>
      <trkpt lat="59.219955448064" lon="17.944347364396">
        <ele>56</ele>
        <time>2018-12-15T07:49:48Z</time>
      </trkpt>
      <trkpt lat="59.219830306297" lon="17.944519947717">
        <ele>55</ele>
        <time>2018-12-15T07:49:50Z</time>
      </trkpt>
      <trkpt lat="59.219757635224" lon="17.94458926603">
        <ele>54.8</ele>
        <time>2018-12-15T07:49:51Z</time>
      </trkpt>
      <trkpt lat="59.21961380182" lon="17.944756987849">
        <ele>54.2</ele>
        <time>2018-12-15T07:49:53Z</time>
      </trkpt>
      <trkpt lat="59.21955093757" lon="17.944867042196">
        <ele>53.8</ele>
        <time>2018-12-15T07:49:54Z</time>
      </trkpt>
      <trkpt lat="59.219433339513" lon="17.945136771738">
        <ele>52.4</ele>
        <time>2018-12-15T07:49:56Z</time>
      </trkpt>
      <trkpt lat="59.219330325962" lon="17.945398203199">
        <ele>51</ele>
        <time>2018-12-15T07:49:58Z</time>
      </trkpt>
      <trkpt lat="59.219262516391" lon="17.945588891424">
        <ele>49.2</ele>
        <time>2018-12-15T07:50:00Z</time>
      </trkpt>
      <trkpt lat="59.219175260812" lon="17.945628873087">
        <ele>47.6</ele>
        <time>2018-12-15T07:50:02Z</time>
      </trkpt>
      <trkpt lat="59.219012651952" lon="17.945451092988">
        <ele>46.6</ele>
        <time>2018-12-15T07:50:05Z</time>
      </trkpt>
      <trkpt lat="59.218746023713" lon="17.945237103081">
        <ele>45.6</ele>
        <time>2018-12-15T07:50:09Z</time>
      </trkpt>
      <trkpt lat="59.218521221155" lon="17.944978270009">
        <ele>45.2</ele>
        <time>2018-12-15T07:50:13Z</time>
      </trkpt>
      <trkpt lat="59.218253167993" lon="17.944626397847">
        <ele>46.2</ele>
        <time>2018-12-15T07:50:19Z</time>
      </trkpt>
      <trkpt lat="59.218150154442" lon="17.944643916018">
        <ele>46.8</ele>
        <time>2018-12-15T07:50:22Z</time>
      </trkpt>
      <trkpt lat="59.218098186662" lon="17.944784229024">
        <ele>47.8</ele>
        <time>2018-12-15T07:50:24Z</time>
      </trkpt>
      <trkpt lat="59.218070107297" lon="17.944860504314">
        <ele>48.4</ele>
        <time>2018-12-15T07:50:25Z</time>
      </trkpt>
      <trkpt lat="59.217987294125" lon="17.945090922745">
        <ele>49.6</ele>
        <time>2018-12-15T07:50:29Z</time>
      </trkpt>
      <trkpt lat="59.217989221962" lon="17.94510475288">
        <ele>49.8</ele>
        <time>2018-12-15T07:50:31Z</time>
      </trkpt>
      <trkpt lat="59.218059462284" lon="17.945252022863">
        <ele>50</ele>
        <time>2018-12-15T07:52:02Z</time>
      </trkpt>
      <trkpt lat="59.218148478062" lon="17.944972067403">
        <ele>50</ele>
        <time>2018-12-15T07:52:07Z</time>
      </trkpt>
      <trkpt lat="59.218240343686" lon="17.944744834094">
        <ele>50</ele>
        <time>2018-12-15T07:52:11Z</time>
      </trkpt>
      <trkpt lat="59.21841099917" lon="17.9448683833">
        <ele>49.8</ele>
        <time>2018-12-15T07:52:16Z</time>
      </trkpt>
      <trkpt lat="59.218611075123" lon="17.945143393439">
        <ele>49.6</ele>
        <time>2018-12-15T07:52:20Z</time>
      </trkpt>
      <trkpt lat="59.218674274649" lon="17.945216735064">
        <ele>49.4</ele>
        <time>2018-12-15T07:52:21Z</time>
      </trkpt>
      <trkpt lat="59.21886865091" lon="17.945342463564">
        <ele>49</ele>
        <time>2018-12-15T07:52:24Z</time>
      </trkpt>
      <trkpt lat="59.218930509332" lon="17.945398622294">
        <ele>48.6</ele>
        <time>2018-12-15T07:52:25Z</time>
      </trkpt>
      <trkpt lat="59.219054812909" lon="17.945534911988">
        <ele>46.4</ele>
        <time>2018-12-15T07:52:27Z</time>
      </trkpt>
      <trkpt lat="59.219164029066" lon="17.94565963466">
        <ele>45.2</ele>
        <time>2018-12-15T07:52:29Z</time>
      </trkpt>
      <trkpt lat="59.219466950932" lon="17.94508379813">
        <ele>44.8</ele>
        <time>2018-12-15T07:52:37Z</time>
      </trkpt>
      <trkpt lat="59.219580441858" lon="17.944826138524">
        <ele>45</ele>
        <time>2018-12-15T07:52:40Z</time>
      </trkpt>
      <trkpt lat="59.219870120322" lon="17.94449287418">
        <ele>46.4</ele>
        <time>2018-12-15T07:52:47Z</time>
      </trkpt>
      <trkpt lat="59.219905827216" lon="17.944446689911">
        <ele>47</ele>
        <time>2018-12-15T07:52:48Z</time>
      </trkpt>
      <trkpt lat="59.219965087249" lon="17.944330349139">
        <ele>48</ele>
        <time>2018-12-15T07:52:50Z</time>
      </trkpt>
      <trkpt lat="59.220043374195" lon="17.944153742506">
        <ele>49.4</ele>
        <time>2018-12-15T07:52:53Z</time>
      </trkpt>
      <trkpt lat="59.220094839061" lon="17.944052153878">
        <ele>50.4</ele>
        <time>2018-12-15T07:52:55Z</time>
      </trkpt>
      <trkpt lat="59.22015275799" lon="17.943948553594">
        <ele>51.4</ele>
        <time>2018-12-15T07:52:57Z</time>
      </trkpt>
      <trkpt lat="59.220181927002" lon="17.943894825615">
        <ele>51.8</ele>
        <time>2018-12-15T07:52:58Z</time>
      </trkpt>
      <trkpt lat="59.220235152067" lon="17.943781837603">
        <ele>52.6</ele>
        <time>2018-12-15T07:53:00Z</time>
      </trkpt>
      <trkpt lat="59.220314025746" lon="17.943598609269">
        <ele>54</ele>
        <time>2018-12-15T07:53:03Z</time>
      </trkpt>
      <trkpt lat="59.220385607172" lon="17.943385206095">
        <ele>54.8</ele>
        <time>2018-12-15T07:53:06Z</time>
      </trkpt>
      <trkpt lat="59.220423744817" lon="17.943232739334">
        <ele>55</ele>
        <time>2018-12-15T07:53:08Z</time>
      </trkpt>
      <trkpt lat="59.220674866541" lon="17.943289065702">
        <ele>56.2</ele>
        <time>2018-12-15T07:53:15Z</time>
      </trkpt>
      <trkpt lat="59.220786932544" lon="17.943491320949">
        <ele>56.4</ele>
        <time>2018-12-15T07:53:18Z</time>
      </trkpt>
      <trkpt lat="59.220616193241" lon="17.943955426752">
        <ele>55.4</ele>
        <time>2018-12-15T07:53:30Z</time>
      </trkpt>
      <trkpt lat="59.220530111128" lon="17.944020554115">
        <ele>55</ele>
        <time>2018-12-15T07:53:32Z</time>
      </trkpt>
      <trkpt lat="59.220460792815" lon="17.944207638123">
        <ele>54.6</ele>
        <time>2018-12-15T07:53:34Z</time>
      </trkpt>
      <trkpt lat="59.220387199733" lon="17.944415509243">
        <ele>54</ele>
        <time>2018-12-15T07:53:36Z</time>
      </trkpt>
      <trkpt lat="59.220314109565" lon="17.944633103367">
        <ele>52.6</ele>
        <time>2018-12-15T07:53:38Z</time>
      </trkpt>
      <trkpt lat="59.220208497625" lon="17.944962763494">
        <ele>51.6</ele>
        <time>2018-12-15T07:53:41Z</time>
      </trkpt>
      <trkpt lat="59.220157200397" lon="17.945185889672">
        <ele>50.8</ele>
        <time>2018-12-15T07:53:43Z</time>
      </trkpt>
      <trkpt lat="59.220149740506" lon="17.945297452761">
        <ele>50.6</ele>
        <time>2018-12-15T07:53:44Z</time>
      </trkpt>
      <trkpt lat="59.220343194758" lon="17.945619820635">
        <ele>50.2</ele>
        <time>2018-12-15T07:53:49Z</time>
      </trkpt>
      <trkpt lat="59.220387954104" lon="17.945672458967">
        <ele>50.2</ele>
        <time>2018-12-15T07:53:50Z</time>
      </trkpt>
      <trkpt lat="59.220412848347" lon="17.946075712176">
        <ele>50.2</ele>
        <time>2018-12-15T07:53:54Z</time>
      </trkpt>
      <trkpt lat="59.22039080395" lon="17.946343765338">
        <ele>50.2</ele>
        <time>2018-12-15T07:53:56Z</time>
      </trkpt>
      <trkpt lat="59.220409747044" lon="17.946987243801">
        <ele>50.2</ele>
        <time>2018-12-15T07:54:01Z</time>
      </trkpt>
      <trkpt lat="59.220528518567" lon="17.947302570879">
        <ele>49.2</ele>
        <time>2018-12-15T07:54:04Z</time>
      </trkpt>
      <trkpt lat="59.220584677297" lon="17.947379851997">
        <ele>48.4</ele>
        <time>2018-12-15T07:54:05Z</time>
      </trkpt>
      <trkpt lat="59.220639159647" lon="17.947463084264">
        <ele>47.6</ele>
        <time>2018-12-15T07:54:06Z</time>
      </trkpt>
      <trkpt lat="59.220786764906" lon="17.947730383055">
        <ele>46.6</ele>
        <time>2018-12-15T07:54:09Z</time>
      </trkpt>
      <trkpt lat="59.22116864427" lon="17.948528088478">
        <ele>46.8</ele>
        <time>2018-12-15T07:54:18Z</time>
      </trkpt>
      <trkpt lat="59.221249864881" lon="17.948684494732">
        <ele>47</ele>
        <time>2018-12-15T07:54:20Z</time>
      </trkpt>
      <trkpt lat="59.221399314158" lon="17.948875350595">
        <ele>47.6</ele>
        <time>2018-12-15T07:54:23Z</time>
      </trkpt>
      <trkpt lat="59.221663260189" lon="17.9492269713">
        <ele>48.8</ele>
        <time>2018-12-15T07:54:28Z</time>
      </trkpt>
      <trkpt lat="59.222105321595" lon="17.94991261072">
        <ele>48.2</ele>
        <time>2018-12-15T07:54:37Z</time>
      </trkpt>
      <trkpt lat="59.222277737278" lon="17.950203546469">
        <ele>47.8</ele>
        <time>2018-12-15T07:54:41Z</time>
        <extensions><gpxtpx:TrackPointExtension><gpxtpx:hr>142</gpxtpx:hr></gpxtpx:TrackPointExtension></extensions>
      </trkpt>
      <trkpt lat="59.222323418633" lon="17.950280827587">
        <ele>47.8</ele>
        <time>2018-12-15T07:54:42Z</time>
        <extensions><gpxtpx:TrackPointExtension><gpxtpx:hr>141</gpxtpx:hr></gpxtpx:TrackPointExtension></extensions>
      </trkpt>
      <trkpt lat="59.222505724958" lon="17.950623228202">
        <ele>47.6</ele>
        <time>2018-12-15T07:54:46Z</time>
        <extensions><gpxtpx:TrackPointExtension><gpxtpx:hr>140</gpxtpx:hr></gpxtpx:TrackPointExtension></extensions>
      </trkpt>
      <trkpt lat="59.222653414036" lon="17.950923970774">
        <ele>46.6</ele>
        <time>2018-12-15T07:54:50Z</time>
        <extensions><gpxtpx:TrackPointExtension><gpxtpx:hr>138</gpxtpx:hr></gpxtpx:TrackPointExtension></extensions>
      </trkpt>
      <trkpt lat="59.222714937182" lon="17.951058584088">
        <ele>46.2</ele>
        <time>2018-12-15T07:54:53Z</time>
        <extensions><gpxtpx:TrackPointExtension><gpxtpx:hr>135</gpxtpx:hr></gpxtpx:TrackPointExtension></extensions>
      </trkpt>
      <trkpt lat="59.222716529743" lon="17.951090016213">
        <ele>46.2</ele>
        <time>2018-12-15T07:54:55Z</time>
        <extensions><gpxtpx:TrackPointExtension><gpxtpx:hr>132</gpxtpx:hr></gpxtpx:TrackPointExtension></extensions>
      </trkpt>
      <trkpt lat="59.222705381816" lon="17.951102756701">
        <ele>46.4</ele>
        <time>2018-12-15T07:54:58Z</time>
        <extensions><gpxtpx:TrackPointExtension><gpxtpx:hr>131</gpxtpx:hr></gpxtpx:TrackPointExtension></extensions>
      </trkpt>
      <trkpt lat="59.222731784801" lon="17.951142989821">
        <ele>46.6</ele>
        <time>2018-12-15T07:55:33Z</time>
        <extensions><gpxtpx:TrackPointExtension><gpxtpx:hr>109</gpxtpx:hr></gpxtpx:TrackPointExtension></extensions>
      </trkpt>
      <trkpt lat="59.222751817542" lon="17.951172494109">
        <ele>46.6</ele>
        <time>2018-12-15T07:55:34Z</time>
        <extensions><gpxtpx:TrackPointExtension><gpxtpx:hr>110</gpxtpx:hr></gpxtpx:TrackPointExtension></extensions>
      </trkpt>
      <trkpt lat="59.222859860233" lon="17.951302748835">
        <ele>46.6</ele>
        <time>2018-12-15T07:55:37Z</time>
        <extensions><gpxtpx:TrackPointExtension><gpxtpx:hr>111</gpxtpx:hr></gpxtpx:TrackPointExtension></extensions>
      </trkpt>
      <trkpt lat="59.223044345852" lon="17.95158312339">
        <ele>46.2</ele>
        <time>2018-12-15T07:55:41Z</time>
        <extensions><gpxtpx:TrackPointExtension><gpxtpx:hr>114</gpxtpx:hr></gpxtpx:TrackPointExtension></extensions>
      </trkpt>
      <trkpt lat="59.223145263928" lon="17.95178261261">
        <ele>46</ele>
        <time>2018-12-15T07:55:43Z</time>
        <extensions><gpxtpx:TrackPointExtension><gpxtpx:hr>118</gpxtpx:hr></gpxtpx:TrackPointExtension></extensions>
      </trkpt>
      <trkpt lat="59.223265208917" lon="17.951983275296">
        <ele>45.4</ele>
        <time>2018-12-15T07:55:45Z</time>
        <extensions><gpxtpx:TrackPointExtension><gpxtpx:hr>120</gpxtpx:hr></gpxtpx:TrackPointExtension></extensions>
      </trkpt>
      <trkpt lat="59.223404851371" lon="17.952190727321">
        <ele>44.6</ele>
        <time>2018-12-15T07:55:47Z</time>
        <extensions><gpxtpx:TrackPointExtension><gpxtpx:hr>123</gpxtpx:hr></gpxtpx:TrackPointExtension></extensions>
      </trkpt>
      <trkpt lat="59.223556982856" lon="17.952398263165">
        <ele>44.2</ele>
        <time>2018-12-15T07:55:49Z</time>
        <extensions><gpxtpx:TrackPointExtension><gpxtpx:hr>125</gpxtpx:hr></gpxtpx:TrackPointExtension></extensions>
      </trkpt>
      <trkpt lat="59.223717663879" lon="17.952607307751">
        <ele>43</ele>
        <time>2018-12-15T07:55:51Z</time>
        <extensions><gpxtpx:TrackPointExtension><gpxtpx:hr>127</gpxtpx:hr></gpxtpx:TrackPointExtension></extensions>
      </trkpt>
      <trkpt lat="59.223884463689" lon="17.95281945364">
        <ele>41.8</ele>
        <time>2018-12-15T07:55:53Z</time>
        <extensions><gpxtpx:TrackPointExtension><gpxtpx:hr>127</gpxtpx:hr></gpxtpx:TrackPointExtension></extensions>
      </trkpt>
      <trkpt lat="59.223970042888" lon="17.952929005073">
        <ele>40.6</ele>
        <time>2018-12-15T07:55:54Z</time>
        <extensions><gpxtpx:TrackPointExtension><gpxtpx:hr>126</gpxtpx:hr></gpxtpx:TrackPointExtension></extensions>
      </trkpt>
      <trkpt lat="59.224057717562" lon="17.953039646153">
        <ele>39.6</ele>
        <time>2018-12-15T07:55:55Z</time>
        <extensions><gpxtpx:TrackPointExtension><gpxtpx:hr>125</gpxtpx:hr></gpxtpx:TrackPointExtension></extensions>
      </trkpt>
      <trkpt lat="59.224146230426" lon="17.953150035776">
        <ele>38.6</ele>
        <time>2018-12-15T07:55:56Z</time>
        <extensions><gpxtpx:TrackPointExtension><gpxtpx:hr>125</gpxtpx:hr></gpxtpx:TrackPointExtension></extensions>
      </trkpt>
      <trkpt lat="59.224232731634" lon="17.953261682684">
        <ele>37.4</ele>
        <time>2018-12-15T07:55:57Z</time>
        <extensions><gpxtpx:TrackPointExtension><gpxtpx:hr>124</gpxtpx:hr></gpxtpx:TrackPointExtension></extensions>
      </trkpt>
      <trkpt lat="59.224397519788" lon="17.953477348971">
        <ele>35.2</ele>
        <time>2018-12-15T07:55:59Z</time>
        <extensions><gpxtpx:TrackPointExtension><gpxtpx:hr>124</gpxtpx:hr></gpxtpx:TrackPointExtension></extensions>
      </trkpt>
      <trkpt lat="59.224546047056" lon="17.953677173467">
        <ele>33.4</ele>
        <time>2018-12-15T07:56:01Z</time>
        <extensions><gpxtpx:TrackPointExtension><gpxtpx:hr>122</gpxtpx:hr></gpxtpx:TrackPointExtension></extensions>
      </trkpt>
      <trkpt lat="59.224610000953" lon="17.953783875054">
        <ele>32.4</ele>
        <time>2018-12-15T07:56:02Z</time>
        <extensions><gpxtpx:TrackPointExtension><gpxtpx:hr>122</gpxtpx:hr></gpxtpx:TrackPointExtension></extensions>
      </trkpt>
      <trkpt lat="59.22466892571" lon="17.953895941057">
        <ele>31</ele>
        <time>2018-12-15T07:56:03Z</time>
        <extensions><gpxtpx:TrackPointExtension><gpxtpx:hr>122</gpxtpx:hr></gpxtpx:TrackPointExtension></extensions>
      </trkpt>
      <trkpt lat="59.224881909789" lon="17.954334649703">
        <ele>30.4</ele>
        <time>2018-12-15T07:56:07Z</time>
        <extensions><gpxtpx:TrackPointExtension><gpxtpx:hr>125</gpxtpx:hr></gpxtpx:TrackPointExtension></extensions>
      </trkpt>
      <trkpt lat="59.225295556554" lon="17.955048703764">
        <ele>30.8</ele>
        <time>2018-12-15T07:56:15Z</time>
        <extensions><gpxtpx:TrackPointExtension><gpxtpx:hr>124</gpxtpx:hr></gpxtpx:TrackPointExtension></extensions>
      </trkpt>
      <trkpt lat="59.225698558306" lon="17.955708107837">
        <ele>31</ele>
        <time>2018-12-15T07:56:23Z</time>
        <extensions><gpxtpx:TrackPointExtension><gpxtpx:hr>127</gpxtpx:hr></gpxtpx:TrackPointExtension></extensions>
      </trkpt>
      <trkpt lat="59.22580718773" lon="17.955891839085">
        <ele>31</ele>
        <time>2018-12-15T07:56:25Z</time>
        <extensions><gpxtpx:TrackPointExtension><gpxtpx:hr>130</gpxtpx:hr></gpxtpx:TrackPointExtension></extensions>
      </trkpt>
      <trkpt lat="59.225971221513" lon="17.956172297459">
        <ele>30.8</ele>
        <time>2018-12-15T07:56:28Z</time>
        <extensions><gpxtpx:TrackPointExtension><gpxtpx:hr>133</gpxtpx:hr></gpxtpx:TrackPointExtension></extensions>
      </trkpt>
      <trkpt lat="59.226246734566" lon="17.956629111009">
        <ele>30</ele>
        <time>2018-12-15T07:56:33Z</time>
        <extensions><gpxtpx:TrackPointExtension><gpxtpx:hr>136</gpxtpx:hr></gpxtpx:TrackPointExtension></extensions>
      </trkpt>
      <trkpt lat="59.226416384222" lon="17.956913844152">
        <ele>29.6</ele>
        <time>2018-12-15T07:56:36Z</time>
        <extensions><gpxtpx:TrackPointExtension><gpxtpx:hr>138</gpxtpx:hr></gpxtpx:TrackPointExtension></extensions>
      </trkpt>
      <trkpt lat="59.226583686946" lon="17.957201175684">
        <ele>29.4</ele>
        <time>2018-12-15T07:56:39Z</time>
        <extensions><gpxtpx:TrackPointExtension><gpxtpx:hr>141</gpxtpx:hr></gpxtpx:TrackPointExtension></extensions>
      </trkpt>
      <trkpt lat="59.226744954702" lon="17.957495464193">
        <ele>29.2</ele>
        <time>2018-12-15T07:56:42Z</time>
        <extensions><gpxtpx:TrackPointExtension><gpxtpx:hr>144</gpxtpx:hr></gpxtpx:TrackPointExtension></extensions>
      </trkpt>
      <trkpt lat="59.226909072304" lon="17.957794530385">
        <ele>29</ele>
        <time>2018-12-15T07:56:45Z</time>
        <extensions><gpxtpx:TrackPointExtension><gpxtpx:hr>147</gpxtpx:hr></gpxtpx:TrackPointExtension></extensions>
      </trkpt>
      <trkpt lat="59.227060030323" lon="17.958103990133">
        <ele>28.8</ele>
        <time>2018-12-15T07:56:48Z</time>
        <extensions><gpxtpx:TrackPointExtension><gpxtpx:hr>150</gpxtpx:hr></gpxtpx:TrackPointExtension></extensions>
      </trkpt>
      <trkpt lat="59.227303775975" lon="17.958624506123">
        <ele>28.8</ele>
        <time>2018-12-15T07:56:53Z</time>
        <extensions><gpxtpx:TrackPointExtension><gpxtpx:hr>153</gpxtpx:hr></gpxtpx:TrackPointExtension></extensions>
      </trkpt>
      <trkpt lat="59.227528578533" lon="17.95917377203">
        <ele>28.8</ele>
        <time>2018-12-15T07:56:58Z</time>
        <extensions><gpxtpx:TrackPointExtension><gpxtpx:hr>156</gpxtpx:hr></gpxtpx:TrackPointExtension></extensions>
      </trkpt>
      <trkpt lat="59.227821106843" lon="17.959903081149">
        <ele>29.2</ele>
        <time>2018-12-15T07:57:05Z</time>
        <extensions><gpxtpx:TrackPointExtension><gpxtpx:hr>159</gpxtpx:hr></gpxtpx:TrackPointExtension></extensions>
      </trkpt>
      <trkpt lat="59.228150431694" lon="17.960790389083">
        <ele>31</ele>
        <time>2018-12-15T07:57:14Z</time>
        <extensions><gpxtpx:TrackPointExtension><gpxtpx:hr>162</gpxtpx:hr></gpxtpx:TrackPointExtension></extensions>
      </trkpt>
      <trkpt lat="59.228287643397" lon="17.961153492991">
        <ele>32</ele>
        <time>2018-12-15T07:57:18Z</time>
        <extensions><gpxtpx:TrackPointExtension><gpxtpx:hr>163</gpxtpx:hr></gpxtpx:TrackPointExtension></extensions>
      </trkpt>
      <trkpt lat="59.228455197578" lon="17.961573677638">
        <ele>33</ele>
        <time>2018-12-15T07:57:23Z</time>
        <extensions><gpxtpx:TrackPointExtension><gpxtpx:hr>166</gpxtpx:hr></gpxtpx:TrackPointExtension></extensions>
      </trkpt>
      <trkpt lat="59.228487132617" lon="17.961655987896">
        <ele>33</ele>
        <time>2018-12-15T07:57:24Z</time>
        <extensions><gpxtpx:TrackPointExtension><gpxtpx:hr>166</gpxtpx:hr></gpxtpx:TrackPointExtension></extensions>
      </trkpt>
      <trkpt lat="59.228610430366" lon="17.961983468729">
        <ele>34</ele>
        <time>2018-12-15T07:57:28Z</time>
        <extensions><gpxtpx:TrackPointExtension><gpxtpx:hr>166</gpxtpx:hr></gpxtpx:TrackPointExtension></extensions>
      </trkpt>
      <trkpt lat="59.228640856663" lon="17.962063599693">
        <ele>34.2</ele>
        <time>2018-12-15T07:57:29Z</time>
        <extensions><gpxtpx:TrackPointExtension><gpxtpx:hr>166</gpxtpx:hr></gpxtpx:TrackPointExtension></extensions>
      </trkpt>
      <trkpt lat="59.228786785542" lon="17.962461739943">
        <ele>35.4</ele>
        <time>2018-12-15T07:57:34Z</time>
        <extensions><gpxtpx:TrackPointExtension><gpxtpx:hr>165</gpxtpx:hr></gpxtpx:TrackPointExtension></extensions>
      </trkpt>
      <trkpt lat="59.228948388574" lon="17.962830124448">
        <ele>36.4</ele>
        <time>2018-12-15T07:57:39Z</time>
        <extensions><gpxtpx:TrackPointExtension><gpxtpx:hr>164</gpxtpx:hr></gpxtpx:TrackPointExtension></extensions>
      </trkpt>
      <trkpt lat="59.229135137306" lon="17.963284842523">
        <ele>37.6</ele>
        <time>2018-12-15T07:57:45Z</time>
        <extensions><gpxtpx:TrackPointExtension><gpxtpx:hr>164</gpxtpx:hr></gpxtpx:TrackPointExtension></extensions>
      </trkpt>
      <trkpt lat="59.229360694235" lon="17.963802424848">
        <ele>38.6</ele>
        <time>2018-12-15T07:57:52Z</time>
        <extensions><gpxtpx:TrackPointExtension><gpxtpx:hr>164</gpxtpx:hr></gpxtpx:TrackPointExtension></extensions>
      </trkpt>
      <trkpt lat="59.229567224251" lon="17.96422554316">
        <ele>39.6</ele>
        <time>2018-12-15T07:57:58Z</time>
        <extensions><gpxtpx:TrackPointExtension><gpxtpx:hr>165</gpxtpx:hr></gpxtpx:TrackPointExtension></extensions>
      </trkpt>
      <trkpt lat="59.229816166681" lon="17.964746981159">
        <ele>40.8</ele>
        <time>2018-12-15T07:58:05Z</time>
        <extensions><gpxtpx:TrackPointExtension><gpxtpx:hr>165</gpxtpx:hr></gpxtpx:TrackPointExtension></extensions>
      </trkpt>
      <trkpt lat="59.23009033863" lon="17.965250062797">
        <ele>41.2</ele>
        <time>2018-12-15T07:58:12Z</time>
        <extensions><gpxtpx:TrackPointExtension><gpxtpx:hr>162</gpxtpx:hr></gpxtpx:TrackPointExtension></extensions>
      </trkpt>
      <trkpt lat="59.230341041259" lon="17.965688268529">
        <ele>41.2</ele>
        <time>2018-12-15T07:58:18Z</time>
        <extensions><gpxtpx:TrackPointExtension><gpxtpx:hr>159</gpxtpx:hr></gpxtpx:TrackPointExtension></extensions>
      </trkpt>
      <trkpt lat="59.230733146541" lon="17.966413302879">
        <ele>41.2</ele>
        <time>2018-12-15T07:58:27Z</time>
        <extensions><gpxtpx:TrackPointExtension><gpxtpx:hr>156</gpxtpx:hr></gpxtpx:TrackPointExtension></extensions>
      </trkpt>
      <trkpt lat="59.230925008232" lon="17.966753105105">
        <ele>41</ele>
        <time>2018-12-15T07:58:31Z</time>
        <extensions><gpxtpx:TrackPointExtension><gpxtpx:hr>153</gpxtpx:hr></gpxtpx:TrackPointExtension></extensions>
      </trkpt>
      <trkpt lat="59.231023579376" lon="17.966931555756">
        <ele>40.8</ele>
        <time>2018-12-15T07:58:33Z</time>
        <extensions><gpxtpx:TrackPointExtension><gpxtpx:hr>152</gpxtpx:hr></gpxtpx:TrackPointExtension></extensions>
      </trkpt>
      <trkpt lat="59.23117244192" lon="17.96721536689">
        <ele>40.2</ele>
        <time>2018-12-15T07:58:36Z</time>
        <extensions><gpxtpx:TrackPointExtension><gpxtpx:hr>149</gpxtpx:hr></gpxtpx:TrackPointExtension></extensions>
      </trkpt>
      <trkpt lat="59.231319879541" lon="17.967493729789">
        <ele>39.8</ele>
        <time>2018-12-15T07:58:39Z</time>
        <extensions><gpxtpx:TrackPointExtension><gpxtpx:hr>146</gpxtpx:hr></gpxtpx:TrackPointExtension></extensions>
      </trkpt>
      <trkpt lat="59.231368326923" lon="17.96758752325">
        <ele>39.6</ele>
        <time>2018-12-15T07:58:40Z</time>
        <extensions><gpxtpx:TrackPointExtension><gpxtpx:hr>146</gpxtpx:hr></gpxtpx:TrackPointExtension></extensions>
      </trkpt>
      <trkpt lat="59.231464299678" lon="17.967782486244">
        <ele>39.4</ele>
        <time>2018-12-15T07:58:42Z</time>
        <extensions><gpxtpx:TrackPointExtension><gpxtpx:hr>143</gpxtpx:hr></gpxtpx:TrackPointExtension></extensions>
      </trkpt>
      <trkpt lat="59.2316099771" lon="17.968090940164">
        <ele>39</ele>
        <time>2018-12-15T07:58:45Z</time>
        <extensions><gpxtpx:TrackPointExtension><gpxtpx:hr>140</gpxtpx:hr></gpxtpx:TrackPointExtension></extensions>
      </trkpt>
      <trkpt lat="59.231702178" lon="17.968298643646">
        <ele>38.6</ele>
        <time>2018-12-15T07:58:47Z</time>
        <extensions><gpxtpx:TrackPointExtension><gpxtpx:hr>138</gpxtpx:hr></gpxtpx:TrackPointExtension></extensions>
      </trkpt>
      <trkpt lat="59.231780381127" lon="17.968509113155">
        <ele>38.2</ele>
        <time>2018-12-15T07:58:49Z</time>
        <extensions><gpxtpx:TrackPointExtension><gpxtpx:hr>135</gpxtpx:hr></gpxtpx:TrackPointExtension></extensions>
      </trkpt>
      <trkpt lat="59.231956401027" lon="17.968934410761">
        <ele>37.2</ele>
        <time>2018-12-15T07:58:53Z</time>
        <extensions><gpxtpx:TrackPointExtension><gpxtpx:hr>133</gpxtpx:hr></gpxtpx:TrackPointExtension></extensions>
      </trkpt>
      <trkpt lat="59.231999567812" lon="17.96904932661">
        <ele>36.8</ele>
        <time>2018-12-15T07:58:54Z</time>
        <extensions><gpxtpx:TrackPointExtension><gpxtpx:hr>133</gpxtpx:hr></gpxtpx:TrackPointExtension></extensions>
      </trkpt>
      <trkpt lat="59.232083219174" lon="17.969292820805">
        <ele>36.2</ele>
        <time>2018-12-15T07:58:56Z</time>
        <extensions><gpxtpx:TrackPointExtension><gpxtpx:hr>134</gpxtpx:hr></gpxtpx:TrackPointExtension></extensions>
      </trkpt>
      <trkpt lat="59.232250102803" lon="17.969795818624">
        <ele>35.6</ele>
        <time>2018-12-15T07:59:00Z</time>
        <extensions><gpxtpx:TrackPointExtension><gpxtpx:hr>137</gpxtpx:hr></gpxtpx:TrackPointExtension></extensions>
      </trkpt>
      <trkpt lat="59.232383961746" lon="17.97016831026">
        <ele>35</ele>
        <time>2018-12-15T07:59:03Z</time>
        <extensions><gpxtpx:TrackPointExtension><gpxtpx:hr>139</gpxtpx:hr></gpxtpx:TrackPointExtension></extensions>
      </trkpt>
      <trkpt lat="59.232755615192" lon="17.9711204941">
        <ele>34.2</ele>
        <time>2018-12-15T07:59:11Z</time>
        <extensions><gpxtpx:TrackPointExtension><gpxtpx:hr>139</gpxtpx:hr></gpxtpx:TrackPointExtension></extensions>
      </trkpt>
      <trkpt lat="59.232802889108" lon="17.971229542619">
        <ele>34</ele>
        <time>2018-12-15T07:59:12Z</time>
        <extensions><gpxtpx:TrackPointExtension><gpxtpx:hr>139</gpxtpx:hr></gpxtpx:TrackPointExtension></extensions>
      </trkpt>
      <trkpt lat="59.233202789557" lon="17.972063122574">
        <ele>33</ele>
        <time>2018-12-15T07:59:20Z</time>
        <extensions><gpxtpx:TrackPointExtension><gpxtpx:hr>141</gpxtpx:hr></gpxtpx:TrackPointExtension></extensions>
      </trkpt>
      <trkpt lat="59.233368918815" lon="17.972331175736">
        <ele>33</ele>
        <time>2018-12-15T07:59:23Z</time>
        <extensions><gpxtpx:TrackPointExtension><gpxtpx:hr>142</gpxtpx:hr></gpxtpx:TrackPointExtension></extensions>
      </trkpt>
      <trkpt lat="59.233812991877" lon="17.972944144083">
        <ele>33</ele>
        <time>2018-12-15T07:59:31Z</time>
        <extensions><gpxtpx:TrackPointExtension><gpxtpx:hr>144</gpxtpx:hr></gpxtpx:TrackPointExtension></extensions>
      </trkpt>
      <trkpt lat="59.233985910474" lon="17.973142795113">
        <ele>33</ele>
        <time>2018-12-15T07:59:34Z</time>
        <extensions><gpxtpx:TrackPointExtension><gpxtpx:hr>147</gpxtpx:hr></gpxtpx:TrackPointExtension></extensions>
      </trkpt>
      <trkpt lat="59.234163774392" lon="17.973314791701">
        <ele>33.2</ele>
        <time>2018-12-15T07:59:37Z</time>
        <extensions><gpxtpx:TrackPointExtension><gpxtpx:hr>150</gpxtpx:hr></gpxtpx:TrackPointExtension></extensions>
      </trkpt>
      <trkpt lat="59.23434163831" lon="17.97346574972">
        <ele>33.4</ele>
        <time>2018-12-15T07:59:40Z</time>
        <extensions><gpxtpx:TrackPointExtension><gpxtpx:hr>153</gpxtpx:hr></gpxtpx:TrackPointExtension></extensions>
      </trkpt>
      <trkpt lat="59.234648499669" lon="17.97364679876">
        <ele>33.8</ele>
        <time>2018-12-15T07:59:45Z</time>
        <extensions><gpxtpx:TrackPointExtension><gpxtpx:hr>155</gpxtpx:hr></gpxtpx:TrackPointExtension></extensions>
      </trkpt>
      <trkpt lat="59.234711531557" lon="17.973648223683">
        <ele>34</ele>
        <time>2018-12-15T07:59:46Z</time>
        <extensions><gpxtpx:TrackPointExtension><gpxtpx:hr>155</gpxtpx:hr></gpxtpx:TrackPointExtension></extensions>
      </trkpt>
      <trkpt lat="59.234890401303" lon="17.973679739627">
        <ele>34.4</ele>
        <time>2018-12-15T07:59:49Z</time>
        <extensions><gpxtpx:TrackPointExtension><gpxtpx:hr>157</gpxtpx:hr></gpxtpx:TrackPointExtension></extensions>
      </trkpt>
      <trkpt lat="59.23515719718" lon="17.973788117594">
        <ele>35</ele>
        <time>2018-12-15T07:59:54Z</time>
        <extensions><gpxtpx:TrackPointExtension><gpxtpx:hr>158</gpxtpx:hr></gpxtpx:TrackPointExtension></extensions>
      </trkpt>
      <trkpt lat="59.235303377516" lon="17.97386808092">
        <ele>36</ele>
        <time>2018-12-15T07:59:57Z</time>
        <extensions><gpxtpx:TrackPointExtension><gpxtpx:hr>160</gpxtpx:hr></gpxtpx:TrackPointExtension></extensions>
      </trkpt>
      <trkpt lat="59.235440253943" lon="17.973949888264">
        <ele>37.2</ele>
        <time>2018-12-15T08:00:00Z</time>
        <extensions><gpxtpx:TrackPointExtension><gpxtpx:hr>161</gpxtpx:hr></gpxtpx:TrackPointExtension></extensions>
      </trkpt>
      <trkpt lat="59.235524408219" lon="17.973992216859">
        <ele>37.8</ele>
        <time>2018-12-15T08:00:02Z</time>
        <extensions><gpxtpx:TrackPointExtension><gpxtpx:hr>161</gpxtpx:hr></gpxtpx:TrackPointExtension></extensions>
      </trkpt>
      <trkpt lat="59.235565479529" lon="17.973998587103">
        <ele>38.2</ele>
        <time>2018-12-15T08:00:03Z</time>
        <extensions><gpxtpx:TrackPointExtension><gpxtpx:hr>161</gpxtpx:hr></gpxtpx:TrackPointExtension></extensions>
      </trkpt>
      <trkpt lat="59.235702272137" lon="17.973837151709">
        <ele>39.4</ele>
        <time>2018-12-15T08:00:07Z</time>
        <extensions><gpxtpx:TrackPointExtension><gpxtpx:hr>160</gpxtpx:hr></gpxtpx:TrackPointExtension></extensions>
      </trkpt>
      <trkpt lat="59.23579422158" lon="17.973703460404">
        <ele>39.6</ele>
        <time>2018-12-15T08:00:09Z</time>
        <extensions><gpxtpx:TrackPointExtension><gpxtpx:hr>160</gpxtpx:hr></gpxtpx:TrackPointExtension></extensions>
      </trkpt>
      <trkpt lat="59.236018688862" lon="17.973466084996">
        <ele>39.6</ele>
        <time>2018-12-15T08:00:13Z</time>
        <extensions><gpxtpx:TrackPointExtension><gpxtpx:hr>159</gpxtpx:hr></gpxtpx:TrackPointExtension></extensions>
      </trkpt>
      <trkpt lat="59.236270900233" lon="17.973356198287">
        <ele>39.4</ele>
        <time>2018-12-15T08:00:17Z</time>
        <extensions><gpxtpx:TrackPointExtension><gpxtpx:hr>158</gpxtpx:hr></gpxtpx:TrackPointExtension></extensions>
      </trkpt>
      <trkpt lat="59.236520345577" lon="17.973461223494">
        <ele>38.2</ele>
        <time>2018-12-15T08:00:21Z</time>
        <extensions><gpxtpx:TrackPointExtension><gpxtpx:hr>157</gpxtpx:hr></gpxtpx:TrackPointExtension></extensions>
      </trkpt>
      <trkpt lat="59.236832990447" lon="17.974098918446">
        <ele>37.6</ele>
        <time>2018-12-15T08:00:28Z</time>
        <extensions><gpxtpx:TrackPointExtension><gpxtpx:hr>154</gpxtpx:hr></gpxtpx:TrackPointExtension></extensions>
      </trkpt>
      <trkpt lat="59.236862410916" lon="17.974211906458">
        <ele>37.6</ele>
        <time>2018-12-15T08:00:29Z</time>
        <extensions><gpxtpx:TrackPointExtension><gpxtpx:hr>154</gpxtpx:hr></gpxtpx:TrackPointExtension></extensions>
      </trkpt>
      <trkpt lat="59.236975063652" lon="17.974589511053">
        <ele>37.6</ele>
        <time>2018-12-15T08:00:33Z</time>
        <extensions><gpxtpx:TrackPointExtension><gpxtpx:hr>152</gpxtpx:hr></gpxtpx:TrackPointExtension></extensions>
      </trkpt>
      <trkpt lat="59.237013620392" lon="17.974954878074">
        <ele>37.8</ele>
        <time>2018-12-15T08:00:37Z</time>
        <extensions><gpxtpx:TrackPointExtension><gpxtpx:hr>150</gpxtpx:hr></gpxtpx:TrackPointExtension></extensions>
      </trkpt>
      <trkpt lat="59.236949666495" lon="17.975463324128">
        <ele>38.6</ele>
        <time>2018-12-15T08:00:42Z</time>
        <extensions><gpxtpx:TrackPointExtension><gpxtpx:hr>150</gpxtpx:hr></gpxtpx:TrackPointExtension></extensions>
      </trkpt>
      <trkpt lat="59.236629477915" lon="17.976242505552">
        <ele>39.2</ele>
        <time>2018-12-15T08:00:51Z</time>
        <extensions><gpxtpx:TrackPointExtension><gpxtpx:hr>147</gpxtpx:hr></gpxtpx:TrackPointExtension></extensions>
      </trkpt>
      <trkpt lat="59.236666693551" lon="17.976509804343">
        <ele>39.2</ele>
        <time>2018-12-15T08:00:53Z</time>
        <extensions><gpxtpx:TrackPointExtension><gpxtpx:hr>144</gpxtpx:hr></gpxtpx:TrackPointExtension></extensions>
      </trkpt>
      <trkpt lat="59.23678747673" lon="17.976907441679">
        <ele>37.8</ele>
        <time>2018-12-15T08:00:56Z</time>
        <extensions><gpxtpx:TrackPointExtension><gpxtpx:hr>139</gpxtpx:hr></gpxtpx:TrackPointExtension></extensions>
      </trkpt>
      <trkpt lat="59.236841037071" lon="17.977010203773">
        <ele>37.2</ele>
        <time>2018-12-15T08:00:57Z</time>
        <extensions><gpxtpx:TrackPointExtension><gpxtpx:hr>137</gpxtpx:hr></gpxtpx:TrackPointExtension></extensions>
      </trkpt>
      <trkpt lat="59.236897531077" lon="17.977105589795">
        <ele>36.6</ele>
        <time>2018-12-15T08:00:58Z</time>
        <extensions><gpxtpx:TrackPointExtension><gpxtpx:hr>136</gpxtpx:hr></gpxtpx:TrackPointExtension></extensions>
      </trkpt>
      <trkpt lat="59.236953773626" lon="17.977202065464">
        <ele>36.4</ele>
        <time>2018-12-15T08:00:59Z</time>
        <extensions><gpxtpx:TrackPointExtension><gpxtpx:hr>133</gpxtpx:hr></gpxtpx:TrackPointExtension></extensions>
      </trkpt>
      <trkpt lat="59.237069360027" lon="17.97739602263">
        <ele>35.4</ele>
        <time>2018-12-15T08:01:01Z</time>
        <extensions><gpxtpx:TrackPointExtension><gpxtpx:hr>130</gpxtpx:hr></gpxtpx:TrackPointExtension></extensions>
      </trkpt>
      <trkpt lat="59.237123674739" lon="17.977490570462">
        <ele>34.2</ele>
        <time>2018-12-15T08:01:02Z</time>
        <extensions><gpxtpx:TrackPointExtension><gpxtpx:hr>128</gpxtpx:hr></gpxtpx:TrackPointExtension></extensions>
      </trkpt>
      <trkpt lat="59.237208918662" lon="17.97768687456">
        <ele>33</ele>
        <time>2018-12-15T08:01:04Z</time>
        <extensions><gpxtpx:TrackPointExtension><gpxtpx:hr>125</gpxtpx:hr></gpxtpx:TrackPointExtension></extensions>
      </trkpt>
      <trkpt lat="59.237252839818" lon="17.97805148721">
        <ele>31.6</ele>
        <time>2018-12-15T08:01:07Z</time>
        <extensions><gpxtpx:TrackPointExtension><gpxtpx:hr>124</gpxtpx:hr></gpxtpx:TrackPointExtension></extensions>
      </trkpt>
      <trkpt lat="59.237331964954" lon="17.978549288251">
        <ele>30.8</ele>
        <time>2018-12-15T08:01:11Z</time>
        <extensions><gpxtpx:TrackPointExtension><gpxtpx:hr>121</gpxtpx:hr></gpxtpx:TrackPointExtension></extensions>
      </trkpt>
      <trkpt lat="59.237377478671" lon="17.978796386663">
        <ele>30.6</ele>
        <time>2018-12-15T08:01:13Z</time>
        <extensions><gpxtpx:TrackPointExtension><gpxtpx:hr>120</gpxtpx:hr></gpxtpx:TrackPointExtension></extensions>
      </trkpt>
      <trkpt lat="59.237437493075" lon="17.979138535821">
        <ele>30.2</ele>
        <time>2018-12-15T08:01:16Z</time>
        <extensions><gpxtpx:TrackPointExtension><gpxtpx:hr>119</gpxtpx:hr></gpxtpx:TrackPointExtension></extensions>
      </trkpt>
      <trkpt lat="59.237515193288" lon="17.979303072518">
        <ele>30</ele>
        <time>2018-12-15T08:01:18Z</time>
        <extensions><gpxtpx:TrackPointExtension><gpxtpx:hr>122</gpxtpx:hr></gpxtpx:TrackPointExtension></extensions>
      </trkpt>
      <trkpt lat="59.237627091653" lon="17.979466771025">
        <ele>30</ele>
        <time>2018-12-15T08:01:20Z</time>
        <extensions><gpxtpx:TrackPointExtension><gpxtpx:hr>126</gpxtpx:hr></gpxtpx:TrackPointExtension></extensions>
      </trkpt>
      <trkpt lat="59.237739576751" lon="17.979616974673">
        <ele>29.8</ele>
        <time>2018-12-15T08:01:22Z</time>
        <extensions><gpxtpx:TrackPointExtension><gpxtpx:hr>130</gpxtpx:hr></gpxtpx:TrackPointExtension></extensions>
      </trkpt>
      <trkpt lat="59.23789304934" lon="17.979854601538">
        <ele>29.8</ele>
        <time>2018-12-15T08:01:25Z</time>
        <extensions><gpxtpx:TrackPointExtension><gpxtpx:hr>133</gpxtpx:hr></gpxtpx:TrackPointExtension></extensions>
      </trkpt>
      <trkpt lat="59.237943592197" lon="17.97993406195">
        <ele>29.8</ele>
        <time>2018-12-15T08:01:26Z</time>
        <extensions><gpxtpx:TrackPointExtension><gpxtpx:hr>134</gpxtpx:hr></gpxtpx:TrackPointExtension></extensions>
      </trkpt>
      <trkpt lat="59.238139644838" lon="17.980243270241">
        <ele>30</ele>
        <time>2018-12-15T08:01:30Z</time>
        <extensions><gpxtpx:TrackPointExtension><gpxtpx:hr>137</gpxtpx:hr></gpxtpx:TrackPointExtension></extensions>
      </trkpt>
      <trkpt lat="59.238225307856" lon="17.98042272672">
        <ele>30</ele>
        <time>2018-12-15T08:01:32Z</time>
        <extensions><gpxtpx:TrackPointExtension><gpxtpx:hr>138</gpxtpx:hr></gpxtpx:TrackPointExtension></extensions>
      </trkpt>
      <trkpt lat="59.238318095489" lon="17.980616935343">
        <ele>30</ele>
        <time>2018-12-15T08:01:34Z</time>
        <extensions><gpxtpx:TrackPointExtension><gpxtpx:hr>138</gpxtpx:hr></gpxtpx:TrackPointExtension></extensions>
      </trkpt>
      <trkpt lat="59.23864742034" lon="17.981104259009">
        <ele>29.8</ele>
        <time>2018-12-15T08:01:40Z</time>
        <extensions><gpxtpx:TrackPointExtension><gpxtpx:hr>138</gpxtpx:hr></gpxtpx:TrackPointExtension></extensions>
      </trkpt>
      <trkpt lat="59.238805586793" lon="17.981341047684">
        <ele>29.2</ele>
        <time>2018-12-15T08:01:43Z</time>
        <extensions><gpxtpx:TrackPointExtension><gpxtpx:hr>139</gpxtpx:hr></gpxtpx:TrackPointExtension></extensions>
      </trkpt>
      <trkpt lat="59.239050002997" lon="17.981683867394">
        <ele>27.8</ele>
        <time>2018-12-15T08:01:47Z</time>
        <extensions><gpxtpx:TrackPointExtension><gpxtpx:hr>141</gpxtpx:hr></gpxtpx:TrackPointExtension></extensions>
      </trkpt>
      <trkpt lat="59.239248654027" lon="17.981935324394">
        <ele>27.2</ele>
        <time>2018-12-15T08:01:50Z</time>
        <extensions><gpxtpx:TrackPointExtension><gpxtpx:hr>144</gpxtpx:hr></gpxtpx:TrackPointExtension></extensions>
      </trkpt>
      <trkpt lat="59.239377651468" lon="17.982096675969">
        <ele>26.8</ele>
        <time>2018-12-15T08:01:52Z</time>
        <extensions><gpxtpx:TrackPointExtension><gpxtpx:hr>145</gpxtpx:hr></gpxtpx:TrackPointExtension></extensions>
      </trkpt>
      <trkpt lat="59.239503631425" lon="17.982266912358">
        <ele>26.4</ele>
        <time>2018-12-15T08:01:54Z</time>
        <extensions><gpxtpx:TrackPointExtension><gpxtpx:hr>145</gpxtpx:hr></gpxtpx:TrackPointExtension></extensions>
      </trkpt>
      <trkpt lat="59.239784257437" lon="17.982468832329">
        <ele>26</ele>
        <time>2018-12-15T08:01:58Z</time>
        <extensions><gpxtpx:TrackPointExtension><gpxtpx:hr>148</gpxtpx:hr></gpxtpx:TrackPointExtension></extensions>
      </trkpt>
      <trkpt lat="59.23985944308" lon="17.982482327188">
        <ele>26</ele>
        <time>2018-12-15T08:01:59Z</time>
        <extensions><gpxtpx:TrackPointExtension><gpxtpx:hr>148</gpxtpx:hr></gpxtpx:TrackPointExtension></extensions>
      </trkpt>
      <trkpt lat="59.240075444643" lon="17.982520967747">
        <ele>25.8</ele>
        <time>2018-12-15T08:02:02Z</time>
        <extensions><gpxtpx:TrackPointExtension><gpxtpx:hr>148</gpxtpx:hr></gpxtpx:TrackPointExtension></extensions>
      </trkpt>
      <trkpt lat="59.240629907328" lon="17.982675865259">
        <ele>25.8</ele>
        <time>2018-12-15T08:02:10Z</time>
        <extensions><gpxtpx:TrackPointExtension><gpxtpx:hr>150</gpxtpx:hr></gpxtpx:TrackPointExtension></extensions>
      </trkpt>
      <trkpt lat="59.240867534193" lon="17.982707381203">
        <ele>26.2</ele>
        <time>2018-12-15T08:02:15Z</time>
        <extensions><gpxtpx:TrackPointExtension><gpxtpx:hr>151</gpxtpx:hr></gpxtpx:TrackPointExtension></extensions>
      </trkpt>
      <trkpt lat="59.240951185555" lon="17.982681816408">
        <ele>26.2</ele>
        <time>2018-12-15T08:02:17Z</time>
        <extensions><gpxtpx:TrackPointExtension><gpxtpx:hr>151</gpxtpx:hr></gpxtpx:TrackPointExtension></extensions>
      </trkpt>
      <trkpt lat="59.241016899651" lon="17.982657592717">
        <ele>27</ele>
        <time>2018-12-15T08:02:19Z</time>
        <extensions><gpxtpx:TrackPointExtension><gpxtpx:hr>151</gpxtpx:hr></gpxtpx:TrackPointExtension></extensions>
      </trkpt>
      <trkpt lat="59.241046571577" lon="17.982662705676">
        <ele>28.4</ele>
        <time>2018-12-15T08:02:20Z</time>
        <extensions><gpxtpx:TrackPointExtension><gpxtpx:hr>151</gpxtpx:hr></gpxtpx:TrackPointExtension></extensions>
      </trkpt>
      <trkpt lat="59.241099377547" lon="17.982720792243">
        <ele>29.4</ele>
        <time>2018-12-15T08:02:22Z</time>
        <extensions><gpxtpx:TrackPointExtension><gpxtpx:hr>152</gpxtpx:hr></gpxtpx:TrackPointExtension></extensions>
      </trkpt>
      <trkpt lat="59.241176574846" lon="17.982972081605">
        <ele>30.4</ele>
        <time>2018-12-15T08:02:26Z</time>
        <extensions><gpxtpx:TrackPointExtension><gpxtpx:hr>152</gpxtpx:hr></gpxtpx:TrackPointExtension></extensions>
      </trkpt>
      <trkpt lat="59.241190656438" lon="17.983045339411">
        <ele>30.8</ele>
        <time>2018-12-15T08:02:27Z</time>
        <extensions><gpxtpx:TrackPointExtension><gpxtpx:hr>152</gpxtpx:hr></gpxtpx:TrackPointExtension></extensions>
      </trkpt>
      <trkpt lat="59.241215383043" lon="17.983190513919">
        <ele>32</ele>
        <time>2018-12-15T08:02:29Z</time>
        <extensions><gpxtpx:TrackPointExtension><gpxtpx:hr>153</gpxtpx:hr></gpxtpx:TrackPointExtension></extensions>
      </trkpt>
      <trkpt lat="59.241239606734" lon="17.983340214653">
        <ele>33</ele>
        <time>2018-12-15T08:02:31Z</time>
        <extensions><gpxtpx:TrackPointExtension><gpxtpx:hr>154</gpxtpx:hr></gpxtpx:TrackPointExtension></extensions>
      </trkpt>
      <trkpt lat="59.241304985554" lon="17.98361958338">
        <ele>34</ele>
        <time>2018-12-15T08:02:35Z</time>
        <extensions><gpxtpx:TrackPointExtension><gpxtpx:hr>156</gpxtpx:hr></gpxtpx:TrackPointExtension></extensions>
      </trkpt>
      <trkpt lat="59.241415878091" lon="17.984052843791">
        <ele>35.4</ele>
        <time>2018-12-15T08:02:41Z</time>
        <extensions><gpxtpx:TrackPointExtension><gpxtpx:hr>158</gpxtpx:hr></gpxtpx:TrackPointExtension></extensions>
      </trkpt>
      <trkpt lat="59.241521154755" lon="17.984400357365">
        <ele>36.4</ele>
        <time>2018-12-15T08:02:46Z</time>
        <extensions><gpxtpx:TrackPointExtension><gpxtpx:hr>161</gpxtpx:hr></gpxtpx:TrackPointExtension></extensions>
      </trkpt>
      <trkpt lat="59.24166658072" lon="17.984814674682">
        <ele>37.6</ele>
        <time>2018-12-15T08:02:52Z</time>
        <extensions><gpxtpx:TrackPointExtension><gpxtpx:hr>162</gpxtpx:hr></gpxtpx:TrackPointExtension></extensions>
      </trkpt>
      <trkpt lat="59.241874954754" lon="17.985347512065">
        <ele>38.8</ele>
        <time>2018-12-15T08:03:00Z</time>
        <extensions><gpxtpx:TrackPointExtension><gpxtpx:hr>161</gpxtpx:hr></gpxtpx:TrackPointExtension></extensions>
      </trkpt>
      <trkpt lat="59.241982745988" lon="17.985615062313">
        <ele>39.4</ele>
        <time>2018-12-15T08:03:04Z</time>
        <extensions><gpxtpx:TrackPointExtension><gpxtpx:hr>161</gpxtpx:hr></gpxtpx:TrackPointExtension></extensions>
      </trkpt>
      <trkpt lat="59.24204711898" lon="17.98581731756">
        <ele>40</ele>
        <time>2018-12-15T08:03:07Z</time>
        <extensions><gpxtpx:TrackPointExtension><gpxtpx:hr>160</gpxtpx:hr></gpxtpx:TrackPointExtension></extensions>
      </trkpt>
      <trkpt lat="59.242168488892" lon="17.986217385647">
        <ele>41.2</ele>
        <time>2018-12-15T08:03:15Z</time>
        <extensions><gpxtpx:TrackPointExtension><gpxtpx:hr>161</gpxtpx:hr></gpxtpx:TrackPointExtension></extensions>
      </trkpt>
      <trkpt lat="59.242201262121" lon="17.986323081406">
        <ele>42.8</ele>
        <time>2018-12-15T08:03:17Z</time>
        <extensions><gpxtpx:TrackPointExtension><gpxtpx:hr>162</gpxtpx:hr></gpxtpx:TrackPointExtension></extensions>
      </trkpt>
      <trkpt lat="59.242239483585" lon="17.986426346414">
        <ele>43.8</ele>
        <time>2018-12-15T08:03:19Z</time>
        <extensions><gpxtpx:TrackPointExtension><gpxtpx:hr>162</gpxtpx:hr></gpxtpx:TrackPointExtension></extensions>
      </trkpt>
      <trkpt lat="59.242278124144" lon="17.986530114336">
        <ele>45</ele>
        <time>2018-12-15T08:03:21Z</time>
        <extensions><gpxtpx:TrackPointExtension><gpxtpx:hr>163</gpxtpx:hr></gpxtpx:TrackPointExtension></extensions>
      </trkpt>
      <trkpt lat="59.242340234023" lon="17.986687274961">
        <ele>46.2</ele>
        <time>2018-12-15T08:03:24Z</time>
        <extensions><gpxtpx:TrackPointExtension><gpxtpx:hr>164</gpxtpx:hr></gpxtpx:TrackPointExtension></extensions>
      </trkpt>
      <trkpt lat="59.242404942291" lon="17.986853488038">
        <ele>47.4</ele>
        <time>2018-12-15T08:03:27Z</time>
        <extensions><gpxtpx:TrackPointExtension><gpxtpx:hr>165</gpxtpx:hr></gpxtpx:TrackPointExtension></extensions>
      </trkpt>
      <trkpt lat="59.242531341343" lon="17.987120786829">
        <ele>48.2</ele>
        <time>2018-12-15T08:03:31Z</time>
        <extensions><gpxtpx:TrackPointExtension><gpxtpx:hr>165</gpxtpx:hr></gpxtpx:TrackPointExtension></extensions>
      </trkpt>
      <trkpt lat="59.242987232884" lon="17.987841881686">
        <ele>48.2</ele>
        <time>2018-12-15T08:03:39Z</time>
        <extensions><gpxtpx:TrackPointExtension><gpxtpx:hr>164</gpxtpx:hr></gpxtpx:TrackPointExtension></extensions>
      </trkpt>
      <trkpt lat="59.243052779342" lon="17.987909858895">
        <ele>47.8</ele>
        <time>2018-12-15T08:03:40Z</time>
        <extensions><gpxtpx:TrackPointExtension><gpxtpx:hr>163</gpxtpx:hr></gpxtpx:TrackPointExtension></extensions>
      </trkpt>
      <trkpt lat="59.243201222791" lon="17.988027792228">
        <ele>45.4</ele>
        <time>2018-12-15T08:03:42Z</time>
        <extensions><gpxtpx:TrackPointExtension><gpxtpx:hr>163</gpxtpx:hr></gpxtpx:TrackPointExtension></extensions>
      </trkpt>
      <trkpt lat="59.243277833357" lon="17.988086130252">
        <ele>44.2</ele>
        <time>2018-12-15T08:03:43Z</time>
        <extensions><gpxtpx:TrackPointExtension><gpxtpx:hr>161</gpxtpx:hr></gpxtpx:TrackPointExtension></extensions>
      </trkpt>
      <trkpt lat="59.24335469538" lon="17.98814329481">
        <ele>43.6</ele>
        <time>2018-12-15T08:03:44Z</time>
        <extensions><gpxtpx:TrackPointExtension><gpxtpx:hr>161</gpxtpx:hr></gpxtpx:TrackPointExtension></extensions>
      </trkpt>
      <trkpt lat="59.243428288462" lon="17.988197441884">
        <ele>43.2</ele>
        <time>2018-12-15T08:03:45Z</time>
        <extensions><gpxtpx:TrackPointExtension><gpxtpx:hr>160</gpxtpx:hr></gpxtpx:TrackPointExtension></extensions>
      </trkpt>
      <trkpt lat="59.24377379038" lon="17.988441271355">
        <ele>42</ele>
        <time>2018-12-15T08:03:50Z</time>
        <extensions><gpxtpx:TrackPointExtension><gpxtpx:hr>157</gpxtpx:hr></gpxtpx:TrackPointExtension></extensions>
      </trkpt>
      <trkpt lat="59.244012925987" lon="17.98862944501">
        <ele>41.8</ele>
        <time>2018-12-15T08:03:54Z</time>
        <extensions><gpxtpx:TrackPointExtension><gpxtpx:hr>154</gpxtpx:hr></gpxtpx:TrackPointExtension></extensions>
      </trkpt>
      <trkpt lat="59.244301347166" lon="17.988869670264">
        <ele>41.8</ele>
        <time>2018-12-15T08:03:59Z</time>
        <extensions><gpxtpx:TrackPointExtension><gpxtpx:hr>153</gpxtpx:hr></gpxtpx:TrackPointExtension></extensions>
      </trkpt>
      <trkpt lat="59.244812894523" lon="17.989404016389">
        <ele>42</ele>
        <time>2018-12-15T08:04:07Z</time>
        <extensions><gpxtpx:TrackPointExtension><gpxtpx:hr>152</gpxtpx:hr></gpxtpx:TrackPointExtension></extensions>
      </trkpt>
      <trkpt lat="59.245060998763" lon="17.989648600231">
        <ele>41.4</ele>
        <time>2018-12-15T08:04:11Z</time>
        <extensions><gpxtpx:TrackPointExtension><gpxtpx:hr>149</gpxtpx:hr></gpxtpx:TrackPointExtension></extensions>
      </trkpt>
      <trkpt lat="59.245190163842" lon="17.989764857184">
        <ele>40.6</ele>
        <time>2018-12-15T08:04:13Z</time>
        <extensions><gpxtpx:TrackPointExtension><gpxtpx:hr>147</gpxtpx:hr></gpxtpx:TrackPointExtension></extensions>
      </trkpt>
      <trkpt lat="59.245413876753" lon="17.989936518496">
        <ele>39.8</ele>
        <time>2018-12-15T08:04:16Z</time>
        <extensions><gpxtpx:TrackPointExtension><gpxtpx:hr>144</gpxtpx:hr></gpxtpx:TrackPointExtension></extensions>
      </trkpt>
      <trkpt lat="59.245665249934" lon="17.990093595302">
        <ele>39.2</ele>
        <time>2018-12-15T08:04:19Z</time>
        <extensions><gpxtpx:TrackPointExtension><gpxtpx:hr>141</gpxtpx:hr></gpxtpx:TrackPointExtension></extensions>
      </trkpt>
      <trkpt lat="59.245838084712" lon="17.990171295515">
        <ele>38.6</ele>
        <time>2018-12-15T08:04:21Z</time>
        <extensions><gpxtpx:TrackPointExtension><gpxtpx:hr>138</gpxtpx:hr></gpxtpx:TrackPointExtension></extensions>
      </trkpt>
      <trkpt lat="59.24592542411" lon="17.990203314373">
        <ele>38</ele>
        <time>2018-12-15T08:04:22Z</time>
        <extensions><gpxtpx:TrackPointExtension><gpxtpx:hr>138</gpxtpx:hr></gpxtpx:TrackPointExtension></extensions>
      </trkpt>
      <trkpt lat="59.246099180897" lon="17.990255114515">
        <ele>36.4</ele>
        <time>2018-12-15T08:04:24Z</time>
        <extensions><gpxtpx:TrackPointExtension><gpxtpx:hr>137</gpxtpx:hr></gpxtpx:TrackPointExtension></extensions>
      </trkpt>
      <trkpt lat="59.246267489449" lon="17.990291324323">
        <ele>35</ele>
        <time>2018-12-15T08:04:26Z</time>
        <extensions><gpxtpx:TrackPointExtension><gpxtpx:hr>136</gpxtpx:hr></gpxtpx:TrackPointExtension></extensions>
      </trkpt>
      <trkpt lat="59.246429343938" lon="17.990339184972">
        <ele>33.6</ele>
        <time>2018-12-15T08:04:28Z</time>
        <extensions><gpxtpx:TrackPointExtension><gpxtpx:hr>132</gpxtpx:hr></gpxtpx:TrackPointExtension></extensions>
      </trkpt>
      <trkpt lat="59.246661438749" lon="17.990413532425">
        <ele>32.2</ele>
        <time>2018-12-15T08:04:31Z</time>
        <extensions><gpxtpx:TrackPointExtension><gpxtpx:hr>130</gpxtpx:hr></gpxtpx:TrackPointExtension></extensions>
      </trkpt>
      <trkpt lat="59.247016579852" lon="17.990568849032">
        <ele>31.2</ele>
        <time>2018-12-15T08:04:36Z</time>
        <extensions><gpxtpx:TrackPointExtension><gpxtpx:hr>132</gpxtpx:hr></gpxtpx:TrackPointExtension></extensions>
      </trkpt>
      <trkpt lat="59.24721958947" lon="17.990675131524">
        <ele>31.2</ele>
        <time>2018-12-15T08:04:39Z</time>
        <extensions><gpxtpx:TrackPointExtension><gpxtpx:hr>135</gpxtpx:hr></gpxtpx:TrackPointExtension></extensions>
      </trkpt>
      <trkpt lat="59.247411115885" lon="17.990793819228">
        <ele>31.2</ele>
        <time>2018-12-15T08:04:42Z</time>
        <extensions><gpxtpx:TrackPointExtension><gpxtpx:hr>139</gpxtpx:hr></gpxtpx:TrackPointExtension></extensions>
      </trkpt>
      <trkpt lat="59.247527791933" lon="17.990867747586">
        <ele>31.8</ele>
        <time>2018-12-15T08:04:44Z</time>
        <extensions><gpxtpx:TrackPointExtension><gpxtpx:hr>142</gpxtpx:hr></gpxtpx:TrackPointExtension></extensions>
      </trkpt>
      <trkpt lat="59.247588476889" lon="17.990906052869">
        <ele>32.2</ele>
        <time>2018-12-15T08:04:45Z</time>
        <extensions><gpxtpx:TrackPointExtension><gpxtpx:hr>143</gpxtpx:hr></gpxtpx:TrackPointExtension></extensions>
      </trkpt>
      <trkpt lat="59.247718815434" lon="17.990981573788">
        <ele>32.8</ele>
        <time>2018-12-15T08:04:47Z</time>
        <extensions><gpxtpx:TrackPointExtension><gpxtpx:hr>146</gpxtpx:hr></gpxtpx:TrackPointExtension></extensions>
      </trkpt>
      <trkpt lat="59.247783942797" lon="17.99102331565">
        <ele>33.4</ele>
        <time>2018-12-15T08:04:48Z</time>
        <extensions><gpxtpx:TrackPointExtension><gpxtpx:hr>147</gpxtpx:hr></gpxtpx:TrackPointExtension></extensions>
      </trkpt>
      <trkpt lat="59.248327592831" lon="17.991389017947">
        <ele>34.2</ele>
        <time>2018-12-15T08:04:56Z</time>
        <extensions><gpxtpx:TrackPointExtension><gpxtpx:hr>150</gpxtpx:hr></gpxtpx:TrackPointExtension></extensions>
      </trkpt>
      <trkpt lat="59.248861519861" lon="17.991716666418">
        <ele>32.8</ele>
        <time>2018-12-15T08:05:04Z</time>
        <extensions><gpxtpx:TrackPointExtension><gpxtpx:hr>148</gpxtpx:hr></gpxtpx:TrackPointExtension></extensions>
      </trkpt>
      <trkpt lat="59.248921701903" lon="17.991766873999">
        <ele>32.8</ele>
        <time>2018-12-15T08:05:05Z</time>
        <extensions><gpxtpx:TrackPointExtension><gpxtpx:hr>147</gpxtpx:hr></gpxtpx:TrackPointExtension></extensions>
      </trkpt>
      <trkpt lat="59.249072995198" lon="17.992117656514">
        <ele>32.6</ele>
        <time>2018-12-15T08:05:09Z</time>
        <extensions><gpxtpx:TrackPointExtension><gpxtpx:hr>146</gpxtpx:hr></gpxtpx:TrackPointExtension></extensions>
      </trkpt>
      <trkpt lat="59.249140301855" lon="17.992315469354">
        <ele>32.6</ele>
        <time>2018-12-15T08:05:11Z</time>
        <extensions><gpxtpx:TrackPointExtension><gpxtpx:hr>146</gpxtpx:hr></gpxtpx:TrackPointExtension></extensions>
      </trkpt>
      <trkpt lat="59.249584207279" lon="17.9929721074">
        <ele>33.8</ele>
        <time>2018-12-15T08:05:21Z</time>
        <extensions><gpxtpx:TrackPointExtension><gpxtpx:hr>148</gpxtpx:hr></gpxtpx:TrackPointExtension></extensions>
      </trkpt>
      <trkpt lat="59.249707840304" lon="17.993129603301">
        <ele>34.4</ele>
        <time>2018-12-15T08:05:24Z</time>
        <extensions><gpxtpx:TrackPointExtension><gpxtpx:hr>149</gpxtpx:hr></gpxtpx:TrackPointExtension></extensions>
      </trkpt>
      <trkpt lat="59.24974924689" lon="17.993177212493">
        <ele>34.6</ele>
        <time>2018-12-15T08:05:25Z</time>
        <extensions><gpxtpx:TrackPointExtension><gpxtpx:hr>149</gpxtpx:hr></gpxtpx:TrackPointExtension></extensions>
      </trkpt>
      <trkpt lat="59.249879585435" lon="17.993294894369">
        <ele>35.6</ele>
        <time>2018-12-15T08:05:28Z</time>
        <extensions><gpxtpx:TrackPointExtension><gpxtpx:hr>152</gpxtpx:hr></gpxtpx:TrackPointExtension></extensions>
      </trkpt>
      <trkpt lat="59.250002296451" lon="17.993434872099">
        <ele>36.6</ele>
        <time>2018-12-15T08:05:31Z</time>
        <extensions><gpxtpx:TrackPointExtension><gpxtpx:hr>154</gpxtpx:hr></gpxtpx:TrackPointExtension></extensions>
      </trkpt>
      <trkpt lat="59.250128695503" lon="17.993548865939">
        <ele>37</ele>
        <time>2018-12-15T08:05:34Z</time>
        <extensions><gpxtpx:TrackPointExtension><gpxtpx:hr>157</gpxtpx:hr></gpxtpx:TrackPointExtension></extensions>
      </trkpt>
      <trkpt lat="59.250210167571" lon="17.993626817609">
        <ele>37.6</ele>
        <time>2018-12-15T08:05:36Z</time>
        <extensions><gpxtpx:TrackPointExtension><gpxtpx:hr>158</gpxtpx:hr></gpxtpx:TrackPointExtension></extensions>
      </trkpt>
      <trkpt lat="59.250251909433" lon="17.993659255562">
        <ele>37.6</ele>
        <time>2018-12-15T08:05:37Z</time>
        <extensions><gpxtpx:TrackPointExtension><gpxtpx:hr>158</gpxtpx:hr></gpxtpx:TrackPointExtension></extensions>
      </trkpt>
      <trkpt lat="59.250415859397" lon="17.993790264659">
        <ele>38.8</ele>
        <time>2018-12-15T08:05:41Z</time>
        <extensions><gpxtpx:TrackPointExtension><gpxtpx:hr>158</gpxtpx:hr></gpxtpx:TrackPointExtension></extensions>
      </trkpt>
      <trkpt lat="59.250540079155" lon="17.993883806663">
        <ele>40</ele>
        <time>2018-12-15T08:05:44Z</time>
        <extensions><gpxtpx:TrackPointExtension><gpxtpx:hr>159</gpxtpx:hr></gpxtpx:TrackPointExtension></extensions>
      </trkpt>
      <trkpt lat="59.250709896449" lon="17.994001823815">
        <ele>41.4</ele>
        <time>2018-12-15T08:05:48Z</time>
        <extensions><gpxtpx:TrackPointExtension><gpxtpx:hr>160</gpxtpx:hr></gpxtpx:TrackPointExtension></extensions>
      </trkpt>
      <trkpt lat="59.25091936013" lon="17.994129731609">
        <ele>42.4</ele>
        <time>2018-12-15T08:05:53Z</time>
        <extensions><gpxtpx:TrackPointExtension><gpxtpx:hr>161</gpxtpx:hr></gpxtpx:TrackPointExtension></extensions>
      </trkpt>
      <trkpt lat="59.251090769985" lon="17.994255460109">
        <ele>43.6</ele>
        <time>2018-12-15T08:05:57Z</time>
        <extensions><gpxtpx:TrackPointExtension><gpxtpx:hr>161</gpxtpx:hr></gpxtpx:TrackPointExtension></extensions>
      </trkpt>
      <trkpt lat="59.251265700238" lon="17.994373225804">
        <ele>44.6</ele>
        <time>2018-12-15T08:06:01Z</time>
        <extensions><gpxtpx:TrackPointExtension><gpxtpx:hr>163</gpxtpx:hr></gpxtpx:TrackPointExtension></extensions>
      </trkpt>
      <trkpt lat="59.251531574106" lon="17.994572966481">
        <ele>45.8</ele>
        <time>2018-12-15T08:06:07Z</time>
        <extensions><gpxtpx:TrackPointExtension><gpxtpx:hr>165</gpxtpx:hr></gpxtpx:TrackPointExtension></extensions>
      </trkpt>
      <trkpt lat="59.252079079814" lon="17.994982506115">
        <ele>46.6</ele>
        <time>2018-12-15T08:06:18Z</time>
        <extensions><gpxtpx:TrackPointExtension><gpxtpx:hr>167</gpxtpx:hr></gpxtpx:TrackPointExtension></extensions>
      </trkpt>
      <trkpt lat="59.25260496022" lon="17.995253073847">
        <ele>45.8</ele>
        <time>2018-12-15T08:06:27Z</time>
        <extensions><gpxtpx:TrackPointExtension><gpxtpx:hr>165</gpxtpx:hr></gpxtpx:TrackPointExtension></extensions>
      </trkpt>
      <trkpt lat="59.252745021769" lon="17.995311160414">
        <ele>45.8</ele>
        <time>2018-12-15T08:06:30Z</time>
        <extensions><gpxtpx:TrackPointExtension><gpxtpx:hr>164</gpxtpx:hr></gpxtpx:TrackPointExtension></extensions>
      </trkpt>
      <trkpt lat="59.252847364768" lon="17.995316273373">
        <ele>45.8</ele>
        <time>2018-12-15T08:06:32Z</time>
        <extensions><gpxtpx:TrackPointExtension><gpxtpx:hr>163</gpxtpx:hr></gpxtpx:TrackPointExtension></extensions>
      </trkpt>
      <trkpt lat="59.253178114542" lon="17.995061463613">
        <ele>46.8</ele>
        <time>2018-12-15T08:06:38Z</time>
        <extensions><gpxtpx:TrackPointExtension><gpxtpx:hr>165</gpxtpx:hr></gpxtpx:TrackPointExtension></extensions>
      </trkpt>
      <trkpt lat="59.253697540885" lon="17.99501645281">
        <ele>46.4</ele>
        <time>2018-12-15T08:06:46Z</time>
        <extensions><gpxtpx:TrackPointExtension><gpxtpx:hr>163</gpxtpx:hr></gpxtpx:TrackPointExtension></extensions>
      </trkpt>
      <trkpt lat="59.253943298193" lon="17.994888377378">
        <ele>45.8</ele>
        <time>2018-12-15T08:06:50Z</time>
        <extensions><gpxtpx:TrackPointExtension><gpxtpx:hr>160</gpxtpx:hr></gpxtpx:TrackPointExtension></extensions>
      </trkpt>
      <trkpt lat="59.254208166233" lon="17.994717302799">
        <ele>45.2</ele>
        <time>2018-12-15T08:06:54Z</time>
        <extensions><gpxtpx:TrackPointExtension><gpxtpx:hr>157</gpxtpx:hr></gpxtpx:TrackPointExtension></extensions>
      </trkpt>
      <trkpt lat="59.254537323446" lon="17.994564081667">
        <ele>45</ele>
        <time>2018-12-15T08:06:58Z</time>
        <extensions><gpxtpx:TrackPointExtension><gpxtpx:hr>154</gpxtpx:hr></gpxtpx:TrackPointExtension></extensions>
      </trkpt>
      <trkpt lat="59.254623489378" lon="17.994529632058">
        <ele>44.8</ele>
        <time>2018-12-15T08:06:59Z</time>
        <extensions><gpxtpx:TrackPointExtension><gpxtpx:hr>153</gpxtpx:hr></gpxtpx:TrackPointExtension></extensions>
      </trkpt>
      <trkpt lat="59.254795402147" lon="17.994473557147">
        <ele>44</ele>
        <time>2018-12-15T08:07:01Z</time>
        <extensions><gpxtpx:TrackPointExtension><gpxtpx:hr>150</gpxtpx:hr></gpxtpx:TrackPointExtension></extensions>
      </trkpt>
      <trkpt lat="59.254881316622" lon="17.99445318913">
        <ele>43.4</ele>
        <time>2018-12-15T08:07:02Z</time>
        <extensions><gpxtpx:TrackPointExtension><gpxtpx:hr>149</gpxtpx:hr></gpxtpx:TrackPointExtension></extensions>
      </trkpt>
      <trkpt lat="59.254966812002" lon="17.994432821113">
        <ele>42.8</ele>
        <time>2018-12-15T08:07:03Z</time>
        <extensions><gpxtpx:TrackPointExtension><gpxtpx:hr>146</gpxtpx:hr></gpxtpx:TrackPointExtension></extensions>
      </trkpt>
      <trkpt lat="59.255051553011" lon="17.994414380933">
        <ele>41.8</ele>
        <time>2018-12-15T08:07:04Z</time>
        <extensions><gpxtpx:TrackPointExtension><gpxtpx:hr>145</gpxtpx:hr></gpxtpx:TrackPointExtension></extensions>
      </trkpt>
      <trkpt lat="59.255216341165" lon="17.994397952409">
        <ele>40.4</ele>
        <time>2018-12-15T08:07:06Z</time>
        <extensions><gpxtpx:TrackPointExtension><gpxtpx:hr>142</gpxtpx:hr></gpxtpx:TrackPointExtension></extensions>
      </trkpt>
      <trkpt lat="59.255375094351" lon="17.994403149187">
        <ele>39</ele>
        <time>2018-12-15T08:07:08Z</time>
        <extensions><gpxtpx:TrackPointExtension><gpxtpx:hr>138</gpxtpx:hr></gpxtpx:TrackPointExtension></extensions>
      </trkpt>
      <trkpt lat="59.255536026831" lon="17.994418152788">
        <ele>37.8</ele>
        <time>2018-12-15T08:07:10Z</time>
        <extensions><gpxtpx:TrackPointExtension><gpxtpx:hr>137</gpxtpx:hr></gpxtpx:TrackPointExtension></extensions>
      </trkpt>
      <trkpt lat="59.256038102641" lon="17.994480597943">
        <ele>36.8</ele>
        <time>2018-12-15T08:07:16Z</time>
        <extensions><gpxtpx:TrackPointExtension><gpxtpx:hr>139</gpxtpx:hr></gpxtpx:TrackPointExtension></extensions>
      </trkpt>
      <trkpt lat="59.256649143151" lon="17.994533487732">
        <ele>36.2</ele>
        <time>2018-12-15T08:07:23Z</time>
        <extensions><gpxtpx:TrackPointExtension><gpxtpx:hr>140</gpxtpx:hr></gpxtpx:TrackPointExtension></extensions>
      </trkpt>
      <trkpt lat="59.257030519601" lon="17.994571122463">
        <ele>35.6</ele>
        <time>2018-12-15T08:07:27Z</time>
        <extensions><gpxtpx:TrackPointExtension><gpxtpx:hr>138</gpxtpx:hr></gpxtpx:TrackPointExtension></extensions>
      </trkpt>
      <trkpt lat="59.257323215549" lon="17.994605655891">
        <ele>33.8</ele>
        <time>2018-12-15T08:07:30Z</time>
        <extensions><gpxtpx:TrackPointExtension><gpxtpx:hr>135</gpxtpx:hr></gpxtpx:TrackPointExtension></extensions>
      </trkpt>
      <trkpt lat="59.257496385603" lon="17.994600040018">
        <ele>32.2</ele>
        <time>2018-12-15T08:07:32Z</time>
        <extensions><gpxtpx:TrackPointExtension><gpxtpx:hr>131</gpxtpx:hr></gpxtpx:TrackPointExtension></extensions>
      </trkpt>
      <trkpt lat="59.257646924527" lon="17.994514879914">
        <ele>30.4</ele>
        <time>2018-12-15T08:07:34Z</time>
        <extensions><gpxtpx:TrackPointExtension><gpxtpx:hr>131</gpxtpx:hr></gpxtpx:TrackPointExtension></extensions>
      </trkpt>
      <trkpt lat="59.257815903631" lon="17.994254035186">
        <ele>29.4</ele>
        <time>2018-12-15T08:07:37Z</time>
        <extensions><gpxtpx:TrackPointExtension><gpxtpx:hr>133</gpxtpx:hr></gpxtpx:TrackPointExtension></extensions>
      </trkpt>
      <trkpt lat="59.257864351013" lon="17.994163426847">
        <ele>29.2</ele>
        <time>2018-12-15T08:07:38Z</time>
        <extensions><gpxtpx:TrackPointExtension><gpxtpx:hr>133</gpxtpx:hr></gpxtpx:TrackPointExtension></extensions>
      </trkpt>
      <trkpt lat="59.258139025876" lon="17.993573341087">
        <ele>30</ele>
        <time>2018-12-15T08:07:45Z</time>
        <extensions><gpxtpx:TrackPointExtension><gpxtpx:hr>136</gpxtpx:hr></gpxtpx:TrackPointExtension></extensions>
      </trkpt>
      <trkpt lat="59.25817976191" lon="17.993503687498">
        <ele>30.2</ele>
        <time>2018-12-15T08:07:46Z</time>
        <extensions><gpxtpx:TrackPointExtension><gpxtpx:hr>136</gpxtpx:hr></gpxtpx:TrackPointExtension></extensions>
      </trkpt>
      <trkpt lat="59.258262072168" lon="17.993374354781">
        <ele>31</ele>
        <time>2018-12-15T08:07:48Z</time>
        <extensions><gpxtpx:TrackPointExtension><gpxtpx:hr>137</gpxtpx:hr></gpxtpx:TrackPointExtension></extensions>
      </trkpt>
      <trkpt lat="59.258297359967" lon="17.993297492758">
        <ele>31.2</ele>
        <time>2018-12-15T08:07:49Z</time>
        <extensions><gpxtpx:TrackPointExtension><gpxtpx:hr>138</gpxtpx:hr></gpxtpx:TrackPointExtension></extensions>
      </trkpt>
      <trkpt lat="59.258400792613" lon="17.993064140662">
        <ele>32.6</ele>
        <time>2018-12-15T08:07:52Z</time>
        <extensions><gpxtpx:TrackPointExtension><gpxtpx:hr>141</gpxtpx:hr></gpxtpx:TrackPointExtension></extensions>
      </trkpt>
      <trkpt lat="59.258466925804" lon="17.992911506263">
        <ele>33</ele>
        <time>2018-12-15T08:07:54Z</time>
        <extensions><gpxtpx:TrackPointExtension><gpxtpx:hr>144</gpxtpx:hr></gpxtpx:TrackPointExtension></extensions>
      </trkpt>
      <trkpt lat="59.258567676242" lon="17.992684524411">
        <ele>33.8</ele>
        <time>2018-12-15T08:07:57Z</time>
        <extensions><gpxtpx:TrackPointExtension><gpxtpx:hr>147</gpxtpx:hr></gpxtpx:TrackPointExtension></extensions>
      </trkpt>
      <trkpt lat="59.258632887424" lon="17.992532225288">
        <ele>34</ele>
        <time>2018-12-15T08:07:59Z</time>
        <extensions><gpxtpx:TrackPointExtension><gpxtpx:hr>150</gpxtpx:hr></gpxtpx:TrackPointExtension></extensions>
      </trkpt>
      <trkpt lat="59.258756352811" lon="17.992218323133">
        <ele>35</ele>
        <time>2018-12-15T08:08:03Z</time>
        <extensions><gpxtpx:TrackPointExtension><gpxtpx:hr>153</gpxtpx:hr></gpxtpx:TrackPointExtension></extensions>
      </trkpt>
      <trkpt lat="59.258883673872" lon="17.991893189232">
        <ele>36.2</ele>
        <time>2018-12-15T08:08:07Z</time>
        <extensions><gpxtpx:TrackPointExtension><gpxtpx:hr>154</gpxtpx:hr></gpxtpx:TrackPointExtension></extensions>
      </trkpt>
      <trkpt lat="59.259143093677" lon="17.991218697739">
        <ele>36.8</ele>
        <time>2018-12-15T08:08:15Z</time>
        <extensions><gpxtpx:TrackPointExtension><gpxtpx:hr>157</gpxtpx:hr></gpxtpx:TrackPointExtension></extensions>
      </trkpt>
      <trkpt lat="59.25948147098" lon="17.990312781987">
        <ele>36.8</ele>
        <time>2018-12-15T08:08:25Z</time>
        <extensions><gpxtpx:TrackPointExtension><gpxtpx:hr>158</gpxtpx:hr></gpxtpx:TrackPointExtension></extensions>
      </trkpt>
      <trkpt lat="59.259734352903" lon="17.98966628604">
        <ele>36.4</ele>
        <time>2018-12-15T08:08:32Z</time>
        <extensions><gpxtpx:TrackPointExtension><gpxtpx:hr>155</gpxtpx:hr></gpxtpx:TrackPointExtension></extensions>
      </trkpt>
      <trkpt lat="59.26007658588" lon="17.988763303953">
        <ele>36.2</ele>
        <time>2018-12-15T08:08:42Z</time>
        <extensions><gpxtpx:TrackPointExtension><gpxtpx:hr>153</gpxtpx:hr></gpxtpx:TrackPointExtension></extensions>
      </trkpt>
      <trkpt lat="59.260278673489" lon="17.988221497937">
        <ele>36.2</ele>
        <time>2018-12-15T08:08:48Z</time>
        <extensions><gpxtpx:TrackPointExtension><gpxtpx:hr>150</gpxtpx:hr></gpxtpx:TrackPointExtension></extensions>
      </trkpt>
      <trkpt lat="59.260313877469" lon="17.98813407472">
        <ele>36.2</ele>
        <time>2018-12-15T08:08:49Z</time>
        <extensions><gpxtpx:TrackPointExtension><gpxtpx:hr>150</gpxtpx:hr></gpxtpx:TrackPointExtension></extensions>
      </trkpt>
      <trkpt lat="59.260682345793" lon="17.987982278511">
        <ele>36.6</ele>
        <time>2018-12-15T08:08:58Z</time>
        <extensions><gpxtpx:TrackPointExtension><gpxtpx:hr>150</gpxtpx:hr></gpxtpx:TrackPointExtension></extensions>
      </trkpt>
      <trkpt lat="59.260797261642" lon="17.987984709262">
        <ele>37.2</ele>
        <time>2018-12-15T08:09:02Z</time>
        <extensions><gpxtpx:TrackPointExtension><gpxtpx:hr>152</gpxtpx:hr></gpxtpx:TrackPointExtension></extensions>
      </trkpt>
      <trkpt lat="59.260852833639" lon="17.987959060648">
        <ele>39.6</ele>
        <time>2018-12-15T08:09:04Z</time>
        <extensions><gpxtpx:TrackPointExtension><gpxtpx:hr>152</gpxtpx:hr></gpxtpx:TrackPointExtension></extensions>
      </trkpt>
      <trkpt lat="59.260907148351" lon="17.987913044017">
        <ele>40.8</ele>
        <time>2018-12-15T08:09:06Z</time>
        <extensions><gpxtpx:TrackPointExtension><gpxtpx:hr>154</gpxtpx:hr></gpxtpx:TrackPointExtension></extensions>
      </trkpt>
      <trkpt lat="59.260991218808" lon="17.987843977161">
        <ele>42.2</ele>
        <time>2018-12-15T08:09:09Z</time>
        <extensions><gpxtpx:TrackPointExtension><gpxtpx:hr>157</gpxtpx:hr></gpxtpx:TrackPointExtension></extensions>
      </trkpt>
      <trkpt lat="59.261068919021" lon="17.987764013835">
        <ele>43.2</ele>
        <time>2018-12-15T08:09:12Z</time>
        <extensions><gpxtpx:TrackPointExtension><gpxtpx:hr>160</gpxtpx:hr></gpxtpx:TrackPointExtension></extensions>
      </trkpt>
      <trkpt lat="59.261171010563" lon="17.987659072447">
        <ele>44.6</ele>
        <time>2018-12-15T08:09:16Z</time>
        <extensions><gpxtpx:TrackPointExtension><gpxtpx:hr>161</gpxtpx:hr></gpxtpx:TrackPointExtension></extensions>
      </trkpt>
      <trkpt lat="59.261274862304" lon="17.987546838806">
        <ele>45.8</ele>
        <time>2018-12-15T08:09:20Z</time>
        <extensions><gpxtpx:TrackPointExtension><gpxtpx:hr>162</gpxtpx:hr></gpxtpx:TrackPointExtension></extensions>
      </trkpt>
      <trkpt lat="59.261358262209" lon="17.98743502426">
        <ele>46.8</ele>
        <time>2018-12-15T08:09:23Z</time>
        <extensions><gpxtpx:TrackPointExtension><gpxtpx:hr>163</gpxtpx:hr></gpxtpx:TrackPointExtension></extensions>
      </trkpt>
      <trkpt lat="59.261440991562" lon="17.987318767307">
        <ele>48.2</ele>
        <time>2018-12-15T08:09:26Z</time>
        <extensions><gpxtpx:TrackPointExtension><gpxtpx:hr>164</gpxtpx:hr></gpxtpx:TrackPointExtension></extensions>
      </trkpt>
      <trkpt lat="59.261549704805" lon="17.987159846483">
        <ele>49.2</ele>
        <time>2018-12-15T08:09:30Z</time>
        <extensions><gpxtpx:TrackPointExtension><gpxtpx:hr>164</gpxtpx:hr></gpxtpx:TrackPointExtension></extensions>
      </trkpt>
      <trkpt lat="59.261664788292" lon="17.98695893234">
        <ele>50.2</ele>
        <time>2018-12-15T08:09:34Z</time>
        <extensions><gpxtpx:TrackPointExtension><gpxtpx:hr>165</gpxtpx:hr></gpxtpx:TrackPointExtension></extensions>
      </trkpt>
      <trkpt lat="59.262093857753" lon="17.98627664568">
        <ele>51.2</ele>
        <time>2018-12-15T08:09:46Z</time>
        <extensions><gpxtpx:TrackPointExtension><gpxtpx:hr>165</gpxtpx:hr></gpxtpx:TrackPointExtension></extensions>
      </trkpt>
      <trkpt lat="59.262132163036" lon="17.986237669845">
        <ele>51.2</ele>
        <time>2018-12-15T08:09:47Z</time>
        <extensions><gpxtpx:TrackPointExtension><gpxtpx:hr>165</gpxtpx:hr></gpxtpx:TrackPointExtension></extensions>
      </trkpt>
      <trkpt lat="59.262244229039" lon="17.986163657668">
        <ele>51.4</ele>
        <time>2018-12-15T08:09:50Z</time>
        <extensions><gpxtpx:TrackPointExtension><gpxtpx:hr>164</gpxtpx:hr></gpxtpx:TrackPointExtension></extensions>
      </trkpt>
      <trkpt lat="59.262309021126" lon="17.986153347931">
        <ele>52</ele>
        <time>2018-12-15T08:09:52Z</time>
        <extensions><gpxtpx:TrackPointExtension><gpxtpx:hr>164</gpxtpx:hr></gpxtpx:TrackPointExtension></extensions>
      </trkpt>
      <trkpt lat="59.26239418123" lon="17.986171788111">
        <ele>52.6</ele>
        <time>2018-12-15T08:09:55Z</time>
        <extensions><gpxtpx:TrackPointExtension><gpxtpx:hr>164</gpxtpx:hr></gpxtpx:TrackPointExtension></extensions>
      </trkpt>
      <trkpt lat="59.262518568626" lon="17.986222330968">
        <ele>53.8</ele>
        <time>2018-12-15T08:09:59Z</time>
        <extensions><gpxtpx:TrackPointExtension><gpxtpx:hr>164</gpxtpx:hr></gpxtpx:TrackPointExtension></extensions>
      </trkpt>
      <trkpt lat="59.262592077889" lon="17.986242866623">
        <ele>55</ele>
        <time>2018-12-15T08:10:01Z</time>
        <extensions><gpxtpx:TrackPointExtension><gpxtpx:hr>164</gpxtpx:hr></gpxtpx:TrackPointExtension></extensions>
      </trkpt>
      <trkpt lat="59.262673382319" lon="17.986262815545">
        <ele>56.4</ele>
        <time>2018-12-15T08:10:03Z</time>
        <extensions><gpxtpx:TrackPointExtension><gpxtpx:hr>165</gpxtpx:hr></gpxtpx:TrackPointExtension></extensions>
      </trkpt>
      <trkpt lat="59.26289541885" lon="17.986307910167">
        <ele>57.4</ele>
        <time>2018-12-15T08:10:08Z</time>
        <extensions><gpxtpx:TrackPointExtension><gpxtpx:hr>165</gpxtpx:hr></gpxtpx:TrackPointExtension></extensions>
      </trkpt>
      <trkpt lat="59.263504950618" lon="17.986141361814">
        <ele>57.6</ele>
        <time>2018-12-15T08:10:20Z</time>
        <extensions><gpxtpx:TrackPointExtension><gpxtpx:hr>161</gpxtpx:hr></gpxtpx:TrackPointExtension></extensions>
      </trkpt>
      <trkpt lat="59.263892278217" lon="17.986043964136">
        <ele>57.6</ele>
        <time>2018-12-15T08:10:27Z</time>
        <extensions><gpxtpx:TrackPointExtension><gpxtpx:hr>158</gpxtpx:hr></gpxtpx:TrackPointExtension></extensions>
      </trkpt>
      <trkpt lat="59.264327466465" lon="17.986046478706">
        <ele>57.6</ele>
        <time>2018-12-15T08:10:34Z</time>
        <extensions><gpxtpx:TrackPointExtension><gpxtpx:hr>155</gpxtpx:hr></gpxtpx:TrackPointExtension></extensions>
      </trkpt>
      <trkpt lat="59.264594346161" lon="17.98599333746">
        <ele>57</ele>
        <time>2018-12-15T08:10:38Z</time>
        <extensions><gpxtpx:TrackPointExtension><gpxtpx:hr>152</gpxtpx:hr></gpxtpx:TrackPointExtension></extensions>
      </trkpt>
      <trkpt lat="59.26484001965" lon="17.985834332817">
        <ele>56.2</ele>
        <time>2018-12-15T08:10:42Z</time>
        <extensions><gpxtpx:TrackPointExtension><gpxtpx:hr>150</gpxtpx:hr></gpxtpx:TrackPointExtension></extensions>
      </trkpt>
      <trkpt lat="59.264901291339" lon="17.985781526847">
        <ele>55.8</ele>
        <time>2018-12-15T08:10:43Z</time>
        <extensions><gpxtpx:TrackPointExtension><gpxtpx:hr>149</gpxtpx:hr></gpxtpx:TrackPointExtension></extensions>
      </trkpt>
      <trkpt lat="59.265021823061" lon="17.985678513296">
        <ele>55.6</ele>
        <time>2018-12-15T08:10:45Z</time>
        <extensions><gpxtpx:TrackPointExtension><gpxtpx:hr>148</gpxtpx:hr></gpxtpx:TrackPointExtension></extensions>
      </trkpt>
      <trkpt lat="59.265323906737" lon="17.985368802091">
        <ele>55.2</ele>
        <time>2018-12-15T08:10:50Z</time>
        <extensions><gpxtpx:TrackPointExtension><gpxtpx:hr>146</gpxtpx:hr></gpxtpx:TrackPointExtension></extensions>
      </trkpt>
      <trkpt lat="59.2654896169" lon="17.985163613179">
        <ele>54.8</ele>
        <time>2018-12-15T08:10:53Z</time>
        <extensions><gpxtpx:TrackPointExtension><gpxtpx:hr>143</gpxtpx:hr></gpxtpx:TrackPointExtension></extensions>
      </trkpt>
      <trkpt lat="59.265951291952" lon="17.984664638672">
        <ele>54.2</ele>
        <time>2018-12-15T08:11:01Z</time>
        <extensions><gpxtpx:TrackPointExtension><gpxtpx:hr>140</gpxtpx:hr></gpxtpx:TrackPointExtension></extensions>
      </trkpt>
      <trkpt lat="59.266207861911" lon="17.984629937606">
        <ele>54</ele>
        <time>2018-12-15T08:11:05Z</time>
        <extensions><gpxtpx:TrackPointExtension><gpxtpx:hr>137</gpxtpx:hr></gpxtpx:TrackPointExtension></extensions>
      </trkpt>
      <trkpt lat="59.266270055609" lon="17.9846404988">
        <ele>53.8</ele>
        <time>2018-12-15T08:11:06Z</time>
        <extensions><gpxtpx:TrackPointExtension><gpxtpx:hr>136</gpxtpx:hr></gpxtpx:TrackPointExtension></extensions>
      </trkpt>
      <trkpt lat="59.266451691382" lon="17.98468576106">
        <ele>53.4</ele>
        <time>2018-12-15T08:11:09Z</time>
        <extensions><gpxtpx:TrackPointExtension><gpxtpx:hr>133</gpxtpx:hr></gpxtpx:TrackPointExtension></extensions>
      </trkpt>
      <trkpt lat="59.266632237508" lon="17.984723563429">
        <ele>53</ele>
        <time>2018-12-15T08:11:12Z</time>
        <extensions><gpxtpx:TrackPointExtension><gpxtpx:hr>132</gpxtpx:hr></gpxtpx:TrackPointExtension></extensions>
      </trkpt>
      <trkpt lat="59.267035825993" lon="17.984699758833">
        <ele>52.4</ele>
        <time>2018-12-15T08:11:18Z</time>
        <extensions><gpxtpx:TrackPointExtension><gpxtpx:hr>132</gpxtpx:hr></gpxtpx:TrackPointExtension></extensions>
      </trkpt>
      <trkpt lat="59.267176390456" lon="17.98476119816">
        <ele>52.2</ele>
        <time>2018-12-15T08:11:20Z</time>
        <extensions><gpxtpx:TrackPointExtension><gpxtpx:hr>129</gpxtpx:hr></gpxtpx:TrackPointExtension></extensions>
      </trkpt>
      <trkpt lat="59.267310919951" lon="17.984920873355">
        <ele>51.8</ele>
        <time>2018-12-15T08:11:22Z</time>
        <extensions><gpxtpx:TrackPointExtension><gpxtpx:hr>128</gpxtpx:hr></gpxtpx:TrackPointExtension></extensions>
      </trkpt>
      <trkpt lat="59.267434050062" lon="17.985132683968">
        <ele>51.4</ele>
        <time>2018-12-15T08:11:24Z</time>
        <extensions><gpxtpx:TrackPointExtension><gpxtpx:hr>126</gpxtpx:hr></gpxtpx:TrackPointExtension></extensions>
      </trkpt>
      <trkpt lat="59.267491968991" lon="17.985246426351">
        <ele>51.2</ele>
        <time>2018-12-15T08:11:25Z</time>
        <extensions><gpxtpx:TrackPointExtension><gpxtpx:hr>125</gpxtpx:hr></gpxtpx:TrackPointExtension></extensions>
      </trkpt>
      <trkpt lat="59.267596742741" lon="17.985490758736">
        <ele>50.4</ele>
        <time>2018-12-15T08:11:27Z</time>
        <extensions><gpxtpx:TrackPointExtension><gpxtpx:hr>126</gpxtpx:hr></gpxtpx:TrackPointExtension></extensions>
      </trkpt>
      <trkpt lat="59.26764460339" lon="17.985618834168">
        <ele>49.8</ele>
        <time>2018-12-15T08:11:28Z</time>
        <extensions><gpxtpx:TrackPointExtension><gpxtpx:hr>126</gpxtpx:hr></gpxtpx:TrackPointExtension></extensions>
      </trkpt>
      <trkpt lat="59.267687853994" lon="17.985749927084">
        <ele>49</ele>
        <time>2018-12-15T08:11:29Z</time>
        <extensions><gpxtpx:TrackPointExtension><gpxtpx:hr>125</gpxtpx:hr></gpxtpx:TrackPointExtension></extensions>
      </trkpt>
      <trkpt lat="59.267776534496" lon="17.986006161767">
        <ele>46.6</ele>
        <time>2018-12-15T08:11:31Z</time>
        <extensions><gpxtpx:TrackPointExtension><gpxtpx:hr>123</gpxtpx:hr></gpxtpx:TrackPointExtension></extensions>
      </trkpt>
      <trkpt lat="59.267867813387" lon="17.986262899364">
        <ele>45.2</ele>
        <time>2018-12-15T08:11:33Z</time>
        <extensions><gpxtpx:TrackPointExtension><gpxtpx:hr>122</gpxtpx:hr></gpxtpx:TrackPointExtension></extensions>
      </trkpt>
      <trkpt lat="59.268026650392" lon="17.986603623599">
        <ele>43.8</ele>
        <time>2018-12-15T08:11:36Z</time>
        <extensions><gpxtpx:TrackPointExtension><gpxtpx:hr>122</gpxtpx:hr></gpxtpx:TrackPointExtension></extensions>
      </trkpt>
      <trkpt lat="59.268351868112" lon="17.98706370609">
        <ele>43.2</ele>
        <time>2018-12-15T08:11:41Z</time>
        <extensions><gpxtpx:TrackPointExtension><gpxtpx:hr>125</gpxtpx:hr></gpxtpx:TrackPointExtension></extensions>
      </trkpt>
      <trkpt lat="59.268543394527" lon="17.987326394836">
        <ele>42.8</ele>
        <time>2018-12-15T08:11:44Z</time>
        <extensions><gpxtpx:TrackPointExtension><gpxtpx:hr>125</gpxtpx:hr></gpxtpx:TrackPointExtension></extensions>
      </trkpt>
      <trkpt lat="59.268676750556" lon="17.987473916276">
        <ele>42.4</ele>
        <time>2018-12-15T08:11:46Z</time>
        <extensions><gpxtpx:TrackPointExtension><gpxtpx:hr>125</gpxtpx:hr></gpxtpx:TrackPointExtension></extensions>
      </trkpt>
      <trkpt lat="59.268974140368" lon="17.987570056669">
        <ele>41.6</ele>
        <time>2018-12-15T08:11:50Z</time>
        <extensions><gpxtpx:TrackPointExtension><gpxtpx:hr>125</gpxtpx:hr></gpxtpx:TrackPointExtension></extensions>
      </trkpt>
      <trkpt lat="59.269283767754" lon="17.987263446767">
        <ele>41</ele>
        <time>2018-12-15T08:11:55Z</time>
        <extensions><gpxtpx:TrackPointExtension><gpxtpx:hr>124</gpxtpx:hr></gpxtpx:TrackPointExtension></extensions>
      </trkpt>
      <trkpt lat="59.269455596704" lon="17.986971169914">
        <ele>40.6</ele>
        <time>2018-12-15T08:11:58Z</time>
        <extensions><gpxtpx:TrackPointExtension><gpxtpx:hr>125</gpxtpx:hr></gpxtpx:TrackPointExtension></extensions>
      </trkpt>
      <trkpt lat="59.269594317149" lon="17.986860193558">
        <ele>40.4</ele>
        <time>2018-12-15T08:12:00Z</time>
        <extensions><gpxtpx:TrackPointExtension><gpxtpx:hr>125</gpxtpx:hr></gpxtpx:TrackPointExtension></extensions>
      </trkpt>
      <trkpt lat="59.269913164625" lon="17.986877376453">
        <ele>39.6</ele>
        <time>2018-12-15T08:12:04Z</time>
        <extensions><gpxtpx:TrackPointExtension><gpxtpx:hr>128</gpxtpx:hr></gpxtpx:TrackPointExtension></extensions>
      </trkpt>
      <trkpt lat="59.270000336385" lon="17.986907970388">
        <ele>39.2</ele>
        <time>2018-12-15T08:12:05Z</time>
        <extensions><gpxtpx:TrackPointExtension><gpxtpx:hr>128</gpxtpx:hr></gpxtpx:TrackPointExtension></extensions>
      </trkpt>
      <trkpt lat="59.270424963439" lon="17.987091031084">
        <ele>38</ele>
        <time>2018-12-15T08:12:10Z</time>
        <extensions><gpxtpx:TrackPointExtension><gpxtpx:hr>129</gpxtpx:hr></gpxtpx:TrackPointExtension></extensions>
      </trkpt>
      <trkpt lat="59.270672061851" lon="17.987177029378">
        <ele>36.6</ele>
        <time>2018-12-15T08:12:13Z</time>
        <extensions><gpxtpx:TrackPointExtension><gpxtpx:hr>126</gpxtpx:hr></gpxtpx:TrackPointExtension></extensions>
      </trkpt>
      <trkpt lat="59.270750432616" lon="17.987181136509">
        <ele>36</ele>
        <time>2018-12-15T08:12:14Z</time>
        <extensions><gpxtpx:TrackPointExtension><gpxtpx:hr>126</gpxtpx:hr></gpxtpx:TrackPointExtension></extensions>
      </trkpt>
      <trkpt lat="59.270825618259" lon="17.987161271406">
        <ele>35.6</ele>
        <time>2018-12-15T08:12:15Z</time>
        <extensions><gpxtpx:TrackPointExtension><gpxtpx:hr>125</gpxtpx:hr></gpxtpx:TrackPointExtension></extensions>
      </trkpt>
      <trkpt lat="59.271034579026" lon="17.987010983939">
        <ele>34.4</ele>
        <time>2018-12-15T08:12:18Z</time>
        <extensions><gpxtpx:TrackPointExtension><gpxtpx:hr>122</gpxtpx:hr></gpxtpx:TrackPointExtension></extensions>
      </trkpt>
      <trkpt lat="59.2711054899" lon="17.986968571525">
        <ele>34.2</ele>
        <time>2018-12-15T08:12:19Z</time>
        <extensions><gpxtpx:TrackPointExtension><gpxtpx:hr>120</gpxtpx:hr></gpxtpx:TrackPointExtension></extensions>
      </trkpt>
      <trkpt lat="59.271414279096" lon="17.986965051127">
        <ele>33.8</ele>
        <time>2018-12-15T08:12:23Z</time>
        <extensions><gpxtpx:TrackPointExtension><gpxtpx:hr>119</gpxtpx:hr></gpxtpx:TrackPointExtension></extensions>
      </trkpt>
      <trkpt lat="59.271575379214" lon="17.987016096898">
        <ele>33.2</ele>
        <time>2018-12-15T08:12:25Z</time>
        <extensions><gpxtpx:TrackPointExtension><gpxtpx:hr>122</gpxtpx:hr></gpxtpx:TrackPointExtension></extensions>
      </trkpt>
      <trkpt lat="59.271741424653" lon="17.987075273112">
        <ele>32.6</ele>
        <time>2018-12-15T08:12:27Z</time>
        <extensions><gpxtpx:TrackPointExtension><gpxtpx:hr>125</gpxtpx:hr></gpxtpx:TrackPointExtension></extensions>
      </trkpt>
      <trkpt lat="59.271900764572" lon="17.987118439897">
        <ele>31.4</ele>
        <time>2018-12-15T08:12:29Z</time>
        <extensions><gpxtpx:TrackPointExtension><gpxtpx:hr>126</gpxtpx:hr></gpxtpx:TrackPointExtension></extensions>
      </trkpt>
      <trkpt lat="59.271978716242" lon="17.987119278087">
        <ele>31</ele>
        <time>2018-12-15T08:12:30Z</time>
        <extensions><gpxtpx:TrackPointExtension><gpxtpx:hr>127</gpxtpx:hr></gpxtpx:TrackPointExtension></extensions>
      </trkpt>
      <trkpt lat="59.272213493261" lon="17.986957675055">
        <ele>30.4</ele>
        <time>2018-12-15T08:12:33Z</time>
        <extensions><gpxtpx:TrackPointExtension><gpxtpx:hr>130</gpxtpx:hr></gpxtpx:TrackPointExtension></extensions>
      </trkpt>
      <trkpt lat="59.272288427447" lon="17.98687427515">
        <ele>30.4</ele>
        <time>2018-12-15T08:12:34Z</time>
        <extensions><gpxtpx:TrackPointExtension><gpxtpx:hr>130</gpxtpx:hr></gpxtpx:TrackPointExtension></extensions>
      </trkpt>
      <trkpt lat="59.272757227114" lon="17.986322243216">
        <ele>29.8</ele>
        <time>2018-12-15T08:12:42Z</time>
        <extensions><gpxtpx:TrackPointExtension><gpxtpx:hr>127</gpxtpx:hr></gpxtpx:TrackPointExtension></extensions>
      </trkpt>
      <trkpt lat="59.272904161821" lon="17.986165334048">
        <ele>29.6</ele>
        <time>2018-12-15T08:12:45Z</time>
        <extensions><gpxtpx:TrackPointExtension><gpxtpx:hr>129</gpxtpx:hr></gpxtpx:TrackPointExtension></extensions>
      </trkpt>
      <trkpt lat="59.272961494017" lon="17.986092830613">
        <ele>29.2</ele>
        <time>2018-12-15T08:12:46Z</time>
        <extensions><gpxtpx:TrackPointExtension><gpxtpx:hr>130</gpxtpx:hr></gpxtpx:TrackPointExtension></extensions>
      </trkpt>
      <trkpt lat="59.273132065682" lon="17.98587682905">
        <ele>29</ele>
        <time>2018-12-15T08:12:49Z</time>
        <extensions><gpxtpx:TrackPointExtension><gpxtpx:hr>134</gpxtpx:hr></gpxtpx:TrackPointExtension></extensions>
      </trkpt>
      <trkpt lat="59.273312108894" lon="17.985665186075">
        <ele>28.8</ele>
        <time>2018-12-15T08:12:52Z</time>
        <extensions><gpxtpx:TrackPointExtension><gpxtpx:hr>138</gpxtpx:hr></gpxtpx:TrackPointExtension></extensions>
      </trkpt>
      <trkpt lat="59.273494582857" lon="17.985452453453">
        <ele>28.8</ele>
        <time>2018-12-15T08:12:55Z</time>
        <extensions><gpxtpx:TrackPointExtension><gpxtpx:hr>142</gpxtpx:hr></gpxtpx:TrackPointExtension></extensions>
      </trkpt>
      <trkpt lat="59.27355384289" lon="17.985379363285">
        <ele>28.8</ele>
        <time>2018-12-15T08:12:56Z</time>
        <extensions><gpxtpx:TrackPointExtension><gpxtpx:hr>143</gpxtpx:hr></gpxtpx:TrackPointExtension></extensions>
      </trkpt>
      <trkpt lat="59.273732964093" lon="17.985157829668">
        <ele>28.8</ele>
        <time>2018-12-15T08:12:59Z</time>
        <extensions><gpxtpx:TrackPointExtension><gpxtpx:hr>146</gpxtpx:hr></gpxtpx:TrackPointExtension></extensions>
      </trkpt>
      <trkpt lat="59.273914683685" lon="17.984953059851">
        <ele>28.8</ele>
        <time>2018-12-15T08:13:02Z</time>
        <extensions><gpxtpx:TrackPointExtension><gpxtpx:hr>149</gpxtpx:hr></gpxtpx:TrackPointExtension></extensions>
      </trkpt>
      <trkpt lat="59.27415147236" lon="17.984684336137">
        <ele>29</ele>
        <time>2018-12-15T08:13:06Z</time>
        <extensions><gpxtpx:TrackPointExtension><gpxtpx:hr>152</gpxtpx:hr></gpxtpx:TrackPointExtension></extensions>
      </trkpt>
      <trkpt lat="59.274381471696" lon="17.984406895247">
        <ele>29.2</ele>
        <time>2018-12-15T08:13:10Z</time>
        <extensions><gpxtpx:TrackPointExtension><gpxtpx:hr>156</gpxtpx:hr></gpxtpx:TrackPointExtension></extensions>
      </trkpt>
      <trkpt lat="59.274636532913" lon="17.983956787217">
        <ele>29.8</ele>
        <time>2018-12-15T08:13:15Z</time>
        <extensions><gpxtpx:TrackPointExtension><gpxtpx:hr>159</gpxtpx:hr></gpxtpx:TrackPointExtension></extensions>
      </trkpt>
      <trkpt lat="59.274856138693" lon="17.983438618159">
        <ele>30</ele>
        <time>2018-12-15T08:13:20Z</time>
        <extensions><gpxtpx:TrackPointExtension><gpxtpx:hr>162</gpxtpx:hr></gpxtpx:TrackPointExtension></extensions>
      </trkpt>
      <trkpt lat="59.275220751343" lon="17.98261291719">
        <ele>30</ele>
        <time>2018-12-15T08:13:28Z</time>
        <extensions><gpxtpx:TrackPointExtension><gpxtpx:hr>163</gpxtpx:hr></gpxtpx:TrackPointExtension></extensions>
      </trkpt>
      <trkpt lat="59.275523254114" lon="17.981802974193">
        <ele>30.4</ele>
        <time>2018-12-15T08:13:36Z</time>
        <extensions><gpxtpx:TrackPointExtension><gpxtpx:hr>162</gpxtpx:hr></gpxtpx:TrackPointExtension></extensions>
      </trkpt>
      <trkpt lat="59.275555272972" lon="17.981704822144">
        <ele>30.4</ele>
        <time>2018-12-15T08:13:37Z</time>
        <extensions><gpxtpx:TrackPointExtension><gpxtpx:hr>161</gpxtpx:hr></gpxtpx:TrackPointExtension></extensions>
      </trkpt>
      <trkpt lat="59.275739674772" lon="17.981428470901">
        <ele>30.6</ele>
        <time>2018-12-15T08:13:41Z</time>
        <extensions><gpxtpx:TrackPointExtension><gpxtpx:hr>160</gpxtpx:hr></gpxtpx:TrackPointExtension></extensions>
      </trkpt>
      <trkpt lat="59.276133037339" lon="17.980850874172">
        <ele>31.2</ele>
        <time>2018-12-15T08:13:50Z</time>
        <extensions><gpxtpx:TrackPointExtension><gpxtpx:hr>157</gpxtpx:hr></gpxtpx:TrackPointExtension></extensions>
      </trkpt>
      <trkpt lat="59.276236218528" lon="17.980791446501">
        <ele>31.4</ele>
        <time>2018-12-15T08:13:52Z</time>
        <extensions><gpxtpx:TrackPointExtension><gpxtpx:hr>156</gpxtpx:hr></gpxtpx:TrackPointExtension></extensions>
      </trkpt>
      <trkpt lat="59.276353313671" lon="17.980790189216">
        <ele>31.6</ele>
        <time>2018-12-15T08:13:54Z</time>
        <extensions><gpxtpx:TrackPointExtension><gpxtpx:hr>156</gpxtpx:hr></gpxtpx:TrackPointExtension></extensions>
      </trkpt>
      <trkpt lat="59.276734103388" lon="17.980837882227">
        <ele>31.8</ele>
        <time>2018-12-15T08:14:00Z</time>
        <extensions><gpxtpx:TrackPointExtension><gpxtpx:hr>153</gpxtpx:hr></gpxtpx:TrackPointExtension></extensions>
      </trkpt>
      <trkpt lat="59.277284291304" lon="17.981056063084">
        <ele>30.8</ele>
        <time>2018-12-15T08:14:08Z</time>
        <extensions><gpxtpx:TrackPointExtension><gpxtpx:hr>150</gpxtpx:hr></gpxtpx:TrackPointExtension></extensions>
      </trkpt>
      <trkpt lat="59.277356124187" lon="17.981091350883">
        <ele>30.4</ele>
        <time>2018-12-15T08:14:09Z</time>
        <extensions><gpxtpx:TrackPointExtension><gpxtpx:hr>150</gpxtpx:hr></gpxtpx:TrackPointExtension></extensions>
      </trkpt>
      <trkpt lat="59.277876221082" lon="17.981391171446">
        <ele>29.2</ele>
        <time>2018-12-15T08:14:17Z</time>
        <extensions><gpxtpx:TrackPointExtension><gpxtpx:hr>149</gpxtpx:hr></gpxtpx:TrackPointExtension></extensions>
      </trkpt>
      <trkpt lat="59.278351139536" lon="17.98178059452">
        <ele>31.6</ele>
        <time>2018-12-15T08:14:28Z</time>
        <extensions><gpxtpx:TrackPointExtension><gpxtpx:hr>150</gpxtpx:hr></gpxtpx:TrackPointExtension></extensions>
      </trkpt>
      <trkpt lat="59.278471755077" lon="17.981904981916">
        <ele>32.6</ele>
        <time>2018-12-15T08:14:31Z</time>
        <extensions><gpxtpx:TrackPointExtension><gpxtpx:hr>151</gpxtpx:hr></gpxtpx:TrackPointExtension></extensions>
      </trkpt>
      <trkpt lat="59.278589939867" lon="17.982040517239">
        <ele>33.8</ele>
        <time>2018-12-15T08:14:34Z</time>
        <extensions><gpxtpx:TrackPointExtension><gpxtpx:hr>153</gpxtpx:hr></gpxtpx:TrackPointExtension></extensions>
      </trkpt>
      <trkpt lat="59.278819687746" lon="17.982322987269">
        <ele>35</ele>
        <time>2018-12-15T08:14:40Z</time>
        <extensions><gpxtpx:TrackPointExtension><gpxtpx:hr>154</gpxtpx:hr></gpxtpx:TrackPointExtension></extensions>
      </trkpt>
      <trkpt lat="59.278976094" lon="17.982528930552">
        <ele>36.2</ele>
        <time>2018-12-15T08:14:44Z</time>
        <extensions><gpxtpx:TrackPointExtension><gpxtpx:hr>154</gpxtpx:hr></gpxtpx:TrackPointExtension></extensions>
      </trkpt>
      <trkpt lat="59.279215481064" lon="17.982885412759">
        <ele>37.4</ele>
        <time>2018-12-15T08:14:50Z</time>
        <extensions><gpxtpx:TrackPointExtension><gpxtpx:hr>153</gpxtpx:hr></gpxtpx:TrackPointExtension></extensions>
      </trkpt>
      <trkpt lat="59.279617057893" lon="17.983473235406">
        <ele>37.4</ele>
        <time>2018-12-15T08:14:59Z</time>
        <extensions><gpxtpx:TrackPointExtension><gpxtpx:hr>150</gpxtpx:hr></gpxtpx:TrackPointExtension></extensions>
      </trkpt>
      <trkpt lat="59.279819983692" lon="17.983833657106">
        <ele>37.6</ele>
        <time>2018-12-15T08:15:04Z</time>
        <extensions><gpxtpx:TrackPointExtension><gpxtpx:hr>153</gpxtpx:hr></gpxtpx:TrackPointExtension></extensions>
      </trkpt>
      <trkpt lat="59.28005987367" lon="17.984262223653">
        <ele>38.2</ele>
        <time>2018-12-15T08:15:10Z</time>
        <extensions><gpxtpx:TrackPointExtension><gpxtpx:hr>156</gpxtpx:hr></gpxtpx:TrackPointExtension></extensions>
      </trkpt>
      <trkpt lat="59.280099855333" lon="17.984333385984">
        <ele>38.4</ele>
        <time>2018-12-15T08:15:11Z</time>
        <extensions><gpxtpx:TrackPointExtension><gpxtpx:hr>156</gpxtpx:hr></gpxtpx:TrackPointExtension></extensions>
      </trkpt>
      <trkpt lat="59.280387270684" lon="17.984821799297">
        <ele>39.4</ele>
        <time>2018-12-15T08:15:18Z</time>
        <extensions><gpxtpx:TrackPointExtension><gpxtpx:hr>157</gpxtpx:hr></gpxtpx:TrackPointExtension></extensions>
      </trkpt>
      <trkpt lat="59.280610480681" lon="17.985131259045">
        <ele>40.6</ele>
        <time>2018-12-15T08:15:23Z</time>
        <extensions><gpxtpx:TrackPointExtension><gpxtpx:hr>156</gpxtpx:hr></gpxtpx:TrackPointExtension></extensions>
      </trkpt>
      <trkpt lat="59.281122614771" lon="17.985549851131">
        <ele>41.4</ele>
        <time>2018-12-15T08:15:33Z</time>
        <extensions><gpxtpx:TrackPointExtension><gpxtpx:hr>155</gpxtpx:hr></gpxtpx:TrackPointExtension></extensions>
      </trkpt>
      <trkpt lat="59.281343058741" lon="17.985654121967">
        <ele>41.4</ele>
        <time>2018-12-15T08:15:37Z</time>
        <extensions><gpxtpx:TrackPointExtension><gpxtpx:hr>155</gpxtpx:hr></gpxtpx:TrackPointExtension></extensions>
      </trkpt>
      <trkpt lat="59.281915123416" lon="17.985711454163">
        <ele>41</ele>
        <time>2018-12-15T08:15:46Z</time>
        <extensions><gpxtpx:TrackPointExtension><gpxtpx:hr>155</gpxtpx:hr></gpxtpx:TrackPointExtension></extensions>
      </trkpt>
      <trkpt lat="59.282472435947" lon="17.985739449709">
        <ele>40.4</ele>
        <time>2018-12-15T08:15:54Z</time>
        <extensions><gpxtpx:TrackPointExtension><gpxtpx:hr>152</gpxtpx:hr></gpxtpx:TrackPointExtension></extensions>
      </trkpt>
      <trkpt lat="59.28282170972" lon="17.98575277693">
        <ele>39.6</ele>
        <time>2018-12-15T08:15:59Z</time>
        <extensions><gpxtpx:TrackPointExtension><gpxtpx:hr>149</gpxtpx:hr></gpxtpx:TrackPointExtension></extensions>
      </trkpt>
      <trkpt lat="59.282895554259" lon="17.985757554613">
        <ele>39.4</ele>
        <time>2018-12-15T08:16:00Z</time>
        <extensions><gpxtpx:TrackPointExtension><gpxtpx:hr>148</gpxtpx:hr></gpxtpx:TrackPointExtension></extensions>
      </trkpt>
      <trkpt lat="59.283292437224" lon="17.985781610666">
        <ele>38.4</ele>
        <time>2018-12-15T08:16:05Z</time>
        <extensions><gpxtpx:TrackPointExtension><gpxtpx:hr>145</gpxtpx:hr></gpxtpx:TrackPointExtension></extensions>
      </trkpt>
      <trkpt lat="59.28354171493" lon="17.985798625923">
        <ele>38</ele>
        <time>2018-12-15T08:16:08Z</time>
        <extensions><gpxtpx:TrackPointExtension><gpxtpx:hr>142</gpxtpx:hr></gpxtpx:TrackPointExtension></extensions>
      </trkpt>
      <trkpt lat="59.283802056744" lon="17.985823855442">
        <ele>36.8</ele>
        <time>2018-12-15T08:16:11Z</time>
        <extensions><gpxtpx:TrackPointExtension><gpxtpx:hr>141</gpxtpx:hr></gpxtpx:TrackPointExtension></extensions>
      </trkpt>
      <trkpt lat="59.284077569797" lon="17.985846821848">
        <ele>35.4</ele>
        <time>2018-12-15T08:16:14Z</time>
        <extensions><gpxtpx:TrackPointExtension><gpxtpx:hr>139</gpxtpx:hr></gpxtpx:TrackPointExtension></extensions>
      </trkpt>
      <trkpt lat="59.284262139235" lon="17.985859981431">
        <ele>34</ele>
        <time>2018-12-15T08:16:16Z</time>
        <extensions><gpxtpx:TrackPointExtension><gpxtpx:hr>138</gpxtpx:hr></gpxtpx:TrackPointExtension></extensions>
      </trkpt>
      <trkpt lat="59.284444697017" lon="17.985872470462">
        <ele>32.6</ele>
        <time>2018-12-15T08:16:18Z</time>
        <extensions><gpxtpx:TrackPointExtension><gpxtpx:hr>137</gpxtpx:hr></gpxtpx:TrackPointExtension></extensions>
      </trkpt>
      <trkpt lat="59.284625997514" lon="17.985892251746">
        <ele>31.6</ele>
        <time>2018-12-15T08:16:20Z</time>
        <extensions><gpxtpx:TrackPointExtension><gpxtpx:hr>134</gpxtpx:hr></gpxtpx:TrackPointExtension></extensions>
      </trkpt>
      <trkpt lat="59.284714007464" lon="17.985899041085">
        <ele>31.2</ele>
        <time>2018-12-15T08:16:21Z</time>
        <extensions><gpxtpx:TrackPointExtension><gpxtpx:hr>132</gpxtpx:hr></gpxtpx:TrackPointExtension></extensions>
      </trkpt>
      <trkpt lat="59.284966554111" lon="17.985906333338">
        <ele>29.6</ele>
        <time>2018-12-15T08:16:24Z</time>
        <extensions><gpxtpx:TrackPointExtension><gpxtpx:hr>132</gpxtpx:hr></gpxtpx:TrackPointExtension></extensions>
      </trkpt>
      <trkpt lat="59.285208455745" lon="17.985917145989">
        <ele>28.6</ele>
        <time>2018-12-15T08:16:27Z</time>
        <extensions><gpxtpx:TrackPointExtension><gpxtpx:hr>133</gpxtpx:hr></gpxtpx:TrackPointExtension></extensions>
      </trkpt>
      <trkpt lat="59.285797870953" lon="17.985926198441">
        <ele>28.4</ele>
        <time>2018-12-15T08:16:35Z</time>
        <extensions><gpxtpx:TrackPointExtension><gpxtpx:hr>136</gpxtpx:hr></gpxtpx:TrackPointExtension></extensions>
      </trkpt>
      <trkpt lat="59.286062319898" lon="17.985879678896">
        <ele>28.6</ele>
        <time>2018-12-15T08:16:39Z</time>
        <extensions><gpxtpx:TrackPointExtension><gpxtpx:hr>139</gpxtpx:hr></gpxtpx:TrackPointExtension></extensions>
      </trkpt>
      <trkpt lat="59.286247056974" lon="17.985794267335">
        <ele>29.6</ele>
        <time>2018-12-15T08:16:42Z</time>
        <extensions><gpxtpx:TrackPointExtension><gpxtpx:hr>141</gpxtpx:hr></gpxtpx:TrackPointExtension></extensions>
      </trkpt>
      <trkpt lat="59.286489210065" lon="17.985669209387">
        <ele>30.4</ele>
        <time>2018-12-15T08:16:46Z</time>
        <extensions><gpxtpx:TrackPointExtension><gpxtpx:hr>144</gpxtpx:hr></gpxtpx:TrackPointExtension></extensions>
      </trkpt>
      <trkpt lat="59.286663805042" lon="17.985540463403">
        <ele>31</ele>
        <time>2018-12-15T08:16:49Z</time>
        <extensions><gpxtpx:TrackPointExtension><gpxtpx:hr>147</gpxtpx:hr></gpxtpx:TrackPointExtension></extensions>
      </trkpt>
      <trkpt lat="59.286938144629" lon="17.985260424124">
        <ele>31.6</ele>
        <time>2018-12-15T08:16:54Z</time>
        <extensions><gpxtpx:TrackPointExtension><gpxtpx:hr>149</gpxtpx:hr></gpxtpx:TrackPointExtension></extensions>
      </trkpt>
      <trkpt lat="59.287355898525" lon="17.984783410195">
        <ele>32.2</ele>
        <time>2018-12-15T08:17:02Z</time>
        <extensions><gpxtpx:TrackPointExtension><gpxtpx:hr>152</gpxtpx:hr></gpxtpx:TrackPointExtension></extensions>
      </trkpt>
      <trkpt lat="59.287464360311" lon="17.984689532915">
        <ele>32.2</ele>
        <time>2018-12-15T08:17:04Z</time>
        <extensions><gpxtpx:TrackPointExtension><gpxtpx:hr>152</gpxtpx:hr></gpxtpx:TrackPointExtension></extensions>
      </trkpt>
      <trkpt lat="59.287794020438" lon="17.984591129409">
        <ele>32.6</ele>
        <time>2018-12-15T08:17:10Z</time>
        <extensions><gpxtpx:TrackPointExtension><gpxtpx:hr>151</gpxtpx:hr></gpxtpx:TrackPointExtension></extensions>
      </trkpt>
      <trkpt lat="59.287885466967" lon="17.985023635449">
        <ele>32.8</ele>
        <time>2018-12-15T08:17:15Z</time>
        <extensions><gpxtpx:TrackPointExtension><gpxtpx:hr>149</gpxtpx:hr></gpxtpx:TrackPointExtension></extensions>
      </trkpt>
      <trkpt lat="59.287856968507" lon="17.985680608771">
        <ele>33.2</ele>
        <time>2018-12-15T08:17:20Z</time>
        <extensions><gpxtpx:TrackPointExtension><gpxtpx:hr>146</gpxtpx:hr></gpxtpx:TrackPointExtension></extensions>
      </trkpt>
      <trkpt lat="59.287837019585" lon="17.985900717465">
        <ele>33.2</ele>
        <time>2018-12-15T08:17:22Z</time>
        <extensions><gpxtpx:TrackPointExtension><gpxtpx:hr>145</gpxtpx:hr></gpxtpx:TrackPointExtension></extensions>
      </trkpt>
      <trkpt lat="59.287868535529" lon="17.986074138976">
        <ele>32.8</ele>
        <time>2018-12-15T08:17:26Z</time>
        <extensions><gpxtpx:TrackPointExtension><gpxtpx:hr>142</gpxtpx:hr></gpxtpx:TrackPointExtension></extensions>
      </trkpt>
      <trkpt lat="59.287886137519" lon="17.986094004079">
        <ele>32.8</ele>
        <time>2018-12-15T08:17:27Z</time>
        <extensions><gpxtpx:TrackPointExtension><gpxtpx:hr>142</gpxtpx:hr></gpxtpx:TrackPointExtension></extensions>
      </trkpt>
      <trkpt lat="59.28834454363" lon="17.986369265675">
        <ele>32.4</ele>
        <time>2018-12-15T08:17:37Z</time>
        <extensions><gpxtpx:TrackPointExtension><gpxtpx:hr>145</gpxtpx:hr></gpxtpx:TrackPointExtension></extensions>
      </trkpt>
      <trkpt lat="59.288424004042" lon="17.986443110214">
        <ele>32.4</ele>
        <time>2018-12-15T08:17:39Z</time>
        <extensions><gpxtpx:TrackPointExtension><gpxtpx:hr>146</gpxtpx:hr></gpxtpx:TrackPointExtension></extensions>
      </trkpt>
      <trkpt lat="59.288516707856" lon="17.986645700737">
        <ele>32.6</ele>
        <time>2018-12-15T08:17:42Z</time>
        <extensions><gpxtpx:TrackPointExtension><gpxtpx:hr>150</gpxtpx:hr></gpxtpx:TrackPointExtension></extensions>
      </trkpt>
      <trkpt lat="59.288539506624" lon="17.986725496425">
        <ele>32.8</ele>
        <time>2018-12-15T08:17:43Z</time>
        <extensions><gpxtpx:TrackPointExtension><gpxtpx:hr>151</gpxtpx:hr></gpxtpx:TrackPointExtension></extensions>
      </trkpt>
      <trkpt lat="59.288594072793" lon="17.986978965081">
        <ele>33.6</ele>
        <time>2018-12-15T08:17:46Z</time>
        <extensions><gpxtpx:TrackPointExtension><gpxtpx:hr>154</gpxtpx:hr></gpxtpx:TrackPointExtension></extensions>
      </trkpt>
      <trkpt lat="59.288611255688" lon="17.98706538247">
        <ele>34</ele>
        <time>2018-12-15T08:17:47Z</time>
        <extensions><gpxtpx:TrackPointExtension><gpxtpx:hr>155</gpxtpx:hr></gpxtpx:TrackPointExtension></extensions>
      </trkpt>
      <trkpt lat="59.288628606221" lon="17.987156912818">
        <ele>34.6</ele>
        <time>2018-12-15T08:17:48Z</time>
        <extensions><gpxtpx:TrackPointExtension><gpxtpx:hr>156</gpxtpx:hr></gpxtpx:TrackPointExtension></extensions>
      </trkpt>
      <trkpt lat="59.288659535432" lon="17.987354138925">
        <ele>35.6</ele>
        <time>2018-12-15T08:17:50Z</time>
        <extensions><gpxtpx:TrackPointExtension><gpxtpx:hr>158</gpxtpx:hr></gpxtpx:TrackPointExtension></extensions>
      </trkpt>
      <trkpt lat="59.28868317239" lon="17.987554298697">
        <ele>36.8</ele>
        <time>2018-12-15T08:17:52Z</time>
        <extensions><gpxtpx:TrackPointExtension><gpxtpx:hr>160</gpxtpx:hr></gpxtpx:TrackPointExtension></extensions>
      </trkpt>
      <trkpt lat="59.288719549836" lon="17.987888149774">
        <ele>38</ele>
        <time>2018-12-15T08:17:55Z</time>
        <extensions><gpxtpx:TrackPointExtension><gpxtpx:hr>163</gpxtpx:hr></gpxtpx:TrackPointExtension></extensions>
      </trkpt>
      <trkpt lat="59.288827089613" lon="17.989052395684">
        <ele>38.2</ele>
        <time>2018-12-15T08:18:04Z</time>
        <extensions><gpxtpx:TrackPointExtension><gpxtpx:hr>164</gpxtpx:hr></gpxtpx:TrackPointExtension></extensions>
      </trkpt>
      <trkpt lat="59.28890110179" lon="17.989707944083">
        <ele>36.8</ele>
        <time>2018-12-15T08:18:09Z</time>
        <extensions><gpxtpx:TrackPointExtension><gpxtpx:hr>163</gpxtpx:hr></gpxtpx:TrackPointExtension></extensions>
      </trkpt>
      <trkpt lat="59.289075193853" lon="17.99072240544">
        <ele>36.4</ele>
        <time>2018-12-15T08:18:17Z</time>
        <extensions><gpxtpx:TrackPointExtension><gpxtpx:hr>161</gpxtpx:hr></gpxtpx:TrackPointExtension></extensions>
      </trkpt>
      <trkpt lat="59.289244843509" lon="17.991767712189">
        <ele>36.4</ele>
        <time>2018-12-15T08:18:25Z</time>
        <extensions><gpxtpx:TrackPointExtension><gpxtpx:hr>160</gpxtpx:hr></gpxtpx:TrackPointExtension></extensions>
      </trkpt>
      <trkpt lat="59.28929840385" lon="17.992024282148">
        <ele>36.4</ele>
        <time>2018-12-15T08:18:27Z</time>
        <extensions><gpxtpx:TrackPointExtension><gpxtpx:hr>160</gpxtpx:hr></gpxtpx:TrackPointExtension></extensions>
      </trkpt>
      <trkpt lat="59.289328913966" lon="17.992491992168">
        <ele>36.6</ele>
        <time>2018-12-15T08:18:32Z</time>
        <extensions><gpxtpx:TrackPointExtension><gpxtpx:hr>157</gpxtpx:hr></gpxtpx:TrackPointExtension></extensions>
      </trkpt>
      <trkpt lat="59.289338720789" lon="17.99257899629">
        <ele>36.6</ele>
        <time>2018-12-15T08:18:34Z</time>
        <extensions><gpxtpx:TrackPointExtension><gpxtpx:hr>156</gpxtpx:hr></gpxtpx:TrackPointExtension></extensions>
      </trkpt>
      <trkpt lat="59.289369398543" lon="17.992842439407">
        <ele>37</ele>
        <time>2018-12-15T08:18:38Z</time>
        <extensions><gpxtpx:TrackPointExtension><gpxtpx:hr>156</gpxtpx:hr></gpxtpx:TrackPointExtension></extensions>
      </trkpt>
      <trkpt lat="59.289413906432" lon="17.993007730475">
        <ele>37</ele>
        <time>2018-12-15T08:18:40Z</time>
        <extensions><gpxtpx:TrackPointExtension><gpxtpx:hr>155</gpxtpx:hr></gpxtpx:TrackPointExtension></extensions>
      </trkpt>
      <trkpt lat="59.289764102214" lon="17.993842819172">
        <ele>37</ele>
        <time>2018-12-15T08:18:49Z</time>
        <extensions><gpxtpx:TrackPointExtension><gpxtpx:hr>153</gpxtpx:hr></gpxtpx:TrackPointExtension></extensions>
      </trkpt>
      <trkpt lat="59.289980103777" lon="17.994300387093">
        <ele>36.8</ele>
        <time>2018-12-15T08:18:54Z</time>
        <extensions><gpxtpx:TrackPointExtension><gpxtpx:hr>153</gpxtpx:hr></gpxtpx:TrackPointExtension></extensions>
      </trkpt>
      <trkpt lat="59.290133911642" lon="17.994701377189">
        <ele>36.8</ele>
        <time>2018-12-15T08:18:58Z</time>
        <extensions><gpxtpx:TrackPointExtension><gpxtpx:hr>152</gpxtpx:hr></gpxtpx:TrackPointExtension></extensions>
      </trkpt>
      <trkpt lat="59.290402886813" lon="17.995395649966">
        <ele>37.4</ele>
        <time>2018-12-15T08:19:05Z</time>
        <extensions><gpxtpx:TrackPointExtension><gpxtpx:hr>155</gpxtpx:hr></gpxtpx:TrackPointExtension></extensions>
      </trkpt>
      <trkpt lat="59.290695834218" lon="17.996246412816">
        <ele>37.4</ele>
        <time>2018-12-15T08:19:13Z</time>
        <extensions><gpxtpx:TrackPointExtension><gpxtpx:hr>158</gpxtpx:hr></gpxtpx:TrackPointExtension></extensions>
      </trkpt>
      <trkpt lat="59.291041168498" lon="17.997086195377">
        <ele>37.4</ele>
        <time>2018-12-15T08:19:21Z</time>
        <extensions><gpxtpx:TrackPointExtension><gpxtpx:hr>157</gpxtpx:hr></gpxtpx:TrackPointExtension></extensions>
      </trkpt>
      <trkpt lat="59.291436123626" lon="17.997859174195">
        <ele>36.8</ele>
        <time>2018-12-15T08:19:29Z</time>
        <extensions><gpxtpx:TrackPointExtension><gpxtpx:hr>157</gpxtpx:hr></gpxtpx:TrackPointExtension></extensions>
      </trkpt>
      <trkpt lat="59.291756982758" lon="17.998339457065">
        <ele>36.2</ele>
        <time>2018-12-15T08:19:35Z</time>
        <extensions><gpxtpx:TrackPointExtension><gpxtpx:hr>154</gpxtpx:hr></gpxtpx:TrackPointExtension></extensions>
      </trkpt>
      <trkpt lat="59.291974493063" lon="17.998692502693">
        <ele>36.2</ele>
        <time>2018-12-15T08:19:39Z</time>
        <extensions><gpxtpx:TrackPointExtension><gpxtpx:hr>151</gpxtpx:hr></gpxtpx:TrackPointExtension></extensions>
      </trkpt>
      <trkpt lat="59.292130061127" lon="17.998953598878">
        <ele>35.8</ele>
        <time>2018-12-15T08:19:42Z</time>
        <extensions><gpxtpx:TrackPointExtension><gpxtpx:hr>149</gpxtpx:hr></gpxtpx:TrackPointExtension></extensions>
      </trkpt>
      <trkpt lat="59.292354947504" lon="17.999388703307">
        <ele>35.8</ele>
        <time>2018-12-15T08:19:47Z</time>
        <extensions><gpxtpx:TrackPointExtension><gpxtpx:hr>146</gpxtpx:hr></gpxtpx:TrackPointExtension></extensions>
      </trkpt>
      <trkpt lat="59.292768091355" lon="18.000081299704">
        <ele>36.4</ele>
        <time>2018-12-15T08:19:57Z</time>
        <extensions><gpxtpx:TrackPointExtension><gpxtpx:hr>144</gpxtpx:hr></gpxtpx:TrackPointExtension></extensions>
      </trkpt>
      <trkpt lat="59.292852832364" lon="18.000237789777">
        <ele>37</ele>
        <time>2018-12-15T08:19:59Z</time>
        <extensions><gpxtpx:TrackPointExtension><gpxtpx:hr>144</gpxtpx:hr></gpxtpx:TrackPointExtension></extensions>
      </trkpt>
      <trkpt lat="59.293127758684" lon="18.000793174471">
        <ele>37.2</ele>
        <time>2018-12-15T08:20:06Z</time>
        <extensions><gpxtpx:TrackPointExtension><gpxtpx:hr>141</gpxtpx:hr></gpxtpx:TrackPointExtension></extensions>
      </trkpt>
      <trkpt lat="59.293225324" lon="18.001040272883">
        <ele>37</ele>
        <time>2018-12-15T08:20:09Z</time>
        <extensions><gpxtpx:TrackPointExtension><gpxtpx:hr>138</gpxtpx:hr></gpxtpx:TrackPointExtension></extensions>
      </trkpt>
      <trkpt lat="59.293606113717" lon="18.001837140116">
        <ele>36.4</ele>
        <time>2018-12-15T08:20:18Z</time>
        <extensions><gpxtpx:TrackPointExtension><gpxtpx:hr>139</gpxtpx:hr></gpxtpx:TrackPointExtension></extensions>
      </trkpt>
      <trkpt lat="59.293780038142" lon="18.002184234595">
        <ele>36.2</ele>
        <time>2018-12-15T08:20:22Z</time>
        <extensions><gpxtpx:TrackPointExtension><gpxtpx:hr>142</gpxtpx:hr></gpxtpx:TrackPointExtension></extensions>
      </trkpt>
      <trkpt lat="59.293925380288" lon="18.002439547269">
        <ele>36.2</ele>
        <time>2018-12-15T08:20:25Z</time>
        <extensions><gpxtpx:TrackPointExtension><gpxtpx:hr>143</gpxtpx:hr></gpxtpx:TrackPointExtension></extensions>
      </trkpt>
      <trkpt lat="59.294089162614" lon="18.002653369538">
        <ele>36</ele>
        <time>2018-12-15T08:20:28Z</time>
        <extensions><gpxtpx:TrackPointExtension><gpxtpx:hr>142</gpxtpx:hr></gpxtpx:TrackPointExtension></extensions>
      </trkpt>
      <trkpt lat="59.294362999287" lon="18.00326256603">
        <ele>36</ele>
        <time>2018-12-15T08:20:34Z</time>
        <extensions><gpxtpx:TrackPointExtension><gpxtpx:hr>142</gpxtpx:hr></gpxtpx:TrackPointExtension></extensions>
      </trkpt>
      <trkpt lat="59.294528206536" lon="18.003652156742">
        <ele>35.2</ele>
        <time>2018-12-15T08:20:38Z</time>
        <extensions><gpxtpx:TrackPointExtension><gpxtpx:hr>143</gpxtpx:hr></gpxtpx:TrackPointExtension></extensions>
      </trkpt>
      <trkpt lat="59.294815454249" lon="18.004276440654">
        <ele>34.8</ele>
        <time>2018-12-15T08:20:45Z</time>
        <extensions><gpxtpx:TrackPointExtension><gpxtpx:hr>144</gpxtpx:hr></gpxtpx:TrackPointExtension></extensions>
      </trkpt>
      <trkpt lat="59.295051991467" lon="18.004448185785">
        <ele>34.8</ele>
        <time>2018-12-15T08:20:49Z</time>
        <extensions><gpxtpx:TrackPointExtension><gpxtpx:hr>144</gpxtpx:hr></gpxtpx:TrackPointExtension></extensions>
      </trkpt>
      <trkpt lat="59.295259946406" lon="18.004427147216">
        <ele>35</ele>
        <time>2018-12-15T08:20:53Z</time>
        <extensions><gpxtpx:TrackPointExtension><gpxtpx:hr>144</gpxtpx:hr></gpxtpx:TrackPointExtension></extensions>
      </trkpt>
      <trkpt lat="59.295425824207" lon="18.004281218337">
        <ele>35.2</ele>
        <time>2018-12-15T08:20:57Z</time>
        <extensions><gpxtpx:TrackPointExtension><gpxtpx:hr>145</gpxtpx:hr></gpxtpx:TrackPointExtension></extensions>
      </trkpt>
      <trkpt lat="59.29556974143" lon="18.004338634352">
        <ele>36</ele>
        <time>2018-12-15T08:21:01Z</time>
        <extensions><gpxtpx:TrackPointExtension><gpxtpx:hr>147</gpxtpx:hr></gpxtpx:TrackPointExtension></extensions>
      </trkpt>
      <trkpt lat="59.295631599852" lon="18.004420776972">
        <ele>37.2</ele>
        <time>2018-12-15T08:21:03Z</time>
        <extensions><gpxtpx:TrackPointExtension><gpxtpx:hr>148</gpxtpx:hr></gpxtpx:TrackPointExtension></extensions>
      </trkpt>
      <trkpt lat="59.295692620084" lon="18.004514318976">
        <ele>38.2</ele>
        <time>2018-12-15T08:21:05Z</time>
        <extensions><gpxtpx:TrackPointExtension><gpxtpx:hr>149</gpxtpx:hr></gpxtpx:TrackPointExtension></extensions>
      </trkpt>
      <trkpt lat="59.295779456568" lon="18.004655889267">
        <ele>39.6</ele>
        <time>2018-12-15T08:21:08Z</time>
        <extensions><gpxtpx:TrackPointExtension><gpxtpx:hr>151</gpxtpx:hr></gpxtpx:TrackPointExtension></extensions>
      </trkpt>
      <trkpt lat="59.295872663296" lon="18.004797711015">
        <ele>41</ele>
        <time>2018-12-15T08:21:11Z</time>
        <extensions><gpxtpx:TrackPointExtension><gpxtpx:hr>154</gpxtpx:hr></gpxtpx:TrackPointExtension></extensions>
      </trkpt>
      <trkpt lat="59.295984477842" lon="18.004965013739">
        <ele>42</ele>
        <time>2018-12-15T08:21:14Z</time>
        <extensions><gpxtpx:TrackPointExtension><gpxtpx:hr>156</gpxtpx:hr></gpxtpx:TrackPointExtension></extensions>
      </trkpt>
      <trkpt lat="59.296026974075" lon="18.005024106134">
        <ele>42.2</ele>
        <time>2018-12-15T08:21:15Z</time>
        <extensions><gpxtpx:TrackPointExtension><gpxtpx:hr>157</gpxtpx:hr></gpxtpx:TrackPointExtension></extensions>
      </trkpt>
      <trkpt lat="59.296498288312" lon="18.005713685047">
        <ele>42.8</ele>
        <time>2018-12-15T08:21:25Z</time>
        <extensions><gpxtpx:TrackPointExtension><gpxtpx:hr>159</gpxtpx:hr></gpxtpx:TrackPointExtension></extensions>
      </trkpt>
      <trkpt lat="59.296688305985" lon="18.005982073485">
        <ele>42.2</ele>
        <time>2018-12-15T08:21:29Z</time>
        <extensions><gpxtpx:TrackPointExtension><gpxtpx:hr>157</gpxtpx:hr></gpxtpx:TrackPointExtension></extensions>
      </trkpt>
      <trkpt lat="59.296822584023" lon="18.00647786287">
        <ele>42.2</ele>
        <time>2018-12-15T08:21:35Z</time>
        <extensions><gpxtpx:TrackPointExtension><gpxtpx:hr>156</gpxtpx:hr></gpxtpx:TrackPointExtension></extensions>
      </trkpt>
      <trkpt lat="59.296915706932" lon="18.006872901817">
        <ele>43.2</ele>
        <time>2018-12-15T08:21:40Z</time>
        <extensions><gpxtpx:TrackPointExtension><gpxtpx:hr>156</gpxtpx:hr></gpxtpx:TrackPointExtension></extensions>
      </trkpt>
      <trkpt lat="59.296978906458" lon="18.007124610274">
        <ele>44.6</ele>
        <time>2018-12-15T08:21:43Z</time>
        <extensions><gpxtpx:TrackPointExtension><gpxtpx:hr>156</gpxtpx:hr></gpxtpx:TrackPointExtension></extensions>
      </trkpt>
      <trkpt lat="59.297010506221" lon="18.007206082342">
        <ele>45</ele>
        <time>2018-12-15T08:21:44Z</time>
        <extensions><gpxtpx:TrackPointExtension><gpxtpx:hr>157</gpxtpx:hr></gpxtpx:TrackPointExtension></extensions>
      </trkpt>
      <trkpt lat="59.29707345429" lon="18.007358381465">
        <ele>45.6</ele>
        <time>2018-12-15T08:21:46Z</time>
        <extensions><gpxtpx:TrackPointExtension><gpxtpx:hr>158</gpxtpx:hr></gpxtpx:TrackPointExtension></extensions>
      </trkpt>
      <trkpt lat="59.297273194967" lon="18.007804298545">
        <ele>46</ele>
        <time>2018-12-15T08:21:51Z</time>
        <extensions><gpxtpx:TrackPointExtension><gpxtpx:hr>159</gpxtpx:hr></gpxtpx:TrackPointExtension></extensions>
      </trkpt>
      <trkpt lat="59.297563627802" lon="18.008387008233">
        <ele>45.4</ele>
        <time>2018-12-15T08:21:57Z</time>
        <extensions><gpxtpx:TrackPointExtension><gpxtpx:hr>158</gpxtpx:hr></gpxtpx:TrackPointExtension></extensions>
      </trkpt>
      <trkpt lat="59.297739060969" lon="18.008633436093">
        <ele>44.4</ele>
        <time>2018-12-15T08:22:00Z</time>
        <extensions><gpxtpx:TrackPointExtension><gpxtpx:hr>155</gpxtpx:hr></gpxtpx:TrackPointExtension></extensions>
      </trkpt>
      <trkpt lat="59.297910219367" lon="18.008904506739">
        <ele>43.4</ele>
        <time>2018-12-15T08:22:03Z</time>
        <extensions><gpxtpx:TrackPointExtension><gpxtpx:hr>153</gpxtpx:hr></gpxtpx:TrackPointExtension></extensions>
      </trkpt>
      <trkpt lat="59.298138290866" lon="18.009339694987">
        <ele>42</ele>
        <time>2018-12-15T08:22:07Z</time>
        <extensions><gpxtpx:TrackPointExtension><gpxtpx:hr>151</gpxtpx:hr></gpxtpx:TrackPointExtension></extensions>
      </trkpt>
      <trkpt lat="59.298279442062" lon="18.00973842197">
        <ele>40.8</ele>
        <time>2018-12-15T08:22:10Z</time>
        <extensions><gpxtpx:TrackPointExtension><gpxtpx:hr>150</gpxtpx:hr></gpxtpx:TrackPointExtension></extensions>
      </trkpt>
      <trkpt lat="59.298437692334" lon="18.010295147768">
        <ele>39.8</ele>
        <time>2018-12-15T08:22:14Z</time>
        <extensions><gpxtpx:TrackPointExtension><gpxtpx:hr>149</gpxtpx:hr></gpxtpx:TrackPointExtension></extensions>
      </trkpt>
      <trkpt lat="59.298621339763" lon="18.011035604814">
        <ele>39.2</ele>
        <time>2018-12-15T08:22:20Z</time>
        <extensions><gpxtpx:TrackPointExtension><gpxtpx:hr>146</gpxtpx:hr></gpxtpx:TrackPointExtension></extensions>
      </trkpt>
      <trkpt lat="59.298709852627" lon="18.011408180269">
        <ele>39</ele>
        <time>2018-12-15T08:22:23Z</time>
        <extensions><gpxtpx:TrackPointExtension><gpxtpx:hr>143</gpxtpx:hr></gpxtpx:TrackPointExtension></extensions>
      </trkpt>
      <trkpt lat="59.298801131518" lon="18.011822413767">
        <ele>38.6</ele>
        <time>2018-12-15T08:22:26Z</time>
        <extensions><gpxtpx:TrackPointExtension><gpxtpx:hr>138</gpxtpx:hr></gpxtpx:TrackPointExtension></extensions>
      </trkpt>
      <trkpt lat="59.29885628442" lon="18.012109745299">
        <ele>38.6</ele>
        <time>2018-12-15T08:22:28Z</time>
        <extensions><gpxtpx:TrackPointExtension><gpxtpx:hr>135</gpxtpx:hr></gpxtpx:TrackPointExtension></extensions>
      </trkpt>
      <trkpt lat="59.298905989087" lon="18.01237955866">
        <ele>38</ele>
        <time>2018-12-15T08:22:30Z</time>
        <extensions><gpxtpx:TrackPointExtension><gpxtpx:hr>132</gpxtpx:hr></gpxtpx:TrackPointExtension></extensions>
      </trkpt>
      <trkpt lat="59.298925351276" lon="18.01250863992">
        <ele>37.6</ele>
        <time>2018-12-15T08:22:31Z</time>
        <extensions><gpxtpx:TrackPointExtension><gpxtpx:hr>130</gpxtpx:hr></gpxtpx:TrackPointExtension></extensions>
      </trkpt>
      <trkpt lat="59.298937421212" lon="18.012766886259">
        <ele>36.4</ele>
        <time>2018-12-15T08:22:33Z</time>
        <extensions><gpxtpx:TrackPointExtension><gpxtpx:hr>127</gpxtpx:hr></gpxtpx:TrackPointExtension></extensions>
      </trkpt>
      <trkpt lat="59.298938007945" lon="18.012893536768">
        <ele>35.6</ele>
        <time>2018-12-15T08:22:34Z</time>
        <extensions><gpxtpx:TrackPointExtension><gpxtpx:hr>124</gpxtpx:hr></gpxtpx:TrackPointExtension></extensions>
      </trkpt>
      <trkpt lat="59.298947479492" lon="18.01301490668">
        <ele>34.8</ele>
        <time>2018-12-15T08:22:35Z</time>
        <extensions><gpxtpx:TrackPointExtension><gpxtpx:hr>124</gpxtpx:hr></gpxtpx:TrackPointExtension></extensions>
      </trkpt>
      <trkpt lat="59.299020988755" lon="18.01322864513">
        <ele>33.8</ele>
        <time>2018-12-15T08:22:37Z</time>
        <extensions><gpxtpx:TrackPointExtension><gpxtpx:hr>126</gpxtpx:hr></gpxtpx:TrackPointExtension></extensions>
      </trkpt>
      <trkpt lat="59.299130037274" lon="18.013404832668">
        <ele>33.2</ele>
        <time>2018-12-15T08:22:39Z</time>
        <extensions><gpxtpx:TrackPointExtension><gpxtpx:hr>130</gpxtpx:hr></gpxtpx:TrackPointExtension></extensions>
      </trkpt>
      <trkpt lat="59.299182675606" lon="18.01350524783">
        <ele>33</ele>
        <time>2018-12-15T08:22:40Z</time>
        <extensions><gpxtpx:TrackPointExtension><gpxtpx:hr>134</gpxtpx:hr></gpxtpx:TrackPointExtension></extensions>
      </trkpt>
      <trkpt lat="59.299233637558" lon="18.013608429019">
        <ele>32.8</ele>
        <time>2018-12-15T08:22:41Z</time>
        <extensions><gpxtpx:TrackPointExtension><gpxtpx:hr>135</gpxtpx:hr></gpxtpx:TrackPointExtension></extensions>
      </trkpt>
      <trkpt lat="59.299335310005" lon="18.013815461949">
        <ele>32.8</ele>
        <time>2018-12-15T08:22:43Z</time>
        <extensions><gpxtpx:TrackPointExtension><gpxtpx:hr>139</gpxtpx:hr></gpxtpx:TrackPointExtension></extensions>
      </trkpt>
      <trkpt lat="59.299438575013" lon="18.014018723024">
        <ele>32.6</ele>
        <time>2018-12-15T08:22:45Z</time>
        <extensions><gpxtpx:TrackPointExtension><gpxtpx:hr>142</gpxtpx:hr></gpxtpx:TrackPointExtension></extensions>
      </trkpt>
      <trkpt lat="59.299585593539" lon="18.014323488908">
        <ele>32.6</ele>
        <time>2018-12-15T08:22:48Z</time>
        <extensions><gpxtpx:TrackPointExtension><gpxtpx:hr>145</gpxtpx:hr></gpxtpx:TrackPointExtension></extensions>
      </trkpt>
      <trkpt lat="59.29974895677" lon="18.014631691371">
        <ele>32.6</ele>
        <time>2018-12-15T08:22:51Z</time>
        <extensions><gpxtpx:TrackPointExtension><gpxtpx:hr>148</gpxtpx:hr></gpxtpx:TrackPointExtension></extensions>
      </trkpt>
      <trkpt lat="59.299913074372" lon="18.014907036786">
        <ele>32.4</ele>
        <time>2018-12-15T08:22:54Z</time>
        <extensions><gpxtpx:TrackPointExtension><gpxtpx:hr>149</gpxtpx:hr></gpxtpx:TrackPointExtension></extensions>
      </trkpt>
      <trkpt lat="59.300050369894" lon="18.015203085494">
        <ele>32.2</ele>
        <time>2018-12-15T08:22:57Z</time>
        <extensions><gpxtpx:TrackPointExtension><gpxtpx:hr>152</gpxtpx:hr></gpxtpx:TrackPointExtension></extensions>
      </trkpt>
      <trkpt lat="59.300242063947" lon="18.015508689568">
        <ele>32</ele>
        <time>2018-12-15T08:23:00Z</time>
        <extensions><gpxtpx:TrackPointExtension><gpxtpx:hr>154</gpxtpx:hr></gpxtpx:TrackPointExtension></extensions>
      </trkpt>
      <trkpt lat="59.300353710855" lon="18.015712621195">
        <ele>32</ele>
        <time>2018-12-15T08:23:02Z</time>
        <extensions><gpxtpx:TrackPointExtension><gpxtpx:hr>155</gpxtpx:hr></gpxtpx:TrackPointExtension></extensions>
      </trkpt>
      <trkpt lat="59.300595109575" lon="18.016206901838">
        <ele>32</ele>
        <time>2018-12-15T08:23:07Z</time>
        <extensions><gpxtpx:TrackPointExtension><gpxtpx:hr>158</gpxtpx:hr></gpxtpx:TrackPointExtension></extensions>
      </trkpt>
      <trkpt lat="59.300880010356" lon="18.016774272649">
        <ele>33.2</ele>
        <time>2018-12-15T08:23:13Z</time>
        <extensions><gpxtpx:TrackPointExtension><gpxtpx:hr>160</gpxtpx:hr></gpxtpx:TrackPointExtension></extensions>
      </trkpt>
      <trkpt lat="59.301029040538" lon="18.0170533061">
        <ele>34.4</ele>
        <time>2018-12-15T08:23:16Z</time>
        <extensions><gpxtpx:TrackPointExtension><gpxtpx:hr>162</gpxtpx:hr></gpxtpx:TrackPointExtension></extensions>
      </trkpt>
      <trkpt lat="59.301479735301" lon="18.017775155328">
        <ele>35.2</ele>
        <time>2018-12-15T08:23:25Z</time>
        <extensions><gpxtpx:TrackPointExtension><gpxtpx:hr>163</gpxtpx:hr></gpxtpx:TrackPointExtension></extensions>
      </trkpt>
      <trkpt lat="59.301764133168" lon="18.018275973853">
        <ele>35.4</ele>
        <time>2018-12-15T08:23:31Z</time>
        <extensions><gpxtpx:TrackPointExtension><gpxtpx:hr>163</gpxtpx:hr></gpxtpx:TrackPointExtension></extensions>
      </trkpt>
      <trkpt lat="59.302016093082" lon="18.018763632795">
        <ele>35.4</ele>
        <time>2018-12-15T08:23:37Z</time>
        <extensions><gpxtpx:TrackPointExtension><gpxtpx:hr>160</gpxtpx:hr></gpxtpx:TrackPointExtension></extensions>
      </trkpt>
      <trkpt lat="59.302367043235" lon="18.018814091833">
        <ele>35.6</ele>
        <time>2018-12-15T08:23:44Z</time>
        <extensions><gpxtpx:TrackPointExtension><gpxtpx:hr>157</gpxtpx:hr></gpxtpx:TrackPointExtension></extensions>
      </trkpt>
      <trkpt lat="59.302448012389" lon="18.018929007682">
        <ele>35.6</ele>
        <time>2018-12-15T08:23:46Z</time>
        <extensions><gpxtpx:TrackPointExtension><gpxtpx:hr>156</gpxtpx:hr></gpxtpx:TrackPointExtension></extensions>
      </trkpt>
      <trkpt lat="59.302544655696" lon="18.019072757267">
        <ele>35.6</ele>
        <time>2018-12-15T08:23:49Z</time>
        <extensions><gpxtpx:TrackPointExtension><gpxtpx:hr>153</gpxtpx:hr></gpxtpx:TrackPointExtension></extensions>
      </trkpt>
      <trkpt lat="59.302617913502" lon="18.019136124431">
        <ele>35.6</ele>
        <time>2018-12-15T08:23:51Z</time>
        <extensions><gpxtpx:TrackPointExtension><gpxtpx:hr>152</gpxtpx:hr></gpxtpx:TrackPointExtension></extensions>
      </trkpt>
      <trkpt lat="59.302752442997" lon="18.019213573187">
        <ele>35.8</ele>
        <time>2018-12-15T08:23:54Z</time>
        <extensions><gpxtpx:TrackPointExtension><gpxtpx:hr>149</gpxtpx:hr></gpxtpx:TrackPointExtension></extensions>
      </trkpt>
      <trkpt lat="59.302798962542" lon="18.019249950633">
        <ele>35.6</ele>
        <time>2018-12-15T08:23:55Z</time>
        <extensions><gpxtpx:TrackPointExtension><gpxtpx:hr>148</gpxtpx:hr></gpxtpx:TrackPointExtension></extensions>
      </trkpt>
      <trkpt lat="59.302947573629" lon="18.01954608316">
        <ele>35.6</ele>
        <time>2018-12-15T08:23:59Z</time>
        <extensions><gpxtpx:TrackPointExtension><gpxtpx:hr>146</gpxtpx:hr></gpxtpx:TrackPointExtension></extensions>
      </trkpt>
      <trkpt lat="59.303265499096" lon="18.019764599293">
        <ele>35.2</ele>
        <time>2018-12-15T08:24:04Z</time>
        <extensions><gpxtpx:TrackPointExtension><gpxtpx:hr>148</gpxtpx:hr></gpxtpx:TrackPointExtension></extensions>
      </trkpt>
      <trkpt lat="59.303581329088" lon="18.020009266954">
        <ele>34.4</ele>
        <time>2018-12-15T08:24:09Z</time>
        <extensions><gpxtpx:TrackPointExtension><gpxtpx:hr>150</gpxtpx:hr></gpxtpx:TrackPointExtension></extensions>
      </trkpt>
      <trkpt lat="59.303828008405" lon="18.020170283253">
        <ele>32.6</ele>
        <time>2018-12-15T08:24:12Z</time>
        <extensions><gpxtpx:TrackPointExtension><gpxtpx:hr>152</gpxtpx:hr></gpxtpx:TrackPointExtension></extensions>
      </trkpt>
      <trkpt lat="59.304106790399" lon="18.020332556837">
        <ele>31.4</ele>
        <time>2018-12-15T08:24:15Z</time>
        <extensions><gpxtpx:TrackPointExtension><gpxtpx:hr>150</gpxtpx:hr></gpxtpx:TrackPointExtension></extensions>
      </trkpt>
      <trkpt lat="59.304356738657" lon="18.020500697751">
        <ele>30</ele>
        <time>2018-12-15T08:24:18Z</time>
        <extensions><gpxtpx:TrackPointExtension><gpxtpx:hr>149</gpxtpx:hr></gpxtpx:TrackPointExtension></extensions>
      </trkpt>
      <trkpt lat="59.304527645598" lon="18.020657774557">
        <ele>28.6</ele>
        <time>2018-12-15T08:24:20Z</time>
        <extensions><gpxtpx:TrackPointExtension><gpxtpx:hr>148</gpxtpx:hr></gpxtpx:TrackPointExtension></extensions>
      </trkpt>
      <trkpt lat="59.304703078765" lon="18.020816863019">
        <ele>27.2</ele>
        <time>2018-12-15T08:24:22Z</time>
        <extensions><gpxtpx:TrackPointExtension><gpxtpx:hr>145</gpxtpx:hr></gpxtpx:TrackPointExtension></extensions>
      </trkpt>
      <trkpt lat="59.304880439769" lon="18.020984081924">
        <ele>26.4</ele>
        <time>2018-12-15T08:24:24Z</time>
        <extensions><gpxtpx:TrackPointExtension><gpxtpx:hr>142</gpxtpx:hr></gpxtpx:TrackPointExtension></extensions>
      </trkpt>
      <trkpt lat="59.304966438063" lon="18.021065470173">
        <ele>25.8</ele>
        <time>2018-12-15T08:24:25Z</time>
        <extensions><gpxtpx:TrackPointExtension><gpxtpx:hr>141</gpxtpx:hr></gpxtpx:TrackPointExtension></extensions>
      </trkpt>
      <trkpt lat="59.305142290325" lon="18.021228498128">
        <ele>24.8</ele>
        <time>2018-12-15T08:24:27Z</time>
        <extensions><gpxtpx:TrackPointExtension><gpxtpx:hr>138</gpxtpx:hr></gpxtpx:TrackPointExtension></extensions>
      </trkpt>
      <trkpt lat="59.305231976655" lon="18.021310305472">
        <ele>24.2</ele>
        <time>2018-12-15T08:24:28Z</time>
        <extensions><gpxtpx:TrackPointExtension><gpxtpx:hr>136</gpxtpx:hr></gpxtpx:TrackPointExtension></extensions>
      </trkpt>
      <trkpt lat="59.305411684591" lon="18.021473752522">
        <ele>23.4</ele>
        <time>2018-12-15T08:24:30Z</time>
        <extensions><gpxtpx:TrackPointExtension><gpxtpx:hr>132</gpxtpx:hr></gpxtpx:TrackPointExtension></extensions>
      </trkpt>
      <trkpt lat="59.305500532731" lon="18.021558912626">
        <ele>22.8</ele>
        <time>2018-12-15T08:24:31Z</time>
        <extensions><gpxtpx:TrackPointExtension><gpxtpx:hr>130</gpxtpx:hr></gpxtpx:TrackPointExtension></extensions>
      </trkpt>
      <trkpt lat="59.305673870423" lon="18.021735351621">
        <ele>21.8</ele>
        <time>2018-12-15T08:24:33Z</time>
        <extensions><gpxtpx:TrackPointExtension><gpxtpx:hr>126</gpxtpx:hr></gpxtpx:TrackPointExtension></extensions>
      </trkpt>
      <trkpt lat="59.305841173147" lon="18.021932577728">
        <ele>20.6</ele>
        <time>2018-12-15T08:24:35Z</time>
        <extensions><gpxtpx:TrackPointExtension><gpxtpx:hr>123</gpxtpx:hr></gpxtpx:TrackPointExtension></extensions>
      </trkpt>
      <trkpt lat="59.306093133061" lon="18.022273218144">
        <ele>19.4</ele>
        <time>2018-12-15T08:24:38Z</time>
        <extensions><gpxtpx:TrackPointExtension><gpxtpx:hr>128</gpxtpx:hr></gpxtpx:TrackPointExtension></extensions>
      </trkpt>
      <trkpt lat="59.3062759423" lon="18.022510090638">
        <ele>18.4</ele>
        <time>2018-12-15T08:24:40Z</time>
        <extensions><gpxtpx:TrackPointExtension><gpxtpx:hr>130</gpxtpx:hr></gpxtpx:TrackPointExtension></extensions>
      </trkpt>
      <trkpt lat="59.306366802096" lon="18.02263229874">
        <ele>17.2</ele>
        <time>2018-12-15T08:24:41Z</time>
        <extensions><gpxtpx:TrackPointExtension><gpxtpx:hr>130</gpxtpx:hr></gpxtpx:TrackPointExtension></extensions>
      </trkpt>
      <trkpt lat="59.306540726521" lon="18.022879732428">
        <ele>15.8</ele>
        <time>2018-12-15T08:24:43Z</time>
        <extensions><gpxtpx:TrackPointExtension><gpxtpx:hr>129</gpxtpx:hr></gpxtpx:TrackPointExtension></extensions>
      </trkpt>
      <trkpt lat="59.306712723109" lon="18.023107887746">
        <ele>14.8</ele>
        <time>2018-12-15T08:24:45Z</time>
        <extensions><gpxtpx:TrackPointExtension><gpxtpx:hr>127</gpxtpx:hr></gpxtpx:TrackPointExtension></extensions>
      </trkpt>
      <trkpt lat="59.306874493779" lon="18.023322045291">
        <ele>13.2</ele>
        <time>2018-12-15T08:24:47Z</time>
        <extensions><gpxtpx:TrackPointExtension><gpxtpx:hr>125</gpxtpx:hr></gpxtpx:TrackPointExtension></extensions>
      </trkpt>
      <trkpt lat="59.307026792902" lon="18.023528994402">
        <ele>11.6</ele>
        <time>2018-12-15T08:24:49Z</time>
        <extensions><gpxtpx:TrackPointExtension><gpxtpx:hr>126</gpxtpx:hr></gpxtpx:TrackPointExtension></extensions>
      </trkpt>
      <trkpt lat="59.307173895247" lon="18.023726304328">
        <ele>10.4</ele>
        <time>2018-12-15T08:24:51Z</time>
        <extensions><gpxtpx:TrackPointExtension><gpxtpx:hr>130</gpxtpx:hr></gpxtpx:TrackPointExtension></extensions>
      </trkpt>
      <trkpt lat="59.307389310077" lon="18.024003912856">
        <ele>9.6</ele>
        <time>2018-12-15T08:24:54Z</time>
        <extensions><gpxtpx:TrackPointExtension><gpxtpx:hr>133</gpxtpx:hr></gpxtpx:TrackPointExtension></extensions>
      </trkpt>
      <trkpt lat="59.3077176291" lon="18.024409680635">
        <ele>9.4</ele>
        <time>2018-12-15T08:24:59Z</time>
        <extensions><gpxtpx:TrackPointExtension><gpxtpx:hr>136</gpxtpx:hr></gpxtpx:TrackPointExtension></extensions>
      </trkpt>
      <trkpt lat="59.307887362575" lon="18.024627023302">
        <ele>9.4</ele>
        <time>2018-12-15T08:25:02Z</time>
        <extensions><gpxtpx:TrackPointExtension><gpxtpx:hr>139</gpxtpx:hr></gpxtpx:TrackPointExtension></extensions>
      </trkpt>
      <trkpt lat="59.308129767123" lon="18.025023906267">
        <ele>10.6</ele>
        <time>2018-12-15T08:25:07Z</time>
        <extensions><gpxtpx:TrackPointExtension><gpxtpx:hr>142</gpxtpx:hr></gpxtpx:TrackPointExtension></extensions>
      </trkpt>
      <trkpt lat="59.308312492543" lon="18.025459345972">
        <ele>11.2</ele>
        <time>2018-12-15T08:25:11Z</time>
        <extensions><gpxtpx:TrackPointExtension><gpxtpx:hr>143</gpxtpx:hr></gpxtpx:TrackPointExtension></extensions>
      </trkpt>
      <trkpt lat="59.308564620095" lon="18.025763106028">
        <ele>11.4</ele>
        <time>2018-12-15T08:25:15Z</time>
        <extensions><gpxtpx:TrackPointExtension><gpxtpx:hr>143</gpxtpx:hr></gpxtpx:TrackPointExtension></extensions>
      </trkpt>
      <trkpt lat="59.309033168305" lon="18.026292506832">
        <ele>9.6</ele>
        <time>2018-12-15T08:25:22Z</time>
        <extensions><gpxtpx:TrackPointExtension><gpxtpx:hr>145</gpxtpx:hr></gpxtpx:TrackPointExtension></extensions>
      </trkpt>
      <trkpt lat="59.309288900074" lon="18.026644295175">
        <ele>9.4</ele>
        <time>2018-12-15T08:25:26Z</time>
        <extensions><gpxtpx:TrackPointExtension><gpxtpx:hr>145</gpxtpx:hr></gpxtpx:TrackPointExtension></extensions>
      </trkpt>
      <trkpt lat="59.309684274297" lon="18.027210660158">
        <ele>9.2</ele>
        <time>2018-12-15T08:25:32Z</time>
        <extensions><gpxtpx:TrackPointExtension><gpxtpx:hr>142</gpxtpx:hr></gpxtpx:TrackPointExtension></extensions>
      </trkpt>
      <trkpt lat="59.309807069132" lon="18.027389529904">
        <ele>8.2</ele>
        <time>2018-12-15T08:25:34Z</time>
        <extensions><gpxtpx:TrackPointExtension><gpxtpx:hr>142</gpxtpx:hr></gpxtpx:TrackPointExtension></extensions>
      </trkpt>
      <trkpt lat="59.309991387113" lon="18.027635035755">
        <ele>7</ele>
        <time>2018-12-15T08:25:37Z</time>
        <extensions><gpxtpx:TrackPointExtension><gpxtpx:hr>141</gpxtpx:hr></gpxtpx:TrackPointExtension></extensions>
      </trkpt>
      <trkpt lat="59.310405452973" lon="18.028155887021">
        <ele>6.4</ele>
        <time>2018-12-15T08:25:45Z</time>
        <extensions><gpxtpx:TrackPointExtension><gpxtpx:hr>144</gpxtpx:hr></gpxtpx:TrackPointExtension></extensions>
      </trkpt>
      <trkpt lat="59.310604523098" lon="18.028352358757">
        <ele>7.2</ele>
        <time>2018-12-15T08:25:49Z</time>
        <extensions><gpxtpx:TrackPointExtension><gpxtpx:hr>147</gpxtpx:hr></gpxtpx:TrackPointExtension></extensions>
      </trkpt>
      <trkpt lat="59.310857153564" lon="18.0285616548">
        <ele>8.2</ele>
        <time>2018-12-15T08:25:54Z</time>
        <extensions><gpxtpx:TrackPointExtension><gpxtpx:hr>150</gpxtpx:hr></gpxtpx:TrackPointExtension></extensions>
      </trkpt>
      <trkpt lat="59.311051529825" lon="18.028750834283">
        <ele>9</ele>
        <time>2018-12-15T08:25:58Z</time>
        <extensions><gpxtpx:TrackPointExtension><gpxtpx:hr>151</gpxtpx:hr></gpxtpx:TrackPointExtension></extensions>
      </trkpt>
      <trkpt lat="59.31115085534" lon="18.028853680196">
        <ele>9.4</ele>
        <time>2018-12-15T08:26:00Z</time>
        <extensions><gpxtpx:TrackPointExtension><gpxtpx:hr>152</gpxtpx:hr></gpxtpx:TrackPointExtension></extensions>
      </trkpt>
      <trkpt lat="59.311297622409" lon="18.029032130847">
        <ele>10.2</ele>
        <time>2018-12-15T08:26:03Z</time>
        <extensions><gpxtpx:TrackPointExtension><gpxtpx:hr>153</gpxtpx:hr></gpxtpx:TrackPointExtension></extensions>
      </trkpt>
      <trkpt lat="59.311576907317" lon="18.029209491851">
        <ele>10.8</ele>
        <time>2018-12-15T08:26:08Z</time>
        <extensions><gpxtpx:TrackPointExtension><gpxtpx:hr>156</gpxtpx:hr></gpxtpx:TrackPointExtension></extensions>
      </trkpt>
      <trkpt lat="59.311768685189" lon="18.029495817555">
        <ele>10.8</ele>
        <time>2018-12-15T08:26:12Z</time>
        <extensions><gpxtpx:TrackPointExtension><gpxtpx:hr>157</gpxtpx:hr></gpxtpx:TrackPointExtension></extensions>
      </trkpt>
      <trkpt lat="59.31201502923" lon="18.029958330797">
        <ele>11.4</ele>
        <time>2018-12-15T08:26:18Z</time>
        <extensions><gpxtpx:TrackPointExtension><gpxtpx:hr>157</gpxtpx:hr></gpxtpx:TrackPointExtension></extensions>
      </trkpt>
      <trkpt lat="59.312162969765" lon="18.030223031199">
        <ele>12.6</ele>
        <time>2018-12-15T08:26:22Z</time>
        <extensions><gpxtpx:TrackPointExtension><gpxtpx:hr>158</gpxtpx:hr></gpxtpx:TrackPointExtension></extensions>
      </trkpt>
      <trkpt lat="59.31233354143" lon="18.03053643044">
        <ele>13.6</ele>
        <time>2018-12-15T08:26:27Z</time>
        <extensions><gpxtpx:TrackPointExtension><gpxtpx:hr>159</gpxtpx:hr></gpxtpx:TrackPointExtension></extensions>
      </trkpt>
      <trkpt lat="59.312502269077" lon="18.030838011202">
        <ele>14.6</ele>
        <time>2018-12-15T08:26:32Z</time>
        <extensions><gpxtpx:TrackPointExtension><gpxtpx:hr>159</gpxtpx:hr></gpxtpx:TrackPointExtension></extensions>
      </trkpt>
      <trkpt lat="59.312698489356" lon="18.031214777607">
        <ele>16</ele>
        <time>2018-12-15T08:26:38Z</time>
        <extensions><gpxtpx:TrackPointExtension><gpxtpx:hr>159</gpxtpx:hr></gpxtpx:TrackPointExtension></extensions>
      </trkpt>
      <trkpt lat="59.312866378813" lon="18.031533792721">
        <ele>17.2</ele>
        <time>2018-12-15T08:26:43Z</time>
        <extensions><gpxtpx:TrackPointExtension><gpxtpx:hr>161</gpxtpx:hr></gpxtpx:TrackPointExtension></extensions>
      </trkpt>
      <trkpt lat="59.313055977391" lon="18.031894801154">
        <ele>18.4</ele>
        <time>2018-12-15T08:26:49Z</time>
        <extensions><gpxtpx:TrackPointExtension><gpxtpx:hr>161</gpxtpx:hr></gpxtpx:TrackPointExtension></extensions>
      </trkpt>
      <trkpt lat="59.313185058651" lon="18.032133601485">
        <ele>19.6</ele>
        <time>2018-12-15T08:26:53Z</time>
        <extensions><gpxtpx:TrackPointExtension><gpxtpx:hr>160</gpxtpx:hr></gpxtpx:TrackPointExtension></extensions>
      </trkpt>
      <trkpt lat="59.313312798807" lon="18.03237625749">
        <ele>20.6</ele>
        <time>2018-12-15T08:26:57Z</time>
        <extensions><gpxtpx:TrackPointExtension><gpxtpx:hr>161</gpxtpx:hr></gpxtpx:TrackPointExtension></extensions>
      </trkpt>
      <trkpt lat="59.31348856725" lon="18.032692590396">
        <ele>21.6</ele>
        <time>2018-12-15T08:27:02Z</time>
        <extensions><gpxtpx:TrackPointExtension><gpxtpx:hr>160</gpxtpx:hr></gpxtpx:TrackPointExtension></extensions>
      </trkpt>
      <trkpt lat="59.313715465283" lon="18.033122833323">
        <ele>21.8</ele>
        <time>2018-12-15T08:27:08Z</time>
        <extensions><gpxtpx:TrackPointExtension><gpxtpx:hr>157</gpxtpx:hr></gpxtpx:TrackPointExtension></extensions>
      </trkpt>
      <trkpt lat="59.313953678881" lon="18.033583921642">
        <ele>21.8</ele>
        <time>2018-12-15T08:27:13Z</time>
        <extensions><gpxtpx:TrackPointExtension><gpxtpx:hr>154</gpxtpx:hr></gpxtpx:TrackPointExtension></extensions>
      </trkpt>
      <trkpt lat="59.314108660212" lon="18.033872678097">
        <ele>21.2</ele>
        <time>2018-12-15T08:27:16Z</time>
        <extensions><gpxtpx:TrackPointExtension><gpxtpx:hr>150</gpxtpx:hr></gpxtpx:TrackPointExtension></extensions>
      </trkpt>
      <trkpt lat="59.314160041259" lon="18.033971919793">
        <ele>20.6</ele>
        <time>2018-12-15T08:27:17Z</time>
        <extensions><gpxtpx:TrackPointExtension><gpxtpx:hr>150</gpxtpx:hr></gpxtpx:TrackPointExtension></extensions>
      </trkpt>
      <trkpt lat="59.314269257416" lon="18.034175348506">
        <ele>20</ele>
        <time>2018-12-15T08:27:19Z</time>
        <extensions><gpxtpx:TrackPointExtension><gpxtpx:hr>145</gpxtpx:hr></gpxtpx:TrackPointExtension></extensions>
      </trkpt>
      <trkpt lat="59.314380988143" lon="18.034378022848">
        <ele>19.4</ele>
        <time>2018-12-15T08:27:21Z</time>
        <extensions><gpxtpx:TrackPointExtension><gpxtpx:hr>142</gpxtpx:hr></gpxtpx:TrackPointExtension></extensions>
      </trkpt>
      <trkpt lat="59.314505459358" lon="18.034550270893">
        <ele>18.6</ele>
        <time>2018-12-15T08:27:23Z</time>
        <extensions><gpxtpx:TrackPointExtension><gpxtpx:hr>137</gpxtpx:hr></gpxtpx:TrackPointExtension></extensions>
      </trkpt>
      <trkpt lat="59.314575196766" lon="18.03460835746">
        <ele>18.2</ele>
        <time>2018-12-15T08:27:24Z</time>
        <extensions><gpxtpx:TrackPointExtension><gpxtpx:hr>135</gpxtpx:hr></gpxtpx:TrackPointExtension></extensions>
      </trkpt>
      <trkpt lat="59.314644934174" lon="18.034642974707">
        <ele>17.8</ele>
        <time>2018-12-15T08:27:25Z</time>
        <extensions><gpxtpx:TrackPointExtension><gpxtpx:hr>132</gpxtpx:hr></gpxtpx:TrackPointExtension></extensions>
      </trkpt>
      <trkpt lat="59.31471483922" lon="18.034650937512">
        <ele>17.2</ele>
        <time>2018-12-15T08:27:26Z</time>
        <extensions><gpxtpx:TrackPointExtension><gpxtpx:hr>131</gpxtpx:hr></gpxtpx:TrackPointExtension></extensions>
      </trkpt>
      <trkpt lat="59.314784911904" lon="18.034648422942">
        <ele>16.8</ele>
        <time>2018-12-15T08:27:27Z</time>
        <extensions><gpxtpx:TrackPointExtension><gpxtpx:hr>131</gpxtpx:hr></gpxtpx:TrackPointExtension></extensions>
      </trkpt>
      <trkpt lat="59.314852218561" lon="18.034639035214">
        <ele>16.2</ele>
        <time>2018-12-15T08:27:28Z</time>
        <extensions><gpxtpx:TrackPointExtension><gpxtpx:hr>131</gpxtpx:hr></gpxtpx:TrackPointExtension></extensions>
      </trkpt>
      <trkpt lat="59.314991693377" lon="18.034617912826">
        <ele>15</ele>
        <time>2018-12-15T08:27:30Z</time>
        <extensions><gpxtpx:TrackPointExtension><gpxtpx:hr>131</gpxtpx:hr></gpxtpx:TrackPointExtension></extensions>
      </trkpt>
      <trkpt lat="59.315124546492" lon="18.034566615598">
        <ele>14</ele>
        <time>2018-12-15T08:27:32Z</time>
        <extensions><gpxtpx:TrackPointExtension><gpxtpx:hr>130</gpxtpx:hr></gpxtpx:TrackPointExtension></extensions>
      </trkpt>
      <trkpt lat="59.31530827774" lon="18.034370395319">
        <ele>12.8</ele>
        <time>2018-12-15T08:27:35Z</time>
        <extensions><gpxtpx:TrackPointExtension><gpxtpx:hr>129</gpxtpx:hr></gpxtpx:TrackPointExtension></extensions>
      </trkpt>
      <trkpt lat="59.315559483283" lon="18.034076274448">
        <ele>12</ele>
        <time>2018-12-15T08:27:39Z</time>
        <extensions><gpxtpx:TrackPointExtension><gpxtpx:hr>132</gpxtpx:hr></gpxtpx:TrackPointExtension></extensions>
      </trkpt>
      <trkpt lat="59.315703400506" lon="18.033969237585">
        <ele>11.6</ele>
        <time>2018-12-15T08:27:41Z</time>
        <extensions><gpxtpx:TrackPointExtension><gpxtpx:hr>134</gpxtpx:hr></gpxtpx:TrackPointExtension></extensions>
      </trkpt>
      <trkpt lat="59.316053009555" lon="18.033691796695">
        <ele>11.4</ele>
        <time>2018-12-15T08:27:46Z</time>
        <extensions><gpxtpx:TrackPointExtension><gpxtpx:hr>137</gpxtpx:hr></gpxtpx:TrackPointExtension></extensions>
      </trkpt>
      <trkpt lat="59.316328774065" lon="18.033510077103">
        <ele>11.4</ele>
        <time>2018-12-15T08:27:50Z</time>
        <extensions><gpxtpx:TrackPointExtension><gpxtpx:hr>140</gpxtpx:hr></gpxtpx:TrackPointExtension></extensions>
      </trkpt>
      <trkpt lat="59.3165940612" lon="18.03334436694">
        <ele>11.4</ele>
        <time>2018-12-15T08:27:54Z</time>
        <extensions><gpxtpx:TrackPointExtension><gpxtpx:hr>143</gpxtpx:hr></gpxtpx:TrackPointExtension></extensions>
      </trkpt>
      <trkpt lat="59.316834034997" lon="18.03317002342">
        <ele>11.6</ele>
        <time>2018-12-15T08:27:58Z</time>
        <extensions><gpxtpx:TrackPointExtension><gpxtpx:hr>145</gpxtpx:hr></gpxtpx:TrackPointExtension></extensions>
      </trkpt>
      <trkpt lat="59.317059759564" lon="18.0330375894">
        <ele>11.8</ele>
        <time>2018-12-15T08:28:02Z</time>
        <extensions><gpxtpx:TrackPointExtension><gpxtpx:hr>146</gpxtpx:hr></gpxtpx:TrackPointExtension></extensions>
      </trkpt>
      <trkpt lat="59.317406183491" lon="18.032837429628">
        <ele>12.6</ele>
        <time>2018-12-15T08:28:08Z</time>
        <extensions><gpxtpx:TrackPointExtension><gpxtpx:hr>146</gpxtpx:hr></gpxtpx:TrackPointExtension></extensions>
      </trkpt>
      <trkpt lat="59.317682199458" lon="18.032674988406">
        <ele>13.8</ele>
        <time>2018-12-15T08:28:13Z</time>
        <extensions><gpxtpx:TrackPointExtension><gpxtpx:hr>148</gpxtpx:hr></gpxtpx:TrackPointExtension></extensions>
      </trkpt>
      <trkpt lat="59.318011691947" lon="18.032469212761">
        <ele>14.8</ele>
        <time>2018-12-15T08:28:19Z</time>
        <extensions><gpxtpx:TrackPointExtension><gpxtpx:hr>151</gpxtpx:hr></gpxtpx:TrackPointExtension></extensions>
      </trkpt>
      <trkpt lat="59.318071873989" lon="18.032437864455">
        <ele>14.8</ele>
        <time>2018-12-15T08:28:20Z</time>
        <extensions><gpxtpx:TrackPointExtension><gpxtpx:hr>151</gpxtpx:hr></gpxtpx:TrackPointExtension></extensions>
      </trkpt>
      <trkpt lat="59.31838024409" lon="18.032275255595">
        <ele>14.8</ele>
        <time>2018-12-15T08:28:25Z</time>
        <extensions><gpxtpx:TrackPointExtension><gpxtpx:hr>154</gpxtpx:hr></gpxtpx:TrackPointExtension></extensions>
      </trkpt>
      <trkpt lat="59.318959181923" lon="18.032028157183">
        <ele>14.8</ele>
        <time>2018-12-15T08:28:34Z</time>
        <extensions><gpxtpx:TrackPointExtension><gpxtpx:hr>156</gpxtpx:hr></gpxtpx:TrackPointExtension></extensions>
      </trkpt>
      <trkpt lat="59.319521942689" lon="18.031817687674">
        <ele>15.4</ele>
        <time>2018-12-15T08:28:44Z</time>
        <extensions><gpxtpx:TrackPointExtension><gpxtpx:hr>156</gpxtpx:hr></gpxtpx:TrackPointExtension></extensions>
      </trkpt>
      <trkpt lat="59.319629566285" lon="18.031773263604">
        <ele>15.8</ele>
        <time>2018-12-15T08:28:46Z</time>
        <extensions><gpxtpx:TrackPointExtension><gpxtpx:hr>156</gpxtpx:hr></gpxtpx:TrackPointExtension></extensions>
      </trkpt>
      <trkpt lat="59.319955286919" lon="18.031618030816">
        <ele>17</ele>
        <time>2018-12-15T08:28:52Z</time>
        <extensions><gpxtpx:TrackPointExtension><gpxtpx:hr>156</gpxtpx:hr></gpxtpx:TrackPointExtension></extensions>
      </trkpt>
      <trkpt lat="59.320484017171" lon="18.031363891608">
        <ele>18</ele>
        <time>2018-12-15T08:29:02Z</time>
        <extensions><gpxtpx:TrackPointExtension><gpxtpx:hr>158</gpxtpx:hr></gpxtpx:TrackPointExtension></extensions>
      </trkpt>
      <trkpt lat="59.320961785471" lon="18.031117799024">
        <ele>19.2</ele>
        <time>2018-12-15T08:29:11Z</time>
        <extensions><gpxtpx:TrackPointExtension><gpxtpx:hr>159</gpxtpx:hr></gpxtpx:TrackPointExtension></extensions>
      </trkpt>
      <trkpt lat="59.321517337803" lon="18.03079794572">
        <ele>20.4</ele>
        <time>2018-12-15T08:29:22Z</time>
        <extensions><gpxtpx:TrackPointExtension><gpxtpx:hr>159</gpxtpx:hr></gpxtpx:TrackPointExtension></extensions>
      </trkpt>
      <trkpt lat="59.32156536609" lon="18.030762322645">
        <ele>20.4</ele>
        <time>2018-12-15T08:29:23Z</time>
        <extensions><gpxtpx:TrackPointExtension><gpxtpx:hr>159</gpxtpx:hr></gpxtpx:TrackPointExtension></extensions>
      </trkpt>
      <trkpt lat="59.321889913258" lon="18.03051212293">
        <ele>21.6</ele>
        <time>2018-12-15T08:29:30Z</time>
        <extensions><gpxtpx:TrackPointExtension><gpxtpx:hr>158</gpxtpx:hr></gpxtpx:TrackPointExtension></extensions>
      </trkpt>
      <trkpt lat="59.322141705534" lon="18.030257732265">
        <ele>22.6</ele>
        <time>2018-12-15T08:29:36Z</time>
        <extensions><gpxtpx:TrackPointExtension><gpxtpx:hr>159</gpxtpx:hr></gpxtpx:TrackPointExtension></extensions>
      </trkpt>
      <trkpt lat="59.322300291082" lon="18.030077521415">
        <ele>23.8</ele>
        <time>2018-12-15T08:29:40Z</time>
        <extensions><gpxtpx:TrackPointExtension><gpxtpx:hr>158</gpxtpx:hr></gpxtpx:TrackPointExtension></extensions>
      </trkpt>
      <trkpt lat="59.322562728371" lon="18.029756327007">
        <ele>25</ele>
        <time>2018-12-15T08:29:47Z</time>
        <extensions><gpxtpx:TrackPointExtension><gpxtpx:hr>160</gpxtpx:hr></gpxtpx:TrackPointExtension></extensions>
      </trkpt>
      <trkpt lat="59.322789374947" lon="18.029470588036">
        <ele>26</ele>
        <time>2018-12-15T08:29:53Z</time>
        <extensions><gpxtpx:TrackPointExtension><gpxtpx:hr>161</gpxtpx:hr></gpxtpx:TrackPointExtension></extensions>
      </trkpt>
      <trkpt lat="59.322909236117" lon="18.02932021675">
        <ele>27.2</ele>
        <time>2018-12-15T08:29:56Z</time>
        <extensions><gpxtpx:TrackPointExtension><gpxtpx:hr>161</gpxtpx:hr></gpxtpx:TrackPointExtension></extensions>
      </trkpt>
      <trkpt lat="59.323232442181" lon="18.028953340987">
        <ele>28.2</ele>
        <time>2018-12-15T08:30:04Z</time>
        <extensions><gpxtpx:TrackPointExtension><gpxtpx:hr>161</gpxtpx:hr></gpxtpx:TrackPointExtension></extensions>
      </trkpt>
      <trkpt lat="59.323375102119" lon="18.028777656363">
        <ele>29.4</ele>
        <time>2018-12-15T08:30:08Z</time>
        <extensions><gpxtpx:TrackPointExtension><gpxtpx:hr>161</gpxtpx:hr></gpxtpx:TrackPointExtension></extensions>
      </trkpt>
      <trkpt lat="59.323545506146" lon="18.028570120519">
        <ele>30.4</ele>
        <time>2018-12-15T08:30:13Z</time>
        <extensions><gpxtpx:TrackPointExtension><gpxtpx:hr>162</gpxtpx:hr></gpxtpx:TrackPointExtension></extensions>
      </trkpt>
      <trkpt lat="59.323719011476" lon="18.02836384196">
        <ele>32</ele>
        <time>2018-12-15T08:30:18Z</time>
        <extensions><gpxtpx:TrackPointExtension><gpxtpx:hr>162</gpxtpx:hr></gpxtpx:TrackPointExtension></extensions>
      </trkpt>
      <trkpt lat="59.323971306666" lon="18.028063267026">
        <ele>33.2</ele>
        <time>2018-12-15T08:30:25Z</time>
        <extensions><gpxtpx:TrackPointExtension><gpxtpx:hr>161</gpxtpx:hr></gpxtpx:TrackPointExtension></extensions>
      </trkpt>
      <trkpt lat="59.32439677191" lon="18.027547780176">
        <ele>33.8</ele>
        <time>2018-12-15T08:30:34Z</time>
        <extensions><gpxtpx:TrackPointExtension><gpxtpx:hr>158</gpxtpx:hr></gpxtpx:TrackPointExtension></extensions>
      </trkpt>
      <trkpt lat="59.324897674254" lon="18.026933806001">
        <ele>32.4</ele>
        <time>2018-12-15T08:30:43Z</time>
        <extensions><gpxtpx:TrackPointExtension><gpxtpx:hr>156</gpxtpx:hr></gpxtpx:TrackPointExtension></extensions>
      </trkpt>
      <trkpt lat="59.324955677002" lon="18.02686432005">
        <ele>32.2</ele>
        <time>2018-12-15T08:30:44Z</time>
        <extensions><gpxtpx:TrackPointExtension><gpxtpx:hr>156</gpxtpx:hr></gpxtpx:TrackPointExtension></extensions>
      </trkpt>
      <trkpt lat="59.325197075722" lon="18.026561314365">
        <ele>31.6</ele>
        <time>2018-12-15T08:30:48Z</time>
        <extensions><gpxtpx:TrackPointExtension><gpxtpx:hr>153</gpxtpx:hr></gpxtpx:TrackPointExtension></extensions>
      </trkpt>
      <trkpt lat="59.325257928316" lon="18.026486966912">
        <ele>31.4</ele>
        <time>2018-12-15T08:30:49Z</time>
        <extensions><gpxtpx:TrackPointExtension><gpxtpx:hr>153</gpxtpx:hr></gpxtpx:TrackPointExtension></extensions>
      </trkpt>
      <trkpt lat="59.325511061696" lon="18.02618790072">
        <ele>30.2</ele>
        <time>2018-12-15T08:30:53Z</time>
        <extensions><gpxtpx:TrackPointExtension><gpxtpx:hr>151</gpxtpx:hr></gpxtpx:TrackPointExtension></extensions>
      </trkpt>
      <trkpt lat="59.325713652219" lon="18.025941053765">
        <ele>29.2</ele>
        <time>2018-12-15T08:30:56Z</time>
        <extensions><gpxtpx:TrackPointExtension><gpxtpx:hr>148</gpxtpx:hr></gpxtpx:TrackPointExtension></extensions>
      </trkpt>
      <trkpt lat="59.325908615213" lon="18.025692781887">
        <ele>28.6</ele>
        <time>2018-12-15T08:30:59Z</time>
        <extensions><gpxtpx:TrackPointExtension><gpxtpx:hr>144</gpxtpx:hr></gpxtpx:TrackPointExtension></extensions>
      </trkpt>
      <trkpt lat="59.326036355369" lon="18.025530843579">
        <ele>28</ele>
        <time>2018-12-15T08:31:01Z</time>
        <extensions><gpxtpx:TrackPointExtension><gpxtpx:hr>142</gpxtpx:hr></gpxtpx:TrackPointExtension></extensions>
      </trkpt>
      <trkpt lat="59.32622737887" lon="18.025302269166">
        <ele>26.8</ele>
        <time>2018-12-15T08:31:04Z</time>
        <extensions><gpxtpx:TrackPointExtension><gpxtpx:hr>138</gpxtpx:hr></gpxtpx:TrackPointExtension></extensions>
      </trkpt>
      <trkpt lat="59.32635478375" lon="18.025161788522">
        <ele>26</ele>
        <time>2018-12-15T08:31:06Z</time>
        <extensions><gpxtpx:TrackPointExtension><gpxtpx:hr>133</gpxtpx:hr></gpxtpx:TrackPointExtension></extensions>
      </trkpt>
      <trkpt lat="59.326482691544" lon="18.025005046992">
        <ele>25.6</ele>
        <time>2018-12-15T08:31:08Z</time>
        <extensions><gpxtpx:TrackPointExtension><gpxtpx:hr>132</gpxtpx:hr></gpxtpx:TrackPointExtension></extensions>
      </trkpt>
      <trkpt lat="59.326678660366" lon="18.02476800686">
        <ele>24.4</ele>
        <time>2018-12-15T08:31:11Z</time>
        <extensions><gpxtpx:TrackPointExtension><gpxtpx:hr>131</gpxtpx:hr></gpxtpx:TrackPointExtension></extensions>
      </trkpt>
      <trkpt lat="59.326809334187" lon="18.024613276986">
        <ele>23.6</ele>
        <time>2018-12-15T08:31:13Z</time>
        <extensions><gpxtpx:TrackPointExtension><gpxtpx:hr>128</gpxtpx:hr></gpxtpx:TrackPointExtension></extensions>
      </trkpt>
      <trkpt lat="59.326874545369" lon="18.024536498782">
        <ele>23.2</ele>
        <time>2018-12-15T08:31:14Z</time>
        <extensions><gpxtpx:TrackPointExtension><gpxtpx:hr>126</gpxtpx:hr></gpxtpx:TrackPointExtension></extensions>
      </trkpt>
      <trkpt lat="59.327002788439" lon="18.024380092528">
        <ele>22.6</ele>
        <time>2018-12-15T08:31:16Z</time>
        <extensions><gpxtpx:TrackPointExtension><gpxtpx:hr>122</gpxtpx:hr></gpxtpx:TrackPointExtension></extensions>
      </trkpt>
      <trkpt lat="59.327262124425" lon="18.024036099352">
        <ele>22.4</ele>
        <time>2018-12-15T08:31:20Z</time>
        <extensions><gpxtpx:TrackPointExtension><gpxtpx:hr>121</gpxtpx:hr></gpxtpx:TrackPointExtension></extensions>
      </trkpt>
      <trkpt lat="59.327393971712" lon="18.023850691724">
        <ele>21.4</ele>
        <time>2018-12-15T08:31:22Z</time>
        <extensions><gpxtpx:TrackPointExtension><gpxtpx:hr>125</gpxtpx:hr></gpxtpx:TrackPointExtension></extensions>
      </trkpt>
      <trkpt lat="59.327459937265" lon="18.023764861068">
        <ele>21.2</ele>
        <time>2018-12-15T08:31:23Z</time>
        <extensions><gpxtpx:TrackPointExtension><gpxtpx:hr>127</gpxtpx:hr></gpxtpx:TrackPointExtension></extensions>
      </trkpt>
      <trkpt lat="59.327630257473" lon="18.023544920012">
        <ele>20</ele>
        <time>2018-12-15T08:31:26Z</time>
        <extensions><gpxtpx:TrackPointExtension><gpxtpx:hr>126</gpxtpx:hr></gpxtpx:TrackPointExtension></extensions>
      </trkpt>
      <trkpt lat="59.327725559676" lon="18.023201765026">
        <ele>18.8</ele>
        <time>2018-12-15T08:31:30Z</time>
        <extensions><gpxtpx:TrackPointExtension><gpxtpx:hr>126</gpxtpx:hr></gpxtpx:TrackPointExtension></extensions>
      </trkpt>
      <trkpt lat="59.327831171616" lon="18.02302540985">
        <ele>18.6</ele>
        <time>2018-12-15T08:31:32Z</time>
        <extensions><gpxtpx:TrackPointExtension><gpxtpx:hr>129</gpxtpx:hr></gpxtpx:TrackPointExtension></extensions>
      </trkpt>
      <trkpt lat="59.32795572665" lon="18.022834470168">
        <ele>18.2</ele>
        <time>2018-12-15T08:31:34Z</time>
        <extensions><gpxtpx:TrackPointExtension><gpxtpx:hr>133</gpxtpx:hr></gpxtpx:TrackPointExtension></extensions>
      </trkpt>
      <trkpt lat="59.328083382987" lon="18.022646715608">
        <ele>18</ele>
        <time>2018-12-15T08:31:36Z</time>
        <extensions><gpxtpx:TrackPointExtension><gpxtpx:hr>136</gpxtpx:hr></gpxtpx:TrackPointExtension></extensions>
      </trkpt>
      <trkpt lat="59.328275244678" lon="18.022379584455">
        <ele>17.6</ele>
        <time>2018-12-15T08:31:39Z</time>
        <extensions><gpxtpx:TrackPointExtension><gpxtpx:hr>138</gpxtpx:hr></gpxtpx:TrackPointExtension></extensions>
      </trkpt>
      <trkpt lat="59.328397368961" lon="18.022205157116">
        <ele>16.4</ele>
        <time>2018-12-15T08:31:41Z</time>
        <extensions><gpxtpx:TrackPointExtension><gpxtpx:hr>138</gpxtpx:hr></gpxtpx:TrackPointExtension></extensions>
      </trkpt>
      <trkpt lat="59.32851982852" lon="18.022044056998">
        <ele>15.4</ele>
        <time>2018-12-15T08:31:43Z</time>
        <extensions><gpxtpx:TrackPointExtension><gpxtpx:hr>137</gpxtpx:hr></gpxtpx:TrackPointExtension></extensions>
      </trkpt>
      <trkpt lat="59.328584117693" lon="18.021985635155">
        <ele>15</ele>
        <time>2018-12-15T08:31:44Z</time>
        <extensions><gpxtpx:TrackPointExtension><gpxtpx:hr>138</gpxtpx:hr></gpxtpx:TrackPointExtension></extensions>
      </trkpt>
      <trkpt lat="59.328941605728" lon="18.022015055624">
        <ele>13.8</ele>
        <time>2018-12-15T08:31:49Z</time>
        <extensions><gpxtpx:TrackPointExtension><gpxtpx:hr>140</gpxtpx:hr></gpxtpx:TrackPointExtension></extensions>
      </trkpt>
      <trkpt lat="59.329081834915" lon="18.022112453302">
        <ele>13.4</ele>
        <time>2018-12-15T08:31:51Z</time>
        <extensions><gpxtpx:TrackPointExtension><gpxtpx:hr>142</gpxtpx:hr></gpxtpx:TrackPointExtension></extensions>
      </trkpt>
      <trkpt lat="59.329429348489" lon="18.022384529776">
        <ele>13.2</ele>
        <time>2018-12-15T08:31:56Z</time>
        <extensions><gpxtpx:TrackPointExtension><gpxtpx:hr>145</gpxtpx:hr></gpxtpx:TrackPointExtension></extensions>
      </trkpt>
      <trkpt lat="59.329770575638" lon="18.022637076423">
        <ele>13.4</ele>
        <time>2018-12-15T08:32:01Z</time>
        <extensions><gpxtpx:TrackPointExtension><gpxtpx:hr>148</gpxtpx:hr></gpxtpx:TrackPointExtension></extensions>
      </trkpt>
      <trkpt lat="59.330231915414" lon="18.022986434015">
        <ele>13.8</ele>
        <time>2018-12-15T08:32:08Z</time>
        <extensions><gpxtpx:TrackPointExtension><gpxtpx:hr>151</gpxtpx:hr></gpxtpx:TrackPointExtension></extensions>
      </trkpt>
      <trkpt lat="59.330670372603" lon="18.023322464386">
        <ele>14.4</ele>
        <time>2018-12-15T08:32:15Z</time>
        <extensions><gpxtpx:TrackPointExtension><gpxtpx:hr>154</gpxtpx:hr></gpxtpx:TrackPointExtension></extensions>
      </trkpt>
      <trkpt lat="59.331057700202" lon="18.023701410085">
        <ele>14.8</ele>
        <time>2018-12-15T08:32:22Z</time>
        <extensions><gpxtpx:TrackPointExtension><gpxtpx:hr>156</gpxtpx:hr></gpxtpx:TrackPointExtension></extensions>
      </trkpt>
      <trkpt lat="59.331539491814" lon="18.024116146497">
        <ele>15.8</ele>
        <time>2018-12-15T08:32:32Z</time>
        <extensions><gpxtpx:TrackPointExtension><gpxtpx:hr>155</gpxtpx:hr></gpxtpx:TrackPointExtension></extensions>
      </trkpt>
      <trkpt lat="59.331664801219" lon="18.024264170851">
        <ele>16.4</ele>
        <time>2018-12-15T08:32:35Z</time>
        <extensions><gpxtpx:TrackPointExtension><gpxtpx:hr>155</gpxtpx:hr></gpxtpx:TrackPointExtension></extensions>
      </trkpt>
      <trkpt lat="59.331759684327" lon="18.024274396769">
        <ele>17.2</ele>
        <time>2018-12-15T08:32:37Z</time>
        <extensions><gpxtpx:TrackPointExtension><gpxtpx:hr>154</gpxtpx:hr></gpxtpx:TrackPointExtension></extensions>
      </trkpt>
      <trkpt lat="59.33185833929" lon="18.024186554457">
        <ele>17.6</ele>
        <time>2018-12-15T08:32:39Z</time>
        <extensions><gpxtpx:TrackPointExtension><gpxtpx:hr>154</gpxtpx:hr></gpxtpx:TrackPointExtension></extensions>
      </trkpt>
      <trkpt lat="59.331909636518" lon="18.024144896414">
        <ele>17.8</ele>
        <time>2018-12-15T08:32:40Z</time>
        <extensions><gpxtpx:TrackPointExtension><gpxtpx:hr>154</gpxtpx:hr></gpxtpx:TrackPointExtension></extensions>
      </trkpt>
      <trkpt lat="59.33201591901" lon="18.024063256708">
        <ele>18.4</ele>
        <time>2018-12-15T08:32:42Z</time>
        <extensions><gpxtpx:TrackPointExtension><gpxtpx:hr>155</gpxtpx:hr></gpxtpx:TrackPointExtension></extensions>
      </trkpt>
      <trkpt lat="59.332069144075" lon="18.024023610321">
        <ele>18.4</ele>
        <time>2018-12-15T08:32:43Z</time>
        <extensions><gpxtpx:TrackPointExtension><gpxtpx:hr>155</gpxtpx:hr></gpxtpx:TrackPointExtension></extensions>
      </trkpt>
      <trkpt lat="59.332220018275" lon="18.023973151283">
        <ele>18.8</ele>
        <time>2018-12-15T08:32:46Z</time>
        <extensions><gpxtpx:TrackPointExtension><gpxtpx:hr>156</gpxtpx:hr></gpxtpx:TrackPointExtension></extensions>
      </trkpt>
      <trkpt lat="59.332352117019" lon="18.023953956732">
        <ele>19.2</ele>
        <time>2018-12-15T08:32:49Z</time>
        <extensions><gpxtpx:TrackPointExtension><gpxtpx:hr>158</gpxtpx:hr></gpxtpx:TrackPointExtension></extensions>
      </trkpt>
      <trkpt lat="59.33244255772" lon="18.023982455192">
        <ele>19.4</ele>
        <time>2018-12-15T08:32:51Z</time>
        <extensions><gpxtpx:TrackPointExtension><gpxtpx:hr>159</gpxtpx:hr></gpxtpx:TrackPointExtension></extensions>
      </trkpt>
      <trkpt lat="59.332662331138" lon="18.02410164581">
        <ele>20.8</ele>
        <time>2018-12-15T08:32:56Z</time>
        <extensions><gpxtpx:TrackPointExtension><gpxtpx:hr>161</gpxtpx:hr></gpxtpx:TrackPointExtension></extensions>
      </trkpt>
      <trkpt lat="59.332795854805" lon="18.02417624472">
        <ele>22</ele>
        <time>2018-12-15T08:32:59Z</time>
        <extensions><gpxtpx:TrackPointExtension><gpxtpx:hr>162</gpxtpx:hr></gpxtpx:TrackPointExtension></extensions>
      </trkpt>
      <trkpt lat="59.332928288825" lon="18.024246485042">
        <ele>23.2</ele>
        <time>2018-12-15T08:33:02Z</time>
        <extensions><gpxtpx:TrackPointExtension><gpxtpx:hr>162</gpxtpx:hr></gpxtpx:TrackPointExtension></extensions>
      </trkpt>
      <trkpt lat="59.333111684797" lon="18.024346313471">
        <ele>24.4</ele>
        <time>2018-12-15T08:33:06Z</time>
        <extensions><gpxtpx:TrackPointExtension><gpxtpx:hr>162</gpxtpx:hr></gpxtpx:TrackPointExtension></extensions>
      </trkpt>
      <trkpt lat="59.333384096547" lon="18.024501378621">
        <ele>25.6</ele>
        <time>2018-12-15T08:33:12Z</time>
        <extensions><gpxtpx:TrackPointExtension><gpxtpx:hr>162</gpxtpx:hr></gpxtpx:TrackPointExtension></extensions>
      </trkpt>
      <trkpt lat="59.333926824572" lon="18.02485517862">
        <ele>26.2</ele>
        <time>2018-12-15T08:33:24Z</time>
        <extensions><gpxtpx:TrackPointExtension><gpxtpx:hr>161</gpxtpx:hr></gpxtpx:TrackPointExtension></extensions>
      </trkpt>
      <trkpt lat="59.334464607276" lon="18.025186096032">
        <ele>26.2</ele>
        <time>2018-12-15T08:33:34Z</time>
        <extensions><gpxtpx:TrackPointExtension><gpxtpx:hr>161</gpxtpx:hr></gpxtpx:TrackPointExtension></extensions>
      </trkpt>
      <trkpt lat="59.334884959561" lon="18.025382148673">
        <ele>26</ele>
        <time>2018-12-15T08:33:41Z</time>
        <extensions><gpxtpx:TrackPointExtension><gpxtpx:hr>158</gpxtpx:hr></gpxtpx:TrackPointExtension></extensions>
      </trkpt>
      <trkpt lat="59.335175308577" lon="18.025562862437">
        <ele>25.8</ele>
        <time>2018-12-15T08:33:46Z</time>
        <extensions><gpxtpx:TrackPointExtension><gpxtpx:hr>155</gpxtpx:hr></gpxtpx:TrackPointExtension></extensions>
      </trkpt>
      <trkpt lat="59.335257367378" lon="18.025703175443">
        <ele>25.6</ele>
        <time>2018-12-15T08:33:48Z</time>
        <extensions><gpxtpx:TrackPointExtension><gpxtpx:hr>152</gpxtpx:hr></gpxtpx:TrackPointExtension></extensions>
      </trkpt>
      <trkpt lat="59.335277819214" lon="18.025898808989">
        <ele>25.6</ele>
        <time>2018-12-15T08:33:50Z</time>
        <extensions><gpxtpx:TrackPointExtension><gpxtpx:hr>149</gpxtpx:hr></gpxtpx:TrackPointExtension></extensions>
      </trkpt>
      <trkpt lat="59.335304473656" lon="18.026093939621">
        <ele>25.8</ele>
        <time>2018-12-15T08:33:52Z</time>
        <extensions><gpxtpx:TrackPointExtension><gpxtpx:hr>145</gpxtpx:hr></gpxtpx:TrackPointExtension></extensions>
      </trkpt>
      <trkpt lat="59.335370774485" lon="18.026204915977">
        <ele>25.8</ele>
        <time>2018-12-15T08:33:54Z</time>
        <extensions><gpxtpx:TrackPointExtension><gpxtpx:hr>142</gpxtpx:hr></gpxtpx:TrackPointExtension></extensions>
      </trkpt>
      <trkpt lat="59.335721473181" lon="18.0259548839">
        <ele>25.4</ele>
        <time>2018-12-15T08:34:00Z</time>
        <extensions><gpxtpx:TrackPointExtension><gpxtpx:hr>141</gpxtpx:hr></gpxtpx:TrackPointExtension></extensions>
      </trkpt>
      <trkpt lat="59.335862121463" lon="18.025794454334">
        <ele>25.4</ele>
        <time>2018-12-15T08:34:02Z</time>
        <extensions><gpxtpx:TrackPointExtension><gpxtpx:hr>144</gpxtpx:hr></gpxtpx:TrackPointExtension></extensions>
      </trkpt>
      <trkpt lat="59.336136041955" lon="18.02548046836">
        <ele>24.6</ele>
        <time>2018-12-15T08:34:06Z</time>
        <extensions><gpxtpx:TrackPointExtension><gpxtpx:hr>147</gpxtpx:hr></gpxtpx:TrackPointExtension></extensions>
      </trkpt>
      <trkpt lat="59.33626805688" lon="18.025326660495">
        <ele>23.6</ele>
        <time>2018-12-15T08:34:08Z</time>
        <extensions><gpxtpx:TrackPointExtension><gpxtpx:hr>147</gpxtpx:hr></gpxtpx:TrackPointExtension></extensions>
      </trkpt>
      <trkpt lat="59.336484561357" lon="18.025120801031">
        <ele>22.4</ele>
        <time>2018-12-15T08:34:11Z</time>
        <extensions><gpxtpx:TrackPointExtension><gpxtpx:hr>147</gpxtpx:hr></gpxtpx:TrackPointExtension></extensions>
      </trkpt>
      <trkpt lat="59.336908517859" lon="18.024639512333">
        <ele>21.2</ele>
        <time>2018-12-15T08:34:17Z</time>
        <extensions><gpxtpx:TrackPointExtension><gpxtpx:hr>146</gpxtpx:hr></gpxtpx:TrackPointExtension></extensions>
      </trkpt>
      <trkpt lat="59.337105241052" lon="18.024411608472">
        <ele>19.6</ele>
        <time>2018-12-15T08:34:20Z</time>
        <extensions><gpxtpx:TrackPointExtension><gpxtpx:hr>144</gpxtpx:hr></gpxtpx:TrackPointExtension></extensions>
      </trkpt>
      <trkpt lat="59.337169697863" lon="18.024337093381">
        <ele>18.6</ele>
        <time>2018-12-15T08:34:21Z</time>
        <extensions><gpxtpx:TrackPointExtension><gpxtpx:hr>143</gpxtpx:hr></gpxtpx:TrackPointExtension></extensions>
      </trkpt>
      <trkpt lat="59.337377904259" lon="18.024103070733">
        <ele>17.4</ele>
        <time>2018-12-15T08:34:24Z</time>
        <extensions><gpxtpx:TrackPointExtension><gpxtpx:hr>142</gpxtpx:hr></gpxtpx:TrackPointExtension></extensions>
      </trkpt>
      <trkpt lat="59.33788995453" lon="18.023489599472">
        <ele>16.4</ele>
        <time>2018-12-15T08:34:31Z</time>
        <extensions><gpxtpx:TrackPointExtension><gpxtpx:hr>143</gpxtpx:hr></gpxtpx:TrackPointExtension></extensions>
      </trkpt>
      <trkpt lat="59.338075362158" lon="18.023187599615">
        <ele>15.2</ele>
        <time>2018-12-15T08:34:34Z</time>
        <extensions><gpxtpx:TrackPointExtension><gpxtpx:hr>141</gpxtpx:hr></gpxtpx:TrackPointExtension></extensions>
      </trkpt>
      <trkpt lat="59.33829312392" lon="18.022723242355">
        <ele>14</ele>
        <time>2018-12-15T08:34:38Z</time>
        <extensions><gpxtpx:TrackPointExtension><gpxtpx:hr>138</gpxtpx:hr></gpxtpx:TrackPointExtension></extensions>
      </trkpt>
      <trkpt lat="59.338493116054" lon="18.022213790473">
        <ele>12.6</ele>
        <time>2018-12-15T08:34:42Z</time>
        <extensions><gpxtpx:TrackPointExtension><gpxtpx:hr>134</gpxtpx:hr></gpxtpx:TrackPointExtension></extensions>
      </trkpt>
      <trkpt lat="59.338561009444" lon="18.021917574127">
        <ele>12</ele>
        <time>2018-12-15T08:34:44Z</time>
        <extensions><gpxtpx:TrackPointExtension><gpxtpx:hr>130</gpxtpx:hr></gpxtpx:TrackPointExtension></extensions>
      </trkpt>
      <trkpt lat="59.338585400773" lon="18.02176058114">
        <ele>11.6</ele>
        <time>2018-12-15T08:34:45Z</time>
        <extensions><gpxtpx:TrackPointExtension><gpxtpx:hr>128</gpxtpx:hr></gpxtpx:TrackPointExtension></extensions>
      </trkpt>
      <trkpt lat="59.338617754907" lon="18.021435614877">
        <ele>10.2</ele>
        <time>2018-12-15T08:34:47Z</time>
        <extensions><gpxtpx:TrackPointExtension><gpxtpx:hr>124</gpxtpx:hr></gpxtpx:TrackPointExtension></extensions>
      </trkpt>
      <trkpt lat="59.338645918091" lon="18.02111098389">
        <ele>9</ele>
        <time>2018-12-15T08:34:49Z</time>
        <extensions><gpxtpx:TrackPointExtension><gpxtpx:hr>121</gpxtpx:hr></gpxtpx:TrackPointExtension></extensions>
      </trkpt>
      <trkpt lat="59.338675757655" lon="18.020804457807">
        <ele>7.8</ele>
        <time>2018-12-15T08:34:51Z</time>
        <extensions><gpxtpx:TrackPointExtension><gpxtpx:hr>119</gpxtpx:hr></gpxtpx:TrackPointExtension></extensions>
      </trkpt>
      <trkpt lat="59.33868288227" lon="18.020657774557">
        <ele>7.2</ele>
        <time>2018-12-15T08:34:52Z</time>
        <extensions><gpxtpx:TrackPointExtension><gpxtpx:hr>119</gpxtpx:hr></gpxtpx:TrackPointExtension></extensions>
      </trkpt>
      <trkpt lat="59.338669890325" lon="18.020224765603">
        <ele>6.6</ele>
        <time>2018-12-15T08:34:55Z</time>
        <extensions><gpxtpx:TrackPointExtension><gpxtpx:hr>123</gpxtpx:hr></gpxtpx:TrackPointExtension></extensions>
      </trkpt>
      <trkpt lat="59.338659161493" lon="18.020066766788">
        <ele>6.6</ele>
        <time>2018-12-15T08:34:56Z</time>
        <extensions><gpxtpx:TrackPointExtension><gpxtpx:hr>126</gpxtpx:hr></gpxtpx:TrackPointExtension></extensions>
      </trkpt>
      <trkpt lat="59.338651366326" lon="18.019732831892">
        <ele>5.8</ele>
        <time>2018-12-15T08:34:58Z</time>
        <extensions><gpxtpx:TrackPointExtension><gpxtpx:hr>132</gpxtpx:hr></gpxtpx:TrackPointExtension></extensions>
      </trkpt>
      <trkpt lat="59.338657149837" lon="18.019259338361">
        <ele>5.6</ele>
        <time>2018-12-15T08:35:01Z</time>
        <extensions><gpxtpx:TrackPointExtension><gpxtpx:hr>135</gpxtpx:hr></gpxtpx:TrackPointExtension></extensions>
      </trkpt>
      <trkpt lat="59.338671901981" lon="18.018975108132">
        <ele>5.4</ele>
        <time>2018-12-15T08:35:03Z</time>
        <extensions><gpxtpx:TrackPointExtension><gpxtpx:hr>138</gpxtpx:hr></gpxtpx:TrackPointExtension></extensions>
      </trkpt>
      <trkpt lat="59.338730240005" lon="18.018470769209">
        <ele>5.4</ele>
        <time>2018-12-15T08:35:07Z</time>
        <extensions><gpxtpx:TrackPointExtension><gpxtpx:hr>141</gpxtpx:hr></gpxtpx:TrackPointExtension></extensions>
      </trkpt>
      <trkpt lat="59.338812466444" lon="18.018174049949">
        <ele>5.8</ele>
        <time>2018-12-15T08:35:10Z</time>
        <extensions><gpxtpx:TrackPointExtension><gpxtpx:hr>144</gpxtpx:hr></gpxtpx:TrackPointExtension></extensions>
      </trkpt>
      <trkpt lat="59.33888656244" lon="18.017894513584">
        <ele>6.8</ele>
        <time>2018-12-15T08:35:13Z</time>
        <extensions><gpxtpx:TrackPointExtension><gpxtpx:hr>147</gpxtpx:hr></gpxtpx:TrackPointExtension></extensions>
      </trkpt>
      <trkpt lat="59.338931321786" lon="18.017714470372">
        <ele>8</ele>
        <time>2018-12-15T08:35:15Z</time>
        <extensions><gpxtpx:TrackPointExtension><gpxtpx:hr>149</gpxtpx:hr></gpxtpx:TrackPointExtension></extensions>
      </trkpt>
      <trkpt lat="59.338967196318" lon="18.017540965042">
        <ele>9</ele>
        <time>2018-12-15T08:35:17Z</time>
        <extensions><gpxtpx:TrackPointExtension><gpxtpx:hr>151</gpxtpx:hr></gpxtpx:TrackPointExtension></extensions>
      </trkpt>
      <trkpt lat="59.338980858815" lon="18.017452703635">
        <ele>9.4</ele>
        <time>2018-12-15T08:35:18Z</time>
        <extensions><gpxtpx:TrackPointExtension><gpxtpx:hr>152</gpxtpx:hr></gpxtpx:TrackPointExtension></extensions>
      </trkpt>
      <trkpt lat="59.339018325908" lon="18.017163192809">
        <ele>10.8</ele>
        <time>2018-12-15T08:35:21Z</time>
        <extensions><gpxtpx:TrackPointExtension><gpxtpx:hr>155</gpxtpx:hr></gpxtpx:TrackPointExtension></extensions>
      </trkpt>
      <trkpt lat="59.339053865164" lon="18.016839902926">
        <ele>12</ele>
        <time>2018-12-15T08:35:24Z</time>
        <extensions><gpxtpx:TrackPointExtension><gpxtpx:hr>158</gpxtpx:hr></gpxtpx:TrackPointExtension></extensions>
      </trkpt>
      <trkpt lat="59.339130894825" lon="18.016224755285">
        <ele>12.6</ele>
        <time>2018-12-15T08:35:29Z</time>
        <extensions><gpxtpx:TrackPointExtension><gpxtpx:hr>161</gpxtpx:hr></gpxtpx:TrackPointExtension></extensions>
      </trkpt>
      <trkpt lat="59.33930230468" lon="18.015782442422">
        <ele>12.6</ele>
        <time>2018-12-15T08:35:33Z</time>
        <extensions><gpxtpx:TrackPointExtension><gpxtpx:hr>162</gpxtpx:hr></gpxtpx:TrackPointExtension></extensions>
      </trkpt>
      <trkpt lat="59.339736738557" lon="18.015095126622">
        <ele>11</ele>
        <time>2018-12-15T08:35:40Z</time>
        <extensions><gpxtpx:TrackPointExtension><gpxtpx:hr>160</gpxtpx:hr></gpxtpx:TrackPointExtension></extensions>
      </trkpt>
      <trkpt lat="59.339802368834" lon="18.014980294592">
        <ele>10.8</ele>
        <time>2018-12-15T08:35:41Z</time>
        <extensions><gpxtpx:TrackPointExtension><gpxtpx:hr>159</gpxtpx:hr></gpxtpx:TrackPointExtension></extensions>
      </trkpt>
      <trkpt lat="59.339989369023" lon="18.014587770215">
        <ele>9.4</ele>
        <time>2018-12-15T08:35:44Z</time>
        <extensions><gpxtpx:TrackPointExtension><gpxtpx:hr>158</gpxtpx:hr></gpxtpx:TrackPointExtension></extensions>
      </trkpt>
      <trkpt lat="59.340087772529" lon="18.014294152258">
        <ele>8</ele>
        <time>2018-12-15T08:35:46Z</time>
        <extensions><gpxtpx:TrackPointExtension><gpxtpx:hr>157</gpxtpx:hr></gpxtpx:TrackPointExtension></extensions>
      </trkpt>
      <trkpt lat="59.340161197973" lon="18.014017549558">
        <ele>6.4</ele>
        <time>2018-12-15T08:35:48Z</time>
        <extensions><gpxtpx:TrackPointExtension><gpxtpx:hr>156</gpxtpx:hr></gpxtpx:TrackPointExtension></extensions>
      </trkpt>
      <trkpt lat="59.34027460508" lon="18.013401563727">
        <ele>5.6</ele>
        <time>2018-12-15T08:35:53Z</time>
        <extensions><gpxtpx:TrackPointExtension><gpxtpx:hr>153</gpxtpx:hr></gpxtpx:TrackPointExtension></extensions>
      </trkpt>
      <trkpt lat="59.340315424933" lon="18.013065114261">
        <ele>5.6</ele>
        <time>2018-12-15T08:35:56Z</time>
        <extensions><gpxtpx:TrackPointExtension><gpxtpx:hr>152</gpxtpx:hr></gpxtpx:TrackPointExtension></extensions>
      </trkpt>
      <trkpt lat="59.340576018204" lon="18.012957742122">
        <ele>7</ele>
        <time>2018-12-15T08:36:01Z</time>
        <extensions><gpxtpx:TrackPointExtension><gpxtpx:hr>152</gpxtpx:hr></gpxtpx:TrackPointExtension></extensions>
      </trkpt>
      <trkpt lat="59.340636284065" lon="18.012986156763">
        <ele>7.6</ele>
        <time>2018-12-15T08:36:02Z</time>
        <extensions><gpxtpx:TrackPointExtension><gpxtpx:hr>152</gpxtpx:hr></gpxtpx:TrackPointExtension></extensions>
      </trkpt>
      <trkpt lat="59.340814147983" lon="18.013068718478">
        <ele>8.8</ele>
        <time>2018-12-15T08:36:05Z</time>
        <extensions><gpxtpx:TrackPointExtension><gpxtpx:hr>152</gpxtpx:hr></gpxtpx:TrackPointExtension></extensions>
      </trkpt>
      <trkpt lat="59.340996454308" lon="18.013114567471">
        <ele>8.8</ele>
        <time>2018-12-15T08:36:08Z</time>
        <extensions><gpxtpx:TrackPointExtension><gpxtpx:hr>153</gpxtpx:hr></gpxtpx:TrackPointExtension></extensions>
      </trkpt>
      <trkpt lat="59.341251683163" lon="18.012447703507">
        <ele>8.8</ele>
        <time>2018-12-15T08:36:15Z</time>
        <extensions><gpxtpx:TrackPointExtension><gpxtpx:hr>155</gpxtpx:hr></gpxtpx:TrackPointExtension></extensions>
      </trkpt>
      <trkpt lat="59.341391744712" lon="18.011565508532">
        <ele>8.2</ele>
        <time>2018-12-15T08:36:21Z</time>
        <extensions><gpxtpx:TrackPointExtension><gpxtpx:hr>157</gpxtpx:hr></gpxtpx:TrackPointExtension></extensions>
      </trkpt>
      <trkpt lat="59.341587629715" lon="18.011035520995">
        <ele>7.8</ele>
        <time>2018-12-15T08:36:25Z</time>
        <extensions><gpxtpx:TrackPointExtension><gpxtpx:hr>158</gpxtpx:hr></gpxtpx:TrackPointExtension></extensions>
      </trkpt>
      <trkpt lat="59.341652421802" lon="18.010922030069">
        <ele>7.6</ele>
        <time>2018-12-15T08:36:26Z</time>
        <extensions><gpxtpx:TrackPointExtension><gpxtpx:hr>159</gpxtpx:hr></gpxtpx:TrackPointExtension></extensions>
      </trkpt>
      <trkpt lat="59.341873201048" lon="18.010642074609">
        <ele>7</ele>
        <time>2018-12-15T08:36:29Z</time>
        <extensions><gpxtpx:TrackPointExtension><gpxtpx:hr>160</gpxtpx:hr></gpxtpx:TrackPointExtension></extensions>
      </trkpt>
      <trkpt lat="59.34218819285" lon="18.010387851582">
        <ele>6.4</ele>
        <time>2018-12-15T08:36:33Z</time>
        <extensions><gpxtpx:TrackPointExtension><gpxtpx:hr>161</gpxtpx:hr></gpxtpx:TrackPointExtension></extensions>
      </trkpt>
      <trkpt lat="59.342771321633" lon="18.010088198657">
        <ele>6.2</ele>
        <time>2018-12-15T08:36:41Z</time>
        <extensions><gpxtpx:TrackPointExtension><gpxtpx:hr>162</gpxtpx:hr></gpxtpx:TrackPointExtension></extensions>
      </trkpt>
      <trkpt lat="59.34290987444" lon="18.010043690768">
        <ele>6.2</ele>
        <time>2018-12-15T08:36:43Z</time>
        <extensions><gpxtpx:TrackPointExtension><gpxtpx:hr>161</gpxtpx:hr></gpxtpx:TrackPointExtension></extensions>
      </trkpt>
      <trkpt lat="59.343044320116" lon="18.00997982069">
        <ele>6.2</ele>
        <time>2018-12-15T08:36:45Z</time>
        <extensions><gpxtpx:TrackPointExtension><gpxtpx:hr>161</gpxtpx:hr></gpxtpx:TrackPointExtension></extensions>
      </trkpt>
      <trkpt lat="59.34345302156" lon="18.009406750187">
        <ele>6.4</ele>
        <time>2018-12-15T08:36:52Z</time>
        <extensions><gpxtpx:TrackPointExtension><gpxtpx:hr>160</gpxtpx:hr></gpxtpx:TrackPointExtension></extensions>
      </trkpt>
      <trkpt lat="59.343850826534" lon="18.008655396671">
        <ele>5</ele>
        <time>2018-12-15T08:36:59Z</time>
        <extensions><gpxtpx:TrackPointExtension><gpxtpx:hr>158</gpxtpx:hr></gpxtpx:TrackPointExtension></extensions>
      </trkpt>
      <trkpt lat="59.343975633025" lon="18.008465965731">
        <ele>3.4</ele>
        <time>2018-12-15T08:37:01Z</time>
        <extensions><gpxtpx:TrackPointExtension><gpxtpx:hr>157</gpxtpx:hr></gpxtpx:TrackPointExtension></extensions>
      </trkpt>
      <trkpt lat="59.344498663585" lon="18.007878729817">
        <ele>2.6</ele>
        <time>2018-12-15T08:37:09Z</time>
        <extensions><gpxtpx:TrackPointExtension><gpxtpx:hr>154</gpxtpx:hr></gpxtpx:TrackPointExtension></extensions>
      </trkpt>
      <trkpt lat="59.344851290118" lon="18.007662309159">
        <ele>2.6</ele>
        <time>2018-12-15T08:37:15Z</time>
        <extensions><gpxtpx:TrackPointExtension><gpxtpx:hr>153</gpxtpx:hr></gpxtpx:TrackPointExtension></extensions>
      </trkpt>
      <trkpt lat="59.34503887704" lon="18.007520738868">
        <ele>3</ele>
        <time>2018-12-15T08:37:19Z</time>
        <extensions><gpxtpx:TrackPointExtension><gpxtpx:hr>152</gpxtpx:hr></gpxtpx:TrackPointExtension></extensions>
      </trkpt>
      <trkpt lat="59.345083804024" lon="18.00748201449">
        <ele>3.6</ele>
        <time>2018-12-15T08:37:20Z</time>
        <extensions><gpxtpx:TrackPointExtension><gpxtpx:hr>151</gpxtpx:hr></gpxtpx:TrackPointExtension></extensions>
      </trkpt>
      <trkpt lat="59.345187907222" lon="18.007506489638">
        <ele>4.6</ele>
        <time>2018-12-15T08:37:22Z</time>
        <extensions><gpxtpx:TrackPointExtension><gpxtpx:hr>151</gpxtpx:hr></gpxtpx:TrackPointExtension></extensions>
      </trkpt>
      <trkpt lat="59.345301146691" lon="18.007604474049">
        <ele>5</ele>
        <time>2018-12-15T08:37:24Z</time>
        <extensions><gpxtpx:TrackPointExtension><gpxtpx:hr>152</gpxtpx:hr></gpxtpx:TrackPointExtension></extensions>
      </trkpt>
      <trkpt lat="59.345659053821" lon="18.007901025671">
        <ele>5.2</ele>
        <time>2018-12-15T08:37:30Z</time>
        <extensions><gpxtpx:TrackPointExtension><gpxtpx:hr>155</gpxtpx:hr></gpxtpx:TrackPointExtension></extensions>
      </trkpt>
      <trkpt lat="59.345968597388" lon="18.008137227613">
        <ele>4.8</ele>
        <time>2018-12-15T08:37:35Z</time>
        <extensions><gpxtpx:TrackPointExtension><gpxtpx:hr>158</gpxtpx:hr></gpxtpx:TrackPointExtension></extensions>
      </trkpt>
      <trkpt lat="59.346379561945" lon="18.008470408138">
        <ele>4.8</ele>
        <time>2018-12-15T08:37:42Z</time>
        <extensions><gpxtpx:TrackPointExtension><gpxtpx:hr>161</gpxtpx:hr></gpxtpx:TrackPointExtension></extensions>
      </trkpt>
      <trkpt lat="59.346769152657" lon="18.008765534837">
        <ele>5.6</ele>
        <time>2018-12-15T08:37:49Z</time>
        <extensions><gpxtpx:TrackPointExtension><gpxtpx:hr>163</gpxtpx:hr></gpxtpx:TrackPointExtension></extensions>
      </trkpt>
      <trkpt lat="59.347048940479" lon="18.008987739006">
        <ele>6.6</ele>
        <time>2018-12-15T08:37:54Z</time>
        <extensions><gpxtpx:TrackPointExtension><gpxtpx:hr>162</gpxtpx:hr></gpxtpx:TrackPointExtension></extensions>
      </trkpt>
      <trkpt lat="59.347384300298" lon="18.009246069164">
        <ele>7.2</ele>
        <time>2018-12-15T08:38:00Z</time>
        <extensions><gpxtpx:TrackPointExtension><gpxtpx:hr>163</gpxtpx:hr></gpxtpx:TrackPointExtension></extensions>
      </trkpt>
      <trkpt lat="59.347614718729" lon="18.009307927586">
        <ele>7.6</ele>
        <time>2018-12-15T08:38:04Z</time>
        <extensions><gpxtpx:TrackPointExtension><gpxtpx:hr>164</gpxtpx:hr></gpxtpx:TrackPointExtension></extensions>
      </trkpt>
      <trkpt lat="59.347675571323" lon="18.009302730808">
        <ele>7.8</ele>
        <time>2018-12-15T08:38:05Z</time>
        <extensions><gpxtpx:TrackPointExtension><gpxtpx:hr>164</gpxtpx:hr></gpxtpx:TrackPointExtension></extensions>
      </trkpt>
      <trkpt lat="59.347971536212" lon="18.009197957058">
        <ele>8.4</ele>
        <time>2018-12-15T08:38:10Z</time>
        <extensions><gpxtpx:TrackPointExtension><gpxtpx:hr>166</gpxtpx:hr></gpxtpx:TrackPointExtension></extensions>
      </trkpt>
      <trkpt lat="59.348083937491" lon="18.009109360375">
        <ele>8.8</ele>
        <time>2018-12-15T08:38:12Z</time>
        <extensions><gpxtpx:TrackPointExtension><gpxtpx:hr>166</gpxtpx:hr></gpxtpx:TrackPointExtension></extensions>
      </trkpt>
      <trkpt lat="59.348230453103" lon="18.008940800366">
        <ele>9</ele>
        <time>2018-12-15T08:38:15Z</time>
        <extensions><gpxtpx:TrackPointExtension><gpxtpx:hr>167</gpxtpx:hr></gpxtpx:TrackPointExtension></extensions>
      </trkpt>
      <trkpt lat="59.348420303138" lon="18.008577696458">
        <ele>9.8</ele>
        <time>2018-12-15T08:38:20Z</time>
        <extensions><gpxtpx:TrackPointExtension><gpxtpx:hr>167</gpxtpx:hr></gpxtpx:TrackPointExtension></extensions>
      </trkpt>
      <trkpt lat="59.348619289444" lon="18.008571074757">
        <ele>11</ele>
        <time>2018-12-15T08:38:24Z</time>
        <extensions><gpxtpx:TrackPointExtension><gpxtpx:hr>166</gpxtpx:hr></gpxtpx:TrackPointExtension></extensions>
      </trkpt>
      <trkpt lat="59.348679471486" lon="18.008620444148">
        <ele>11.2</ele>
        <time>2018-12-15T08:38:25Z</time>
        <extensions><gpxtpx:TrackPointExtension><gpxtpx:hr>166</gpxtpx:hr></gpxtpx:TrackPointExtension></extensions>
      </trkpt>
      <trkpt lat="59.348729679067" lon="18.008686828796">
        <ele>11.2</ele>
        <time>2018-12-15T08:38:26Z</time>
        <extensions><gpxtpx:TrackPointExtension><gpxtpx:hr>167</gpxtpx:hr></gpxtpx:TrackPointExtension></extensions>
      </trkpt>
      <trkpt lat="59.348849707875" lon="18.009157723938">
        <ele>11.8</ele>
        <time>2018-12-15T08:38:31Z</time>
        <extensions><gpxtpx:TrackPointExtension><gpxtpx:hr>165</gpxtpx:hr></gpxtpx:TrackPointExtension></extensions>
      </trkpt>
      <trkpt lat="59.348891282099" lon="18.00995970413">
        <ele>13.2</ele>
        <time>2018-12-15T08:38:39Z</time>
        <extensions><gpxtpx:TrackPointExtension><gpxtpx:hr>163</gpxtpx:hr></gpxtpx:TrackPointExtension></extensions>
      </trkpt>
      <trkpt lat="59.348912907401" lon="18.010055006333">
        <ele>13.8</ele>
        <time>2018-12-15T08:38:40Z</time>
        <extensions><gpxtpx:TrackPointExtension><gpxtpx:hr>162</gpxtpx:hr></gpxtpx:TrackPointExtension></extensions>
      </trkpt>
      <trkpt lat="59.348948530476" lon="18.010237815572">
        <ele>14.4</ele>
        <time>2018-12-15T08:38:42Z</time>
        <extensions><gpxtpx:TrackPointExtension><gpxtpx:hr>162</gpxtpx:hr></gpxtpx:TrackPointExtension></extensions>
      </trkpt>
      <trkpt lat="59.348980968429" lon="18.010498325024">
        <ele>14.8</ele>
        <time>2018-12-15T08:38:45Z</time>
        <extensions><gpxtpx:TrackPointExtension><gpxtpx:hr>161</gpxtpx:hr></gpxtpx:TrackPointExtension></extensions>
      </trkpt>
      <trkpt lat="59.348934029789" lon="18.010792529714">
        <ele>15.2</ele>
        <time>2018-12-15T08:38:48Z</time>
        <extensions><gpxtpx:TrackPointExtension><gpxtpx:hr>158</gpxtpx:hr></gpxtpx:TrackPointExtension></extensions>
      </trkpt>
      <trkpt lat="59.348916008704" lon="18.010893196333">
        <ele>15.2</ele>
        <time>2018-12-15T08:38:49Z</time>
        <extensions><gpxtpx:TrackPointExtension><gpxtpx:hr>158</gpxtpx:hr></gpxtpx:TrackPointExtension></extensions>
      </trkpt>
      <trkpt lat="59.349151707732" lon="18.011309273849">
        <ele>14.8</ele>
        <time>2018-12-15T08:38:56Z</time>
        <extensions><gpxtpx:TrackPointExtension><gpxtpx:hr>156</gpxtpx:hr></gpxtpx:TrackPointExtension></extensions>
      </trkpt>
      <trkpt lat="59.349259666604" lon="18.01138630351">
        <ele>14.6</ele>
        <time>2018-12-15T08:38:58Z</time>
        <extensions><gpxtpx:TrackPointExtension><gpxtpx:hr>156</gpxtpx:hr></gpxtpx:TrackPointExtension></extensions>
      </trkpt>
      <trkpt lat="59.349593852957" lon="18.011994494174">
        <ele>14.4</ele>
        <time>2018-12-15T08:39:06Z</time>
        <extensions><gpxtpx:TrackPointExtension><gpxtpx:hr>159</gpxtpx:hr></gpxtpx:TrackPointExtension></extensions>
      </trkpt>
      <trkpt lat="59.34995989053" lon="18.012291297253">
        <ele>15.6</ele>
        <time>2018-12-15T08:39:13Z</time>
        <extensions><gpxtpx:TrackPointExtension><gpxtpx:hr>160</gpxtpx:hr></gpxtpx:TrackPointExtension></extensions>
      </trkpt>
      <trkpt lat="59.350064412823" lon="18.012318873704">
        <ele>15.8</ele>
        <time>2018-12-15T08:39:15Z</time>
        <extensions><gpxtpx:TrackPointExtension><gpxtpx:hr>160</gpxtpx:hr></gpxtpx:TrackPointExtension></extensions>
      </trkpt>
      <trkpt lat="59.350320228411" lon="18.012286854846">
        <ele>16.6</ele>
        <time>2018-12-15T08:39:20Z</time>
        <extensions><gpxtpx:TrackPointExtension><gpxtpx:hr>161</gpxtpx:hr></gpxtpx:TrackPointExtension></extensions>
      </trkpt>
      <trkpt lat="59.350466324928" lon="18.012210831013">
        <ele>17.4</ele>
        <time>2018-12-15T08:39:23Z</time>
        <extensions><gpxtpx:TrackPointExtension><gpxtpx:hr>162</gpxtpx:hr></gpxtpx:TrackPointExtension></extensions>
      </trkpt>
      <trkpt lat="59.350513682663" lon="18.01217168754">
        <ele>18</ele>
        <time>2018-12-15T08:39:24Z</time>
        <extensions><gpxtpx:TrackPointExtension><gpxtpx:hr>162</gpxtpx:hr></gpxtpx:TrackPointExtension></extensions>
      </trkpt>
      <trkpt lat="59.350704622345" lon="18.012004133359">
        <ele>19.4</ele>
        <time>2018-12-15T08:39:28Z</time>
        <extensions><gpxtpx:TrackPointExtension><gpxtpx:hr>163</gpxtpx:hr></gpxtpx:TrackPointExtension></extensions>
      </trkpt>
      <trkpt lat="59.350890616706" lon="18.011848900571">
        <ele>20.6</ele>
        <time>2018-12-15T08:39:32Z</time>
        <extensions><gpxtpx:TrackPointExtension><gpxtpx:hr>164</gpxtpx:hr></gpxtpx:TrackPointExtension></extensions>
      </trkpt>
      <trkpt lat="59.351040149802" lon="18.011729207039">
        <ele>21.4</ele>
        <time>2018-12-15T08:39:35Z</time>
        <extensions><gpxtpx:TrackPointExtension><gpxtpx:hr>164</gpxtpx:hr></gpxtpx:TrackPointExtension></extensions>
      </trkpt>
      <trkpt lat="59.351085412062" lon="18.011670198463">
        <ele>21.6</ele>
        <time>2018-12-15T08:39:36Z</time>
        <extensions><gpxtpx:TrackPointExtension><gpxtpx:hr>164</gpxtpx:hr></gpxtpx:TrackPointExtension></extensions>
      </trkpt>
      <trkpt lat="59.351256067546" lon="18.011412706495">
        <ele>22.6</ele>
        <time>2018-12-15T08:39:40Z</time>
        <extensions><gpxtpx:TrackPointExtension><gpxtpx:hr>164</gpxtpx:hr></gpxtpx:TrackPointExtension></extensions>
      </trkpt>
      <trkpt lat="59.351539291947" lon="18.011259401544">
        <ele>22.8</ele>
        <time>2018-12-15T08:39:45Z</time>
        <extensions><gpxtpx:TrackPointExtension><gpxtpx:hr>164</gpxtpx:hr></gpxtpx:TrackPointExtension></extensions>
      </trkpt>
      <trkpt lat="59.351601150369" lon="18.011250349092">
        <ele>22.8</ele>
        <time>2018-12-15T08:39:46Z</time>
        <extensions><gpxtpx:TrackPointExtension><gpxtpx:hr>164</gpxtpx:hr></gpxtpx:TrackPointExtension></extensions>
      </trkpt>
      <trkpt lat="59.35219785783" lon="18.011308938573">
        <ele>22</ele>
        <time>2018-12-15T08:39:55Z</time>
        <extensions><gpxtpx:TrackPointExtension><gpxtpx:hr>162</gpxtpx:hr></gpxtpx:TrackPointExtension></extensions>
      </trkpt>
      <trkpt lat="59.352534558753" lon="18.011381358189">
        <ele>21.6</ele>
        <time>2018-12-15T08:40:00Z</time>
        <extensions><gpxtpx:TrackPointExtension><gpxtpx:hr>160</gpxtpx:hr></gpxtpx:TrackPointExtension></extensions>
      </trkpt>
      <trkpt lat="59.352729437928" lon="18.011438355109">
        <ele>21</ele>
        <time>2018-12-15T08:40:03Z</time>
        <extensions><gpxtpx:TrackPointExtension><gpxtpx:hr>157</gpxtpx:hr></gpxtpx:TrackPointExtension></extensions>
      </trkpt>
      <trkpt lat="59.353035125821" lon="18.01151035563">
        <ele>20.8</ele>
        <time>2018-12-15T08:40:08Z</time>
        <extensions><gpxtpx:TrackPointExtension><gpxtpx:hr>154</gpxtpx:hr></gpxtpx:TrackPointExtension></extensions>
      </trkpt>
      <trkpt lat="59.353264286967" lon="18.011550337293">
        <ele>20.8</ele>
        <time>2018-12-15T08:40:12Z</time>
        <extensions><gpxtpx:TrackPointExtension><gpxtpx:hr>153</gpxtpx:hr></gpxtpx:TrackPointExtension></extensions>
      </trkpt>
      <trkpt lat="59.353443324351" lon="18.011219168424">
        <ele>21</ele>
        <time>2018-12-15T08:40:17Z</time>
        <extensions><gpxtpx:TrackPointExtension><gpxtpx:hr>152</gpxtpx:hr></gpxtpx:TrackPointExtension></extensions>
      </trkpt>
      <trkpt lat="59.353477354865" lon="18.011020182118">
        <ele>21.6</ele>
        <time>2018-12-15T08:40:20Z</time>
        <extensions><gpxtpx:TrackPointExtension><gpxtpx:hr>149</gpxtpx:hr></gpxtpx:TrackPointExtension></extensions>
      </trkpt>
      <trkpt lat="59.353488586611" lon="18.010986905975">
        <ele>21.8</ele>
        <time>2018-12-15T08:40:21Z</time>
        <extensions><gpxtpx:TrackPointExtension><gpxtpx:hr>148</gpxtpx:hr></gpxtpx:TrackPointExtension></extensions>
      </trkpt>
      <trkpt lat="59.353588666497" lon="18.011117412158">
        <ele>22.4</ele>
        <time>2018-12-15T08:40:25Z</time>
        <extensions><gpxtpx:TrackPointExtension><gpxtpx:hr>146</gpxtpx:hr></gpxtpx:TrackPointExtension></extensions>
      </trkpt>
      <trkpt lat="59.353624624848" lon="18.011192513982">
        <ele>22.6</ele>
        <time>2018-12-15T08:40:26Z</time>
        <extensions><gpxtpx:TrackPointExtension><gpxtpx:hr>145</gpxtpx:hr></gpxtpx:TrackPointExtension></extensions>
      </trkpt>
      <trkpt lat="59.353761501275" lon="18.01151706115">
        <ele>22.6</ele>
        <time>2018-12-15T08:40:30Z</time>
        <extensions><gpxtpx:TrackPointExtension><gpxtpx:hr>144</gpxtpx:hr></gpxtpx:TrackPointExtension></extensions>
      </trkpt>
      <trkpt lat="59.353720346146" lon="18.011979322935">
        <ele>22.6</ele>
        <time>2018-12-15T08:40:35Z</time>
        <extensions><gpxtpx:TrackPointExtension><gpxtpx:hr>140</gpxtpx:hr></gpxtpx:TrackPointExtension></extensions>
      </trkpt>
      <trkpt lat="59.35369151241" lon="18.012167077495">
        <ele>22.2</ele>
        <time>2018-12-15T08:40:37Z</time>
        <extensions><gpxtpx:TrackPointExtension><gpxtpx:hr>137</gpxtpx:hr></gpxtpx:TrackPointExtension></extensions>
      </trkpt>
      <trkpt lat="59.353793184857" lon="18.01245248119">
        <ele>21.8</ele>
        <time>2018-12-15T08:40:40Z</time>
        <extensions><gpxtpx:TrackPointExtension><gpxtpx:hr>138</gpxtpx:hr></gpxtpx:TrackPointExtension></extensions>
      </trkpt>
      <trkpt lat="59.353892929467" lon="18.012636380076">
        <ele>21.4</ele>
        <time>2018-12-15T08:40:42Z</time>
        <extensions><gpxtpx:TrackPointExtension><gpxtpx:hr>136</gpxtpx:hr></gpxtpx:TrackPointExtension></extensions>
      </trkpt>
      <trkpt lat="59.354092670144" lon="18.012711900995">
        <ele>20.6</ele>
        <time>2018-12-15T08:40:45Z</time>
        <extensions><gpxtpx:TrackPointExtension><gpxtpx:hr>133</gpxtpx:hr></gpxtpx:TrackPointExtension></extensions>
      </trkpt>
      <trkpt lat="59.354158048964" lon="18.012692874082">
        <ele>20.2</ele>
        <time>2018-12-15T08:40:46Z</time>
        <extensions><gpxtpx:TrackPointExtension><gpxtpx:hr>131</gpxtpx:hr></gpxtpx:TrackPointExtension></extensions>
      </trkpt>
      <trkpt lat="59.354213956237" lon="18.012695891566">
        <ele>19.6</ele>
        <time>2018-12-15T08:40:47Z</time>
        <extensions><gpxtpx:TrackPointExtension><gpxtpx:hr>128</gpxtpx:hr></gpxtpx:TrackPointExtension></extensions>
      </trkpt>
      <trkpt lat="59.354260978696" lon="18.012728413338">
        <ele>18.8</ele>
        <time>2018-12-15T08:40:48Z</time>
        <extensions><gpxtpx:TrackPointExtension><gpxtpx:hr>127</gpxtpx:hr></gpxtpx:TrackPointExtension></extensions>
      </trkpt>
      <trkpt lat="59.354341361117" lon="18.012836120753">
        <ele>16.6</ele>
        <time>2018-12-15T08:40:50Z</time>
        <extensions><gpxtpx:TrackPointExtension><gpxtpx:hr>126</gpxtpx:hr></gpxtpx:TrackPointExtension></extensions>
      </trkpt>
      <trkpt lat="59.35460681589" lon="18.012855985856">
        <ele>15.4</ele>
        <time>2018-12-15T08:40:55Z</time>
        <extensions><gpxtpx:TrackPointExtension><gpxtpx:hr>125</gpxtpx:hr></gpxtpx:TrackPointExtension></extensions>
      </trkpt>
      <trkpt lat="59.354668758131" lon="18.012812986709">
        <ele>15.4</ele>
        <time>2018-12-15T08:40:56Z</time>
        <extensions><gpxtpx:TrackPointExtension><gpxtpx:hr>124</gpxtpx:hr></gpxtpx:TrackPointExtension></extensions>
      </trkpt>
      <trkpt lat="59.354873527948" lon="18.01267376335">
        <ele>15</ele>
        <time>2018-12-15T08:40:59Z</time>
        <extensions><gpxtpx:TrackPointExtension><gpxtpx:hr>121</gpxtpx:hr></gpxtpx:TrackPointExtension></extensions>
      </trkpt>
      <trkpt lat="59.354948210677" lon="18.012627076167">
        <ele>14.4</ele>
        <time>2018-12-15T08:41:00Z</time>
        <extensions><gpxtpx:TrackPointExtension><gpxtpx:hr>122</gpxtpx:hr></gpxtpx:TrackPointExtension></extensions>
      </trkpt>
      <trkpt lat="59.355102437637" lon="18.012553985999">
        <ele>13</ele>
        <time>2018-12-15T08:41:02Z</time>
        <extensions><gpxtpx:TrackPointExtension><gpxtpx:hr>125</gpxtpx:hr></gpxtpx:TrackPointExtension></extensions>
      </trkpt>
      <trkpt lat="59.355239230245" lon="18.012475028501">
        <ele>12</ele>
        <time>2018-12-15T08:41:04Z</time>
        <extensions><gpxtpx:TrackPointExtension><gpxtpx:hr>125</gpxtpx:hr></gpxtpx:TrackPointExtension></extensions>
      </trkpt>
      <trkpt lat="59.355295137518" lon="18.012401770695">
        <ele>11.8</ele>
        <time>2018-12-15T08:41:05Z</time>
        <extensions><gpxtpx:TrackPointExtension><gpxtpx:hr>125</gpxtpx:hr></gpxtpx:TrackPointExtension></extensions>
      </trkpt>
      <trkpt lat="59.35539890544" lon="18.012068757808">
        <ele>11.2</ele>
        <time>2018-12-15T08:41:08Z</time>
        <extensions><gpxtpx:TrackPointExtension><gpxtpx:hr>126</gpxtpx:hr></gpxtpx:TrackPointExtension></extensions>
      </trkpt>
      <trkpt lat="59.355431259574" lon="18.011949483371">
        <ele>11</ele>
        <time>2018-12-15T08:41:09Z</time>
        <extensions><gpxtpx:TrackPointExtension><gpxtpx:hr>126</gpxtpx:hr></gpxtpx:TrackPointExtension></extensions>
      </trkpt>
      <trkpt lat="59.355523376655" lon="18.011710263945">
        <ele>11</ele>
        <time>2018-12-15T08:41:11Z</time>
        <extensions><gpxtpx:TrackPointExtension><gpxtpx:hr>129</gpxtpx:hr></gpxtpx:TrackPointExtension></extensions>
      </trkpt>
      <trkpt lat="59.3556453333" lon="18.011477247125">
        <ele>10.8</ele>
        <time>2018-12-15T08:41:13Z</time>
        <extensions><gpxtpx:TrackPointExtension><gpxtpx:hr>132</gpxtpx:hr></gpxtpx:TrackPointExtension></extensions>
      </trkpt>
      <trkpt lat="59.355772486723" lon="18.011255042956">
        <ele>10.4</ele>
        <time>2018-12-15T08:41:15Z</time>
        <extensions><gpxtpx:TrackPointExtension><gpxtpx:hr>135</gpxtpx:hr></gpxtpx:TrackPointExtension></extensions>
      </trkpt>
      <trkpt lat="59.355884385088" lon="18.011034347529">
        <ele>10.2</ele>
        <time>2018-12-15T08:41:17Z</time>
        <extensions><gpxtpx:TrackPointExtension><gpxtpx:hr>138</gpxtpx:hr></gpxtpx:TrackPointExtension></extensions>
      </trkpt>
      <trkpt lat="59.3559973731" lon="18.010822872192">
        <ele>9.2</ele>
        <time>2018-12-15T08:41:19Z</time>
        <extensions><gpxtpx:TrackPointExtension><gpxtpx:hr>141</gpxtpx:hr></gpxtpx:TrackPointExtension></extensions>
      </trkpt>
      <trkpt lat="59.356161909797" lon="18.010521123792">
        <ele>8.8</ele>
        <time>2018-12-15T08:41:22Z</time>
        <extensions><gpxtpx:TrackPointExtension><gpxtpx:hr>144</gpxtpx:hr></gpxtpx:TrackPointExtension></extensions>
      </trkpt>
      <trkpt lat="59.356315382386" lon="18.010221889962">
        <ele>8.8</ele>
        <time>2018-12-15T08:41:25Z</time>
        <extensions><gpxtpx:TrackPointExtension><gpxtpx:hr>146</gpxtpx:hr></gpxtpx:TrackPointExtension></extensions>
      </trkpt>
      <trkpt lat="59.356657447725" lon="18.009379509012">
        <ele>9.6</ele>
        <time>2018-12-15T08:41:33Z</time>
        <extensions><gpxtpx:TrackPointExtension><gpxtpx:hr>148</gpxtpx:hr></gpxtpx:TrackPointExtension></extensions>
      </trkpt>
      <trkpt lat="59.357038321261" lon="18.00860183633">
        <ele>9.8</ele>
        <time>2018-12-15T08:41:41Z</time>
        <extensions><gpxtpx:TrackPointExtension><gpxtpx:hr>149</gpxtpx:hr></gpxtpx:TrackPointExtension></extensions>
      </trkpt>
      <trkpt lat="59.35746672017" lon="18.007791725695">
        <ele>9.4</ele>
        <time>2018-12-15T08:41:49Z</time>
        <extensions><gpxtpx:TrackPointExtension><gpxtpx:hr>152</gpxtpx:hr></gpxtpx:TrackPointExtension></extensions>
      </trkpt>
      <trkpt lat="59.357673585462" lon="18.007347484995">
        <ele>8.2</ele>
        <time>2018-12-15T08:41:53Z</time>
        <extensions><gpxtpx:TrackPointExtension><gpxtpx:hr>155</gpxtpx:hr></gpxtpx:TrackPointExtension></extensions>
      </trkpt>
      <trkpt lat="59.357726642889" lon="18.007237095372">
        <ele>7.8</ele>
        <time>2018-12-15T08:41:54Z</time>
        <extensions><gpxtpx:TrackPointExtension><gpxtpx:hr>155</gpxtpx:hr></gpxtpx:TrackPointExtension></extensions>
      </trkpt>
      <trkpt lat="59.358072228626" lon="18.006448023306">
        <ele>6.8</ele>
        <time>2018-12-15T08:42:01Z</time>
        <extensions><gpxtpx:TrackPointExtension><gpxtpx:hr>158</gpxtpx:hr></gpxtpx:TrackPointExtension></extensions>
      </trkpt>
      <trkpt lat="59.358446648099" lon="18.005581753941">
        <ele>6.8</ele>
        <time>2018-12-15T08:42:09Z</time>
        <extensions><gpxtpx:TrackPointExtension><gpxtpx:hr>158</gpxtpx:hr></gpxtpx:TrackPointExtension></extensions>
      </trkpt>
      <trkpt lat="59.358646724052" lon="18.005051431128">
        <ele>7.4</ele>
        <time>2018-12-15T08:42:14Z</time>
        <extensions><gpxtpx:TrackPointExtension><gpxtpx:hr>159</gpxtpx:hr></gpxtpx:TrackPointExtension></extensions>
      </trkpt>
      <trkpt lat="59.358743367359" lon="18.004864514758">
        <ele>7.8</ele>
        <time>2018-12-15T08:42:16Z</time>
        <extensions><gpxtpx:TrackPointExtension><gpxtpx:hr>159</gpxtpx:hr></gpxtpx:TrackPointExtension></extensions>
      </trkpt>
      <trkpt lat="59.359177130684" lon="18.004058259797">
        <ele>8.2</ele>
        <time>2018-12-15T08:42:25Z</time>
        <extensions><gpxtpx:TrackPointExtension><gpxtpx:hr>159</gpxtpx:hr></gpxtpx:TrackPointExtension></extensions>
      </trkpt>
      <trkpt lat="59.359561440799" lon="18.003308750299">
        <ele>8.2</ele>
        <time>2018-12-15T08:42:33Z</time>
        <extensions><gpxtpx:TrackPointExtension><gpxtpx:hr>160</gpxtpx:hr></gpxtpx:TrackPointExtension></extensions>
      </trkpt>
      <trkpt lat="59.359981709265" lon="18.002493861981">
        <ele>8.2</ele>
        <time>2018-12-15T08:42:42Z</time>
        <extensions><gpxtpx:TrackPointExtension><gpxtpx:hr>160</gpxtpx:hr></gpxtpx:TrackPointExtension></extensions>
      </trkpt>
      <trkpt lat="59.360238279224" lon="18.001993797827">
        <ele>8.6</ele>
        <time>2018-12-15T08:42:48Z</time>
        <extensions><gpxtpx:TrackPointExtension><gpxtpx:hr>159</gpxtpx:hr></gpxtpx:TrackPointExtension></extensions>
      </trkpt>
      <trkpt lat="59.360584451694" lon="18.001362640757">
        <ele>9.6</ele>
        <time>2018-12-15T08:42:56Z</time>
        <extensions><gpxtpx:TrackPointExtension><gpxtpx:hr>159</gpxtpx:hr></gpxtpx:TrackPointExtension></extensions>
      </trkpt>
      <trkpt lat="59.360986782894" lon="18.00054683043">
        <ele>9.8</ele>
        <time>2018-12-15T08:43:05Z</time>
        <extensions><gpxtpx:TrackPointExtension><gpxtpx:hr>156</gpxtpx:hr></gpxtpx:TrackPointExtension></extensions>
      </trkpt>
      <trkpt lat="59.361152325419" lon="18.000209626593">
        <ele>9.8</ele>
        <time>2018-12-15T08:43:09Z</time>
        <extensions><gpxtpx:TrackPointExtension><gpxtpx:hr>153</gpxtpx:hr></gpxtpx:TrackPointExtension></extensions>
      </trkpt>
      <trkpt lat="59.361265564888" lon="18.000007287527">
        <ele>9.4</ele>
        <time>2018-12-15T08:43:12Z</time>
        <extensions><gpxtpx:TrackPointExtension><gpxtpx:hr>149</gpxtpx:hr></gpxtpx:TrackPointExtension></extensions>
      </trkpt>
      <trkpt lat="59.361299176307" lon="17.999953475729">
        <ele>9.2</ele>
        <time>2018-12-15T08:43:13Z</time>
        <extensions><gpxtpx:TrackPointExtension><gpxtpx:hr>147</gpxtpx:hr></gpxtpx:TrackPointExtension></extensions>
      </trkpt>
      <trkpt lat="59.361414008337" lon="17.999936125196">
        <ele>9</ele>
        <time>2018-12-15T08:43:16Z</time>
        <extensions><gpxtpx:TrackPointExtension><gpxtpx:hr>144</gpxtpx:hr></gpxtpx:TrackPointExtension></extensions>
      </trkpt>
      <trkpt lat="59.361506460694" lon="18.000219433416">
        <ele>8.6</ele>
        <time>2018-12-15T08:43:20Z</time>
        <extensions><gpxtpx:TrackPointExtension><gpxtpx:hr>143</gpxtpx:hr></gpxtpx:TrackPointExtension></extensions>
      </trkpt>
      <trkpt lat="59.361518698268" lon="18.000358405318">
        <ele>8.6</ele>
        <time>2018-12-15T08:43:21Z</time>
        <extensions><gpxtpx:TrackPointExtension><gpxtpx:hr>143</gpxtpx:hr></gpxtpx:TrackPointExtension></extensions>
      </trkpt>
      <trkpt lat="59.361600337974" lon="18.000920160256">
        <ele>8.6</ele>
        <time>2018-12-15T08:43:25Z</time>
        <extensions><gpxtpx:TrackPointExtension><gpxtpx:hr>146</gpxtpx:hr></gpxtpx:TrackPointExtension></extensions>
      </trkpt>
      <trkpt lat="59.361618861973" lon="18.0010354952">
        <ele>8.6</ele>
        <time>2018-12-15T08:43:26Z</time>
        <extensions><gpxtpx:TrackPointExtension><gpxtpx:hr>147</gpxtpx:hr></gpxtpx:TrackPointExtension></extensions>
      </trkpt>
      <trkpt lat="59.361685414259" lon="18.00146632486">
        <ele>8.6</ele>
        <time>2018-12-15T08:43:30Z</time>
        <extensions><gpxtpx:TrackPointExtension><gpxtpx:hr>150</gpxtpx:hr></gpxtpx:TrackPointExtension></extensions>
      </trkpt>
      <trkpt lat="59.361742075903" lon="18.001930011568">
        <ele>9</ele>
        <time>2018-12-15T08:43:35Z</time>
        <extensions><gpxtpx:TrackPointExtension><gpxtpx:hr>153</gpxtpx:hr></gpxtpx:TrackPointExtension></extensions>
      </trkpt>
      <trkpt lat="59.361755403124" lon="18.002102343432">
        <ele>9.8</ele>
        <time>2018-12-15T08:43:37Z</time>
        <extensions><gpxtpx:TrackPointExtension><gpxtpx:hr>154</gpxtpx:hr></gpxtpx:TrackPointExtension></extensions>
      </trkpt>
      <trkpt lat="59.361767724517" lon="18.00227098726">
        <ele>10.8</ele>
        <time>2018-12-15T08:43:39Z</time>
        <extensions><gpxtpx:TrackPointExtension><gpxtpx:hr>156</gpxtpx:hr></gpxtpx:TrackPointExtension></extensions>
      </trkpt>
      <trkpt lat="59.361788092534" lon="18.002525042649">
        <ele>12.2</ele>
        <time>2018-12-15T08:43:42Z</time>
        <extensions><gpxtpx:TrackPointExtension><gpxtpx:hr>158</gpxtpx:hr></gpxtpx:TrackPointExtension></extensions>
      </trkpt>
      <trkpt lat="59.361805443067" lon="18.002781025875">
        <ele>13.6</ele>
        <time>2018-12-15T08:43:45Z</time>
        <extensions><gpxtpx:TrackPointExtension><gpxtpx:hr>160</gpxtpx:hr></gpxtpx:TrackPointExtension></extensions>
      </trkpt>
      <trkpt lat="59.361814076424" lon="18.003036003273">
        <ele>14.8</ele>
        <time>2018-12-15T08:43:48Z</time>
        <extensions><gpxtpx:TrackPointExtension><gpxtpx:hr>161</gpxtpx:hr></gpxtpx:TrackPointExtension></extensions>
      </trkpt>
      <trkpt lat="59.361830672586" lon="18.003375134947">
        <ele>16</ele>
        <time>2018-12-15T08:43:52Z</time>
        <extensions><gpxtpx:TrackPointExtension><gpxtpx:hr>163</gpxtpx:hr></gpxtpx:TrackPointExtension></extensions>
      </trkpt>
      <trkpt lat="59.361859338684" lon="18.003717535562">
        <ele>17</ele>
        <time>2018-12-15T08:43:56Z</time>
        <extensions><gpxtpx:TrackPointExtension><gpxtpx:hr>164</gpxtpx:hr></gpxtpx:TrackPointExtension></extensions>
      </trkpt>
      <trkpt lat="59.361897224872" lon="18.004051973372">
        <ele>18.4</ele>
        <time>2018-12-15T08:44:00Z</time>
        <extensions><gpxtpx:TrackPointExtension><gpxtpx:hr>166</gpxtpx:hr></gpxtpx:TrackPointExtension></extensions>
      </trkpt>
      <trkpt lat="59.361966207909" lon="18.004487413077">
        <ele>19.6</ele>
        <time>2018-12-15T08:44:05Z</time>
        <extensions><gpxtpx:TrackPointExtension><gpxtpx:hr>166</gpxtpx:hr></gpxtpx:TrackPointExtension></extensions>
      </trkpt>
      <trkpt lat="59.362096127359" lon="18.004979346788">
        <ele>20.6</ele>
        <time>2018-12-15T08:44:11Z</time>
        <extensions><gpxtpx:TrackPointExtension><gpxtpx:hr>167</gpxtpx:hr></gpxtpx:TrackPointExtension></extensions>
      </trkpt>
      <trkpt lat="59.362236691822" lon="18.005364243636">
        <ele>21.6</ele>
        <time>2018-12-15T08:44:16Z</time>
        <extensions><gpxtpx:TrackPointExtension><gpxtpx:hr>169</gpxtpx:hr></gpxtpx:TrackPointExtension></extensions>
      </trkpt>
      <trkpt lat="59.362391756972" lon="18.005702118025">
        <ele>22.8</ele>
        <time>2018-12-15T08:44:21Z</time>
        <extensions><gpxtpx:TrackPointExtension><gpxtpx:hr>168</gpxtpx:hr></gpxtpx:TrackPointExtension></extensions>
      </trkpt>
      <trkpt lat="59.362564424112" lon="18.006005039891">
        <ele>24</ele>
        <time>2018-12-15T08:44:26Z</time>
        <extensions><gpxtpx:TrackPointExtension><gpxtpx:hr>167</gpxtpx:hr></gpxtpx:TrackPointExtension></extensions>
      </trkpt>
      <trkpt lat="59.362786041548" lon="18.006319277322">
        <ele>25.2</ele>
        <time>2018-12-15T08:44:32Z</time>
        <extensions><gpxtpx:TrackPointExtension><gpxtpx:hr>166</gpxtpx:hr></gpxtpx:TrackPointExtension></extensions>
      </trkpt>
      <trkpt lat="59.362984441121" lon="18.006640890825">
        <ele>25.8</ele>
        <time>2018-12-15T08:44:37Z</time>
        <extensions><gpxtpx:TrackPointExtension><gpxtpx:hr>165</gpxtpx:hr></gpxtpx:TrackPointExtension></extensions>
      </trkpt>
      <trkpt lat="59.363271605015" lon="18.007168866706">
        <ele>25.6</ele>
        <time>2018-12-15T08:44:43Z</time>
        <extensions><gpxtpx:TrackPointExtension><gpxtpx:hr>162</gpxtpx:hr></gpxtpx:TrackPointExtension></extensions>
      </trkpt>
      <trkpt lat="59.363491378433" lon="18.007662057702">
        <ele>23.6</ele>
        <time>2018-12-15T08:44:48Z</time>
        <extensions><gpxtpx:TrackPointExtension><gpxtpx:hr>159</gpxtpx:hr></gpxtpx:TrackPointExtension></extensions>
      </trkpt>
      <trkpt lat="59.363540831643" lon="18.007750486747">
        <ele>23.2</ele>
        <time>2018-12-15T08:44:49Z</time>
        <extensions><gpxtpx:TrackPointExtension><gpxtpx:hr>158</gpxtpx:hr></gpxtpx:TrackPointExtension></extensions>
      </trkpt>
      <trkpt lat="59.36370788291" lon="18.008078135218">
        <ele>22.6</ele>
        <time>2018-12-15T08:44:53Z</time>
        <extensions><gpxtpx:TrackPointExtension><gpxtpx:hr>156</gpxtpx:hr></gpxtpx:TrackPointExtension></extensions>
      </trkpt>
      <trkpt lat="59.363912988003" lon="18.008449872483">
        <ele>22.4</ele>
        <time>2018-12-15T08:44:57Z</time>
        <extensions><gpxtpx:TrackPointExtension><gpxtpx:hr>153</gpxtpx:hr></gpxtpx:TrackPointExtension></extensions>
      </trkpt>
      <trkpt lat="59.364242061397" lon="18.009187228226">
        <ele>22.2</ele>
        <time>2018-12-15T08:45:03Z</time>
        <extensions><gpxtpx:TrackPointExtension><gpxtpx:hr>150</gpxtpx:hr></gpxtpx:TrackPointExtension></extensions>
      </trkpt>
      <trkpt lat="59.364290676417" lon="18.00932435611">
        <ele>22</ele>
        <time>2018-12-15T08:45:04Z</time>
        <extensions><gpxtpx:TrackPointExtension><gpxtpx:hr>149</gpxtpx:hr></gpxtpx:TrackPointExtension></extensions>
      </trkpt>
      <trkpt lat="59.364368795725" lon="18.009600455896">
        <ele>21.2</ele>
        <time>2018-12-15T08:45:06Z</time>
        <extensions><gpxtpx:TrackPointExtension><gpxtpx:hr>146</gpxtpx:hr></gpxtpx:TrackPointExtension></extensions>
      </trkpt>
      <trkpt lat="59.364391259217" lon="18.009741355635">
        <ele>20</ele>
        <time>2018-12-15T08:45:07Z</time>
        <extensions><gpxtpx:TrackPointExtension><gpxtpx:hr>144</gpxtpx:hr></gpxtpx:TrackPointExtension></extensions>
      </trkpt>
      <trkpt lat="59.364409867035" lon="18.009885272858">
        <ele>19.4</ele>
        <time>2018-12-15T08:45:08Z</time>
        <extensions><gpxtpx:TrackPointExtension><gpxtpx:hr>143</gpxtpx:hr></gpxtpx:TrackPointExtension></extensions>
      </trkpt>
      <trkpt lat="59.364426379378" lon="18.01003430304">
        <ele>18.6</ele>
        <time>2018-12-15T08:45:09Z</time>
        <extensions><gpxtpx:TrackPointExtension><gpxtpx:hr>143</gpxtpx:hr></gpxtpx:TrackPointExtension></extensions>
      </trkpt>
      <trkpt lat="59.364445071015" lon="18.0104818965">
        <ele>17.8</ele>
        <time>2018-12-15T08:45:12Z</time>
        <extensions><gpxtpx:TrackPointExtension><gpxtpx:hr>141</gpxtpx:hr></gpxtpx:TrackPointExtension></extensions>
      </trkpt>
      <trkpt lat="59.364413890347" lon="18.010903841346">
        <ele>17.6</ele>
        <time>2018-12-15T08:45:15Z</time>
        <extensions><gpxtpx:TrackPointExtension><gpxtpx:hr>141</gpxtpx:hr></gpxtpx:TrackPointExtension></extensions>
      </trkpt>
      <trkpt lat="59.364221358104" lon="18.011992566337">
        <ele>18</ele>
        <time>2018-12-15T08:45:23Z</time>
        <extensions><gpxtpx:TrackPointExtension><gpxtpx:hr>142</gpxtpx:hr></gpxtpx:TrackPointExtension></extensions>
      </trkpt>
      <trkpt lat="59.364125888263" lon="18.012561278252">
        <ele>18.2</ele>
        <time>2018-12-15T08:45:27Z</time>
        <extensions><gpxtpx:TrackPointExtension><gpxtpx:hr>145</gpxtpx:hr></gpxtpx:TrackPointExtension></extensions>
      </trkpt>
      <trkpt lat="59.364039387055" lon="18.013290838828">
        <ele>18.6</ele>
        <time>2018-12-15T08:45:32Z</time>
        <extensions><gpxtpx:TrackPointExtension><gpxtpx:hr>148</gpxtpx:hr></gpxtpx:TrackPointExtension></extensions>
      </trkpt>
      <trkpt lat="59.363915334935" lon="18.013988129089">
        <ele>18.8</ele>
        <time>2018-12-15T08:45:37Z</time>
        <extensions><gpxtpx:TrackPointExtension><gpxtpx:hr>151</gpxtpx:hr></gpxtpx:TrackPointExtension></extensions>
      </trkpt>
      <trkpt lat="59.363800502905" lon="18.014623225652">
        <ele>19</ele>
        <time>2018-12-15T08:45:42Z</time>
        <extensions><gpxtpx:TrackPointExtension><gpxtpx:hr>154</gpxtpx:hr></gpxtpx:TrackPointExtension></extensions>
      </trkpt>
      <trkpt lat="59.363762197622" lon="18.015099988124">
        <ele>19.2</ele>
        <time>2018-12-15T08:45:46Z</time>
        <extensions><gpxtpx:TrackPointExtension><gpxtpx:hr>155</gpxtpx:hr></gpxtpx:TrackPointExtension></extensions>
      </trkpt>
      <trkpt lat="59.363763622545" lon="18.015210293928">
        <ele>19.4</ele>
        <time>2018-12-15T08:45:47Z</time>
        <extensions><gpxtpx:TrackPointExtension><gpxtpx:hr>156</gpxtpx:hr></gpxtpx:TrackPointExtension></extensions>
      </trkpt>
      <trkpt lat="59.363763287269" lon="18.015312720746">
        <ele>19.8</ele>
        <time>2018-12-15T08:45:48Z</time>
        <extensions><gpxtpx:TrackPointExtension><gpxtpx:hr>156</gpxtpx:hr></gpxtpx:TrackPointExtension></extensions>
      </trkpt>
      <trkpt lat="59.363760856518" lon="18.015475497244">
        <ele>20.6</ele>
        <time>2018-12-15T08:45:50Z</time>
        <extensions><gpxtpx:TrackPointExtension><gpxtpx:hr>157</gpxtpx:hr></gpxtpx:TrackPointExtension></extensions>
      </trkpt>
      <trkpt lat="59.363762951993" lon="18.015592089473">
        <ele>21.6</ele>
        <time>2018-12-15T08:45:54Z</time>
        <extensions><gpxtpx:TrackPointExtension><gpxtpx:hr>158</gpxtpx:hr></gpxtpx:TrackPointExtension></extensions>
      </trkpt>
      <trkpt lat="59.363762029984" lon="18.015647493832">
        <ele>22.8</ele>
        <time>2018-12-15T08:45:57Z</time>
        <extensions><gpxtpx:TrackPointExtension><gpxtpx:hr>158</gpxtpx:hr></gpxtpx:TrackPointExtension></extensions>
      </trkpt>
      <trkpt lat="59.363763287269" lon="18.015693594282">
        <ele>24</ele>
        <time>2018-12-15T08:46:00Z</time>
        <extensions><gpxtpx:TrackPointExtension><gpxtpx:hr>156</gpxtpx:hr></gpxtpx:TrackPointExtension></extensions>
      </trkpt>
      <trkpt lat="59.363763790183" lon="18.01569460011">
        <ele>24.2</ele>
        <time>2018-12-15T08:46:01Z</time>
        <extensions><gpxtpx:TrackPointExtension><gpxtpx:hr>155</gpxtpx:hr></gpxtpx:TrackPointExtension></extensions>
      </trkpt>
      <trkpt lat="59.363776698309" lon="18.015741454931">
        <ele>25.2</ele>
        <time>2018-12-15T08:46:22Z</time>
        <extensions><gpxtpx:TrackPointExtension><gpxtpx:hr>125</gpxtpx:hr></gpxtpx:TrackPointExtension></extensions>
      </trkpt>
      <trkpt lat="59.363789019702" lon="18.015786214277">
        <ele>25.2</ele>
        <time>2018-12-15T08:46:23Z</time>
        <extensions><gpxtpx:TrackPointExtension><gpxtpx:hr>126</gpxtpx:hr></gpxtpx:TrackPointExtension></extensions>
      </trkpt>
      <trkpt lat="59.363875688548" lon="18.015937172296">
        <ele>25.2</ele>
        <time>2018-12-15T08:46:26Z</time>
        <extensions><gpxtpx:TrackPointExtension><gpxtpx:hr>129</gpxtpx:hr></gpxtpx:TrackPointExtension></extensions>
      </trkpt>
      <trkpt lat="59.363990101483" lon="18.015957540313">
        <ele>25.2</ele>
        <time>2018-12-15T08:46:28Z</time>
        <extensions><gpxtpx:TrackPointExtension><gpxtpx:hr>133</gpxtpx:hr></gpxtpx:TrackPointExtension></extensions>
      </trkpt>
      <trkpt lat="59.36411859601" lon="18.015914541166">
        <ele>25</ele>
        <time>2018-12-15T08:46:30Z</time>
        <extensions><gpxtpx:TrackPointExtension><gpxtpx:hr>135</gpxtpx:hr></gpxtpx:TrackPointExtension></extensions>
      </trkpt>
      <trkpt lat="59.364332250641" lon="18.015843881749">
        <ele>24</ele>
        <time>2018-12-15T08:46:33Z</time>
        <extensions><gpxtpx:TrackPointExtension><gpxtpx:hr>137</gpxtpx:hr></gpxtpx:TrackPointExtension></extensions>
      </trkpt>
      <trkpt lat="59.364552359335" lon="18.015781101318">
        <ele>23</ele>
        <time>2018-12-15T08:46:36Z</time>
        <extensions><gpxtpx:TrackPointExtension><gpxtpx:hr>135</gpxtpx:hr></gpxtpx:TrackPointExtension></extensions>
      </trkpt>
      <trkpt lat="59.364785543793" lon="18.015673477722">
        <ele>21.4</ele>
        <time>2018-12-15T08:46:39Z</time>
        <extensions><gpxtpx:TrackPointExtension><gpxtpx:hr>132</gpxtpx:hr></gpxtpx:TrackPointExtension></extensions>
      </trkpt>
      <trkpt lat="59.365073881153" lon="18.015455464503">
        <ele>20.2</ele>
        <time>2018-12-15T08:46:43Z</time>
        <extensions><gpxtpx:TrackPointExtension><gpxtpx:hr>129</gpxtpx:hr></gpxtpx:TrackPointExtension></extensions>
      </trkpt>
      <trkpt lat="59.365280746445" lon="18.015224124063">
        <ele>18.8</ele>
        <time>2018-12-15T08:46:46Z</time>
        <extensions><gpxtpx:TrackPointExtension><gpxtpx:hr>130</gpxtpx:hr></gpxtpx:TrackPointExtension></extensions>
      </trkpt>
      <trkpt lat="59.36544545078" lon="18.015004434464">
        <ele>17.4</ele>
        <time>2018-12-15T08:46:48Z</time>
        <extensions><gpxtpx:TrackPointExtension><gpxtpx:hr>134</gpxtpx:hr></gpxtpx:TrackPointExtension></extensions>
      </trkpt>
      <trkpt lat="59.365600180654" lon="18.014742164813">
        <ele>16.8</ele>
        <time>2018-12-15T08:46:50Z</time>
        <extensions><gpxtpx:TrackPointExtension><gpxtpx:hr>137</gpxtpx:hr></gpxtpx:TrackPointExtension></extensions>
      </trkpt>
      <trkpt lat="59.365674779564" lon="18.014608138232">
        <ele>16.2</ele>
        <time>2018-12-15T08:46:51Z</time>
        <extensions><gpxtpx:TrackPointExtension><gpxtpx:hr>138</gpxtpx:hr></gpxtpx:TrackPointExtension></extensions>
      </trkpt>
      <trkpt lat="59.365833365112" lon="18.014365649865">
        <ele>15.4</ele>
        <time>2018-12-15T08:46:53Z</time>
        <extensions><gpxtpx:TrackPointExtension><gpxtpx:hr>141</gpxtpx:hr></gpxtpx:TrackPointExtension></extensions>
      </trkpt>
      <trkpt lat="59.365911819696" lon="18.014243777039">
        <ele>14.6</ele>
        <time>2018-12-15T08:46:54Z</time>
        <extensions><gpxtpx:TrackPointExtension><gpxtpx:hr>143</gpxtpx:hr></gpxtpx:TrackPointExtension></extensions>
      </trkpt>
      <trkpt lat="59.365989519909" lon="18.014123161498">
        <ele>13.6</ele>
        <time>2018-12-15T08:46:55Z</time>
        <extensions><gpxtpx:TrackPointExtension><gpxtpx:hr>145</gpxtpx:hr></gpxtpx:TrackPointExtension></extensions>
      </trkpt>
      <trkpt lat="59.36606654957" lon="18.014005982536">
        <ele>12.2</ele>
        <time>2018-12-15T08:46:56Z</time>
        <extensions><gpxtpx:TrackPointExtension><gpxtpx:hr>146</gpxtpx:hr></gpxtpx:TrackPointExtension></extensions>
      </trkpt>
      <trkpt lat="59.366143746869" lon="18.013893832714">
        <ele>11.2</ele>
        <time>2018-12-15T08:46:57Z</time>
        <extensions><gpxtpx:TrackPointExtension><gpxtpx:hr>148</gpxtpx:hr></gpxtpx:TrackPointExtension></extensions>
      </trkpt>
      <trkpt lat="59.366299650209" lon="18.013681938282">
        <ele>10.4</ele>
        <time>2018-12-15T08:46:59Z</time>
        <extensions><gpxtpx:TrackPointExtension><gpxtpx:hr>151</gpxtpx:hr></gpxtpx:TrackPointExtension></extensions>
      </trkpt>
      <trkpt lat="59.366459828318" lon="18.013476497913">
        <ele>10.2</ele>
        <time>2018-12-15T08:47:01Z</time>
        <extensions><gpxtpx:TrackPointExtension><gpxtpx:hr>153</gpxtpx:hr></gpxtpx:TrackPointExtension></extensions>
      </trkpt>
      <trkpt lat="59.366615144925" lon="18.013262424187">
        <ele>10.2</ele>
        <time>2018-12-15T08:47:03Z</time>
        <extensions><gpxtpx:TrackPointExtension><gpxtpx:hr>156</gpxtpx:hr></gpxtpx:TrackPointExtension></extensions>
      </trkpt>
      <trkpt lat="59.366754535922" lon="18.013049523927">
        <ele>10.2</ele>
        <time>2018-12-15T08:47:05Z</time>
        <extensions><gpxtpx:TrackPointExtension><gpxtpx:hr>159</gpxtpx:hr></gpxtpx:TrackPointExtension></extensions>
      </trkpt>
      <trkpt lat="59.366962658499" lon="18.012794965624">
        <ele>11</ele>
        <time>2018-12-15T08:47:08Z</time>
        <extensions><gpxtpx:TrackPointExtension><gpxtpx:hr>161</gpxtpx:hr></gpxtpx:TrackPointExtension></extensions>
      </trkpt>
      <trkpt lat="59.367185449401" lon="18.012647611822">
        <ele>11.2</ele>
        <time>2018-12-15T08:47:11Z</time>
        <extensions><gpxtpx:TrackPointExtension><gpxtpx:hr>162</gpxtpx:hr></gpxtpx:TrackPointExtension></extensions>
      </trkpt>
      <trkpt lat="59.367613345396" lon="18.011919643807">
        <ele>11.2</ele>
        <time>2018-12-15T08:47:18Z</time>
        <extensions><gpxtpx:TrackPointExtension><gpxtpx:hr>161</gpxtpx:hr></gpxtpx:TrackPointExtension></extensions>
      </trkpt>
      <trkpt lat="59.367931354682" lon="18.011353278824">
        <ele>10.2</ele>
        <time>2018-12-15T08:47:23Z</time>
        <extensions><gpxtpx:TrackPointExtension><gpxtpx:hr>159</gpxtpx:hr></gpxtpx:TrackPointExtension></extensions>
      </trkpt>
      <trkpt lat="59.368090024049" lon="18.011009034191">
        <ele>8.8</ele>
        <time>2018-12-15T08:47:26Z</time>
        <extensions><gpxtpx:TrackPointExtension><gpxtpx:hr>159</gpxtpx:hr></gpxtpx:TrackPointExtension></extensions>
      </trkpt>
      <trkpt lat="59.368274593487" lon="18.010592453761">
        <ele>7.8</ele>
        <time>2018-12-15T08:47:30Z</time>
        <extensions><gpxtpx:TrackPointExtension><gpxtpx:hr>157</gpxtpx:hr></gpxtpx:TrackPointExtension></extensions>
      </trkpt>
      <trkpt lat="59.368466455178" lon="18.010220465039">
        <ele>7.4</ele>
        <time>2018-12-15T08:47:34Z</time>
        <extensions><gpxtpx:TrackPointExtension><gpxtpx:hr>154</gpxtpx:hr></gpxtpx:TrackPointExtension></extensions>
      </trkpt>
      <trkpt lat="59.368507191212" lon="18.010115858927">
        <ele>7.4</ele>
        <time>2018-12-15T08:47:35Z</time>
        <extensions><gpxtpx:TrackPointExtension><gpxtpx:hr>152</gpxtpx:hr></gpxtpx:TrackPointExtension></extensions>
      </trkpt>
      <trkpt lat="59.368653623005" lon="18.009658458644">
        <ele>7.2</ele>
        <time>2018-12-15T08:47:39Z</time>
        <extensions><gpxtpx:TrackPointExtension><gpxtpx:hr>149</gpxtpx:hr></gpxtpx:TrackPointExtension></extensions>
      </trkpt>
      <trkpt lat="59.368891920422" lon="18.009164764734">
        <ele>7</ele>
        <time>2018-12-15T08:47:44Z</time>
        <extensions><gpxtpx:TrackPointExtension><gpxtpx:hr>146</gpxtpx:hr></gpxtpx:TrackPointExtension></extensions>
      </trkpt>
      <trkpt lat="59.369065174295" lon="18.008924623299">
        <ele>6.6</ele>
        <time>2018-12-15T08:47:47Z</time>
        <extensions><gpxtpx:TrackPointExtension><gpxtpx:hr>145</gpxtpx:hr></gpxtpx:TrackPointExtension></extensions>
      </trkpt>
      <trkpt lat="59.369256113977" lon="18.008732091056">
        <ele>6.4</ele>
        <time>2018-12-15T08:47:50Z</time>
        <extensions><gpxtpx:TrackPointExtension><gpxtpx:hr>146</gpxtpx:hr></gpxtpx:TrackPointExtension></extensions>
      </trkpt>
      <trkpt lat="59.369533051953" lon="18.008618264854">
        <ele>6.2</ele>
        <time>2018-12-15T08:47:54Z</time>
        <extensions><gpxtpx:TrackPointExtension><gpxtpx:hr>148</gpxtpx:hr></gpxtpx:TrackPointExtension></extensions>
      </trkpt>
      <trkpt lat="59.369816360173" lon="18.008506869403">
        <ele>5.8</ele>
        <time>2018-12-15T08:47:58Z</time>
        <extensions><gpxtpx:TrackPointExtension><gpxtpx:hr>151</gpxtpx:hr></gpxtpx:TrackPointExtension></extensions>
      </trkpt>
      <trkpt lat="59.370183822669" lon="18.008344176724">
        <ele>5.6</ele>
        <time>2018-12-15T08:48:03Z</time>
        <extensions><gpxtpx:TrackPointExtension><gpxtpx:hr>154</gpxtpx:hr></gpxtpx:TrackPointExtension></extensions>
      </trkpt>
      <trkpt lat="59.370258840674" lon="18.008318611929">
        <ele>5.6</ele>
        <time>2018-12-15T08:48:04Z</time>
        <extensions><gpxtpx:TrackPointExtension><gpxtpx:hr>155</gpxtpx:hr></gpxtpx:TrackPointExtension></extensions>
      </trkpt>
      <trkpt lat="59.370486744535" lon="18.008210317781">
        <ele>5.4</ele>
        <time>2018-12-15T08:48:07Z</time>
        <extensions><gpxtpx:TrackPointExtension><gpxtpx:hr>158</gpxtpx:hr></gpxtpx:TrackPointExtension></extensions>
      </trkpt>
      <trkpt lat="59.370880190921" lon="18.008034716976">
        <ele>4.6</ele>
        <time>2018-12-15T08:48:12Z</time>
        <extensions><gpxtpx:TrackPointExtension><gpxtpx:hr>161</gpxtpx:hr></gpxtpx:TrackPointExtension></extensions>
      </trkpt>
      <trkpt lat="59.371121002908" lon="18.00799414858">
        <ele>4.4</ele>
        <time>2018-12-15T08:48:15Z</time>
        <extensions><gpxtpx:TrackPointExtension><gpxtpx:hr>162</gpxtpx:hr></gpxtpx:TrackPointExtension></extensions>
      </trkpt>
      <trkpt lat="59.371684182769" lon="18.007848974072">
        <ele>3.2</ele>
        <time>2018-12-15T08:48:22Z</time>
        <extensions><gpxtpx:TrackPointExtension><gpxtpx:hr>163</gpxtpx:hr></gpxtpx:TrackPointExtension></extensions>
      </trkpt>
      <trkpt lat="59.372208722071" lon="18.007591733561">
        <ele>3</ele>
        <time>2018-12-15T08:48:29Z</time>
        <extensions><gpxtpx:TrackPointExtension><gpxtpx:hr>163</gpxtpx:hr></gpxtpx:TrackPointExtension></extensions>
      </trkpt>
      <trkpt lat="59.372355070045" lon="18.007548315319">
        <ele>3</ele>
        <time>2018-12-15T08:48:31Z</time>
        <extensions><gpxtpx:TrackPointExtension><gpxtpx:hr>164</gpxtpx:hr></gpxtpx:TrackPointExtension></extensions>
      </trkpt>
      <trkpt lat="59.372908023988" lon="18.007039701627">
        <ele>3</ele>
        <time>2018-12-15T08:48:39Z</time>
        <extensions><gpxtpx:TrackPointExtension><gpxtpx:hr>163</gpxtpx:hr></gpxtpx:TrackPointExtension></extensions>
      </trkpt>
      <trkpt lat="59.373048420813" lon="18.006950266754">
        <ele>3</ele>
        <time>2018-12-15T08:48:41Z</time>
        <extensions><gpxtpx:TrackPointExtension><gpxtpx:hr>163</gpxtpx:hr></gpxtpx:TrackPointExtension></extensions>
      </trkpt>
      <trkpt lat="59.373531134434" lon="18.006457913948">
        <ele>2</ele>
        <time>2018-12-15T08:48:48Z</time>
        <extensions><gpxtpx:TrackPointExtension><gpxtpx:hr>161</gpxtpx:hr></gpxtpx:TrackPointExtension></extensions>
      </trkpt>
      <trkpt lat="59.373601793851" lon="18.006403347779">
        <ele>1.8</ele>
        <time>2018-12-15T08:48:49Z</time>
        <extensions><gpxtpx:TrackPointExtension><gpxtpx:hr>161</gpxtpx:hr></gpxtpx:TrackPointExtension></extensions>
      </trkpt>
      <trkpt lat="59.373893232514" lon="18.006220622359">
        <ele>1.6</ele>
        <time>2018-12-15T08:48:53Z</time>
        <extensions><gpxtpx:TrackPointExtension><gpxtpx:hr>161</gpxtpx:hr></gpxtpx:TrackPointExtension></extensions>
      </trkpt>
      <trkpt lat="59.37444425862" lon="18.005803706653">
        <ele>1.6</ele>
        <time>2018-12-15T08:49:01Z</time>
        <extensions><gpxtpx:TrackPointExtension><gpxtpx:hr>163</gpxtpx:hr></gpxtpx:TrackPointExtension></extensions>
      </trkpt>
      <trkpt lat="59.374961840945" lon="18.005397184503">
        <ele>2.2</ele>
        <time>2018-12-15T08:49:09Z</time>
        <extensions><gpxtpx:TrackPointExtension><gpxtpx:hr>163</gpxtpx:hr></gpxtpx:TrackPointExtension></extensions>
      </trkpt>
      <trkpt lat="59.375142554709" lon="18.005289057993">
        <ele>2.4</ele>
        <time>2018-12-15T08:49:12Z</time>
        <extensions><gpxtpx:TrackPointExtension><gpxtpx:hr>163</gpxtpx:hr></gpxtpx:TrackPointExtension></extensions>
      </trkpt>
      <trkpt lat="59.375389820759" lon="18.00531613153">
        <ele>3.2</ele>
        <time>2018-12-15T08:49:17Z</time>
        <extensions><gpxtpx:TrackPointExtension><gpxtpx:hr>162</gpxtpx:hr></gpxtpx:TrackPointExtension></extensions>
      </trkpt>
      <trkpt lat="59.375423096902" lon="18.0052935004">
        <ele>3.4</ele>
        <time>2018-12-15T08:49:18Z</time>
        <extensions><gpxtpx:TrackPointExtension><gpxtpx:hr>161</gpxtpx:hr></gpxtpx:TrackPointExtension></extensions>
      </trkpt>
      <trkpt lat="59.375512447956" lon="18.00499678114">
        <ele>5.2</ele>
        <time>2018-12-15T08:49:22Z</time>
        <extensions><gpxtpx:TrackPointExtension><gpxtpx:hr>161</gpxtpx:hr></gpxtpx:TrackPointExtension></extensions>
      </trkpt>
      <trkpt lat="59.375599200621" lon="18.004888738449">
        <ele>6.2</ele>
        <time>2018-12-15T08:49:24Z</time>
        <extensions><gpxtpx:TrackPointExtension><gpxtpx:hr>161</gpxtpx:hr></gpxtpx:TrackPointExtension></extensions>
      </trkpt>
      <trkpt lat="59.375697185032" lon="18.004838195592">
        <ele>7.2</ele>
        <time>2018-12-15T08:49:26Z</time>
        <extensions><gpxtpx:TrackPointExtension><gpxtpx:hr>161</gpxtpx:hr></gpxtpx:TrackPointExtension></extensions>
      </trkpt>
      <trkpt lat="59.375745297138" lon="18.00481657029">
        <ele>7.4</ele>
        <time>2018-12-15T08:49:27Z</time>
        <extensions><gpxtpx:TrackPointExtension><gpxtpx:hr>162</gpxtpx:hr></gpxtpx:TrackPointExtension></extensions>
      </trkpt>
      <trkpt lat="59.37593036949" lon="18.004727638331">
        <ele>7.6</ele>
        <time>2018-12-15T08:49:31Z</time>
        <extensions><gpxtpx:TrackPointExtension><gpxtpx:hr>163</gpxtpx:hr></gpxtpx:TrackPointExtension></extensions>
      </trkpt>
      <trkpt lat="59.376113765462" lon="18.004644825159">
        <ele>8.6</ele>
        <time>2018-12-15T08:49:35Z</time>
        <extensions><gpxtpx:TrackPointExtension><gpxtpx:hr>163</gpxtpx:hr></gpxtpx:TrackPointExtension></extensions>
      </trkpt>
      <trkpt lat="59.376339992943" lon="18.004613057758">
        <ele>9.8</ele>
        <time>2018-12-15T08:49:40Z</time>
        <extensions><gpxtpx:TrackPointExtension><gpxtpx:hr>164</gpxtpx:hr></gpxtpx:TrackPointExtension></extensions>
      </trkpt>
      <trkpt lat="59.376419453355" lon="18.004577267045">
        <ele>10.8</ele>
        <time>2018-12-15T08:49:42Z</time>
        <extensions><gpxtpx:TrackPointExtension><gpxtpx:hr>165</gpxtpx:hr></gpxtpx:TrackPointExtension></extensions>
      </trkpt>
      <trkpt lat="59.376571668659" lon="18.004537788296">
        <ele>11.8</ele>
        <time>2018-12-15T08:49:46Z</time>
        <extensions><gpxtpx:TrackPointExtension><gpxtpx:hr>167</gpxtpx:hr></gpxtpx:TrackPointExtension></extensions>
      </trkpt>
      <trkpt lat="59.376691362191" lon="18.004502584316">
        <ele>13.2</ele>
        <time>2018-12-15T08:49:50Z</time>
        <extensions><gpxtpx:TrackPointExtension><gpxtpx:hr>167</gpxtpx:hr></gpxtpx:TrackPointExtension></extensions>
      </trkpt>
      <trkpt lat="59.376762021608" lon="18.00451482189">
        <ele>14.4</ele>
        <time>2018-12-15T08:49:54Z</time>
        <extensions><gpxtpx:TrackPointExtension><gpxtpx:hr>166</gpxtpx:hr></gpxtpx:TrackPointExtension></extensions>
      </trkpt>
      <trkpt lat="59.376767134567" lon="18.00451566008">
        <ele>15.2</ele>
        <time>2018-12-15T08:49:56Z</time>
        <extensions><gpxtpx:TrackPointExtension><gpxtpx:hr>165</gpxtpx:hr></gpxtpx:TrackPointExtension></extensions>
      </trkpt>
      <trkpt lat="59.376797812321" lon="18.004522617057">
        <ele>16</ele>
        <time>2018-12-15T08:49:58Z</time>
        <extensions><gpxtpx:TrackPointExtension><gpxtpx:hr>164</gpxtpx:hr></gpxtpx:TrackPointExtension></extensions>
      </trkpt>
      <trkpt lat="59.376991853306" lon="18.004594952854">
        <ele>17</ele>
        <time>2018-12-15T08:50:03Z</time>
        <extensions><gpxtpx:TrackPointExtension><gpxtpx:hr>162</gpxtpx:hr></gpxtpx:TrackPointExtension></extensions>
      </trkpt>
      <trkpt lat="59.376921864441" lon="18.005782919541">
        <ele>17</ele>
        <time>2018-12-15T08:50:13Z</time>
        <extensions><gpxtpx:TrackPointExtension><gpxtpx:hr>162</gpxtpx:hr></gpxtpx:TrackPointExtension></extensions>
      </trkpt>
      <trkpt lat="59.376862101494" lon="18.006589090683">
        <ele>16.2</ele>
        <time>2018-12-15T08:50:18Z</time>
        <extensions><gpxtpx:TrackPointExtension><gpxtpx:hr>159</gpxtpx:hr></gpxtpx:TrackPointExtension></extensions>
      </trkpt>
      <trkpt lat="59.376859335467" lon="18.006744155833">
        <ele>15.4</ele>
        <time>2018-12-15T08:50:19Z</time>
        <extensions><gpxtpx:TrackPointExtension><gpxtpx:hr>158</gpxtpx:hr></gpxtpx:TrackPointExtension></extensions>
      </trkpt>
      <trkpt lat="59.376866292444" lon="18.007055878694">
        <ele>13.4</ele>
        <time>2018-12-15T08:50:21Z</time>
        <extensions><gpxtpx:TrackPointExtension><gpxtpx:hr>154</gpxtpx:hr></gpxtpx:TrackPointExtension></extensions>
      </trkpt>
      <trkpt lat="59.376899736225" lon="18.007354358153">
        <ele>11.6</ele>
        <time>2018-12-15T08:50:23Z</time>
        <extensions><gpxtpx:TrackPointExtension><gpxtpx:hr>150</gpxtpx:hr></gpxtpx:TrackPointExtension></extensions>
      </trkpt>
      <trkpt lat="59.376923457002" lon="18.007492994779">
        <ele>10.8</ele>
        <time>2018-12-15T08:50:24Z</time>
        <extensions><gpxtpx:TrackPointExtension><gpxtpx:hr>147</gpxtpx:hr></gpxtpx:TrackPointExtension></extensions>
      </trkpt>
      <trkpt lat="59.376953967118" lon="18.007624003876">
        <ele>10.2</ele>
        <time>2018-12-15T08:50:25Z</time>
        <extensions><gpxtpx:TrackPointExtension><gpxtpx:hr>146</gpxtpx:hr></gpxtpx:TrackPointExtension></extensions>
      </trkpt>
      <trkpt lat="59.377029823313" lon="18.007855511954">
        <ele>9.6</ele>
        <time>2018-12-15T08:50:27Z</time>
        <extensions><gpxtpx:TrackPointExtension><gpxtpx:hr>143</gpxtpx:hr></gpxtpx:TrackPointExtension></extensions>
      </trkpt>
      <trkpt lat="59.377072151908" lon="18.007959866609">
        <ele>9.2</ele>
        <time>2018-12-15T08:50:28Z</time>
        <extensions><gpxtpx:TrackPointExtension><gpxtpx:hr>143</gpxtpx:hr></gpxtpx:TrackPointExtension></extensions>
      </trkpt>
      <trkpt lat="59.377115151055" lon="18.008061287599">
        <ele>9</ele>
        <time>2018-12-15T08:50:29Z</time>
        <extensions><gpxtpx:TrackPointExtension><gpxtpx:hr>142</gpxtpx:hr></gpxtpx:TrackPointExtension></extensions>
      </trkpt>
      <trkpt lat="59.377237610614" lon="18.008382062912">
        <ele>8.6</ele>
        <time>2018-12-15T08:50:32Z</time>
        <extensions><gpxtpx:TrackPointExtension><gpxtpx:hr>139</gpxtpx:hr></gpxtpx:TrackPointExtension></extensions>
      </trkpt>
      <trkpt lat="59.377346575314" lon="18.008655145214">
        <ele>8.2</ele>
        <time>2018-12-15T08:50:35Z</time>
        <extensions><gpxtpx:TrackPointExtension><gpxtpx:hr>136</gpxtpx:hr></gpxtpx:TrackPointExtension></extensions>
      </trkpt>
      <trkpt lat="59.377401225302" lon="18.008720607853">
        <ele>8</ele>
        <time>2018-12-15T08:50:37Z</time>
        <extensions><gpxtpx:TrackPointExtension><gpxtpx:hr>133</gpxtpx:hr></gpxtpx:TrackPointExtension></extensions>
      </trkpt>
      <trkpt lat="59.377490911632" lon="18.00859848357">
        <ele>8</ele>
        <time>2018-12-15T08:50:40Z</time>
        <extensions><gpxtpx:TrackPointExtension><gpxtpx:hr>134</gpxtpx:hr></gpxtpx:TrackPointExtension></extensions>
      </trkpt>
      <trkpt lat="59.377582944894" lon="18.008469318491">
        <ele>7.8</ele>
        <time>2018-12-15T08:50:42Z</time>
        <extensions><gpxtpx:TrackPointExtension><gpxtpx:hr>136</gpxtpx:hr></gpxtpx:TrackPointExtension></extensions>
      </trkpt>
      <trkpt lat="59.377754103292" lon="18.008270667461">
        <ele>7.6</ele>
        <time>2018-12-15T08:50:45Z</time>
        <extensions><gpxtpx:TrackPointExtension><gpxtpx:hr>139</gpxtpx:hr></gpxtpx:TrackPointExtension></extensions>
      </trkpt>
      <trkpt lat="59.377926854251" lon="18.008087522946">
        <ele>7.2</ele>
        <time>2018-12-15T08:50:48Z</time>
        <extensions><gpxtpx:TrackPointExtension><gpxtpx:hr>139</gpxtpx:hr></gpxtpx:TrackPointExtension></extensions>
      </trkpt>
      <trkpt lat="59.378035567494" lon="18.007967577957">
        <ele>7</ele>
        <time>2018-12-15T08:50:50Z</time>
        <extensions><gpxtpx:TrackPointExtension><gpxtpx:hr>139</gpxtpx:hr></gpxtpx:TrackPointExtension></extensions>
      </trkpt>
      <trkpt lat="59.378152243542" lon="18.007837658507">
        <ele>6.8</ele>
        <time>2018-12-15T08:50:52Z</time>
        <extensions><gpxtpx:TrackPointExtension><gpxtpx:hr>140</gpxtpx:hr></gpxtpx:TrackPointExtension></extensions>
      </trkpt>
      <trkpt lat="59.378263974269" lon="18.007679156778">
        <ele>6.2</ele>
        <time>2018-12-15T08:50:54Z</time>
        <extensions><gpxtpx:TrackPointExtension><gpxtpx:hr>141</gpxtpx:hr></gpxtpx:TrackPointExtension></extensions>
      </trkpt>
      <trkpt lat="59.378355085522" lon="18.007528031121">
        <ele>5.4</ele>
        <time>2018-12-15T08:50:56Z</time>
        <extensions><gpxtpx:TrackPointExtension><gpxtpx:hr>141</gpxtpx:hr></gpxtpx:TrackPointExtension></extensions>
      </trkpt>
      <trkpt lat="59.378742748397" lon="18.00727749613">
        <ele>4.6</ele>
        <time>2018-12-15T08:51:03Z</time>
        <extensions><gpxtpx:TrackPointExtension><gpxtpx:hr>141</gpxtpx:hr></gpxtpx:TrackPointExtension></extensions>
      </trkpt>
      <trkpt lat="59.37879949386" lon="18.007212284948">
        <ele>4.4</ele>
        <time>2018-12-15T08:51:04Z</time>
        <extensions><gpxtpx:TrackPointExtension><gpxtpx:hr>141</gpxtpx:hr></gpxtpx:TrackPointExtension></extensions>
      </trkpt>
      <trkpt lat="59.379272819753" lon="18.006673077321">
        <ele>4.2</ele>
        <time>2018-12-15T08:51:13Z</time>
        <extensions><gpxtpx:TrackPointExtension><gpxtpx:hr>141</gpxtpx:hr></gpxtpx:TrackPointExtension></extensions>
      </trkpt>
      <trkpt lat="59.379502399994" lon="18.006522789854">
        <ele>4.6</ele>
        <time>2018-12-15T08:51:19Z</time>
        <extensions><gpxtpx:TrackPointExtension><gpxtpx:hr>140</gpxtpx:hr></gpxtpx:TrackPointExtension></extensions>
      </trkpt>
      <trkpt lat="59.37947842776" lon="18.007059399092">
        <ele>5.2</ele>
        <time>2018-12-15T08:51:25Z</time>
        <extensions><gpxtpx:TrackPointExtension><gpxtpx:hr>141</gpxtpx:hr></gpxtpx:TrackPointExtension></extensions>
      </trkpt>
      <trkpt lat="59.379462585969" lon="18.00716853143">
        <ele>5.2</ele>
        <time>2018-12-15T08:51:26Z</time>
        <extensions><gpxtpx:TrackPointExtension><gpxtpx:hr>141</gpxtpx:hr></gpxtpx:TrackPointExtension></extensions>
      </trkpt>
      <trkpt lat="59.379542214019" lon="18.007771525316">
        <ele>5</ele>
        <time>2018-12-15T08:51:31Z</time>
        <extensions><gpxtpx:TrackPointExtension><gpxtpx:hr>143</gpxtpx:hr></gpxtpx:TrackPointExtension></extensions>
      </trkpt>
      <trkpt lat="59.379706666897" lon="18.008595046991">
        <ele>3.8</ele>
        <time>2018-12-15T08:51:38Z</time>
        <extensions><gpxtpx:TrackPointExtension><gpxtpx:hr>142</gpxtpx:hr></gpxtpx:TrackPointExtension></extensions>
      </trkpt>
      <trkpt lat="59.379857792554" lon="18.00887340989">
        <ele>3.8</ele>
        <time>2018-12-15T08:51:42Z</time>
        <extensions><gpxtpx:TrackPointExtension><gpxtpx:hr>143</gpxtpx:hr></gpxtpx:TrackPointExtension></extensions>
      </trkpt>
      <trkpt lat="59.379944209943" lon="18.00898405097">
        <ele>4</ele>
        <time>2018-12-15T08:51:44Z</time>
        <extensions><gpxtpx:TrackPointExtension><gpxtpx:hr>142</gpxtpx:hr></gpxtpx:TrackPointExtension></extensions>
      </trkpt>
      <trkpt lat="59.380052336453" lon="18.009275238176">
        <ele>4.2</ele>
        <time>2018-12-15T08:51:49Z</time>
        <extensions><gpxtpx:TrackPointExtension><gpxtpx:hr>139</gpxtpx:hr></gpxtpx:TrackPointExtension></extensions>
      </trkpt>
      <trkpt lat="59.380080415818" lon="18.009300132419">
        <ele>4.6</ele>
        <time>2018-12-15T08:51:53Z</time>
        <extensions><gpxtpx:TrackPointExtension><gpxtpx:hr>135</gpxtpx:hr></gpxtpx:TrackPointExtension></extensions>
      </trkpt>
      <trkpt lat="59.38008276275" lon="18.009308598138">
        <ele>4.8</ele>
        <time>2018-12-15T08:51:55Z</time>
        <extensions><gpxtpx:TrackPointExtension><gpxtpx:hr>135</gpxtpx:hr></gpxtpx:TrackPointExtension></extensions>
      </trkpt>
      <trkpt lat="59.380111177391" lon="18.009549074849">
        <ele>6.2</ele>
        <time>2018-12-15T08:54:10Z</time>
        <extensions><gpxtpx:TrackPointExtension><gpxtpx:hr>113</gpxtpx:hr></gpxtpx:TrackPointExtension></extensions>
      </trkpt>
      <trkpt lat="59.380121068033" lon="18.009571203065">
        <ele>6.2</ele>
        <time>2018-12-15T08:54:11Z</time>
        <extensions><gpxtpx:TrackPointExtension><gpxtpx:hr>114</gpxtpx:hr></gpxtpx:TrackPointExtension></extensions>
      </trkpt>
      <trkpt lat="59.380163899542" lon="18.009586625761">
        <ele>6</ele>
        <time>2018-12-15T08:54:13Z</time>
        <extensions><gpxtpx:TrackPointExtension><gpxtpx:hr>117</gpxtpx:hr></gpxtpx:TrackPointExtension></extensions>
      </trkpt>
      <trkpt lat="59.380515436428" lon="18.00984571029">
        <ele>5.4</ele>
        <time>2018-12-15T08:54:22Z</time>
        <extensions><gpxtpx:TrackPointExtension><gpxtpx:hr>120</gpxtpx:hr></gpxtpx:TrackPointExtension></extensions>
      </trkpt>
      <trkpt lat="59.380534463341" lon="18.009927349996">
        <ele>5.2</ele>
        <time>2018-12-15T08:54:23Z</time>
        <extensions><gpxtpx:TrackPointExtension><gpxtpx:hr>120</gpxtpx:hr></gpxtpx:TrackPointExtension></extensions>
      </trkpt>
      <trkpt lat="59.380559776679" lon="18.010079397662">
        <ele>5.2</ele>
        <time>2018-12-15T08:54:25Z</time>
        <extensions><gpxtpx:TrackPointExtension><gpxtpx:hr>122</gpxtpx:hr></gpxtpx:TrackPointExtension></extensions>
      </trkpt>
      <trkpt lat="59.380583748913" lon="18.010255333743">
        <ele>5</ele>
        <time>2018-12-15T08:54:27Z</time>
        <extensions><gpxtpx:TrackPointExtension><gpxtpx:hr>125</gpxtpx:hr></gpxtpx:TrackPointExtension></extensions>
      </trkpt>
      <trkpt lat="59.380628089164" lon="18.010526069113">
        <ele>5</ele>
        <time>2018-12-15T08:54:30Z</time>
        <extensions><gpxtpx:TrackPointExtension><gpxtpx:hr>128</gpxtpx:hr></gpxtpx:TrackPointExtension></extensions>
      </trkpt>
      <trkpt lat="59.380738981701" lon="18.010779370131">
        <ele>5</ele>
        <time>2018-12-15T08:54:33Z</time>
        <extensions><gpxtpx:TrackPointExtension><gpxtpx:hr>130</gpxtpx:hr></gpxtpx:TrackPointExtension></extensions>
      </trkpt>
      <trkpt lat="59.380635549055" lon="18.011086566766">
        <ele>5.2</ele>
        <time>2018-12-15T08:54:38Z</time>
        <extensions><gpxtpx:TrackPointExtension><gpxtpx:hr>132</gpxtpx:hr></gpxtpx:TrackPointExtension></extensions>
      </trkpt>
      <trkpt lat="59.380402364597" lon="18.011335341558">
        <ele>6.2</ele>
        <time>2018-12-15T08:54:43Z</time>
        <extensions><gpxtpx:TrackPointExtension><gpxtpx:hr>135</gpxtpx:hr></gpxtpx:TrackPointExtension></extensions>
      </trkpt>
      <trkpt lat="59.380244868696" lon="18.011507924879">
        <ele>6.4</ele>
        <time>2018-12-15T08:54:46Z</time>
        <extensions><gpxtpx:TrackPointExtension><gpxtpx:hr>138</gpxtpx:hr></gpxtpx:TrackPointExtension></extensions>
      </trkpt>
      <trkpt lat="59.379981090303" lon="18.011816127342">
        <ele>6.4</ele>
        <time>2018-12-15T08:54:51Z</time>
        <extensions><gpxtpx:TrackPointExtension><gpxtpx:hr>141</gpxtpx:hr></gpxtpx:TrackPointExtension></extensions>
      </trkpt>
      <trkpt lat="59.379589571754" lon="18.01226975577">
        <ele>6.4</ele>
        <time>2018-12-15T08:54:58Z</time>
        <extensions><gpxtpx:TrackPointExtension><gpxtpx:hr>144</gpxtpx:hr></gpxtpx:TrackPointExtension></extensions>
      </trkpt>
      <trkpt lat="59.37948848604" lon="18.012421384341">
        <ele>6</ele>
        <time>2018-12-15T08:55:00Z</time>
        <extensions><gpxtpx:TrackPointExtension><gpxtpx:hr>146</gpxtpx:hr></gpxtpx:TrackPointExtension></extensions>
      </trkpt>
      <trkpt lat="59.379397626244" lon="18.013181538852">
        <ele>5</ele>
        <time>2018-12-15T08:55:06Z</time>
        <extensions><gpxtpx:TrackPointExtension><gpxtpx:hr>145</gpxtpx:hr></gpxtpx:TrackPointExtension></extensions>
      </trkpt>
      <trkpt lat="59.379404164126" lon="18.013313469958">
        <ele>5</ele>
        <time>2018-12-15T08:55:07Z</time>
        <extensions><gpxtpx:TrackPointExtension><gpxtpx:hr>145</gpxtpx:hr></gpxtpx:TrackPointExtension></extensions>
      </trkpt>
      <trkpt lat="59.379472057516" lon="18.014381743113">
        <ele>4.8</ele>
        <time>2018-12-15T08:55:17Z</time>
        <extensions><gpxtpx:TrackPointExtension><gpxtpx:hr>146</gpxtpx:hr></gpxtpx:TrackPointExtension></extensions>
      </trkpt>
      <trkpt lat="59.379481109968" lon="18.014465897389">
        <ele>4.8</ele>
        <time>2018-12-15T08:55:18Z</time>
        <extensions><gpxtpx:TrackPointExtension><gpxtpx:hr>147</gpxtpx:hr></gpxtpx:TrackPointExtension></extensions>
      </trkpt>
      <trkpt lat="59.379601893147" lon="18.014720958606">
        <ele>5.6</ele>
        <time>2018-12-15T08:55:22Z</time>
        <extensions><gpxtpx:TrackPointExtension><gpxtpx:hr>150</gpxtpx:hr></gpxtpx:TrackPointExtension></extensions>
      </trkpt>
      <trkpt lat="59.379641288077" lon="18.014768483979">
        <ele>6.4</ele>
        <time>2018-12-15T08:55:23Z</time>
        <extensions><gpxtpx:TrackPointExtension><gpxtpx:hr>150</gpxtpx:hr></gpxtpx:TrackPointExtension></extensions>
      </trkpt>
      <trkpt lat="59.379726364362" lon="18.014868396227">
        <ele>8</ele>
        <time>2018-12-15T08:55:25Z</time>
        <extensions><gpxtpx:TrackPointExtension><gpxtpx:hr>151</gpxtpx:hr></gpxtpx:TrackPointExtension></extensions>
      </trkpt>
      <trkpt lat="59.37977430883" lon="18.014923297672">
        <ele>9.2</ele>
        <time>2018-12-15T08:55:26Z</time>
        <extensions><gpxtpx:TrackPointExtension><gpxtpx:hr>152</gpxtpx:hr></gpxtpx:TrackPointExtension></extensions>
      </trkpt>
      <trkpt lat="59.379972792222" lon="18.015138125769">
        <ele>10.2</ele>
        <time>2018-12-15T08:55:30Z</time>
        <extensions><gpxtpx:TrackPointExtension><gpxtpx:hr>155</gpxtpx:hr></gpxtpx:TrackPointExtension></extensions>
      </trkpt>
      <trkpt lat="59.380071447185" lon="18.015255053274">
        <ele>10.2</ele>
        <time>2018-12-15T08:55:32Z</time>
        <extensions><gpxtpx:TrackPointExtension><gpxtpx:hr>156</gpxtpx:hr></gpxtpx:TrackPointExtension></extensions>
      </trkpt>
      <trkpt lat="59.380361460925" lon="18.015652271515">
        <ele>10.4</ele>
        <time>2018-12-15T08:55:38Z</time>
        <extensions><gpxtpx:TrackPointExtension><gpxtpx:hr>158</gpxtpx:hr></gpxtpx:TrackPointExtension></extensions>
      </trkpt>
      <trkpt lat="59.380455002929" lon="18.015831727994">
        <ele>10.4</ele>
        <time>2018-12-15T08:55:40Z</time>
        <extensions><gpxtpx:TrackPointExtension><gpxtpx:hr>157</gpxtpx:hr></gpxtpx:TrackPointExtension></extensions>
      </trkpt>
      <trkpt lat="59.380845264193" lon="18.015919402668">
        <ele>9.6</ele>
        <time>2018-12-15T08:55:46Z</time>
        <extensions><gpxtpx:TrackPointExtension><gpxtpx:hr>157</gpxtpx:hr></gpxtpx:TrackPointExtension></extensions>
      </trkpt>
      <trkpt lat="59.380918773456" lon="18.015893754054">
        <ele>9.2</ele>
        <time>2018-12-15T08:55:47Z</time>
        <extensions><gpxtpx:TrackPointExtension><gpxtpx:hr>156</gpxtpx:hr></gpxtpx:TrackPointExtension></extensions>
      </trkpt>
      <trkpt lat="59.381068977104" lon="18.01588235467">
        <ele>7.6</ele>
        <time>2018-12-15T08:55:49Z</time>
        <extensions><gpxtpx:TrackPointExtension><gpxtpx:hr>155</gpxtpx:hr></gpxtpx:TrackPointExtension></extensions>
      </trkpt>
      <trkpt lat="59.381293276748" lon="18.015938681038">
        <ele>6.6</ele>
        <time>2018-12-15T08:55:52Z</time>
        <extensions><gpxtpx:TrackPointExtension><gpxtpx:hr>155</gpxtpx:hr></gpxtpx:TrackPointExtension></extensions>
      </trkpt>
      <trkpt lat="59.381693093378" lon="18.016095422568">
        <ele>5.6</ele>
        <time>2018-12-15T08:55:57Z</time>
        <extensions><gpxtpx:TrackPointExtension><gpxtpx:hr>155</gpxtpx:hr></gpxtpx:TrackPointExtension></extensions>
      </trkpt>
      <trkpt lat="59.381934995012" lon="18.016176475541">
        <ele>4.4</ele>
        <time>2018-12-15T08:56:00Z</time>
        <extensions><gpxtpx:TrackPointExtension><gpxtpx:hr>154</gpxtpx:hr></gpxtpx:TrackPointExtension></extensions>
      </trkpt>
      <trkpt lat="59.382329782502" lon="18.016306143534">
        <ele>3.4</ele>
        <time>2018-12-15T08:56:05Z</time>
        <extensions><gpxtpx:TrackPointExtension><gpxtpx:hr>151</gpxtpx:hr></gpxtpx:TrackPointExtension></extensions>
      </trkpt>
      <trkpt lat="59.382899332607" lon="18.016508566419">
        <ele>3.2</ele>
        <time>2018-12-15T08:56:13Z</time>
        <extensions><gpxtpx:TrackPointExtension><gpxtpx:hr>151</gpxtpx:hr></gpxtpx:TrackPointExtension></extensions>
      </trkpt>
      <trkpt lat="59.38327710484" lon="18.016631864168">
        <ele>4.4</ele>
        <time>2018-12-15T08:56:19Z</time>
        <extensions><gpxtpx:TrackPointExtension><gpxtpx:hr>154</gpxtpx:hr></gpxtpx:TrackPointExtension></extensions>
      </trkpt>
      <trkpt lat="59.383570136064" lon="18.016732195511">
        <ele>5.6</ele>
        <time>2018-12-15T08:56:24Z</time>
        <extensions><gpxtpx:TrackPointExtension><gpxtpx:hr>157</gpxtpx:hr></gpxtpx:TrackPointExtension></extensions>
      </trkpt>
      <trkpt lat="59.383792507871" lon="18.016804531308">
        <ele>6.8</ele>
        <time>2018-12-15T08:56:28Z</time>
        <extensions><gpxtpx:TrackPointExtension><gpxtpx:hr>158</gpxtpx:hr></gpxtpx:TrackPointExtension></extensions>
      </trkpt>
      <trkpt lat="59.383990739806" lon="18.016872005603">
        <ele>7.8</ele>
        <time>2018-12-15T08:56:32Z</time>
        <extensions><gpxtpx:TrackPointExtension><gpxtpx:hr>160</gpxtpx:hr></gpxtpx:TrackPointExtension></extensions>
      </trkpt>
      <trkpt lat="59.38417899728" lon="18.016956495155">
        <ele>9</ele>
        <time>2018-12-15T08:56:37Z</time>
        <extensions><gpxtpx:TrackPointExtension><gpxtpx:hr>162</gpxtpx:hr></gpxtpx:TrackPointExtension></extensions>
      </trkpt>
      <trkpt lat="59.384290644188" lon="18.017001505958">
        <ele>10</ele>
        <time>2018-12-15T08:56:40Z</time>
        <extensions><gpxtpx:TrackPointExtension><gpxtpx:hr>162</gpxtpx:hr></gpxtpx:TrackPointExtension></extensions>
      </trkpt>
      <trkpt lat="59.384359375768" lon="18.017021538699">
        <ele>11.2</ele>
        <time>2018-12-15T08:56:42Z</time>
        <extensions><gpxtpx:TrackPointExtension><gpxtpx:hr>162</gpxtpx:hr></gpxtpx:TrackPointExtension></extensions>
      </trkpt>
      <trkpt lat="59.384433052669" lon="18.017049869521">
        <ele>12.4</ele>
        <time>2018-12-15T08:56:44Z</time>
        <extensions><gpxtpx:TrackPointExtension><gpxtpx:hr>162</gpxtpx:hr></gpxtpx:TrackPointExtension></extensions>
      </trkpt>
      <trkpt lat="59.384510752882" lon="18.017076943058">
        <ele>13.6</ele>
        <time>2018-12-15T08:56:46Z</time>
        <extensions><gpxtpx:TrackPointExtension><gpxtpx:hr>162</gpxtpx:hr></gpxtpx:TrackPointExtension></extensions>
      </trkpt>
      <trkpt lat="59.384767071384" lon="18.017174592193">
        <ele>15</ele>
        <time>2018-12-15T08:56:52Z</time>
        <extensions><gpxtpx:TrackPointExtension><gpxtpx:hr>163</gpxtpx:hr></gpxtpx:TrackPointExtension></extensions>
      </trkpt>
      <trkpt lat="59.384933452099" lon="18.017236702072">
        <ele>16</ele>
        <time>2018-12-15T08:56:56Z</time>
        <extensions><gpxtpx:TrackPointExtension><gpxtpx:hr>164</gpxtpx:hr></gpxtpx:TrackPointExtension></extensions>
      </trkpt>
      <trkpt lat="59.385253724498" lon="18.017366956798">
        <ele>17.2</ele>
        <time>2018-12-15T08:57:03Z</time>
        <extensions><gpxtpx:TrackPointExtension><gpxtpx:hr>164</gpxtpx:hr></gpxtpx:TrackPointExtension></extensions>
      </trkpt>
      <trkpt lat="59.385591263611" lon="18.017562757982">
        <ele>18</ele>
        <time>2018-12-15T08:57:11Z</time>
        <extensions><gpxtpx:TrackPointExtension><gpxtpx:hr>163</gpxtpx:hr></gpxtpx:TrackPointExtension></extensions>
      </trkpt>
      <trkpt lat="59.38563912426" lon="18.017593016641">
        <ele>18</ele>
        <time>2018-12-15T08:57:12Z</time>
        <extensions><gpxtpx:TrackPointExtension><gpxtpx:hr>163</gpxtpx:hr></gpxtpx:TrackPointExtension></extensions>
      </trkpt>
      <trkpt lat="59.385917738616" lon="18.017794852793">
        <ele>19.2</ele>
        <time>2018-12-15T08:57:18Z</time>
        <extensions><gpxtpx:TrackPointExtension><gpxtpx:hr>161</gpxtpx:hr></gpxtpx:TrackPointExtension></extensions>
      </trkpt>
      <trkpt lat="59.386021757995" lon="18.017856124482">
        <ele>19.2</ele>
        <time>2018-12-15T08:57:20Z</time>
        <extensions><gpxtpx:TrackPointExtension><gpxtpx:hr>160</gpxtpx:hr></gpxtpx:TrackPointExtension></extensions>
      </trkpt>
      <trkpt lat="59.386371115587" lon="18.017801893589">
        <ele>19.2</ele>
        <time>2018-12-15T08:57:25Z</time>
        <extensions><gpxtpx:TrackPointExtension><gpxtpx:hr>157</gpxtpx:hr></gpxtpx:TrackPointExtension></extensions>
      </trkpt>
      <trkpt lat="59.386620477112" lon="18.017678344383">
        <ele>18.8</ele>
        <time>2018-12-15T08:57:28Z</time>
        <extensions><gpxtpx:TrackPointExtension><gpxtpx:hr>154</gpxtpx:hr></gpxtpx:TrackPointExtension></extensions>
      </trkpt>
      <trkpt lat="59.386809069862" lon="18.017587065492">
        <ele>18</ele>
        <time>2018-12-15T08:57:30Z</time>
        <extensions><gpxtpx:TrackPointExtension><gpxtpx:hr>153</gpxtpx:hr></gpxtpx:TrackPointExtension></extensions>
      </trkpt>
      <trkpt lat="59.387012582394" lon="18.017491344194">
        <ele>16.4</ele>
        <time>2018-12-15T08:57:32Z</time>
        <extensions><gpxtpx:TrackPointExtension><gpxtpx:hr>152</gpxtpx:hr></gpxtpx:TrackPointExtension></extensions>
      </trkpt>
      <trkpt lat="59.387226320844" lon="18.017388414462">
        <ele>14.6</ele>
        <time>2018-12-15T08:57:34Z</time>
        <extensions><gpxtpx:TrackPointExtension><gpxtpx:hr>150</gpxtpx:hr></gpxtpx:TrackPointExtension></extensions>
      </trkpt>
      <trkpt lat="59.387441987131" lon="18.017279282124">
        <ele>12.4</ele>
        <time>2018-12-15T08:57:36Z</time>
        <extensions><gpxtpx:TrackPointExtension><gpxtpx:hr>147</gpxtpx:hr></gpxtpx:TrackPointExtension></extensions>
      </trkpt>
      <trkpt lat="59.387545922691" lon="18.017226979068">
        <ele>11.2</ele>
        <time>2018-12-15T08:57:37Z</time>
        <extensions><gpxtpx:TrackPointExtension><gpxtpx:hr>144</gpxtpx:hr></gpxtpx:TrackPointExtension></extensions>
      </trkpt>
      <trkpt lat="59.387644745292" lon="18.017176603849">
        <ele>10</ele>
        <time>2018-12-15T08:57:38Z</time>
        <extensions><gpxtpx:TrackPointExtension><gpxtpx:hr>141</gpxtpx:hr></gpxtpx:TrackPointExtension></extensions>
      </trkpt>
      <trkpt lat="59.387743484074" lon="18.017126144811">
        <ele>8.8</ele>
        <time>2018-12-15T08:57:39Z</time>
        <extensions><gpxtpx:TrackPointExtension><gpxtpx:hr>139</gpxtpx:hr></gpxtpx:TrackPointExtension></extensions>
      </trkpt>
      <trkpt lat="59.387838618639" lon="18.017081217827">
        <ele>7.2</ele>
        <time>2018-12-15T08:57:40Z</time>
        <extensions><gpxtpx:TrackPointExtension><gpxtpx:hr>137</gpxtpx:hr></gpxtpx:TrackPointExtension></extensions>
      </trkpt>
      <trkpt lat="59.387929646073" lon="18.017042996363">
        <ele>4.2</ele>
        <time>2018-12-15T08:57:41Z</time>
        <extensions><gpxtpx:TrackPointExtension><gpxtpx:hr>137</gpxtpx:hr></gpxtpx:TrackPointExtension></extensions>
      </trkpt>
      <trkpt lat="59.388014135625" lon="18.017005696908">
        <ele>3</ele>
        <time>2018-12-15T08:57:42Z</time>
        <extensions><gpxtpx:TrackPointExtension><gpxtpx:hr>131</gpxtpx:hr></gpxtpx:TrackPointExtension></extensions>
      </trkpt>
      <trkpt lat="59.388168530223" lon="18.016930846541">
        <ele>1.8</ele>
        <time>2018-12-15T08:57:44Z</time>
        <extensions><gpxtpx:TrackPointExtension><gpxtpx:hr>126</gpxtpx:hr></gpxtpx:TrackPointExtension></extensions>
      </trkpt>
      <trkpt lat="59.388234579595" lon="18.016886003376">
        <ele>1.6</ele>
        <time>2018-12-15T08:57:45Z</time>
        <extensions><gpxtpx:TrackPointExtension><gpxtpx:hr>125</gpxtpx:hr></gpxtpx:TrackPointExtension></extensions>
      </trkpt>
      <trkpt lat="59.388385369976" lon="18.016375545666">
        <ele>1.2</ele>
        <time>2018-12-15T08:57:50Z</time>
        <extensions><gpxtpx:TrackPointExtension><gpxtpx:hr>129</gpxtpx:hr></gpxtpx:TrackPointExtension></extensions>
      </trkpt>
      <trkpt lat="59.388388555098" lon="18.016235148841">
        <ele>1.2</ele>
        <time>2018-12-15T08:57:51Z</time>
        <extensions><gpxtpx:TrackPointExtension><gpxtpx:hr>131</gpxtpx:hr></gpxtpx:TrackPointExtension></extensions>
      </trkpt>
      <trkpt lat="59.388392746048" lon="18.015733659764">
        <ele>1.6</ele>
        <time>2018-12-15T08:57:55Z</time>
        <extensions><gpxtpx:TrackPointExtension><gpxtpx:hr>134</gpxtpx:hr></gpxtpx:TrackPointExtension></extensions>
      </trkpt>
      <trkpt lat="59.388396098808" lon="18.015508270473">
        <ele>2.6</ele>
        <time>2018-12-15T08:57:57Z</time>
        <extensions><gpxtpx:TrackPointExtension><gpxtpx:hr>137</gpxtpx:hr></gpxtpx:TrackPointExtension></extensions>
      </trkpt>
      <trkpt lat="59.388403893975" lon="18.015277097671">
        <ele>2.8</ele>
        <time>2018-12-15T08:57:59Z</time>
        <extensions><gpxtpx:TrackPointExtension><gpxtpx:hr>139</gpxtpx:hr></gpxtpx:TrackPointExtension></extensions>
      </trkpt>
      <trkpt lat="59.388417388834" lon="18.01493352359">
        <ele>3.4</ele>
        <time>2018-12-15T08:58:02Z</time>
        <extensions><gpxtpx:TrackPointExtension><gpxtpx:hr>135</gpxtpx:hr></gpxtpx:TrackPointExtension></extensions>
      </trkpt>
      <trkpt lat="59.3884353261" lon="18.01456220542">
        <ele>4</ele>
        <time>2018-12-15T08:58:05Z</time>
        <extensions><gpxtpx:TrackPointExtension><gpxtpx:hr>132</gpxtpx:hr></gpxtpx:TrackPointExtension></extensions>
      </trkpt>
      <trkpt lat="59.388449659149" lon="18.013875643991">
        <ele>4</ele>
        <time>2018-12-15T08:58:10Z</time>
        <extensions><gpxtpx:TrackPointExtension><gpxtpx:hr>135</gpxtpx:hr></gpxtpx:TrackPointExtension></extensions>
      </trkpt>
      <trkpt lat="59.388469021338" lon="18.013018427078">
        <ele>3.2</ele>
        <time>2018-12-15T08:58:17Z</time>
        <extensions><gpxtpx:TrackPointExtension><gpxtpx:hr>133</gpxtpx:hr></gpxtpx:TrackPointExtension></extensions>
      </trkpt>
      <trkpt lat="59.388452676633" lon="18.01237955866">
        <ele>3.2</ele>
        <time>2018-12-15T08:58:23Z</time>
        <extensions><gpxtpx:TrackPointExtension><gpxtpx:hr>132</gpxtpx:hr></gpxtpx:TrackPointExtension></extensions>
      </trkpt>
      <trkpt lat="59.388539596936" lon="18.012153834093">
        <ele>3.6</ele>
        <time>2018-12-15T08:58:26Z</time>
        <extensions><gpxtpx:TrackPointExtension><gpxtpx:hr>129</gpxtpx:hr></gpxtpx:TrackPointExtension></extensions>
      </trkpt>
      <trkpt lat="59.388701116149" lon="18.012057861338">
        <ele>3.8</ele>
        <time>2018-12-15T08:58:29Z</time>
        <extensions><gpxtpx:TrackPointExtension><gpxtpx:hr>127</gpxtpx:hr></gpxtpx:TrackPointExtension></extensions>
      </trkpt>
      <trkpt lat="59.389059190917" lon="18.011900281618">
        <ele>4.2</ele>
        <time>2018-12-15T08:58:36Z</time>
        <extensions><gpxtpx:TrackPointExtension><gpxtpx:hr>130</gpxtpx:hr></gpxtpx:TrackPointExtension></extensions>
      </trkpt>
      <trkpt lat="59.389403603188" lon="18.011780001353">
        <ele>4.4</ele>
        <time>2018-12-15T08:58:42Z</time>
        <extensions><gpxtpx:TrackPointExtension><gpxtpx:hr>133</gpxtpx:hr></gpxtpx:TrackPointExtension></extensions>
      </trkpt>
      <trkpt lat="59.389926130834" lon="18.011544889058">
        <ele>4.8</ele>
        <time>2018-12-15T08:58:51Z</time>
        <extensions><gpxtpx:TrackPointExtension><gpxtpx:hr>135</gpxtpx:hr></gpxtpx:TrackPointExtension></extensions>
      </trkpt>
      <trkpt lat="59.390471624886" lon="18.011368114787">
        <ele>4.8</ele>
        <time>2018-12-15T08:59:00Z</time>
        <extensions><gpxtpx:TrackPointExtension><gpxtpx:hr>137</gpxtpx:hr></gpxtpx:TrackPointExtension></extensions>
      </trkpt>
      <trkpt lat="59.390585451088" lon="18.011367360416">
        <ele>4.8</ele>
        <time>2018-12-15T08:59:02Z</time>
        <extensions><gpxtpx:TrackPointExtension><gpxtpx:hr>138</gpxtpx:hr></gpxtpx:TrackPointExtension></extensions>
      </trkpt>
      <trkpt lat="59.390758285866" lon="18.011415975436">
        <ele>5</ele>
        <time>2018-12-15T08:59:05Z</time>
        <extensions><gpxtpx:TrackPointExtension><gpxtpx:hr>141</gpxtpx:hr></gpxtpx:TrackPointExtension></extensions>
      </trkpt>
      <trkpt lat="59.390814444596" lon="18.01144665319">
        <ele>5</ele>
        <time>2018-12-15T08:59:06Z</time>
        <extensions><gpxtpx:TrackPointExtension><gpxtpx:hr>142</gpxtpx:hr></gpxtpx:TrackPointExtension></extensions>
      </trkpt>
      <trkpt lat="59.391072188021" lon="18.011651003912">
        <ele>5.4</ele>
        <time>2018-12-15T08:59:11Z</time>
        <extensions><gpxtpx:TrackPointExtension><gpxtpx:hr>145</gpxtpx:hr></gpxtpx:TrackPointExtension></extensions>
      </trkpt>
      <trkpt lat="59.391173022278" lon="18.011722752976">
        <ele>5.8</ele>
        <time>2018-12-15T08:59:13Z</time>
        <extensions><gpxtpx:TrackPointExtension><gpxtpx:hr>145</gpxtpx:hr></gpxtpx:TrackPointExtension></extensions>
      </trkpt>
      <trkpt lat="59.391352814033" lon="18.011830711848">
        <ele>6.2</ele>
        <time>2018-12-15T08:59:17Z</time>
        <extensions><gpxtpx:TrackPointExtension><gpxtpx:hr>146</gpxtpx:hr></gpxtpx:TrackPointExtension></extensions>
      </trkpt>
      <trkpt lat="59.391485834786" lon="18.01182719145">
        <ele>7</ele>
        <time>2018-12-15T08:59:20Z</time>
        <extensions><gpxtpx:TrackPointExtension><gpxtpx:hr>148</gpxtpx:hr></gpxtpx:TrackPointExtension></extensions>
      </trkpt>
      <trkpt lat="59.391619526091" lon="18.011788131796">
        <ele>8.2</ele>
        <time>2018-12-15T08:59:23Z</time>
        <extensions><gpxtpx:TrackPointExtension><gpxtpx:hr>151</gpxtpx:hr></gpxtpx:TrackPointExtension></extensions>
      </trkpt>
      <trkpt lat="59.391765119694" lon="18.011711102135">
        <ele>9.2</ele>
        <time>2018-12-15T08:59:26Z</time>
        <extensions><gpxtpx:TrackPointExtension><gpxtpx:hr>154</gpxtpx:hr></gpxtpx:TrackPointExtension></extensions>
      </trkpt>
      <trkpt lat="59.391819769682" lon="18.011692997231">
        <ele>9.6</ele>
        <time>2018-12-15T08:59:27Z</time>
        <extensions><gpxtpx:TrackPointExtension><gpxtpx:hr>155</gpxtpx:hr></gpxtpx:TrackPointExtension></extensions>
      </trkpt>
      <trkpt lat="59.391876179869" lon="18.011684280055">
        <ele>10.4</ele>
        <time>2018-12-15T08:59:28Z</time>
        <extensions><gpxtpx:TrackPointExtension><gpxtpx:hr>156</gpxtpx:hr></gpxtpx:TrackPointExtension></extensions>
      </trkpt>
      <trkpt lat="59.392160661555" lon="18.011608256222">
        <ele>10.8</ele>
        <time>2018-12-15T08:59:33Z</time>
        <extensions><gpxtpx:TrackPointExtension><gpxtpx:hr>159</gpxtpx:hr></gpxtpx:TrackPointExtension></extensions>
      </trkpt>
      <trkpt lat="59.392213132249" lon="18.011598617037">
        <ele>11</ele>
        <time>2018-12-15T08:59:34Z</time>
        <extensions><gpxtpx:TrackPointExtension><gpxtpx:hr>159</gpxtpx:hr></gpxtpx:TrackPointExtension></extensions>
      </trkpt>
      <trkpt lat="59.392757704292" lon="18.011349506969">
        <ele>11.2</ele>
        <time>2018-12-15T08:59:44Z</time>
        <extensions><gpxtpx:TrackPointExtension><gpxtpx:hr>160</gpxtpx:hr></gpxtpx:TrackPointExtension></extensions>
      </trkpt>
      <trkpt lat="59.392812521918" lon="18.011306340184">
        <ele>11.4</ele>
        <time>2018-12-15T08:59:45Z</time>
        <extensions><gpxtpx:TrackPointExtension><gpxtpx:hr>161</gpxtpx:hr></gpxtpx:TrackPointExtension></extensions>
      </trkpt>
      <trkpt lat="59.393313172805" lon="18.010896213817">
        <ele>11.6</ele>
        <time>2018-12-15T08:59:52Z</time>
        <extensions><gpxtpx:TrackPointExtension><gpxtpx:hr>160</gpxtpx:hr></gpxtpx:TrackPointExtension></extensions>
      </trkpt>
      <trkpt lat="59.393678875102" lon="18.010622544782">
        <ele>10.8</ele>
        <time>2018-12-15T08:59:56Z</time>
        <extensions><gpxtpx:TrackPointExtension><gpxtpx:hr>157</gpxtpx:hr></gpxtpx:TrackPointExtension></extensions>
      </trkpt>
      <trkpt lat="59.393762107369" lon="18.010539563972">
        <ele>9.8</ele>
        <time>2018-12-15T08:59:57Z</time>
        <extensions><gpxtpx:TrackPointExtension><gpxtpx:hr>157</gpxtpx:hr></gpxtpx:TrackPointExtension></extensions>
      </trkpt>
      <trkpt lat="59.393836371003" lon="18.010445435235">
        <ele>8.4</ele>
        <time>2018-12-15T08:59:58Z</time>
        <extensions><gpxtpx:TrackPointExtension><gpxtpx:hr>156</gpxtpx:hr></gpxtpx:TrackPointExtension></extensions>
      </trkpt>
      <trkpt lat="59.393897055959" lon="18.010322556581">
        <ele>7</ele>
        <time>2018-12-15T08:59:59Z</time>
        <extensions><gpxtpx:TrackPointExtension><gpxtpx:hr>155</gpxtpx:hr></gpxtpx:TrackPointExtension></extensions>
      </trkpt>
      <trkpt lat="59.393956902725" lon="18.010177968806">
        <ele>5.6</ele>
        <time>2018-12-15T09:00:00Z</time>
        <extensions><gpxtpx:TrackPointExtension><gpxtpx:hr>155</gpxtpx:hr></gpxtpx:TrackPointExtension></extensions>
      </trkpt>
      <trkpt lat="59.39401012779" lon="18.010031872289">
        <ele>4.2</ele>
        <time>2018-12-15T09:00:01Z</time>
        <extensions><gpxtpx:TrackPointExtension><gpxtpx:hr>154</gpxtpx:hr></gpxtpx:TrackPointExtension></extensions>
      </trkpt>
      <trkpt lat="59.394096628998" lon="18.00976608224">
        <ele>2.6</ele>
        <time>2018-12-15T09:00:03Z</time>
        <extensions><gpxtpx:TrackPointExtension><gpxtpx:hr>152</gpxtpx:hr></gpxtpx:TrackPointExtension></extensions>
      </trkpt>
      <trkpt lat="59.394169048614" lon="18.009534825619">
        <ele>1</ele>
        <time>2018-12-15T09:00:05Z</time>
        <extensions><gpxtpx:TrackPointExtension><gpxtpx:hr>151</gpxtpx:hr></gpxtpx:TrackPointExtension></extensions>
      </trkpt>
      <trkpt lat="59.394192685572" lon="18.009433739905">
        <ele>0.6</ele>
        <time>2018-12-15T09:00:06Z</time>
        <extensions><gpxtpx:TrackPointExtension><gpxtpx:hr>149</gpxtpx:hr></gpxtpx:TrackPointExtension></extensions>
      </trkpt>
      <trkpt lat="59.394278851504" lon="18.009211451917">
        <ele>0.4</ele>
        <time>2018-12-15T09:00:09Z</time>
        <extensions><gpxtpx:TrackPointExtension><gpxtpx:hr>146</gpxtpx:hr></gpxtpx:TrackPointExtension></extensions>
      </trkpt>
      <trkpt lat="59.394659305945" lon="18.008360940524">
        <ele>0.4</ele>
        <time>2018-12-15T09:00:18Z</time>
        <extensions><gpxtpx:TrackPointExtension><gpxtpx:hr>145</gpxtpx:hr></gpxtpx:TrackPointExtension></extensions>
      </trkpt>
      <trkpt lat="59.394695264296" lon="18.008255077127">
        <ele>0.4</ele>
        <time>2018-12-15T09:00:19Z</time>
        <extensions><gpxtpx:TrackPointExtension><gpxtpx:hr>144</gpxtpx:hr></gpxtpx:TrackPointExtension></extensions>
      </trkpt>
      <trkpt lat="59.395021236387" lon="18.007244722901">
        <ele>0.4</ele>
        <time>2018-12-15T09:00:28Z</time>
        <extensions><gpxtpx:TrackPointExtension><gpxtpx:hr>146</gpxtpx:hr></gpxtpx:TrackPointExtension></extensions>
      </trkpt>
      <trkpt lat="59.395379394974" lon="18.00645439355">
        <ele>0</ele>
        <time>2018-12-15T09:00:36Z</time>
        <extensions><gpxtpx:TrackPointExtension><gpxtpx:hr>148</gpxtpx:hr></gpxtpx:TrackPointExtension></extensions>
      </trkpt>
      <trkpt lat="59.395633785639" lon="18.005753415253">
        <ele>0</ele>
        <time>2018-12-15T09:00:43Z</time>
        <extensions><gpxtpx:TrackPointExtension><gpxtpx:hr>151</gpxtpx:hr></gpxtpx:TrackPointExtension></extensions>
      </trkpt>
      <trkpt lat="59.395752389524" lon="18.005348150388">
        <ele>1</ele>
        <time>2018-12-15T09:00:48Z</time>
        <extensions><gpxtpx:TrackPointExtension><gpxtpx:hr>152</gpxtpx:hr></gpxtpx:TrackPointExtension></extensions>
      </trkpt>
      <trkpt lat="59.3958281619" lon="18.005196437998">
        <ele>2</ele>
        <time>2018-12-15T09:00:50Z</time>
        <extensions><gpxtpx:TrackPointExtension><gpxtpx:hr>153</gpxtpx:hr></gpxtpx:TrackPointExtension></extensions>
      </trkpt>
      <trkpt lat="59.395904688647" lon="18.004976245485">
        <ele>2.4</ele>
        <time>2018-12-15T09:00:52Z</time>
        <extensions><gpxtpx:TrackPointExtension><gpxtpx:hr>154</gpxtpx:hr></gpxtpx:TrackPointExtension></extensions>
      </trkpt>
      <trkpt lat="59.39597987429" lon="18.004783629423">
        <ele>2.6</ele>
        <time>2018-12-15T09:00:54Z</time>
        <extensions><gpxtpx:TrackPointExtension><gpxtpx:hr>154</gpxtpx:hr></gpxtpx:TrackPointExtension></extensions>
      </trkpt>
      <trkpt lat="59.396516148252" lon="18.004365288794">
        <ele>2.4</ele>
        <time>2018-12-15T09:01:02Z</time>
        <extensions><gpxtpx:TrackPointExtension><gpxtpx:hr>156</gpxtpx:hr></gpxtpx:TrackPointExtension></extensions>
      </trkpt>
      <trkpt lat="59.396863410369" lon="18.004114250889">
        <ele>0.8</ele>
        <time>2018-12-15T09:01:07Z</time>
        <extensions><gpxtpx:TrackPointExtension><gpxtpx:hr>156</gpxtpx:hr></gpxtpx:TrackPointExtension></extensions>
      </trkpt>
      <trkpt lat="59.397409239697" lon="18.00378224383">
        <ele>0.4</ele>
        <time>2018-12-15T09:01:15Z</time>
        <extensions><gpxtpx:TrackPointExtension><gpxtpx:hr>156</gpxtpx:hr></gpxtpx:TrackPointExtension></extensions>
      </trkpt>
      <trkpt lat="59.397939478691" lon="18.003485608389">
        <ele>1</ele>
        <time>2018-12-15T09:01:23Z</time>
        <extensions><gpxtpx:TrackPointExtension><gpxtpx:hr>155</gpxtpx:hr></gpxtpx:TrackPointExtension></extensions>
      </trkpt>
      <trkpt lat="59.398176602642" lon="18.003363400287">
        <ele>1.2</ele>
        <time>2018-12-15T09:01:27Z</time>
        <extensions><gpxtpx:TrackPointExtension><gpxtpx:hr>155</gpxtpx:hr></gpxtpx:TrackPointExtension></extensions>
      </trkpt>
      <trkpt lat="59.398453540618" lon="18.003200456151">
        <ele>1.8</ele>
        <time>2018-12-15T09:01:32Z</time>
        <extensions><gpxtpx:TrackPointExtension><gpxtpx:hr>157</gpxtpx:hr></gpxtpx:TrackPointExtension></extensions>
      </trkpt>
      <trkpt lat="59.39861765822" lon="18.003121247196">
        <ele>3</ele>
        <time>2018-12-15T09:01:35Z</time>
        <extensions><gpxtpx:TrackPointExtension><gpxtpx:hr>158</gpxtpx:hr></gpxtpx:TrackPointExtension></extensions>
      </trkpt>
      <trkpt lat="59.398840868217" lon="18.003006331347">
        <ele>4.2</ele>
        <time>2018-12-15T09:01:39Z</time>
        <extensions><gpxtpx:TrackPointExtension><gpxtpx:hr>159</gpxtpx:hr></gpxtpx:TrackPointExtension></extensions>
      </trkpt>
      <trkpt lat="59.399145550282" lon="18.002839699175">
        <ele>5.2</ele>
        <time>2018-12-15T09:01:45Z</time>
        <extensions><gpxtpx:TrackPointExtension><gpxtpx:hr>159</gpxtpx:hr></gpxtpx:TrackPointExtension></extensions>
      </trkpt>
      <trkpt lat="59.399267758384" lon="18.002692010097">
        <ele>5.4</ele>
        <time>2018-12-15T09:01:48Z</time>
        <extensions><gpxtpx:TrackPointExtension><gpxtpx:hr>158</gpxtpx:hr></gpxtpx:TrackPointExtension></extensions>
      </trkpt>
      <trkpt lat="59.399489794915" lon="18.00277976859">
        <ele>5.4</ele>
        <time>2018-12-15T09:01:52Z</time>
        <extensions><gpxtpx:TrackPointExtension><gpxtpx:hr>156</gpxtpx:hr></gpxtpx:TrackPointExtension></extensions>
      </trkpt>
      <trkpt lat="59.399744772313" lon="18.002599390102">
        <ele>5.4</ele>
        <time>2018-12-15T09:01:56Z</time>
        <extensions><gpxtpx:TrackPointExtension><gpxtpx:hr>153</gpxtpx:hr></gpxtpx:TrackPointExtension></extensions>
      </trkpt>
      <trkpt lat="59.399819287404" lon="18.002536944947">
        <ele>5.4</ele>
        <time>2018-12-15T09:01:57Z</time>
        <extensions><gpxtpx:TrackPointExtension><gpxtpx:hr>152</gpxtpx:hr></gpxtpx:TrackPointExtension></extensions>
      </trkpt>
      <trkpt lat="59.400046939808" lon="18.002435607776">
        <ele>4</ele>
        <time>2018-12-15T09:02:00Z</time>
        <extensions><gpxtpx:TrackPointExtension><gpxtpx:hr>149</gpxtpx:hr></gpxtpx:TrackPointExtension></extensions>
      </trkpt>
      <trkpt lat="59.400188091004" lon="18.002382550349">
        <ele>3</ele>
        <time>2018-12-15T09:02:02Z</time>
        <extensions><gpxtpx:TrackPointExtension><gpxtpx:hr>147</gpxtpx:hr></gpxtpx:TrackPointExtension></extensions>
      </trkpt>
      <trkpt lat="59.400314657694" lon="18.002322787402">
        <ele>1.4</ele>
        <time>2018-12-15T09:02:04Z</time>
        <extensions><gpxtpx:TrackPointExtension><gpxtpx:hr>145</gpxtpx:hr></gpxtpx:TrackPointExtension></extensions>
      </trkpt>
      <trkpt lat="59.400433261579" lon="18.002209380295">
        <ele>0</ele>
        <time>2018-12-15T09:02:06Z</time>
        <extensions><gpxtpx:TrackPointExtension><gpxtpx:hr>143</gpxtpx:hr></gpxtpx:TrackPointExtension></extensions>
      </trkpt>
      <trkpt lat="59.40058237558" lon="18.001944512255">
        <ele>0</ele>
        <time>2018-12-15T09:02:09Z</time>
        <extensions><gpxtpx:TrackPointExtension><gpxtpx:hr>142</gpxtpx:hr></gpxtpx:TrackPointExtension></extensions>
      </trkpt>
      <trkpt lat="59.400659321422" lon="18.001749968356">
        <ele>0</ele>
        <time>2018-12-15T09:02:11Z</time>
        <extensions><gpxtpx:TrackPointExtension><gpxtpx:hr>142</gpxtpx:hr></gpxtpx:TrackPointExtension></extensions>
      </trkpt>
      <trkpt lat="59.400765520095" lon="18.001442604083">
        <ele>0</ele>
        <time>2018-12-15T09:02:14Z</time>
        <extensions><gpxtpx:TrackPointExtension><gpxtpx:hr>142</gpxtpx:hr></gpxtpx:TrackPointExtension></extensions>
      </trkpt>
      <trkpt lat="59.400963249116" lon="18.000957292073">
        <ele>0</ele>
        <time>2018-12-15T09:02:19Z</time>
        <extensions><gpxtpx:TrackPointExtension><gpxtpx:hr>144</gpxtpx:hr></gpxtpx:TrackPointExtension></extensions>
      </trkpt>
      <trkpt lat="59.400997028173" lon="18.000870790865">
        <ele>0</ele>
        <time>2018-12-15T09:02:20Z</time>
        <extensions><gpxtpx:TrackPointExtension><gpxtpx:hr>144</gpxtpx:hr></gpxtpx:TrackPointExtension></extensions>
      </trkpt>
      <trkpt lat="59.401254268684" lon="18.000753779541">
        <ele>0.8</ele>
        <time>2018-12-15T09:02:25Z</time>
        <extensions><gpxtpx:TrackPointExtension><gpxtpx:hr>141</gpxtpx:hr></gpxtpx:TrackPointExtension></extensions>
      </trkpt>
      <trkpt lat="59.40129735165" lon="18.000783367648">
        <ele>1</ele>
        <time>2018-12-15T09:02:26Z</time>
        <extensions><gpxtpx:TrackPointExtension><gpxtpx:hr>140</gpxtpx:hr></gpxtpx:TrackPointExtension></extensions>
      </trkpt>
      <trkpt lat="59.401334399648" lon="18.000814045402">
        <ele>1</ele>
        <time>2018-12-15T09:02:27Z</time>
        <extensions><gpxtpx:TrackPointExtension><gpxtpx:hr>139</gpxtpx:hr></gpxtpx:TrackPointExtension></extensions>
      </trkpt>
      <trkpt lat="59.401367424334" lon="18.000818739266">
        <ele>1</ele>
        <time>2018-12-15T09:02:28Z</time>
        <extensions><gpxtpx:TrackPointExtension><gpxtpx:hr>139</gpxtpx:hr></gpxtpx:TrackPointExtension></extensions>
      </trkpt>
      <trkpt lat="59.401503043476" lon="18.000672894206">
        <ele>1.2</ele>
        <time>2018-12-15T09:02:32Z</time>
        <extensions><gpxtpx:TrackPointExtension><gpxtpx:hr>137</gpxtpx:hr></gpxtpx:TrackPointExtension></extensions>
      </trkpt>
      <trkpt lat="59.401655174961" lon="18.000373157462">
        <ele>1</ele>
        <time>2018-12-15T09:02:36Z</time>
        <extensions><gpxtpx:TrackPointExtension><gpxtpx:hr>137</gpxtpx:hr></gpxtpx:TrackPointExtension></extensions>
      </trkpt>
      <trkpt lat="59.401770509905" lon="17.999943501268">
        <ele>0.8</ele>
        <time>2018-12-15T09:02:40Z</time>
        <extensions><gpxtpx:TrackPointExtension><gpxtpx:hr>140</gpxtpx:hr></gpxtpx:TrackPointExtension></extensions>
      </trkpt>
      <trkpt lat="59.401818202916" lon="17.999739150546">
        <ele>0.6</ele>
        <time>2018-12-15T09:02:42Z</time>
        <extensions><gpxtpx:TrackPointExtension><gpxtpx:hr>141</gpxtpx:hr></gpxtpx:TrackPointExtension></extensions>
      </trkpt>
      <trkpt lat="59.402066307156" lon="17.999237493831">
        <ele>0.6</ele>
        <time>2018-12-15T09:02:49Z</time>
        <extensions><gpxtpx:TrackPointExtension><gpxtpx:hr>141</gpxtpx:hr></gpxtpx:TrackPointExtension></extensions>
      </trkpt>
      <trkpt lat="59.402106707914" lon="17.998983941356">
        <ele>1</ele>
        <time>2018-12-15T09:02:53Z</time>
        <extensions><gpxtpx:TrackPointExtension><gpxtpx:hr>143</gpxtpx:hr></gpxtpx:TrackPointExtension></extensions>
      </trkpt>
      <trkpt lat="59.402224976523" lon="17.998693508521">
        <ele>1.2</ele>
        <time>2018-12-15T09:02:57Z</time>
        <extensions><gpxtpx:TrackPointExtension><gpxtpx:hr>146</gpxtpx:hr></gpxtpx:TrackPointExtension></extensions>
      </trkpt>
      <trkpt lat="59.402280632339" lon="17.998612790824">
        <ele>1.2</ele>
        <time>2018-12-15T09:02:58Z</time>
        <extensions><gpxtpx:TrackPointExtension><gpxtpx:hr>147</gpxtpx:hr></gpxtpx:TrackPointExtension></extensions>
      </trkpt>
      <trkpt lat="59.402334527956" lon="17.998522685399">
        <ele>1.2</ele>
        <time>2018-12-15T09:02:59Z</time>
        <extensions><gpxtpx:TrackPointExtension><gpxtpx:hr>147</gpxtpx:hr></gpxtpx:TrackPointExtension></extensions>
      </trkpt>
      <trkpt lat="59.402474338048" lon="17.998257482083">
        <ele>1.2</ele>
        <time>2018-12-15T09:03:02Z</time>
        <extensions><gpxtpx:TrackPointExtension><gpxtpx:hr>149</gpxtpx:hr></gpxtpx:TrackPointExtension></extensions>
      </trkpt>
      <trkpt lat="59.402686567756" lon="17.998244657776">
        <ele>1.2</ele>
        <time>2018-12-15T09:03:06Z</time>
        <extensions><gpxtpx:TrackPointExtension><gpxtpx:hr>149</gpxtpx:hr></gpxtpx:TrackPointExtension></extensions>
      </trkpt>
      <trkpt lat="59.403196774009" lon="17.998173830721">
        <ele>0.4</ele>
        <time>2018-12-15T09:03:14Z</time>
        <extensions><gpxtpx:TrackPointExtension><gpxtpx:hr>149</gpxtpx:hr></gpxtpx:TrackPointExtension></extensions>
      </trkpt>
      <trkpt lat="59.403683175666" lon="17.99811440305">
        <ele>0.4</ele>
        <time>2018-12-15T09:03:21Z</time>
        <extensions><gpxtpx:TrackPointExtension><gpxtpx:hr>148</gpxtpx:hr></gpxtpx:TrackPointExtension></extensions>
      </trkpt>
      <trkpt lat="59.40408181883" lon="17.99786043148">
        <ele>0.2</ele>
        <time>2018-12-15T09:03:27Z</time>
        <extensions><gpxtpx:TrackPointExtension><gpxtpx:hr>148</gpxtpx:hr></gpxtpx:TrackPointExtension></extensions>
      </trkpt>
      <trkpt lat="59.404206122407" lon="17.997808966614">
        <ele>0</ele>
        <time>2018-12-15T09:03:29Z</time>
        <extensions><gpxtpx:TrackPointExtension><gpxtpx:hr>148</gpxtpx:hr></gpxtpx:TrackPointExtension></extensions>
      </trkpt>
      <trkpt lat="59.404497393432" lon="17.99714880817">
        <ele>0</ele>
        <time>2018-12-15T09:03:36Z</time>
        <extensions><gpxtpx:TrackPointExtension><gpxtpx:hr>148</gpxtpx:hr></gpxtpx:TrackPointExtension></extensions>
      </trkpt>
      <trkpt lat="59.404608369788" lon="17.996910426934">
        <ele>0</ele>
        <time>2018-12-15T09:03:39Z</time>
        <extensions><gpxtpx:TrackPointExtension><gpxtpx:hr>149</gpxtpx:hr></gpxtpx:TrackPointExtension></extensions>
      </trkpt>
      <trkpt lat="59.404747257871" lon="17.996785955719">
        <ele>0</ele>
        <time>2018-12-15T09:03:42Z</time>
        <extensions><gpxtpx:TrackPointExtension><gpxtpx:hr>150</gpxtpx:hr></gpxtpx:TrackPointExtension></extensions>
      </trkpt>
      <trkpt lat="59.404869046878" lon="17.996626196705">
        <ele>0.4</ele>
        <time>2018-12-15T09:03:45Z</time>
        <extensions><gpxtpx:TrackPointExtension><gpxtpx:hr>150</gpxtpx:hr></gpxtpx:TrackPointExtension></extensions>
      </trkpt>
      <trkpt lat="59.405027548607" lon="17.996532570882">
        <ele>0.6</ele>
        <time>2018-12-15T09:03:48Z</time>
        <extensions><gpxtpx:TrackPointExtension><gpxtpx:hr>148</gpxtpx:hr></gpxtpx:TrackPointExtension></extensions>
      </trkpt>
      <trkpt lat="59.405181775567" lon="17.996411368608">
        <ele>1</ele>
        <time>2018-12-15T09:03:51Z</time>
        <extensions><gpxtpx:TrackPointExtension><gpxtpx:hr>147</gpxtpx:hr></gpxtpx:TrackPointExtension></extensions>
      </trkpt>
      <trkpt lat="59.40547405242" lon="17.996269463041">
        <ele>1</ele>
        <time>2018-12-15T09:03:56Z</time>
        <extensions><gpxtpx:TrackPointExtension><gpxtpx:hr>144</gpxtpx:hr></gpxtpx:TrackPointExtension></extensions>
      </trkpt>
      <trkpt lat="59.405673625459" lon="17.99617147863">
        <ele>0.8</ele>
        <time>2018-12-15T09:03:59Z</time>
        <extensions><gpxtpx:TrackPointExtension><gpxtpx:hr>142</gpxtpx:hr></gpxtpx:TrackPointExtension></extensions>
      </trkpt>
      <trkpt lat="59.405930195418" lon="17.996365351977">
        <ele>0.6</ele>
        <time>2018-12-15T09:04:03Z</time>
        <extensions><gpxtpx:TrackPointExtension><gpxtpx:hr>141</gpxtpx:hr></gpxtpx:TrackPointExtension></extensions>
      </trkpt>
      <trkpt lat="59.405996077152" lon="17.996438442145">
        <ele>0.6</ele>
        <time>2018-12-15T09:04:04Z</time>
        <extensions><gpxtpx:TrackPointExtension><gpxtpx:hr>140</gpxtpx:hr></gpxtpx:TrackPointExtension></extensions>
      </trkpt>
      <trkpt lat="59.406435959264" lon="17.996409273133">
        <ele>0.2</ele>
        <time>2018-12-15T09:04:10Z</time>
        <extensions><gpxtpx:TrackPointExtension><gpxtpx:hr>141</gpxtpx:hr></gpxtpx:TrackPointExtension></extensions>
      </trkpt>
      <trkpt lat="59.406576356089" lon="17.996342804666">
        <ele>0.2</ele>
        <time>2018-12-15T09:04:12Z</time>
        <extensions><gpxtpx:TrackPointExtension><gpxtpx:hr>142</gpxtpx:hr></gpxtpx:TrackPointExtension></extensions>
      </trkpt>
      <trkpt lat="59.407014561821" lon="17.996162593816">
        <ele>0</ele>
        <time>2018-12-15T09:04:19Z</time>
        <extensions><gpxtpx:TrackPointExtension><gpxtpx:hr>143</gpxtpx:hr></gpxtpx:TrackPointExtension></extensions>
      </trkpt>
      <trkpt lat="59.407070636732" lon="17.996137448116">
        <ele>0</ele>
        <time>2018-12-15T09:04:20Z</time>
        <extensions><gpxtpx:TrackPointExtension><gpxtpx:hr>143</gpxtpx:hr></gpxtpx:TrackPointExtension></extensions>
      </trkpt>
      <trkpt lat="59.407312286909" lon="17.996030159796">
        <ele>0.4</ele>
        <time>2018-12-15T09:04:24Z</time>
        <extensions><gpxtpx:TrackPointExtension><gpxtpx:hr>144</gpxtpx:hr></gpxtpx:TrackPointExtension></extensions>
      </trkpt>
      <trkpt lat="59.407585536849" lon="17.995978443473">
        <ele>0.4</ele>
        <time>2018-12-15T09:04:28Z</time>
        <extensions><gpxtpx:TrackPointExtension><gpxtpx:hr>144</gpxtpx:hr></gpxtpx:TrackPointExtension></extensions>
      </trkpt>
      <trkpt lat="59.407974876104" lon="17.995786414144">
        <ele>0.2</ele>
        <time>2018-12-15T09:04:34Z</time>
        <extensions><gpxtpx:TrackPointExtension><gpxtpx:hr>148</gpxtpx:hr></gpxtpx:TrackPointExtension></extensions>
      </trkpt>
      <trkpt lat="59.408223064163" lon="17.99570628318">
        <ele>0.2</ele>
        <time>2018-12-15T09:04:38Z</time>
        <extensions><gpxtpx:TrackPointExtension><gpxtpx:hr>151</gpxtpx:hr></gpxtpx:TrackPointExtension></extensions>
      </trkpt>
      <trkpt lat="59.408497571388" lon="17.995442840063">
        <ele>0.2</ele>
        <time>2018-12-15T09:04:43Z</time>
        <extensions><gpxtpx:TrackPointExtension><gpxtpx:hr>154</gpxtpx:hr></gpxtpx:TrackPointExtension></extensions>
      </trkpt>
      <trkpt lat="59.408758416116" lon="17.99510446276">
        <ele>0.2</ele>
        <time>2018-12-15T09:04:48Z</time>
        <extensions><gpxtpx:TrackPointExtension><gpxtpx:hr>154</gpxtpx:hr></gpxtpx:TrackPointExtension></extensions>
      </trkpt>
      <trkpt lat="59.40899864137" lon="17.995136146342">
        <ele>0.6</ele>
        <time>2018-12-15T09:04:52Z</time>
        <extensions><gpxtpx:TrackPointExtension><gpxtpx:hr>153</gpxtpx:hr></gpxtpx:TrackPointExtension></extensions>
      </trkpt>
      <trkpt lat="59.409288236015" lon="17.995444851719">
        <ele>0.6</ele>
        <time>2018-12-15T09:04:58Z</time>
        <extensions><gpxtpx:TrackPointExtension><gpxtpx:hr>153</gpxtpx:hr></gpxtpx:TrackPointExtension></extensions>
      </trkpt>
      <trkpt lat="59.409380185458" lon="17.995623134732">
        <ele>0.8</ele>
        <time>2018-12-15T09:05:02Z</time>
        <extensions><gpxtpx:TrackPointExtension><gpxtpx:hr>152</gpxtpx:hr></gpxtpx:TrackPointExtension></extensions>
      </trkpt>
      <trkpt lat="59.409461154612" lon="17.995582566336">
        <ele>0.8</ele>
        <time>2018-12-15T09:05:05Z</time>
        <extensions><gpxtpx:TrackPointExtension><gpxtpx:hr>149</gpxtpx:hr></gpxtpx:TrackPointExtension></extensions>
      </trkpt>
      <trkpt lat="59.409528880364" lon="17.995504949942">
        <ele>0.8</ele>
        <time>2018-12-15T09:05:07Z</time>
        <extensions><gpxtpx:TrackPointExtension><gpxtpx:hr>145</gpxtpx:hr></gpxtpx:TrackPointExtension></extensions>
      </trkpt>
      <trkpt lat="59.409603982188" lon="17.995408390454">
        <ele>0.8</ele>
        <time>2018-12-15T09:05:09Z</time>
        <extensions><gpxtpx:TrackPointExtension><gpxtpx:hr>142</gpxtpx:hr></gpxtpx:TrackPointExtension></extensions>
      </trkpt>
      <trkpt lat="59.409643041842" lon="17.995351980267">
        <ele>0.8</ele>
        <time>2018-12-15T09:05:10Z</time>
        <extensions><gpxtpx:TrackPointExtension><gpxtpx:hr>141</gpxtpx:hr></gpxtpx:TrackPointExtension></extensions>
      </trkpt>
      <trkpt lat="59.40995082521" lon="17.994805815663">
        <ele>0</ele>
        <time>2018-12-15T09:05:17Z</time>
        <extensions><gpxtpx:TrackPointExtension><gpxtpx:hr>140</gpxtpx:hr></gpxtpx:TrackPointExtension></extensions>
      </trkpt>
      <trkpt lat="59.410139920874" lon="17.994455284605">
        <ele>0</ele>
        <time>2018-12-15T09:05:22Z</time>
        <extensions><gpxtpx:TrackPointExtension><gpxtpx:hr>143</gpxtpx:hr></gpxtpx:TrackPointExtension></extensions>
      </trkpt>
      <trkpt lat="59.410237570009" lon="17.994324359327">
        <ele>0</ele>
        <time>2018-12-15T09:05:24Z</time>
        <extensions><gpxtpx:TrackPointExtension><gpxtpx:hr>143</gpxtpx:hr></gpxtpx:TrackPointExtension></extensions>
      </trkpt>
      <trkpt lat="59.410551220707" lon="17.993700326872">
        <ele>0</ele>
        <time>2018-12-15T09:05:31Z</time>
        <extensions><gpxtpx:TrackPointExtension><gpxtpx:hr>144</gpxtpx:hr></gpxtpx:TrackPointExtension></extensions>
      </trkpt>
      <trkpt lat="59.410634620612" lon="17.993549368853">
        <ele>0</ele>
        <time>2018-12-15T09:05:33Z</time>
        <extensions><gpxtpx:TrackPointExtension><gpxtpx:hr>144</gpxtpx:hr></gpxtpx:TrackPointExtension></extensions>
      </trkpt>
      <trkpt lat="59.410878030988" lon="17.992622079256">
        <ele>0</ele>
        <time>2018-12-15T09:05:42Z</time>
        <extensions><gpxtpx:TrackPointExtension><gpxtpx:hr>146</gpxtpx:hr></gpxtpx:TrackPointExtension></extensions>
      </trkpt>
      <trkpt lat="59.410973668467" lon="17.992384452391">
        <ele>0</ele>
        <time>2018-12-15T09:05:45Z</time>
        <extensions><gpxtpx:TrackPointExtension><gpxtpx:hr>146</gpxtpx:hr></gpxtpx:TrackPointExtension></extensions>
      </trkpt>
      <trkpt lat="59.411002837479" lon="17.992076249928">
        <ele>0</ele>
        <time>2018-12-15T09:05:48Z</time>
        <extensions><gpxtpx:TrackPointExtension><gpxtpx:hr>143</gpxtpx:hr></gpxtpx:TrackPointExtension></extensions>
      </trkpt>
      <trkpt lat="59.410924382895" lon="17.991687245949">
        <ele>0</ele>
        <time>2018-12-15T09:05:52Z</time>
        <extensions><gpxtpx:TrackPointExtension><gpxtpx:hr>141</gpxtpx:hr></gpxtpx:TrackPointExtension></extensions>
      </trkpt>
      <trkpt lat="59.410910385122" lon="17.991588004253">
        <ele>0</ele>
        <time>2018-12-15T09:05:53Z</time>
        <extensions><gpxtpx:TrackPointExtension><gpxtpx:hr>140</gpxtpx:hr></gpxtpx:TrackPointExtension></extensions>
      </trkpt>
      <trkpt lat="59.410888173087" lon="17.990598018044">
        <ele>0</ele>
        <time>2018-12-15T09:06:01Z</time>
        <extensions><gpxtpx:TrackPointExtension><gpxtpx:hr>141</gpxtpx:hr></gpxtpx:TrackPointExtension></extensions>
      </trkpt>
      <trkpt lat="59.410906697086" lon="17.990331389805">
        <ele>0.2</ele>
        <time>2018-12-15T09:06:03Z</time>
        <extensions><gpxtpx:TrackPointExtension><gpxtpx:hr>142</gpxtpx:hr></gpxtpx:TrackPointExtension></extensions>
      </trkpt>
      <trkpt lat="59.410969393698" lon="17.989959317264">
        <ele>0</ele>
        <time>2018-12-15T09:06:06Z</time>
        <extensions><gpxtpx:TrackPointExtension><gpxtpx:hr>142</gpxtpx:hr></gpxtpx:TrackPointExtension></extensions>
      </trkpt>
      <trkpt lat="59.411156477706" lon="17.989640637426">
        <ele>0</ele>
        <time>2018-12-15T09:06:10Z</time>
        <extensions><gpxtpx:TrackPointExtension><gpxtpx:hr>145</gpxtpx:hr></gpxtpx:TrackPointExtension></extensions>
      </trkpt>
      <trkpt lat="59.411220096327" lon="17.989587412361">
        <ele>0</ele>
        <time>2018-12-15T09:06:11Z</time>
        <extensions><gpxtpx:TrackPointExtension><gpxtpx:hr>146</gpxtpx:hr></gpxtpx:TrackPointExtension></extensions>
      </trkpt>
      <trkpt lat="59.411470296042" lon="17.989348779668">
        <ele>0</ele>
        <time>2018-12-15T09:06:15Z</time>
        <extensions><gpxtpx:TrackPointExtension><gpxtpx:hr>149</gpxtpx:hr></gpxtpx:TrackPointExtension></extensions>
      </trkpt>
      <trkpt lat="59.411729548209" lon="17.989154235769">
        <ele>0</ele>
        <time>2018-12-15T09:06:19Z</time>
        <extensions><gpxtpx:TrackPointExtension><gpxtpx:hr>152</gpxtpx:hr></gpxtpx:TrackPointExtension></extensions>
      </trkpt>
      <trkpt lat="59.412318795779" lon="17.988971342711">
        <ele>0</ele>
        <time>2018-12-15T09:06:28Z</time>
        <extensions><gpxtpx:TrackPointExtension><gpxtpx:hr>153</gpxtpx:hr></gpxtpx:TrackPointExtension></extensions>
      </trkpt>
      <trkpt lat="59.412624567491" lon="17.988971761806">
        <ele>0</ele>
        <time>2018-12-15T09:06:33Z</time>
        <extensions><gpxtpx:TrackPointExtension><gpxtpx:hr>154</gpxtpx:hr></gpxtpx:TrackPointExtension></extensions>
      </trkpt>
      <trkpt lat="59.413125134559" lon="17.988868832074">
        <ele>0</ele>
        <time>2018-12-15T09:06:41Z</time>
        <extensions><gpxtpx:TrackPointExtension><gpxtpx:hr>157</gpxtpx:hr></gpxtpx:TrackPointExtension></extensions>
      </trkpt>
      <trkpt lat="59.413622851781" lon="17.988598012885">
        <ele>0</ele>
        <time>2018-12-15T09:06:49Z</time>
        <extensions><gpxtpx:TrackPointExtension><gpxtpx:hr>156</gpxtpx:hr></gpxtpx:TrackPointExtension></extensions>
      </trkpt>
      <trkpt lat="59.413840697362" lon="17.988338676899">
        <ele>0</ele>
        <time>2018-12-15T09:06:55Z</time>
        <extensions><gpxtpx:TrackPointExtension><gpxtpx:hr>153</gpxtpx:hr></gpxtpx:TrackPointExtension></extensions>
      </trkpt>
      <trkpt lat="59.4138743926" lon="17.988300120159">
        <ele>0</ele>
        <time>2018-12-15T09:06:56Z</time>
        <extensions><gpxtpx:TrackPointExtension><gpxtpx:hr>152</gpxtpx:hr></gpxtpx:TrackPointExtension></extensions>
      </trkpt>
      <trkpt lat="59.413954104469" lon="17.98821035001">
        <ele>0</ele>
        <time>2018-12-15T09:06:58Z</time>
        <extensions><gpxtpx:TrackPointExtension><gpxtpx:hr>151</gpxtpx:hr></gpxtpx:TrackPointExtension></extensions>
      </trkpt>
      <trkpt lat="59.41409483657" lon="17.988052015919">
        <ele>0.4</ele>
        <time>2018-12-15T09:07:01Z</time>
        <extensions><gpxtpx:TrackPointExtension><gpxtpx:hr>151</gpxtpx:hr></gpxtpx:TrackPointExtension></extensions>
      </trkpt>
      <trkpt lat="59.414241855096" lon="17.987780107083">
        <ele>0.8</ele>
        <time>2018-12-15T09:07:07Z</time>
        <extensions><gpxtpx:TrackPointExtension><gpxtpx:hr>149</gpxtpx:hr></gpxtpx:TrackPointExtension></extensions>
      </trkpt>
      <trkpt lat="59.414321734603" lon="17.987655887325">
        <ele>0.8</ele>
        <time>2018-12-15T09:07:10Z</time>
        <extensions><gpxtpx:TrackPointExtension><gpxtpx:hr>148</gpxtpx:hr></gpxtpx:TrackPointExtension></extensions>
      </trkpt>
      <trkpt lat="59.414645359762" lon="17.987124139589">
        <ele>0.4</ele>
        <time>2018-12-15T09:07:19Z</time>
        <extensions><gpxtpx:TrackPointExtension><gpxtpx:hr>146</gpxtpx:hr></gpxtpx:TrackPointExtension></extensions>
      </trkpt>
      <trkpt lat="59.414911568906" lon="17.986882070317">
        <ele>0</ele>
        <time>2018-12-15T09:07:24Z</time>
        <extensions><gpxtpx:TrackPointExtension><gpxtpx:hr>144</gpxtpx:hr></gpxtpx:TrackPointExtension></extensions>
      </trkpt>
      <trkpt lat="59.415174592928" lon="17.986713175032">
        <ele>0</ele>
        <time>2018-12-15T09:07:29Z</time>
        <extensions><gpxtpx:TrackPointExtension><gpxtpx:hr>142</gpxtpx:hr></gpxtpx:TrackPointExtension></extensions>
      </trkpt>
      <trkpt lat="59.415527387099" lon="17.986384017819">
        <ele>0</ele>
        <time>2018-12-15T09:07:36Z</time>
        <extensions><gpxtpx:TrackPointExtension><gpxtpx:hr>139</gpxtpx:hr></gpxtpx:TrackPointExtension></extensions>
      </trkpt>
      <trkpt lat="59.415675830548" lon="17.986247057573">
        <ele>0</ele>
        <time>2018-12-15T09:07:39Z</time>
        <extensions><gpxtpx:TrackPointExtension><gpxtpx:hr>137</gpxtpx:hr></gpxtpx:TrackPointExtension></extensions>
      </trkpt>
      <trkpt lat="59.415882947297" lon="17.986153683207">
        <ele>0</ele>
        <time>2018-12-15T09:07:44Z</time>
        <extensions><gpxtpx:TrackPointExtension><gpxtpx:hr>137</gpxtpx:hr></gpxtpx:TrackPointExtension></extensions>
      </trkpt>
      <trkpt lat="59.415929466842" lon="17.986132141724">
        <ele>0</ele>
        <time>2018-12-15T09:07:45Z</time>
        <extensions><gpxtpx:TrackPointExtension><gpxtpx:hr>138</gpxtpx:hr></gpxtpx:TrackPointExtension></extensions>
      </trkpt>
      <trkpt lat="59.416084867268" lon="17.986089142577">
        <ele>0.2</ele>
        <time>2018-12-15T09:07:48Z</time>
        <extensions><gpxtpx:TrackPointExtension><gpxtpx:hr>139</gpxtpx:hr></gpxtpx:TrackPointExtension></extensions>
      </trkpt>
      <trkpt lat="59.416294750044" lon="17.986026781241">
        <ele>0.4</ele>
        <time>2018-12-15T09:07:52Z</time>
        <extensions><gpxtpx:TrackPointExtension><gpxtpx:hr>139</gpxtpx:hr></gpxtpx:TrackPointExtension></extensions>
      </trkpt>
      <trkpt lat="59.416465908442" lon="17.985895604506">
        <ele>0.4</ele>
        <time>2018-12-15T09:07:56Z</time>
        <extensions><gpxtpx:TrackPointExtension><gpxtpx:hr>138</gpxtpx:hr></gpxtpx:TrackPointExtension></extensions>
      </trkpt>
      <trkpt lat="59.416601695222" lon="17.985591509174">
        <ele>0.8</ele>
        <time>2018-12-15T09:08:01Z</time>
        <extensions><gpxtpx:TrackPointExtension><gpxtpx:hr>140</gpxtpx:hr></gpxtpx:TrackPointExtension></extensions>
      </trkpt>
      <trkpt lat="59.416706301334" lon="17.98529596338">
        <ele>0.6</ele>
        <time>2018-12-15T09:08:06Z</time>
        <extensions><gpxtpx:TrackPointExtension><gpxtpx:hr>143</gpxtpx:hr></gpxtpx:TrackPointExtension></extensions>
      </trkpt>
      <trkpt lat="59.416733123414" lon="17.985248270369">
        <ele>0.8</ele>
        <time>2018-12-15T09:08:07Z</time>
        <extensions><gpxtpx:TrackPointExtension><gpxtpx:hr>143</gpxtpx:hr></gpxtpx:TrackPointExtension></extensions>
      </trkpt>
      <trkpt lat="59.416785510289" lon="17.985130672312">
        <ele>0.8</ele>
        <time>2018-12-15T09:08:09Z</time>
        <extensions><gpxtpx:TrackPointExtension><gpxtpx:hr>145</gpxtpx:hr></gpxtpx:TrackPointExtension></extensions>
      </trkpt>
      <trkpt lat="59.416842088114" lon="17.985008296572">
        <ele>1.8</ele>
        <time>2018-12-15T09:08:11Z</time>
        <extensions><gpxtpx:TrackPointExtension><gpxtpx:hr>147</gpxtpx:hr></gpxtpx:TrackPointExtension></extensions>
      </trkpt>
      <trkpt lat="59.41689439117" lon="17.984896817302">
        <ele>3.2</ele>
        <time>2018-12-15T09:08:13Z</time>
        <extensions><gpxtpx:TrackPointExtension><gpxtpx:hr>149</gpxtpx:hr></gpxtpx:TrackPointExtension></extensions>
      </trkpt>
      <trkpt lat="59.416959686171" lon="17.9847494635">
        <ele>4</ele>
        <time>2018-12-15T09:08:16Z</time>
        <extensions><gpxtpx:TrackPointExtension><gpxtpx:hr>152</gpxtpx:hr></gpxtpx:TrackPointExtension></extensions>
      </trkpt>
      <trkpt lat="59.417001428033" lon="17.984650389442">
        <ele>4.2</ele>
        <time>2018-12-15T09:08:18Z</time>
        <extensions><gpxtpx:TrackPointExtension><gpxtpx:hr>154</gpxtpx:hr></gpxtpx:TrackPointExtension></extensions>
      </trkpt>
      <trkpt lat="59.417045433008" lon="17.984499431423">
        <ele>5</ele>
        <time>2018-12-15T09:08:21Z</time>
        <extensions><gpxtpx:TrackPointExtension><gpxtpx:hr>158</gpxtpx:hr></gpxtpx:TrackPointExtension></extensions>
      </trkpt>
      <trkpt lat="59.417059011686" lon="17.984443272693">
        <ele>5.4</ele>
        <time>2018-12-15T09:08:22Z</time>
        <extensions><gpxtpx:TrackPointExtension><gpxtpx:hr>158</gpxtpx:hr></gpxtpx:TrackPointExtension></extensions>
      </trkpt>
      <trkpt lat="59.417104273946" lon="17.984295667434">
        <ele>7</ele>
        <time>2018-12-15T09:08:25Z</time>
        <extensions><gpxtpx:TrackPointExtension><gpxtpx:hr>161</gpxtpx:hr></gpxtpx:TrackPointExtension></extensions>
      </trkpt>
      <trkpt lat="59.417137214813" lon="17.98421553647">
        <ele>8.2</ele>
        <time>2018-12-15T09:08:27Z</time>
        <extensions><gpxtpx:TrackPointExtension><gpxtpx:hr>162</gpxtpx:hr></gpxtpx:TrackPointExtension></extensions>
      </trkpt>
      <trkpt lat="59.417180046322" lon="17.984163065776">
        <ele>10.2</ele>
        <time>2018-12-15T09:08:29Z</time>
        <extensions><gpxtpx:TrackPointExtension><gpxtpx:hr>163</gpxtpx:hr></gpxtpx:TrackPointExtension></extensions>
      </trkpt>
      <trkpt lat="59.417230589179" lon="17.984181757413">
        <ele>11.2</ele>
        <time>2018-12-15T09:08:31Z</time>
        <extensions><gpxtpx:TrackPointExtension><gpxtpx:hr>164</gpxtpx:hr></gpxtpx:TrackPointExtension></extensions>
      </trkpt>
      <trkpt lat="59.417317425663" lon="17.984262978024">
        <ele>12.2</ele>
        <time>2018-12-15T09:08:34Z</time>
        <extensions><gpxtpx:TrackPointExtension><gpxtpx:hr>165</gpxtpx:hr></gpxtpx:TrackPointExtension></extensions>
      </trkpt>
      <trkpt lat="59.417565446084" lon="17.984390382904">
        <ele>13.4</ele>
        <time>2018-12-15T09:08:41Z</time>
        <extensions><gpxtpx:TrackPointExtension><gpxtpx:hr>163</gpxtpx:hr></gpxtpx:TrackPointExtension></extensions>
      </trkpt>
      <trkpt lat="59.417706010547" lon="17.984350568879">
        <ele>13.4</ele>
        <time>2018-12-15T09:08:44Z</time>
        <extensions><gpxtpx:TrackPointExtension><gpxtpx:hr>163</gpxtpx:hr></gpxtpx:TrackPointExtension></extensions>
      </trkpt>
      <trkpt lat="59.417951851674" lon="17.984153007496">
        <ele>13.2</ele>
        <time>2018-12-15T09:08:49Z</time>
        <extensions><gpxtpx:TrackPointExtension><gpxtpx:hr>160</gpxtpx:hr></gpxtpx:TrackPointExtension></extensions>
      </trkpt>
      <trkpt lat="59.418178749707" lon="17.983833489468">
        <ele>12.2</ele>
        <time>2018-12-15T09:08:54Z</time>
        <extensions><gpxtpx:TrackPointExtension><gpxtpx:hr>157</gpxtpx:hr></gpxtpx:TrackPointExtension></extensions>
      </trkpt>
      <trkpt lat="59.418396260012" lon="17.983504667531">
        <ele>11.8</ele>
        <time>2018-12-15T09:08:59Z</time>
        <extensions><gpxtpx:TrackPointExtension><gpxtpx:hr>154</gpxtpx:hr></gpxtpx:TrackPointExtension></extensions>
      </trkpt>
      <trkpt lat="59.41859759325" lon="17.983168972436">
        <ele>11.8</ele>
        <time>2018-12-15T09:09:04Z</time>
        <extensions><gpxtpx:TrackPointExtension><gpxtpx:hr>151</gpxtpx:hr></gpxtpx:TrackPointExtension></extensions>
      </trkpt>
      <trkpt lat="59.418847876784" lon="17.982588861137">
        <ele>13</ele>
        <time>2018-12-15T09:09:11Z</time>
        <extensions><gpxtpx:TrackPointExtension><gpxtpx:hr>151</gpxtpx:hr></gpxtpx:TrackPointExtension></extensions>
      </trkpt>
      <trkpt lat="59.418967989411" lon="17.981811691369">
        <ele>13</ele>
        <time>2018-12-15T09:09:18Z</time>
        <extensions><gpxtpx:TrackPointExtension><gpxtpx:hr>147</gpxtpx:hr></gpxtpx:TrackPointExtension></extensions>
      </trkpt>
      <trkpt lat="59.419183739517" lon="17.98093066986">
        <ele>13</ele>
        <time>2018-12-15T09:09:26Z</time>
        <extensions><gpxtpx:TrackPointExtension><gpxtpx:hr>144</gpxtpx:hr></gpxtpx:TrackPointExtension></extensions>
      </trkpt>
      <trkpt lat="59.419344169083" lon="17.980482154391">
        <ele>12.8</ele>
        <time>2018-12-15T09:09:30Z</time>
        <extensions><gpxtpx:TrackPointExtension><gpxtpx:hr>141</gpxtpx:hr></gpxtpx:TrackPointExtension></extensions>
      </trkpt>
      <trkpt lat="59.419549190357" lon="17.980109159841">
        <ele>11.8</ele>
        <time>2018-12-15T09:09:34Z</time>
        <extensions><gpxtpx:TrackPointExtension><gpxtpx:hr>137</gpxtpx:hr></gpxtpx:TrackPointExtension></extensions>
      </trkpt>
      <trkpt lat="59.419719594384" lon="17.979890140794">
        <ele>11.4</ele>
        <time>2018-12-15T09:09:37Z</time>
        <extensions><gpxtpx:TrackPointExtension><gpxtpx:hr>137</gpxtpx:hr></gpxtpx:TrackPointExtension></extensions>
      </trkpt>
      <trkpt lat="59.420211779552" lon="17.979378844894">
        <ele>11.2</ele>
        <time>2018-12-15T09:09:46Z</time>
        <extensions><gpxtpx:TrackPointExtension><gpxtpx:hr>139</gpxtpx:hr></gpxtpx:TrackPointExtension></extensions>
      </trkpt>
      <trkpt lat="59.42036365958" lon="17.979218415328">
        <ele>11.6</ele>
        <time>2018-12-15T09:09:49Z</time>
        <extensions><gpxtpx:TrackPointExtension><gpxtpx:hr>142</gpxtpx:hr></gpxtpx:TrackPointExtension></extensions>
      </trkpt>
      <trkpt lat="59.420564406085" lon="17.979018590832">
        <ele>12.4</ele>
        <time>2018-12-15T09:09:53Z</time>
        <extensions><gpxtpx:TrackPointExtension><gpxtpx:hr>144</gpxtpx:hr></gpxtpx:TrackPointExtension></extensions>
      </trkpt>
      <trkpt lat="59.420715028828" lon="17.978873081048">
        <ele>13.8</ele>
        <time>2018-12-15T09:09:56Z</time>
        <extensions><gpxtpx:TrackPointExtension><gpxtpx:hr>145</gpxtpx:hr></gpxtpx:TrackPointExtension></extensions>
      </trkpt>
      <trkpt lat="59.421011748088" lon="17.9786055308">
        <ele>14.8</ele>
        <time>2018-12-15T09:10:02Z</time>
        <extensions><gpxtpx:TrackPointExtension><gpxtpx:hr>147</gpxtpx:hr></gpxtpx:TrackPointExtension></extensions>
      </trkpt>
      <trkpt lat="59.421523127807" lon="17.978170594009">
        <ele>15.4</ele>
        <time>2018-12-15T09:10:11Z</time>
        <extensions><gpxtpx:TrackPointExtension><gpxtpx:hr>148</gpxtpx:hr></gpxtpx:TrackPointExtension></extensions>
      </trkpt>
      <trkpt lat="59.42201657026" lon="17.977746972783">
        <ele>14.8</ele>
        <time>2018-12-15T09:10:17Z</time>
        <extensions><gpxtpx:TrackPointExtension><gpxtpx:hr>146</gpxtpx:hr></gpxtpx:TrackPointExtension></extensions>
      </trkpt>
      <trkpt lat="59.422103490563" lon="17.977667260914">
        <ele>12.4</ele>
        <time>2018-12-15T09:10:18Z</time>
        <extensions><gpxtpx:TrackPointExtension><gpxtpx:hr>144</gpxtpx:hr></gpxtpx:TrackPointExtension></extensions>
      </trkpt>
      <trkpt lat="59.422192673979" lon="17.977580592068">
        <ele>11.2</ele>
        <time>2018-12-15T09:10:19Z</time>
        <extensions><gpxtpx:TrackPointExtension><gpxtpx:hr>142</gpxtpx:hr></gpxtpx:TrackPointExtension></extensions>
      </trkpt>
      <trkpt lat="59.422283030861" lon="17.977487301521">
        <ele>10</ele>
        <time>2018-12-15T09:10:20Z</time>
        <extensions><gpxtpx:TrackPointExtension><gpxtpx:hr>140</gpxtpx:hr></gpxtpx:TrackPointExtension></extensions>
      </trkpt>
      <trkpt lat="59.422456368553" lon="17.977274401261">
        <ele>8.2</ele>
        <time>2018-12-15T09:10:22Z</time>
        <extensions><gpxtpx:TrackPointExtension><gpxtpx:hr>135</gpxtpx:hr></gpxtpx:TrackPointExtension></extensions>
      </trkpt>
      <trkpt lat="59.422533062938" lon="17.977150684417">
        <ele>7.4</ele>
        <time>2018-12-15T09:10:23Z</time>
        <extensions><gpxtpx:TrackPointExtension><gpxtpx:hr>133</gpxtpx:hr></gpxtpx:TrackPointExtension></extensions>
      </trkpt>
      <trkpt lat="59.422599866681" lon="17.977015819646">
        <ele>6.6</ele>
        <time>2018-12-15T09:10:24Z</time>
        <extensions><gpxtpx:TrackPointExtension><gpxtpx:hr>129</gpxtpx:hr></gpxtpx:TrackPointExtension></extensions>
      </trkpt>
      <trkpt lat="59.422655438678" lon="17.976873075889">
        <ele>5.6</ele>
        <time>2018-12-15T09:10:25Z</time>
        <extensions><gpxtpx:TrackPointExtension><gpxtpx:hr>127</gpxtpx:hr></gpxtpx:TrackPointExtension></extensions>
      </trkpt>
      <trkpt lat="59.422698605463" lon="17.97672714701">
        <ele>4.2</ele>
        <time>2018-12-15T09:10:26Z</time>
        <extensions><gpxtpx:TrackPointExtension><gpxtpx:hr>123</gpxtpx:hr></gpxtpx:TrackPointExtension></extensions>
      </trkpt>
      <trkpt lat="59.422729283217" lon="17.976583648882">
        <ele>3</ele>
        <time>2018-12-15T09:10:27Z</time>
        <extensions><gpxtpx:TrackPointExtension><gpxtpx:hr>120</gpxtpx:hr></gpxtpx:TrackPointExtension></extensions>
      </trkpt>
      <trkpt lat="59.422749064501" lon="17.976444425523">
        <ele>2.2</ele>
        <time>2018-12-15T09:10:28Z</time>
        <extensions><gpxtpx:TrackPointExtension><gpxtpx:hr>120</gpxtpx:hr></gpxtpx:TrackPointExtension></extensions>
      </trkpt>
      <trkpt lat="59.422768678147" lon="17.976172935782">
        <ele>1.8</ele>
        <time>2018-12-15T09:10:30Z</time>
        <extensions><gpxtpx:TrackPointExtension><gpxtpx:hr>121</gpxtpx:hr></gpxtpx:TrackPointExtension></extensions>
      </trkpt>
      <trkpt lat="59.422747052845" lon="17.975778567387">
        <ele>1.6</ele>
        <time>2018-12-15T09:10:33Z</time>
        <extensions><gpxtpx:TrackPointExtension><gpxtpx:hr>121</gpxtpx:hr></gpxtpx:TrackPointExtension></extensions>
      </trkpt>
      <trkpt lat="59.422713525245" lon="17.975404734647">
        <ele>1.6</ele>
        <time>2018-12-15T09:10:36Z</time>
        <extensions><gpxtpx:TrackPointExtension><gpxtpx:hr>129</gpxtpx:hr></gpxtpx:TrackPointExtension></extensions>
      </trkpt>
      <trkpt lat="59.422707741734" lon="17.975283951468">
        <ele>2.2</ele>
        <time>2018-12-15T09:10:37Z</time>
        <extensions><gpxtpx:TrackPointExtension><gpxtpx:hr>134</gpxtpx:hr></gpxtpx:TrackPointExtension></extensions>
      </trkpt>
      <trkpt lat="59.422702293499" lon="17.975165934316">
        <ele>3</ele>
        <time>2018-12-15T09:10:38Z</time>
        <extensions><gpxtpx:TrackPointExtension><gpxtpx:hr>141</gpxtpx:hr></gpxtpx:TrackPointExtension></extensions>
      </trkpt>
      <trkpt lat="59.422694498332" lon="17.97504992882">
        <ele>3.6</ele>
        <time>2018-12-15T09:10:39Z</time>
        <extensions><gpxtpx:TrackPointExtension><gpxtpx:hr>144</gpxtpx:hr></gpxtpx:TrackPointExtension></extensions>
      </trkpt>
      <trkpt lat="59.422688211907" lon="17.97494012593">
        <ele>4.2</ele>
        <time>2018-12-15T09:10:40Z</time>
        <extensions><gpxtpx:TrackPointExtension><gpxtpx:hr>149</gpxtpx:hr></gpxtpx:TrackPointExtension></extensions>
      </trkpt>
      <trkpt lat="59.422684020957" lon="17.974835603637">
        <ele>4.8</ele>
        <time>2018-12-15T09:10:41Z</time>
        <extensions><gpxtpx:TrackPointExtension><gpxtpx:hr>153</gpxtpx:hr></gpxtpx:TrackPointExtension></extensions>
      </trkpt>
      <trkpt lat="59.422679662369" lon="17.97473896033">
        <ele>5.4</ele>
        <time>2018-12-15T09:10:42Z</time>
        <extensions><gpxtpx:TrackPointExtension><gpxtpx:hr>155</gpxtpx:hr></gpxtpx:TrackPointExtension></extensions>
      </trkpt>
      <trkpt lat="59.422673124487" lon="17.974651620932">
        <ele>6</ele>
        <time>2018-12-15T09:10:43Z</time>
        <extensions><gpxtpx:TrackPointExtension><gpxtpx:hr>160</gpxtpx:hr></gpxtpx:TrackPointExtension></extensions>
      </trkpt>
      <trkpt lat="59.422663233845" lon="17.974575010366">
        <ele>6.8</ele>
        <time>2018-12-15T09:10:44Z</time>
        <extensions><gpxtpx:TrackPointExtension><gpxtpx:hr>162</gpxtpx:hr></gpxtpx:TrackPointExtension></extensions>
      </trkpt>
      <trkpt lat="59.422651499185" lon="17.974504518587">
        <ele>8.6</ele>
        <time>2018-12-15T09:10:45Z</time>
        <extensions><gpxtpx:TrackPointExtension><gpxtpx:hr>163</gpxtpx:hr></gpxtpx:TrackPointExtension></extensions>
      </trkpt>
      <trkpt lat="59.422639513068" lon="17.974440732328">
        <ele>9.4</ele>
        <time>2018-12-15T09:10:46Z</time>
        <extensions><gpxtpx:TrackPointExtension><gpxtpx:hr>166</gpxtpx:hr></gpxtpx:TrackPointExtension></extensions>
      </trkpt>
      <trkpt lat="59.422627191675" lon="17.974382478123">
        <ele>10.4</ele>
        <time>2018-12-15T09:10:47Z</time>
        <extensions><gpxtpx:TrackPointExtension><gpxtpx:hr>168</gpxtpx:hr></gpxtpx:TrackPointExtension></extensions>
      </trkpt>
      <trkpt lat="59.422590646591" lon="17.974274100156">
        <ele>12.4</ele>
        <time>2018-12-15T09:10:49Z</time>
        <extensions><gpxtpx:TrackPointExtension><gpxtpx:hr>170</gpxtpx:hr></gpxtpx:TrackPointExtension></extensions>
      </trkpt>
      <trkpt lat="59.422570781488" lon="17.974222048557">
        <ele>13.4</ele>
        <time>2018-12-15T09:10:50Z</time>
        <extensions><gpxtpx:TrackPointExtension><gpxtpx:hr>171</gpxtpx:hr></gpxtpx:TrackPointExtension></extensions>
      </trkpt>
      <trkpt lat="59.422531805653" lon="17.974113251495">
        <ele>15.2</ele>
        <time>2018-12-15T09:10:52Z</time>
        <extensions><gpxtpx:TrackPointExtension><gpxtpx:hr>172</gpxtpx:hr></gpxtpx:TrackPointExtension></extensions>
      </trkpt>
      <trkpt lat="59.422476652751" lon="17.97400554408">
        <ele>16.8</ele>
        <time>2018-12-15T09:10:54Z</time>
        <extensions><gpxtpx:TrackPointExtension><gpxtpx:hr>172</gpxtpx:hr></gpxtpx:TrackPointExtension></extensions>
      </trkpt>
      <trkpt lat="59.422405825696" lon="17.973881827236">
        <ele>18.4</ele>
        <time>2018-12-15T09:10:56Z</time>
        <extensions><gpxtpx:TrackPointExtension><gpxtpx:hr>172</gpxtpx:hr></gpxtpx:TrackPointExtension></extensions>
      </trkpt>
      <trkpt lat="59.422340027781" lon="17.973748638845">
        <ele>19.6</ele>
        <time>2018-12-15T09:10:58Z</time>
        <extensions><gpxtpx:TrackPointExtension><gpxtpx:hr>172</gpxtpx:hr></gpxtpx:TrackPointExtension></extensions>
      </trkpt>
      <trkpt lat="59.422277163531" lon="17.973630370236">
        <ele>20.8</ele>
        <time>2018-12-15T09:11:00Z</time>
        <extensions><gpxtpx:TrackPointExtension><gpxtpx:hr>172</gpxtpx:hr></gpxtpx:TrackPointExtension></extensions>
      </trkpt>
      <trkpt lat="59.422207509942" lon="17.973511598713">
        <ele>21.8</ele>
        <time>2018-12-15T09:11:02Z</time>
        <extensions><gpxtpx:TrackPointExtension><gpxtpx:hr>171</gpxtpx:hr></gpxtpx:TrackPointExtension></extensions>
      </trkpt>
      <trkpt lat="59.422026544721" lon="17.973197277463">
        <ele>22.8</ele>
        <time>2018-12-15T09:11:07Z</time>
        <extensions><gpxtpx:TrackPointExtension><gpxtpx:hr>171</gpxtpx:hr></gpxtpx:TrackPointExtension></extensions>
      </trkpt>
      <trkpt lat="59.421624884073" lon="17.972489426008">
        <ele>23.2</ele>
        <time>2018-12-15T09:11:18Z</time>
        <extensions><gpxtpx:TrackPointExtension><gpxtpx:hr>170</gpxtpx:hr></gpxtpx:TrackPointExtension></extensions>
      </trkpt>
      <trkpt lat="59.421561684547" lon="17.97237610272">
        <ele>23.4</ele>
        <time>2018-12-15T09:11:20Z</time>
        <extensions><gpxtpx:TrackPointExtension><gpxtpx:hr>170</gpxtpx:hr></gpxtpx:TrackPointExtension></extensions>
      </trkpt>
      <trkpt lat="59.421592697577" lon="17.972067732619">
        <ele>24</ele>
        <time>2018-12-15T09:11:25Z</time>
        <extensions><gpxtpx:TrackPointExtension><gpxtpx:hr>170</gpxtpx:hr></gpxtpx:TrackPointExtension></extensions>
      </trkpt>
      <trkpt lat="59.421627231005" lon="17.971998833401">
        <ele>24.2</ele>
        <time>2018-12-15T09:11:26Z</time>
        <extensions><gpxtpx:TrackPointExtension><gpxtpx:hr>170</gpxtpx:hr></gpxtpx:TrackPointExtension></extensions>
      </trkpt>
      <trkpt lat="59.421775674454" lon="17.971715692819">
        <ele>24.4</ele>
        <time>2018-12-15T09:11:30Z</time>
        <extensions><gpxtpx:TrackPointExtension><gpxtpx:hr>169</gpxtpx:hr></gpxtpx:TrackPointExtension></extensions>
      </trkpt>
      <trkpt lat="59.422007517808" lon="17.971325180098">
        <ele>24.6</ele>
        <time>2018-12-15T09:11:36Z</time>
        <extensions><gpxtpx:TrackPointExtension><gpxtpx:hr>166</gpxtpx:hr></gpxtpx:TrackPointExtension></extensions>
      </trkpt>
      <trkpt lat="59.422203235173" lon="17.97098219275">
        <ele>24.6</ele>
        <time>2018-12-15T09:11:41Z</time>
        <extensions><gpxtpx:TrackPointExtension><gpxtpx:hr>163</gpxtpx:hr></gpxtpx:TrackPointExtension></extensions>
      </trkpt>
      <trkpt lat="59.422397527615" lon="17.970644066904">
        <ele>24.6</ele>
        <time>2018-12-15T09:11:46Z</time>
        <extensions><gpxtpx:TrackPointExtension><gpxtpx:hr>160</gpxtpx:hr></gpxtpx:TrackPointExtension></extensions>
      </trkpt>
      <trkpt lat="59.422640267439" lon="17.970201586403">
        <ele>25.2</ele>
        <time>2018-12-15T09:11:53Z</time>
        <extensions><gpxtpx:TrackPointExtension><gpxtpx:hr>159</gpxtpx:hr></gpxtpx:TrackPointExtension></extensions>
      </trkpt>
      <trkpt lat="59.422772785278" lon="17.96997301199">
        <ele>26.6</ele>
        <time>2018-12-15T09:11:57Z</time>
        <extensions><gpxtpx:TrackPointExtension><gpxtpx:hr>159</gpxtpx:hr></gpxtpx:TrackPointExtension></extensions>
      </trkpt>
      <trkpt lat="59.422882169073" lon="17.969782994317">
        <ele>27.6</ele>
        <time>2018-12-15T09:12:00Z</time>
        <extensions><gpxtpx:TrackPointExtension><gpxtpx:hr>159</gpxtpx:hr></gpxtpx:TrackPointExtension></extensions>
      </trkpt>
      <trkpt lat="59.423289194137" lon="17.969027701308">
        <ele>28.2</ele>
        <time>2018-12-15T09:12:09Z</time>
        <extensions><gpxtpx:TrackPointExtension><gpxtpx:hr>158</gpxtpx:hr></gpxtpx:TrackPointExtension></extensions>
      </trkpt>
      <trkpt lat="59.423395141353" lon="17.968853944521">
        <ele>28.2</ele>
        <time>2018-12-15T09:12:11Z</time>
        <extensions><gpxtpx:TrackPointExtension><gpxtpx:hr>155</gpxtpx:hr></gpxtpx:TrackPointExtension></extensions>
      </trkpt>
      <trkpt lat="59.423446187124" lon="17.968787476054">
        <ele>28.2</ele>
        <time>2018-12-15T09:12:12Z</time>
        <extensions><gpxtpx:TrackPointExtension><gpxtpx:hr>154</gpxtpx:hr></gpxtpx:TrackPointExtension></extensions>
      </trkpt>
      <trkpt lat="59.423667134008" lon="17.968676751155">
        <ele>26.8</ele>
        <time>2018-12-15T09:12:16Z</time>
        <extensions><gpxtpx:TrackPointExtension><gpxtpx:hr>150</gpxtpx:hr></gpxtpx:TrackPointExtension></extensions>
      </trkpt>
      <trkpt lat="59.423722454548" lon="17.968664262124">
        <ele>26.6</ele>
        <time>2018-12-15T09:12:17Z</time>
        <extensions><gpxtpx:TrackPointExtension><gpxtpx:hr>148</gpxtpx:hr></gpxtpx:TrackPointExtension></extensions>
      </trkpt>
      <trkpt lat="59.423835107284" lon="17.968638864967">
        <ele>26.4</ele>
        <time>2018-12-15T09:12:19Z</time>
        <extensions><gpxtpx:TrackPointExtension><gpxtpx:hr>143</gpxtpx:hr></gpxtpx:TrackPointExtension></extensions>
      </trkpt>
      <trkpt lat="59.423949687857" lon="17.968604163901">
        <ele>26.2</ele>
        <time>2018-12-15T09:12:21Z</time>
        <extensions><gpxtpx:TrackPointExtension><gpxtpx:hr>138</gpxtpx:hr></gpxtpx:TrackPointExtension></extensions>
      </trkpt>
      <trkpt lat="59.424066363905" lon="17.968556387071">
        <ele>26.2</ele>
        <time>2018-12-15T09:12:23Z</time>
        <extensions><gpxtpx:TrackPointExtension><gpxtpx:hr>134</gpxtpx:hr></gpxtpx:TrackPointExtension></extensions>
      </trkpt>
      <trkpt lat="59.424187901455" lon="17.968492349355">
        <ele>26</ele>
        <time>2018-12-15T09:12:25Z</time>
        <extensions><gpxtpx:TrackPointExtension><gpxtpx:hr>131</gpxtpx:hr></gpxtpx:TrackPointExtension></extensions>
      </trkpt>
      <trkpt lat="59.424625520454" lon="17.968092784182">
        <ele>25.8</ele>
        <time>2018-12-15T09:12:33Z</time>
        <extensions><gpxtpx:TrackPointExtension><gpxtpx:hr>128</gpxtpx:hr></gpxtpx:TrackPointExtension></extensions>
      </trkpt>
      <trkpt lat="59.424748315289" lon="17.96797979617">
        <ele>25.6</ele>
        <time>2018-12-15T09:12:35Z</time>
        <extensions><gpxtpx:TrackPointExtension><gpxtpx:hr>124</gpxtpx:hr></gpxtpx:TrackPointExtension></extensions>
      </trkpt>
      <trkpt lat="59.425006896904" lon="17.967724902591">
        <ele>25.4</ele>
        <time>2018-12-15T09:12:39Z</time>
        <extensions><gpxtpx:TrackPointExtension><gpxtpx:hr>122</gpxtpx:hr></gpxtpx:TrackPointExtension></extensions>
      </trkpt>
      <trkpt lat="59.425139079467" lon="17.967596994797">
        <ele>25</ele>
        <time>2018-12-15T09:12:41Z</time>
        <extensions><gpxtpx:TrackPointExtension><gpxtpx:hr>119</gpxtpx:hr></gpxtpx:TrackPointExtension></extensions>
      </trkpt>
      <trkpt lat="59.425273357505" lon="17.967457100886">
        <ele>24</ele>
        <time>2018-12-15T09:12:43Z</time>
        <extensions><gpxtpx:TrackPointExtension><gpxtpx:hr>120</gpxtpx:hr></gpxtpx:TrackPointExtension></extensions>
      </trkpt>
      <trkpt lat="59.425406713534" lon="17.967336485345">
        <ele>22.8</ele>
        <time>2018-12-15T09:12:45Z</time>
        <extensions><gpxtpx:TrackPointExtension><gpxtpx:hr>119</gpxtpx:hr></gpxtpx:TrackPointExtension></extensions>
      </trkpt>
      <trkpt lat="59.425537471174" lon="17.967231124862">
        <ele>21.6</ele>
        <time>2018-12-15T09:12:47Z</time>
        <extensions><gpxtpx:TrackPointExtension><gpxtpx:hr>119</gpxtpx:hr></gpxtpx:TrackPointExtension></extensions>
      </trkpt>
      <trkpt lat="59.425749365606" lon="17.967081005033">
        <ele>20.2</ele>
        <time>2018-12-15T09:12:50Z</time>
        <extensions><gpxtpx:TrackPointExtension><gpxtpx:hr>119</gpxtpx:hr></gpxtpx:TrackPointExtension></extensions>
      </trkpt>
      <trkpt lat="59.425968887567" lon="17.966859052321">
        <ele>18.8</ele>
        <time>2018-12-15T09:12:53Z</time>
        <extensions><gpxtpx:TrackPointExtension><gpxtpx:hr>119</gpxtpx:hr></gpxtpx:TrackPointExtension></extensions>
      </trkpt>
      <trkpt lat="59.426208190812" lon="17.966553783523">
        <ele>17.8</ele>
        <time>2018-12-15T09:12:56Z</time>
        <extensions><gpxtpx:TrackPointExtension><gpxtpx:hr>115</gpxtpx:hr></gpxtpx:TrackPointExtension></extensions>
      </trkpt>
      <trkpt lat="59.426375325898" lon="17.966333339553">
        <ele>16.4</ele>
        <time>2018-12-15T09:12:58Z</time>
        <extensions><gpxtpx:TrackPointExtension><gpxtpx:hr>112</gpxtpx:hr></gpxtpx:TrackPointExtension></extensions>
      </trkpt>
      <trkpt lat="59.426530893962" lon="17.966099484543">
        <ele>13.2</ele>
        <time>2018-12-15T09:13:00Z</time>
        <extensions><gpxtpx:TrackPointExtension><gpxtpx:hr>111</gpxtpx:hr></gpxtpx:TrackPointExtension></extensions>
      </trkpt>
      <trkpt lat="59.42659979318" lon="17.965966799066">
        <ele>11.8</ele>
        <time>2018-12-15T09:13:01Z</time>
        <extensions><gpxtpx:TrackPointExtension><gpxtpx:hr>110</gpxtpx:hr></gpxtpx:TrackPointExtension></extensions>
      </trkpt>
      <trkpt lat="59.426664417629" lon="17.965821876015">
        <ele>10.4</ele>
        <time>2018-12-15T09:13:02Z</time>
        <extensions><gpxtpx:TrackPointExtension><gpxtpx:hr>110</gpxtpx:hr></gpxtpx:TrackPointExtension></extensions>
      </trkpt>
      <trkpt lat="59.426724599671" lon="17.965666140313">
        <ele>9</ele>
        <time>2018-12-15T09:13:03Z</time>
        <extensions><gpxtpx:TrackPointExtension><gpxtpx:hr>111</gpxtpx:hr></gpxtpx:TrackPointExtension></extensions>
      </trkpt>
      <trkpt lat="59.426777992374" lon="17.965499005227">
        <ele>8</ele>
        <time>2018-12-15T09:13:04Z</time>
        <extensions><gpxtpx:TrackPointExtension><gpxtpx:hr>113</gpxtpx:hr></gpxtpx:TrackPointExtension></extensions>
      </trkpt>
      <trkpt lat="59.426823841367" lon="17.965324494069">
        <ele>6.8</ele>
        <time>2018-12-15T09:13:05Z</time>
        <extensions><gpxtpx:TrackPointExtension><gpxtpx:hr>114</gpxtpx:hr></gpxtpx:TrackPointExtension></extensions>
      </trkpt>
      <trkpt lat="59.4268663376" lon="17.965149144721">
        <ele>6.2</ele>
        <time>2018-12-15T09:13:06Z</time>
        <extensions><gpxtpx:TrackPointExtension><gpxtpx:hr>116</gpxtpx:hr></gpxtpx:TrackPointExtension></extensions>
      </trkpt>
      <trkpt lat="59.426909504385" lon="17.964979830341">
        <ele>5.8</ele>
        <time>2018-12-15T09:13:07Z</time>
        <extensions><gpxtpx:TrackPointExtension><gpxtpx:hr>117</gpxtpx:hr></gpxtpx:TrackPointExtension></extensions>
      </trkpt>
      <trkpt lat="59.427041351672" lon="17.964484962965">
        <ele>4.2</ele>
        <time>2018-12-15T09:13:10Z</time>
        <extensions><gpxtpx:TrackPointExtension><gpxtpx:hr>120</gpxtpx:hr></gpxtpx:TrackPointExtension></extensions>
      </trkpt>
      <trkpt lat="59.427137492065" lon="17.964183214565">
        <ele>2.8</ele>
        <time>2018-12-15T09:13:12Z</time>
        <extensions><gpxtpx:TrackPointExtension><gpxtpx:hr>121</gpxtpx:hr></gpxtpx:TrackPointExtension></extensions>
      </trkpt>
      <trkpt lat="59.42728040346" lon="17.963778452614">
        <ele>1.6</ele>
        <time>2018-12-15T09:13:15Z</time>
        <extensions><gpxtpx:TrackPointExtension><gpxtpx:hr>122</gpxtpx:hr></gpxtpx:TrackPointExtension></extensions>
      </trkpt>
      <trkpt lat="59.427372101446" lon="17.963519116628">
        <ele>1.6</ele>
        <time>2018-12-15T09:13:17Z</time>
        <extensions><gpxtpx:TrackPointExtension><gpxtpx:hr>125</gpxtpx:hr></gpxtpx:TrackPointExtension></extensions>
      </trkpt>
      <trkpt lat="59.42749665648" lon="17.963154923073">
        <ele>1.4</ele>
        <time>2018-12-15T09:13:20Z</time>
        <extensions><gpxtpx:TrackPointExtension><gpxtpx:hr>128</gpxtpx:hr></gpxtpx:TrackPointExtension></extensions>
      </trkpt>
      <trkpt lat="59.427602100782" lon="17.962842362022">
        <ele>1.6</ele>
        <time>2018-12-15T09:13:23Z</time>
        <extensions><gpxtpx:TrackPointExtension><gpxtpx:hr>132</gpxtpx:hr></gpxtpx:TrackPointExtension></extensions>
      </trkpt>
      <trkpt lat="59.427720117934" lon="17.962465008884">
        <ele>2.6</ele>
        <time>2018-12-15T09:13:27Z</time>
        <extensions><gpxtpx:TrackPointExtension><gpxtpx:hr>135</gpxtpx:hr></gpxtpx:TrackPointExtension></extensions>
      </trkpt>
      <trkpt lat="59.427747694385" lon="17.962371969794">
        <ele>3.2</ele>
        <time>2018-12-15T09:13:28Z</time>
        <extensions><gpxtpx:TrackPointExtension><gpxtpx:hr>136</gpxtpx:hr></gpxtpx:TrackPointExtension></extensions>
      </trkpt>
      <trkpt lat="59.427800751812" lon="17.962188573822">
        <ele>4.8</ele>
        <time>2018-12-15T09:13:30Z</time>
        <extensions><gpxtpx:TrackPointExtension><gpxtpx:hr>138</gpxtpx:hr></gpxtpx:TrackPointExtension></extensions>
      </trkpt>
      <trkpt lat="59.427853138687" lon="17.9620009869">
        <ele>6</ele>
        <time>2018-12-15T09:13:32Z</time>
        <extensions><gpxtpx:TrackPointExtension><gpxtpx:hr>140</gpxtpx:hr></gpxtpx:TrackPointExtension></extensions>
      </trkpt>
      <trkpt lat="59.427897478938" lon="17.961812980883">
        <ele>7.2</ele>
        <time>2018-12-15T09:13:34Z</time>
        <extensions><gpxtpx:TrackPointExtension><gpxtpx:hr>141</gpxtpx:hr></gpxtpx:TrackPointExtension></extensions>
      </trkpt>
      <trkpt lat="59.427953972944" lon="17.961529588844">
        <ele>8</ele>
        <time>2018-12-15T09:13:37Z</time>
        <extensions><gpxtpx:TrackPointExtension><gpxtpx:hr>144</gpxtpx:hr></gpxtpx:TrackPointExtension></extensions>
      </trkpt>
      <trkpt lat="59.427969647097" lon="17.961437471763">
        <ele>8.2</ele>
        <time>2018-12-15T09:13:38Z</time>
        <extensions><gpxtpx:TrackPointExtension><gpxtpx:hr>144</gpxtpx:hr></gpxtpx:TrackPointExtension></extensions>
      </trkpt>
      <trkpt lat="59.428078863254" lon="17.960786701047">
        <ele>9.2</ele>
        <time>2018-12-15T09:13:46Z</time>
        <extensions><gpxtpx:TrackPointExtension><gpxtpx:hr>145</gpxtpx:hr></gpxtpx:TrackPointExtension></extensions>
      </trkpt>
      <trkpt lat="59.428198305329" lon="17.960938413437">
        <ele>9.6</ele>
        <time>2018-12-15T09:13:50Z</time>
        <extensions><gpxtpx:TrackPointExtension><gpxtpx:hr>142</gpxtpx:hr></gpxtpx:TrackPointExtension></extensions>
      </trkpt>
      <trkpt lat="59.428273239515" lon="17.961143937625">
        <ele>9.6</ele>
        <time>2018-12-15T09:13:52Z</time>
        <extensions><gpxtpx:TrackPointExtension><gpxtpx:hr>138</gpxtpx:hr></gpxtpx:TrackPointExtension></extensions>
      </trkpt>
      <trkpt lat="59.428403075146" lon="17.961476531417">
        <ele>9.6</ele>
        <time>2018-12-15T09:13:55Z</time>
        <extensions><gpxtpx:TrackPointExtension><gpxtpx:hr>134</gpxtpx:hr></gpxtpx:TrackPointExtension></extensions>
      </trkpt>
      <trkpt lat="59.428492090924" lon="17.961702675079">
        <ele>9.6</ele>
        <time>2018-12-15T09:13:57Z</time>
        <extensions><gpxtpx:TrackPointExtension><gpxtpx:hr>131</gpxtpx:hr></gpxtpx:TrackPointExtension></extensions>
      </trkpt>
      <trkpt lat="59.428539951573" lon="17.961821446602">
        <ele>9</ele>
        <time>2018-12-15T09:13:58Z</time>
        <extensions><gpxtpx:TrackPointExtension><gpxtpx:hr>128</gpxtpx:hr></gpxtpx:TrackPointExtension></extensions>
      </trkpt>
      <trkpt lat="59.428592841362" lon="17.961937871193">
        <ele>8.6</ele>
        <time>2018-12-15T09:13:59Z</time>
        <extensions><gpxtpx:TrackPointExtension><gpxtpx:hr>127</gpxtpx:hr></gpxtpx:TrackPointExtension></extensions>
      </trkpt>
      <trkpt lat="59.428653191042" lon="17.962035268871">
        <ele>7.8</ele>
        <time>2018-12-15T09:14:00Z</time>
        <extensions><gpxtpx:TrackPointExtension><gpxtpx:hr>127</gpxtpx:hr></gpxtpx:TrackPointExtension></extensions>
      </trkpt>
      <trkpt lat="59.428795683342" lon="17.962119842242">
        <ele>6.4</ele>
        <time>2018-12-15T09:14:02Z</time>
        <extensions><gpxtpx:TrackPointExtension><gpxtpx:hr>126</gpxtpx:hr></gpxtpx:TrackPointExtension></extensions>
      </trkpt>
      <trkpt lat="59.428935325796" lon="17.96202277984">
        <ele>4.6</ele>
        <time>2018-12-15T09:14:04Z</time>
        <extensions><gpxtpx:TrackPointExtension><gpxtpx:hr>123</gpxtpx:hr></gpxtpx:TrackPointExtension></extensions>
      </trkpt>
      <trkpt lat="59.429052672396" lon="17.961820021679">
        <ele>3</ele>
        <time>2018-12-15T09:14:06Z</time>
        <extensions><gpxtpx:TrackPointExtension><gpxtpx:hr>123</gpxtpx:hr></gpxtpx:TrackPointExtension></extensions>
      </trkpt>
      <trkpt lat="59.429108579669" lon="17.961702675079">
        <ele>2</ele>
        <time>2018-12-15T09:14:07Z</time>
        <extensions><gpxtpx:TrackPointExtension><gpxtpx:hr>123</gpxtpx:hr></gpxtpx:TrackPointExtension></extensions>
      </trkpt>
      <trkpt lat="59.42916381639" lon="17.961588262144">
        <ele>1</ele>
        <time>2018-12-15T09:14:08Z</time>
        <extensions><gpxtpx:TrackPointExtension><gpxtpx:hr>125</gpxtpx:hr></gpxtpx:TrackPointExtension></extensions>
      </trkpt>
      <trkpt lat="59.429332711675" lon="17.961253572877">
        <ele>0</ele>
        <time>2018-12-15T09:14:11Z</time>
        <extensions><gpxtpx:TrackPointExtension><gpxtpx:hr>129</gpxtpx:hr></gpxtpx:TrackPointExtension></extensions>
      </trkpt>
      <trkpt lat="59.429439832357" lon="17.961038074228">
        <ele>0</ele>
        <time>2018-12-15T09:14:13Z</time>
        <extensions><gpxtpx:TrackPointExtension><gpxtpx:hr>132</gpxtpx:hr></gpxtpx:TrackPointExtension></extensions>
      </trkpt>
      <trkpt lat="59.429831937639" lon="17.960230142887">
        <ele>0</ele>
        <time>2018-12-15T09:14:22Z</time>
        <extensions><gpxtpx:TrackPointExtension><gpxtpx:hr>133</gpxtpx:hr></gpxtpx:TrackPointExtension></extensions>
      </trkpt>
      <trkpt lat="59.429942662538" lon="17.960012297306">
        <ele>0</ele>
        <time>2018-12-15T09:14:25Z</time>
        <extensions><gpxtpx:TrackPointExtension><gpxtpx:hr>130</gpxtpx:hr></gpxtpx:TrackPointExtension></extensions>
      </trkpt>
      <trkpt lat="59.429979878174" lon="17.959947505219">
        <ele>0</ele>
        <time>2018-12-15T09:14:26Z</time>
        <extensions><gpxtpx:TrackPointExtension><gpxtpx:hr>127</gpxtpx:hr></gpxtpx:TrackPointExtension></extensions>
      </trkpt>
      <trkpt lat="59.430059506224" lon="17.959814233009">
        <ele>0</ele>
        <time>2018-12-15T09:14:28Z</time>
        <extensions><gpxtpx:TrackPointExtension><gpxtpx:hr>123</gpxtpx:hr></gpxtpx:TrackPointExtension></extensions>
      </trkpt>
      <trkpt lat="59.430511206815" lon="17.959127168666">
        <ele>0.2</ele>
        <time>2018-12-15T09:14:38Z</time>
        <extensions><gpxtpx:TrackPointExtension><gpxtpx:hr>121</gpxtpx:hr></gpxtpx:TrackPointExtension></extensions>
      </trkpt>
      <trkpt lat="59.430988053106" lon="17.958430213681">
        <ele>0.4</ele>
        <time>2018-12-15T09:14:48Z</time>
        <extensions><gpxtpx:TrackPointExtension><gpxtpx:hr>122</gpxtpx:hr></gpxtpx:TrackPointExtension></extensions>
      </trkpt>
      <trkpt lat="59.431184860118" lon="17.958142630692">
        <ele>0.4</ele>
        <time>2018-12-15T09:14:52Z</time>
        <extensions><gpxtpx:TrackPointExtension><gpxtpx:hr>125</gpxtpx:hr></gpxtpx:TrackPointExtension></extensions>
      </trkpt>
      <trkpt lat="59.4314512369" lon="17.95783685898">
        <ele>0.4</ele>
        <time>2018-12-15T09:14:57Z</time>
        <extensions><gpxtpx:TrackPointExtension><gpxtpx:hr>128</gpxtpx:hr></gpxtpx:TrackPointExtension></extensions>
      </trkpt>
      <trkpt lat="59.431690288688" lon="17.957646422212">
        <ele>0.4</ele>
        <time>2018-12-15T09:15:01Z</time>
        <extensions><gpxtpx:TrackPointExtension><gpxtpx:hr>131</gpxtpx:hr></gpxtpx:TrackPointExtension></extensions>
      </trkpt>
      <trkpt lat="59.431933279969" lon="17.95745632072">
        <ele>0.8</ele>
        <time>2018-12-15T09:15:05Z</time>
        <extensions><gpxtpx:TrackPointExtension><gpxtpx:hr>134</gpxtpx:hr></gpxtpx:TrackPointExtension></extensions>
      </trkpt>
      <trkpt lat="59.432370396054" lon="17.957115680304">
        <ele>1</ele>
        <time>2018-12-15T09:15:12Z</time>
        <extensions><gpxtpx:TrackPointExtension><gpxtpx:hr>137</gpxtpx:hr></gpxtpx:TrackPointExtension></extensions>
      </trkpt>
      <trkpt lat="59.43249813621" lon="17.95701710916">
        <ele>1</ele>
        <time>2018-12-15T09:15:14Z</time>
        <extensions><gpxtpx:TrackPointExtension><gpxtpx:hr>137</gpxtpx:hr></gpxtpx:TrackPointExtension></extensions>
      </trkpt>
      <trkpt lat="59.433036002733" lon="17.956726173411">
        <ele>1.2</ele>
        <time>2018-12-15T09:15:22Z</time>
        <extensions><gpxtpx:TrackPointExtension><gpxtpx:hr>138</gpxtpx:hr></gpxtpx:TrackPointExtension></extensions>
      </trkpt>
      <trkpt lat="59.433602702992" lon="17.956600612549">
        <ele>1.2</ele>
        <time>2018-12-15T09:15:30Z</time>
        <extensions><gpxtpx:TrackPointExtension><gpxtpx:hr>140</gpxtpx:hr></gpxtpx:TrackPointExtension></extensions>
      </trkpt>
      <trkpt lat="59.433674032961" lon="17.956566414397">
        <ele>1.2</ele>
        <time>2018-12-15T09:15:31Z</time>
        <extensions><gpxtpx:TrackPointExtension><gpxtpx:hr>141</gpxtpx:hr></gpxtpx:TrackPointExtension></extensions>
      </trkpt>
      <trkpt lat="59.434155740754" lon="17.956207920534">
        <ele>1</ele>
        <time>2018-12-15T09:15:38Z</time>
        <extensions><gpxtpx:TrackPointExtension><gpxtpx:hr>144</gpxtpx:hr></gpxtpx:TrackPointExtension></extensions>
      </trkpt>
      <trkpt lat="59.434715735493" lon="17.955788909353">
        <ele>0.8</ele>
        <time>2018-12-15T09:15:46Z</time>
        <extensions><gpxtpx:TrackPointExtension><gpxtpx:hr>145</gpxtpx:hr></gpxtpx:TrackPointExtension></extensions>
      </trkpt>
      <trkpt lat="59.435283944494" lon="17.955561424587">
        <ele>1</ele>
        <time>2018-12-15T09:15:54Z</time>
        <extensions><gpxtpx:TrackPointExtension><gpxtpx:hr>144</gpxtpx:hr></gpxtpx:TrackPointExtension></extensions>
      </trkpt>
      <trkpt lat="59.4358601163" lon="17.955548348823">
        <ele>1.4</ele>
        <time>2018-12-15T09:16:02Z</time>
        <extensions><gpxtpx:TrackPointExtension><gpxtpx:hr>142</gpxtpx:hr></gpxtpx:TrackPointExtension></extensions>
      </trkpt>
      <trkpt lat="59.436304608457" lon="17.9555636877">
        <ele>1.6</ele>
        <time>2018-12-15T09:16:08Z</time>
        <extensions><gpxtpx:TrackPointExtension><gpxtpx:hr>139</gpxtpx:hr></gpxtpx:TrackPointExtension></extensions>
      </trkpt>
      <trkpt lat="59.436909362542" lon="17.955512222834">
        <ele>1</ele>
        <time>2018-12-15T09:16:16Z</time>
        <extensions><gpxtpx:TrackPointExtension><gpxtpx:hr>137</gpxtpx:hr></gpxtpx:TrackPointExtension></extensions>
      </trkpt>
      <trkpt lat="59.437194263323" lon="17.955375597864">
        <ele>1</ele>
        <time>2018-12-15T09:16:20Z</time>
        <extensions><gpxtpx:TrackPointExtension><gpxtpx:hr>136</gpxtpx:hr></gpxtpx:TrackPointExtension></extensions>
      </trkpt>
      <trkpt lat="59.437633391064" lon="17.954914258088">
        <ele>1</ele>
        <time>2018-12-15T09:16:27Z</time>
        <extensions><gpxtpx:TrackPointExtension><gpxtpx:hr>137</gpxtpx:hr></gpxtpx:TrackPointExtension></extensions>
      </trkpt>
      <trkpt lat="59.437837322691" lon="17.95485038801">
        <ele>1.2</ele>
        <time>2018-12-15T09:16:30Z</time>
        <extensions><gpxtpx:TrackPointExtension><gpxtpx:hr>140</gpxtpx:hr></gpxtpx:TrackPointExtension></extensions>
      </trkpt>
      <trkpt lat="59.438110404993" lon="17.954805628664">
        <ele>1.8</ele>
        <time>2018-12-15T09:16:34Z</time>
        <extensions><gpxtpx:TrackPointExtension><gpxtpx:hr>143</gpxtpx:hr></gpxtpx:TrackPointExtension></extensions>
      </trkpt>
      <trkpt lat="59.438180896772" lon="17.954791966167">
        <ele>2</ele>
        <time>2018-12-15T09:16:35Z</time>
        <extensions><gpxtpx:TrackPointExtension><gpxtpx:hr>143</gpxtpx:hr></gpxtpx:TrackPointExtension></extensions>
      </trkpt>
      <trkpt lat="59.438747345574" lon="17.954592979861">
        <ele>2.8</ele>
        <time>2018-12-15T09:16:43Z</time>
        <extensions><gpxtpx:TrackPointExtension><gpxtpx:hr>143</gpxtpx:hr></gpxtpx:TrackPointExtension></extensions>
      </trkpt>
      <trkpt lat="59.438925544768" lon="17.954477812555">
        <ele>3</ele>
        <time>2018-12-15T09:16:46Z</time>
        <extensions><gpxtpx:TrackPointExtension><gpxtpx:hr>142</gpxtpx:hr></gpxtpx:TrackPointExtension></extensions>
      </trkpt>
      <trkpt lat="59.439099636831" lon="17.954232809618">
        <ele>3</ele>
        <time>2018-12-15T09:16:50Z</time>
        <extensions><gpxtpx:TrackPointExtension><gpxtpx:hr>140</gpxtpx:hr></gpxtpx:TrackPointExtension></extensions>
      </trkpt>
      <trkpt lat="59.439502722402" lon="17.954058214641">
        <ele>3</ele>
        <time>2018-12-15T09:16:56Z</time>
        <extensions><gpxtpx:TrackPointExtension><gpxtpx:hr>137</gpxtpx:hr></gpxtpx:TrackPointExtension></extensions>
      </trkpt>
      <trkpt lat="59.43968729184" lon="17.953768787634">
        <ele>3</ele>
        <time>2018-12-15T09:16:59Z</time>
        <extensions><gpxtpx:TrackPointExtension><gpxtpx:hr>134</gpxtpx:hr></gpxtpx:TrackPointExtension></extensions>
      </trkpt>
      <trkpt lat="59.439866580681" lon="17.953327145323">
        <ele>2.4</ele>
        <time>2018-12-15T09:17:03Z</time>
        <extensions><gpxtpx:TrackPointExtension><gpxtpx:hr>133</gpxtpx:hr></gpxtpx:TrackPointExtension></extensions>
      </trkpt>
      <trkpt lat="59.440127844504" lon="17.952911989816">
        <ele>1.4</ele>
        <time>2018-12-15T09:17:10Z</time>
        <extensions><gpxtpx:TrackPointExtension><gpxtpx:hr>132</gpxtpx:hr></gpxtpx:TrackPointExtension></extensions>
      </trkpt>
      <trkpt lat="59.440193726238" lon="17.95292003644">
        <ele>1.4</ele>
        <time>2018-12-15T09:17:11Z</time>
        <extensions><gpxtpx:TrackPointExtension><gpxtpx:hr>132</gpxtpx:hr></gpxtpx:TrackPointExtension></extensions>
      </trkpt>
      <trkpt lat="59.440483656159" lon="17.95259481872">
        <ele>1.2</ele>
        <time>2018-12-15T09:17:16Z</time>
        <extensions><gpxtpx:TrackPointExtension><gpxtpx:hr>136</gpxtpx:hr></gpxtpx:TrackPointExtension></extensions>
      </trkpt>
      <trkpt lat="59.440610222849" lon="17.952265996783">
        <ele>1.2</ele>
        <time>2018-12-15T09:17:18Z</time>
        <extensions><gpxtpx:TrackPointExtension><gpxtpx:hr>139</gpxtpx:hr></gpxtpx:TrackPointExtension></extensions>
      </trkpt>
      <trkpt lat="59.440610222849" lon="17.952265996783">
        <ele>1.2</ele>
        <time>2018-12-15T09:17:19Z</time>
        <extensions><gpxtpx:TrackPointExtension><gpxtpx:hr>139</gpxtpx:hr></gpxtpx:TrackPointExtension></extensions>
      </trkpt>
      <trkpt lat="59.440649617779" lon="17.952163402327">
        <ele>1.4</ele>
        <time>2018-12-15T09:17:20Z</time>
        <extensions><gpxtpx:TrackPointExtension><gpxtpx:hr>141</gpxtpx:hr></gpxtpx:TrackPointExtension></extensions>
      </trkpt>
      <trkpt lat="59.440724551965" lon="17.951988136798">
        <ele>1.4</ele>
        <time>2018-12-15T09:17:22Z</time>
        <extensions><gpxtpx:TrackPointExtension><gpxtpx:hr>144</gpxtpx:hr></gpxtpx:TrackPointExtension></extensions>
      </trkpt>
      <trkpt lat="59.44084483223" lon="17.951796610383">
        <ele>1.4</ele>
        <time>2018-12-15T09:17:25Z</time>
        <extensions><gpxtpx:TrackPointExtension><gpxtpx:hr>148</gpxtpx:hr></gpxtpx:TrackPointExtension></extensions>
      </trkpt>
      <trkpt lat="59.44093703313" lon="17.951715641229">
        <ele>1.4</ele>
        <time>2018-12-15T09:17:27Z</time>
        <extensions><gpxtpx:TrackPointExtension><gpxtpx:hr>152</gpxtpx:hr></gpxtpx:TrackPointExtension></extensions>
      </trkpt>
      <trkpt lat="59.441059157413" lon="17.951614806972">
        <ele>2.6</ele>
        <time>2018-12-15T09:17:30Z</time>
        <extensions><gpxtpx:TrackPointExtension><gpxtpx:hr>156</gpxtpx:hr></gpxtpx:TrackPointExtension></extensions>
      </trkpt>
      <trkpt lat="59.441096624506" lon="17.951583626304">
        <ele>3.4</ele>
        <time>2018-12-15T09:17:31Z</time>
        <extensions><gpxtpx:TrackPointExtension><gpxtpx:hr>157</gpxtpx:hr></gpxtpx:TrackPointExtension></extensions>
      </trkpt>
      <trkpt lat="59.441129146278" lon="17.951545237202">
        <ele>4.4</ele>
        <time>2018-12-15T09:17:32Z</time>
        <extensions><gpxtpx:TrackPointExtension><gpxtpx:hr>158</gpxtpx:hr></gpxtpx:TrackPointExtension></extensions>
      </trkpt>
      <trkpt lat="59.441147083544" lon="17.951488324101">
        <ele>6.2</ele>
        <time>2018-12-15T09:17:33Z</time>
        <extensions><gpxtpx:TrackPointExtension><gpxtpx:hr>159</gpxtpx:hr></gpxtpx:TrackPointExtension></extensions>
      </trkpt>
      <trkpt lat="59.4411574771" lon="17.951314148219">
        <ele>7.6</ele>
        <time>2018-12-15T09:17:35Z</time>
        <extensions><gpxtpx:TrackPointExtension><gpxtpx:hr>160</gpxtpx:hr></gpxtpx:TrackPointExtension></extensions>
      </trkpt>
      <trkpt lat="59.441184382999" lon="17.951120526329">
        <ele>9.2</ele>
        <time>2018-12-15T09:17:37Z</time>
        <extensions><gpxtpx:TrackPointExtension><gpxtpx:hr>161</gpxtpx:hr></gpxtpx:TrackPointExtension></extensions>
      </trkpt>
      <trkpt lat="59.44126057447" lon="17.951030672361">
        <ele>10.4</ele>
        <time>2018-12-15T09:17:39Z</time>
        <extensions><gpxtpx:TrackPointExtension><gpxtpx:hr>161</gpxtpx:hr></gpxtpx:TrackPointExtension></extensions>
      </trkpt>
      <trkpt lat="59.441591910977" lon="17.951501902779">
        <ele>11.2</ele>
        <time>2018-12-15T09:17:47Z</time>
        <extensions><gpxtpx:TrackPointExtension><gpxtpx:hr>162</gpxtpx:hr></gpxtpx:TrackPointExtension></extensions>
      </trkpt>
      <trkpt lat="59.442037995695" lon="17.951895684441">
        <ele>11.2</ele>
        <time>2018-12-15T09:17:54Z</time>
        <extensions><gpxtpx:TrackPointExtension><gpxtpx:hr>160</gpxtpx:hr></gpxtpx:TrackPointExtension></extensions>
      </trkpt>
      <trkpt lat="59.442324405218" lon="17.95175076139">
        <ele>9.8</ele>
        <time>2018-12-15T09:17:58Z</time>
        <extensions><gpxtpx:TrackPointExtension><gpxtpx:hr>157</gpxtpx:hr></gpxtpx:TrackPointExtension></extensions>
      </trkpt>
      <trkpt lat="59.442376708274" lon="17.951668702589">
        <ele>9.4</ele>
        <time>2018-12-15T09:17:59Z</time>
        <extensions><gpxtpx:TrackPointExtension><gpxtpx:hr>157</gpxtpx:hr></gpxtpx:TrackPointExtension></extensions>
      </trkpt>
      <trkpt lat="59.442425323294" lon="17.951583291028">
        <ele>9.2</ele>
        <time>2018-12-15T09:18:00Z</time>
        <extensions><gpxtpx:TrackPointExtension><gpxtpx:hr>156</gpxtpx:hr></gpxtpx:TrackPointExtension></extensions>
      </trkpt>
      <trkpt lat="59.442507717371" lon="17.951432333009">
        <ele>8.6</ele>
        <time>2018-12-15T09:18:02Z</time>
        <extensions><gpxtpx:TrackPointExtension><gpxtpx:hr>155</gpxtpx:hr></gpxtpx:TrackPointExtension></extensions>
      </trkpt>
      <trkpt lat="59.442824301734" lon="17.951260755516">
        <ele>8.4</ele>
        <time>2018-12-15T09:18:08Z</time>
        <extensions><gpxtpx:TrackPointExtension><gpxtpx:hr>154</gpxtpx:hr></gpxtpx:TrackPointExtension></extensions>
      </trkpt>
      <trkpt lat="59.443208276573" lon="17.951243572621">
        <ele>8.6</ele>
        <time>2018-12-15T09:18:14Z</time>
        <extensions><gpxtpx:TrackPointExtension><gpxtpx:hr>156</gpxtpx:hr></gpxtpx:TrackPointExtension></extensions>
      </trkpt>
      <trkpt lat="59.44376173343" lon="17.950859849239">
        <ele>9</ele>
        <time>2018-12-15T09:18:23Z</time>
        <extensions><gpxtpx:TrackPointExtension><gpxtpx:hr>156</gpxtpx:hr></gpxtpx:TrackPointExtension></extensions>
      </trkpt>
      <trkpt lat="59.444269425113" lon="17.95063429231">
        <ele>9.8</ele>
        <time>2018-12-15T09:18:31Z</time>
        <extensions><gpxtpx:TrackPointExtension><gpxtpx:hr>153</gpxtpx:hr></gpxtpx:TrackPointExtension></extensions>
      </trkpt>
      <trkpt lat="59.444701428239" lon="17.950664131874">
        <ele>9.8</ele>
        <time>2018-12-15T09:18:37Z</time>
        <extensions><gpxtpx:TrackPointExtension><gpxtpx:hr>150</gpxtpx:hr></gpxtpx:TrackPointExtension></extensions>
      </trkpt>
      <trkpt lat="59.445040476094" lon="17.950659940924">
        <ele>9.6</ele>
        <time>2018-12-15T09:18:42Z</time>
        <extensions><gpxtpx:TrackPointExtension><gpxtpx:hr>148</gpxtpx:hr></gpxtpx:TrackPointExtension></extensions>
      </trkpt>
      <trkpt lat="59.445151033355" lon="17.950594729742">
        <ele>9.6</ele>
        <time>2018-12-15T09:18:44Z</time>
        <extensions><gpxtpx:TrackPointExtension><gpxtpx:hr>145</gpxtpx:hr></gpxtpx:TrackPointExtension></extensions>
      </trkpt>
      <trkpt lat="59.445241474056" lon="17.950514514959">
        <ele>9.6</ele>
        <time>2018-12-15T09:18:46Z</time>
        <extensions><gpxtpx:TrackPointExtension><gpxtpx:hr>141</gpxtpx:hr></gpxtpx:TrackPointExtension></extensions>
      </trkpt>
      <trkpt lat="59.445285730488" lon="17.950489536897">
        <ele>9.6</ele>
        <time>2018-12-15T09:18:47Z</time>
        <extensions><gpxtpx:TrackPointExtension><gpxtpx:hr>139</gpxtpx:hr></gpxtpx:TrackPointExtension></extensions>
      </trkpt>
      <trkpt lat="59.445599213548" lon="17.95026045957">
        <ele>10.2</ele>
        <time>2018-12-15T09:18:54Z</time>
        <extensions><gpxtpx:TrackPointExtension><gpxtpx:hr>140</gpxtpx:hr></gpxtpx:TrackPointExtension></extensions>
      </trkpt>
      <trkpt lat="59.445651097509" lon="17.950117045261">
        <ele>10.4</ele>
        <time>2018-12-15T09:18:56Z</time>
        <extensions><gpxtpx:TrackPointExtension><gpxtpx:hr>142</gpxtpx:hr></gpxtpx:TrackPointExtension></extensions>
      </trkpt>
      <trkpt lat="59.445669956784" lon="17.950036411383">
        <ele>10.4</ele>
        <time>2018-12-15T09:18:57Z</time>
        <extensions><gpxtpx:TrackPointExtension><gpxtpx:hr>143</gpxtpx:hr></gpxtpx:TrackPointExtension></extensions>
      </trkpt>
      <trkpt lat="59.445715302863" lon="17.949783697098">
        <ele>10.6</ele>
        <time>2018-12-15T09:19:00Z</time>
        <extensions><gpxtpx:TrackPointExtension><gpxtpx:hr>146</gpxtpx:hr></gpxtpx:TrackPointExtension></extensions>
      </trkpt>
      <trkpt lat="59.445737431079" lon="17.949699542822">
        <ele>11</ele>
        <time>2018-12-15T09:19:01Z</time>
        <extensions><gpxtpx:TrackPointExtension><gpxtpx:hr>147</gpxtpx:hr></gpxtpx:TrackPointExtension></extensions>
      </trkpt>
      <trkpt lat="59.445785459366" lon="17.949556715246">
        <ele>11.4</ele>
        <time>2018-12-15T09:19:03Z</time>
        <extensions><gpxtpx:TrackPointExtension><gpxtpx:hr>148</gpxtpx:hr></gpxtpx:TrackPointExtension></extensions>
      </trkpt>
      <trkpt lat="59.445834242024" lon="17.949411037824">
        <ele>12.4</ele>
        <time>2018-12-15T09:19:05Z</time>
        <extensions><gpxtpx:TrackPointExtension><gpxtpx:hr>149</gpxtpx:hr></gpxtpx:TrackPointExtension></extensions>
      </trkpt>
      <trkpt lat="59.445865003597" lon="17.949338282932">
        <ele>13</ele>
        <time>2018-12-15T09:19:06Z</time>
        <extensions><gpxtpx:TrackPointExtension><gpxtpx:hr>149</gpxtpx:hr></gpxtpx:TrackPointExtension></extensions>
      </trkpt>
      <trkpt lat="59.445958294144" lon="17.949093447633">
        <ele>14.2</ele>
        <time>2018-12-15T09:19:09Z</time>
        <extensions><gpxtpx:TrackPointExtension><gpxtpx:hr>150</gpxtpx:hr></gpxtpx:TrackPointExtension></extensions>
      </trkpt>
      <trkpt lat="59.445987882251" lon="17.94900317457">
        <ele>14.6</ele>
        <time>2018-12-15T09:19:10Z</time>
        <extensions><gpxtpx:TrackPointExtension><gpxtpx:hr>150</gpxtpx:hr></gpxtpx:TrackPointExtension></extensions>
      </trkpt>
      <trkpt lat="59.446036832547" lon="17.948809636499">
        <ele>15.4</ele>
        <time>2018-12-15T09:19:12Z</time>
        <extensions><gpxtpx:TrackPointExtension><gpxtpx:hr>150</gpxtpx:hr></gpxtpx:TrackPointExtension></extensions>
      </trkpt>
      <trkpt lat="59.446068180853" lon="17.948497913638">
        <ele>15.8</ele>
        <time>2018-12-15T09:19:15Z</time>
        <extensions><gpxtpx:TrackPointExtension><gpxtpx:hr>152</gpxtpx:hr></gpxtpx:TrackPointExtension></extensions>
      </trkpt>
      <trkpt lat="59.446119310443" lon="17.947599793053">
        <ele>16</ele>
        <time>2018-12-15T09:19:23Z</time>
        <extensions><gpxtpx:TrackPointExtension><gpxtpx:hr>152</gpxtpx:hr></gpxtpx:TrackPointExtension></extensions>
      </trkpt>
      <trkpt lat="59.446075640744" lon="17.94678700021">
        <ele>16.4</ele>
        <time>2018-12-15T09:19:30Z</time>
        <extensions><gpxtpx:TrackPointExtension><gpxtpx:hr>153</gpxtpx:hr></gpxtpx:TrackPointExtension></extensions>
      </trkpt>
      <trkpt lat="59.446031468131" lon="17.946327336814">
        <ele>16.6</ele>
        <time>2018-12-15T09:19:34Z</time>
        <extensions><gpxtpx:TrackPointExtension><gpxtpx:hr>150</gpxtpx:hr></gpxtpx:TrackPointExtension></extensions>
      </trkpt>
      <trkpt lat="59.445896016627" lon="17.945414715542">
        <ele>16.2</ele>
        <time>2018-12-15T09:19:42Z</time>
        <extensions><gpxtpx:TrackPointExtension><gpxtpx:hr>147</gpxtpx:hr></gpxtpx:TrackPointExtension></extensions>
      </trkpt>
      <trkpt lat="59.445835331671" lon="17.945198462522">
        <ele>16</ele>
        <time>2018-12-15T09:19:44Z</time>
        <extensions><gpxtpx:TrackPointExtension><gpxtpx:hr>146</gpxtpx:hr></gpxtpx:TrackPointExtension></extensions>
      </trkpt>
      <trkpt lat="59.445626873818" lon="17.944816834615">
        <ele>15.8</ele>
        <time>2018-12-15T09:19:48Z</time>
        <extensions><gpxtpx:TrackPointExtension><gpxtpx:hr>143</gpxtpx:hr></gpxtpx:TrackPointExtension></extensions>
      </trkpt>
      <trkpt lat="59.4455076832" lon="17.944454149802">
        <ele>15.6</ele>
        <time>2018-12-15T09:19:51Z</time>
        <extensions><gpxtpx:TrackPointExtension><gpxtpx:hr>142</gpxtpx:hr></gpxtpx:TrackPointExtension></extensions>
      </trkpt>
      <trkpt lat="59.445482453681" lon="17.94431098695">
        <ele>15.4</ele>
        <time>2018-12-15T09:19:52Z</time>
        <extensions><gpxtpx:TrackPointExtension><gpxtpx:hr>141</gpxtpx:hr></gpxtpx:TrackPointExtension></extensions>
      </trkpt>
      <trkpt lat="59.445410369341" lon="17.943832799555">
        <ele>14</ele>
        <time>2018-12-15T09:19:55Z</time>
        <extensions><gpxtpx:TrackPointExtension><gpxtpx:hr>139</gpxtpx:hr></gpxtpx:TrackPointExtension></extensions>
      </trkpt>
      <trkpt lat="59.445259662779" lon="17.942782547485">
        <ele>12.8</ele>
        <time>2018-12-15T09:20:01Z</time>
        <extensions><gpxtpx:TrackPointExtension><gpxtpx:hr>137</gpxtpx:hr></gpxtpx:TrackPointExtension></extensions>
      </trkpt>
      <trkpt lat="59.445181124376" lon="17.942255996527">
        <ele>11.8</ele>
        <time>2018-12-15T09:20:04Z</time>
        <extensions><gpxtpx:TrackPointExtension><gpxtpx:hr>134</gpxtpx:hr></gpxtpx:TrackPointExtension></extensions>
      </trkpt>
      <trkpt lat="59.445132760813" lon="17.941929856798">
        <ele>11.4</ele>
        <time>2018-12-15T09:20:06Z</time>
        <extensions><gpxtpx:TrackPointExtension><gpxtpx:hr>135</gpxtpx:hr></gpxtpx:TrackPointExtension></extensions>
      </trkpt>
      <trkpt lat="59.444984485002" lon="17.940902990229">
        <ele>11</ele>
        <time>2018-12-15T09:20:13Z</time>
        <extensions><gpxtpx:TrackPointExtension><gpxtpx:hr>137</gpxtpx:hr></gpxtpx:TrackPointExtension></extensions>
      </trkpt>
      <trkpt lat="59.444919692915" lon="17.940497390088">
        <ele>11</ele>
        <time>2018-12-15T09:20:16Z</time>
        <extensions><gpxtpx:TrackPointExtension><gpxtpx:hr>137</gpxtpx:hr></gpxtpx:TrackPointExtension></extensions>
      </trkpt>
      <trkpt lat="59.444695309452" lon="17.939944100869">
        <ele>12.2</ele>
        <time>2018-12-15T09:20:22Z</time>
        <extensions><gpxtpx:TrackPointExtension><gpxtpx:hr>135</gpxtpx:hr></gpxtpx:TrackPointExtension></extensions>
      </trkpt>
      <trkpt lat="59.444610316986" lon="17.939862880258">
        <ele>12.6</ele>
        <time>2018-12-15T09:20:24Z</time>
        <extensions><gpxtpx:TrackPointExtension><gpxtpx:hr>134</gpxtpx:hr></gpxtpx:TrackPointExtension></extensions>
      </trkpt>
      <trkpt lat="59.444517864629" lon="17.939716951379">
        <ele>13.6</ele>
        <time>2018-12-15T09:20:27Z</time>
        <extensions><gpxtpx:TrackPointExtension><gpxtpx:hr>132</gpxtpx:hr></gpxtpx:TrackPointExtension></extensions>
      </trkpt>
      <trkpt lat="59.444670247571" lon="17.939331216341">
        <ele>14.4</ele>
        <time>2018-12-15T09:20:33Z</time>
        <extensions><gpxtpx:TrackPointExtension><gpxtpx:hr>135</gpxtpx:hr></gpxtpx:TrackPointExtension></extensions>
      </trkpt>
      <trkpt lat="59.4447030208" lon="17.939261311295">
        <ele>14.8</ele>
        <time>2018-12-15T09:20:34Z</time>
        <extensions><gpxtpx:TrackPointExtension><gpxtpx:hr>136</gpxtpx:hr></gpxtpx:TrackPointExtension></extensions>
      </trkpt>
      <trkpt lat="59.444809051835" lon="17.939051260881">
        <ele>15.6</ele>
        <time>2018-12-15T09:20:37Z</time>
        <extensions><gpxtpx:TrackPointExtension><gpxtpx:hr>136</gpxtpx:hr></gpxtpx:TrackPointExtension></extensions>
      </trkpt>
      <trkpt lat="59.444849284955" lon="17.938988648088">
        <ele>15.8</ele>
        <time>2018-12-15T09:20:38Z</time>
        <extensions><gpxtpx:TrackPointExtension><gpxtpx:hr>136</gpxtpx:hr></gpxtpx:TrackPointExtension></extensions>
      </trkpt>
      <trkpt lat="59.445243569531" lon="17.938839785544">
        <ele>16.4</ele>
        <time>2018-12-15T09:20:45Z</time>
        <extensions><gpxtpx:TrackPointExtension><gpxtpx:hr>137</gpxtpx:hr></gpxtpx:TrackPointExtension></extensions>
      </trkpt>
      <trkpt lat="59.445386900021" lon="17.938872726411">
        <ele>16.4</ele>
        <time>2018-12-15T09:20:47Z</time>
        <extensions><gpxtpx:TrackPointExtension><gpxtpx:hr>136</gpxtpx:hr></gpxtpx:TrackPointExtension></extensions>
      </trkpt>
      <trkpt lat="59.445560321532" lon="17.93872193603">
        <ele>16.2</ele>
        <time>2018-12-15T09:20:50Z</time>
        <extensions><gpxtpx:TrackPointExtension><gpxtpx:hr>132</gpxtpx:hr></gpxtpx:TrackPointExtension></extensions>
      </trkpt>
      <trkpt lat="59.445579683721" lon="17.938373668085">
        <ele>15.4</ele>
        <time>2018-12-15T09:20:53Z</time>
        <extensions><gpxtpx:TrackPointExtension><gpxtpx:hr>129</gpxtpx:hr></gpxtpx:TrackPointExtension></extensions>
      </trkpt>
      <trkpt lat="59.445541713714" lon="17.938112823357">
        <ele>14.4</ele>
        <time>2018-12-15T09:20:55Z</time>
        <extensions><gpxtpx:TrackPointExtension><gpxtpx:hr>128</gpxtpx:hr></gpxtpx:TrackPointExtension></extensions>
      </trkpt>
      <trkpt lat="59.445499971852" lon="17.937705965931">
        <ele>14</ele>
        <time>2018-12-15T09:20:58Z</time>
        <extensions><gpxtpx:TrackPointExtension><gpxtpx:hr>131</gpxtpx:hr></gpxtpx:TrackPointExtension></extensions>
      </trkpt>
      <trkpt lat="59.445479687654" lon="17.937139265672">
        <ele>13.8</ele>
        <time>2018-12-15T09:21:02Z</time>
        <extensions><gpxtpx:TrackPointExtension><gpxtpx:hr>134</gpxtpx:hr></gpxtpx:TrackPointExtension></extensions>
      </trkpt>
      <trkpt lat="59.44546493551" lon="17.936715979722">
        <ele>13.6</ele>
        <time>2018-12-15T09:21:05Z</time>
        <extensions><gpxtpx:TrackPointExtension><gpxtpx:hr>137</gpxtpx:hr></gpxtpx:TrackPointExtension></extensions>
      </trkpt>
      <trkpt lat="59.445408609142" lon="17.93555273964">
        <ele>14</ele>
        <time>2018-12-15T09:21:14Z</time>
        <extensions><gpxtpx:TrackPointExtension><gpxtpx:hr>138</gpxtpx:hr></gpxtpx:TrackPointExtension></extensions>
      </trkpt>
      <trkpt lat="59.445386816202" lon="17.935224420617">
        <ele>14.6</ele>
        <time>2018-12-15T09:21:17Z</time>
        <extensions><gpxtpx:TrackPointExtension><gpxtpx:hr>139</gpxtpx:hr></gpxtpx:TrackPointExtension></extensions>
      </trkpt>
      <trkpt lat="59.445614636244" lon="17.934960558405">
        <ele>15.4</ele>
        <time>2018-12-15T09:21:22Z</time>
        <extensions><gpxtpx:TrackPointExtension><gpxtpx:hr>139</gpxtpx:hr></gpxtpx:TrackPointExtension></extensions>
      </trkpt>
      <trkpt lat="59.445747321721" lon="17.934928036633">
        <ele>15.8</ele>
        <time>2018-12-15T09:21:24Z</time>
        <extensions><gpxtpx:TrackPointExtension><gpxtpx:hr>140</gpxtpx:hr></gpxtpx:TrackPointExtension></extensions>
      </trkpt>
      <trkpt lat="59.446075389287" lon="17.934899286716">
        <ele>16.6</ele>
        <time>2018-12-15T09:21:29Z</time>
        <extensions><gpxtpx:TrackPointExtension><gpxtpx:hr>142</gpxtpx:hr></gpxtpx:TrackPointExtension></extensions>
      </trkpt>
      <trkpt lat="59.446478810134" lon="17.93486207108">
        <ele>16.6</ele>
        <time>2018-12-15T09:21:35Z</time>
        <extensions><gpxtpx:TrackPointExtension><gpxtpx:hr>139</gpxtpx:hr></gpxtpx:TrackPointExtension></extensions>
      </trkpt>
      <trkpt lat="59.447045426574" lon="17.93482435253">
        <ele>17.4</ele>
        <time>2018-12-15T09:21:44Z</time>
        <extensions><gpxtpx:TrackPointExtension><gpxtpx:hr>139</gpxtpx:hr></gpxtpx:TrackPointExtension></extensions>
      </trkpt>
      <trkpt lat="59.447109212833" lon="17.934820748313">
        <ele>17.6</ele>
        <time>2018-12-15T09:21:45Z</time>
        <extensions><gpxtpx:TrackPointExtension><gpxtpx:hr>140</gpxtpx:hr></gpxtpx:TrackPointExtension></extensions>
      </trkpt>
      <trkpt lat="59.447380870212" lon="17.934766936515">
        <ele>18.2</ele>
        <time>2018-12-15T09:21:49Z</time>
        <extensions><gpxtpx:TrackPointExtension><gpxtpx:hr>140</gpxtpx:hr></gpxtpx:TrackPointExtension></extensions>
      </trkpt>
      <trkpt lat="59.447723187008" lon="17.934537188636">
        <ele>18.2</ele>
        <time>2018-12-15T09:21:54Z</time>
        <extensions><gpxtpx:TrackPointExtension><gpxtpx:hr>137</gpxtpx:hr></gpxtpx:TrackPointExtension></extensions>
      </trkpt>
      <trkpt lat="59.448075813541" lon="17.934243738317">
        <ele>18</ele>
        <time>2018-12-15T09:21:59Z</time>
        <extensions><gpxtpx:TrackPointExtension><gpxtpx:hr>134</gpxtpx:hr></gpxtpx:TrackPointExtension></extensions>
      </trkpt>
      <trkpt lat="59.448444365684" lon="17.933938972433">
        <ele>16.6</ele>
        <time>2018-12-15T09:22:04Z</time>
        <extensions><gpxtpx:TrackPointExtension><gpxtpx:hr>131</gpxtpx:hr></gpxtpx:TrackPointExtension></extensions>
      </trkpt>
      <trkpt lat="59.448747539007" lon="17.933690868193">
        <ele>15.8</ele>
        <time>2018-12-15T09:22:08Z</time>
        <extensions><gpxtpx:TrackPointExtension><gpxtpx:hr>128</gpxtpx:hr></gpxtpx:TrackPointExtension></extensions>
      </trkpt>
      <trkpt lat="59.448819958623" lon="17.933616185464">
        <ele>15.4</ele>
        <time>2018-12-15T09:22:09Z</time>
        <extensions><gpxtpx:TrackPointExtension><gpxtpx:hr>127</gpxtpx:hr></gpxtpx:TrackPointExtension></extensions>
      </trkpt>
      <trkpt lat="59.448954571937" lon="17.933439914107">
        <ele>15.2</ele>
        <time>2018-12-15T09:22:11Z</time>
        <extensions><gpxtpx:TrackPointExtension><gpxtpx:hr>124</gpxtpx:hr></gpxtpx:TrackPointExtension></extensions>
      </trkpt>
      <trkpt lat="59.449070912709" lon="17.933220727422">
        <ele>15</ele>
        <time>2018-12-15T09:22:13Z</time>
        <extensions><gpxtpx:TrackPointExtension><gpxtpx:hr>120</gpxtpx:hr></gpxtpx:TrackPointExtension></extensions>
      </trkpt>
      <trkpt lat="59.449174345355" lon="17.932966336757">
        <ele>14.6</ele>
        <time>2018-12-15T09:22:15Z</time>
        <extensions><gpxtpx:TrackPointExtension><gpxtpx:hr>118</gpxtpx:hr></gpxtpx:TrackPointExtension></extensions>
      </trkpt>
      <trkpt lat="59.449221535452" lon="17.932828873597">
        <ele>14.4</ele>
        <time>2018-12-15T09:22:16Z</time>
        <extensions><gpxtpx:TrackPointExtension><gpxtpx:hr>118</gpxtpx:hr></gpxtpx:TrackPointExtension></extensions>
      </trkpt>
      <trkpt lat="59.449361261725" lon="17.932386560734">
        <ele>13.2</ele>
        <time>2018-12-15T09:22:19Z</time>
        <extensions><gpxtpx:TrackPointExtension><gpxtpx:hr>115</gpxtpx:hr></gpxtpx:TrackPointExtension></extensions>
      </trkpt>
      <trkpt lat="59.449498641066" lon="17.931919437447">
        <ele>12.6</ele>
        <time>2018-12-15T09:22:22Z</time>
        <extensions><gpxtpx:TrackPointExtension><gpxtpx:hr>112</gpxtpx:hr></gpxtpx:TrackPointExtension></extensions>
      </trkpt>
      <trkpt lat="59.449584052627" lon="17.931625987128">
        <ele>12</ele>
        <time>2018-12-15T09:22:24Z</time>
        <extensions><gpxtpx:TrackPointExtension><gpxtpx:hr>107</gpxtpx:hr></gpxtpx:TrackPointExtension></extensions>
      </trkpt>
      <trkpt lat="59.449620430073" lon="17.931495648583">
        <ele>11.8</ele>
        <time>2018-12-15T09:22:25Z</time>
        <extensions><gpxtpx:TrackPointExtension><gpxtpx:hr>104</gpxtpx:hr></gpxtpx:TrackPointExtension></extensions>
      </trkpt>
      <trkpt lat="59.449687569092" lon="17.931260117193">
        <ele>10.8</ele>
        <time>2018-12-15T09:22:27Z</time>
        <extensions><gpxtpx:TrackPointExtension><gpxtpx:hr>101</gpxtpx:hr></gpxtpx:TrackPointExtension></extensions>
      </trkpt>
      <trkpt lat="59.449784882951" lon="17.930939425699">
        <ele>9.8</ele>
        <time>2018-12-15T09:22:30Z</time>
        <extensions><gpxtpx:TrackPointExtension><gpxtpx:hr>101</gpxtpx:hr></gpxtpx:TrackPointExtension></extensions>
      </trkpt>
      <trkpt lat="59.449826121899" lon="17.930869269196">
        <ele>9.8</ele>
        <time>2018-12-15T09:22:31Z</time>
        <extensions><gpxtpx:TrackPointExtension><gpxtpx:hr>101</gpxtpx:hr></gpxtpx:TrackPointExtension></extensions>
      </trkpt>
      <trkpt lat="59.450197775345" lon="17.930874885069">
        <ele>9</ele>
        <time>2018-12-15T09:22:38Z</time>
        <extensions><gpxtpx:TrackPointExtension><gpxtpx:hr>101</gpxtpx:hr></gpxtpx:TrackPointExtension></extensions>
      </trkpt>
      <trkpt lat="59.450264662907" lon="17.930858372726">
        <ele>9</ele>
        <time>2018-12-15T09:22:39Z</time>
        <extensions><gpxtpx:TrackPointExtension><gpxtpx:hr>101</gpxtpx:hr></gpxtpx:TrackPointExtension></extensions>
      </trkpt>
      <trkpt lat="59.450635813439" lon="17.930915788741">
        <ele>8.8</ele>
        <time>2018-12-15T09:22:44Z</time>
        <extensions><gpxtpx:TrackPointExtension><gpxtpx:hr>102</gpxtpx:hr></gpxtpx:TrackPointExtension></extensions>
      </trkpt>
      <trkpt lat="59.45078408925" lon="17.930921991347">
        <ele>8.4</ele>
        <time>2018-12-15T09:22:46Z</time>
        <extensions><gpxtpx:TrackPointExtension><gpxtpx:hr>105</gpxtpx:hr></gpxtpx:TrackPointExtension></extensions>
      </trkpt>
      <trkpt lat="59.450857263237" lon="17.93091419618">
        <ele>7.8</ele>
        <time>2018-12-15T09:22:47Z</time>
        <extensions><gpxtpx:TrackPointExtension><gpxtpx:hr>108</gpxtpx:hr></gpxtpx:TrackPointExtension></extensions>
      </trkpt>
      <trkpt lat="59.450928593206" lon="17.930903802624">
        <ele>7.4</ele>
        <time>2018-12-15T09:22:48Z</time>
        <extensions><gpxtpx:TrackPointExtension><gpxtpx:hr>109</gpxtpx:hr></gpxtpx:TrackPointExtension></extensions>
      </trkpt>
      <trkpt lat="59.451067565108" lon="17.930861138753">
        <ele>6.8</ele>
        <time>2018-12-15T09:22:50Z</time>
        <extensions><gpxtpx:TrackPointExtension><gpxtpx:hr>113</gpxtpx:hr></gpxtpx:TrackPointExtension></extensions>
      </trkpt>
      <trkpt lat="59.451273256934" lon="17.930752174053">
        <ele>6.2</ele>
        <time>2018-12-15T09:22:53Z</time>
        <extensions><gpxtpx:TrackPointExtension><gpxtpx:hr>114</gpxtpx:hr></gpxtpx:TrackPointExtension></extensions>
      </trkpt>
      <trkpt lat="59.451480289864" lon="17.930595264885">
        <ele>5.6</ele>
        <time>2018-12-15T09:22:56Z</time>
        <extensions><gpxtpx:TrackPointExtension><gpxtpx:hr>111</gpxtpx:hr></gpxtpx:TrackPointExtension></extensions>
      </trkpt>
      <trkpt lat="59.451543237933" lon="17.93052946697">
        <ele>5.4</ele>
        <time>2018-12-15T09:22:57Z</time>
        <extensions><gpxtpx:TrackPointExtension><gpxtpx:hr>111</gpxtpx:hr></gpxtpx:TrackPointExtension></extensions>
      </trkpt>
      <trkpt lat="59.451718419643" lon="17.930290750458">
        <ele>5.2</ele>
        <time>2018-12-15T09:23:00Z</time>
        <extensions><gpxtpx:TrackPointExtension><gpxtpx:hr>109</gpxtpx:hr></gpxtpx:TrackPointExtension></extensions>
      </trkpt>
      <trkpt lat="59.452011283229" lon="17.929828823949">
        <ele>4.2</ele>
        <time>2018-12-15T09:23:05Z</time>
        <extensions><gpxtpx:TrackPointExtension><gpxtpx:hr>112</gpxtpx:hr></gpxtpx:TrackPointExtension></extensions>
      </trkpt>
      <trkpt lat="59.452068280149" lon="17.929734527574">
        <ele>4.2</ele>
        <time>2018-12-15T09:23:06Z</time>
        <extensions><gpxtpx:TrackPointExtension><gpxtpx:hr>111</gpxtpx:hr></gpxtpx:TrackPointExtension></extensions>
      </trkpt>
      <trkpt lat="59.45235988645" lon="17.929301602439">
        <ele>3.8</ele>
        <time>2018-12-15T09:23:11Z</time>
        <extensions><gpxtpx:TrackPointExtension><gpxtpx:hr>115</gpxtpx:hr></gpxtpx:TrackPointExtension></extensions>
      </trkpt>
      <trkpt lat="59.452424259442" lon="17.929231865031">
        <ele>3.6</ele>
        <time>2018-12-15T09:23:12Z</time>
        <extensions><gpxtpx:TrackPointExtension><gpxtpx:hr>116</gpxtpx:hr></gpxtpx:TrackPointExtension></extensions>
      </trkpt>
      <trkpt lat="59.452972854797" lon="17.928911927908">
        <ele>3.4</ele>
        <time>2018-12-15T09:23:21Z</time>
        <extensions><gpxtpx:TrackPointExtension><gpxtpx:hr>117</gpxtpx:hr></gpxtpx:TrackPointExtension></extensions>
      </trkpt>
      <trkpt lat="59.453020547808" lon="17.928871610969">
        <ele>3.6</ele>
        <time>2018-12-15T09:23:22Z</time>
        <extensions><gpxtpx:TrackPointExtension><gpxtpx:hr>117</gpxtpx:hr></gpxtpx:TrackPointExtension></extensions>
      </trkpt>
      <trkpt lat="59.453114089812" lon="17.928249338713">
        <ele>3.8</ele>
        <time>2018-12-15T09:23:28Z</time>
        <extensions><gpxtpx:TrackPointExtension><gpxtpx:hr>119</gpxtpx:hr></gpxtpx:TrackPointExtension></extensions>
      </trkpt>
      <trkpt lat="59.453111826699" lon="17.927863016942">
        <ele>4.2</ele>
        <time>2018-12-15T09:23:31Z</time>
        <extensions><gpxtpx:TrackPointExtension><gpxtpx:hr>122</gpxtpx:hr></gpxtpx:TrackPointExtension></extensions>
      </trkpt>
      <trkpt lat="59.453064971878" lon="17.926780326919">
        <ele>4.8</ele>
        <time>2018-12-15T09:23:40Z</time>
        <extensions><gpxtpx:TrackPointExtension><gpxtpx:hr>124</gpxtpx:hr></gpxtpx:TrackPointExtension></extensions>
      </trkpt>
      <trkpt lat="59.453023649111" lon="17.92616584983">
        <ele>5</ele>
        <time>2018-12-15T09:23:45Z</time>
        <extensions><gpxtpx:TrackPointExtension><gpxtpx:hr>127</gpxtpx:hr></gpxtpx:TrackPointExtension></extensions>
      </trkpt>
      <trkpt lat="59.453123896635" lon="17.925734098161">
        <ele>5.2</ele>
        <time>2018-12-15T09:23:50Z</time>
        <extensions><gpxtpx:TrackPointExtension><gpxtpx:hr>129</gpxtpx:hr></gpxtpx:TrackPointExtension></extensions>
      </trkpt>
      <trkpt lat="59.453237219923" lon="17.92568556696">
        <ele>5.2</ele>
        <time>2018-12-15T09:23:52Z</time>
        <extensions><gpxtpx:TrackPointExtension><gpxtpx:hr>129</gpxtpx:hr></gpxtpx:TrackPointExtension></extensions>
      </trkpt>
      <trkpt lat="59.453824288199" lon="17.925528909249">
        <ele>6.2</ele>
        <time>2018-12-15T09:24:01Z</time>
        <extensions><gpxtpx:TrackPointExtension><gpxtpx:hr>131</gpxtpx:hr></gpxtpx:TrackPointExtension></extensions>
      </trkpt>
      <trkpt lat="59.45437992435" lon="17.925418351988">
        <ele>5.8</ele>
        <time>2018-12-15T09:24:09Z</time>
        <extensions><gpxtpx:TrackPointExtension><gpxtpx:hr>131</gpxtpx:hr></gpxtpx:TrackPointExtension></extensions>
      </trkpt>
      <trkpt lat="59.454916785045" lon="17.925333946255">
        <ele>5.4</ele>
        <time>2018-12-15T09:24:17Z</time>
        <extensions><gpxtpx:TrackPointExtension><gpxtpx:hr>133</gpxtpx:hr></gpxtpx:TrackPointExtension></extensions>
      </trkpt>
      <trkpt lat="59.455498321267" lon="17.925317098636">
        <ele>5</ele>
        <time>2018-12-15T09:24:25Z</time>
        <extensions><gpxtpx:TrackPointExtension><gpxtpx:hr>134</gpxtpx:hr></gpxtpx:TrackPointExtension></extensions>
      </trkpt>
      <trkpt lat="59.456078767842" lon="17.92537040752">
        <ele>4.8</ele>
        <time>2018-12-15T09:24:34Z</time>
        <extensions><gpxtpx:TrackPointExtension><gpxtpx:hr>131</gpxtpx:hr></gpxtpx:TrackPointExtension></extensions>
      </trkpt>
      <trkpt lat="59.456165604326" lon="17.92554223647">
        <ele>4.8</ele>
        <time>2018-12-15T09:24:37Z</time>
        <extensions><gpxtpx:TrackPointExtension><gpxtpx:hr>128</gpxtpx:hr></gpxtpx:TrackPointExtension></extensions>
      </trkpt>
      <trkpt lat="59.456167196887" lon="17.925853624055">
        <ele>5</ele>
        <time>2018-12-15T09:24:40Z</time>
        <extensions><gpxtpx:TrackPointExtension><gpxtpx:hr>128</gpxtpx:hr></gpxtpx:TrackPointExtension></extensions>
      </trkpt>
      <trkpt lat="59.456178596271" lon="17.92648352384">
        <ele>5.6</ele>
        <time>2018-12-15T09:24:48Z</time>
        <extensions><gpxtpx:TrackPointExtension><gpxtpx:hr>126</gpxtpx:hr></gpxtpx:TrackPointExtension></extensions>
      </trkpt>
      <trkpt lat="59.45634128895" lon="17.92650866954">
        <ele>5.6</ele>
        <time>2018-12-15T09:24:52Z</time>
        <extensions><gpxtpx:TrackPointExtension><gpxtpx:hr>126</gpxtpx:hr></gpxtpx:TrackPointExtension></extensions>
      </trkpt>
      <trkpt lat="59.456569779544" lon="17.926442536349">
        <ele>5.4</ele>
        <time>2018-12-15T09:24:56Z</time>
        <extensions><gpxtpx:TrackPointExtension><gpxtpx:hr>129</gpxtpx:hr></gpxtpx:TrackPointExtension></extensions>
      </trkpt>
      <trkpt lat="59.45675535481" lon="17.926413870251">
        <ele>5.2</ele>
        <time>2018-12-15T09:24:59Z</time>
        <extensions><gpxtpx:TrackPointExtension><gpxtpx:hr>132</gpxtpx:hr></gpxtpx:TrackPointExtension></extensions>
      </trkpt>
      <trkpt lat="59.457344937656" lon="17.926289315217">
        <ele>4.8</ele>
        <time>2018-12-15T09:25:08Z</time>
        <extensions><gpxtpx:TrackPointExtension><gpxtpx:hr>132</gpxtpx:hr></gpxtpx:TrackPointExtension></extensions>
      </trkpt>
      <trkpt lat="59.457935442511" lon="17.926155120998">
        <ele>4.8</ele>
        <time>2018-12-15T09:25:17Z</time>
        <extensions><gpxtpx:TrackPointExtension><gpxtpx:hr>132</gpxtpx:hr></gpxtpx:TrackPointExtension></extensions>
      </trkpt>
      <trkpt lat="59.458196287239" lon="17.926092592024">
        <ele>4.6</ele>
        <time>2018-12-15T09:25:21Z</time>
        <extensions><gpxtpx:TrackPointExtension><gpxtpx:hr>129</gpxtpx:hr></gpxtpx:TrackPointExtension></extensions>
      </trkpt>
      <trkpt lat="59.458625691976" lon="17.926006342273">
        <ele>4.6</ele>
        <time>2018-12-15T09:25:28Z</time>
        <extensions><gpxtpx:TrackPointExtension><gpxtpx:hr>126</gpxtpx:hr></gpxtpx:TrackPointExtension></extensions>
      </trkpt>
      <trkpt lat="59.458722167645" lon="17.925965103325">
        <ele>4.6</ele>
        <time>2018-12-15T09:25:30Z</time>
        <extensions><gpxtpx:TrackPointExtension><gpxtpx:hr>124</gpxtpx:hr></gpxtpx:TrackPointExtension></extensions>
      </trkpt>
      <trkpt lat="59.45875695253" lon="17.925445174068">
        <ele>5.4</ele>
        <time>2018-12-15T09:25:36Z</time>
        <extensions><gpxtpx:TrackPointExtension><gpxtpx:hr>124</gpxtpx:hr></gpxtpx:TrackPointExtension></extensions>
      </trkpt>
      <trkpt lat="59.458711354994" lon="17.925132696836">
        <ele>5.4</ele>
        <time>2018-12-15T09:25:39Z</time>
        <extensions><gpxtpx:TrackPointExtension><gpxtpx:hr>124</gpxtpx:hr></gpxtpx:TrackPointExtension></extensions>
      </trkpt>
      <trkpt lat="59.458799784039" lon="17.924825332563">
        <ele>5.4</ele>
        <time>2018-12-15T09:25:43Z</time>
        <extensions><gpxtpx:TrackPointExtension><gpxtpx:hr>121</gpxtpx:hr></gpxtpx:TrackPointExtension></extensions>
      </trkpt>
      <trkpt lat="59.459056018722" lon="17.924734891862">
        <ele>5.4</ele>
        <time>2018-12-15T09:25:47Z</time>
        <extensions><gpxtpx:TrackPointExtension><gpxtpx:hr>121</gpxtpx:hr></gpxtpx:TrackPointExtension></extensions>
      </trkpt>
      <trkpt lat="59.459255927037" lon="17.924696670398">
        <ele>5.4</ele>
        <time>2018-12-15T09:25:50Z</time>
        <extensions><gpxtpx:TrackPointExtension><gpxtpx:hr>124</gpxtpx:hr></gpxtpx:TrackPointExtension></extensions>
      </trkpt>
      <trkpt lat="59.459831679748" lon="17.924597680159">
        <ele>5</ele>
        <time>2018-12-15T09:25:59Z</time>
        <extensions><gpxtpx:TrackPointExtension><gpxtpx:hr>126</gpxtpx:hr></gpxtpx:TrackPointExtension></extensions>
      </trkpt>
      <trkpt lat="59.460154634355" lon="17.92453054114">
        <ele>5.2</ele>
        <time>2018-12-15T09:26:04Z</time>
        <extensions><gpxtpx:TrackPointExtension><gpxtpx:hr>129</gpxtpx:hr></gpxtpx:TrackPointExtension></extensions>
      </trkpt>
      <trkpt lat="59.460414221798" lon="17.92449449897">
        <ele>5.2</ele>
        <time>2018-12-15T09:26:08Z</time>
        <extensions><gpxtpx:TrackPointExtension><gpxtpx:hr>132</gpxtpx:hr></gpxtpx:TrackPointExtension></extensions>
      </trkpt>
      <trkpt lat="59.461010174888" lon="17.92440648902">
        <ele>5.6</ele>
        <time>2018-12-15T09:26:17Z</time>
        <extensions><gpxtpx:TrackPointExtension><gpxtpx:hr>135</gpxtpx:hr></gpxtpx:TrackPointExtension></extensions>
      </trkpt>
      <trkpt lat="59.461572516559" lon="17.924320071631">
        <ele>5.2</ele>
        <time>2018-12-15T09:26:25Z</time>
        <extensions><gpxtpx:TrackPointExtension><gpxtpx:hr>134</gpxtpx:hr></gpxtpx:TrackPointExtension></extensions>
      </trkpt>
      <trkpt lat="59.462172409142" lon="17.924205742515">
        <ele>4.2</ele>
        <time>2018-12-15T09:26:33Z</time>
        <extensions><gpxtpx:TrackPointExtension><gpxtpx:hr>131</gpxtpx:hr></gpxtpx:TrackPointExtension></extensions>
      </trkpt>
      <trkpt lat="59.462431996585" lon="17.924168107784">
        <ele>3.8</ele>
        <time>2018-12-15T09:26:37Z</time>
        <extensions><gpxtpx:TrackPointExtension><gpxtpx:hr>128</gpxtpx:hr></gpxtpx:TrackPointExtension></extensions>
      </trkpt>
      <trkpt lat="59.462546744796" lon="17.924162491911">
        <ele>3.8</ele>
        <time>2018-12-15T09:26:39Z</time>
        <extensions><gpxtpx:TrackPointExtension><gpxtpx:hr>127</gpxtpx:hr></gpxtpx:TrackPointExtension></extensions>
      </trkpt>
      <trkpt lat="59.46278864643" lon="17.924009941331">
        <ele>3.8</ele>
        <time>2018-12-15T09:26:43Z</time>
        <extensions><gpxtpx:TrackPointExtension><gpxtpx:hr>128</gpxtpx:hr></gpxtpx:TrackPointExtension></extensions>
      </trkpt>
      <trkpt lat="59.46306441094" lon="17.923930145643">
        <ele>3.8</ele>
        <time>2018-12-15T09:26:47Z</time>
        <extensions><gpxtpx:TrackPointExtension><gpxtpx:hr>131</gpxtpx:hr></gpxtpx:TrackPointExtension></extensions>
      </trkpt>
      <trkpt lat="59.463276389191" lon="17.923865185918">
        <ele>3.8</ele>
        <time>2018-12-15T09:26:50Z</time>
        <extensions><gpxtpx:TrackPointExtension><gpxtpx:hr>134</gpxtpx:hr></gpxtpx:TrackPointExtension></extensions>
      </trkpt>
      <trkpt lat="59.463562128162" lon="17.923757059408">
        <ele>3.8</ele>
        <time>2018-12-15T09:26:54Z</time>
        <extensions><gpxtpx:TrackPointExtension><gpxtpx:hr>137</gpxtpx:hr></gpxtpx:TrackPointExtension></extensions>
      </trkpt>
      <trkpt lat="59.46413980871" lon="17.923524880778">
        <ele>3.6</ele>
        <time>2018-12-15T09:27:02Z</time>
        <extensions><gpxtpx:TrackPointExtension><gpxtpx:hr>140</gpxtpx:hr></gpxtpx:TrackPointExtension></extensions>
      </trkpt>
      <trkpt lat="59.464569297266" lon="17.923337629132">
        <ele>3.6</ele>
        <time>2018-12-15T09:27:08Z</time>
        <extensions><gpxtpx:TrackPointExtension><gpxtpx:hr>143</gpxtpx:hr></gpxtpx:TrackPointExtension></extensions>
      </trkpt>
      <trkpt lat="59.465108421074" lon="17.923008220462">
        <ele>3.6</ele>
        <time>2018-12-15T09:27:16Z</time>
        <extensions><gpxtpx:TrackPointExtension><gpxtpx:hr>145</gpxtpx:hr></gpxtpx:TrackPointExtension></extensions>
      </trkpt>
      <trkpt lat="59.465638827706" lon="17.922758272204">
        <ele>4</ele>
        <time>2018-12-15T09:27:24Z</time>
        <extensions><gpxtpx:TrackPointExtension><gpxtpx:hr>144</gpxtpx:hr></gpxtpx:TrackPointExtension></extensions>
      </trkpt>
      <trkpt lat="59.466087678451" lon="17.922488207386">
        <ele>4.2</ele>
        <time>2018-12-15T09:27:31Z</time>
        <extensions><gpxtpx:TrackPointExtension><gpxtpx:hr>143</gpxtpx:hr></gpxtpx:TrackPointExtension></extensions>
      </trkpt>
      <trkpt lat="59.466339051632" lon="17.922338590471">
        <ele>4.4</ele>
        <time>2018-12-15T09:27:35Z</time>
        <extensions><gpxtpx:TrackPointExtension><gpxtpx:hr>141</gpxtpx:hr></gpxtpx:TrackPointExtension></extensions>
      </trkpt>
      <trkpt lat="59.466894352507" lon="17.922014378579">
        <ele>4.2</ele>
        <time>2018-12-15T09:27:43Z</time>
        <extensions><gpxtpx:TrackPointExtension><gpxtpx:hr>140</gpxtpx:hr></gpxtpx:TrackPointExtension></extensions>
      </trkpt>
      <trkpt lat="59.467428447175" lon="17.921685053728">
        <ele>4.2</ele>
        <time>2018-12-15T09:27:51Z</time>
        <extensions><gpxtpx:TrackPointExtension><gpxtpx:hr>140</gpxtpx:hr></gpxtpx:TrackPointExtension></extensions>
      </trkpt>
      <trkpt lat="59.46789154715" lon="17.921408618666">
        <ele>4.4</ele>
        <time>2018-12-15T09:27:58Z</time>
        <extensions><gpxtpx:TrackPointExtension><gpxtpx:hr>137</gpxtpx:hr></gpxtpx:TrackPointExtension></extensions>
      </trkpt>
      <trkpt lat="59.468422875791" lon="17.9211056968">
        <ele>4.4</ele>
        <time>2018-12-15T09:28:06Z</time>
        <extensions><gpxtpx:TrackPointExtension><gpxtpx:hr>138</gpxtpx:hr></gpxtpx:TrackPointExtension></extensions>
      </trkpt>
      <trkpt lat="59.468948672378" lon="17.920780227623">
        <ele>4.6</ele>
        <time>2018-12-15T09:28:14Z</time>
        <extensions><gpxtpx:TrackPointExtension><gpxtpx:hr>137</gpxtpx:hr></gpxtpx:TrackPointExtension></extensions>
      </trkpt>
      <trkpt lat="59.469382268065" lon="17.920569758114">
        <ele>4.8</ele>
        <time>2018-12-15T09:28:21Z</time>
        <extensions><gpxtpx:TrackPointExtension><gpxtpx:hr>134</gpxtpx:hr></gpxtpx:TrackPointExtension></extensions>
      </trkpt>
      <trkpt lat="59.46950087195" lon="17.920593227434">
        <ele>4.8</ele>
        <time>2018-12-15T09:28:23Z</time>
        <extensions><gpxtpx:TrackPointExtension><gpxtpx:hr>130</gpxtpx:hr></gpxtpx:TrackPointExtension></extensions>
      </trkpt>
      <trkpt lat="59.469625259346" lon="17.920621306799">
        <ele>4.8</ele>
        <time>2018-12-15T09:28:25Z</time>
        <extensions><gpxtpx:TrackPointExtension><gpxtpx:hr>130</gpxtpx:hr></gpxtpx:TrackPointExtension></extensions>
      </trkpt>
      <trkpt lat="59.469997750982" lon="17.920420225018">
        <ele>5</ele>
        <time>2018-12-15T09:28:31Z</time>
        <extensions><gpxtpx:TrackPointExtension><gpxtpx:hr>130</gpxtpx:hr></gpxtpx:TrackPointExtension></extensions>
      </trkpt>
      <trkpt lat="59.470171004855" lon="17.920249820991">
        <ele>5</ele>
        <time>2018-12-15T09:28:34Z</time>
        <extensions><gpxtpx:TrackPointExtension><gpxtpx:hr>129</gpxtpx:hr></gpxtpx:TrackPointExtension></extensions>
      </trkpt>
      <trkpt lat="59.470229845793" lon="17.920210342242">
        <ele>5.2</ele>
        <time>2018-12-15T09:28:35Z</time>
        <extensions><gpxtpx:TrackPointExtension><gpxtpx:hr>129</gpxtpx:hr></gpxtpx:TrackPointExtension></extensions>
      </trkpt>
      <trkpt lat="59.470530504546" lon="17.92007807586">
        <ele>5.2</ele>
        <time>2018-12-15T09:28:40Z</time>
        <extensions><gpxtpx:TrackPointExtension><gpxtpx:hr>130</gpxtpx:hr></gpxtpx:TrackPointExtension></extensions>
      </trkpt>
      <trkpt lat="59.470754133638" lon="17.919912617154">
        <ele>5.2</ele>
        <time>2018-12-15T09:28:44Z</time>
        <extensions><gpxtpx:TrackPointExtension><gpxtpx:hr>133</gpxtpx:hr></gpxtpx:TrackPointExtension></extensions>
      </trkpt>
      <trkpt lat="59.471104999972" lon="17.919582370294">
        <ele>5.6</ele>
        <time>2018-12-15T09:28:51Z</time>
        <extensions><gpxtpx:TrackPointExtension><gpxtpx:hr>133</gpxtpx:hr></gpxtpx:TrackPointExtension></extensions>
      </trkpt>
      <trkpt lat="59.471604980307" lon="17.919151708272">
        <ele>6</ele>
        <time>2018-12-15T09:29:01Z</time>
        <extensions><gpxtpx:TrackPointExtension><gpxtpx:hr>134</gpxtpx:hr></gpxtpx:TrackPointExtension></extensions>
      </trkpt>
      <trkpt lat="59.471760045457" lon="17.919009718886">
        <ele>6.4</ele>
        <time>2018-12-15T09:29:04Z</time>
        <extensions><gpxtpx:TrackPointExtension><gpxtpx:hr>135</gpxtpx:hr></gpxtpx:TrackPointExtension></extensions>
      </trkpt>
      <trkpt lat="59.472134548749" lon="17.91867997494">
        <ele>6.6</ele>
        <time>2018-12-15T09:29:11Z</time>
        <extensions><gpxtpx:TrackPointExtension><gpxtpx:hr>138</gpxtpx:hr></gpxtpx:TrackPointExtension></extensions>
      </trkpt>
      <trkpt lat="59.472678869335" lon="17.918296419196">
        <ele>6</ele>
        <time>2018-12-15T09:29:20Z</time>
        <extensions><gpxtpx:TrackPointExtension><gpxtpx:hr>139</gpxtpx:hr></gpxtpx:TrackPointExtension></extensions>
      </trkpt>
      <trkpt lat="59.472746427449" lon="17.918278649568">
        <ele>5.8</ele>
        <time>2018-12-15T09:29:21Z</time>
        <extensions><gpxtpx:TrackPointExtension><gpxtpx:hr>139</gpxtpx:hr></gpxtpx:TrackPointExtension></extensions>
      </trkpt>
      <trkpt lat="59.473006014892" lon="17.918257275723">
        <ele>5.2</ele>
        <time>2018-12-15T09:29:25Z</time>
        <extensions><gpxtpx:TrackPointExtension><gpxtpx:hr>140</gpxtpx:hr></gpxtpx:TrackPointExtension></extensions>
      </trkpt>
      <trkpt lat="59.473528710176" lon="17.918242775036">
        <ele>4.2</ele>
        <time>2018-12-15T09:29:33Z</time>
        <extensions><gpxtpx:TrackPointExtension><gpxtpx:hr>139</gpxtpx:hr></gpxtpx:TrackPointExtension></extensions>
      </trkpt>
      <trkpt lat="59.47411678428" lon="17.918448466862">
        <ele>3.6</ele>
        <time>2018-12-15T09:29:42Z</time>
        <extensions><gpxtpx:TrackPointExtension><gpxtpx:hr>140</gpxtpx:hr></gpxtpx:TrackPointExtension></extensions>
      </trkpt>
      <trkpt lat="59.474306718134" lon="17.918514097139">
        <ele>3.4</ele>
        <time>2018-12-15T09:29:45Z</time>
        <extensions><gpxtpx:TrackPointExtension><gpxtpx:hr>140</gpxtpx:hr></gpxtpx:TrackPointExtension></extensions>
      </trkpt>
      <trkpt lat="59.474510985037" lon="17.918083435117">
        <ele>3.6</ele>
        <time>2018-12-15T09:29:51Z</time>
        <extensions><gpxtpx:TrackPointExtension><gpxtpx:hr>139</gpxtpx:hr></gpxtpx:TrackPointExtension></extensions>
      </trkpt>
      <trkpt lat="59.474522300602" lon="17.917976398254">
        <ele>3.6</ele>
        <time>2018-12-15T09:29:52Z</time>
        <extensions><gpxtpx:TrackPointExtension><gpxtpx:hr>138</gpxtpx:hr></gpxtpx:TrackPointExtension></extensions>
      </trkpt>
      <trkpt lat="59.474721706003" lon="17.917613881079">
        <ele>4</ele>
        <time>2018-12-15T09:29:57Z</time>
        <extensions><gpxtpx:TrackPointExtension><gpxtpx:hr>135</gpxtpx:hr></gpxtpx:TrackPointExtension></extensions>
      </trkpt>
      <trkpt lat="59.474896468618" lon="17.917515561392">
        <ele>4</ele>
        <time>2018-12-15T09:30:00Z</time>
        <extensions><gpxtpx:TrackPointExtension><gpxtpx:hr>135</gpxtpx:hr></gpxtpx:TrackPointExtension></extensions>
      </trkpt>
      <trkpt lat="59.47501448577" lon="17.917469125666">
        <ele>4</ele>
        <time>2018-12-15T09:30:02Z</time>
        <extensions><gpxtpx:TrackPointExtension><gpxtpx:hr>136</gpxtpx:hr></gpxtpx:TrackPointExtension></extensions>
      </trkpt>
      <trkpt lat="59.475119930072" lon="17.917405255588">
        <ele>4</ele>
        <time>2018-12-15T09:30:04Z</time>
        <extensions><gpxtpx:TrackPointExtension><gpxtpx:hr>135</gpxtpx:hr></gpxtpx:TrackPointExtension></extensions>
      </trkpt>
      <trkpt lat="59.475262087096" lon="17.917299811286">
        <ele>3.6</ele>
        <time>2018-12-15T09:30:07Z</time>
        <extensions><gpxtpx:TrackPointExtension><gpxtpx:hr>135</gpxtpx:hr></gpxtpx:TrackPointExtension></extensions>
      </trkpt>
      <trkpt lat="59.47550566511" lon="17.917215824648">
        <ele>3.2</ele>
        <time>2018-12-15T09:30:11Z</time>
        <extensions><gpxtpx:TrackPointExtension><gpxtpx:hr>134</gpxtpx:hr></gpxtpx:TrackPointExtension></extensions>
      </trkpt>
      <trkpt lat="59.476075131396" lon="17.917152289846">
        <ele>3</ele>
        <time>2018-12-15T09:30:20Z</time>
        <extensions><gpxtpx:TrackPointExtension><gpxtpx:hr>137</gpxtpx:hr></gpxtpx:TrackPointExtension></extensions>
      </trkpt>
      <trkpt lat="59.476628588253" lon="17.917333255067">
        <ele>3.2</ele>
        <time>2018-12-15T09:30:29Z</time>
        <extensions><gpxtpx:TrackPointExtension><gpxtpx:hr>139</gpxtpx:hr></gpxtpx:TrackPointExtension></extensions>
      </trkpt>
      <trkpt lat="59.477157989057" lon="17.917638020951">
        <ele>3.8</ele>
        <time>2018-12-15T09:30:38Z</time>
        <extensions><gpxtpx:TrackPointExtension><gpxtpx:hr>139</gpxtpx:hr></gpxtpx:TrackPointExtension></extensions>
      </trkpt>
      <trkpt lat="59.477442806019" lon="17.917801719458">
        <ele>4.2</ele>
        <time>2018-12-15T09:30:43Z</time>
        <extensions><gpxtpx:TrackPointExtension><gpxtpx:hr>140</gpxtpx:hr></gpxtpx:TrackPointExtension></extensions>
      </trkpt>
      <trkpt lat="59.477993748306" lon="17.918052673544">
        <ele>4.4</ele>
        <time>2018-12-15T09:30:52Z</time>
        <extensions><gpxtpx:TrackPointExtension><gpxtpx:hr>140</gpxtpx:hr></gpxtpx:TrackPointExtension></extensions>
      </trkpt>
      <trkpt lat="59.478588360292" lon="17.918267501641">
        <ele>3.8</ele>
        <time>2018-12-15T09:31:01Z</time>
        <extensions><gpxtpx:TrackPointExtension><gpxtpx:hr>142</gpxtpx:hr></gpxtpx:TrackPointExtension></extensions>
      </trkpt>
      <trkpt lat="59.479162771899" lon="17.918370766649">
        <ele>3.2</ele>
        <time>2018-12-15T09:31:09Z</time>
        <extensions><gpxtpx:TrackPointExtension><gpxtpx:hr>139</gpxtpx:hr></gpxtpx:TrackPointExtension></extensions>
      </trkpt>
      <trkpt lat="59.479725448846" lon="17.918532118224">
        <ele>3</ele>
        <time>2018-12-15T09:31:17Z</time>
        <extensions><gpxtpx:TrackPointExtension><gpxtpx:hr>138</gpxtpx:hr></gpxtpx:TrackPointExtension></extensions>
      </trkpt>
      <trkpt lat="59.479936588907" lon="17.91856849567">
        <ele>3</ele>
        <time>2018-12-15T09:31:20Z</time>
        <extensions><gpxtpx:TrackPointExtension><gpxtpx:hr>138</gpxtpx:hr></gpxtpx:TrackPointExtension></extensions>
      </trkpt>
      <trkpt lat="59.480501528967" lon="17.918668156461">
        <ele>3</ele>
        <time>2018-12-15T09:31:28Z</time>
        <extensions><gpxtpx:TrackPointExtension><gpxtpx:hr>139</gpxtpx:hr></gpxtpx:TrackPointExtension></extensions>
      </trkpt>
      <trkpt lat="59.48098072219" lon="17.918778546084">
        <ele>4</ele>
        <time>2018-12-15T09:31:35Z</time>
        <extensions><gpxtpx:TrackPointExtension><gpxtpx:hr>137</gpxtpx:hr></gpxtpx:TrackPointExtension></extensions>
      </trkpt>
      <trkpt lat="59.481046687743" lon="17.918813582426">
        <ele>4</ele>
        <time>2018-12-15T09:31:36Z</time>
        <extensions><gpxtpx:TrackPointExtension><gpxtpx:hr>137</gpxtpx:hr></gpxtpx:TrackPointExtension></extensions>
      </trkpt>
      <trkpt lat="59.481360086984" lon="17.918912321208">
        <ele>4.2</ele>
        <time>2018-12-15T09:31:41Z</time>
        <extensions><gpxtpx:TrackPointExtension><gpxtpx:hr>139</gpxtpx:hr></gpxtpx:TrackPointExtension></extensions>
      </trkpt>
      <trkpt lat="59.481564270068" lon="17.918897233788">
        <ele>4.4</ele>
        <time>2018-12-15T09:31:45Z</time>
        <extensions><gpxtpx:TrackPointExtension><gpxtpx:hr>142</gpxtpx:hr></gpxtpx:TrackPointExtension></extensions>
      </trkpt>
      <trkpt lat="59.481667702714" lon="17.918812157503">
        <ele>5.2</ele>
        <time>2018-12-15T09:31:48Z</time>
        <extensions><gpxtpx:TrackPointExtension><gpxtpx:hr>142</gpxtpx:hr></gpxtpx:TrackPointExtension></extensions>
      </trkpt>
      <trkpt lat="59.481849254668" lon="17.918784078138">
        <ele>6.4</ele>
        <time>2018-12-15T09:31:52Z</time>
        <extensions><gpxtpx:TrackPointExtension><gpxtpx:hr>142</gpxtpx:hr></gpxtpx:TrackPointExtension></extensions>
      </trkpt>
      <trkpt lat="59.482412183072" lon="17.918745772855">
        <ele>7</ele>
        <time>2018-12-15T09:32:01Z</time>
        <extensions><gpxtpx:TrackPointExtension><gpxtpx:hr>145</gpxtpx:hr></gpxtpx:TrackPointExtension></extensions>
      </trkpt>
      <trkpt lat="59.482786602545" lon="17.91867326942">
        <ele>6.8</ele>
        <time>2018-12-15T09:32:07Z</time>
        <extensions><gpxtpx:TrackPointExtension><gpxtpx:hr>142</gpxtpx:hr></gpxtpx:TrackPointExtension></extensions>
      </trkpt>
      <trkpt lat="59.483084327633" lon="17.918642843123">
        <ele>6.4</ele>
        <time>2018-12-15T09:32:12Z</time>
        <extensions><gpxtpx:TrackPointExtension><gpxtpx:hr>139</gpxtpx:hr></gpxtpx:TrackPointExtension></extensions>
      </trkpt>
      <trkpt lat="59.483200752224" lon="17.918629515902">
        <ele>6.4</ele>
        <time>2018-12-15T09:32:14Z</time>
        <extensions><gpxtpx:TrackPointExtension><gpxtpx:hr>135</gpxtpx:hr></gpxtpx:TrackPointExtension></extensions>
      </trkpt>
      <trkpt lat="59.483313488779" lon="17.918624738219">
        <ele>6.4</ele>
        <time>2018-12-15T09:32:16Z</time>
        <extensions><gpxtpx:TrackPointExtension><gpxtpx:hr>134</gpxtpx:hr></gpxtpx:TrackPointExtension></extensions>
      </trkpt>
      <trkpt lat="59.483421280013" lon="17.918692128695">
        <ele>6.4</ele>
        <time>2018-12-15T09:32:18Z</time>
        <extensions><gpxtpx:TrackPointExtension><gpxtpx:hr>131</gpxtpx:hr></gpxtpx:TrackPointExtension></extensions>
      </trkpt>
      <trkpt lat="59.483499734597" lon="17.918872591002">
        <ele>6.4</ele>
        <time>2018-12-15T09:32:20Z</time>
        <extensions><gpxtpx:TrackPointExtension><gpxtpx:hr>128</gpxtpx:hr></gpxtpx:TrackPointExtension></extensions>
      </trkpt>
      <trkpt lat="59.483532088731" lon="17.919111139876">
        <ele>6.4</ele>
        <time>2018-12-15T09:32:22Z</time>
        <extensions><gpxtpx:TrackPointExtension><gpxtpx:hr>125</gpxtpx:hr></gpxtpx:TrackPointExtension></extensions>
      </trkpt>
      <trkpt lat="59.483542147011" lon="17.919234521444">
        <ele>6.4</ele>
        <time>2018-12-15T09:32:23Z</time>
        <extensions><gpxtpx:TrackPointExtension><gpxtpx:hr>123</gpxtpx:hr></gpxtpx:TrackPointExtension></extensions>
      </trkpt>
      <trkpt lat="59.483569304367" lon="17.919487654824">
        <ele>6.2</ele>
        <time>2018-12-15T09:32:25Z</time>
        <extensions><gpxtpx:TrackPointExtension><gpxtpx:hr>120</gpxtpx:hr></gpxtpx:TrackPointExtension></extensions>
      </trkpt>
      <trkpt lat="59.483601658501" lon="17.919868193084">
        <ele>6</ele>
        <time>2018-12-15T09:32:28Z</time>
        <extensions><gpxtpx:TrackPointExtension><gpxtpx:hr>120</gpxtpx:hr></gpxtpx:TrackPointExtension></extensions>
      </trkpt>
      <trkpt lat="59.48362437345" lon="17.920338501493">
        <ele>5.8</ele>
        <time>2018-12-15T09:32:32Z</time>
        <extensions><gpxtpx:TrackPointExtension><gpxtpx:hr>123</gpxtpx:hr></gpxtpx:TrackPointExtension></extensions>
      </trkpt>
      <trkpt lat="59.483634515549" lon="17.920561879128">
        <ele>5.6</ele>
        <time>2018-12-15T09:32:34Z</time>
        <extensions><gpxtpx:TrackPointExtension><gpxtpx:hr>126</gpxtpx:hr></gpxtpx:TrackPointExtension></extensions>
      </trkpt>
      <trkpt lat="59.483651111711" lon="17.920879553138">
        <ele>5.6</ele>
        <time>2018-12-15T09:32:37Z</time>
        <extensions><gpxtpx:TrackPointExtension><gpxtpx:hr>129</gpxtpx:hr></gpxtpx:TrackPointExtension></extensions>
      </trkpt>
      <trkpt lat="59.483659996525" lon="17.921187587963">
        <ele>5.8</ele>
        <time>2018-12-15T09:32:40Z</time>
        <extensions><gpxtpx:TrackPointExtension><gpxtpx:hr>132</gpxtpx:hr></gpxtpx:TrackPointExtension></extensions>
      </trkpt>
      <trkpt lat="59.483681957103" lon="17.921600899452">
        <ele>6.6</ele>
        <time>2018-12-15T09:32:44Z</time>
        <extensions><gpxtpx:TrackPointExtension><gpxtpx:hr>135</gpxtpx:hr></gpxtpx:TrackPointExtension></extensions>
      </trkpt>
      <trkpt lat="59.483697715075" lon="17.921917567634">
        <ele>7.6</ele>
        <time>2018-12-15T09:32:47Z</time>
        <extensions><gpxtpx:TrackPointExtension><gpxtpx:hr>138</gpxtpx:hr></gpxtpx:TrackPointExtension></extensions>
      </trkpt>
      <trkpt lat="59.483702744215" lon="17.922128959152">
        <ele>8.8</ele>
        <time>2018-12-15T09:32:49Z</time>
        <extensions><gpxtpx:TrackPointExtension><gpxtpx:hr>140</gpxtpx:hr></gpxtpx:TrackPointExtension></extensions>
      </trkpt>
      <trkpt lat="59.483728225191" lon="17.922555011129">
        <ele>9.8</ele>
        <time>2018-12-15T09:32:53Z</time>
        <extensions><gpxtpx:TrackPointExtension><gpxtpx:hr>143</gpxtpx:hr></gpxtpx:TrackPointExtension></extensions>
      </trkpt>
      <trkpt lat="59.483734763073" lon="17.922661042164">
        <ele>10</ele>
        <time>2018-12-15T09:32:54Z</time>
        <extensions><gpxtpx:TrackPointExtension><gpxtpx:hr>144</gpxtpx:hr></gpxtpx:TrackPointExtension></extensions>
      </trkpt>
      <trkpt lat="59.48376183661" lon="17.923101511009">
        <ele>11.4</ele>
        <time>2018-12-15T09:32:58Z</time>
        <extensions><gpxtpx:TrackPointExtension><gpxtpx:hr>147</gpxtpx:hr></gpxtpx:TrackPointExtension></extensions>
      </trkpt>
      <trkpt lat="59.483835764968" lon="17.923933582222">
        <ele>12.4</ele>
        <time>2018-12-15T09:33:05Z</time>
        <extensions><gpxtpx:TrackPointExtension><gpxtpx:hr>150</gpxtpx:hr></gpxtpx:TrackPointExtension></extensions>
      </trkpt>
      <trkpt lat="59.483851020026" lon="17.924058891627">
        <ele>12.4</ele>
        <time>2018-12-15T09:33:06Z</time>
        <extensions><gpxtpx:TrackPointExtension><gpxtpx:hr>150</gpxtpx:hr></gpxtpx:TrackPointExtension></extensions>
      </trkpt>
      <trkpt lat="59.48400742628" lon="17.925099504512">
        <ele>12.2</ele>
        <time>2018-12-15T09:33:14Z</time>
        <extensions><gpxtpx:TrackPointExtension><gpxtpx:hr>152</gpxtpx:hr></gpxtpx:TrackPointExtension></extensions>
      </trkpt>
      <trkpt lat="59.484177411212" lon="17.926033248172">
        <ele>11.2</ele>
        <time>2018-12-15T09:33:21Z</time>
        <extensions><gpxtpx:TrackPointExtension><gpxtpx:hr>151</gpxtpx:hr></gpxtpx:TrackPointExtension></extensions>
      </trkpt>
      <trkpt lat="59.484365501048" lon="17.927042009837">
        <ele>10.4</ele>
        <time>2018-12-15T09:33:29Z</time>
        <extensions><gpxtpx:TrackPointExtension><gpxtpx:hr>149</gpxtpx:hr></gpxtpx:TrackPointExtension></extensions>
      </trkpt>
      <trkpt lat="59.484557949472" lon="17.928054375719">
        <ele>12</ele>
        <time>2018-12-15T09:33:37Z</time>
        <extensions><gpxtpx:TrackPointExtension><gpxtpx:hr>151</gpxtpx:hr></gpxtpx:TrackPointExtension></extensions>
      </trkpt>
      <trkpt lat="59.484692898062" lon="17.928669104265">
        <ele>12.2</ele>
        <time>2018-12-15T09:33:42Z</time>
        <extensions><gpxtpx:TrackPointExtension><gpxtpx:hr>152</gpxtpx:hr></gpxtpx:TrackPointExtension></extensions>
      </trkpt>
      <trkpt lat="59.484941505216" lon="17.929623802675">
        <ele>13.2</ele>
        <time>2018-12-15T09:33:50Z</time>
        <extensions><gpxtpx:TrackPointExtension><gpxtpx:hr>153</gpxtpx:hr></gpxtpx:TrackPointExtension></extensions>
      </trkpt>
      <trkpt lat="59.48511551346" lon="17.930219755765">
        <ele>14.4</ele>
        <time>2018-12-15T09:33:55Z</time>
        <extensions><gpxtpx:TrackPointExtension><gpxtpx:hr>154</gpxtpx:hr></gpxtpx:TrackPointExtension></extensions>
      </trkpt>
      <trkpt lat="59.485432014004" lon="17.931161713687">
        <ele>15.2</ele>
        <time>2018-12-15T09:34:03Z</time>
        <extensions><gpxtpx:TrackPointExtension><gpxtpx:hr>155</gpxtpx:hr></gpxtpx:TrackPointExtension></extensions>
      </trkpt>
      <trkpt lat="59.485754633335" lon="17.932103001057">
        <ele>15.2</ele>
        <time>2018-12-15T09:34:11Z</time>
        <extensions><gpxtpx:TrackPointExtension><gpxtpx:hr>154</gpxtpx:hr></gpxtpx:TrackPointExtension></extensions>
      </trkpt>
      <trkpt lat="59.485942890809" lon="17.932709096246">
        <ele>14.2</ele>
        <time>2018-12-15T09:34:16Z</time>
        <extensions><gpxtpx:TrackPointExtension><gpxtpx:hr>151</gpxtpx:hr></gpxtpx:TrackPointExtension></extensions>
      </trkpt>
      <trkpt lat="59.486011873846" lon="17.932947728939">
        <ele>13.8</ele>
        <time>2018-12-15T09:34:18Z</time>
        <extensions><gpxtpx:TrackPointExtension><gpxtpx:hr>148</gpxtpx:hr></gpxtpx:TrackPointExtension></extensions>
      </trkpt>
      <trkpt lat="59.48607775558" lon="17.933183260329">
        <ele>13.4</ele>
        <time>2018-12-15T09:34:20Z</time>
        <extensions><gpxtpx:TrackPointExtension><gpxtpx:hr>145</gpxtpx:hr></gpxtpx:TrackPointExtension></extensions>
      </trkpt>
      <trkpt lat="59.48622611521" lon="17.933789690794">
        <ele>13</ele>
        <time>2018-12-15T09:34:25Z</time>
        <extensions><gpxtpx:TrackPointExtension><gpxtpx:hr>142</gpxtpx:hr></gpxtpx:TrackPointExtension></extensions>
      </trkpt>
      <trkpt lat="59.48639123864" lon="17.934521514483">
        <ele>13.2</ele>
        <time>2018-12-15T09:34:31Z</time>
        <extensions><gpxtpx:TrackPointExtension><gpxtpx:hr>139</gpxtpx:hr></gpxtpx:TrackPointExtension></extensions>
      </trkpt>
      <trkpt lat="59.486604809452" lon="17.935546788491">
        <ele>13.4</ele>
        <time>2018-12-15T09:34:39Z</time>
        <extensions><gpxtpx:TrackPointExtension><gpxtpx:hr>137</gpxtpx:hr></gpxtpx:TrackPointExtension></extensions>
      </trkpt>
      <trkpt lat="59.486792480193" lon="17.936485561291">
        <ele>13.4</ele>
        <time>2018-12-15T09:34:46Z</time>
        <extensions><gpxtpx:TrackPointExtension><gpxtpx:hr>134</gpxtpx:hr></gpxtpx:TrackPointExtension></extensions>
      </trkpt>
      <trkpt lat="59.486834724969" lon="17.936751854254">
        <ele>13.4</ele>
        <time>2018-12-15T09:34:48Z</time>
        <extensions><gpxtpx:TrackPointExtension><gpxtpx:hr>133</gpxtpx:hr></gpxtpx:TrackPointExtension></extensions>
      </trkpt>
      <trkpt lat="59.486864648352" lon="17.937801938686">
        <ele>13.4</ele>
        <time>2018-12-15T09:34:56Z</time>
        <extensions><gpxtpx:TrackPointExtension><gpxtpx:hr>136</gpxtpx:hr></gpxtpx:TrackPointExtension></extensions>
      </trkpt>
      <trkpt lat="59.486862888153" lon="17.93817711253">
        <ele>13.6</ele>
        <time>2018-12-15T09:34:59Z</time>
        <extensions><gpxtpx:TrackPointExtension><gpxtpx:hr>139</gpxtpx:hr></gpxtpx:TrackPointExtension></extensions>
      </trkpt>
      <trkpt lat="59.486883759084" lon="17.939031479597">
        <ele>14.4</ele>
        <time>2018-12-15T09:35:06Z</time>
        <extensions><gpxtpx:TrackPointExtension><gpxtpx:hr>142</gpxtpx:hr></gpxtpx:TrackPointExtension></extensions>
      </trkpt>
      <trkpt lat="59.486960285831" lon="17.939713682438">
        <ele>15</ele>
        <time>2018-12-15T09:35:12Z</time>
        <extensions><gpxtpx:TrackPointExtension><gpxtpx:hr>145</gpxtpx:hr></gpxtpx:TrackPointExtension></extensions>
      </trkpt>
      <trkpt lat="59.486978558373" lon="17.939823233871">
        <ele>15.2</ele>
        <time>2018-12-15T09:35:13Z</time>
        <extensions><gpxtpx:TrackPointExtension><gpxtpx:hr>144</gpxtpx:hr></gpxtpx:TrackPointExtension></extensions>
      </trkpt>
      <trkpt lat="59.487080901372" lon="17.940255572273">
        <ele>16.4</ele>
        <time>2018-12-15T09:35:17Z</time>
        <extensions><gpxtpx:TrackPointExtension><gpxtpx:hr>145</gpxtpx:hr></gpxtpx:TrackPointExtension></extensions>
      </trkpt>
      <trkpt lat="59.487236720893" lon="17.940709871253">
        <ele>16.6</ele>
        <time>2018-12-15T09:35:22Z</time>
        <extensions><gpxtpx:TrackPointExtension><gpxtpx:hr>146</gpxtpx:hr></gpxtpx:TrackPointExtension></extensions>
      </trkpt>
      <trkpt lat="59.487306039206" lon="17.940862170376">
        <ele>17.4</ele>
        <time>2018-12-15T09:35:24Z</time>
        <extensions><gpxtpx:TrackPointExtension><gpxtpx:hr>145</gpxtpx:hr></gpxtpx:TrackPointExtension></extensions>
      </trkpt>
      <trkpt lat="59.487411734965" lon="17.94108563183">
        <ele>18.4</ele>
        <time>2018-12-15T09:35:27Z</time>
        <extensions><gpxtpx:TrackPointExtension><gpxtpx:hr>146</gpxtpx:hr></gpxtpx:TrackPointExtension></extensions>
      </trkpt>
      <trkpt lat="59.4875261479" lon="17.941297610081">
        <ele>19.4</ele>
        <time>2018-12-15T09:35:30Z</time>
        <extensions><gpxtpx:TrackPointExtension><gpxtpx:hr>147</gpxtpx:hr></gpxtpx:TrackPointExtension></extensions>
      </trkpt>
      <trkpt lat="59.487684314353" lon="17.941634227185">
        <ele>20.4</ele>
        <time>2018-12-15T09:35:35Z</time>
        <extensions><gpxtpx:TrackPointExtension><gpxtpx:hr>150</gpxtpx:hr></gpxtpx:TrackPointExtension></extensions>
      </trkpt>
      <trkpt lat="59.487695043185" lon="17.941760542418">
        <ele>21.4</ele>
        <time>2018-12-15T09:35:37Z</time>
        <extensions><gpxtpx:TrackPointExtension><gpxtpx:hr>149</gpxtpx:hr></gpxtpx:TrackPointExtension></extensions>
      </trkpt>
      <trkpt lat="59.487680207222" lon="17.941822736116">
        <ele>21.8</ele>
        <time>2018-12-15T09:35:38Z</time>
        <extensions><gpxtpx:TrackPointExtension><gpxtpx:hr>149</gpxtpx:hr></gpxtpx:TrackPointExtension></extensions>
      </trkpt>
      <trkpt lat="59.487594963299" lon="17.9419766278">
        <ele>22.2</ele>
        <time>2018-12-15T09:35:41Z</time>
        <extensions><gpxtpx:TrackPointExtension><gpxtpx:hr>147</gpxtpx:hr></gpxtpx:TrackPointExtension></extensions>
      </trkpt>
      <trkpt lat="59.48753788256" lon="17.94213504571">
        <ele>22.2</ele>
        <time>2018-12-15T09:35:44Z</time>
        <extensions><gpxtpx:TrackPointExtension><gpxtpx:hr>144</gpxtpx:hr></gpxtpx:TrackPointExtension></extensions>
      </trkpt>
      <trkpt lat="59.487513323593" lon="17.942193802829">
        <ele>22.2</ele>
        <time>2018-12-15T09:35:46Z</time>
        <extensions><gpxtpx:TrackPointExtension><gpxtpx:hr>141</gpxtpx:hr></gpxtpx:TrackPointExtension></extensions>
      </trkpt>
      <trkpt lat="59.487498068535" lon="17.942228420076">
        <ele>22</ele>
        <time>2018-12-15T09:35:48Z</time>
        <extensions><gpxtpx:TrackPointExtension><gpxtpx:hr>138</gpxtpx:hr></gpxtpx:TrackPointExtension></extensions>
      </trkpt>
      <trkpt lat="59.487504857874" lon="17.942246105885">
        <ele>22</ele>
        <time>2018-12-15T09:35:51Z</time>
        <extensions><gpxtpx:TrackPointExtension><gpxtpx:hr>134</gpxtpx:hr></gpxtpx:TrackPointExtension></extensions>
      </trkpt>
      <trkpt lat="59.487518101276" lon="17.942229844999">
        <ele>22</ele>
        <time>2018-12-15T09:35:53Z</time>
        <extensions><gpxtpx:TrackPointExtension><gpxtpx:hr>134</gpxtpx:hr></gpxtpx:TrackPointExtension></extensions>
      </trkpt>
      <trkpt lat="59.487751872467" lon="17.941831201835">
        <ele>22.4</ele>
        <time>2018-12-15T09:36:07Z</time>
        <extensions><gpxtpx:TrackPointExtension><gpxtpx:hr>134</gpxtpx:hr></gpxtpx:TrackPointExtension></extensions>
      </trkpt>
      <trkpt lat="59.487797889098" lon="17.941868668928">
        <ele>22.6</ele>
        <time>2018-12-15T09:36:11Z</time>
        <extensions><gpxtpx:TrackPointExtension><gpxtpx:hr>132</gpxtpx:hr></gpxtpx:TrackPointExtension></extensions>
      </trkpt>
      <trkpt lat="59.487920432476" lon="17.942095818418">
        <ele>22.8</ele>
        <time>2018-12-15T09:36:15Z</time>
        <extensions><gpxtpx:TrackPointExtension><gpxtpx:hr>134</gpxtpx:hr></gpxtpx:TrackPointExtension></extensions>
      </trkpt>
      <trkpt lat="59.488259647969" lon="17.94274357165">
        <ele>22.4</ele>
        <time>2018-12-15T09:36:24Z</time>
        <extensions><gpxtpx:TrackPointExtension><gpxtpx:hr>131</gpxtpx:hr></gpxtpx:TrackPointExtension></extensions>
      </trkpt>
      <trkpt lat="59.488394093645" lon="17.943038279254">
        <ele>22</ele>
        <time>2018-12-15T09:36:27Z</time>
        <extensions><gpxtpx:TrackPointExtension><gpxtpx:hr>128</gpxtpx:hr></gpxtpx:TrackPointExtension></extensions>
      </trkpt>
      <trkpt lat="59.488435500231" lon="17.943146154307">
        <ele>21.8</ele>
        <time>2018-12-15T09:36:28Z</time>
        <extensions><gpxtpx:TrackPointExtension><gpxtpx:hr>127</gpxtpx:hr></gpxtpx:TrackPointExtension></extensions>
      </trkpt>
      <trkpt lat="59.488462154673" lon="17.943635908724">
        <ele>20.8</ele>
        <time>2018-12-15T09:36:32Z</time>
        <extensions><gpxtpx:TrackPointExtension><gpxtpx:hr>124</gpxtpx:hr></gpxtpx:TrackPointExtension></extensions>
      </trkpt>
      <trkpt lat="59.488430387272" lon="17.943742023578">
        <ele>20.4</ele>
        <time>2018-12-15T09:36:33Z</time>
        <extensions><gpxtpx:TrackPointExtension><gpxtpx:hr>124</gpxtpx:hr></gpxtpx:TrackPointExtension></extensions>
      </trkpt>
      <trkpt lat="59.488401553536" lon="17.943856185056">
        <ele>20</ele>
        <time>2018-12-15T09:36:34Z</time>
        <extensions><gpxtpx:TrackPointExtension><gpxtpx:hr>121</gpxtpx:hr></gpxtpx:TrackPointExtension></extensions>
      </trkpt>
      <trkpt lat="59.488378251854" lon="17.943986523601">
        <ele>19.6</ele>
        <time>2018-12-15T09:36:35Z</time>
        <extensions><gpxtpx:TrackPointExtension><gpxtpx:hr>120</gpxtpx:hr></gpxtpx:TrackPointExtension></extensions>
      </trkpt>
      <trkpt lat="59.488360398407" lon="17.944125663141">
        <ele>19</ele>
        <time>2018-12-15T09:36:36Z</time>
        <extensions><gpxtpx:TrackPointExtension><gpxtpx:hr>117</gpxtpx:hr></gpxtpx:TrackPointExtension></extensions>
      </trkpt>
      <trkpt lat="59.488342209684" lon="17.94427159202">
        <ele>18.2</ele>
        <time>2018-12-15T09:36:37Z</time>
        <extensions><gpxtpx:TrackPointExtension><gpxtpx:hr>115</gpxtpx:hr></gpxtpx:TrackPointExtension></extensions>
      </trkpt>
      <trkpt lat="59.488303066211" lon="17.944581973777">
        <ele>17.2</ele>
        <time>2018-12-15T09:36:39Z</time>
        <extensions><gpxtpx:TrackPointExtension><gpxtpx:hr>112</gpxtpx:hr></gpxtpx:TrackPointExtension></extensions>
      </trkpt>
      <trkpt lat="59.488278171968" lon="17.944741900429">
        <ele>17</ele>
        <time>2018-12-15T09:36:40Z</time>
        <extensions><gpxtpx:TrackPointExtension><gpxtpx:hr>110</gpxtpx:hr></gpxtpx:TrackPointExtension></extensions>
      </trkpt>
      <trkpt lat="59.488227629111" lon="17.945052617462">
        <ele>16.2</ele>
        <time>2018-12-15T09:36:42Z</time>
        <extensions><gpxtpx:TrackPointExtension><gpxtpx:hr>107</gpxtpx:hr></gpxtpx:TrackPointExtension></extensions>
      </trkpt>
      <trkpt lat="59.488213379881" lon="17.945210113363">
        <ele>15</ele>
        <time>2018-12-15T09:36:43Z</time>
        <extensions><gpxtpx:TrackPointExtension><gpxtpx:hr>105</gpxtpx:hr></gpxtpx:TrackPointExtension></extensions>
      </trkpt>
      <trkpt lat="59.488210865311" lon="17.945519908387">
        <ele>13.4</ele>
        <time>2018-12-15T09:36:45Z</time>
        <extensions><gpxtpx:TrackPointExtension><gpxtpx:hr>104</gpxtpx:hr></gpxtpx:TrackPointExtension></extensions>
      </trkpt>
      <trkpt lat="59.488248332404" lon="17.945790727576">
        <ele>11.8</ele>
        <time>2018-12-15T09:36:47Z</time>
        <extensions><gpxtpx:TrackPointExtension><gpxtpx:hr>104</gpxtpx:hr></gpxtpx:TrackPointExtension></extensions>
      </trkpt>
      <trkpt lat="59.488289319895" lon="17.94604352568">
        <ele>11.2</ele>
        <time>2018-12-15T09:36:49Z</time>
        <extensions><gpxtpx:TrackPointExtension><gpxtpx:hr>107</gpxtpx:hr></gpxtpx:TrackPointExtension></extensions>
      </trkpt>
      <trkpt lat="59.488313459767" lon="17.94629414449">
        <ele>11.2</ele>
        <time>2018-12-15T09:36:51Z</time>
        <extensions><gpxtpx:TrackPointExtension><gpxtpx:hr>110</gpxtpx:hr></gpxtpx:TrackPointExtension></extensions>
      </trkpt>
      <trkpt lat="59.488338940743" lon="17.946524562921">
        <ele>11</ele>
        <time>2018-12-15T09:36:53Z</time>
        <extensions><gpxtpx:TrackPointExtension><gpxtpx:hr>114</gpxtpx:hr></gpxtpx:TrackPointExtension></extensions>
      </trkpt>
      <trkpt lat="59.488365092271" lon="17.946741654131">
        <ele>11</ele>
        <time>2018-12-15T09:36:55Z</time>
        <extensions><gpxtpx:TrackPointExtension><gpxtpx:hr>118</gpxtpx:hr></gpxtpx:TrackPointExtension></extensions>
      </trkpt>
      <trkpt lat="59.48839367455" lon="17.946936365668">
        <ele>11.2</ele>
        <time>2018-12-15T09:36:57Z</time>
        <extensions><gpxtpx:TrackPointExtension><gpxtpx:hr>121</gpxtpx:hr></gpxtpx:TrackPointExtension></extensions>
      </trkpt>
      <trkpt lat="59.488425861046" lon="17.947118671993">
        <ele>11.8</ele>
        <time>2018-12-15T09:36:59Z</time>
        <extensions><gpxtpx:TrackPointExtension><gpxtpx:hr>124</gpxtpx:hr></gpxtpx:TrackPointExtension></extensions>
      </trkpt>
      <trkpt lat="59.488459723922" lon="17.947296955006">
        <ele>12.6</ele>
        <time>2018-12-15T09:37:01Z</time>
        <extensions><gpxtpx:TrackPointExtension><gpxtpx:hr>127</gpxtpx:hr></gpxtpx:TrackPointExtension></extensions>
      </trkpt>
      <trkpt lat="59.488493000065" lon="17.947478004046">
        <ele>13.2</ele>
        <time>2018-12-15T09:37:03Z</time>
        <extensions><gpxtpx:TrackPointExtension><gpxtpx:hr>130</gpxtpx:hr></gpxtpx:TrackPointExtension></extensions>
      </trkpt>
      <trkpt lat="59.488534406651" lon="17.947658214896">
        <ele>14.2</ele>
        <time>2018-12-15T09:37:05Z</time>
        <extensions><gpxtpx:TrackPointExtension><gpxtpx:hr>133</gpxtpx:hr></gpxtpx:TrackPointExtension></extensions>
      </trkpt>
      <trkpt lat="59.488552846831" lon="17.947744967561">
        <ele>15</ele>
        <time>2018-12-15T09:37:06Z</time>
        <extensions><gpxtpx:TrackPointExtension><gpxtpx:hr>136</gpxtpx:hr></gpxtpx:TrackPointExtension></extensions>
      </trkpt>
      <trkpt lat="59.488569526812" lon="17.947831720226">
        <ele>15.6</ele>
        <time>2018-12-15T09:37:07Z</time>
        <extensions><gpxtpx:TrackPointExtension><gpxtpx:hr>138</gpxtpx:hr></gpxtpx:TrackPointExtension></extensions>
      </trkpt>
      <trkpt lat="59.488606155715" lon="17.948005309375">
        <ele>16.2</ele>
        <time>2018-12-15T09:37:09Z</time>
        <extensions><gpxtpx:TrackPointExtension><gpxtpx:hr>142</gpxtpx:hr></gpxtpx:TrackPointExtension></extensions>
      </trkpt>
      <trkpt lat="59.488646388835" lon="17.948188034795">
        <ele>17</ele>
        <time>2018-12-15T09:37:11Z</time>
        <extensions><gpxtpx:TrackPointExtension><gpxtpx:hr>144</gpxtpx:hr></gpxtpx:TrackPointExtension></extensions>
      </trkpt>
      <trkpt lat="59.488690309991" lon="17.948379142115">
        <ele>18</ele>
        <time>2018-12-15T09:37:13Z</time>
        <extensions><gpxtpx:TrackPointExtension><gpxtpx:hr>147</gpxtpx:hr></gpxtpx:TrackPointExtension></extensions>
      </trkpt>
      <trkpt lat="59.488760885589" lon="17.948688350406">
        <ele>18.2</ele>
        <time>2018-12-15T09:37:16Z</time>
        <extensions><gpxtpx:TrackPointExtension><gpxtpx:hr>150</gpxtpx:hr></gpxtpx:TrackPointExtension></extensions>
      </trkpt>
      <trkpt lat="59.488857277439" lon="17.949030918659">
        <ele>18.4</ele>
        <time>2018-12-15T09:37:19Z</time>
        <extensions><gpxtpx:TrackPointExtension><gpxtpx:hr>152</gpxtpx:hr></gpxtpx:TrackPointExtension></extensions>
      </trkpt>
      <trkpt lat="59.489213172913" lon="17.949474572626">
        <ele>17.6</ele>
        <time>2018-12-15T09:37:25Z</time>
        <extensions><gpxtpx:TrackPointExtension><gpxtpx:hr>151</gpxtpx:hr></gpxtpx:TrackPointExtension></extensions>
      </trkpt>
      <trkpt lat="59.489287771823" lon="17.949515895393">
        <ele>17</ele>
        <time>2018-12-15T09:37:26Z</time>
        <extensions><gpxtpx:TrackPointExtension><gpxtpx:hr>151</gpxtpx:hr></gpxtpx:TrackPointExtension></extensions>
      </trkpt>
      <trkpt lat="59.489448369027" lon="17.949572054123">
        <ele>15.6</ele>
        <time>2018-12-15T09:37:28Z</time>
        <extensions><gpxtpx:TrackPointExtension><gpxtpx:hr>150</gpxtpx:hr></gpxtpx:TrackPointExtension></extensions>
      </trkpt>
      <trkpt lat="59.489614330647" lon="17.949624860093">
        <ele>14.6</ele>
        <time>2018-12-15T09:37:30Z</time>
        <extensions><gpxtpx:TrackPointExtension><gpxtpx:hr>149</gpxtpx:hr></gpxtpx:TrackPointExtension></extensions>
      </trkpt>
      <trkpt lat="59.489855058815" lon="17.949716138984">
        <ele>13.4</ele>
        <time>2018-12-15T09:37:33Z</time>
        <extensions><gpxtpx:TrackPointExtension><gpxtpx:hr>148</gpxtpx:hr></gpxtpx:TrackPointExtension></extensions>
      </trkpt>
      <trkpt lat="59.490012554716" lon="17.949773303542">
        <ele>12.4</ele>
        <time>2018-12-15T09:37:35Z</time>
        <extensions><gpxtpx:TrackPointExtension><gpxtpx:hr>147</gpxtpx:hr></gpxtpx:TrackPointExtension></extensions>
      </trkpt>
      <trkpt lat="59.490165692029" lon="17.949826780064">
        <ele>10.8</ele>
        <time>2018-12-15T09:37:37Z</time>
        <extensions><gpxtpx:TrackPointExtension><gpxtpx:hr>146</gpxtpx:hr></gpxtpx:TrackPointExtension></extensions>
      </trkpt>
      <trkpt lat="59.490447910602" lon="17.949904480277">
        <ele>9.8</ele>
        <time>2018-12-15T09:37:41Z</time>
        <extensions><gpxtpx:TrackPointExtension><gpxtpx:hr>144</gpxtpx:hr></gpxtpx:TrackPointExtension></extensions>
      </trkpt>
      <trkpt lat="59.490878153529" lon="17.949848237728">
        <ele>10</ele>
        <time>2018-12-15T09:37:48Z</time>
        <extensions><gpxtpx:TrackPointExtension><gpxtpx:hr>145</gpxtpx:hr></gpxtpx:TrackPointExtension></extensions>
      </trkpt>
      <trkpt lat="59.491054843981" lon="17.949937924058">
        <ele>11.8</ele>
        <time>2018-12-15T09:37:51Z</time>
        <extensions><gpxtpx:TrackPointExtension><gpxtpx:hr>146</gpxtpx:hr></gpxtpx:TrackPointExtension></extensions>
      </trkpt>
      <trkpt lat="59.491257015409" lon="17.950247383806">
        <ele>12.8</ele>
        <time>2018-12-15T09:37:55Z</time>
        <extensions><gpxtpx:TrackPointExtension><gpxtpx:hr>146</gpxtpx:hr></gpxtpx:TrackPointExtension></extensions>
      </trkpt>
      <trkpt lat="59.491319963478" lon="17.950341596362">
        <ele>12.8</ele>
        <time>2018-12-15T09:37:56Z</time>
        <extensions><gpxtpx:TrackPointExtension><gpxtpx:hr>146</gpxtpx:hr></gpxtpx:TrackPointExtension></extensions>
      </trkpt>
      <trkpt lat="59.491386096669" lon="17.950417955471">
        <ele>12.8</ele>
        <time>2018-12-15T09:37:57Z</time>
        <extensions><gpxtpx:TrackPointExtension><gpxtpx:hr>146</gpxtpx:hr></gpxtpx:TrackPointExtension></extensions>
      </trkpt>
      <trkpt lat="59.491598661653" lon="17.950560447771">
        <ele>13</ele>
        <time>2018-12-15T09:38:00Z</time>
        <extensions><gpxtpx:TrackPointExtension><gpxtpx:hr>145</gpxtpx:hr></gpxtpx:TrackPointExtension></extensions>
      </trkpt>
      <trkpt lat="59.491896805836" lon="17.950674693068">
        <ele>11.4</ele>
        <time>2018-12-15T09:38:04Z</time>
        <extensions><gpxtpx:TrackPointExtension><gpxtpx:hr>142</gpxtpx:hr></gpxtpx:TrackPointExtension></extensions>
      </trkpt>
      <trkpt lat="59.492130157932" lon="17.950696821284">
        <ele>10.2</ele>
        <time>2018-12-15T09:38:07Z</time>
        <extensions><gpxtpx:TrackPointExtension><gpxtpx:hr>140</gpxtpx:hr></gpxtpx:TrackPointExtension></extensions>
      </trkpt>
      <trkpt lat="59.492441545517" lon="17.950664048055">
        <ele>9.6</ele>
        <time>2018-12-15T09:38:11Z</time>
        <extensions><gpxtpx:TrackPointExtension><gpxtpx:hr>137</gpxtpx:hr></gpxtpx:TrackPointExtension></extensions>
      </trkpt>
      <trkpt lat="59.492671041939" lon="17.95063932145">
        <ele>9</ele>
        <time>2018-12-15T09:38:14Z</time>
        <extensions><gpxtpx:TrackPointExtension><gpxtpx:hr>135</gpxtpx:hr></gpxtpx:TrackPointExtension></extensions>
      </trkpt>
      <trkpt lat="59.493038588254" lon="17.950557765563">
        <ele>8.2</ele>
        <time>2018-12-15T09:38:19Z</time>
        <extensions><gpxtpx:TrackPointExtension><gpxtpx:hr>132</gpxtpx:hr></gpxtpx:TrackPointExtension></extensions>
      </trkpt>
      <trkpt lat="59.493178985079" lon="17.950538906288">
        <ele>8</ele>
        <time>2018-12-15T09:38:21Z</time>
        <extensions><gpxtpx:TrackPointExtension><gpxtpx:hr>133</gpxtpx:hr></gpxtpx:TrackPointExtension></extensions>
      </trkpt>
      <trkpt lat="59.493437147599" lon="17.950527087809">
        <ele>8</ele>
        <time>2018-12-15T09:38:25Z</time>
        <extensions><gpxtpx:TrackPointExtension><gpxtpx:hr>130</gpxtpx:hr></gpxtpx:TrackPointExtension></extensions>
      </trkpt>
      <trkpt lat="59.493632194412" lon="17.950539744478">
        <ele>7.8</ele>
        <time>2018-12-15T09:38:28Z</time>
        <extensions><gpxtpx:TrackPointExtension><gpxtpx:hr>127</gpxtpx:hr></gpxtpx:TrackPointExtension></extensions>
      </trkpt>
      <trkpt lat="59.493842831559" lon="17.950555167174">
        <ele>7.8</ele>
        <time>2018-12-15T09:38:31Z</time>
        <extensions><gpxtpx:TrackPointExtension><gpxtpx:hr>122</gpxtpx:hr></gpxtpx:TrackPointExtension></extensions>
      </trkpt>
      <trkpt lat="59.4939885928" lon="17.950593556276">
        <ele>7.6</ele>
        <time>2018-12-15T09:38:33Z</time>
        <extensions><gpxtpx:TrackPointExtension><gpxtpx:hr>119</gpxtpx:hr></gpxtpx:TrackPointExtension></extensions>
      </trkpt>
      <trkpt lat="59.494347421939" lon="17.950648038626">
        <ele>6.6</ele>
        <time>2018-12-15T09:38:38Z</time>
        <extensions><gpxtpx:TrackPointExtension><gpxtpx:hr>115</gpxtpx:hr></gpxtpx:TrackPointExtension></extensions>
      </trkpt>
      <trkpt lat="59.494557053258" lon="17.950682991149">
        <ele>5.4</ele>
        <time>2018-12-15T09:38:41Z</time>
        <extensions><gpxtpx:TrackPointExtension><gpxtpx:hr>114</gpxtpx:hr></gpxtpx:TrackPointExtension></extensions>
      </trkpt>
      <trkpt lat="59.494729971855" lon="17.950739233698">
        <ele>4.6</ele>
        <time>2018-12-15T09:38:44Z</time>
        <extensions><gpxtpx:TrackPointExtension><gpxtpx:hr>114</gpxtpx:hr></gpxtpx:TrackPointExtension></extensions>
      </trkpt>
      <trkpt lat="59.494769450604" lon="17.951106025642">
        <ele>4.4</ele>
        <time>2018-12-15T09:38:49Z</time>
        <extensions><gpxtpx:TrackPointExtension><gpxtpx:hr>113</gpxtpx:hr></gpxtpx:TrackPointExtension></extensions>
      </trkpt>
      <trkpt lat="59.494750088415" lon="17.951216750541">
        <ele>4.4</ele>
        <time>2018-12-15T09:38:50Z</time>
        <extensions><gpxtpx:TrackPointExtension><gpxtpx:hr>112</gpxtpx:hr></gpxtpx:TrackPointExtension></extensions>
      </trkpt>
      <trkpt lat="59.494605584459" lon="17.952162983232">
        <ele>3.6</ele>
        <time>2018-12-15T09:38:58Z</time>
        <extensions><gpxtpx:TrackPointExtension><gpxtpx:hr>109</gpxtpx:hr></gpxtpx:TrackPointExtension></extensions>
      </trkpt>
      <trkpt lat="59.494594771808" lon="17.952278318176">
        <ele>3.2</ele>
        <time>2018-12-15T09:38:59Z</time>
        <extensions><gpxtpx:TrackPointExtension><gpxtpx:hr>107</gpxtpx:hr></gpxtpx:TrackPointExtension></extensions>
      </trkpt>
      <trkpt lat="59.494556298887" lon="17.952704202515">
        <ele>1.8</ele>
        <time>2018-12-15T09:39:03Z</time>
        <extensions><gpxtpx:TrackPointExtension><gpxtpx:hr>106</gpxtpx:hr></gpxtpx:TrackPointExtension></extensions>
      </trkpt>
      <trkpt lat="59.494729468941" lon="17.95309437996">
        <ele>1.4</ele>
        <time>2018-12-15T09:39:08Z</time>
        <extensions><gpxtpx:TrackPointExtension><gpxtpx:hr>110</gpxtpx:hr></gpxtpx:TrackPointExtension></extensions>
      </trkpt>
      <trkpt lat="59.494784705662" lon="17.953157076572">
        <ele>1.4</ele>
        <time>2018-12-15T09:39:09Z</time>
        <extensions><gpxtpx:TrackPointExtension><gpxtpx:hr>113</gpxtpx:hr></gpxtpx:TrackPointExtension></extensions>
      </trkpt>
      <trkpt lat="59.494841534944" lon="17.953219354089">
        <ele>1.4</ele>
        <time>2018-12-15T09:39:10Z</time>
        <extensions><gpxtpx:TrackPointExtension><gpxtpx:hr>116</gpxtpx:hr></gpxtpx:TrackPointExtension></extensions>
      </trkpt>
      <trkpt lat="59.494897609855" lon="17.953276518647">
        <ele>1.2</ele>
        <time>2018-12-15T09:39:11Z</time>
        <extensions><gpxtpx:TrackPointExtension><gpxtpx:hr>119</gpxtpx:hr></gpxtpx:TrackPointExtension></extensions>
      </trkpt>
      <trkpt lat="59.495013363894" lon="17.953379448379">
        <ele>1.2</ele>
        <time>2018-12-15T09:39:13Z</time>
        <extensions><gpxtpx:TrackPointExtension><gpxtpx:hr>123</gpxtpx:hr></gpxtpx:TrackPointExtension></extensions>
      </trkpt>
      <trkpt lat="59.495129620847" lon="17.953483216301">
        <ele>1.2</ele>
        <time>2018-12-15T09:39:15Z</time>
        <extensions><gpxtpx:TrackPointExtension><gpxtpx:hr>126</gpxtpx:hr></gpxtpx:TrackPointExtension></extensions>
      </trkpt>
      <trkpt lat="59.495244033782" lon="17.953604167118">
        <ele>1.2</ele>
        <time>2018-12-15T09:39:17Z</time>
        <extensions><gpxtpx:TrackPointExtension><gpxtpx:hr>128</gpxtpx:hr></gpxtpx:TrackPointExtension></extensions>
      </trkpt>
      <trkpt lat="59.495345119496" lon="17.953768955272">
        <ele>1.2</ele>
        <time>2018-12-15T09:39:19Z</time>
        <extensions><gpxtpx:TrackPointExtension><gpxtpx:hr>131</gpxtpx:hr></gpxtpx:TrackPointExtension></extensions>
      </trkpt>
      <trkpt lat="59.495450228522" lon="17.95409853158">
        <ele>0.8</ele>
        <time>2018-12-15T09:39:22Z</time>
        <extensions><gpxtpx:TrackPointExtension><gpxtpx:hr>134</gpxtpx:hr></gpxtpx:TrackPointExtension></extensions>
      </trkpt>
      <trkpt lat="59.495474536032" lon="17.954219147121">
        <ele>0.8</ele>
        <time>2018-12-15T09:39:23Z</time>
        <extensions><gpxtpx:TrackPointExtension><gpxtpx:hr>134</gpxtpx:hr></gpxtpx:TrackPointExtension></extensions>
      </trkpt>
      <trkpt lat="59.49550404032" lon="17.954336493721">
        <ele>0.8</ele>
        <time>2018-12-15T09:39:24Z</time>
        <extensions><gpxtpx:TrackPointExtension><gpxtpx:hr>135</gpxtpx:hr></gpxtpx:TrackPointExtension></extensions>
      </trkpt>
      <trkpt lat="59.495640246195" lon="17.95462659128">
        <ele>0.4</ele>
        <time>2018-12-15T09:39:27Z</time>
        <extensions><gpxtpx:TrackPointExtension><gpxtpx:hr>138</gpxtpx:hr></gpxtpx:TrackPointExtension></extensions>
      </trkpt>
      <trkpt lat="59.495691962518" lon="17.95470370476">
        <ele>0.4</ele>
        <time>2018-12-15T09:39:28Z</time>
        <extensions><gpxtpx:TrackPointExtension><gpxtpx:hr>140</gpxtpx:hr></gpxtpx:TrackPointExtension></extensions>
      </trkpt>
      <trkpt lat="59.495840573605" lon="17.954956335226">
        <ele>0.2</ele>
        <time>2018-12-15T09:39:31Z</time>
        <extensions><gpxtpx:TrackPointExtension><gpxtpx:hr>143</gpxtpx:hr></gpxtpx:TrackPointExtension></extensions>
      </trkpt>
      <trkpt lat="59.495969990141" lon="17.955243582939">
        <ele>0</ele>
        <time>2018-12-15T09:39:34Z</time>
        <extensions><gpxtpx:TrackPointExtension><gpxtpx:hr>146</gpxtpx:hr></gpxtpx:TrackPointExtension></extensions>
      </trkpt>
      <trkpt lat="59.496050875476" lon="17.955446173462">
        <ele>0</ele>
        <time>2018-12-15T09:39:36Z</time>
        <extensions><gpxtpx:TrackPointExtension><gpxtpx:hr>149</gpxtpx:hr></gpxtpx:TrackPointExtension></extensions>
      </trkpt>
      <trkpt lat="59.496177023071" lon="17.955743814731">
        <ele>0.2</ele>
        <time>2018-12-15T09:39:39Z</time>
        <extensions><gpxtpx:TrackPointExtension><gpxtpx:hr>152</gpxtpx:hr></gpxtpx:TrackPointExtension></extensions>
      </trkpt>
      <trkpt lat="59.496325969434" lon="17.956000636147">
        <ele>0.6</ele>
        <time>2018-12-15T09:39:42Z</time>
        <extensions><gpxtpx:TrackPointExtension><gpxtpx:hr>155</gpxtpx:hr></gpxtpx:TrackPointExtension></extensions>
      </trkpt>
      <trkpt lat="59.496802648087" lon="17.956632044674">
        <ele>0.8</ele>
        <time>2018-12-15T09:39:51Z</time>
        <extensions><gpxtpx:TrackPointExtension><gpxtpx:hr>157</gpxtpx:hr></gpxtpx:TrackPointExtension></extensions>
      </trkpt>
      <trkpt lat="59.497303215155" lon="17.957209138489">
        <ele>0.8</ele>
        <time>2018-12-15T09:40:00Z</time>
        <extensions><gpxtpx:TrackPointExtension><gpxtpx:hr>158</gpxtpx:hr></gpxtpx:TrackPointExtension></extensions>
      </trkpt>
      <trkpt lat="59.497782911292" lon="17.957916403211">
        <ele>0.6</ele>
        <time>2018-12-15T09:40:09Z</time>
        <extensions><gpxtpx:TrackPointExtension><gpxtpx:hr>159</gpxtpx:hr></gpxtpx:TrackPointExtension></extensions>
      </trkpt>
      <trkpt lat="59.498200162274" lon="17.958588547772">
        <ele>0.2</ele>
        <time>2018-12-15T09:40:17Z</time>
        <extensions><gpxtpx:TrackPointExtension><gpxtpx:hr>159</gpxtpx:hr></gpxtpx:TrackPointExtension></extensions>
      </trkpt>
      <trkpt lat="59.498523703614" lon="17.959331687026">
        <ele>0.2</ele>
        <time>2018-12-15T09:40:25Z</time>
        <extensions><gpxtpx:TrackPointExtension><gpxtpx:hr>158</gpxtpx:hr></gpxtpx:TrackPointExtension></extensions>
      </trkpt>
      <trkpt lat="59.498624202595" lon="17.960177169279">
        <ele>0.4</ele>
        <time>2018-12-15T09:40:32Z</time>
        <extensions><gpxtpx:TrackPointExtension><gpxtpx:hr>158</gpxtpx:hr></gpxtpx:TrackPointExtension></extensions>
      </trkpt>
      <trkpt lat="59.49885428575" lon="17.960754849827">
        <ele>0.6</ele>
        <time>2018-12-15T09:40:38Z</time>
        <extensions><gpxtpx:TrackPointExtension><gpxtpx:hr>158</gpxtpx:hr></gpxtpx:TrackPointExtension></extensions>
      </trkpt>
      <trkpt lat="59.499149580087" lon="17.961236809077">
        <ele>0.6</ele>
        <time>2018-12-15T09:40:44Z</time>
        <extensions><gpxtpx:TrackPointExtension><gpxtpx:hr>158</gpxtpx:hr></gpxtpx:TrackPointExtension></extensions>
      </trkpt>
      <trkpt lat="59.499336831733" lon="17.961719606517">
        <ele>0.6</ele>
        <time>2018-12-15T09:40:49Z</time>
        <extensions><gpxtpx:TrackPointExtension><gpxtpx:hr>159</gpxtpx:hr></gpxtpx:TrackPointExtension></extensions>
      </trkpt>
      <trkpt lat="59.499378070681" lon="17.962068209738">
        <ele>0.6</ele>
        <time>2018-12-15T09:40:52Z</time>
        <extensions><gpxtpx:TrackPointExtension><gpxtpx:hr>158</gpxtpx:hr></gpxtpx:TrackPointExtension></extensions>
      </trkpt>
      <trkpt lat="59.499509079778" lon="17.962621498957">
        <ele>0.6</ele>
        <time>2018-12-15T09:40:57Z</time>
        <extensions><gpxtpx:TrackPointExtension><gpxtpx:hr>158</gpxtpx:hr></gpxtpx:TrackPointExtension></extensions>
      </trkpt>
      <trkpt lat="59.49983412986" lon="17.963555577893">
        <ele>1</ele>
        <time>2018-12-15T09:41:06Z</time>
        <extensions><gpxtpx:TrackPointExtension><gpxtpx:hr>157</gpxtpx:hr></gpxtpx:TrackPointExtension></extensions>
      </trkpt>
      <trkpt lat="59.499960528912" lon="17.963855985189">
        <ele>1</ele>
        <time>2018-12-15T09:41:09Z</time>
        <extensions><gpxtpx:TrackPointExtension><gpxtpx:hr>156</gpxtpx:hr></gpxtpx:TrackPointExtension></extensions>
      </trkpt>
      <trkpt lat="59.500265630072" lon="17.964049942355">
        <ele>1</ele>
        <time>2018-12-15T09:41:14Z</time>
        <extensions><gpxtpx:TrackPointExtension><gpxtpx:hr>155</gpxtpx:hr></gpxtpx:TrackPointExtension></extensions>
      </trkpt>
      <trkpt lat="59.500525217515" lon="17.964158236503">
        <ele>1</ele>
        <time>2018-12-15T09:41:18Z</time>
        <extensions><gpxtpx:TrackPointExtension><gpxtpx:hr>156</gpxtpx:hr></gpxtpx:TrackPointExtension></extensions>
      </trkpt>
      <trkpt lat="59.500705344546" lon="17.964315816223">
        <ele>1</ele>
        <time>2018-12-15T09:41:21Z</time>
        <extensions><gpxtpx:TrackPointExtension><gpxtpx:hr>156</gpxtpx:hr></gpxtpx:TrackPointExtension></extensions>
      </trkpt>
      <trkpt lat="59.50094976075" lon="17.964414303548">
        <ele>1.2</ele>
        <time>2018-12-15T09:41:25Z</time>
        <extensions><gpxtpx:TrackPointExtension><gpxtpx:hr>157</gpxtpx:hr></gpxtpx:TrackPointExtension></extensions>
      </trkpt>
      <trkpt lat="59.501148663237" lon="17.964649499662">
        <ele>1.4</ele>
        <time>2018-12-15T09:41:29Z</time>
        <extensions><gpxtpx:TrackPointExtension><gpxtpx:hr>155</gpxtpx:hr></gpxtpx:TrackPointExtension></extensions>
      </trkpt>
      <trkpt lat="59.501334238503" lon="17.96474605915">
        <ele>1.4</ele>
        <time>2018-12-15T09:41:33Z</time>
        <extensions><gpxtpx:TrackPointExtension><gpxtpx:hr>152</gpxtpx:hr></gpxtpx:TrackPointExtension></extensions>
      </trkpt>
      <trkpt lat="59.501458039166" lon="17.964732229015">
        <ele>1.6</ele>
        <time>2018-12-15T09:41:36Z</time>
        <extensions><gpxtpx:TrackPointExtension><gpxtpx:hr>150</gpxtpx:hr></gpxtpx:TrackPointExtension></extensions>
      </trkpt>
      <trkpt lat="59.501492488775" lon="17.964735246499">
        <ele>1.8</ele>
        <time>2018-12-15T09:41:37Z</time>
        <extensions><gpxtpx:TrackPointExtension><gpxtpx:hr>149</gpxtpx:hr></gpxtpx:TrackPointExtension></extensions>
      </trkpt>
      <trkpt lat="59.501588880625" lon="17.9647167225">
        <ele>2</ele>
        <time>2018-12-15T09:41:40Z</time>
        <extensions><gpxtpx:TrackPointExtension><gpxtpx:hr>146</gpxtpx:hr></gpxtpx:TrackPointExtension></extensions>
      </trkpt>
      <trkpt lat="59.501859364538" lon="17.964473982676">
        <ele>2.8</ele>
        <time>2018-12-15T09:41:47Z</time>
        <extensions><gpxtpx:TrackPointExtension><gpxtpx:hr>145</gpxtpx:hr></gpxtpx:TrackPointExtension></extensions>
      </trkpt>
      <trkpt lat="59.502354315733" lon="17.964067628164">
        <ele>3</ele>
        <time>2018-12-15T09:41:56Z</time>
        <extensions><gpxtpx:TrackPointExtension><gpxtpx:hr>146</gpxtpx:hr></gpxtpx:TrackPointExtension></extensions>
      </trkpt>
      <trkpt lat="59.502837196992" lon="17.964140802151">
        <ele>3</ele>
        <time>2018-12-15T09:42:04Z</time>
        <extensions><gpxtpx:TrackPointExtension><gpxtpx:hr>143</gpxtpx:hr></gpxtpx:TrackPointExtension></extensions>
      </trkpt>
      <trkpt lat="59.503384199786" lon="17.964057402246">
        <ele>2.8</ele>
        <time>2018-12-15T09:42:13Z</time>
        <extensions><gpxtpx:TrackPointExtension><gpxtpx:hr>144</gpxtpx:hr></gpxtpx:TrackPointExtension></extensions>
      </trkpt>
      <trkpt lat="59.50381469417" lon="17.963719444038">
        <ele>2.4</ele>
        <time>2018-12-15T09:42:21Z</time>
        <extensions><gpxtpx:TrackPointExtension><gpxtpx:hr>144</gpxtpx:hr></gpxtpx:TrackPointExtension></extensions>
      </trkpt>
      <trkpt lat="59.503921060481" lon="17.963609808786">
        <ele>2.6</ele>
        <time>2018-12-15T09:42:23Z</time>
        <extensions><gpxtpx:TrackPointExtension><gpxtpx:hr>144</gpxtpx:hr></gpxtpx:TrackPointExtension></extensions>
      </trkpt>
      <trkpt lat="59.504451970027" lon="17.963646689146">
        <ele>3.6</ele>
        <time>2018-12-15T09:42:32Z</time>
        <extensions><gpxtpx:TrackPointExtension><gpxtpx:hr>143</gpxtpx:hr></gpxtpx:TrackPointExtension></extensions>
      </trkpt>
      <trkpt lat="59.505034847353" lon="17.963609641148">
        <ele>3.6</ele>
        <time>2018-12-15T09:42:42Z</time>
        <extensions><gpxtpx:TrackPointExtension><gpxtpx:hr>142</gpxtpx:hr></gpxtpx:TrackPointExtension></extensions>
      </trkpt>
      <trkpt lat="59.50530667237" lon="17.96359438609">
        <ele>4</ele>
        <time>2018-12-15T09:42:47Z</time>
        <extensions><gpxtpx:TrackPointExtension><gpxtpx:hr>143</gpxtpx:hr></gpxtpx:TrackPointExtension></extensions>
      </trkpt>
      <trkpt lat="59.505537342258" lon="17.963420377846">
        <ele>4.2</ele>
        <time>2018-12-15T09:42:51Z</time>
        <extensions><gpxtpx:TrackPointExtension><gpxtpx:hr>143</gpxtpx:hr></gpxtpx:TrackPointExtension></extensions>
      </trkpt>
      <trkpt lat="59.505712188692" lon="17.963259780642">
        <ele>4.2</ele>
        <time>2018-12-15T09:42:54Z</time>
        <extensions><gpxtpx:TrackPointExtension><gpxtpx:hr>144</gpxtpx:hr></gpxtpx:TrackPointExtension></extensions>
      </trkpt>
      <trkpt lat="59.5059411822" lon="17.963188450673">
        <ele>4.4</ele>
        <time>2018-12-15T09:42:58Z</time>
        <extensions><gpxtpx:TrackPointExtension><gpxtpx:hr>145</gpxtpx:hr></gpxtpx:TrackPointExtension></extensions>
      </trkpt>
      <trkpt lat="59.506115860996" lon="17.963201526437">
        <ele>4</ele>
        <time>2018-12-15T09:43:01Z</time>
        <extensions><gpxtpx:TrackPointExtension><gpxtpx:hr>144</gpxtpx:hr></gpxtpx:TrackPointExtension></extensions>
      </trkpt>
      <trkpt lat="59.506289450145" lon="17.963312335155">
        <ele>4</ele>
        <time>2018-12-15T09:43:04Z</time>
        <extensions><gpxtpx:TrackPointExtension><gpxtpx:hr>141</gpxtpx:hr></gpxtpx:TrackPointExtension></extensions>
      </trkpt>
      <trkpt lat="59.506346949979" lon="17.963356926863">
        <ele>3.8</ele>
        <time>2018-12-15T09:43:05Z</time>
        <extensions><gpxtpx:TrackPointExtension><gpxtpx:hr>141</gpxtpx:hr></gpxtpx:TrackPointExtension></extensions>
      </trkpt>
      <trkpt lat="59.506758836545" lon="17.963206639396">
        <ele>3.2</ele>
        <time>2018-12-15T09:43:12Z</time>
        <extensions><gpxtpx:TrackPointExtension><gpxtpx:hr>143</gpxtpx:hr></gpxtpx:TrackPointExtension></extensions>
      </trkpt>
      <trkpt lat="59.507177680088" lon="17.962838506348">
        <ele>2.4</ele>
        <time>2018-12-15T09:43:19Z</time>
        <extensions><gpxtpx:TrackPointExtension><gpxtpx:hr>140</gpxtpx:hr></gpxtpx:TrackPointExtension></extensions>
      </trkpt>
      <trkpt lat="59.507420336093" lon="17.962630970504">
        <ele>1.6</ele>
        <time>2018-12-15T09:43:23Z</time>
        <extensions><gpxtpx:TrackPointExtension><gpxtpx:hr>138</gpxtpx:hr></gpxtpx:TrackPointExtension></extensions>
      </trkpt>
      <trkpt lat="59.507695262413" lon="17.962107939944">
        <ele>1.6</ele>
        <time>2018-12-15T09:43:29Z</time>
        <extensions><gpxtpx:TrackPointExtension><gpxtpx:hr>134</gpxtpx:hr></gpxtpx:TrackPointExtension></extensions>
      </trkpt>
      <trkpt lat="59.507900283687" lon="17.961668560746">
        <ele>1.8</ele>
        <time>2018-12-15T09:43:34Z</time>
        <extensions><gpxtpx:TrackPointExtension><gpxtpx:hr>135</gpxtpx:hr></gpxtpx:TrackPointExtension></extensions>
      </trkpt>
      <trkpt lat="59.508352235735" lon="17.961072691475">
        <ele>2.8</ele>
        <time>2018-12-15T09:43:43Z</time>
        <extensions><gpxtpx:TrackPointExtension><gpxtpx:hr>137</gpxtpx:hr></gpxtpx:TrackPointExtension></extensions>
      </trkpt>
      <trkpt lat="59.508610733531" lon="17.960740516778">
        <ele>3</ele>
        <time>2018-12-15T09:43:48Z</time>
        <extensions><gpxtpx:TrackPointExtension><gpxtpx:hr>138</gpxtpx:hr></gpxtpx:TrackPointExtension></extensions>
      </trkpt>
      <trkpt lat="59.508741742628" lon="17.960313961887">
        <ele>3.2</ele>
        <time>2018-12-15T09:43:52Z</time>
        <extensions><gpxtpx:TrackPointExtension><gpxtpx:hr>136</gpxtpx:hr></gpxtpx:TrackPointExtension></extensions>
      </trkpt>
      <trkpt lat="59.508796141159" lon="17.960084968379">
        <ele>3</ele>
        <time>2018-12-15T09:43:54Z</time>
        <extensions><gpxtpx:TrackPointExtension><gpxtpx:hr>136</gpxtpx:hr></gpxtpx:TrackPointExtension></extensions>
      </trkpt>
      <trkpt lat="59.509000072786" lon="17.959816412303">
        <ele>3</ele>
        <time>2018-12-15T09:43:58Z</time>
        <extensions><gpxtpx:TrackPointExtension><gpxtpx:hr>135</gpxtpx:hr></gpxtpx:TrackPointExtension></extensions>
      </trkpt>
      <trkpt lat="59.50905338167" lon="17.959759499202">
        <ele>3</ele>
        <time>2018-12-15T09:43:59Z</time>
        <extensions><gpxtpx:TrackPointExtension><gpxtpx:hr>135</gpxtpx:hr></gpxtpx:TrackPointExtension></extensions>
      </trkpt>
      <trkpt lat="59.509272400717" lon="17.959360101667">
        <ele>3</ele>
        <time>2018-12-15T09:44:04Z</time>
        <extensions><gpxtpx:TrackPointExtension><gpxtpx:hr>132</gpxtpx:hr></gpxtpx:TrackPointExtension></extensions>
      </trkpt>
      <trkpt lat="59.509349178921" lon="17.959185339052">
        <ele>3</ele>
        <time>2018-12-15T09:44:06Z</time>
        <extensions><gpxtpx:TrackPointExtension><gpxtpx:hr>133</gpxtpx:hr></gpxtpx:TrackPointExtension></extensions>
      </trkpt>
      <trkpt lat="59.509426040944" lon="17.958874286743">
        <ele>3</ele>
        <time>2018-12-15T09:44:09Z</time>
        <extensions><gpxtpx:TrackPointExtension><gpxtpx:hr>133</gpxtpx:hr></gpxtpx:TrackPointExtension></extensions>
      </trkpt>
      <trkpt lat="59.509457975983" lon="17.958654178049">
        <ele>3.2</ele>
        <time>2018-12-15T09:44:11Z</time>
        <extensions><gpxtpx:TrackPointExtension><gpxtpx:hr>133</gpxtpx:hr></gpxtpx:TrackPointExtension></extensions>
      </trkpt>
      <trkpt lat="59.509555541299" lon="17.958083622116">
        <ele>3.4</ele>
        <time>2018-12-15T09:44:16Z</time>
        <extensions><gpxtpx:TrackPointExtension><gpxtpx:hr>136</gpxtpx:hr></gpxtpx:TrackPointExtension></extensions>
      </trkpt>
      <trkpt lat="59.509660901782" lon="17.957630999516">
        <ele>3.6</ele>
        <time>2018-12-15T09:44:20Z</time>
        <extensions><gpxtpx:TrackPointExtension><gpxtpx:hr>139</gpxtpx:hr></gpxtpx:TrackPointExtension></extensions>
      </trkpt>
      <trkpt lat="59.509882770675" lon="17.95707410608">
        <ele>3.6</ele>
        <time>2018-12-15T09:44:26Z</time>
        <extensions><gpxtpx:TrackPointExtension><gpxtpx:hr>141</gpxtpx:hr></gpxtpx:TrackPointExtension></extensions>
      </trkpt>
      <trkpt lat="59.509942282165" lon="17.956573455193">
        <ele>4.2</ele>
        <time>2018-12-15T09:44:32Z</time>
        <extensions><gpxtpx:TrackPointExtension><gpxtpx:hr>141</gpxtpx:hr></gpxtpx:TrackPointExtension></extensions>
      </trkpt>
      <trkpt lat="59.510037500549" lon="17.956662638609">
        <ele>4.6</ele>
        <time>2018-12-15T09:44:35Z</time>
        <extensions><gpxtpx:TrackPointExtension><gpxtpx:hr>140</gpxtpx:hr></gpxtpx:TrackPointExtension></extensions>
      </trkpt>
      <trkpt lat="59.51007178252" lon="17.95671619895">
        <ele>4.8</ele>
        <time>2018-12-15T09:44:36Z</time>
        <extensions><gpxtpx:TrackPointExtension><gpxtpx:hr>140</gpxtpx:hr></gpxtpx:TrackPointExtension></extensions>
      </trkpt>
      <trkpt lat="59.510259034166" lon="17.95677822501">
        <ele>4.8</ele>
        <time>2018-12-15T09:44:40Z</time>
        <extensions><gpxtpx:TrackPointExtension><gpxtpx:hr>140</gpxtpx:hr></gpxtpx:TrackPointExtension></extensions>
      </trkpt>
      <trkpt lat="59.510313013602" lon="17.956765568341">
        <ele>4.8</ele>
        <time>2018-12-15T09:44:41Z</time>
        <extensions><gpxtpx:TrackPointExtension><gpxtpx:hr>141</gpxtpx:hr></gpxtpx:TrackPointExtension></extensions>
      </trkpt>
      <trkpt lat="59.510519627437" lon="17.956574125745">
        <ele>5</ele>
        <time>2018-12-15T09:44:45Z</time>
        <extensions><gpxtpx:TrackPointExtension><gpxtpx:hr>140</gpxtpx:hr></gpxtpx:TrackPointExtension></extensions>
      </trkpt>
      <trkpt lat="59.51097786591" lon="17.95597272442">
        <ele>4.4</ele>
        <time>2018-12-15T09:44:55Z</time>
        <extensions><gpxtpx:TrackPointExtension><gpxtpx:hr>140</gpxtpx:hr></gpxtpx:TrackPointExtension></extensions>
      </trkpt>
      <trkpt lat="59.511206021228" lon="17.955720680687">
        <ele>4.6</ele>
        <time>2018-12-15T09:45:00Z</time>
        <extensions><gpxtpx:TrackPointExtension><gpxtpx:hr>140</gpxtpx:hr></gpxtpx:TrackPointExtension></extensions>
      </trkpt>
      <trkpt lat="59.51142545937" lon="17.95566175593">
        <ele>5</ele>
        <time>2018-12-15T09:45:04Z</time>
        <extensions><gpxtpx:TrackPointExtension><gpxtpx:hr>141</gpxtpx:hr></gpxtpx:TrackPointExtension></extensions>
      </trkpt>
      <trkpt lat="59.511724190286" lon="17.955663180853">
        <ele>5.2</ele>
        <time>2018-12-15T09:45:09Z</time>
        <extensions><gpxtpx:TrackPointExtension><gpxtpx:hr>141</gpxtpx:hr></gpxtpx:TrackPointExtension></extensions>
      </trkpt>
      <trkpt lat="59.512077822647" lon="17.955417339726">
        <ele>5</ele>
        <time>2018-12-15T09:45:15Z</time>
        <extensions><gpxtpx:TrackPointExtension><gpxtpx:hr>140</gpxtpx:hr></gpxtpx:TrackPointExtension></extensions>
      </trkpt>
      <trkpt lat="59.512463054771" lon="17.955394960053">
        <ele>4.8</ele>
        <time>2018-12-15T09:45:21Z</time>
        <extensions><gpxtpx:TrackPointExtension><gpxtpx:hr>140</gpxtpx:hr></gpxtpx:TrackPointExtension></extensions>
      </trkpt>
      <trkpt lat="59.513014164696" lon="17.955128499452">
        <ele>4.8</ele>
        <time>2018-12-15T09:45:30Z</time>
        <extensions><gpxtpx:TrackPointExtension><gpxtpx:hr>140</gpxtpx:hr></gpxtpx:TrackPointExtension></extensions>
      </trkpt>
      <trkpt lat="59.513580110584" lon="17.955075274387">
        <ele>5</ele>
        <time>2018-12-15T09:45:39Z</time>
        <extensions><gpxtpx:TrackPointExtension><gpxtpx:hr>138</gpxtpx:hr></gpxtpx:TrackPointExtension></extensions>
      </trkpt>
      <trkpt lat="59.51364163373" lon="17.955057588578">
        <ele>5</ele>
        <time>2018-12-15T09:45:40Z</time>
        <extensions><gpxtpx:TrackPointExtension><gpxtpx:hr>139</gpxtpx:hr></gpxtpx:TrackPointExtension></extensions>
      </trkpt>
      <trkpt lat="59.513854701628" lon="17.9548093167">
        <ele>5</ele>
        <time>2018-12-15T09:45:44Z</time>
        <extensions><gpxtpx:TrackPointExtension><gpxtpx:hr>139</gpxtpx:hr></gpxtpx:TrackPointExtension></extensions>
      </trkpt>
      <trkpt lat="59.514123676799" lon="17.954321909215">
        <ele>5.2</ele>
        <time>2018-12-15T09:45:50Z</time>
        <extensions><gpxtpx:TrackPointExtension><gpxtpx:hr>142</gpxtpx:hr></gpxtpx:TrackPointExtension></extensions>
      </trkpt>
      <trkpt lat="59.514207244342" lon="17.95418402696">
        <ele>5.2</ele>
        <time>2018-12-15T09:45:52Z</time>
        <extensions><gpxtpx:TrackPointExtension><gpxtpx:hr>142</gpxtpx:hr></gpxtpx:TrackPointExtension></extensions>
      </trkpt>
      <trkpt lat="59.514482254481" lon="17.954311934754">
        <ele>5.2</ele>
        <time>2018-12-15T09:45:59Z</time>
        <extensions><gpxtpx:TrackPointExtension><gpxtpx:hr>142</gpxtpx:hr></gpxtpx:TrackPointExtension></extensions>
      </trkpt>
      <trkpt lat="59.514924567344" lon="17.954788697226">
        <ele>5</ele>
        <time>2018-12-15T09:46:07Z</time>
        <extensions><gpxtpx:TrackPointExtension><gpxtpx:hr>145</gpxtpx:hr></gpxtpx:TrackPointExtension></extensions>
      </trkpt>
      <trkpt lat="59.51498022316" lon="17.954868157638">
        <ele>4.6</ele>
        <time>2018-12-15T09:46:08Z</time>
        <extensions><gpxtpx:TrackPointExtension><gpxtpx:hr>145</gpxtpx:hr></gpxtpx:TrackPointExtension></extensions>
      </trkpt>
      <trkpt lat="59.515121793451" lon="17.955285240982">
        <ele>4.4</ele>
        <time>2018-12-15T09:46:12Z</time>
        <extensions><gpxtpx:TrackPointExtension><gpxtpx:hr>146</gpxtpx:hr></gpxtpx:TrackPointExtension></extensions>
      </trkpt>
      <trkpt lat="59.515156075422" lon="17.955382303384">
        <ele>4.4</ele>
        <time>2018-12-15T09:46:13Z</time>
        <extensions><gpxtpx:TrackPointExtension><gpxtpx:hr>146</gpxtpx:hr></gpxtpx:TrackPointExtension></extensions>
      </trkpt>
      <trkpt lat="59.515338549385" lon="17.955552875049">
        <ele>4.4</ele>
        <time>2018-12-15T09:46:17Z</time>
        <extensions><gpxtpx:TrackPointExtension><gpxtpx:hr>145</gpxtpx:hr></gpxtpx:TrackPointExtension></extensions>
      </trkpt>
      <trkpt lat="59.515513982552" lon="17.955858982037">
        <ele>5</ele>
        <time>2018-12-15T09:46:21Z</time>
        <extensions><gpxtpx:TrackPointExtension><gpxtpx:hr>142</gpxtpx:hr></gpxtpx:TrackPointExtension></extensions>
      </trkpt>
      <trkpt lat="59.515553964215" lon="17.95592913854">
        <ele>5.2</ele>
        <time>2018-12-15T09:46:22Z</time>
        <extensions><gpxtpx:TrackPointExtension><gpxtpx:hr>141</gpxtpx:hr></gpxtpx:TrackPointExtension></extensions>
      </trkpt>
      <trkpt lat="59.515666868408" lon="17.956120497317">
        <ele>6</ele>
        <time>2018-12-15T09:46:26Z</time>
        <extensions><gpxtpx:TrackPointExtension><gpxtpx:hr>138</gpxtpx:hr></gpxtpx:TrackPointExtension></extensions>
      </trkpt>
      <trkpt lat="59.515685308588" lon="17.956148157587">
        <ele>6.8</ele>
        <time>2018-12-15T09:46:29Z</time>
        <extensions><gpxtpx:TrackPointExtension><gpxtpx:hr>135</gpxtpx:hr></gpxtpx:TrackPointExtension></extensions>
      </trkpt>
      <trkpt lat="59.515678351611" lon="17.956083616957">
        <ele>8.2</ele>
        <time>2018-12-15T09:46:34Z</time>
        <extensions><gpxtpx:TrackPointExtension><gpxtpx:hr>131</gpxtpx:hr></gpxtpx:TrackPointExtension></extensions>
      </trkpt>
      <trkpt lat="59.515615906456" lon="17.955989069125">
        <ele>8.8</ele>
        <time>2018-12-15T09:46:37Z</time>
        <extensions><gpxtpx:TrackPointExtension><gpxtpx:hr>128</gpxtpx:hr></gpxtpx:TrackPointExtension></extensions>
      </trkpt>
      <trkpt lat="59.515436785253" lon="17.955667790898">
        <ele>9</ele>
        <time>2018-12-15T09:46:43Z</time>
        <extensions><gpxtpx:TrackPointExtension><gpxtpx:hr>125</gpxtpx:hr></gpxtpx:TrackPointExtension></extensions>
      </trkpt>
      <trkpt lat="59.515378950143" lon="17.955478359958">
        <ele>8.6</ele>
        <time>2018-12-15T09:46:46Z</time>
        <extensions><gpxtpx:TrackPointExtension><gpxtpx:hr>121</gpxtpx:hr></gpxtpx:TrackPointExtension></extensions>
      </trkpt>
      <trkpt lat="59.515497889304" lon="17.955240649274">
        <ele>7.8</ele>
        <time>2018-12-15T09:46:50Z</time>
        <extensions><gpxtpx:TrackPointExtension><gpxtpx:hr>123</gpxtpx:hr></gpxtpx:TrackPointExtension></extensions>
      </trkpt>
      <trkpt lat="59.515729145925" lon="17.954974104854">
        <ele>7</ele>
        <time>2018-12-15T09:46:55Z</time>
        <extensions><gpxtpx:TrackPointExtension><gpxtpx:hr>121</gpxtpx:hr></gpxtpx:TrackPointExtension></extensions>
      </trkpt>
      <trkpt lat="59.515862669592" lon="17.95481015489">
        <ele>6.8</ele>
        <time>2018-12-15T09:46:58Z</time>
        <extensions><gpxtpx:TrackPointExtension><gpxtpx:hr>118</gpxtpx:hr></gpxtpx:TrackPointExtension></extensions>
      </trkpt>
      <trkpt lat="59.515955205768" lon="17.954716696705">
        <ele>6.8</ele>
        <time>2018-12-15T09:47:00Z</time>
        <extensions><gpxtpx:TrackPointExtension><gpxtpx:hr>117</gpxtpx:hr></gpxtpx:TrackPointExtension></extensions>
      </trkpt>
      <trkpt lat="59.516168441304" lon="17.954623992891">
        <ele>6.6</ele>
        <time>2018-12-15T09:47:04Z</time>
        <extensions><gpxtpx:TrackPointExtension><gpxtpx:hr>118</gpxtpx:hr></gpxtpx:TrackPointExtension></extensions>
      </trkpt>
      <trkpt lat="59.516441607425" lon="17.954607899643">
        <ele>6.2</ele>
        <time>2018-12-15T09:47:09Z</time>
        <extensions><gpxtpx:TrackPointExtension><gpxtpx:hr>121</gpxtpx:hr></gpxtpx:TrackPointExtension></extensions>
      </trkpt>
      <trkpt lat="59.516659788282" lon="17.954582921581">
        <ele>6</ele>
        <time>2018-12-15T09:47:13Z</time>
        <extensions><gpxtpx:TrackPointExtension><gpxtpx:hr>124</gpxtpx:hr></gpxtpx:TrackPointExtension></extensions>
      </trkpt>
      <trkpt lat="59.516776045235" lon="17.954564062306">
        <ele>6</ele>
        <time>2018-12-15T09:47:15Z</time>
        <extensions><gpxtpx:TrackPointExtension><gpxtpx:hr>126</gpxtpx:hr></gpxtpx:TrackPointExtension></extensions>
      </trkpt>
      <trkpt lat="59.516958603017" lon="17.95453690495">
        <ele>5.8</ele>
        <time>2018-12-15T09:47:18Z</time>
        <extensions><gpxtpx:TrackPointExtension><gpxtpx:hr>129</gpxtpx:hr></gpxtpx:TrackPointExtension></extensions>
      </trkpt>
      <trkpt lat="59.517147195767" lon="17.954497845296">
        <ele>5.8</ele>
        <time>2018-12-15T09:47:21Z</time>
        <extensions><gpxtpx:TrackPointExtension><gpxtpx:hr>131</gpxtpx:hr></gpxtpx:TrackPointExtension></extensions>
      </trkpt>
      <trkpt lat="59.517361688588" lon="17.954230546505">
        <ele>5.8</ele>
        <time>2018-12-15T09:47:25Z</time>
        <extensions><gpxtpx:TrackPointExtension><gpxtpx:hr>132</gpxtpx:hr></gpxtpx:TrackPointExtension></extensions>
      </trkpt>
      <trkpt lat="59.517692103086" lon="17.953573908459">
        <ele>5.6</ele>
        <time>2018-12-15T09:47:32Z</time>
        <extensions><gpxtpx:TrackPointExtension><gpxtpx:hr>135</gpxtpx:hr></gpxtpx:TrackPointExtension></extensions>
      </trkpt>
      <trkpt lat="59.518034168425" lon="17.952737646296">
        <ele>5.4</ele>
        <time>2018-12-15T09:47:40Z</time>
        <extensions><gpxtpx:TrackPointExtension><gpxtpx:hr>138</gpxtpx:hr></gpxtpx:TrackPointExtension></extensions>
      </trkpt>
      <trkpt lat="59.518091500621" lon="17.952484345278">
        <ele>5.4</ele>
        <time>2018-12-15T09:47:42Z</time>
        <extensions><gpxtpx:TrackPointExtension><gpxtpx:hr>139</gpxtpx:hr></gpxtpx:TrackPointExtension></extensions>
      </trkpt>
      <trkpt lat="59.518191077593" lon="17.951387992758">
        <ele>5.2</ele>
        <time>2018-12-15T09:47:50Z</time>
        <extensions><gpxtpx:TrackPointExtension><gpxtpx:hr>142</gpxtpx:hr></gpxtpx:TrackPointExtension></extensions>
      </trkpt>
      <trkpt lat="59.51824832597" lon="17.950565057816">
        <ele>5</ele>
        <time>2018-12-15T09:47:56Z</time>
        <extensions><gpxtpx:TrackPointExtension><gpxtpx:hr>145</gpxtpx:hr></gpxtpx:TrackPointExtension></extensions>
      </trkpt>
      <trkpt lat="59.518314459161" lon="17.949730220576">
        <ele>4.8</ele>
        <time>2018-12-15T09:48:02Z</time>
        <extensions><gpxtpx:TrackPointExtension><gpxtpx:hr>148</gpxtpx:hr></gpxtpx:TrackPointExtension></extensions>
      </trkpt>
      <trkpt lat="59.518429123553" lon="17.948945507098">
        <ele>4.8</ele>
        <time>2018-12-15T09:48:08Z</time>
        <extensions><gpxtpx:TrackPointExtension><gpxtpx:hr>150</gpxtpx:hr></gpxtpx:TrackPointExtension></extensions>
      </trkpt>
      <trkpt lat="59.518652920283" lon="17.948460614183">
        <ele>5</ele>
        <time>2018-12-15T09:48:13Z</time>
        <extensions><gpxtpx:TrackPointExtension><gpxtpx:hr>152</gpxtpx:hr></gpxtpx:TrackPointExtension></extensions>
      </trkpt>
      <trkpt lat="59.518867245466" lon="17.948151070616">
        <ele>6</ele>
        <time>2018-12-15T09:48:17Z</time>
        <extensions><gpxtpx:TrackPointExtension><gpxtpx:hr>153</gpxtpx:hr></gpxtpx:TrackPointExtension></extensions>
      </trkpt>
      <trkpt lat="59.519380553022" lon="17.947536006794">
        <ele>7</ele>
        <time>2018-12-15T09:48:26Z</time>
        <extensions><gpxtpx:TrackPointExtension><gpxtpx:hr>155</gpxtpx:hr></gpxtpx:TrackPointExtension></extensions>
      </trkpt>
      <trkpt lat="59.519494546862" lon="17.94740306986">
        <ele>7</ele>
        <time>2018-12-15T09:48:28Z</time>
        <extensions><gpxtpx:TrackPointExtension><gpxtpx:hr>156</gpxtpx:hr></gpxtpx:TrackPointExtension></extensions>
      </trkpt>
      <trkpt lat="59.51984843068" lon="17.946978526625">
        <ele>7.2</ele>
        <time>2018-12-15T09:48:34Z</time>
        <extensions><gpxtpx:TrackPointExtension><gpxtpx:hr>159</gpxtpx:hr></gpxtpx:TrackPointExtension></extensions>
      </trkpt>
      <trkpt lat="59.520320750745" lon="17.946317697629">
        <ele>6.4</ele>
        <time>2018-12-15T09:48:42Z</time>
        <extensions><gpxtpx:TrackPointExtension><gpxtpx:hr>160</gpxtpx:hr></gpxtpx:TrackPointExtension></extensions>
      </trkpt>
      <trkpt lat="59.520735487157" lon="17.94583062542">
        <ele>6.4</ele>
        <time>2018-12-15T09:48:49Z</time>
        <extensions><gpxtpx:TrackPointExtension><gpxtpx:hr>157</gpxtpx:hr></gpxtpx:TrackPointExtension></extensions>
      </trkpt>
      <trkpt lat="59.521271928757" lon="17.945326202678">
        <ele>6.8</ele>
        <time>2018-12-15T09:48:58Z</time>
        <extensions><gpxtpx:TrackPointExtension><gpxtpx:hr>155</gpxtpx:hr></gpxtpx:TrackPointExtension></extensions>
      </trkpt>
      <trkpt lat="59.521786912693" lon="17.944988747384">
        <ele>6.8</ele>
        <time>2018-12-15T09:49:06Z</time>
        <extensions><gpxtpx:TrackPointExtension><gpxtpx:hr>154</gpxtpx:hr></gpxtpx:TrackPointExtension></extensions>
      </trkpt>
      <trkpt lat="59.522429301509" lon="17.944769225423">
        <ele>8</ele>
        <time>2018-12-15T09:49:17Z</time>
        <extensions><gpxtpx:TrackPointExtension><gpxtpx:hr>155</gpxtpx:hr></gpxtpx:TrackPointExtension></extensions>
      </trkpt>
      <trkpt lat="59.522678243939" lon="17.944694207418">
        <ele>9.2</ele>
        <time>2018-12-15T09:49:21Z</time>
        <extensions><gpxtpx:TrackPointExtension><gpxtpx:hr>155</gpxtpx:hr></gpxtpx:TrackPointExtension></extensions>
      </trkpt>
      <trkpt lat="59.523256846496" lon="17.944626314028">
        <ele>9.6</ele>
        <time>2018-12-15T09:49:30Z</time>
        <extensions><gpxtpx:TrackPointExtension><gpxtpx:hr>154</gpxtpx:hr></gpxtpx:TrackPointExtension></extensions>
      </trkpt>
      <trkpt lat="59.523813572294" lon="17.94458172232">
        <ele>9.8</ele>
        <time>2018-12-15T09:49:38Z</time>
        <extensions><gpxtpx:TrackPointExtension><gpxtpx:hr>154</gpxtpx:hr></gpxtpx:TrackPointExtension></extensions>
      </trkpt>
      <trkpt lat="59.524348505152" lon="17.944126333693">
        <ele>9.8</ele>
        <time>2018-12-15T09:49:46Z</time>
        <extensions><gpxtpx:TrackPointExtension><gpxtpx:hr>153</gpxtpx:hr></gpxtpx:TrackPointExtension></extensions>
      </trkpt>
      <trkpt lat="59.524853011713" lon="17.943501798324">
        <ele>9.6</ele>
        <time>2018-12-15T09:49:54Z</time>
        <extensions><gpxtpx:TrackPointExtension><gpxtpx:hr>151</gpxtpx:hr></gpxtpx:TrackPointExtension></extensions>
      </trkpt>
      <trkpt lat="59.525379478852" lon="17.942914310953">
        <ele>9.2</ele>
        <time>2018-12-15T09:50:02Z</time>
        <extensions><gpxtpx:TrackPointExtension><gpxtpx:hr>152</gpxtpx:hr></gpxtpx:TrackPointExtension></extensions>
      </trkpt>
      <trkpt lat="59.525847943243" lon="17.942381976484">
        <ele>8.8</ele>
        <time>2018-12-15T09:50:09Z</time>
        <extensions><gpxtpx:TrackPointExtension><gpxtpx:hr>152</gpxtpx:hr></gpxtpx:TrackPointExtension></extensions>
      </trkpt>
      <trkpt lat="59.526272235021" lon="17.94201099359">
        <ele>8</ele>
        <time>2018-12-15T09:50:15Z</time>
        <extensions><gpxtpx:TrackPointExtension><gpxtpx:hr>149</gpxtpx:hr></gpxtpx:TrackPointExtension></extensions>
      </trkpt>
      <trkpt lat="59.5264181639" lon="17.941918876509">
        <ele>7.8</ele>
        <time>2018-12-15T09:50:17Z</time>
        <extensions><gpxtpx:TrackPointExtension><gpxtpx:hr>147</gpxtpx:hr></gpxtpx:TrackPointExtension></extensions>
      </trkpt>
      <trkpt lat="59.527011183325" lon="17.941661803636">
        <ele>7.2</ele>
        <time>2018-12-15T09:50:25Z</time>
        <extensions><gpxtpx:TrackPointExtension><gpxtpx:hr>146</gpxtpx:hr></gpxtpx:TrackPointExtension></extensions>
      </trkpt>
      <trkpt lat="59.52759246809" lon="17.941446807901">
        <ele>7</ele>
        <time>2018-12-15T09:50:33Z</time>
        <extensions><gpxtpx:TrackPointExtension><gpxtpx:hr>146</gpxtpx:hr></gpxtpx:TrackPointExtension></extensions>
      </trkpt>
      <trkpt lat="59.528024471216" lon="17.941277828797">
        <ele>6.8</ele>
        <time>2018-12-15T09:50:39Z</time>
        <extensions><gpxtpx:TrackPointExtension><gpxtpx:hr>144</gpxtpx:hr></gpxtpx:TrackPointExtension></extensions>
      </trkpt>
      <trkpt lat="59.528460246197" lon="17.94110910115">
        <ele>6.8</ele>
        <time>2018-12-15T09:50:46Z</time>
        <extensions><gpxtpx:TrackPointExtension><gpxtpx:hr>141</gpxtpx:hr></gpxtpx:TrackPointExtension></extensions>
      </trkpt>
      <trkpt lat="59.528633248613" lon="17.941020755924">
        <ele>7</ele>
        <time>2018-12-15T09:50:49Z</time>
        <extensions><gpxtpx:TrackPointExtension><gpxtpx:hr>138</gpxtpx:hr></gpxtpx:TrackPointExtension></extensions>
      </trkpt>
      <trkpt lat="59.529183017434" lon="17.940679025861">
        <ele>6.8</ele>
        <time>2018-12-15T09:50:57Z</time>
        <extensions><gpxtpx:TrackPointExtension><gpxtpx:hr>137</gpxtpx:hr></gpxtpx:TrackPointExtension></extensions>
      </trkpt>
      <trkpt lat="59.529393989857" lon="17.940534773362">
        <ele>6</ele>
        <time>2018-12-15T09:51:00Z</time>
        <extensions><gpxtpx:TrackPointExtension><gpxtpx:hr>134</gpxtpx:hr></gpxtpx:TrackPointExtension></extensions>
      </trkpt>
      <trkpt lat="59.529464230179" lon="17.940485823066">
        <ele>5.6</ele>
        <time>2018-12-15T09:51:01Z</time>
        <extensions><gpxtpx:TrackPointExtension><gpxtpx:hr>134</gpxtpx:hr></gpxtpx:TrackPointExtension></extensions>
      </trkpt>
      <trkpt lat="59.529673777679" lon="17.940340061825">
        <ele>4.4</ele>
        <time>2018-12-15T09:51:04Z</time>
        <extensions><gpxtpx:TrackPointExtension><gpxtpx:hr>133</gpxtpx:hr></gpxtpx:TrackPointExtension></extensions>
      </trkpt>
      <trkpt lat="59.5299469438" lon="17.940142584261">
        <ele>4</ele>
        <time>2018-12-15T09:51:08Z</time>
        <extensions><gpxtpx:TrackPointExtension><gpxtpx:hr>136</gpxtpx:hr></gpxtpx:TrackPointExtension></extensions>
      </trkpt>
      <trkpt lat="59.530424544462" lon="17.939833962703">
        <ele>3.6</ele>
        <time>2018-12-15T09:51:15Z</time>
        <extensions><gpxtpx:TrackPointExtension><gpxtpx:hr>139</gpxtpx:hr></gpxtpx:TrackPointExtension></extensions>
      </trkpt>
      <trkpt lat="59.530947575022" lon="17.939461722524">
        <ele>3.6</ele>
        <time>2018-12-15T09:51:23Z</time>
        <extensions><gpxtpx:TrackPointExtension><gpxtpx:hr>141</gpxtpx:hr></gpxtpx:TrackPointExtension></extensions>
      </trkpt>
      <trkpt lat="59.531476808188" lon="17.939069701061">
        <ele>3.4</ele>
        <time>2018-12-15T09:51:31Z</time>
        <extensions><gpxtpx:TrackPointExtension><gpxtpx:hr>143</gpxtpx:hr></gpxtpx:TrackPointExtension></extensions>
      </trkpt>
      <trkpt lat="59.531678309064" lon="17.938922514897">
        <ele>3.2</ele>
        <time>2018-12-15T09:51:34Z</time>
        <extensions><gpxtpx:TrackPointExtension><gpxtpx:hr>143</gpxtpx:hr></gpxtpx:TrackPointExtension></extensions>
      </trkpt>
      <trkpt lat="59.532182647987" lon="17.938415829042">
        <ele>2.8</ele>
        <time>2018-12-15T09:51:42Z</time>
        <extensions><gpxtpx:TrackPointExtension><gpxtpx:hr>145</gpxtpx:hr></gpxtpx:TrackPointExtension></extensions>
      </trkpt>
      <trkpt lat="59.532658069355" lon="17.937849547878">
        <ele>3</ele>
        <time>2018-12-15T09:51:50Z</time>
        <extensions><gpxtpx:TrackPointExtension><gpxtpx:hr>147</gpxtpx:hr></gpxtpx:TrackPointExtension></extensions>
      </trkpt>
      <trkpt lat="59.53313374218" lon="17.937294582279">
        <ele>2.8</ele>
        <time>2018-12-15T09:51:58Z</time>
        <extensions><gpxtpx:TrackPointExtension><gpxtpx:hr>149</gpxtpx:hr></gpxtpx:TrackPointExtension></extensions>
      </trkpt>
      <trkpt lat="59.533352006856" lon="17.936981937409">
        <ele>2.6</ele>
        <time>2018-12-15T09:52:02Z</time>
        <extensions><gpxtpx:TrackPointExtension><gpxtpx:hr>149</gpxtpx:hr></gpxtpx:TrackPointExtension></extensions>
      </trkpt>
      <trkpt lat="59.533529954593" lon="17.936583964797">
        <ele>2.6</ele>
        <time>2018-12-15T09:52:06Z</time>
        <extensions><gpxtpx:TrackPointExtension><gpxtpx:hr>148</gpxtpx:hr></gpxtpx:TrackPointExtension></extensions>
      </trkpt>
      <trkpt lat="59.533771856227" lon="17.936411381476">
        <ele>2.6</ele>
        <time>2018-12-15T09:52:10Z</time>
        <extensions><gpxtpx:TrackPointExtension><gpxtpx:hr>149</gpxtpx:hr></gpxtpx:TrackPointExtension></extensions>
      </trkpt>
      <trkpt lat="59.533842264187" lon="17.936389923812">
        <ele>2.6</ele>
        <time>2018-12-15T09:52:11Z</time>
        <extensions><gpxtpx:TrackPointExtension><gpxtpx:hr>149</gpxtpx:hr></gpxtpx:TrackPointExtension></extensions>
      </trkpt>
      <trkpt lat="59.534329923129" lon="17.935856499696">
        <ele>2.4</ele>
        <time>2018-12-15T09:52:19Z</time>
        <extensions><gpxtpx:TrackPointExtension><gpxtpx:hr>151</gpxtpx:hr></gpxtpx:TrackPointExtension></extensions>
      </trkpt>
      <trkpt lat="59.534831579844" lon="17.935374708084">
        <ele>2.4</ele>
        <time>2018-12-15T09:52:28Z</time>
        <extensions><gpxtpx:TrackPointExtension><gpxtpx:hr>149</gpxtpx:hr></gpxtpx:TrackPointExtension></extensions>
      </trkpt>
      <trkpt lat="59.5349928476" lon="17.935279070605">
        <ele>2.4</ele>
        <time>2018-12-15T09:52:31Z</time>
        <extensions><gpxtpx:TrackPointExtension><gpxtpx:hr>149</gpxtpx:hr></gpxtpx:TrackPointExtension></extensions>
      </trkpt>
      <trkpt lat="59.535249752835" lon="17.934917475439">
        <ele>2.4</ele>
        <time>2018-12-15T09:52:37Z</time>
        <extensions><gpxtpx:TrackPointExtension><gpxtpx:hr>145</gpxtpx:hr></gpxtpx:TrackPointExtension></extensions>
      </trkpt>
      <trkpt lat="59.535319154967" lon="17.934781018107">
        <ele>2.4</ele>
        <time>2018-12-15T09:52:39Z</time>
        <extensions><gpxtpx:TrackPointExtension><gpxtpx:hr>142</gpxtpx:hr></gpxtpx:TrackPointExtension></extensions>
      </trkpt>
      <trkpt lat="59.535340109717" lon="17.934685548266">
        <ele>2.4</ele>
        <time>2018-12-15T09:52:40Z</time>
        <extensions><gpxtpx:TrackPointExtension><gpxtpx:hr>139</gpxtpx:hr></gpxtpx:TrackPointExtension></extensions>
      </trkpt>
      <trkpt lat="59.53535746025" lon="17.934581947982">
        <ele>2.4</ele>
        <time>2018-12-15T09:52:41Z</time>
        <extensions><gpxtpx:TrackPointExtension><gpxtpx:hr>137</gpxtpx:hr></gpxtpx:TrackPointExtension></extensions>
      </trkpt>
      <trkpt lat="59.535391155488" lon="17.934362258383">
        <ele>2.2</ele>
        <time>2018-12-15T09:52:43Z</time>
        <extensions><gpxtpx:TrackPointExtension><gpxtpx:hr>134</gpxtpx:hr></gpxtpx:TrackPointExtension></extensions>
      </trkpt>
      <trkpt lat="59.535411020591" lon="17.934250360018">
        <ele>2</ele>
        <time>2018-12-15T09:52:44Z</time>
        <extensions><gpxtpx:TrackPointExtension><gpxtpx:hr>134</gpxtpx:hr></gpxtpx:TrackPointExtension></extensions>
      </trkpt>
      <trkpt lat="59.535529121562" lon="17.933823888946">
        <ele>1.8</ele>
        <time>2018-12-15T09:52:48Z</time>
        <extensions><gpxtpx:TrackPointExtension><gpxtpx:hr>136</gpxtpx:hr></gpxtpx:TrackPointExtension></extensions>
      </trkpt>
      <trkpt lat="59.535719642149" lon="17.933522140546">
        <ele>1.8</ele>
        <time>2018-12-15T09:52:52Z</time>
        <extensions><gpxtpx:TrackPointExtension><gpxtpx:hr>139</gpxtpx:hr></gpxtpx:TrackPointExtension></extensions>
      </trkpt>
      <trkpt lat="59.536066652809" lon="17.933177560637">
        <ele>1.4</ele>
        <time>2018-12-15T09:52:58Z</time>
        <extensions><gpxtpx:TrackPointExtension><gpxtpx:hr>142</gpxtpx:hr></gpxtpx:TrackPointExtension></extensions>
      </trkpt>
      <trkpt lat="59.536248372401" lon="17.933006150782">
        <ele>1.2</ele>
        <time>2018-12-15T09:53:01Z</time>
        <extensions><gpxtpx:TrackPointExtension><gpxtpx:hr>142</gpxtpx:hr></gpxtpx:TrackPointExtension></extensions>
      </trkpt>
      <trkpt lat="59.536345350984" lon="17.932835579117">
        <ele>0.8</ele>
        <time>2018-12-15T09:53:03Z</time>
        <extensions><gpxtpx:TrackPointExtension><gpxtpx:hr>141</gpxtpx:hr></gpxtpx:TrackPointExtension></extensions>
      </trkpt>
      <trkpt lat="59.536355912178" lon="17.932237195276">
        <ele>0</ele>
        <time>2018-12-15T09:53:08Z</time>
        <extensions><gpxtpx:TrackPointExtension><gpxtpx:hr>142</gpxtpx:hr></gpxtpx:TrackPointExtension></extensions>
      </trkpt>
      <trkpt lat="59.536306039873" lon="17.931865960925">
        <ele>0</ele>
        <time>2018-12-15T09:53:11Z</time>
        <extensions><gpxtpx:TrackPointExtension><gpxtpx:hr>142</gpxtpx:hr></gpxtpx:TrackPointExtension></extensions>
      </trkpt>
      <trkpt lat="59.536299837267" lon="17.931740316244">
        <ele>0</ele>
        <time>2018-12-15T09:53:12Z</time>
        <extensions><gpxtpx:TrackPointExtension><gpxtpx:hr>142</gpxtpx:hr></gpxtpx:TrackPointExtension></extensions>
      </trkpt>
      <trkpt lat="59.536367395381" lon="17.931266403618">
        <ele>0</ele>
        <time>2018-12-15T09:53:16Z</time>
        <extensions><gpxtpx:TrackPointExtension><gpxtpx:hr>143</gpxtpx:hr></gpxtpx:TrackPointExtension></extensions>
      </trkpt>
      <trkpt lat="59.536578116347" lon="17.930544973485">
        <ele>0</ele>
        <time>2018-12-15T09:53:23Z</time>
        <extensions><gpxtpx:TrackPointExtension><gpxtpx:hr>146</gpxtpx:hr></gpxtpx:TrackPointExtension></extensions>
      </trkpt>
      <trkpt lat="59.536693870386" lon="17.930170470193">
        <ele>0</ele>
        <time>2018-12-15T09:53:27Z</time>
        <extensions><gpxtpx:TrackPointExtension><gpxtpx:hr>149</gpxtpx:hr></gpxtpx:TrackPointExtension></extensions>
      </trkpt>
      <trkpt lat="59.536801745439" lon="17.929733521746">
        <ele>0.8</ele>
        <time>2018-12-15T09:53:32Z</time>
        <extensions><gpxtpx:TrackPointExtension><gpxtpx:hr>151</gpxtpx:hr></gpxtpx:TrackPointExtension></extensions>
      </trkpt>
      <trkpt lat="59.53683183646" lon="17.929484579316">
        <ele>1.4</ele>
        <time>2018-12-15T09:53:35Z</time>
        <extensions><gpxtpx:TrackPointExtension><gpxtpx:hr>152</gpxtpx:hr></gpxtpx:TrackPointExtension></extensions>
      </trkpt>
      <trkpt lat="59.536828986614" lon="17.929260531129">
        <ele>2.2</ele>
        <time>2018-12-15T09:53:38Z</time>
        <extensions><gpxtpx:TrackPointExtension><gpxtpx:hr>153</gpxtpx:hr></gpxtpx:TrackPointExtension></extensions>
      </trkpt>
      <trkpt lat="59.536818509239" lon="17.92918752478">
        <ele>3.4</ele>
        <time>2018-12-15T09:53:39Z</time>
        <extensions><gpxtpx:TrackPointExtension><gpxtpx:hr>154</gpxtpx:hr></gpxtpx:TrackPointExtension></extensions>
      </trkpt>
      <trkpt lat="59.536763523975" lon="17.928994573442">
        <ele>4.6</ele>
        <time>2018-12-15T09:53:42Z</time>
        <extensions><gpxtpx:TrackPointExtension><gpxtpx:hr>156</gpxtpx:hr></gpxtpx:TrackPointExtension></extensions>
      </trkpt>
      <trkpt lat="59.536722704122" lon="17.92887487991">
        <ele>6</ele>
        <time>2018-12-15T09:53:44Z</time>
        <extensions><gpxtpx:TrackPointExtension><gpxtpx:hr>158</gpxtpx:hr></gpxtpx:TrackPointExtension></extensions>
      </trkpt>
      <trkpt lat="59.536708287254" lon="17.928728531936">
        <ele>7</ele>
        <time>2018-12-15T09:53:46Z</time>
        <extensions><gpxtpx:TrackPointExtension><gpxtpx:hr>159</gpxtpx:hr></gpxtpx:TrackPointExtension></extensions>
      </trkpt>
      <trkpt lat="59.536716501516" lon="17.928653262474">
        <ele>7.6</ele>
        <time>2018-12-15T09:53:47Z</time>
        <extensions><gpxtpx:TrackPointExtension><gpxtpx:hr>159</gpxtpx:hr></gpxtpx:TrackPointExtension></extensions>
      </trkpt>
      <trkpt lat="59.536732343307" lon="17.928580004668">
        <ele>8.2</ele>
        <time>2018-12-15T09:53:48Z</time>
        <extensions><gpxtpx:TrackPointExtension><gpxtpx:hr>160</gpxtpx:hr></gpxtpx:TrackPointExtension></extensions>
      </trkpt>
      <trkpt lat="59.536778611395" lon="17.928432650866">
        <ele>9.4</ele>
        <time>2018-12-15T09:53:50Z</time>
        <extensions><gpxtpx:TrackPointExtension><gpxtpx:hr>161</gpxtpx:hr></gpxtpx:TrackPointExtension></extensions>
      </trkpt>
      <trkpt lat="59.536976759511" lon="17.927931413246">
        <ele>10</ele>
        <time>2018-12-15T09:53:56Z</time>
        <extensions><gpxtpx:TrackPointExtension><gpxtpx:hr>162</gpxtpx:hr></gpxtpx:TrackPointExtension></extensions>
      </trkpt>
      <trkpt lat="59.537226456312" lon="17.927617511091">
        <ele>9.8</ele>
        <time>2018-12-15T09:54:01Z</time>
        <extensions><gpxtpx:TrackPointExtension><gpxtpx:hr>161</gpxtpx:hr></gpxtpx:TrackPointExtension></extensions>
      </trkpt>
      <trkpt lat="59.537291248399" lon="17.927143095551">
        <ele>8.8</ele>
        <time>2018-12-15T09:54:06Z</time>
        <extensions><gpxtpx:TrackPointExtension><gpxtpx:hr>158</gpxtpx:hr></gpxtpx:TrackPointExtension></extensions>
      </trkpt>
      <trkpt lat="59.537206004476" lon="17.927024491666">
        <ele>8</ele>
        <time>2018-12-15T09:54:08Z</time>
        <extensions><gpxtpx:TrackPointExtension><gpxtpx:hr>157</gpxtpx:hr></gpxtpx:TrackPointExtension></extensions>
      </trkpt>
      <trkpt lat="59.537161496587" lon="17.926783679679">
        <ele>6.8</ele>
        <time>2018-12-15T09:54:11Z</time>
        <extensions><gpxtpx:TrackPointExtension><gpxtpx:hr>156</gpxtpx:hr></gpxtpx:TrackPointExtension></extensions>
      </trkpt>
      <trkpt lat="59.5372894882" lon="17.926624842674">
        <ele>6.4</ele>
        <time>2018-12-15T09:54:14Z</time>
        <extensions><gpxtpx:TrackPointExtension><gpxtpx:hr>153</gpxtpx:hr></gpxtpx:TrackPointExtension></extensions>
      </trkpt>
      <trkpt lat="59.537351430441" lon="17.926602295363">
        <ele>6.2</ele>
        <time>2018-12-15T09:54:15Z</time>
        <extensions><gpxtpx:TrackPointExtension><gpxtpx:hr>152</gpxtpx:hr></gpxtpx:TrackPointExtension></extensions>
      </trkpt>
      <trkpt lat="59.537538682087" lon="17.926485703134">
        <ele>6</ele>
        <time>2018-12-15T09:54:18Z</time>
        <extensions><gpxtpx:TrackPointExtension><gpxtpx:hr>149</gpxtpx:hr></gpxtpx:TrackPointExtension></extensions>
      </trkpt>
      <trkpt lat="59.537597523025" lon="17.926432729526">
        <ele>5.8</ele>
        <time>2018-12-15T09:54:19Z</time>
        <extensions><gpxtpx:TrackPointExtension><gpxtpx:hr>148</gpxtpx:hr></gpxtpx:TrackPointExtension></extensions>
      </trkpt>
      <trkpt lat="59.537720988412" lon="17.926160066319">
        <ele>4.2</ele>
        <time>2018-12-15T09:54:22Z</time>
        <extensions><gpxtpx:TrackPointExtension><gpxtpx:hr>147</gpxtpx:hr></gpxtpx:TrackPointExtension></extensions>
      </trkpt>
      <trkpt lat="59.537737752212" lon="17.925928725879">
        <ele>3</ele>
        <time>2018-12-15T09:54:24Z</time>
        <extensions><gpxtpx:TrackPointExtension><gpxtpx:hr>147</gpxtpx:hr></gpxtpx:TrackPointExtension></extensions>
      </trkpt>
      <trkpt lat="59.537744876827" lon="17.925811882193">
        <ele>2.8</ele>
        <time>2018-12-15T09:54:25Z</time>
        <extensions><gpxtpx:TrackPointExtension><gpxtpx:hr>146</gpxtpx:hr></gpxtpx:TrackPointExtension></extensions>
      </trkpt>
      <trkpt lat="59.537746804664" lon="17.925601245046">
        <ele>2.8</ele>
        <time>2018-12-15T09:54:27Z</time>
        <extensions><gpxtpx:TrackPointExtension><gpxtpx:hr>146</gpxtpx:hr></gpxtpx:TrackPointExtension></extensions>
      </trkpt>
      <trkpt lat="59.53764823352" lon="17.925189777575">
        <ele>2.6</ele>
        <time>2018-12-15T09:54:32Z</time>
        <extensions><gpxtpx:TrackPointExtension><gpxtpx:hr>147</gpxtpx:hr></gpxtpx:TrackPointExtension></extensions>
      </trkpt>
      <trkpt lat="59.537621746716" lon="17.924825248744">
        <ele>4.8</ele>
        <time>2018-12-15T09:54:36Z</time>
        <extensions><gpxtpx:TrackPointExtension><gpxtpx:hr>150</gpxtpx:hr></gpxtpx:TrackPointExtension></extensions>
      </trkpt>
      <trkpt lat="59.537631553539" lon="17.924738076984">
        <ele>5.2</ele>
        <time>2018-12-15T09:54:37Z</time>
        <extensions><gpxtpx:TrackPointExtension><gpxtpx:hr>150</gpxtpx:hr></gpxtpx:TrackPointExtension></extensions>
      </trkpt>
      <trkpt lat="59.53765745361" lon="17.924556189754">
        <ele>6.2</ele>
        <time>2018-12-15T09:54:39Z</time>
        <extensions><gpxtpx:TrackPointExtension><gpxtpx:hr>152</gpxtpx:hr></gpxtpx:TrackPointExtension></extensions>
      </trkpt>
      <trkpt lat="59.537712690331" lon="17.924115804728">
        <ele>7</ele>
        <time>2018-12-15T09:54:43Z</time>
        <extensions><gpxtpx:TrackPointExtension><gpxtpx:hr>154</gpxtpx:hr></gpxtpx:TrackPointExtension></extensions>
      </trkpt>
      <trkpt lat="59.537624261286" lon="17.923055829654">
        <ele>6.6</ele>
        <time>2018-12-15T09:54:53Z</time>
        <extensions><gpxtpx:TrackPointExtension><gpxtpx:hr>153</gpxtpx:hr></gpxtpx:TrackPointExtension></extensions>
      </trkpt>
      <trkpt lat="59.537710511037" lon="17.922767995208">
        <ele>6.6</ele>
        <time>2018-12-15T09:54:57Z</time>
        <extensions><gpxtpx:TrackPointExtension><gpxtpx:hr>150</gpxtpx:hr></gpxtpx:TrackPointExtension></extensions>
      </trkpt>
      <trkpt lat="59.537817966995" lon="17.922722649129">
        <ele>6.4</ele>
        <time>2018-12-15T09:54:59Z</time>
        <extensions><gpxtpx:TrackPointExtension><gpxtpx:hr>149</gpxtpx:hr></gpxtpx:TrackPointExtension></extensions>
      </trkpt>
      <trkpt lat="59.537982587511" lon="17.922645032735">
        <ele>6.2</ele>
        <time>2018-12-15T09:55:02Z</time>
        <extensions><gpxtpx:TrackPointExtension><gpxtpx:hr>145</gpxtpx:hr></gpxtpx:TrackPointExtension></extensions>
      </trkpt>
      <trkpt lat="59.53807068128" lon="17.92258342577">
        <ele>6.2</ele>
        <time>2018-12-15T09:55:04Z</time>
        <extensions><gpxtpx:TrackPointExtension><gpxtpx:hr>142</gpxtpx:hr></gpxtpx:TrackPointExtension></extensions>
      </trkpt>
      <trkpt lat="59.538125415087" lon="17.922500864055">
        <ele>6.2</ele>
        <time>2018-12-15T09:55:06Z</time>
        <extensions><gpxtpx:TrackPointExtension><gpxtpx:hr>137</gpxtpx:hr></gpxtpx:TrackPointExtension></extensions>
      </trkpt>
      <trkpt lat="59.538165229112" lon="17.922455015062">
        <ele>5.6</ele>
        <time>2018-12-15T09:55:08Z</time>
        <extensions><gpxtpx:TrackPointExtension><gpxtpx:hr>132</gpxtpx:hr></gpxtpx:TrackPointExtension></extensions>
      </trkpt>
      <trkpt lat="59.53819808616" lon="17.922449063913">
        <ele>5</ele>
        <time>2018-12-15T09:55:09Z</time>
        <extensions><gpxtpx:TrackPointExtension><gpxtpx:hr>131</gpxtpx:hr></gpxtpx:TrackPointExtension></extensions>
      </trkpt>
      <trkpt lat="59.538339069718" lon="17.922347978199">
        <ele>4.2</ele>
        <time>2018-12-15T09:55:12Z</time>
        <extensions><gpxtpx:TrackPointExtension><gpxtpx:hr>131</gpxtpx:hr></gpxtpx:TrackPointExtension></extensions>
      </trkpt>
      <trkpt lat="59.53839422262" lon="17.922293328211">
        <ele>4</ele>
        <time>2018-12-15T09:55:13Z</time>
        <extensions><gpxtpx:TrackPointExtension><gpxtpx:hr>131</gpxtpx:hr></gpxtpx:TrackPointExtension></extensions>
      </trkpt>
      <trkpt lat="59.538643835602" lon="17.92202602942">
        <ele>3.2</ele>
        <time>2018-12-15T09:55:18Z</time>
        <extensions><gpxtpx:TrackPointExtension><gpxtpx:hr>131</gpxtpx:hr></gpxtpx:TrackPointExtension></extensions>
      </trkpt>
      <trkpt lat="59.538689097862" lon="17.921963835722">
        <ele>2.8</ele>
        <time>2018-12-15T09:55:19Z</time>
        <extensions><gpxtpx:TrackPointExtension><gpxtpx:hr>132</gpxtpx:hr></gpxtpx:TrackPointExtension></extensions>
      </trkpt>
      <trkpt lat="59.538806025367" lon="17.921747666521">
        <ele>1.6</ele>
        <time>2018-12-15T09:55:22Z</time>
        <extensions><gpxtpx:TrackPointExtension><gpxtpx:hr>130</gpxtpx:hr></gpxtpx:TrackPointExtension></extensions>
      </trkpt>
      <trkpt lat="59.538935441903" lon="17.921540214496">
        <ele>1.2</ele>
        <time>2018-12-15T09:55:25Z</time>
        <extensions><gpxtpx:TrackPointExtension><gpxtpx:hr>127</gpxtpx:hr></gpxtpx:TrackPointExtension></extensions>
      </trkpt>
      <trkpt lat="59.539017752161" lon="17.921402667517">
        <ele>1.2</ele>
        <time>2018-12-15T09:55:27Z</time>
        <extensions><gpxtpx:TrackPointExtension><gpxtpx:hr>126</gpxtpx:hr></gpxtpx:TrackPointExtension></extensions>
      </trkpt>
      <trkpt lat="59.539275411767" lon="17.920815096327">
        <ele>1</ele>
        <time>2018-12-15T09:55:34Z</time>
        <extensions><gpxtpx:TrackPointExtension><gpxtpx:hr>128</gpxtpx:hr></gpxtpx:TrackPointExtension></extensions>
      </trkpt>
      <trkpt lat="59.539386807218" lon="17.920697749727">
        <ele>1</ele>
        <time>2018-12-15T09:55:36Z</time>
        <extensions><gpxtpx:TrackPointExtension><gpxtpx:hr>129</gpxtpx:hr></gpxtpx:TrackPointExtension></extensions>
      </trkpt>
      <trkpt lat="59.539511865166" lon="17.920640752807">
        <ele>0.6</ele>
        <time>2018-12-15T09:55:38Z</time>
        <extensions><gpxtpx:TrackPointExtension><gpxtpx:hr>130</gpxtpx:hr></gpxtpx:TrackPointExtension></extensions>
      </trkpt>
      <trkpt lat="59.539773464265" lon="17.92090620758">
        <ele>0</ele>
        <time>2018-12-15T09:55:43Z</time>
        <extensions><gpxtpx:TrackPointExtension><gpxtpx:hr>132</gpxtpx:hr></gpxtpx:TrackPointExtension></extensions>
      </trkpt>
      <trkpt lat="59.539871616314" lon="17.921056495047">
        <ele>0</ele>
        <time>2018-12-15T09:55:45Z</time>
        <extensions><gpxtpx:TrackPointExtension><gpxtpx:hr>133</gpxtpx:hr></gpxtpx:TrackPointExtension></extensions>
      </trkpt>
      <trkpt lat="59.539978736996" lon="17.921189012886">
        <ele>0</ele>
        <time>2018-12-15T09:55:47Z</time>
        <extensions><gpxtpx:TrackPointExtension><gpxtpx:hr>135</gpxtpx:hr></gpxtpx:TrackPointExtension></extensions>
      </trkpt>
      <trkpt lat="59.540279982482" lon="17.921677510018">
        <ele>0</ele>
        <time>2018-12-15T09:55:53Z</time>
        <extensions><gpxtpx:TrackPointExtension><gpxtpx:hr>137</gpxtpx:hr></gpxtpx:TrackPointExtension></extensions>
      </trkpt>
      <trkpt lat="59.540499672081" lon="17.92190281549">
        <ele>0</ele>
        <time>2018-12-15T09:55:57Z</time>
        <extensions><gpxtpx:TrackPointExtension><gpxtpx:hr>139</gpxtpx:hr></gpxtpx:TrackPointExtension></extensions>
      </trkpt>
      <trkpt lat="59.540689270659" lon="17.922187967728">
        <ele>0</ele>
        <time>2018-12-15T09:56:01Z</time>
        <extensions><gpxtpx:TrackPointExtension><gpxtpx:hr>142</gpxtpx:hr></gpxtpx:TrackPointExtension></extensions>
      </trkpt>
      <trkpt lat="59.540791194563" lon="17.922328783648">
        <ele>0</ele>
        <time>2018-12-15T09:56:03Z</time>
        <extensions><gpxtpx:TrackPointExtension><gpxtpx:hr>144</gpxtpx:hr></gpxtpx:TrackPointExtension></extensions>
      </trkpt>
      <trkpt lat="59.541038041518" lon="17.922412937924">
        <ele>0</ele>
        <time>2018-12-15T09:56:07Z</time>
        <extensions><gpxtpx:TrackPointExtension><gpxtpx:hr>147</gpxtpx:hr></gpxtpx:TrackPointExtension></extensions>
      </trkpt>
      <trkpt lat="59.541220683119" lon="17.922508575403">
        <ele>0</ele>
        <time>2018-12-15T09:56:10Z</time>
        <extensions><gpxtpx:TrackPointExtension><gpxtpx:hr>150</gpxtpx:hr></gpxtpx:TrackPointExtension></extensions>
      </trkpt>
      <trkpt lat="59.541318416073" lon="17.922636734654">
        <ele>0</ele>
        <time>2018-12-15T09:56:12Z</time>
        <extensions><gpxtpx:TrackPointExtension><gpxtpx:hr>151</gpxtpx:hr></gpxtpx:TrackPointExtension></extensions>
      </trkpt>
      <trkpt lat="59.54147121811" lon="17.922827758155">
        <ele>0</ele>
        <time>2018-12-15T09:56:15Z</time>
        <extensions><gpxtpx:TrackPointExtension><gpxtpx:hr>153</gpxtpx:hr></gpxtpx:TrackPointExtension></extensions>
      </trkpt>
      <trkpt lat="59.541888385273" lon="17.922664814019">
        <ele>0</ele>
        <time>2018-12-15T09:56:22Z</time>
        <extensions><gpxtpx:TrackPointExtension><gpxtpx:hr>156</gpxtpx:hr></gpxtpx:TrackPointExtension></extensions>
      </trkpt>
      <trkpt lat="59.542072116521" lon="17.922169779005">
        <ele>0</ele>
        <time>2018-12-15T09:56:27Z</time>
        <extensions><gpxtpx:TrackPointExtension><gpxtpx:hr>157</gpxtpx:hr></gpxtpx:TrackPointExtension></extensions>
      </trkpt>
      <trkpt lat="59.542160629385" lon="17.921845734751">
        <ele>0</ele>
        <time>2018-12-15T09:56:30Z</time>
        <extensions><gpxtpx:TrackPointExtension><gpxtpx:hr>157</gpxtpx:hr></gpxtpx:TrackPointExtension></extensions>
      </trkpt>
      <trkpt lat="59.542355005646" lon="17.921532670786">
        <ele>0.2</ele>
        <time>2018-12-15T09:56:34Z</time>
        <extensions><gpxtpx:TrackPointExtension><gpxtpx:hr>158</gpxtpx:hr></gpxtpx:TrackPointExtension></extensions>
      </trkpt>
      <trkpt lat="59.542443267053" lon="17.9213487719">
        <ele>0.2</ele>
        <time>2018-12-15T09:56:36Z</time>
        <extensions><gpxtpx:TrackPointExtension><gpxtpx:hr>158</gpxtpx:hr></gpxtpx:TrackPointExtension></extensions>
      </trkpt>
      <trkpt lat="59.542683911402" lon="17.920337998579">
        <ele>0</ele>
        <time>2018-12-15T09:56:45Z</time>
        <extensions><gpxtpx:TrackPointExtension><gpxtpx:hr>160</gpxtpx:hr></gpxtpx:TrackPointExtension></extensions>
      </trkpt>
      <trkpt lat="59.542986749449" lon="17.919323034308">
        <ele>0</ele>
        <time>2018-12-15T09:56:54Z</time>
        <extensions><gpxtpx:TrackPointExtension><gpxtpx:hr>159</gpxtpx:hr></gpxtpx:TrackPointExtension></extensions>
      </trkpt>
      <trkpt lat="59.543406766458" lon="17.918516108795">
        <ele>0</ele>
        <time>2018-12-15T09:57:03Z</time>
        <extensions><gpxtpx:TrackPointExtension><gpxtpx:hr>158</gpxtpx:hr></gpxtpx:TrackPointExtension></extensions>
      </trkpt>
      <trkpt lat="59.543600472167" lon="17.918191645446">
        <ele>0</ele>
        <time>2018-12-15T09:57:07Z</time>
        <extensions><gpxtpx:TrackPointExtension><gpxtpx:hr>157</gpxtpx:hr></gpxtpx:TrackPointExtension></extensions>
      </trkpt>
      <trkpt lat="59.543876655772" lon="17.917922418818">
        <ele>0</ele>
        <time>2018-12-15T09:57:12Z</time>
        <extensions><gpxtpx:TrackPointExtension><gpxtpx:hr>156</gpxtpx:hr></gpxtpx:TrackPointExtension></extensions>
      </trkpt>
      <trkpt lat="59.544106738927" lon="17.917657969873">
        <ele>0</ele>
        <time>2018-12-15T09:57:17Z</time>
        <extensions><gpxtpx:TrackPointExtension><gpxtpx:hr>153</gpxtpx:hr></gpxtpx:TrackPointExtension></extensions>
      </trkpt>
      <trkpt lat="59.544148480789" lon="17.917342391338">
        <ele>0.2</ele>
        <time>2018-12-15T09:57:20Z</time>
        <extensions><gpxtpx:TrackPointExtension><gpxtpx:hr>152</gpxtpx:hr></gpxtpx:TrackPointExtension></extensions>
      </trkpt>
      <trkpt lat="59.544162730019" lon="17.917108955423">
        <ele>0.4</ele>
        <time>2018-12-15T09:57:22Z</time>
        <extensions><gpxtpx:TrackPointExtension><gpxtpx:hr>150</gpxtpx:hr></gpxtpx:TrackPointExtension></extensions>
      </trkpt>
      <trkpt lat="59.544160634544" lon="17.916429686247">
        <ele>0.6</ele>
        <time>2018-12-15T09:57:28Z</time>
        <extensions><gpxtpx:TrackPointExtension><gpxtpx:hr>150</gpxtpx:hr></gpxtpx:TrackPointExtension></extensions>
      </trkpt>
      <trkpt lat="59.544476883631" lon="17.91603800006">
        <ele>0.6</ele>
        <time>2018-12-15T09:57:36Z</time>
        <extensions><gpxtpx:TrackPointExtension><gpxtpx:hr>147</gpxtpx:hr></gpxtpx:TrackPointExtension></extensions>
      </trkpt>
      <trkpt lat="59.544769914855" lon="17.916023331735">
        <ele>0.4</ele>
        <time>2018-12-15T09:57:41Z</time>
        <extensions><gpxtpx:TrackPointExtension><gpxtpx:hr>144</gpxtpx:hr></gpxtpx:TrackPointExtension></extensions>
      </trkpt>
      <trkpt lat="59.545013492869" lon="17.916026935952">
        <ele>0</ele>
        <time>2018-12-15T09:57:45Z</time>
        <extensions><gpxtpx:TrackPointExtension><gpxtpx:hr>142</gpxtpx:hr></gpxtpx:TrackPointExtension></extensions>
      </trkpt>
      <trkpt lat="59.545233433925" lon="17.916206727707">
        <ele>0</ele>
        <time>2018-12-15T09:57:49Z</time>
        <extensions><gpxtpx:TrackPointExtension><gpxtpx:hr>141</gpxtpx:hr></gpxtpx:TrackPointExtension></extensions>
      </trkpt>
      <trkpt lat="59.545605590285" lon="17.916710312259">
        <ele>0</ele>
        <time>2018-12-15T09:57:57Z</time>
        <extensions><gpxtpx:TrackPointExtension><gpxtpx:hr>143</gpxtpx:hr></gpxtpx:TrackPointExtension></extensions>
      </trkpt>
      <trkpt lat="59.545793261026" lon="17.917314311973">
        <ele>0.6</ele>
        <time>2018-12-15T09:58:04Z</time>
        <extensions><gpxtpx:TrackPointExtension><gpxtpx:hr>145</gpxtpx:hr></gpxtpx:TrackPointExtension></extensions>
      </trkpt>
      <trkpt lat="59.54593374167" lon="17.9174763341">
        <ele>1.4</ele>
        <time>2018-12-15T09:58:08Z</time>
        <extensions><gpxtpx:TrackPointExtension><gpxtpx:hr>147</gpxtpx:hr></gpxtpx:TrackPointExtension></extensions>
      </trkpt>
      <trkpt lat="59.546008927313" lon="17.917505000198">
        <ele>1.6</ele>
        <time>2018-12-15T09:58:10Z</time>
        <extensions><gpxtpx:TrackPointExtension><gpxtpx:hr>148</gpxtpx:hr></gpxtpx:TrackPointExtension></extensions>
      </trkpt>
      <trkpt lat="59.546160807341" lon="17.917461414318">
        <ele>2.6</ele>
        <time>2018-12-15T09:58:14Z</time>
        <extensions><gpxtpx:TrackPointExtension><gpxtpx:hr>149</gpxtpx:hr></gpxtpx:TrackPointExtension></extensions>
      </trkpt>
      <trkpt lat="59.546225180333" lon="17.917332500696">
        <ele>3.8</ele>
        <time>2018-12-15T09:58:16Z</time>
        <extensions><gpxtpx:TrackPointExtension><gpxtpx:hr>150</gpxtpx:hr></gpxtpx:TrackPointExtension></extensions>
      </trkpt>
      <trkpt lat="59.546287793126" lon="17.917202162151">
        <ele>3.8</ele>
        <time>2018-12-15T09:58:18Z</time>
        <extensions><gpxtpx:TrackPointExtension><gpxtpx:hr>152</gpxtpx:hr></gpxtpx:TrackPointExtension></extensions>
      </trkpt>
      <trkpt lat="59.546453670927" lon="17.916988842796">
        <ele>4.8</ele>
        <time>2018-12-15T09:58:22Z</time>
        <extensions><gpxtpx:TrackPointExtension><gpxtpx:hr>154</gpxtpx:hr></gpxtpx:TrackPointExtension></extensions>
      </trkpt>
      <trkpt lat="59.546503794689" lon="17.916943664355">
        <ele>4.8</ele>
        <time>2018-12-15T09:58:23Z</time>
        <extensions><gpxtpx:TrackPointExtension><gpxtpx:hr>155</gpxtpx:hr></gpxtpx:TrackPointExtension></extensions>
      </trkpt>
      <trkpt lat="59.546713677465" lon="17.916806285014">
        <ele>4.8</ele>
        <time>2018-12-15T09:58:27Z</time>
        <extensions><gpxtpx:TrackPointExtension><gpxtpx:hr>157</gpxtpx:hr></gpxtpx:TrackPointExtension></extensions>
      </trkpt>
      <trkpt lat="59.546961446429" lon="17.91626850231">
        <ele>4.4</ele>
        <time>2018-12-15T09:58:33Z</time>
        <extensions><gpxtpx:TrackPointExtension><gpxtpx:hr>158</gpxtpx:hr></gpxtpx:TrackPointExtension></extensions>
      </trkpt>
      <trkpt lat="59.547369225864" lon="17.915501726098">
        <ele>3.6</ele>
        <time>2018-12-15T09:58:41Z</time>
        <extensions><gpxtpx:TrackPointExtension><gpxtpx:hr>156</gpxtpx:hr></gpxtpx:TrackPointExtension></extensions>
      </trkpt>
      <trkpt lat="59.547415242495" lon="17.915404076963">
        <ele>2.8</ele>
        <time>2018-12-15T09:58:42Z</time>
        <extensions><gpxtpx:TrackPointExtension><gpxtpx:hr>155</gpxtpx:hr></gpxtpx:TrackPointExtension></extensions>
      </trkpt>
      <trkpt lat="59.547457151995" lon="17.915303326525">
        <ele>2.2</ele>
        <time>2018-12-15T09:58:43Z</time>
        <extensions><gpxtpx:TrackPointExtension><gpxtpx:hr>155</gpxtpx:hr></gpxtpx:TrackPointExtension></extensions>
      </trkpt>
      <trkpt lat="59.547509957965" lon="17.91509503631">
        <ele>1.6</ele>
        <time>2018-12-15T09:58:45Z</time>
        <extensions><gpxtpx:TrackPointExtension><gpxtpx:hr>154</gpxtpx:hr></gpxtpx:TrackPointExtension></extensions>
      </trkpt>
      <trkpt lat="59.547497971848" lon="17.914732435316">
        <ele>1.4</ele>
        <time>2018-12-15T09:58:49Z</time>
        <extensions><gpxtpx:TrackPointExtension><gpxtpx:hr>151</gpxtpx:hr></gpxtpx:TrackPointExtension></extensions>
      </trkpt>
      <trkpt lat="59.547488248844" lon="17.914643754814">
        <ele>1.4</ele>
        <time>2018-12-15T09:58:50Z</time>
        <extensions><gpxtpx:TrackPointExtension><gpxtpx:hr>151</gpxtpx:hr></gpxtpx:TrackPointExtension></extensions>
      </trkpt>
      <trkpt lat="59.547376601936" lon="17.913886450149">
        <ele>1.8</ele>
        <time>2018-12-15T09:58:58Z</time>
        <extensions><gpxtpx:TrackPointExtension><gpxtpx:hr>151</gpxtpx:hr></gpxtpx:TrackPointExtension></extensions>
      </trkpt>
      <trkpt lat="59.547332848418" lon="17.913714956475">
        <ele>2.2</ele>
        <time>2018-12-15T09:59:00Z</time>
        <extensions><gpxtpx:TrackPointExtension><gpxtpx:hr>152</gpxtpx:hr></gpxtpx:TrackPointExtension></extensions>
      </trkpt>
      <trkpt lat="59.547398981609" lon="17.913475401773">
        <ele>2.8</ele>
        <time>2018-12-15T09:59:04Z</time>
        <extensions><gpxtpx:TrackPointExtension><gpxtpx:hr>153</gpxtpx:hr></gpxtpx:TrackPointExtension></extensions>
      </trkpt>
      <trkpt lat="59.547678517974" lon="17.913327461238">
        <ele>3.2</ele>
        <time>2018-12-15T09:59:10Z</time>
        <extensions><gpxtpx:TrackPointExtension><gpxtpx:hr>150</gpxtpx:hr></gpxtpx:TrackPointExtension></extensions>
      </trkpt>
      <trkpt lat="59.54779284709" lon="17.91281432132">
        <ele>3</ele>
        <time>2018-12-15T09:59:15Z</time>
        <extensions><gpxtpx:TrackPointExtension><gpxtpx:hr>148</gpxtpx:hr></gpxtpx:TrackPointExtension></extensions>
      </trkpt>
      <trkpt lat="59.547825704138" lon="17.912170172305">
        <ele>1.8</ele>
        <time>2018-12-15T09:59:20Z</time>
        <extensions><gpxtpx:TrackPointExtension><gpxtpx:hr>147</gpxtpx:hr></gpxtpx:TrackPointExtension></extensions>
      </trkpt>
      <trkpt lat="59.547870966398" lon="17.911263083087">
        <ele>0.6</ele>
        <time>2018-12-15T09:59:27Z</time>
        <extensions><gpxtpx:TrackPointExtension><gpxtpx:hr>147</gpxtpx:hr></gpxtpx:TrackPointExtension></extensions>
      </trkpt>
      <trkpt lat="59.547937686322" lon="17.910268570652">
        <ele>0.4</ele>
        <time>2018-12-15T09:59:35Z</time>
        <extensions><gpxtpx:TrackPointExtension><gpxtpx:hr>149</gpxtpx:hr></gpxtpx:TrackPointExtension></extensions>
      </trkpt>
      <trkpt lat="59.548151173315" lon="17.909867329099">
        <ele>0.6</ele>
        <time>2018-12-15T09:59:40Z</time>
        <extensions><gpxtpx:TrackPointExtension><gpxtpx:hr>151</gpxtpx:hr></gpxtpx:TrackPointExtension></extensions>
      </trkpt>
      <trkpt lat="59.548667833631" lon="17.909317644097">
        <ele>0.6</ele>
        <time>2018-12-15T09:59:49Z</time>
        <extensions><gpxtpx:TrackPointExtension><gpxtpx:hr>152</gpxtpx:hr></gpxtpx:TrackPointExtension></extensions>
      </trkpt>
      <trkpt lat="59.549165467034" lon="17.90878933294">
        <ele>0</ele>
        <time>2018-12-15T09:59:58Z</time>
        <extensions><gpxtpx:TrackPointExtension><gpxtpx:hr>154</gpxtpx:hr></gpxtpx:TrackPointExtension></extensions>
      </trkpt>
      <trkpt lat="59.549614988331" lon="17.908280803067">
        <ele>0.4</ele>
        <time>2018-12-15T10:00:06Z</time>
        <extensions><gpxtpx:TrackPointExtension><gpxtpx:hr>157</gpxtpx:hr></gpxtpx:TrackPointExtension></extensions>
      </trkpt>
      <trkpt lat="59.550090242061" lon="17.907742685087">
        <ele>0.6</ele>
        <time>2018-12-15T10:00:15Z</time>
        <extensions><gpxtpx:TrackPointExtension><gpxtpx:hr>157</gpxtpx:hr></gpxtpx:TrackPointExtension></extensions>
      </trkpt>
      <trkpt lat="59.550417136161" lon="17.907363990845">
        <ele>1.4</ele>
        <time>2018-12-15T10:00:22Z</time>
        <extensions><gpxtpx:TrackPointExtension><gpxtpx:hr>160</gpxtpx:hr></gpxtpx:TrackPointExtension></extensions>
      </trkpt>
      <trkpt lat="59.550463571887" lon="17.907315292006">
        <ele>1.8</ele>
        <time>2018-12-15T10:00:23Z</time>
        <extensions><gpxtpx:TrackPointExtension><gpxtpx:hr>160</gpxtpx:hr></gpxtpx:TrackPointExtension></extensions>
      </trkpt>
      <trkpt lat="59.55061084187" lon="17.907204902383">
        <ele>2.6</ele>
        <time>2018-12-15T10:00:26Z</time>
        <extensions><gpxtpx:TrackPointExtension><gpxtpx:hr>160</gpxtpx:hr></gpxtpx:TrackPointExtension></extensions>
      </trkpt>
      <trkpt lat="59.550663983116" lon="17.907187635669">
        <ele>2.8</ele>
        <time>2018-12-15T10:00:27Z</time>
        <extensions><gpxtpx:TrackPointExtension><gpxtpx:hr>161</gpxtpx:hr></gpxtpx:TrackPointExtension></extensions>
      </trkpt>
      <trkpt lat="59.551245686976" lon="17.907133740052">
        <ele>3.4</ele>
        <time>2018-12-15T10:00:38Z</time>
        <extensions><gpxtpx:TrackPointExtension><gpxtpx:hr>158</gpxtpx:hr></gpxtpx:TrackPointExtension></extensions>
      </trkpt>
      <trkpt lat="59.55168372507" lon="17.907165926548">
        <ele>2.8</ele>
        <time>2018-12-15T10:00:45Z</time>
        <extensions><gpxtpx:TrackPointExtension><gpxtpx:hr>155</gpxtpx:hr></gpxtpx:TrackPointExtension></extensions>
      </trkpt>
      <trkpt lat="59.551841220971" lon="17.907200543795">
        <ele>2.2</ele>
        <time>2018-12-15T10:00:48Z</time>
        <extensions><gpxtpx:TrackPointExtension><gpxtpx:hr>154</gpxtpx:hr></gpxtpx:TrackPointExtension></extensions>
      </trkpt>
      <trkpt lat="59.551936355536" lon="17.907170117498">
        <ele>1.8</ele>
        <time>2018-12-15T10:00:50Z</time>
        <extensions><gpxtpx:TrackPointExtension><gpxtpx:hr>153</gpxtpx:hr></gpxtpx:TrackPointExtension></extensions>
      </trkpt>
      <trkpt lat="59.552030651911" lon="17.907107337067">
        <ele>1.6</ele>
        <time>2018-12-15T10:00:52Z</time>
        <extensions><gpxtpx:TrackPointExtension><gpxtpx:hr>151</gpxtpx:hr></gpxtpx:TrackPointExtension></extensions>
      </trkpt>
      <trkpt lat="59.552234834995" lon="17.906960067084">
        <ele>1.6</ele>
        <time>2018-12-15T10:00:57Z</time>
        <extensions><gpxtpx:TrackPointExtension><gpxtpx:hr>148</gpxtpx:hr></gpxtpx:TrackPointExtension></extensions>
      </trkpt>
      <trkpt lat="59.552307086973" lon="17.90694363856">
        <ele>1.6</ele>
        <time>2018-12-15T10:00:59Z</time>
        <extensions><gpxtpx:TrackPointExtension><gpxtpx:hr>145</gpxtpx:hr></gpxtpx:TrackPointExtension></extensions>
      </trkpt>
      <trkpt lat="59.552338602917" lon="17.906963252206">
        <ele>1.6</ele>
        <time>2018-12-15T10:01:00Z</time>
        <extensions><gpxtpx:TrackPointExtension><gpxtpx:hr>145</gpxtpx:hr></gpxtpx:TrackPointExtension></extensions>
      </trkpt>
      <trkpt lat="59.552411106352" lon="17.907144971798">
        <ele>1.8</ele>
        <time>2018-12-15T10:01:03Z</time>
        <extensions><gpxtpx:TrackPointExtension><gpxtpx:hr>142</gpxtpx:hr></gpxtpx:TrackPointExtension></extensions>
      </trkpt>
      <trkpt lat="59.552435832957" lon="17.907224516029">
        <ele>1.8</ele>
        <time>2018-12-15T10:01:04Z</time>
        <extensions><gpxtpx:TrackPointExtension><gpxtpx:hr>140</gpxtpx:hr></gpxtpx:TrackPointExtension></extensions>
      </trkpt>
      <trkpt lat="59.55279432682" lon="17.907307161563">
        <ele>2</ele>
        <time>2018-12-15T10:01:11Z</time>
        <extensions><gpxtpx:TrackPointExtension><gpxtpx:hr>140</gpxtpx:hr></gpxtpx:TrackPointExtension></extensions>
      </trkpt>
      <trkpt lat="59.552921061148" lon="17.907251841023">
        <ele>1.4</ele>
        <time>2018-12-15T10:01:13Z</time>
        <extensions><gpxtpx:TrackPointExtension><gpxtpx:hr>141</gpxtpx:hr></gpxtpx:TrackPointExtension></extensions>
      </trkpt>
      <trkpt lat="59.553038910662" lon="17.907272711954">
        <ele>0.8</ele>
        <time>2018-12-15T10:01:15Z</time>
        <extensions><gpxtpx:TrackPointExtension><gpxtpx:hr>142</gpxtpx:hr></gpxtpx:TrackPointExtension></extensions>
      </trkpt>
      <trkpt lat="59.553456413101" lon="17.907401122662">
        <ele>0</ele>
        <time>2018-12-15T10:01:22Z</time>
        <extensions><gpxtpx:TrackPointExtension><gpxtpx:hr>145</gpxtpx:hr></gpxtpx:TrackPointExtension></extensions>
      </trkpt>
      <trkpt lat="59.553837538094" lon="17.907631876369">
        <ele>0</ele>
        <time>2018-12-15T10:01:28Z</time>
        <extensions><gpxtpx:TrackPointExtension><gpxtpx:hr>148</gpxtpx:hr></gpxtpx:TrackPointExtension></extensions>
      </trkpt>
      <trkpt lat="59.55431647986" lon="17.908025658031">
        <ele>0.6</ele>
        <time>2018-12-15T10:01:40Z</time>
        <extensions><gpxtpx:TrackPointExtension><gpxtpx:hr>149</gpxtpx:hr></gpxtpx:TrackPointExtension></extensions>
      </trkpt>
      <trkpt lat="59.554376745721" lon="17.908044852582">
        <ele>2.2</ele>
        <time>2018-12-15T10:02:04Z</time>
        <extensions><gpxtpx:TrackPointExtension><gpxtpx:hr>132</gpxtpx:hr></gpxtpx:TrackPointExtension></extensions>
      </trkpt>
      <trkpt lat="59.554397029919" lon="17.908058347441">
        <ele>2.2</ele>
        <time>2018-12-15T10:02:05Z</time>
        <extensions><gpxtpx:TrackPointExtension><gpxtpx:hr>132</gpxtpx:hr></gpxtpx:TrackPointExtension></extensions>
      </trkpt>
      <trkpt lat="59.554498450909" lon="17.908135628559">
        <ele>2.2</ele>
        <time>2018-12-15T10:02:09Z</time>
        <extensions><gpxtpx:TrackPointExtension><gpxtpx:hr>129</gpxtpx:hr></gpxtpx:TrackPointExtension></extensions>
      </trkpt>
      <trkpt lat="59.554786872088" lon="17.908329082811">
        <ele>1.6</ele>
        <time>2018-12-15T10:02:16Z</time>
        <extensions><gpxtpx:TrackPointExtension><gpxtpx:hr>126</gpxtpx:hr></gpxtpx:TrackPointExtension></extensions>
      </trkpt>
      <trkpt lat="59.554891394381" lon="17.908393958717">
        <ele>1.2</ele>
        <time>2018-12-15T10:02:19Z</time>
        <extensions><gpxtpx:TrackPointExtension><gpxtpx:hr>123</gpxtpx:hr></gpxtpx:TrackPointExtension></extensions>
      </trkpt>
      <trkpt lat="59.554915953348" lon="17.908412063621">
        <ele>1.2</ele>
        <time>2018-12-15T10:02:20Z</time>
        <extensions><gpxtpx:TrackPointExtension><gpxtpx:hr>123</gpxtpx:hr></gpxtpx:TrackPointExtension></extensions>
      </trkpt>
      <trkpt lat="59.554944367989" lon="17.908433605104">
        <ele>1.2</ele>
        <time>2018-12-15T10:02:22Z</time>
        <extensions><gpxtpx:TrackPointExtension><gpxtpx:hr>120</gpxtpx:hr></gpxtpx:TrackPointExtension></extensions>
      </trkpt>
      <trkpt lat="59.554969010775" lon="17.908451961465">
        <ele>1.2</ele>
        <time>2018-12-15T10:02:26Z</time>
        <extensions><gpxtpx:TrackPointExtension><gpxtpx:hr>121</gpxtpx:hr></gpxtpx:TrackPointExtension></extensions>
      </trkpt>
      <trkpt lat="59.554939422668" lon="17.908410722517">
        <ele>0.8</ele>
        <time>2018-12-15T10:03:05Z</time>
        <extensions><gpxtpx:TrackPointExtension><gpxtpx:hr>123</gpxtpx:hr></gpxtpx:TrackPointExtension></extensions>
      </trkpt>
      <trkpt lat="59.554609259627" lon="17.908180807">
        <ele>0.4</ele>
        <time>2018-12-15T10:03:14Z</time>
        <extensions><gpxtpx:TrackPointExtension><gpxtpx:hr>127</gpxtpx:hr></gpxtpx:TrackPointExtension></extensions>
      </trkpt>
      <trkpt lat="59.554463666024" lon="17.908076703802">
        <ele>0</ele>
        <time>2018-12-15T10:03:17Z</time>
        <extensions><gpxtpx:TrackPointExtension><gpxtpx:hr>131</gpxtpx:hr></gpxtpx:TrackPointExtension></extensions>
      </trkpt>
      <trkpt lat="59.554372554771" lon="17.908003362177">
        <ele>0</ele>
        <time>2018-12-15T10:03:19Z</time>
        <extensions><gpxtpx:TrackPointExtension><gpxtpx:hr>134</gpxtpx:hr></gpxtpx:TrackPointExtension></extensions>
      </trkpt>
      <trkpt lat="59.554283287536" lon="17.907946784352">
        <ele>0</ele>
        <time>2018-12-15T10:03:21Z</time>
        <extensions><gpxtpx:TrackPointExtension><gpxtpx:hr>137</gpxtpx:hr></gpxtpx:TrackPointExtension></extensions>
      </trkpt>
      <trkpt lat="59.554198211251" lon="17.907893810744">
        <ele>0</ele>
        <time>2018-12-15T10:03:23Z</time>
        <extensions><gpxtpx:TrackPointExtension><gpxtpx:hr>140</gpxtpx:hr></gpxtpx:TrackPointExtension></extensions>
      </trkpt>
      <trkpt lat="59.554149763869" lon="17.9078539129">
        <ele>0</ele>
        <time>2018-12-15T10:03:24Z</time>
        <extensions><gpxtpx:TrackPointExtension><gpxtpx:hr>141</gpxtpx:hr></gpxtpx:TrackPointExtension></extensions>
      </trkpt>
      <trkpt lat="59.554051779458" lon="17.907756012308">
        <ele>0</ele>
        <time>2018-12-15T10:03:26Z</time>
        <extensions><gpxtpx:TrackPointExtension><gpxtpx:hr>144</gpxtpx:hr></gpxtpx:TrackPointExtension></extensions>
      </trkpt>
      <trkpt lat="59.553917082325" lon="17.90761586694">
        <ele>0</ele>
        <time>2018-12-15T10:03:29Z</time>
        <extensions><gpxtpx:TrackPointExtension><gpxtpx:hr>147</gpxtpx:hr></gpxtpx:TrackPointExtension></extensions>
      </trkpt>
      <trkpt lat="59.553819265552" lon="17.907529701008">
        <ele>0</ele>
        <time>2018-12-15T10:03:31Z</time>
        <extensions><gpxtpx:TrackPointExtension><gpxtpx:hr>150</gpxtpx:hr></gpxtpx:TrackPointExtension></extensions>
      </trkpt>
      <trkpt lat="59.553580716678" lon="17.907384275043">
        <ele>0</ele>
        <time>2018-12-15T10:03:36Z</time>
        <extensions><gpxtpx:TrackPointExtension><gpxtpx:hr>153</gpxtpx:hr></gpxtpx:TrackPointExtension></extensions>
      </trkpt>
      <trkpt lat="59.553024996708" lon="17.907203645098">
        <ele>0</ele>
        <time>2018-12-15T10:03:48Z</time>
        <extensions><gpxtpx:TrackPointExtension><gpxtpx:hr>154</gpxtpx:hr></gpxtpx:TrackPointExtension></extensions>
      </trkpt>
      <trkpt lat="59.55294017188" lon="17.907234993404">
        <ele>0</ele>
        <time>2018-12-15T10:03:50Z</time>
        <extensions><gpxtpx:TrackPointExtension><gpxtpx:hr>153</gpxtpx:hr></gpxtpx:TrackPointExtension></extensions>
      </trkpt>
      <trkpt lat="59.552735318244" lon="17.907323087173">
        <ele>0</ele>
        <time>2018-12-15T10:03:54Z</time>
        <extensions><gpxtpx:TrackPointExtension><gpxtpx:hr>153</gpxtpx:hr></gpxtpx:TrackPointExtension></extensions>
      </trkpt>
      <trkpt lat="59.552554688299" lon="17.907151677318">
        <ele>0.2</ele>
        <time>2018-12-15T10:04:00Z</time>
        <extensions><gpxtpx:TrackPointExtension><gpxtpx:hr>151</gpxtpx:hr></gpxtpx:TrackPointExtension></extensions>
      </trkpt>
      <trkpt lat="59.552449579273" lon="17.906888569477">
        <ele>0.8</ele>
        <time>2018-12-15T10:04:07Z</time>
        <extensions><gpxtpx:TrackPointExtension><gpxtpx:hr>150</gpxtpx:hr></gpxtpx:TrackPointExtension></extensions>
      </trkpt>
      <trkpt lat="59.552444298676" lon="17.906855880067">
        <ele>1</ele>
        <time>2018-12-15T10:04:09Z</time>
        <extensions><gpxtpx:TrackPointExtension><gpxtpx:hr>149</gpxtpx:hr></gpxtpx:TrackPointExtension></extensions>
      </trkpt>
      <trkpt lat="59.552441281192" lon="17.906854036049">
        <ele>1</ele>
        <time>2018-12-15T10:04:10Z</time>
        <extensions><gpxtpx:TrackPointExtension><gpxtpx:hr>149</gpxtpx:hr></gpxtpx:TrackPointExtension></extensions>
      </trkpt>
      <trkpt lat="59.552445472142" lon="17.906745993358">
        <ele>2.2</ele>
        <time>2018-12-15T10:04:25Z</time>
        <extensions><gpxtpx:TrackPointExtension><gpxtpx:hr>135</gpxtpx:hr></gpxtpx:TrackPointExtension></extensions>
      </trkpt>
      <trkpt lat="59.552458380268" lon="17.90673576744">
        <ele>2.2</ele>
        <time>2018-12-15T10:04:26Z</time>
        <extensions><gpxtpx:TrackPointExtension><gpxtpx:hr>132</gpxtpx:hr></gpxtpx:TrackPointExtension></extensions>
      </trkpt>
      <trkpt lat="59.552520406328" lon="17.906678519063">
        <ele>2.2</ele>
        <time>2018-12-15T10:04:29Z</time>
        <extensions><gpxtpx:TrackPointExtension><gpxtpx:hr>129</gpxtpx:hr></gpxtpx:TrackPointExtension></extensions>
      </trkpt>
      <trkpt lat="59.552662563352" lon="17.906586737258">
        <ele>2.2</ele>
        <time>2018-12-15T10:04:35Z</time>
        <extensions><gpxtpx:TrackPointExtension><gpxtpx:hr>132</gpxtpx:hr></gpxtpx:TrackPointExtension></extensions>
      </trkpt>
      <trkpt lat="59.55271050782" lon="17.906580786109">
        <ele>2.2</ele>
        <time>2018-12-15T10:04:37Z</time>
        <extensions><gpxtpx:TrackPointExtension><gpxtpx:hr>135</gpxtpx:hr></gpxtpx:TrackPointExtension></extensions>
      </trkpt>
      <trkpt lat="59.552748561646" lon="17.906565950146">
        <ele>2.2</ele>
        <time>2018-12-15T10:04:39Z</time>
        <extensions><gpxtpx:TrackPointExtension><gpxtpx:hr>138</gpxtpx:hr></gpxtpx:TrackPointExtension></extensions>
      </trkpt>
      <trkpt lat="59.552796170838" lon="17.906537032591">
        <ele>2.4</ele>
        <time>2018-12-15T10:04:42Z</time>
        <extensions><gpxtpx:TrackPointExtension><gpxtpx:hr>141</gpxtpx:hr></gpxtpx:TrackPointExtension></extensions>
      </trkpt>
      <trkpt lat="59.552851407559" lon="17.90650610338">
        <ele>2.8</ele>
        <time>2018-12-15T10:04:45Z</time>
        <extensions><gpxtpx:TrackPointExtension><gpxtpx:hr>144</gpxtpx:hr></gpxtpx:TrackPointExtension></extensions>
      </trkpt>
      <trkpt lat="59.552902956244" lon="17.906507444484">
        <ele>3.4</ele>
        <time>2018-12-15T10:04:47Z</time>
        <extensions><gpxtpx:TrackPointExtension><gpxtpx:hr>146</gpxtpx:hr></gpxtpx:TrackPointExtension></extensions>
      </trkpt>
      <trkpt lat="59.552949056694" lon="17.906489674856">
        <ele>4</ele>
        <time>2018-12-15T10:04:49Z</time>
        <extensions><gpxtpx:TrackPointExtension><gpxtpx:hr>148</gpxtpx:hr></gpxtpx:TrackPointExtension></extensions>
      </trkpt>
      <trkpt lat="59.553057267023" lon="17.906340057941">
        <ele>4.4</ele>
        <time>2018-12-15T10:04:54Z</time>
        <extensions><gpxtpx:TrackPointExtension><gpxtpx:hr>151</gpxtpx:hr></gpxtpx:TrackPointExtension></extensions>
      </trkpt>
      <trkpt lat="59.553074198461" lon="17.906310134558">
        <ele>4.6</ele>
        <time>2018-12-15T10:04:55Z</time>
        <extensions><gpxtpx:TrackPointExtension><gpxtpx:hr>151</gpxtpx:hr></gpxtpx:TrackPointExtension></extensions>
      </trkpt>
      <trkpt lat="59.553598067211" lon="17.906079883765">
        <ele>5.2</ele>
        <time>2018-12-15T10:05:12Z</time>
        <extensions><gpxtpx:TrackPointExtension><gpxtpx:hr>154</gpxtpx:hr></gpxtpx:TrackPointExtension></extensions>
      </trkpt>
      <trkpt lat="59.554158648683" lon="17.905910317928">
        <ele>5.2</ele>
        <time>2018-12-15T10:05:28Z</time>
        <extensions><gpxtpx:TrackPointExtension><gpxtpx:hr>154</gpxtpx:hr></gpxtpx:TrackPointExtension></extensions>
      </trkpt>
      <trkpt lat="59.554267361926" lon="17.905926411176">
        <ele>5.4</ele>
        <time>2018-12-15T10:05:32Z</time>
        <extensions><gpxtpx:TrackPointExtension><gpxtpx:hr>156</gpxtpx:hr></gpxtpx:TrackPointExtension></extensions>
      </trkpt>
      <trkpt lat="59.554339027171" lon="17.905948371754">
        <ele>5.6</ele>
        <time>2018-12-15T10:05:35Z</time>
        <extensions><gpxtpx:TrackPointExtension><gpxtpx:hr>158</gpxtpx:hr></gpxtpx:TrackPointExtension></extensions>
      </trkpt>
      <trkpt lat="59.554657455552" lon="17.905924315701">
        <ele>6.6</ele>
        <time>2018-12-15T10:05:44Z</time>
        <extensions><gpxtpx:TrackPointExtension><gpxtpx:hr>159</gpxtpx:hr></gpxtpx:TrackPointExtension></extensions>
      </trkpt>
      <trkpt lat="59.55503313231" lon="17.905699177867">
        <ele>7.8</ele>
        <time>2018-12-15T10:05:56Z</time>
        <extensions><gpxtpx:TrackPointExtension><gpxtpx:hr>160</gpxtpx:hr></gpxtpx:TrackPointExtension></extensions>
      </trkpt>
      <trkpt lat="59.555473601155" lon="17.905541681966">
        <ele>8.8</ele>
        <time>2018-12-15T10:06:12Z</time>
        <extensions><gpxtpx:TrackPointExtension><gpxtpx:hr>158</gpxtpx:hr></gpxtpx:TrackPointExtension></extensions>
      </trkpt>
      <trkpt lat="59.555551888101" lon="17.905570012788">
        <ele>9</ele>
        <time>2018-12-15T10:06:18Z</time>
        <extensions><gpxtpx:TrackPointExtension><gpxtpx:hr>158</gpxtpx:hr></gpxtpx:TrackPointExtension></extensions>
      </trkpt>
      <trkpt lat="59.555827568792" lon="17.905502119398">
        <ele>9.6</ele>
        <time>2018-12-15T10:07:14Z</time>
        <extensions><gpxtpx:TrackPointExtension><gpxtpx:hr>128</gpxtpx:hr></gpxtpx:TrackPointExtension></extensions>
      </trkpt>
      <trkpt lat="59.555907532118" lon="17.905430118877">
        <ele>9.4</ele>
        <time>2018-12-15T10:07:18Z</time>
        <extensions><gpxtpx:TrackPointExtension><gpxtpx:hr>124</gpxtpx:hr></gpxtpx:TrackPointExtension></extensions>
      </trkpt>
      <trkpt lat="59.555963774667" lon="17.905410253774">
        <ele>9.4</ele>
        <time>2018-12-15T10:07:20Z</time>
        <extensions><gpxtpx:TrackPointExtension><gpxtpx:hr>122</gpxtpx:hr></gpxtpx:TrackPointExtension></extensions>
      </trkpt>
      <trkpt lat="59.556054969739" lon="17.905388293196">
        <ele>9</ele>
        <time>2018-12-15T10:07:24Z</time>
        <extensions><gpxtpx:TrackPointExtension><gpxtpx:hr>125</gpxtpx:hr></gpxtpx:TrackPointExtension></extensions>
      </trkpt>
      <trkpt lat="59.556126467346" lon="17.905363901867">
        <ele>8.8</ele>
        <time>2018-12-15T10:07:27Z</time>
        <extensions><gpxtpx:TrackPointExtension><gpxtpx:hr>129</gpxtpx:hr></gpxtpx:TrackPointExtension></extensions>
      </trkpt>
      <trkpt lat="59.556222440101" lon="17.905293661545">
        <ele>8.4</ele>
        <time>2018-12-15T10:07:30Z</time>
        <extensions><gpxtpx:TrackPointExtension><gpxtpx:hr>132</gpxtpx:hr></gpxtpx:TrackPointExtension></extensions>
      </trkpt>
      <trkpt lat="59.55630969568" lon="17.905256613547">
        <ele>8.4</ele>
        <time>2018-12-15T10:07:33Z</time>
        <extensions><gpxtpx:TrackPointExtension><gpxtpx:hr>135</gpxtpx:hr></gpxtpx:TrackPointExtension></extensions>
      </trkpt>
      <trkpt lat="59.556372811387" lon="17.905202298835">
        <ele>8.2</ele>
        <time>2018-12-15T10:07:35Z</time>
        <extensions><gpxtpx:TrackPointExtension><gpxtpx:hr>138</gpxtpx:hr></gpxtpx:TrackPointExtension></extensions>
      </trkpt>
      <trkpt lat="59.556394520508" lon="17.905184193931">
        <ele>8</ele>
        <time>2018-12-15T10:07:36Z</time>
        <extensions><gpxtpx:TrackPointExtension><gpxtpx:hr>139</gpxtpx:hr></gpxtpx:TrackPointExtension></extensions>
      </trkpt>
      <trkpt lat="59.556456965663" lon="17.905189642166">
        <ele>8</ele>
        <time>2018-12-15T10:07:39Z</time>
        <extensions><gpxtpx:TrackPointExtension><gpxtpx:hr>142</gpxtpx:hr></gpxtpx:TrackPointExtension></extensions>
      </trkpt>
      <trkpt lat="59.556526703071" lon="17.905172710728">
        <ele>8</ele>
        <time>2018-12-15T10:07:42Z</time>
        <extensions><gpxtpx:TrackPointExtension><gpxtpx:hr>145</gpxtpx:hr></gpxtpx:TrackPointExtension></extensions>
      </trkpt>
      <trkpt lat="59.556617227591" lon="17.905121916414">
        <ele>8</ele>
        <time>2018-12-15T10:07:45Z</time>
        <extensions><gpxtpx:TrackPointExtension><gpxtpx:hr>148</gpxtpx:hr></gpxtpx:TrackPointExtension></extensions>
      </trkpt>
      <trkpt lat="59.5567690238" lon="17.905026530392">
        <ele>8.2</ele>
        <time>2018-12-15T10:07:49Z</time>
        <extensions><gpxtpx:TrackPointExtension><gpxtpx:hr>151</gpxtpx:hr></gpxtpx:TrackPointExtension></extensions>
      </trkpt>
      <trkpt lat="59.556832139507" lon="17.904966432169">
        <ele>8.4</ele>
        <time>2018-12-15T10:07:51Z</time>
        <extensions><gpxtpx:TrackPointExtension><gpxtpx:hr>152</gpxtpx:hr></gpxtpx:TrackPointExtension></extensions>
      </trkpt>
      <trkpt lat="59.557309404893" lon="17.904442144324">
        <ele>8.4</ele>
        <time>2018-12-15T10:08:07Z</time>
        <extensions><gpxtpx:TrackPointExtension><gpxtpx:hr>149</gpxtpx:hr></gpxtpx:TrackPointExtension></extensions>
      </trkpt>
      <trkpt lat="59.557780300035" lon="17.904530908645">
        <ele>9</ele>
        <time>2018-12-15T10:08:25Z</time>
        <extensions><gpxtpx:TrackPointExtension><gpxtpx:hr>152</gpxtpx:hr></gpxtpx:TrackPointExtension></extensions>
      </trkpt>
      <trkpt lat="59.557889516192" lon="17.904630820893">
        <ele>9.8</ele>
        <time>2018-12-15T10:08:29Z</time>
        <extensions><gpxtpx:TrackPointExtension><gpxtpx:hr>155</gpxtpx:hr></gpxtpx:TrackPointExtension></extensions>
      </trkpt>
      <trkpt lat="59.558113312922" lon="17.904804410042">
        <ele>10.8</ele>
        <time>2018-12-15T10:08:36Z</time>
        <extensions><gpxtpx:TrackPointExtension><gpxtpx:hr>158</gpxtpx:hr></gpxtpx:TrackPointExtension></extensions>
      </trkpt>
      <trkpt lat="59.558310119934" lon="17.904962408857">
        <ele>11.4</ele>
        <time>2018-12-15T10:08:43Z</time>
        <extensions><gpxtpx:TrackPointExtension><gpxtpx:hr>161</gpxtpx:hr></gpxtpx:TrackPointExtension></extensions>
      </trkpt>
      <trkpt lat="59.558494437915" lon="17.905081599475">
        <ele>12</ele>
        <time>2018-12-15T10:08:49Z</time>
        <extensions><gpxtpx:TrackPointExtension><gpxtpx:hr>162</gpxtpx:hr></gpxtpx:TrackPointExtension></extensions>
      </trkpt>
      <trkpt lat="59.559011433507" lon="17.90544244027">
        <ele>13</ele>
        <time>2018-12-15T10:09:09Z</time>
        <extensions><gpxtpx:TrackPointExtension><gpxtpx:hr>165</gpxtpx:hr></gpxtpx:TrackPointExtension></extensions>
      </trkpt>
      <trkpt lat="59.55903297499" lon="17.905448139962">
        <ele>13.2</ele>
        <time>2018-12-15T10:09:10Z</time>
        <extensions><gpxtpx:TrackPointExtension><gpxtpx:hr>164</gpxtpx:hr></gpxtpx:TrackPointExtension></extensions>
      </trkpt>
      <trkpt lat="59.55911176485" lon="17.905464736124">
        <ele>13.2</ele>
        <time>2018-12-15T10:09:13Z</time>
        <extensions><gpxtpx:TrackPointExtension><gpxtpx:hr>164</gpxtpx:hr></gpxtpx:TrackPointExtension></extensions>
      </trkpt>
      <trkpt lat="59.559359533814" lon="17.905679312764">
        <ele>13.8</ele>
        <time>2018-12-15T10:09:22Z</time>
        <extensions><gpxtpx:TrackPointExtension><gpxtpx:hr>163</gpxtpx:hr></gpxtpx:TrackPointExtension></extensions>
      </trkpt>
      <trkpt lat="59.559824393988" lon="17.905734800942">
        <ele>14.8</ele>
        <time>2018-12-15T10:09:36Z</time>
        <extensions><gpxtpx:TrackPointExtension><gpxtpx:hr>164</gpxtpx:hr></gpxtpx:TrackPointExtension></extensions>
      </trkpt>
      <trkpt lat="59.560071827676" lon="17.905739578625">
        <ele>15.4</ele>
        <time>2018-12-15T10:09:44Z</time>
        <extensions><gpxtpx:TrackPointExtension><gpxtpx:hr>164</gpxtpx:hr></gpxtpx:TrackPointExtension></extensions>
      </trkpt>
      <trkpt lat="59.560279950253" lon="17.905836138113">
        <ele>16</ele>
        <time>2018-12-15T10:09:51Z</time>
        <extensions><gpxtpx:TrackPointExtension><gpxtpx:hr>166</gpxtpx:hr></gpxtpx:TrackPointExtension></extensions>
      </trkpt>
      <trkpt lat="59.56082837797" lon="17.906078039747">
        <ele>15.6</ele>
        <time>2018-12-15T10:10:08Z</time>
        <extensions><gpxtpx:TrackPointExtension><gpxtpx:hr>164</gpxtpx:hr></gpxtpx:TrackPointExtension></extensions>
      </trkpt>
      <trkpt lat="59.561380326085" lon="17.90634684728">
        <ele>15.4</ele>
        <time>2018-12-15T10:10:23Z</time>
        <extensions><gpxtpx:TrackPointExtension><gpxtpx:hr>164</gpxtpx:hr></gpxtpx:TrackPointExtension></extensions>
      </trkpt>
      <trkpt lat="59.561931016915" lon="17.90655807116">
        <ele>16.6</ele>
        <time>2018-12-15T10:10:38Z</time>
        <extensions><gpxtpx:TrackPointExtension><gpxtpx:hr>164</gpxtpx:hr></gpxtpx:TrackPointExtension></extensions>
      </trkpt>
      <trkpt lat="59.562027408765" lon="17.906658151046">
        <ele>17</ele>
        <time>2018-12-15T10:10:42Z</time>
        <extensions><gpxtpx:TrackPointExtension><gpxtpx:hr>165</gpxtpx:hr></gpxtpx:TrackPointExtension></extensions>
      </trkpt>
      <trkpt lat="59.5621418217" lon="17.906694947587">
        <ele>18</ele>
        <time>2018-12-15T10:10:46Z</time>
        <extensions><gpxtpx:TrackPointExtension><gpxtpx:hr>165</gpxtpx:hr></gpxtpx:TrackPointExtension></extensions>
      </trkpt>
      <trkpt lat="59.562272663159" lon="17.906686565687">
        <ele>19</ele>
        <time>2018-12-15T10:10:50Z</time>
        <extensions><gpxtpx:TrackPointExtension><gpxtpx:hr>166</gpxtpx:hr></gpxtpx:TrackPointExtension></extensions>
      </trkpt>
      <trkpt lat="59.562400738591" lon="17.906653373363">
        <ele>20.2</ele>
        <time>2018-12-15T10:10:54Z</time>
        <extensions><gpxtpx:TrackPointExtension><gpxtpx:hr>167</gpxtpx:hr></gpxtpx:TrackPointExtension></extensions>
      </trkpt>
      <trkpt lat="59.562516911725" lon="17.90669301975">
        <ele>21.4</ele>
        <time>2018-12-15T10:10:58Z</time>
        <extensions><gpxtpx:TrackPointExtension><gpxtpx:hr>168</gpxtpx:hr></gpxtpx:TrackPointExtension></extensions>
      </trkpt>
      <trkpt lat="59.562595617766" lon="17.906758901484">
        <ele>22.4</ele>
        <time>2018-12-15T10:11:01Z</time>
        <extensions><gpxtpx:TrackPointExtension><gpxtpx:hr>168</gpxtpx:hr></gpxtpx:TrackPointExtension></extensions>
      </trkpt>
      <trkpt lat="59.562711036529" lon="17.90690424363">
        <ele>23.6</ele>
        <time>2018-12-15T10:11:06Z</time>
        <extensions><gpxtpx:TrackPointExtension><gpxtpx:hr>169</gpxtpx:hr></gpxtpx:TrackPointExtension></extensions>
      </trkpt>
      <trkpt lat="59.562837770857" lon="17.90696459331">
        <ele>24.8</ele>
        <time>2018-12-15T10:11:11Z</time>
        <extensions><gpxtpx:TrackPointExtension><gpxtpx:hr>170</gpxtpx:hr></gpxtpx:TrackPointExtension></extensions>
      </trkpt>
      <trkpt lat="59.562935922906" lon="17.907007173362">
        <ele>25.8</ele>
        <time>2018-12-15T10:11:15Z</time>
        <extensions><gpxtpx:TrackPointExtension><gpxtpx:hr>170</gpxtpx:hr></gpxtpx:TrackPointExtension></extensions>
      </trkpt>
      <trkpt lat="59.563403381469" lon="17.907328954503">
        <ele>26.8</ele>
        <time>2018-12-15T10:11:31Z</time>
        <extensions><gpxtpx:TrackPointExtension><gpxtpx:hr>168</gpxtpx:hr></gpxtpx:TrackPointExtension></extensions>
      </trkpt>
      <trkpt lat="59.563735723804" lon="17.907562558056">
        <ele>26.2</ele>
        <time>2018-12-15T10:11:39Z</time>
        <extensions><gpxtpx:TrackPointExtension><gpxtpx:hr>165</gpxtpx:hr></gpxtpx:TrackPointExtension></extensions>
      </trkpt>
      <trkpt lat="59.563826835057" lon="17.907653501671">
        <ele>26</ele>
        <time>2018-12-15T10:11:41Z</time>
        <extensions><gpxtpx:TrackPointExtension><gpxtpx:hr>165</gpxtpx:hr></gpxtpx:TrackPointExtension></extensions>
      </trkpt>
      <trkpt lat="59.563876791181" lon="17.907683508873">
        <ele>25.6</ele>
        <time>2018-12-15T10:11:42Z</time>
        <extensions><gpxtpx:TrackPointExtension><gpxtpx:hr>164</gpxtpx:hr></gpxtpx:TrackPointExtension></extensions>
      </trkpt>
      <trkpt lat="59.56412497924" lon="17.907924488498">
        <ele>24.4</ele>
        <time>2018-12-15T10:11:47Z</time>
        <extensions><gpxtpx:TrackPointExtension><gpxtpx:hr>161</gpxtpx:hr></gpxtpx:TrackPointExtension></extensions>
      </trkpt>
      <trkpt lat="59.564170912052" lon="17.907971008043">
        <ele>24</ele>
        <time>2018-12-15T10:11:48Z</time>
        <extensions><gpxtpx:TrackPointExtension><gpxtpx:hr>162</gpxtpx:hr></gpxtpx:TrackPointExtension></extensions>
      </trkpt>
      <trkpt lat="59.564259760192" lon="17.908044098211">
        <ele>22.6</ele>
        <time>2018-12-15T10:11:50Z</time>
        <extensions><gpxtpx:TrackPointExtension><gpxtpx:hr>160</gpxtpx:hr></gpxtpx:TrackPointExtension></extensions>
      </trkpt>
      <trkpt lat="59.564351961092" lon="17.908104364072">
        <ele>21.6</ele>
        <time>2018-12-15T10:11:52Z</time>
        <extensions><gpxtpx:TrackPointExtension><gpxtpx:hr>160</gpxtpx:hr></gpxtpx:TrackPointExtension></extensions>
      </trkpt>
      <trkpt lat="59.564402336311" lon="17.908116014913">
        <ele>21</ele>
        <time>2018-12-15T10:11:53Z</time>
        <extensions><gpxtpx:TrackPointExtension><gpxtpx:hr>159</gpxtpx:hr></gpxtpx:TrackPointExtension></extensions>
      </trkpt>
      <trkpt lat="59.564582966256" lon="17.908033872293">
        <ele>20.4</ele>
        <time>2018-12-15T10:11:56Z</time>
        <extensions><gpxtpx:TrackPointExtension><gpxtpx:hr>155</gpxtpx:hr></gpxtpx:TrackPointExtension></extensions>
      </trkpt>
      <trkpt lat="59.564777510155" lon="17.907962709962">
        <ele>19.6</ele>
        <time>2018-12-15T10:11:59Z</time>
        <extensions><gpxtpx:TrackPointExtension><gpxtpx:hr>152</gpxtpx:hr></gpxtpx:TrackPointExtension></extensions>
      </trkpt>
      <trkpt lat="59.56484163169" lon="17.907947622542">
        <ele>19.2</ele>
        <time>2018-12-15T10:12:00Z</time>
        <extensions><gpxtpx:TrackPointExtension><gpxtpx:hr>151</gpxtpx:hr></gpxtpx:TrackPointExtension></extensions>
      </trkpt>
      <trkpt lat="59.56496400743" lon="17.907984921997">
        <ele>18.2</ele>
        <time>2018-12-15T10:12:02Z</time>
        <extensions><gpxtpx:TrackPointExtension><gpxtpx:hr>148</gpxtpx:hr></gpxtpx:TrackPointExtension></extensions>
      </trkpt>
      <trkpt lat="59.565028464241" lon="17.908032782646">
        <ele>17.6</ele>
        <time>2018-12-15T10:12:03Z</time>
        <extensions><gpxtpx:TrackPointExtension><gpxtpx:hr>147</gpxtpx:hr></gpxtpx:TrackPointExtension></extensions>
      </trkpt>
      <trkpt lat="59.565163580469" lon="17.908136885844">
        <ele>16.6</ele>
        <time>2018-12-15T10:12:05Z</time>
        <extensions><gpxtpx:TrackPointExtension><gpxtpx:hr>143</gpxtpx:hr></gpxtpx:TrackPointExtension></extensions>
      </trkpt>
      <trkpt lat="59.565293332281" lon="17.908255992643">
        <ele>15.4</ele>
        <time>2018-12-15T10:12:07Z</time>
        <extensions><gpxtpx:TrackPointExtension><gpxtpx:hr>140</gpxtpx:hr></gpxtpx:TrackPointExtension></extensions>
      </trkpt>
      <trkpt lat="59.565559792882" lon="17.908476771889">
        <ele>13.8</ele>
        <time>2018-12-15T10:12:11Z</time>
        <extensions><gpxtpx:TrackPointExtension><gpxtpx:hr>139</gpxtpx:hr></gpxtpx:TrackPointExtension></extensions>
      </trkpt>
      <trkpt lat="59.565685856658" lon="17.908577438508">
        <ele>12.8</ele>
        <time>2018-12-15T10:12:13Z</time>
        <extensions><gpxtpx:TrackPointExtension><gpxtpx:hr>141</gpxtpx:hr></gpxtpx:TrackPointExtension></extensions>
      </trkpt>
      <trkpt lat="59.565806220742" lon="17.908681290249">
        <ele>12</ele>
        <time>2018-12-15T10:12:15Z</time>
        <extensions><gpxtpx:TrackPointExtension><gpxtpx:hr>144</gpxtpx:hr></gpxtpx:TrackPointExtension></extensions>
      </trkpt>
      <trkpt lat="59.56608382927" lon="17.908915731992">
        <ele>11.8</ele>
        <time>2018-12-15T10:12:20Z</time>
        <extensions><gpxtpx:TrackPointExtension><gpxtpx:hr>141</gpxtpx:hr></gpxtpx:TrackPointExtension></extensions>
      </trkpt>
      <trkpt lat="59.566123559476" lon="17.908933082525">
        <ele>11.8</ele>
        <time>2018-12-15T10:12:21Z</time>
        <extensions><gpxtpx:TrackPointExtension><gpxtpx:hr>140</gpxtpx:hr></gpxtpx:TrackPointExtension></extensions>
      </trkpt>
      <trkpt lat="59.566273344029" lon="17.908602668027">
        <ele>12.2</ele>
        <time>2018-12-15T10:12:27Z</time>
        <extensions><gpxtpx:TrackPointExtension><gpxtpx:hr>137</gpxtpx:hr></gpxtpx:TrackPointExtension></extensions>
      </trkpt>
      <trkpt lat="59.566158847275" lon="17.908133952179">
        <ele>12.6</ele>
        <time>2018-12-15T10:12:33Z</time>
        <extensions><gpxtpx:TrackPointExtension><gpxtpx:hr>134</gpxtpx:hr></gpxtpx:TrackPointExtension></extensions>
      </trkpt>
      <trkpt lat="59.566017779898" lon="17.907612095085">
        <ele>12.6</ele>
        <time>2018-12-15T10:12:38Z</time>
        <extensions><gpxtpx:TrackPointExtension><gpxtpx:hr>135</gpxtpx:hr></gpxtpx:TrackPointExtension></extensions>
      </trkpt>
      <trkpt lat="59.565897834909" lon="17.907333648367">
        <ele>12</ele>
        <time>2018-12-15T10:12:41Z</time>
        <extensions><gpxtpx:TrackPointExtension><gpxtpx:hr>130</gpxtpx:hr></gpxtpx:TrackPointExtension></extensions>
      </trkpt>
      <trkpt lat="59.565849052251" lon="17.907243542942">
        <ele>11.6</ele>
        <time>2018-12-15T10:12:42Z</time>
        <extensions><gpxtpx:TrackPointExtension><gpxtpx:hr>130</gpxtpx:hr></gpxtpx:TrackPointExtension></extensions>
      </trkpt>
      <trkpt lat="59.565745535786" lon="17.907057045667">
        <ele>10.4</ele>
        <time>2018-12-15T10:12:44Z</time>
        <extensions><gpxtpx:TrackPointExtension><gpxtpx:hr>127</gpxtpx:hr></gpxtpx:TrackPointExtension></extensions>
      </trkpt>
      <trkpt lat="59.565655765637" lon="17.906882618328">
        <ele>9.4</ele>
        <time>2018-12-15T10:12:46Z</time>
        <extensions><gpxtpx:TrackPointExtension><gpxtpx:hr>124</gpxtpx:hr></gpxtpx:TrackPointExtension></extensions>
      </trkpt>
      <trkpt lat="59.565614861965" lon="17.906808438513">
        <ele>8.6</ele>
        <time>2018-12-15T10:12:47Z</time>
        <extensions><gpxtpx:TrackPointExtension><gpxtpx:hr>122</gpxtpx:hr></gpxtpx:TrackPointExtension></extensions>
      </trkpt>
      <trkpt lat="59.565582172555" lon="17.906723948961">
        <ele>8.2</ele>
        <time>2018-12-15T10:12:48Z</time>
        <extensions><gpxtpx:TrackPointExtension><gpxtpx:hr>121</gpxtpx:hr></gpxtpx:TrackPointExtension></extensions>
      </trkpt>
      <trkpt lat="59.565557865045" lon="17.906457991274">
        <ele>7</ele>
        <time>2018-12-15T10:12:51Z</time>
        <extensions><gpxtpx:TrackPointExtension><gpxtpx:hr>121</gpxtpx:hr></gpxtpx:TrackPointExtension></extensions>
      </trkpt>
      <trkpt lat="59.56561109011" lon="17.906393283006">
        <ele>5.8</ele>
        <time>2018-12-15T10:12:53Z</time>
        <extensions><gpxtpx:TrackPointExtension><gpxtpx:hr>117</gpxtpx:hr></gpxtpx:TrackPointExtension></extensions>
      </trkpt>
      <trkpt lat="59.565681665708" lon="17.906436365972">
        <ele>4.4</ele>
        <time>2018-12-15T10:12:55Z</time>
        <extensions><gpxtpx:TrackPointExtension><gpxtpx:hr>119</gpxtpx:hr></gpxtpx:TrackPointExtension></extensions>
      </trkpt>
      <trkpt lat="59.565723910484" lon="17.906471653771">
        <ele>3.8</ele>
        <time>2018-12-15T10:12:56Z</time>
        <extensions><gpxtpx:TrackPointExtension><gpxtpx:hr>121</gpxtpx:hr></gpxtpx:TrackPointExtension></extensions>
      </trkpt>
      <trkpt lat="59.565825750569" lon="17.906548934889">
        <ele>2.8</ele>
        <time>2018-12-15T10:12:58Z</time>
        <extensions><gpxtpx:TrackPointExtension><gpxtpx:hr>123</gpxtpx:hr></gpxtpx:TrackPointExtension></extensions>
      </trkpt>
      <trkpt lat="59.565974780751" lon="17.906651026431">
        <ele>1.6</ele>
        <time>2018-12-15T10:13:01Z</time>
        <extensions><gpxtpx:TrackPointExtension><gpxtpx:hr>127</gpxtpx:hr></gpxtpx:TrackPointExtension></extensions>
      </trkpt>
      <trkpt lat="59.566079303044" lon="17.906722440219">
        <ele>0.8</ele>
        <time>2018-12-15T10:13:03Z</time>
        <extensions><gpxtpx:TrackPointExtension><gpxtpx:hr>130</gpxtpx:hr></gpxtpx:TrackPointExtension></extensions>
      </trkpt>
      <trkpt lat="59.566180891672" lon="17.906791842351">
        <ele>0.2</ele>
        <time>2018-12-15T10:13:05Z</time>
        <extensions><gpxtpx:TrackPointExtension><gpxtpx:hr>132</gpxtpx:hr></gpxtpx:TrackPointExtension></extensions>
      </trkpt>
      <trkpt lat="59.56630008229" lon="17.906870129297">
        <ele>0</ele>
        <time>2018-12-15T10:13:11Z</time>
        <extensions><gpxtpx:TrackPointExtension><gpxtpx:hr>134</gpxtpx:hr></gpxtpx:TrackPointExtension></extensions>
      </trkpt>
      <trkpt lat="59.566326820551" lon="17.906866776537">
        <ele>1</ele>
        <time>2018-12-15T10:14:00Z</time>
        <extensions><gpxtpx:TrackPointExtension><gpxtpx:hr>122</gpxtpx:hr></gpxtpx:TrackPointExtension></extensions>
      </trkpt>
      <trkpt lat="59.566345093093" lon="17.90687742155">
        <ele>1</ele>
        <time>2018-12-15T10:14:01Z</time>
        <extensions><gpxtpx:TrackPointExtension><gpxtpx:hr>122</gpxtpx:hr></gpxtpx:TrackPointExtension></extensions>
      </trkpt>
      <trkpt lat="59.566737114556" lon="17.907137511907">
        <ele>0.8</ele>
        <time>2018-12-15T10:14:11Z</time>
        <extensions><gpxtpx:TrackPointExtension><gpxtpx:hr>126</gpxtpx:hr></gpxtpx:TrackPointExtension></extensions>
      </trkpt>
      <trkpt lat="59.566868794205" lon="17.907240106363">
        <ele>0</ele>
        <time>2018-12-15T10:14:14Z</time>
        <extensions><gpxtpx:TrackPointExtension><gpxtpx:hr>129</gpxtpx:hr></gpxtpx:TrackPointExtension></extensions>
      </trkpt>
      <trkpt lat="59.56700248551" lon="17.907329289779">
        <ele>0</ele>
        <time>2018-12-15T10:14:17Z</time>
        <extensions><gpxtpx:TrackPointExtension><gpxtpx:hr>132</gpxtpx:hr></gpxtpx:TrackPointExtension></extensions>
      </trkpt>
      <trkpt lat="59.567087477976" lon="17.907375725505">
        <ele>0</ele>
        <time>2018-12-15T10:14:19Z</time>
        <extensions><gpxtpx:TrackPointExtension><gpxtpx:hr>133</gpxtpx:hr></gpxtpx:TrackPointExtension></extensions>
      </trkpt>
      <trkpt lat="59.567226617516" lon="17.907371534555">
        <ele>0</ele>
        <time>2018-12-15T10:14:22Z</time>
        <extensions><gpxtpx:TrackPointExtension><gpxtpx:hr>136</gpxtpx:hr></gpxtpx:TrackPointExtension></extensions>
      </trkpt>
      <trkpt lat="59.56737128911" lon="17.907018153651">
        <ele>0</ele>
        <time>2018-12-15T10:14:27Z</time>
        <extensions><gpxtpx:TrackPointExtension><gpxtpx:hr>139</gpxtpx:hr></gpxtpx:TrackPointExtension></extensions>
      </trkpt>
      <trkpt lat="59.567383694322" lon="17.90692855114">
        <ele>0</ele>
        <time>2018-12-15T10:14:28Z</time>
        <extensions><gpxtpx:TrackPointExtension><gpxtpx:hr>139</gpxtpx:hr></gpxtpx:TrackPointExtension></extensions>
      </trkpt>
      <trkpt lat="59.567431890247" lon="17.906605931809">
        <ele>0</ele>
        <time>2018-12-15T10:14:32Z</time>
        <extensions><gpxtpx:TrackPointExtension><gpxtpx:hr>136</gpxtpx:hr></gpxtpx:TrackPointExtension></extensions>
      </trkpt>
      <trkpt lat="59.567476481955" lon="17.906306195065">
        <ele>0</ele>
        <time>2018-12-15T10:14:37Z</time>
        <extensions><gpxtpx:TrackPointExtension><gpxtpx:hr>133</gpxtpx:hr></gpxtpx:TrackPointExtension></extensions>
      </trkpt>
      <trkpt lat="59.567642359756" lon="17.905259379574">
        <ele>0</ele>
        <time>2018-12-15T10:14:55Z</time>
        <extensions><gpxtpx:TrackPointExtension><gpxtpx:hr>135</gpxtpx:hr></gpxtpx:TrackPointExtension></extensions>
      </trkpt>
      <trkpt lat="59.567751911189" lon="17.904591090687">
        <ele>0</ele>
        <time>2018-12-15T10:15:06Z</time>
        <extensions><gpxtpx:TrackPointExtension><gpxtpx:hr>132</gpxtpx:hr></gpxtpx:TrackPointExtension></extensions>
      </trkpt>
      <trkpt lat="59.567817960561" lon="17.904206445296">
        <ele>0</ele>
        <time>2018-12-15T10:15:13Z</time>
        <extensions><gpxtpx:TrackPointExtension><gpxtpx:hr>128</gpxtpx:hr></gpxtpx:TrackPointExtension></extensions>
      </trkpt>
      <trkpt lat="59.567854170369" lon="17.904005279696">
        <ele>0</ele>
        <time>2018-12-15T10:15:16Z</time>
        <extensions><gpxtpx:TrackPointExtension><gpxtpx:hr>125</gpxtpx:hr></gpxtpx:TrackPointExtension></extensions>
      </trkpt>
      <trkpt lat="59.567965482001" lon="17.903629351481">
        <ele>0</ele>
        <time>2018-12-15T10:15:22Z</time>
        <extensions><gpxtpx:TrackPointExtension><gpxtpx:hr>122</gpxtpx:hr></gpxtpx:TrackPointExtension></extensions>
      </trkpt>
      <trkpt lat="59.568038236893" lon="17.90353639621">
        <ele>0</ele>
        <time>2018-12-15T10:15:25Z</time>
        <extensions><gpxtpx:TrackPointExtension><gpxtpx:hr>118</gpxtpx:hr></gpxtpx:TrackPointExtension></extensions>
      </trkpt>
      <trkpt lat="59.568192463853" lon="17.903524913007">
        <ele>0</ele>
        <time>2018-12-15T10:15:31Z</time>
        <extensions><gpxtpx:TrackPointExtension><gpxtpx:hr>115</gpxtpx:hr></gpxtpx:TrackPointExtension></extensions>
      </trkpt>
      <trkpt lat="59.568271756627" lon="17.903548885241">
        <ele>0</ele>
        <time>2018-12-15T10:15:34Z</time>
        <extensions><gpxtpx:TrackPointExtension><gpxtpx:hr>111</gpxtpx:hr></gpxtpx:TrackPointExtension></extensions>
      </trkpt>
      <trkpt lat="59.568545760938" lon="17.903577718977">
        <ele>0</ele>
        <time>2018-12-15T10:15:41Z</time>
        <extensions><gpxtpx:TrackPointExtension><gpxtpx:hr>114</gpxtpx:hr></gpxtpx:TrackPointExtension></extensions>
      </trkpt>
      <trkpt lat="59.568686995953" lon="17.903586184696">
        <ele>0</ele>
        <time>2018-12-15T10:15:44Z</time>
        <extensions><gpxtpx:TrackPointExtension><gpxtpx:hr>117</gpxtpx:hr></gpxtpx:TrackPointExtension></extensions>
      </trkpt>
      <trkpt lat="59.568783387803" lon="17.903601691211">
        <ele>0</ele>
        <time>2018-12-15T10:15:46Z</time>
        <extensions><gpxtpx:TrackPointExtension><gpxtpx:hr>119</gpxtpx:hr></gpxtpx:TrackPointExtension></extensions>
      </trkpt>
      <trkpt lat="59.568926885931" lon="17.903656760294">
        <ele>0</ele>
        <time>2018-12-15T10:15:49Z</time>
        <extensions><gpxtpx:TrackPointExtension><gpxtpx:hr>122</gpxtpx:hr></gpxtpx:TrackPointExtension></extensions>
      </trkpt>
      <trkpt lat="59.569071892801" lon="17.903741333665">
        <ele>0</ele>
        <time>2018-12-15T10:15:52Z</time>
        <extensions><gpxtpx:TrackPointExtension><gpxtpx:hr>125</gpxtpx:hr></gpxtpx:TrackPointExtension></extensions>
      </trkpt>
      <trkpt lat="59.569260737008" lon="17.903859350817">
        <ele>0</ele>
        <time>2018-12-15T10:15:56Z</time>
        <extensions><gpxtpx:TrackPointExtension><gpxtpx:hr>128</gpxtpx:hr></gpxtpx:TrackPointExtension></extensions>
      </trkpt>
      <trkpt lat="59.569656697964" lon="17.903981894195">
        <ele>0</ele>
        <time>2018-12-15T10:16:06Z</time>
        <extensions><gpxtpx:TrackPointExtension><gpxtpx:hr>130</gpxtpx:hr></gpxtpx:TrackPointExtension></extensions>
      </trkpt>
      <trkpt lat="59.569805225232" lon="17.904070239421">
        <ele>0</ele>
        <time>2018-12-15T10:16:09Z</time>
        <extensions><gpxtpx:TrackPointExtension><gpxtpx:hr>131</gpxtpx:hr></gpxtpx:TrackPointExtension></extensions>
      </trkpt>
      <trkpt lat="59.569972695594" lon="17.904119022079">
        <ele>0</ele>
        <time>2018-12-15T10:16:12Z</time>
        <extensions><gpxtpx:TrackPointExtension><gpxtpx:hr>134</gpxtpx:hr></gpxtpx:TrackPointExtension></extensions>
      </trkpt>
      <trkpt lat="59.570182662189" lon="17.904183981804">
        <ele>0</ele>
        <time>2018-12-15T10:16:16Z</time>
        <extensions><gpxtpx:TrackPointExtension><gpxtpx:hr>137</gpxtpx:hr></gpxtpx:TrackPointExtension></extensions>
      </trkpt>
      <trkpt lat="59.570283328808" lon="17.90421784468">
        <ele>0</ele>
        <time>2018-12-15T10:16:18Z</time>
        <extensions><gpxtpx:TrackPointExtension><gpxtpx:hr>140</gpxtpx:hr></gpxtpx:TrackPointExtension></extensions>
      </trkpt>
      <trkpt lat="59.570435376474" lon="17.904267130252">
        <ele>0</ele>
        <time>2018-12-15T10:16:21Z</time>
        <extensions><gpxtpx:TrackPointExtension><gpxtpx:hr>143</gpxtpx:hr></gpxtpx:TrackPointExtension></extensions>
      </trkpt>
      <trkpt lat="59.570584993389" lon="17.904322115516">
        <ele>0</ele>
        <time>2018-12-15T10:16:24Z</time>
        <extensions><gpxtpx:TrackPointExtension><gpxtpx:hr>146</gpxtpx:hr></gpxtpx:TrackPointExtension></extensions>
      </trkpt>
      <trkpt lat="59.570992605186" lon="17.904486987489">
        <ele>0</ele>
        <time>2018-12-15T10:16:32Z</time>
        <extensions><gpxtpx:TrackPointExtension><gpxtpx:hr>149</gpxtpx:hr></gpxtpx:TrackPointExtension></extensions>
      </trkpt>
      <trkpt lat="59.571520413429" lon="17.90470483307">
        <ele>0</ele>
        <time>2018-12-15T10:16:42Z</time>
        <extensions><gpxtpx:TrackPointExtension><gpxtpx:hr>148</gpxtpx:hr></gpxtpx:TrackPointExtension></extensions>
      </trkpt>
      <trkpt lat="59.572071439535" lon="17.904970036386">
        <ele>0</ele>
        <time>2018-12-15T10:16:52Z</time>
        <extensions><gpxtpx:TrackPointExtension><gpxtpx:hr>148</gpxtpx:hr></gpxtpx:TrackPointExtension></extensions>
      </trkpt>
      <trkpt lat="59.572634787034" lon="17.905246639086">
        <ele>0</ele>
        <time>2018-12-15T10:17:02Z</time>
        <extensions><gpxtpx:TrackPointExtension><gpxtpx:hr>146</gpxtpx:hr></gpxtpx:TrackPointExtension></extensions>
      </trkpt>
      <trkpt lat="59.573198050714" lon="17.905523660881">
        <ele>0</ele>
        <time>2018-12-15T10:17:12Z</time>
        <extensions><gpxtpx:TrackPointExtension><gpxtpx:hr>146</gpxtpx:hr></gpxtpx:TrackPointExtension></extensions>
      </trkpt>
      <trkpt lat="59.573634412428" lon="17.905757934986">
        <ele>0</ele>
        <time>2018-12-15T10:17:20Z</time>
        <extensions><gpxtpx:TrackPointExtension><gpxtpx:hr>148</gpxtpx:hr></gpxtpx:TrackPointExtension></extensions>
      </trkpt>
      <trkpt lat="59.573748909182" lon="17.90625548457">
        <ele>0</ele>
        <time>2018-12-15T10:17:26Z</time>
        <extensions><gpxtpx:TrackPointExtension><gpxtpx:hr>147</gpxtpx:hr></gpxtpx:TrackPointExtension></extensions>
      </trkpt>
      <trkpt lat="59.573734408495" lon="17.90738787926">
        <ele>0</ele>
        <time>2018-12-15T10:17:36Z</time>
        <extensions><gpxtpx:TrackPointExtension><gpxtpx:hr>145</gpxtpx:hr></gpxtpx:TrackPointExtension></extensions>
      </trkpt>
      <trkpt lat="59.573699791248" lon="17.908554388283">
        <ele>0</ele>
        <time>2018-12-15T10:17:46Z</time>
        <extensions><gpxtpx:TrackPointExtension><gpxtpx:hr>146</gpxtpx:hr></gpxtpx:TrackPointExtension></extensions>
      </trkpt>
      <trkpt lat="59.57370129999" lon="17.909136092143">
        <ele>0</ele>
        <time>2018-12-15T10:17:51Z</time>
        <extensions><gpxtpx:TrackPointExtension><gpxtpx:hr>146</gpxtpx:hr></gpxtpx:TrackPointExtension></extensions>
      </trkpt>
      <trkpt lat="59.573870698189" lon="17.909763058263">
        <ele>0</ele>
        <time>2018-12-15T10:17:58Z</time>
        <extensions><gpxtpx:TrackPointExtension><gpxtpx:hr>143</gpxtpx:hr></gpxtpx:TrackPointExtension></extensions>
      </trkpt>
      <trkpt lat="59.57409273472" lon="17.909863641063">
        <ele>0</ele>
        <time>2018-12-15T10:18:03Z</time>
        <extensions><gpxtpx:TrackPointExtension><gpxtpx:hr>140</gpxtpx:hr></gpxtpx:TrackPointExtension></extensions>
      </trkpt>
      <trkpt lat="59.574194071891" lon="17.909904796192">
        <ele>0</ele>
        <time>2018-12-15T10:18:06Z</time>
        <extensions><gpxtpx:TrackPointExtension><gpxtpx:hr>137</gpxtpx:hr></gpxtpx:TrackPointExtension></extensions>
      </trkpt>
      <trkpt lat="59.57421343408" lon="17.910087102517">
        <ele>0</ele>
        <time>2018-12-15T10:18:09Z</time>
        <extensions><gpxtpx:TrackPointExtension><gpxtpx:hr>133</gpxtpx:hr></gpxtpx:TrackPointExtension></extensions>
      </trkpt>
      <trkpt lat="59.574135147134" lon="17.910350210358">
        <ele>0</ele>
        <time>2018-12-15T10:18:16Z</time>
        <extensions><gpxtpx:TrackPointExtension><gpxtpx:hr>133</gpxtpx:hr></gpxtpx:TrackPointExtension></extensions>
      </trkpt>
      <trkpt lat="59.574098015317" lon="17.910482644378">
        <ele>0.8</ele>
        <time>2018-12-15T10:18:58Z</time>
        <extensions><gpxtpx:TrackPointExtension><gpxtpx:hr>110</gpxtpx:hr></gpxtpx:TrackPointExtension></extensions>
      </trkpt>
      <trkpt lat="59.574089465779" lon="17.910511897209">
        <ele>0.8</ele>
        <time>2018-12-15T10:18:59Z</time>
        <extensions><gpxtpx:TrackPointExtension><gpxtpx:hr>110</gpxtpx:hr></gpxtpx:TrackPointExtension></extensions>
      </trkpt>
      <trkpt lat="59.574047723917" lon="17.910668890196">
        <ele>0.6</ele>
        <time>2018-12-15T10:19:03Z</time>
        <extensions><gpxtpx:TrackPointExtension><gpxtpx:hr>107</gpxtpx:hr></gpxtpx:TrackPointExtension></extensions>
      </trkpt>
      <trkpt lat="59.573985697857" lon="17.910905846509">
        <ele>0.4</ele>
        <time>2018-12-15T10:19:09Z</time>
        <extensions><gpxtpx:TrackPointExtension><gpxtpx:hr>104</gpxtpx:hr></gpxtpx:TrackPointExtension></extensions>
      </trkpt>
      <trkpt lat="59.573984440572" lon="17.910914228409">
        <ele>0.4</ele>
        <time>2018-12-15T10:19:11Z</time>
        <extensions><gpxtpx:TrackPointExtension><gpxtpx:hr>102</gpxtpx:hr></gpxtpx:TrackPointExtension></extensions>
      </trkpt>
      <trkpt lat="59.573972538274" lon="17.91099377264">
        <ele>0.4</ele>
        <time>2018-12-15T10:19:19Z</time>
        <extensions><gpxtpx:TrackPointExtension><gpxtpx:hr>112</gpxtpx:hr></gpxtpx:TrackPointExtension></extensions>
      </trkpt>
      <trkpt lat="59.573962479994" lon="17.911051859207">
        <ele>0.4</ele>
        <time>2018-12-15T10:19:21Z</time>
        <extensions><gpxtpx:TrackPointExtension><gpxtpx:hr>115</gpxtpx:hr></gpxtpx:TrackPointExtension></extensions>
      </trkpt>
      <trkpt lat="59.573854856398" lon="17.911620319665">
        <ele>0.2</ele>
        <time>2018-12-15T10:19:33Z</time>
        <extensions><gpxtpx:TrackPointExtension><gpxtpx:hr>112</gpxtpx:hr></gpxtpx:TrackPointExtension></extensions>
      </trkpt>
      <trkpt lat="59.573808085396" lon="17.911839087255">
        <ele>0.2</ele>
        <time>2018-12-15T10:19:36Z</time>
        <extensions><gpxtpx:TrackPointExtension><gpxtpx:hr>109</gpxtpx:hr></gpxtpx:TrackPointExtension></extensions>
      </trkpt>
      <trkpt lat="59.573697192859" lon="17.912246196138">
        <ele>0.2</ele>
        <time>2018-12-15T10:19:42Z</time>
        <extensions><gpxtpx:TrackPointExtension><gpxtpx:hr>112</gpxtpx:hr></gpxtpx:TrackPointExtension></extensions>
      </trkpt>
      <trkpt lat="59.573344733964" lon="17.912536209878">
        <ele>0.8</ele>
        <time>2018-12-15T10:19:56Z</time>
        <extensions><gpxtpx:TrackPointExtension><gpxtpx:hr>113</gpxtpx:hr></gpxtpx:TrackPointExtension></extensions>
      </trkpt>
      <trkpt lat="59.573398294305" lon="17.912591195142">
        <ele>1.6</ele>
        <time>2018-12-15T10:20:07Z</time>
        <extensions><gpxtpx:TrackPointExtension><gpxtpx:hr>113</gpxtpx:hr></gpxtpx:TrackPointExtension></extensions>
      </trkpt>
      <trkpt lat="59.573530225411" lon="17.912568815469">
        <ele>1.6</ele>
        <time>2018-12-15T10:20:12Z</time>
        <extensions><gpxtpx:TrackPointExtension><gpxtpx:hr>109</gpxtpx:hr></gpxtpx:TrackPointExtension></extensions>
      </trkpt>
      <trkpt lat="59.573606835977" lon="17.91251005835">
        <ele>1.6</ele>
        <time>2018-12-15T10:20:15Z</time>
        <extensions><gpxtpx:TrackPointExtension><gpxtpx:hr>106</gpxtpx:hr></gpxtpx:TrackPointExtension></extensions>
      </trkpt>
      <trkpt lat="59.573837673503" lon="17.911946878489">
        <ele>1.2</ele>
        <time>2018-12-15T10:20:27Z</time>
        <extensions><gpxtpx:TrackPointExtension><gpxtpx:hr>109</gpxtpx:hr></gpxtpx:TrackPointExtension></extensions>
      </trkpt>
      <trkpt lat="59.57388653998" lon="17.911893904881">
        <ele>1</ele>
        <time>2018-12-15T10:20:30Z</time>
        <extensions><gpxtpx:TrackPointExtension><gpxtpx:hr>106</gpxtpx:hr></gpxtpx:TrackPointExtension></extensions>
      </trkpt>
      <trkpt lat="59.573906237445" lon="17.911888037551">
        <ele>0.6</ele>
        <time>2018-12-15T10:20:34Z</time>
        <extensions><gpxtpx:TrackPointExtension><gpxtpx:hr>105</gpxtpx:hr></gpxtpx:TrackPointExtension></extensions>
      </trkpt>
      <trkpt lat="59.573927192195" lon="17.911937490761">
        <ele>0.4</ele>
        <time>2018-12-15T10:20:40Z</time>
        <extensions><gpxtpx:TrackPointExtension><gpxtpx:hr>102</gpxtpx:hr></gpxtpx:TrackPointExtension></extensions>
      </trkpt>
      <trkpt lat="59.573925515815" lon="17.91198702779">
        <ele>0.4</ele>
        <time>2018-12-15T10:20:42Z</time>
        <extensions><gpxtpx:TrackPointExtension><gpxtpx:hr>105</gpxtpx:hr></gpxtpx:TrackPointExtension></extensions>
      </trkpt>
      <trkpt lat="59.573925012901" lon="17.912019381924">
        <ele>0.4</ele>
        <time>2018-12-15T10:20:43Z</time>
        <extensions><gpxtpx:TrackPointExtension><gpxtpx:hr>108</gpxtpx:hr></gpxtpx:TrackPointExtension></extensions>
      </trkpt>
      <trkpt lat="59.573921911598" lon="17.912186349372">
        <ele>0.4</ele>
        <time>2018-12-15T10:20:46Z</time>
        <extensions><gpxtpx:TrackPointExtension><gpxtpx:hr>111</gpxtpx:hr></gpxtpx:TrackPointExtension></extensions>
      </trkpt>
      <trkpt lat="59.573923923254" lon="17.912499078061">
        <ele>0.2</ele>
        <time>2018-12-15T10:20:53Z</time>
        <extensions><gpxtpx:TrackPointExtension><gpxtpx:hr>109</gpxtpx:hr></gpxtpx:TrackPointExtension></extensions>
      </trkpt>
      <trkpt lat="59.573920654313" lon="17.912726981922">
        <ele>0</ele>
        <time>2018-12-15T10:20:58Z</time>
        <extensions><gpxtpx:TrackPointExtension><gpxtpx:hr>110</gpxtpx:hr></gpxtpx:TrackPointExtension></extensions>
      </trkpt>
      <trkpt lat="59.573938004846" lon="17.912915658491">
        <ele>0</ele>
        <time>2018-12-15T10:21:02Z</time>
        <extensions><gpxtpx:TrackPointExtension><gpxtpx:hr>107</gpxtpx:hr></gpxtpx:TrackPointExtension></extensions>
      </trkpt>
      <trkpt lat="59.573941609063" lon="17.912948347901">
        <ele>0</ele>
        <time>2018-12-15T10:21:03Z</time>
        <extensions><gpxtpx:TrackPointExtension><gpxtpx:hr>107</gpxtpx:hr></gpxtpx:TrackPointExtension></extensions>
      </trkpt>
      <trkpt lat="59.573947392574" lon="17.913120512127">
        <ele>0</ele>
        <time>2018-12-15T10:21:09Z</time>
        <extensions><gpxtpx:TrackPointExtension><gpxtpx:hr>109</gpxtpx:hr></gpxtpx:TrackPointExtension></extensions>
      </trkpt>
      <trkpt lat="59.573939681226" lon="17.913025377562">
        <ele>0.4</ele>
        <time>2018-12-15T10:21:27Z</time>
        <extensions><gpxtpx:TrackPointExtension><gpxtpx:hr>115</gpxtpx:hr></gpxtpx:TrackPointExtension></extensions>
      </trkpt>
      <trkpt lat="59.573938340122" lon="17.912986737003">
        <ele>0.4</ele>
        <time>2018-12-15T10:21:28Z</time>
        <extensions><gpxtpx:TrackPointExtension><gpxtpx:hr>114</gpxtpx:hr></gpxtpx:TrackPointExtension></extensions>
      </trkpt>
      <trkpt lat="59.573950577696" lon="17.912728406845">
        <ele>0.4</ele>
        <time>2018-12-15T10:21:34Z</time>
        <extensions><gpxtpx:TrackPointExtension><gpxtpx:hr>111</gpxtpx:hr></gpxtpx:TrackPointExtension></extensions>
      </trkpt>
      <trkpt lat="59.573923923254" lon="17.912328841672">
        <ele>0.4</ele>
        <time>2018-12-15T10:21:40Z</time>
        <extensions><gpxtpx:TrackPointExtension><gpxtpx:hr>111</gpxtpx:hr></gpxtpx:TrackPointExtension></extensions>
      </trkpt>
      <trkpt lat="59.573934484448" lon="17.912090041341">
        <ele>0.2</ele>
        <time>2018-12-15T10:21:43Z</time>
        <extensions><gpxtpx:TrackPointExtension><gpxtpx:hr>108</gpxtpx:hr></gpxtpx:TrackPointExtension></extensions>
      </trkpt>
      <trkpt lat="59.573980165803" lon="17.911853252666">
        <ele>0.2</ele>
        <time>2018-12-15T10:21:47Z</time>
        <extensions><gpxtpx:TrackPointExtension><gpxtpx:hr>107</gpxtpx:hr></gpxtpx:TrackPointExtension></extensions>
      </trkpt>
      <trkpt lat="59.574047891555" lon="17.911855767236">
        <ele>0.4</ele>
        <time>2018-12-15T10:21:50Z</time>
        <extensions><gpxtpx:TrackPointExtension><gpxtpx:hr>110</gpxtpx:hr></gpxtpx:TrackPointExtension></extensions>
      </trkpt>
      <trkpt lat="59.574076641472" lon="17.911872028122">
        <ele>0.4</ele>
        <time>2018-12-15T10:21:51Z</time>
        <extensions><gpxtpx:TrackPointExtension><gpxtpx:hr>111</gpxtpx:hr></gpxtpx:TrackPointExtension></extensions>
      </trkpt>
      <trkpt lat="59.574171776037" lon="17.911948051955">
        <ele>0.4</ele>
        <time>2018-12-15T10:21:54Z</time>
        <extensions><gpxtpx:TrackPointExtension><gpxtpx:hr>114</gpxtpx:hr></gpxtpx:TrackPointExtension></extensions>
      </trkpt>
      <trkpt lat="59.574240088522" lon="17.911986692514">
        <ele>0.4</ele>
        <time>2018-12-15T10:21:56Z</time>
        <extensions><gpxtpx:TrackPointExtension><gpxtpx:hr>117</gpxtpx:hr></gpxtpx:TrackPointExtension></extensions>
      </trkpt>
      <trkpt lat="59.574344024082" lon="17.912028015281">
        <ele>0.6</ele>
        <time>2018-12-15T10:21:59Z</time>
        <extensions><gpxtpx:TrackPointExtension><gpxtpx:hr>120</gpxtpx:hr></gpxtpx:TrackPointExtension></extensions>
      </trkpt>
      <trkpt lat="59.574529599348" lon="17.91205073023">
        <ele>0.8</ele>
        <time>2018-12-15T10:22:04Z</time>
        <extensions><gpxtpx:TrackPointExtension><gpxtpx:hr>123</gpxtpx:hr></gpxtpx:TrackPointExtension></extensions>
      </trkpt>
      <trkpt lat="59.574626829388" lon="17.912057016655">
        <ele>1</ele>
        <time>2018-12-15T10:22:07Z</time>
        <extensions><gpxtpx:TrackPointExtension><gpxtpx:hr>126</gpxtpx:hr></gpxtpx:TrackPointExtension></extensions>
      </trkpt>
      <trkpt lat="59.574680222091" lon="17.912057268112">
        <ele>1.4</ele>
        <time>2018-12-15T10:22:09Z</time>
        <extensions><gpxtpx:TrackPointExtension><gpxtpx:hr>129</gpxtpx:hr></gpxtpx:TrackPointExtension></extensions>
      </trkpt>
      <trkpt lat="59.574724394704" lon="17.912041007226">
        <ele>1.6</ele>
        <time>2018-12-15T10:22:11Z</time>
        <extensions><gpxtpx:TrackPointExtension><gpxtpx:hr>132</gpxtpx:hr></gpxtpx:TrackPointExtension></extensions>
      </trkpt>
      <trkpt lat="59.574762364711" lon="17.912005551789">
        <ele>1.8</ele>
        <time>2018-12-15T10:22:13Z</time>
        <extensions><gpxtpx:TrackPointExtension><gpxtpx:hr>135</gpxtpx:hr></gpxtpx:TrackPointExtension></extensions>
      </trkpt>
      <trkpt lat="59.57481860726" lon="17.911916703649">
        <ele>2.8</ele>
        <time>2018-12-15T10:22:16Z</time>
        <extensions><gpxtpx:TrackPointExtension><gpxtpx:hr>138</gpxtpx:hr></gpxtpx:TrackPointExtension></extensions>
      </trkpt>
      <trkpt lat="59.57483118011" lon="17.911887115542">
        <ele>3.2</ele>
        <time>2018-12-15T10:22:17Z</time>
        <extensions><gpxtpx:TrackPointExtension><gpxtpx:hr>138</gpxtpx:hr></gpxtpx:TrackPointExtension></extensions>
      </trkpt>
      <trkpt lat="59.574875771818" lon="17.911701707914">
        <ele>4.2</ele>
        <time>2018-12-15T10:22:21Z</time>
        <extensions><gpxtpx:TrackPointExtension><gpxtpx:hr>140</gpxtpx:hr></gpxtpx:TrackPointExtension></extensions>
      </trkpt>
      <trkpt lat="59.574964033225" lon="17.91142376411">
        <ele>4.6</ele>
        <time>2018-12-15T10:22:27Z</time>
        <extensions><gpxtpx:TrackPointExtension><gpxtpx:hr>137</gpxtpx:hr></gpxtpx:TrackPointExtension></extensions>
      </trkpt>
      <trkpt lat="59.575046846397" lon="17.911305076406">
        <ele>4.6</ele>
        <time>2018-12-15T10:22:30Z</time>
        <extensions><gpxtpx:TrackPointExtension><gpxtpx:hr>134</gpxtpx:hr></gpxtpx:TrackPointExtension></extensions>
      </trkpt>
      <trkpt lat="59.575195289846" lon="17.911089661576">
        <ele>4.2</ele>
        <time>2018-12-15T10:22:35Z</time>
        <extensions><gpxtpx:TrackPointExtension><gpxtpx:hr>131</gpxtpx:hr></gpxtpx:TrackPointExtension></extensions>
      </trkpt>
      <trkpt lat="59.575238288993" lon="17.911020259444">
        <ele>4</ele>
        <time>2018-12-15T10:22:37Z</time>
        <extensions><gpxtpx:TrackPointExtension><gpxtpx:hr>128</gpxtpx:hr></gpxtpx:TrackPointExtension></extensions>
      </trkpt>
      <trkpt lat="59.575290005316" lon="17.910942894507">
        <ele>4</ele>
        <time>2018-12-15T10:22:40Z</time>
        <extensions><gpxtpx:TrackPointExtension><gpxtpx:hr>124</gpxtpx:hr></gpxtpx:TrackPointExtension></extensions>
      </trkpt>
      <trkpt lat="59.575299141587" lon="17.910926465983">
        <ele>4</ele>
        <time>2018-12-15T10:22:41Z</time>
        <extensions><gpxtpx:TrackPointExtension><gpxtpx:hr>121</gpxtpx:hr></gpxtpx:TrackPointExtension></extensions>
      </trkpt>
      <trkpt lat="59.575310457152" lon="17.910905008319">
        <ele>4</ele>
        <time>2018-12-15T10:22:43Z</time>
        <extensions><gpxtpx:TrackPointExtension><gpxtpx:hr>117</gpxtpx:hr></gpxtpx:TrackPointExtension></extensions>
      </trkpt>
      <trkpt lat="59.575349349168" lon="17.910863015">
        <ele>4.2</ele>
        <time>2018-12-15T10:22:52Z</time>
        <extensions><gpxtpx:TrackPointExtension><gpxtpx:hr>115</gpxtpx:hr></gpxtpx:TrackPointExtension></extensions>
      </trkpt>
      <trkpt lat="59.575437275299" lon="17.910766706969">
        <ele>4.2</ele>
        <time>2018-12-15T10:22:56Z</time>
        <extensions><gpxtpx:TrackPointExtension><gpxtpx:hr>112</gpxtpx:hr></gpxtpx:TrackPointExtension></extensions>
      </trkpt>
      <trkpt lat="59.575678841657" lon="17.910615246036">
        <ele>3.6</ele>
        <time>2018-12-15T10:23:04Z</time>
        <extensions><gpxtpx:TrackPointExtension><gpxtpx:hr>108</gpxtpx:hr></gpxtpx:TrackPointExtension></extensions>
      </trkpt>
      <trkpt lat="59.575744639572" lon="17.910576102563">
        <ele>3.2</ele>
        <time>2018-12-15T10:23:08Z</time>
        <extensions><gpxtpx:TrackPointExtension><gpxtpx:hr>110</gpxtpx:hr></gpxtpx:TrackPointExtension></extensions>
      </trkpt>
      <trkpt lat="59.575770120548" lon="17.910536288538">
        <ele>3.2</ele>
        <time>2018-12-15T10:23:10Z</time>
        <extensions><gpxtpx:TrackPointExtension><gpxtpx:hr>115</gpxtpx:hr></gpxtpx:TrackPointExtension></extensions>
      </trkpt>
      <trkpt lat="59.575804486338" lon="17.910479878351">
        <ele>3.2</ele>
        <time>2018-12-15T10:23:12Z</time>
        <extensions><gpxtpx:TrackPointExtension><gpxtpx:hr>118</gpxtpx:hr></gpxtpx:TrackPointExtension></extensions>
      </trkpt>
      <trkpt lat="59.575858549593" lon="17.910398909197">
        <ele>3.2</ele>
        <time>2018-12-15T10:23:15Z</time>
        <extensions><gpxtpx:TrackPointExtension><gpxtpx:hr>122</gpxtpx:hr></gpxtpx:TrackPointExtension></extensions>
      </trkpt>
      <trkpt lat="59.575926275345" lon="17.910346103227">
        <ele>3.4</ele>
        <time>2018-12-15T10:23:18Z</time>
        <extensions><gpxtpx:TrackPointExtension><gpxtpx:hr>125</gpxtpx:hr></gpxtpx:TrackPointExtension></extensions>
      </trkpt>
      <trkpt lat="59.575982266437" lon="17.910302936442">
        <ele>3.4</ele>
        <time>2018-12-15T10:23:21Z</time>
        <extensions><gpxtpx:TrackPointExtension><gpxtpx:hr>128</gpxtpx:hr></gpxtpx:TrackPointExtension></extensions>
      </trkpt>
      <trkpt lat="59.57601470439" lon="17.910257674182">
        <ele>3.8</ele>
        <time>2018-12-15T10:23:23Z</time>
        <extensions><gpxtpx:TrackPointExtension><gpxtpx:hr>132</gpxtpx:hr></gpxtpx:TrackPointExtension></extensions>
      </trkpt>
      <trkpt lat="59.576069102921" lon="17.910201347814">
        <ele>4.4</ele>
        <time>2018-12-15T10:23:26Z</time>
        <extensions><gpxtpx:TrackPointExtension><gpxtpx:hr>136</gpxtpx:hr></gpxtpx:TrackPointExtension></extensions>
      </trkpt>
      <trkpt lat="59.576116209199" lon="17.910152984251">
        <ele>4.8</ele>
        <time>2018-12-15T10:23:28Z</time>
        <extensions><gpxtpx:TrackPointExtension><gpxtpx:hr>139</gpxtpx:hr></gpxtpx:TrackPointExtension></extensions>
      </trkpt>
      <trkpt lat="59.57616557859" lon="17.910124318153">
        <ele>5.4</ele>
        <time>2018-12-15T10:23:30Z</time>
        <extensions><gpxtpx:TrackPointExtension><gpxtpx:hr>143</gpxtpx:hr></gpxtpx:TrackPointExtension></extensions>
      </trkpt>
      <trkpt lat="59.576202542769" lon="17.910128173827">
        <ele>5.8</ele>
        <time>2018-12-15T10:23:32Z</time>
        <extensions><gpxtpx:TrackPointExtension><gpxtpx:hr>146</gpxtpx:hr></gpxtpx:TrackPointExtension></extensions>
      </trkpt>
      <trkpt lat="59.576270687616" lon="17.910104033955">
        <ele>6.4</ele>
        <time>2018-12-15T10:23:35Z</time>
        <extensions><gpxtpx:TrackPointExtension><gpxtpx:hr>149</gpxtpx:hr></gpxtpx:TrackPointExtension></extensions>
      </trkpt>
      <trkpt lat="59.576808386501" lon="17.909976964351">
        <ele>7</ele>
        <time>2018-12-15T10:23:57Z</time>
        <extensions><gpxtpx:TrackPointExtension><gpxtpx:hr>151</gpxtpx:hr></gpxtpx:TrackPointExtension></extensions>
      </trkpt>
      <trkpt lat="59.576917183563" lon="17.90992508039">
        <ele>7.6</ele>
        <time>2018-12-15T10:24:03Z</time>
        <extensions><gpxtpx:TrackPointExtension><gpxtpx:hr>150</gpxtpx:hr></gpxtpx:TrackPointExtension></extensions>
      </trkpt>
      <trkpt lat="59.576926571291" lon="17.909915357386">
        <ele>7.8</ele>
        <time>2018-12-15T10:24:04Z</time>
        <extensions><gpxtpx:TrackPointExtension><gpxtpx:hr>151</gpxtpx:hr></gpxtpx:TrackPointExtension></extensions>
      </trkpt>
      <trkpt lat="59.576921458332" lon="17.909890379324">
        <ele>8.4</ele>
        <time>2018-12-15T10:24:23Z</time>
        <extensions><gpxtpx:TrackPointExtension><gpxtpx:hr>140</gpxtpx:hr></gpxtpx:TrackPointExtension></extensions>
      </trkpt>
      <trkpt lat="59.576898408107" lon="17.909894318817">
        <ele>8.4</ele>
        <time>2018-12-15T10:24:25Z</time>
        <extensions><gpxtpx:TrackPointExtension><gpxtpx:hr>137</gpxtpx:hr></gpxtpx:TrackPointExtension></extensions>
      </trkpt>
      <trkpt lat="59.576877872452" lon="17.909891049876">
        <ele>8.4</ele>
        <time>2018-12-15T10:24:27Z</time>
        <extensions><gpxtpx:TrackPointExtension><gpxtpx:hr>134</gpxtpx:hr></gpxtpx:TrackPointExtension></extensions>
      </trkpt>
      <trkpt lat="59.57685792353" lon="17.909868586384">
        <ele>8.4</ele>
        <time>2018-12-15T10:24:29Z</time>
        <extensions><gpxtpx:TrackPointExtension><gpxtpx:hr>133</gpxtpx:hr></gpxtpx:TrackPointExtension></extensions>
      </trkpt>
      <trkpt lat="59.576853816399" lon="17.909710671388">
        <ele>8.2</ele>
        <time>2018-12-15T10:24:33Z</time>
        <extensions><gpxtpx:TrackPointExtension><gpxtpx:hr>130</gpxtpx:hr></gpxtpx:TrackPointExtension></extensions>
      </trkpt>
      <trkpt lat="59.576860019005" lon="17.909680664186">
        <ele>8</ele>
        <time>2018-12-15T10:24:35Z</time>
        <extensions><gpxtpx:TrackPointExtension><gpxtpx:hr>130</gpxtpx:hr></gpxtpx:TrackPointExtension></extensions>
      </trkpt>
      <trkpt lat="59.576868568543" lon="17.909605059448">
        <ele>7.6</ele>
        <time>2018-12-15T10:24:53Z</time>
        <extensions><gpxtpx:TrackPointExtension><gpxtpx:hr>122</gpxtpx:hr></gpxtpx:TrackPointExtension></extensions>
      </trkpt>
      <trkpt lat="59.576868736181" lon="17.909560886835">
        <ele>7.6</ele>
        <time>2018-12-15T10:24:54Z</time>
        <extensions><gpxtpx:TrackPointExtension><gpxtpx:hr>123</gpxtpx:hr></gpxtpx:TrackPointExtension></extensions>
      </trkpt>
      <trkpt lat="59.576834957124" lon="17.909278500624">
        <ele>7.6</ele>
        <time>2018-12-15T10:24:58Z</time>
        <extensions><gpxtpx:TrackPointExtension><gpxtpx:hr>127</gpxtpx:hr></gpxtpx:TrackPointExtension></extensions>
      </trkpt>
      <trkpt lat="59.576798244402" lon="17.90894188352">
        <ele>7.4</ele>
        <time>2018-12-15T10:25:02Z</time>
        <extensions><gpxtpx:TrackPointExtension><gpxtpx:hr>131</gpxtpx:hr></gpxtpx:TrackPointExtension></extensions>
      </trkpt>
      <trkpt lat="59.576785923009" lon="17.908861836375">
        <ele>7.2</ele>
        <time>2018-12-15T10:25:03Z</time>
        <extensions><gpxtpx:TrackPointExtension><gpxtpx:hr>132</gpxtpx:hr></gpxtpx:TrackPointExtension></extensions>
      </trkpt>
      <trkpt lat="59.576755245255" lon="17.908621359664">
        <ele>6.2</ele>
        <time>2018-12-15T10:25:06Z</time>
        <extensions><gpxtpx:TrackPointExtension><gpxtpx:hr>135</gpxtpx:hr></gpxtpx:TrackPointExtension></extensions>
      </trkpt>
      <trkpt lat="59.576745857527" lon="17.908478699726">
        <ele>5.2</ele>
        <time>2018-12-15T10:25:08Z</time>
        <extensions><gpxtpx:TrackPointExtension><gpxtpx:hr>138</gpxtpx:hr></gpxtpx:TrackPointExtension></extensions>
      </trkpt>
      <trkpt lat="59.576756418721" lon="17.90825540591">
        <ele>4</ele>
        <time>2018-12-15T10:25:12Z</time>
        <extensions><gpxtpx:TrackPointExtension><gpxtpx:hr>141</gpxtpx:hr></gpxtpx:TrackPointExtension></extensions>
      </trkpt>
      <trkpt lat="59.576780390955" lon="17.907942593402">
        <ele>3.2</ele>
        <time>2018-12-15T10:25:18Z</time>
        <extensions><gpxtpx:TrackPointExtension><gpxtpx:hr>144</gpxtpx:hr></gpxtpx:TrackPointExtension></extensions>
      </trkpt>
      <trkpt lat="59.576780642412" lon="17.907917196245">
        <ele>2.8</ele>
        <time>2018-12-15T10:25:20Z</time>
        <extensions><gpxtpx:TrackPointExtension><gpxtpx:hr>145</gpxtpx:hr></gpxtpx:TrackPointExtension></extensions>
      </trkpt>
      <trkpt lat="59.576781983516" lon="17.907910742182">
        <ele>2.6</ele>
        <time>2018-12-15T10:25:22Z</time>
        <extensions><gpxtpx:TrackPointExtension><gpxtpx:hr>147</gpxtpx:hr></gpxtpx:TrackPointExtension></extensions>
      </trkpt>
      <trkpt lat="59.576834957124" lon="17.907688621832">
        <ele>2</ele>
        <time>2018-12-15T10:25:50Z</time>
        <extensions><gpxtpx:TrackPointExtension><gpxtpx:hr>137</gpxtpx:hr></gpxtpx:TrackPointExtension></extensions>
      </trkpt>
      <trkpt lat="59.576849206354" lon="17.907683508873">
        <ele>2</ele>
        <time>2018-12-15T10:25:51Z</time>
        <extensions><gpxtpx:TrackPointExtension><gpxtpx:hr>134</gpxtpx:hr></gpxtpx:TrackPointExtension></extensions>
      </trkpt>
      <trkpt lat="59.576865886335" lon="17.907678144457">
        <ele>2</ele>
        <time>2018-12-15T10:25:52Z</time>
        <extensions><gpxtpx:TrackPointExtension><gpxtpx:hr>131</gpxtpx:hr></gpxtpx:TrackPointExtension></extensions>
      </trkpt>
      <trkpt lat="59.576886924904" lon="17.907671103661">
        <ele>2</ele>
        <time>2018-12-15T10:25:53Z</time>
        <extensions><gpxtpx:TrackPointExtension><gpxtpx:hr>128</gpxtpx:hr></gpxtpx:TrackPointExtension></extensions>
      </trkpt>
      <trkpt lat="59.576911986785" lon="17.90766364377">
        <ele>2</ele>
        <time>2018-12-15T10:25:54Z</time>
        <extensions><gpxtpx:TrackPointExtension><gpxtpx:hr>124</gpxtpx:hr></gpxtpx:TrackPointExtension></extensions>
      </trkpt>
      <trkpt lat="59.576973342293" lon="17.907647885798">
        <ele>2</ele>
        <time>2018-12-15T10:25:56Z</time>
        <extensions><gpxtpx:TrackPointExtension><gpxtpx:hr>120</gpxtpx:hr></gpxtpx:TrackPointExtension></extensions>
      </trkpt>
      <trkpt lat="59.57700544497" lon="17.907638665708">
        <ele>2</ele>
        <time>2018-12-15T10:25:57Z</time>
        <extensions><gpxtpx:TrackPointExtension><gpxtpx:hr>117</gpxtpx:hr></gpxtpx:TrackPointExtension></extensions>
      </trkpt>
      <trkpt lat="59.577038302018" lon="17.907628523609">
        <ele>2</ele>
        <time>2018-12-15T10:25:58Z</time>
        <extensions><gpxtpx:TrackPointExtension><gpxtpx:hr>117</gpxtpx:hr></gpxtpx:TrackPointExtension></extensions>
      </trkpt>
      <trkpt lat="59.577146344709" lon="17.90759658857">
        <ele>1.8</ele>
        <time>2018-12-15T10:26:01Z</time>
        <extensions><gpxtpx:TrackPointExtension><gpxtpx:hr>118</gpxtpx:hr></gpxtpx:TrackPointExtension></extensions>
      </trkpt>
      <trkpt lat="59.577460665959" lon="17.907500112901">
        <ele>1.2</ele>
        <time>2018-12-15T10:26:09Z</time>
        <extensions><gpxtpx:TrackPointExtension><gpxtpx:hr>121</gpxtpx:hr></gpxtpx:TrackPointExtension></extensions>
      </trkpt>
      <trkpt lat="59.577754619192" lon="17.907410678028">
        <ele>1.2</ele>
        <time>2018-12-15T10:26:16Z</time>
        <extensions><gpxtpx:TrackPointExtension><gpxtpx:hr>124</gpxtpx:hr></gpxtpx:TrackPointExtension></extensions>
      </trkpt>
      <trkpt lat="59.577918988251" lon="17.907363823207">
        <ele>1.4</ele>
        <time>2018-12-15T10:26:20Z</time>
        <extensions><gpxtpx:TrackPointExtension><gpxtpx:hr>128</gpxtpx:hr></gpxtpx:TrackPointExtension></extensions>
      </trkpt>
      <trkpt lat="59.578084866052" lon="17.907312106884">
        <ele>2.2</ele>
        <time>2018-12-15T10:26:24Z</time>
        <extensions><gpxtpx:TrackPointExtension><gpxtpx:hr>131</gpxtpx:hr></gpxtpx:TrackPointExtension></extensions>
      </trkpt>
      <trkpt lat="59.578167343948" lon="17.907285536261">
        <ele>3</ele>
        <time>2018-12-15T10:26:26Z</time>
        <extensions><gpxtpx:TrackPointExtension><gpxtpx:hr>132</gpxtpx:hr></gpxtpx:TrackPointExtension></extensions>
      </trkpt>
      <trkpt lat="59.578294413552" lon="17.907247650073">
        <ele>4</ele>
        <time>2018-12-15T10:26:29Z</time>
        <extensions><gpxtpx:TrackPointExtension><gpxtpx:hr>134</gpxtpx:hr></gpxtpx:TrackPointExtension></extensions>
      </trkpt>
      <trkpt lat="59.578620804738" lon="17.907145055617">
        <ele>5</ele>
        <time>2018-12-15T10:26:37Z</time>
        <extensions><gpxtpx:TrackPointExtension><gpxtpx:hr>136</gpxtpx:hr></gpxtpx:TrackPointExtension></extensions>
      </trkpt>
      <trkpt lat="59.578897742714" lon="17.907050591604">
        <ele>6</ele>
        <time>2018-12-15T10:26:44Z</time>
        <extensions><gpxtpx:TrackPointExtension><gpxtpx:hr>136</gpxtpx:hr></gpxtpx:TrackPointExtension></extensions>
      </trkpt>
      <trkpt lat="59.57911684558" lon="17.906908769856">
        <ele>7</ele>
        <time>2018-12-15T10:26:50Z</time>
        <extensions><gpxtpx:TrackPointExtension><gpxtpx:hr>139</gpxtpx:hr></gpxtpx:TrackPointExtension></extensions>
      </trkpt>
      <trkpt lat="59.579186666807" lon="17.906835344412">
        <ele>7.2</ele>
        <time>2018-12-15T10:26:52Z</time>
        <extensions><gpxtpx:TrackPointExtension><gpxtpx:hr>140</gpxtpx:hr></gpxtpx:TrackPointExtension></extensions>
      </trkpt>
      <trkpt lat="59.57925682331" lon="17.906746160996">
        <ele>7.8</ele>
        <time>2018-12-15T10:26:54Z</time>
        <extensions><gpxtpx:TrackPointExtension><gpxtpx:hr>141</gpxtpx:hr></gpxtpx:TrackPointExtension></extensions>
      </trkpt>
      <trkpt lat="59.579289093625" lon="17.906693438845">
        <ele>8.2</ele>
        <time>2018-12-15T10:26:55Z</time>
        <extensions><gpxtpx:TrackPointExtension><gpxtpx:hr>141</gpxtpx:hr></gpxtpx:TrackPointExtension></extensions>
      </trkpt>
      <trkpt lat="59.57937333172" lon="17.906522699542">
        <ele>9.4</ele>
        <time>2018-12-15T10:26:58Z</time>
        <extensions><gpxtpx:TrackPointExtension><gpxtpx:hr>142</gpxtpx:hr></gpxtpx:TrackPointExtension></extensions>
      </trkpt>
      <trkpt lat="59.579551028" lon="17.905966225201">
        <ele>10.6</ele>
        <time>2018-12-15T10:27:06Z</time>
        <extensions><gpxtpx:TrackPointExtension><gpxtpx:hr>143</gpxtpx:hr></gpxtpx:TrackPointExtension></extensions>
      </trkpt>
      <trkpt lat="59.579652784266" lon="17.905312856096">
        <ele>10.6</ele>
        <time>2018-12-15T10:27:13Z</time>
        <extensions><gpxtpx:TrackPointExtension><gpxtpx:hr>140</gpxtpx:hr></gpxtpx:TrackPointExtension></extensions>
      </trkpt>
      <trkpt lat="59.579687904427" lon="17.904968611463">
        <ele>10.6</ele>
        <time>2018-12-15T10:27:16Z</time>
        <extensions><gpxtpx:TrackPointExtension><gpxtpx:hr>137</gpxtpx:hr></gpxtpx:TrackPointExtension></extensions>
      </trkpt>
      <trkpt lat="59.57971447505" lon="17.904726039277">
        <ele>10.6</ele>
        <time>2018-12-15T10:27:18Z</time>
        <extensions><gpxtpx:TrackPointExtension><gpxtpx:hr>133</gpxtpx:hr></gpxtpx:TrackPointExtension></extensions>
      </trkpt>
      <trkpt lat="59.579741129492" lon="17.904479779055">
        <ele>10.4</ele>
        <time>2018-12-15T10:27:20Z</time>
        <extensions><gpxtpx:TrackPointExtension><gpxtpx:hr>129</gpxtpx:hr></gpxtpx:TrackPointExtension></extensions>
      </trkpt>
      <trkpt lat="59.579753115609" lon="17.904358828238">
        <ele>10.2</ele>
        <time>2018-12-15T10:27:21Z</time>
        <extensions><gpxtpx:TrackPointExtension><gpxtpx:hr>126</gpxtpx:hr></gpxtpx:TrackPointExtension></extensions>
      </trkpt>
      <trkpt lat="59.579775998196" lon="17.904122374839">
        <ele>8.8</ele>
        <time>2018-12-15T10:27:23Z</time>
        <extensions><gpxtpx:TrackPointExtension><gpxtpx:hr>121</gpxtpx:hr></gpxtpx:TrackPointExtension></extensions>
      </trkpt>
      <trkpt lat="59.579798796964" lon="17.903899164842">
        <ele>8.2</ele>
        <time>2018-12-15T10:27:25Z</time>
        <extensions><gpxtpx:TrackPointExtension><gpxtpx:hr>117</gpxtpx:hr></gpxtpx:TrackPointExtension></extensions>
      </trkpt>
      <trkpt lat="59.579831402555" lon="17.903592638759">
        <ele>7.8</ele>
        <time>2018-12-15T10:27:28Z</time>
        <extensions><gpxtpx:TrackPointExtension><gpxtpx:hr>114</gpxtpx:hr></gpxtpx:TrackPointExtension></extensions>
      </trkpt>
      <trkpt lat="59.579854368961" lon="17.903392059892">
        <ele>7.8</ele>
        <time>2018-12-15T10:27:30Z</time>
        <extensions><gpxtpx:TrackPointExtension><gpxtpx:hr>110</gpxtpx:hr></gpxtpx:TrackPointExtension></extensions>
      </trkpt>
      <trkpt lat="59.579892758063" lon="17.903109003129">
        <ele>7.8</ele>
        <time>2018-12-15T10:27:33Z</time>
        <extensions><gpxtpx:TrackPointExtension><gpxtpx:hr>107</gpxtpx:hr></gpxtpx:TrackPointExtension></extensions>
      </trkpt>
      <trkpt lat="59.579943468558" lon="17.902855283016">
        <ele>8</ele>
        <time>2018-12-15T10:27:36Z</time>
        <extensions><gpxtpx:TrackPointExtension><gpxtpx:hr>109</gpxtpx:hr></gpxtpx:TrackPointExtension></extensions>
      </trkpt>
      <trkpt lat="59.580113704947" lon="17.902561162145">
        <ele>8.4</ele>
        <time>2018-12-15T10:27:41Z</time>
        <extensions><gpxtpx:TrackPointExtension><gpxtpx:hr>112</gpxtpx:hr></gpxtpx:TrackPointExtension></extensions>
      </trkpt>
      <trkpt lat="59.580273044866" lon="17.902523443595">
        <ele>8.4</ele>
        <time>2018-12-15T10:27:44Z</time>
        <extensions><gpxtpx:TrackPointExtension><gpxtpx:hr>115</gpxtpx:hr></gpxtpx:TrackPointExtension></extensions>
      </trkpt>
      <trkpt lat="59.580449735318" lon="17.902525874346">
        <ele>8.4</ele>
        <time>2018-12-15T10:27:47Z</time>
        <extensions><gpxtpx:TrackPointExtension><gpxtpx:hr>118</gpxtpx:hr></gpxtpx:TrackPointExtension></extensions>
      </trkpt>
      <trkpt lat="59.580689038563" lon="17.902528472735">
        <ele>8.6</ele>
        <time>2018-12-15T10:27:51Z</time>
        <extensions><gpxtpx:TrackPointExtension><gpxtpx:hr>121</gpxtpx:hr></gpxtpx:TrackPointExtension></extensions>
      </trkpt>
      <trkpt lat="59.580934209138" lon="17.902529227106">
        <ele>8.4</ele>
        <time>2018-12-15T10:27:55Z</time>
        <extensions><gpxtpx:TrackPointExtension><gpxtpx:hr>124</gpxtpx:hr></gpxtpx:TrackPointExtension></extensions>
      </trkpt>
      <trkpt lat="59.581176613686" lon="17.902524533242">
        <ele>8.4</ele>
        <time>2018-12-15T10:27:59Z</time>
        <extensions><gpxtpx:TrackPointExtension><gpxtpx:hr>128</gpxtpx:hr></gpxtpx:TrackPointExtension></extensions>
      </trkpt>
      <trkpt lat="59.581452713472" lon="17.902493352574">
        <ele>8.6</ele>
        <time>2018-12-15T10:28:04Z</time>
        <extensions><gpxtpx:TrackPointExtension><gpxtpx:hr>130</gpxtpx:hr></gpxtpx:TrackPointExtension></extensions>
      </trkpt>
      <trkpt lat="59.581600151093" lon="17.90243585274">
        <ele>9</ele>
        <time>2018-12-15T10:28:07Z</time>
        <extensions><gpxtpx:TrackPointExtension><gpxtpx:hr>131</gpxtpx:hr></gpxtpx:TrackPointExtension></extensions>
      </trkpt>
      <trkpt lat="59.58179570082" lon="17.902339544709">
        <ele>10</ele>
        <time>2018-12-15T10:28:11Z</time>
        <extensions><gpxtpx:TrackPointExtension><gpxtpx:hr>133</gpxtpx:hr></gpxtpx:TrackPointExtension></extensions>
      </trkpt>
      <trkpt lat="59.582165510248" lon="17.902152460701">
        <ele>11.2</ele>
        <time>2018-12-15T10:28:19Z</time>
        <extensions><gpxtpx:TrackPointExtension><gpxtpx:hr>133</gpxtpx:hr></gpxtpx:TrackPointExtension></extensions>
      </trkpt>
      <trkpt lat="59.582484357724" lon="17.901997395551">
        <ele>12.2</ele>
        <time>2018-12-15T10:28:26Z</time>
        <extensions><gpxtpx:TrackPointExtension><gpxtpx:hr>135</gpxtpx:hr></gpxtpx:TrackPointExtension></extensions>
      </trkpt>
      <trkpt lat="59.582718380372" lon="17.901935620948">
        <ele>13.2</ele>
        <time>2018-12-15T10:28:31Z</time>
        <extensions><gpxtpx:TrackPointExtension><gpxtpx:hr>138</gpxtpx:hr></gpxtpx:TrackPointExtension></extensions>
      </trkpt>
      <trkpt lat="59.582763726451" lon="17.901927658143">
        <ele>13.4</ele>
        <time>2018-12-15T10:28:32Z</time>
        <extensions><gpxtpx:TrackPointExtension><gpxtpx:hr>138</gpxtpx:hr></gpxtpx:TrackPointExtension></extensions>
      </trkpt>
      <trkpt lat="59.583215510861" lon="17.901913744189">
        <ele>14.6</ele>
        <time>2018-12-15T10:28:42Z</time>
        <extensions><gpxtpx:TrackPointExtension><gpxtpx:hr>141</gpxtpx:hr></gpxtpx:TrackPointExtension></extensions>
      </trkpt>
      <trkpt lat="59.583340987904" lon="17.90191282218">
        <ele>15.6</ele>
        <time>2018-12-15T10:28:45Z</time>
        <extensions><gpxtpx:TrackPointExtension><gpxtpx:hr>142</gpxtpx:hr></gpxtpx:TrackPointExtension></extensions>
      </trkpt>
      <trkpt lat="59.583455903753" lon="17.901902931538">
        <ele>17</ele>
        <time>2018-12-15T10:28:48Z</time>
        <extensions><gpxtpx:TrackPointExtension><gpxtpx:hr>143</gpxtpx:hr></gpxtpx:TrackPointExtension></extensions>
      </trkpt>
      <trkpt lat="59.583613399654" lon="17.901850125568">
        <ele>18.2</ele>
        <time>2018-12-15T10:28:52Z</time>
        <extensions><gpxtpx:TrackPointExtension><gpxtpx:hr>144</gpxtpx:hr></gpxtpx:TrackPointExtension></extensions>
      </trkpt>
      <trkpt lat="59.583749270253" lon="17.901677961342">
        <ele>19.2</ele>
        <time>2018-12-15T10:28:56Z</time>
        <extensions><gpxtpx:TrackPointExtension><gpxtpx:hr>146</gpxtpx:hr></gpxtpx:TrackPointExtension></extensions>
      </trkpt>
      <trkpt lat="59.583839878592" lon="17.901409489085">
        <ele>19.8</ele>
        <time>2018-12-15T10:29:00Z</time>
        <extensions><gpxtpx:TrackPointExtension><gpxtpx:hr>148</gpxtpx:hr></gpxtpx:TrackPointExtension></extensions>
      </trkpt>
      <trkpt lat="59.583873070916" lon="17.901250987356">
        <ele>20.6</ele>
        <time>2018-12-15T10:29:02Z</time>
        <extensions><gpxtpx:TrackPointExtension><gpxtpx:hr>148</gpxtpx:hr></gpxtpx:TrackPointExtension></extensions>
      </trkpt>
      <trkpt lat="59.583943395057" lon="17.900819403325">
        <ele>21.6</ele>
        <time>2018-12-15T10:29:07Z</time>
        <extensions><gpxtpx:TrackPointExtension><gpxtpx:hr>150</gpxtpx:hr></gpxtpx:TrackPointExtension></extensions>
      </trkpt>
      <trkpt lat="59.584017574872" lon="17.90017776888">
        <ele>22.6</ele>
        <time>2018-12-15T10:29:14Z</time>
        <extensions><gpxtpx:TrackPointExtension><gpxtpx:hr>150</gpxtpx:hr></gpxtpx:TrackPointExtension></extensions>
      </trkpt>
      <trkpt lat="59.584056969802" lon="17.899197757132">
        <ele>23.6</ele>
        <time>2018-12-15T10:29:24Z</time>
        <extensions><gpxtpx:TrackPointExtension><gpxtpx:hr>147</gpxtpx:hr></gpxtpx:TrackPointExtension></extensions>
      </trkpt>
      <trkpt lat="59.584026543505" lon="17.898886704823">
        <ele>23.4</ele>
        <time>2018-12-15T10:29:27Z</time>
        <extensions><gpxtpx:TrackPointExtension><gpxtpx:hr>144</gpxtpx:hr></gpxtpx:TrackPointExtension></extensions>
      </trkpt>
      <trkpt lat="59.583981365064" lon="17.89870003991">
        <ele>23.2</ele>
        <time>2018-12-15T10:29:29Z</time>
        <extensions><gpxtpx:TrackPointExtension><gpxtpx:hr>141</gpxtpx:hr></gpxtpx:TrackPointExtension></extensions>
      </trkpt>
      <trkpt lat="59.583922943221" lon="17.89853407829">
        <ele>23</ele>
        <time>2018-12-15T10:29:31Z</time>
        <extensions><gpxtpx:TrackPointExtension><gpxtpx:hr>137</gpxtpx:hr></gpxtpx:TrackPointExtension></extensions>
      </trkpt>
      <trkpt lat="59.583857564401" lon="17.898390412524">
        <ele>22.2</ele>
        <time>2018-12-15T10:29:33Z</time>
        <extensions><gpxtpx:TrackPointExtension><gpxtpx:hr>132</gpxtpx:hr></gpxtpx:TrackPointExtension></extensions>
      </trkpt>
      <trkpt lat="59.58378640207" lon="17.898268707336">
        <ele>21.8</ele>
        <time>2018-12-15T10:29:35Z</time>
        <extensions><gpxtpx:TrackPointExtension><gpxtpx:hr>126</gpxtpx:hr></gpxtpx:TrackPointExtension></extensions>
      </trkpt>
      <trkpt lat="59.583748432063" lon="17.898214141167">
        <ele>21.4</ele>
        <time>2018-12-15T10:29:36Z</time>
        <extensions><gpxtpx:TrackPointExtension><gpxtpx:hr>124</gpxtpx:hr></gpxtpx:TrackPointExtension></extensions>
      </trkpt>
      <trkpt lat="59.583637539526" lon="17.898042312217">
        <ele>20.6</ele>
        <time>2018-12-15T10:29:39Z</time>
        <extensions><gpxtpx:TrackPointExtension><gpxtpx:hr>124</gpxtpx:hr></gpxtpx:TrackPointExtension></extensions>
      </trkpt>
      <trkpt lat="59.583608957247" lon="17.897977855406">
        <ele>20.4</ele>
        <time>2018-12-15T10:29:40Z</time>
        <extensions><gpxtpx:TrackPointExtension><gpxtpx:hr>124</gpxtpx:hr></gpxtpx:TrackPointExtension></extensions>
      </trkpt>
      <trkpt lat="59.583571909249" lon="17.89777803091">
        <ele>19.6</ele>
        <time>2018-12-15T10:29:44Z</time>
        <extensions><gpxtpx:TrackPointExtension><gpxtpx:hr>122</gpxtpx:hr></gpxtpx:TrackPointExtension></extensions>
      </trkpt>
      <trkpt lat="59.583579788235" lon="17.897627659624">
        <ele>19.4</ele>
        <time>2018-12-15T10:29:49Z</time>
        <extensions><gpxtpx:TrackPointExtension><gpxtpx:hr>119</gpxtpx:hr></gpxtpx:TrackPointExtension></extensions>
      </trkpt>
      <trkpt lat="59.583605436849" lon="17.89744443129">
        <ele>19.2</ele>
        <time>2018-12-15T10:29:52Z</time>
        <extensions><gpxtpx:TrackPointExtension><gpxtpx:hr>115</gpxtpx:hr></gpxtpx:TrackPointExtension></extensions>
      </trkpt>
      <trkpt lat="59.583582302805" lon="17.897244439156">
        <ele>19</ele>
        <time>2018-12-15T10:29:55Z</time>
        <extensions><gpxtpx:TrackPointExtension><gpxtpx:hr>112</gpxtpx:hr></gpxtpx:TrackPointExtension></extensions>
      </trkpt>
      <trkpt lat="59.583427992026" lon="17.896925926956">
        <ele>19</ele>
        <time>2018-12-15T10:30:01Z</time>
        <extensions><gpxtpx:TrackPointExtension><gpxtpx:hr>110</gpxtpx:hr></gpxtpx:TrackPointExtension></extensions>
      </trkpt>
      <trkpt lat="59.583288601029" lon="17.896971105397">
        <ele>19</ele>
        <time>2018-12-15T10:30:05Z</time>
        <extensions><gpxtpx:TrackPointExtension><gpxtpx:hr>107</gpxtpx:hr></gpxtpx:TrackPointExtension></extensions>
      </trkpt>
      <trkpt lat="59.583107300532" lon="17.897122231054">
        <ele>18.8</ele>
        <time>2018-12-15T10:30:10Z</time>
        <extensions><gpxtpx:TrackPointExtension><gpxtpx:hr>104</gpxtpx:hr></gpxtpx:TrackPointExtension></extensions>
      </trkpt>
      <trkpt lat="59.583068324697" lon="17.897132792248">
        <ele>18.8</ele>
        <time>2018-12-15T10:30:11Z</time>
        <extensions><gpxtpx:TrackPointExtension><gpxtpx:hr>104</gpxtpx:hr></gpxtpx:TrackPointExtension></extensions>
      </trkpt>
      <trkpt lat="59.582988948104" lon="17.897144694546">
        <ele>18.8</ele>
        <time>2018-12-15T10:30:13Z</time>
        <extensions><gpxtpx:TrackPointExtension><gpxtpx:hr>107</gpxtpx:hr></gpxtpx:TrackPointExtension></extensions>
      </trkpt>
      <trkpt lat="59.582947290061" lon="17.897155004283">
        <ele>18.8</ele>
        <time>2018-12-15T10:30:14Z</time>
        <extensions><gpxtpx:TrackPointExtension><gpxtpx:hr>110</gpxtpx:hr></gpxtpx:TrackPointExtension></extensions>
      </trkpt>
      <trkpt lat="59.582865985631" lon="17.897177216318">
        <ele>18.8</ele>
        <time>2018-12-15T10:30:16Z</time>
        <extensions><gpxtpx:TrackPointExtension><gpxtpx:hr>115</gpxtpx:hr></gpxtpx:TrackPointExtension></extensions>
      </trkpt>
      <trkpt lat="59.582780657889" lon="17.897195405041">
        <ele>18.6</ele>
        <time>2018-12-15T10:30:18Z</time>
        <extensions><gpxtpx:TrackPointExtension><gpxtpx:hr>118</gpxtpx:hr></gpxtpx:TrackPointExtension></extensions>
      </trkpt>
      <trkpt lat="59.582327616194" lon="17.897367569267">
        <ele>18.6</ele>
        <time>2018-12-15T10:30:27Z</time>
        <extensions><gpxtpx:TrackPointExtension><gpxtpx:hr>121</gpxtpx:hr></gpxtpx:TrackPointExtension></extensions>
      </trkpt>
      <trkpt lat="59.58186862335" lon="17.89752657391">
        <ele>18.4</ele>
        <time>2018-12-15T10:30:35Z</time>
        <extensions><gpxtpx:TrackPointExtension><gpxtpx:hr>124</gpxtpx:hr></gpxtpx:TrackPointExtension></extensions>
      </trkpt>
      <trkpt lat="59.581544662915" lon="17.897592539463">
        <ele>18.4</ele>
        <time>2018-12-15T10:30:40Z</time>
        <extensions><gpxtpx:TrackPointExtension><gpxtpx:hr>126</gpxtpx:hr></gpxtpx:TrackPointExtension></extensions>
      </trkpt>
      <trkpt lat="59.581086256804" lon="17.897679711223">
        <ele>17</ele>
        <time>2018-12-15T10:30:47Z</time>
        <extensions><gpxtpx:TrackPointExtension><gpxtpx:hr>127</gpxtpx:hr></gpxtpx:TrackPointExtension></extensions>
      </trkpt>
      <trkpt lat="59.58052835754" lon="17.897791106674">
        <ele>16</ele>
        <time>2018-12-15T10:30:55Z</time>
        <extensions><gpxtpx:TrackPointExtension><gpxtpx:hr>126</gpxtpx:hr></gpxtpx:TrackPointExtension></extensions>
      </trkpt>
      <trkpt lat="59.579971883199" lon="17.897880709185">
        <ele>15.8</ele>
        <time>2018-12-15T10:31:03Z</time>
        <extensions><gpxtpx:TrackPointExtension><gpxtpx:hr>129</gpxtpx:hr></gpxtpx:TrackPointExtension></extensions>
      </trkpt>
      <trkpt lat="59.579627219471" lon="17.897937622286">
        <ele>16</ele>
        <time>2018-12-15T10:31:08Z</time>
        <extensions><gpxtpx:TrackPointExtension><gpxtpx:hr>132</gpxtpx:hr></gpxtpx:TrackPointExtension></extensions>
      </trkpt>
      <trkpt lat="59.579356484101" lon="17.897939466304">
        <ele>16.2</ele>
        <time>2018-12-15T10:31:12Z</time>
        <extensions><gpxtpx:TrackPointExtension><gpxtpx:hr>135</gpxtpx:hr></gpxtpx:TrackPointExtension></extensions>
      </trkpt>
      <trkpt lat="59.579092370432" lon="17.897903507953">
        <ele>16.6</ele>
        <time>2018-12-15T10:31:16Z</time>
        <extensions><gpxtpx:TrackPointExtension><gpxtpx:hr>138</gpxtpx:hr></gpxtpx:TrackPointExtension></extensions>
      </trkpt>
      <trkpt lat="59.578834543188" lon="17.89783670421">
        <ele>17.2</ele>
        <time>2018-12-15T10:31:20Z</time>
        <extensions><gpxtpx:TrackPointExtension><gpxtpx:hr>140</gpxtpx:hr></gpxtpx:TrackPointExtension></extensions>
      </trkpt>
      <trkpt lat="59.57832643241" lon="17.89764978784">
        <ele>18.2</ele>
        <time>2018-12-15T10:31:28Z</time>
        <extensions><gpxtpx:TrackPointExtension><gpxtpx:hr>142</gpxtpx:hr></gpxtpx:TrackPointExtension></extensions>
      </trkpt>
      <trkpt lat="59.577817064347" lon="17.897419537047">
        <ele>19.2</ele>
        <time>2018-12-15T10:31:36Z</time>
        <extensions><gpxtpx:TrackPointExtension><gpxtpx:hr>144</gpxtpx:hr></gpxtpx:TrackPointExtension></extensions>
      </trkpt>
      <trkpt lat="59.57751338811" lon="17.897199595991">
        <ele>19.4</ele>
        <time>2018-12-15T10:31:41Z</time>
        <extensions><gpxtpx:TrackPointExtension><gpxtpx:hr>145</gpxtpx:hr></gpxtpx:TrackPointExtension></extensions>
      </trkpt>
      <trkpt lat="59.577220356886" lon="17.89702701267">
        <ele>19.6</ele>
        <time>2018-12-15T10:31:46Z</time>
        <extensions><gpxtpx:TrackPointExtension><gpxtpx:hr>142</gpxtpx:hr></gpxtpx:TrackPointExtension></extensions>
      </trkpt>
      <trkpt lat="59.577113822937" lon="17.896937913073">
        <ele>19.6</ele>
        <time>2018-12-15T10:31:48Z</time>
        <extensions><gpxtpx:TrackPointExtension><gpxtpx:hr>140</gpxtpx:hr></gpxtpx:TrackPointExtension></extensions>
      </trkpt>
      <trkpt lat="59.577028411376" lon="17.896803467397">
        <ele>19.4</ele>
        <time>2018-12-15T10:31:50Z</time>
        <extensions><gpxtpx:TrackPointExtension><gpxtpx:hr>137</gpxtpx:hr></gpxtpx:TrackPointExtension></extensions>
      </trkpt>
      <trkpt lat="59.576895558261" lon="17.896648821342">
        <ele>19.4</ele>
        <time>2018-12-15T10:31:53Z</time>
        <extensions><gpxtpx:TrackPointExtension><gpxtpx:hr>133</gpxtpx:hr></gpxtpx:TrackPointExtension></extensions>
      </trkpt>
      <trkpt lat="59.576841578825" lon="17.896614120276">
        <ele>19.4</ele>
        <time>2018-12-15T10:31:54Z</time>
        <extensions><gpxtpx:TrackPointExtension><gpxtpx:hr>132</gpxtpx:hr></gpxtpx:TrackPointExtension></extensions>
      </trkpt>
      <trkpt lat="59.576784414267" lon="17.89658361016">
        <ele>19.2</ele>
        <time>2018-12-15T10:31:55Z</time>
        <extensions><gpxtpx:TrackPointExtension><gpxtpx:hr>129</gpxtpx:hr></gpxtpx:TrackPointExtension></extensions>
      </trkpt>
      <trkpt lat="59.576725824786" lon="17.896563409781">
        <ele>19</ele>
        <time>2018-12-15T10:31:56Z</time>
        <extensions><gpxtpx:TrackPointExtension><gpxtpx:hr>128</gpxtpx:hr></gpxtpx:TrackPointExtension></extensions>
      </trkpt>
      <trkpt lat="59.576604706331" lon="17.896561398125">
        <ele>18.8</ele>
        <time>2018-12-15T10:31:58Z</time>
        <extensions><gpxtpx:TrackPointExtension><gpxtpx:hr>125</gpxtpx:hr></gpxtpx:TrackPointExtension></extensions>
      </trkpt>
      <trkpt lat="59.576413599011" lon="17.896542622669">
        <ele>18.2</ele>
        <time>2018-12-15T10:32:01Z</time>
        <extensions><gpxtpx:TrackPointExtension><gpxtpx:hr>120</gpxtpx:hr></gpxtpx:TrackPointExtension></extensions>
      </trkpt>
      <trkpt lat="59.576277560774" lon="17.896495851667">
        <ele>17.8</ele>
        <time>2018-12-15T10:32:03Z</time>
        <extensions><gpxtpx:TrackPointExtension><gpxtpx:hr>116</gpxtpx:hr></gpxtpx:TrackPointExtension></extensions>
      </trkpt>
      <trkpt lat="59.576070695482" lon="17.896350341883">
        <ele>17</ele>
        <time>2018-12-15T10:32:06Z</time>
        <extensions><gpxtpx:TrackPointExtension><gpxtpx:hr>117</gpxtpx:hr></gpxtpx:TrackPointExtension></extensions>
      </trkpt>
      <trkpt lat="59.576001460988" lon="17.896277586991">
        <ele>16.6</ele>
        <time>2018-12-15T10:32:07Z</time>
        <extensions><gpxtpx:TrackPointExtension><gpxtpx:hr>118</gpxtpx:hr></gpxtpx:TrackPointExtension></extensions>
      </trkpt>
      <trkpt lat="59.575853268996" lon="17.896098884883">
        <ele>16</ele>
        <time>2018-12-15T10:32:09Z</time>
        <extensions><gpxtpx:TrackPointExtension><gpxtpx:hr>120</gpxtpx:hr></gpxtpx:TrackPointExtension></extensions>
      </trkpt>
      <trkpt lat="59.575695940733" lon="17.895929905779">
        <ele>15</ele>
        <time>2018-12-15T10:32:11Z</time>
        <extensions><gpxtpx:TrackPointExtension><gpxtpx:hr>121</gpxtpx:hr></gpxtpx:TrackPointExtension></extensions>
      </trkpt>
      <trkpt lat="59.575466025216" lon="17.895674341648">
        <ele>13.8</ele>
        <time>2018-12-15T10:32:14Z</time>
        <extensions><gpxtpx:TrackPointExtension><gpxtpx:hr>121</gpxtpx:hr></gpxtpx:TrackPointExtension></extensions>
      </trkpt>
      <trkpt lat="59.575401233129" lon="17.895579542359">
        <ele>13.4</ele>
        <time>2018-12-15T10:32:15Z</time>
        <extensions><gpxtpx:TrackPointExtension><gpxtpx:hr>119</gpxtpx:hr></gpxtpx:TrackPointExtension></extensions>
      </trkpt>
      <trkpt lat="59.575343062743" lon="17.895481977043">
        <ele>12.8</ele>
        <time>2018-12-15T10:32:16Z</time>
        <extensions><gpxtpx:TrackPointExtension><gpxtpx:hr>116</gpxtpx:hr></gpxtpx:TrackPointExtension></extensions>
      </trkpt>
      <trkpt lat="59.575288412755" lon="17.895383824994">
        <ele>12.2</ele>
        <time>2018-12-15T10:32:17Z</time>
        <extensions><gpxtpx:TrackPointExtension><gpxtpx:hr>116</gpxtpx:hr></gpxtpx:TrackPointExtension></extensions>
      </trkpt>
      <trkpt lat="59.575151201052" lon="17.895071683038">
        <ele>11.8</ele>
        <time>2018-12-15T10:32:20Z</time>
        <extensions><gpxtpx:TrackPointExtension><gpxtpx:hr>117</gpxtpx:hr></gpxtpx:TrackPointExtension></extensions>
      </trkpt>
      <trkpt lat="59.575080876911" lon="17.894862470814">
        <ele>11.6</ele>
        <time>2018-12-15T10:32:22Z</time>
        <extensions><gpxtpx:TrackPointExtension><gpxtpx:hr>120</gpxtpx:hr></gpxtpx:TrackPointExtension></extensions>
      </trkpt>
      <trkpt lat="59.575027065113" lon="17.894661137576">
        <ele>11.6</ele>
        <time>2018-12-15T10:32:24Z</time>
        <extensions><gpxtpx:TrackPointExtension><gpxtpx:hr>123</gpxtpx:hr></gpxtpx:TrackPointExtension></extensions>
      </trkpt>
      <trkpt lat="59.574950035452" lon="17.894318988418">
        <ele>12.2</ele>
        <time>2018-12-15T10:32:28Z</time>
        <extensions><gpxtpx:TrackPointExtension><gpxtpx:hr>124</gpxtpx:hr></gpxtpx:TrackPointExtension></extensions>
      </trkpt>
      <trkpt lat="59.574917681318" lon="17.894272804149">
        <ele>13</ele>
        <time>2018-12-15T10:32:29Z</time>
        <extensions><gpxtpx:TrackPointExtension><gpxtpx:hr>124</gpxtpx:hr></gpxtpx:TrackPointExtension></extensions>
      </trkpt>
      <trkpt lat="59.574782062176" lon="17.894257129996">
        <ele>14.4</ele>
        <time>2018-12-15T10:32:32Z</time>
        <extensions><gpxtpx:TrackPointExtension><gpxtpx:hr>126</gpxtpx:hr></gpxtpx:TrackPointExtension></extensions>
      </trkpt>
      <trkpt lat="59.574672091648" lon="17.89427355852">
        <ele>15.2</ele>
        <time>2018-12-15T10:32:34Z</time>
        <extensions><gpxtpx:TrackPointExtension><gpxtpx:hr>127</gpxtpx:hr></gpxtpx:TrackPointExtension></extensions>
      </trkpt>
      <trkpt lat="59.574561115292" lon="17.894363915402">
        <ele>15.4</ele>
        <time>2018-12-15T10:32:36Z</time>
        <extensions><gpxtpx:TrackPointExtension><gpxtpx:hr>128</gpxtpx:hr></gpxtpx:TrackPointExtension></extensions>
      </trkpt>
      <trkpt lat="59.574465310175" lon="17.894528871194">
        <ele>15.6</ele>
        <time>2018-12-15T10:32:38Z</time>
        <extensions><gpxtpx:TrackPointExtension><gpxtpx:hr>129</gpxtpx:hr></gpxtpx:TrackPointExtension></extensions>
      </trkpt>
      <trkpt lat="59.574078988404" lon="17.895066989174">
        <ele>15.4</ele>
        <time>2018-12-15T10:32:45Z</time>
        <extensions><gpxtpx:TrackPointExtension><gpxtpx:hr>126</gpxtpx:hr></gpxtpx:TrackPointExtension></extensions>
      </trkpt>
      <trkpt lat="59.573949907144" lon="17.895192047122">
        <ele>14.6</ele>
        <time>2018-12-15T10:32:47Z</time>
        <extensions><gpxtpx:TrackPointExtension><gpxtpx:hr>123</gpxtpx:hr></gpxtpx:TrackPointExtension></extensions>
      </trkpt>
      <trkpt lat="59.573883941591" lon="17.895253486449">
        <ele>14</ele>
        <time>2018-12-15T10:32:48Z</time>
        <extensions><gpxtpx:TrackPointExtension><gpxtpx:hr>122</gpxtpx:hr></gpxtpx:TrackPointExtension></extensions>
      </trkpt>
      <trkpt lat="59.573673723539" lon="17.895441241009">
        <ele>13</ele>
        <time>2018-12-15T10:32:51Z</time>
        <extensions><gpxtpx:TrackPointExtension><gpxtpx:hr>120</gpxtpx:hr></gpxtpx:TrackPointExtension></extensions>
      </trkpt>
      <trkpt lat="59.573457889614" lon="17.895640311134">
        <ele>11.8</ele>
        <time>2018-12-15T10:32:54Z</time>
        <extensions><gpxtpx:TrackPointExtension><gpxtpx:hr>118</gpxtpx:hr></gpxtpx:TrackPointExtension></extensions>
      </trkpt>
      <trkpt lat="59.573307183052" lon="17.895764949987">
        <ele>10.6</ele>
        <time>2018-12-15T10:32:56Z</time>
        <extensions><gpxtpx:TrackPointExtension><gpxtpx:hr>115</gpxtpx:hr></gpxtpx:TrackPointExtension></extensions>
      </trkpt>
      <trkpt lat="59.573149603332" lon="17.895857569982">
        <ele>9.8</ele>
        <time>2018-12-15T10:32:58Z</time>
        <extensions><gpxtpx:TrackPointExtension><gpxtpx:hr>112</gpxtpx:hr></gpxtpx:TrackPointExtension></extensions>
      </trkpt>
      <trkpt lat="59.57306762835" lon="17.895887577184">
        <ele>9.4</ele>
        <time>2018-12-15T10:32:59Z</time>
        <extensions><gpxtpx:TrackPointExtension><gpxtpx:hr>111</gpxtpx:hr></gpxtpx:TrackPointExtension></extensions>
      </trkpt>
      <trkpt lat="59.572825475259" lon="17.895957146954">
        <ele>8.2</ele>
        <time>2018-12-15T10:33:02Z</time>
        <extensions><gpxtpx:TrackPointExtension><gpxtpx:hr>110</gpxtpx:hr></gpxtpx:TrackPointExtension></extensions>
      </trkpt>
      <trkpt lat="59.572658926906" lon="17.895973994573">
        <ele>7.4</ele>
        <time>2018-12-15T10:33:04Z</time>
        <extensions><gpxtpx:TrackPointExtension><gpxtpx:hr>114</gpxtpx:hr></gpxtpx:TrackPointExtension></extensions>
      </trkpt>
      <trkpt lat="59.572574688811" lon="17.895976090048">
        <ele>6.8</ele>
        <time>2018-12-15T10:33:05Z</time>
        <extensions><gpxtpx:TrackPointExtension><gpxtpx:hr>116</gpxtpx:hr></gpxtpx:TrackPointExtension></extensions>
      </trkpt>
      <trkpt lat="59.572405039155" lon="17.895968546338">
        <ele>6.6</ele>
        <time>2018-12-15T10:33:07Z</time>
        <extensions><gpxtpx:TrackPointExtension><gpxtpx:hr>120</gpxtpx:hr></gpxtpx:TrackPointExtension></extensions>
      </trkpt>
      <trkpt lat="59.572236562965" lon="17.895953878013">
        <ele>6.4</ele>
        <time>2018-12-15T10:33:09Z</time>
        <extensions><gpxtpx:TrackPointExtension><gpxtpx:hr>123</gpxtpx:hr></gpxtpx:TrackPointExtension></extensions>
      </trkpt>
      <trkpt lat="59.571904639725" lon="17.895868969366">
        <ele>6.2</ele>
        <time>2018-12-15T10:33:13Z</time>
        <extensions><gpxtpx:TrackPointExtension><gpxtpx:hr>126</gpxtpx:hr></gpxtpx:TrackPointExtension></extensions>
      </trkpt>
      <trkpt lat="59.571585456973" lon="17.89571943627">
        <ele>6.2</ele>
        <time>2018-12-15T10:33:17Z</time>
        <extensions><gpxtpx:TrackPointExtension><gpxtpx:hr>130</gpxtpx:hr></gpxtpx:TrackPointExtension></extensions>
      </trkpt>
      <trkpt lat="59.571274404664" lon="17.895509469675">
        <ele>6.2</ele>
        <time>2018-12-15T10:33:21Z</time>
        <extensions><gpxtpx:TrackPointExtension><gpxtpx:hr>133</gpxtpx:hr></gpxtpx:TrackPointExtension></extensions>
      </trkpt>
      <trkpt lat="59.571050356477" lon="17.895333114499">
        <ele>6.2</ele>
        <time>2018-12-15T10:33:24Z</time>
        <extensions><gpxtpx:TrackPointExtension><gpxtpx:hr>136</gpxtpx:hr></gpxtpx:TrackPointExtension></extensions>
      </trkpt>
      <trkpt lat="59.570904427598" lon="17.895211576949">
        <ele>6.4</ele>
        <time>2018-12-15T10:33:26Z</time>
        <extensions><gpxtpx:TrackPointExtension><gpxtpx:hr>139</gpxtpx:hr></gpxtpx:TrackPointExtension></extensions>
      </trkpt>
      <trkpt lat="59.57069555065" lon="17.895027594244">
        <ele>6.6</ele>
        <time>2018-12-15T10:33:29Z</time>
        <extensions><gpxtpx:TrackPointExtension><gpxtpx:hr>142</gpxtpx:hr></gpxtpx:TrackPointExtension></extensions>
      </trkpt>
      <trkpt lat="59.570562026983" lon="17.894909157997">
        <ele>6.8</ele>
        <time>2018-12-15T10:33:31Z</time>
        <extensions><gpxtpx:TrackPointExtension><gpxtpx:hr>145</gpxtpx:hr></gpxtpx:TrackPointExtension></extensions>
      </trkpt>
      <trkpt lat="59.570370500568" lon="17.894741687635">
        <ele>7.2</ele>
        <time>2018-12-15T10:33:34Z</time>
        <extensions><gpxtpx:TrackPointExtension><gpxtpx:hr>148</gpxtpx:hr></gpxtpx:TrackPointExtension></extensions>
      </trkpt>
      <trkpt lat="59.570245610258" lon="17.894641104835">
        <ele>7.6</ele>
        <time>2018-12-15T10:33:36Z</time>
        <extensions><gpxtpx:TrackPointExtension><gpxtpx:hr>151</gpxtpx:hr></gpxtpx:TrackPointExtension></extensions>
      </trkpt>
      <trkpt lat="59.570122396328" lon="17.89454177932">
        <ele>8</ele>
        <time>2018-12-15T10:33:38Z</time>
        <extensions><gpxtpx:TrackPointExtension><gpxtpx:hr>152</gpxtpx:hr></gpxtpx:TrackPointExtension></extensions>
      </trkpt>
      <trkpt lat="59.569883763635" lon="17.89431546802">
        <ele>9.4</ele>
        <time>2018-12-15T10:33:42Z</time>
        <extensions><gpxtpx:TrackPointExtension><gpxtpx:hr>154</gpxtpx:hr></gpxtpx:TrackPointExtension></extensions>
      </trkpt>
      <trkpt lat="59.569658625801" lon="17.894084043761">
        <ele>10.2</ele>
        <time>2018-12-15T10:33:46Z</time>
        <extensions><gpxtpx:TrackPointExtension><gpxtpx:hr>156</gpxtpx:hr></gpxtpx:TrackPointExtension></extensions>
      </trkpt>
      <trkpt lat="59.569493753828" lon="17.893956219786">
        <ele>11.4</ele>
        <time>2018-12-15T10:33:49Z</time>
        <extensions><gpxtpx:TrackPointExtension><gpxtpx:hr>156</gpxtpx:hr></gpxtpx:TrackPointExtension></extensions>
      </trkpt>
      <trkpt lat="59.569439774392" lon="17.89393409157">
        <ele>11.6</ele>
        <time>2018-12-15T10:33:50Z</time>
        <extensions><gpxtpx:TrackPointExtension><gpxtpx:hr>155</gpxtpx:hr></gpxtpx:TrackPointExtension></extensions>
      </trkpt>
      <trkpt lat="59.569278087541" lon="17.893876088822">
        <ele>12.6</ele>
        <time>2018-12-15T10:33:53Z</time>
        <extensions><gpxtpx:TrackPointExtension><gpxtpx:hr>155</gpxtpx:hr></gpxtpx:TrackPointExtension></extensions>
      </trkpt>
      <trkpt lat="59.569176834189" lon="17.893826887069">
        <ele>12.8</ele>
        <time>2018-12-15T10:33:55Z</time>
        <extensions><gpxtpx:TrackPointExtension><gpxtpx:hr>154</gpxtpx:hr></gpxtpx:TrackPointExtension></extensions>
      </trkpt>
      <trkpt lat="59.568896878729" lon="17.893568473092">
        <ele>13.4</ele>
        <time>2018-12-15T10:34:01Z</time>
        <extensions><gpxtpx:TrackPointExtension><gpxtpx:hr>151</gpxtpx:hr></gpxtpx:TrackPointExtension></extensions>
      </trkpt>
      <trkpt lat="59.568775508817" lon="17.893599318484">
        <ele>13.4</ele>
        <time>2018-12-15T10:34:03Z</time>
        <extensions><gpxtpx:TrackPointExtension><gpxtpx:hr>151</gpxtpx:hr></gpxtpx:TrackPointExtension></extensions>
      </trkpt>
      <trkpt lat="59.568211239309" lon="17.893740134404">
        <ele>13.4</ele>
        <time>2018-12-15T10:34:12Z</time>
        <extensions><gpxtpx:TrackPointExtension><gpxtpx:hr>150</gpxtpx:hr></gpxtpx:TrackPointExtension></extensions>
      </trkpt>
      <trkpt lat="59.567649316733" lon="17.893866617275">
        <ele>13.4</ele>
        <time>2018-12-15T10:34:20Z</time>
        <extensions><gpxtpx:TrackPointExtension><gpxtpx:hr>152</gpxtpx:hr></gpxtpx:TrackPointExtension></extensions>
      </trkpt>
      <trkpt lat="59.56711145021" lon="17.894154032626">
        <ele>13.6</ele>
        <time>2018-12-15T10:34:28Z</time>
        <extensions><gpxtpx:TrackPointExtension><gpxtpx:hr>153</gpxtpx:hr></gpxtpx:TrackPointExtension></extensions>
      </trkpt>
      <trkpt lat="59.566919337062" lon="17.894299290953">
        <ele>13.6</ele>
        <time>2018-12-15T10:34:31Z</time>
        <extensions><gpxtpx:TrackPointExtension><gpxtpx:hr>153</gpxtpx:hr></gpxtpx:TrackPointExtension></extensions>
      </trkpt>
      <trkpt lat="59.566383230738" lon="17.894735065934">
        <ele>14</ele>
        <time>2018-12-15T10:34:39Z</time>
        <extensions><gpxtpx:TrackPointExtension><gpxtpx:hr>153</gpxtpx:hr></gpxtpx:TrackPointExtension></extensions>
      </trkpt>
      <trkpt lat="59.565865313137" lon="17.895097247833">
        <ele>13.8</ele>
        <time>2018-12-15T10:34:46Z</time>
        <extensions><gpxtpx:TrackPointExtension><gpxtpx:hr>151</gpxtpx:hr></gpxtpx:TrackPointExtension></extensions>
      </trkpt>
      <trkpt lat="59.565272293712" lon="17.895330013196">
        <ele>13</ele>
        <time>2018-12-15T10:34:53Z</time>
        <extensions><gpxtpx:TrackPointExtension><gpxtpx:hr>148</gpxtpx:hr></gpxtpx:TrackPointExtension></extensions>
      </trkpt>
      <trkpt lat="59.565179170803" lon="17.895349962118">
        <ele>12.6</ele>
        <time>2018-12-15T10:34:54Z</time>
        <extensions><gpxtpx:TrackPointExtension><gpxtpx:hr>147</gpxtpx:hr></gpxtpx:TrackPointExtension></extensions>
      </trkpt>
      <trkpt lat="59.564875913661" lon="17.895393967093">
        <ele>11.6</ele>
        <time>2018-12-15T10:34:57Z</time>
        <extensions><gpxtpx:TrackPointExtension><gpxtpx:hr>145</gpxtpx:hr></gpxtpx:TrackPointExtension></extensions>
      </trkpt>
      <trkpt lat="59.564547427" lon="17.895393464179">
        <ele>10.4</ele>
        <time>2018-12-15T10:35:00Z</time>
        <extensions><gpxtpx:TrackPointExtension><gpxtpx:hr>144</gpxtpx:hr></gpxtpx:TrackPointExtension></extensions>
      </trkpt>
      <trkpt lat="59.564197398856" lon="17.895367228832">
        <ele>9</ele>
        <time>2018-12-15T10:35:03Z</time>
        <extensions><gpxtpx:TrackPointExtension><gpxtpx:hr>144</gpxtpx:hr></gpxtpx:TrackPointExtension></extensions>
      </trkpt>
      <trkpt lat="59.563961783647" lon="17.895344010969">
        <ele>7.2</ele>
        <time>2018-12-15T10:35:05Z</time>
        <extensions><gpxtpx:TrackPointExtension><gpxtpx:hr>142</gpxtpx:hr></gpxtpx:TrackPointExtension></extensions>
      </trkpt>
      <trkpt lat="59.563728263913" lon="17.895322301848">
        <ele>5.4</ele>
        <time>2018-12-15T10:35:07Z</time>
        <extensions><gpxtpx:TrackPointExtension><gpxtpx:hr>138</gpxtpx:hr></gpxtpx:TrackPointExtension></extensions>
      </trkpt>
      <trkpt lat="59.56349801312" lon="17.895300508908">
        <ele>3.6</ele>
        <time>2018-12-15T10:35:09Z</time>
        <extensions><gpxtpx:TrackPointExtension><gpxtpx:hr>135</gpxtpx:hr></gpxtpx:TrackPointExtension></extensions>
      </trkpt>
      <trkpt lat="59.563272120915" lon="17.895281649633">
        <ele>1.8</ele>
        <time>2018-12-15T10:35:11Z</time>
        <extensions><gpxtpx:TrackPointExtension><gpxtpx:hr>135</gpxtpx:hr></gpxtpx:TrackPointExtension></extensions>
      </trkpt>
      <trkpt lat="59.563048575642" lon="17.895263125634">
        <ele>1</ele>
        <time>2018-12-15T10:35:13Z</time>
        <extensions><gpxtpx:TrackPointExtension><gpxtpx:hr>138</gpxtpx:hr></gpxtpx:TrackPointExtension></extensions>
      </trkpt>
      <trkpt lat="59.562937012553" lon="17.89525340263">
        <ele>0.6</ele>
        <time>2018-12-15T10:35:14Z</time>
        <extensions><gpxtpx:TrackPointExtension><gpxtpx:hr>139</gpxtpx:hr></gpxtpx:TrackPointExtension></extensions>
      </trkpt>
      <trkpt lat="59.56260617896" lon="17.895223060152">
        <ele>0</ele>
        <time>2018-12-15T10:35:17Z</time>
        <extensions><gpxtpx:TrackPointExtension><gpxtpx:hr>143</gpxtpx:hr></gpxtpx:TrackPointExtension></extensions>
      </trkpt>
      <trkpt lat="59.562286660932" lon="17.89519556752">
        <ele>0</ele>
        <time>2018-12-15T10:35:20Z</time>
        <extensions><gpxtpx:TrackPointExtension><gpxtpx:hr>146</gpxtpx:hr></gpxtpx:TrackPointExtension></extensions>
      </trkpt>
      <trkpt lat="59.561987175645" lon="17.895169248354">
        <ele>0</ele>
        <time>2018-12-15T10:35:23Z</time>
        <extensions><gpxtpx:TrackPointExtension><gpxtpx:hr>149</gpxtpx:hr></gpxtpx:TrackPointExtension></extensions>
      </trkpt>
      <trkpt lat="59.561536983796" lon="17.895137564772">
        <ele>0</ele>
        <time>2018-12-15T10:35:28Z</time>
        <extensions><gpxtpx:TrackPointExtension><gpxtpx:hr>152</gpxtpx:hr></gpxtpx:TrackPointExtension></extensions>
      </trkpt>
      <trkpt lat="59.561210173515" lon="17.895127422673">
        <ele>0.2</ele>
        <time>2018-12-15T10:35:32Z</time>
        <extensions><gpxtpx:TrackPointExtension><gpxtpx:hr>155</gpxtpx:hr></gpxtpx:TrackPointExtension></extensions>
      </trkpt>
      <trkpt lat="59.561132305664" lon="17.895128009406">
        <ele>0.8</ele>
        <time>2018-12-15T10:35:33Z</time>
        <extensions><gpxtpx:TrackPointExtension><gpxtpx:hr>155</gpxtpx:hr></gpxtpx:TrackPointExtension></extensions>
      </trkpt>
      <trkpt lat="59.560907000192" lon="17.895134966383">
        <ele>1.8</ele>
        <time>2018-12-15T10:35:36Z</time>
        <extensions><gpxtpx:TrackPointExtension><gpxtpx:hr>158</gpxtpx:hr></gpxtpx:TrackPointExtension></extensions>
      </trkpt>
      <trkpt lat="59.560623440515" lon="17.895137816229">
        <ele>3</ele>
        <time>2018-12-15T10:35:40Z</time>
        <extensions><gpxtpx:TrackPointExtension><gpxtpx:hr>161</gpxtpx:hr></gpxtpx:TrackPointExtension></extensions>
      </trkpt>
      <trkpt lat="59.560418419241" lon="17.895157932789">
        <ele>4.2</ele>
        <time>2018-12-15T10:35:43Z</time>
        <extensions><gpxtpx:TrackPointExtension><gpxtpx:hr>162</gpxtpx:hr></gpxtpx:TrackPointExtension></extensions>
      </trkpt>
      <trkpt lat="59.560285817583" lon="17.895170002725">
        <ele>5.2</ele>
        <time>2018-12-15T10:35:45Z</time>
        <extensions><gpxtpx:TrackPointExtension><gpxtpx:hr>162</gpxtpx:hr></gpxtpx:TrackPointExtension></extensions>
      </trkpt>
      <trkpt lat="59.56002623014" lon="17.895195316063">
        <ele>6.4</ele>
        <time>2018-12-15T10:35:49Z</time>
        <extensions><gpxtpx:TrackPointExtension><gpxtpx:hr>163</gpxtpx:hr></gpxtpx:TrackPointExtension></extensions>
      </trkpt>
      <trkpt lat="59.559439748597" lon="17.895267232765">
        <ele>7.6</ele>
        <time>2018-12-15T10:35:58Z</time>
        <extensions><gpxtpx:TrackPointExtension><gpxtpx:hr>165</gpxtpx:hr></gpxtpx:TrackPointExtension></extensions>
      </trkpt>
      <trkpt lat="59.558834407779" lon="17.895326492798">
        <ele>7.8</ele>
        <time>2018-12-15T10:36:07Z</time>
        <extensions><gpxtpx:TrackPointExtension><gpxtpx:hr>164</gpxtpx:hr></gpxtpx:TrackPointExtension></extensions>
      </trkpt>
      <trkpt lat="59.558246920408" lon="17.895396984577">
        <ele>7.4</ele>
        <time>2018-12-15T10:36:15Z</time>
        <extensions><gpxtpx:TrackPointExtension><gpxtpx:hr>162</gpxtpx:hr></gpxtpx:TrackPointExtension></extensions>
      </trkpt>
      <trkpt lat="59.557777953103" lon="17.895453143307">
        <ele>6.4</ele>
        <time>2018-12-15T10:36:21Z</time>
        <extensions><gpxtpx:TrackPointExtension><gpxtpx:hr>160</gpxtpx:hr></gpxtpx:TrackPointExtension></extensions>
      </trkpt>
      <trkpt lat="59.557455669048" lon="17.895484910708">
        <ele>5.2</ele>
        <time>2018-12-15T10:36:25Z</time>
        <extensions><gpxtpx:TrackPointExtension><gpxtpx:hr>157</gpxtpx:hr></gpxtpx:TrackPointExtension></extensions>
      </trkpt>
      <trkpt lat="59.557208486817" lon="17.895512068064">
        <ele>4.2</ele>
        <time>2018-12-15T10:36:28Z</time>
        <extensions><gpxtpx:TrackPointExtension><gpxtpx:hr>156</gpxtpx:hr></gpxtpx:TrackPointExtension></extensions>
      </trkpt>
      <trkpt lat="59.556866756754" lon="17.895552301184">
        <ele>3.2</ele>
        <time>2018-12-15T10:36:32Z</time>
        <extensions><gpxtpx:TrackPointExtension><gpxtpx:hr>155</gpxtpx:hr></gpxtpx:TrackPointExtension></extensions>
      </trkpt>
      <trkpt lat="59.556434166895" lon="17.895592199028">
        <ele>2</ele>
        <time>2018-12-15T10:36:37Z</time>
        <extensions><gpxtpx:TrackPointExtension><gpxtpx:hr>154</gpxtpx:hr></gpxtpx:TrackPointExtension></extensions>
      </trkpt>
      <trkpt lat="59.556178602764" lon="17.89561885347">
        <ele>1</ele>
        <time>2018-12-15T10:36:40Z</time>
        <extensions><gpxtpx:TrackPointExtension><gpxtpx:hr>153</gpxtpx:hr></gpxtpx:TrackPointExtension></extensions>
      </trkpt>
      <trkpt lat="59.555586756805" lon="17.895672246173">
        <ele>0.6</ele>
        <time>2018-12-15T10:36:47Z</time>
        <extensions><gpxtpx:TrackPointExtension><gpxtpx:hr>152</gpxtpx:hr></gpxtpx:TrackPointExtension></extensions>
      </trkpt>
      <trkpt lat="59.554987283317" lon="17.895714490949">
        <ele>0.4</ele>
        <time>2018-12-15T10:36:54Z</time>
        <extensions><gpxtpx:TrackPointExtension><gpxtpx:hr>151</gpxtpx:hr></gpxtpx:TrackPointExtension></extensions>
      </trkpt>
      <trkpt lat="59.554374147332" lon="17.895715329139">
        <ele>0.4</ele>
        <time>2018-12-15T10:37:01Z</time>
        <extensions><gpxtpx:TrackPointExtension><gpxtpx:hr>152</gpxtpx:hr></gpxtpx:TrackPointExtension></extensions>
      </trkpt>
      <trkpt lat="59.553832425135" lon="17.895757741553">
        <ele>0.4</ele>
        <time>2018-12-15T10:37:07Z</time>
        <extensions><gpxtpx:TrackPointExtension><gpxtpx:hr>150</gpxtpx:hr></gpxtpx:TrackPointExtension></extensions>
      </trkpt>
      <trkpt lat="59.55328885892" lon="17.895843236933">
        <ele>0</ele>
        <time>2018-12-15T10:37:13Z</time>
        <extensions><gpxtpx:TrackPointExtension><gpxtpx:hr>149</gpxtpx:hr></gpxtpx:TrackPointExtension></extensions>
      </trkpt>
      <trkpt lat="59.552671448166" lon="17.895958823334">
        <ele>0.2</ele>
        <time>2018-12-15T10:37:20Z</time>
        <extensions><gpxtpx:TrackPointExtension><gpxtpx:hr>148</gpxtpx:hr></gpxtpx:TrackPointExtension></extensions>
      </trkpt>
      <trkpt lat="59.55206761609" lon="17.896027052">
        <ele>0.4</ele>
        <time>2018-12-15T10:37:27Z</time>
        <extensions><gpxtpx:TrackPointExtension><gpxtpx:hr>148</gpxtpx:hr></gpxtpx:TrackPointExtension></extensions>
      </trkpt>
      <trkpt lat="59.551472920285" lon="17.896077259581">
        <ele>0.6</ele>
        <time>2018-12-15T10:37:34Z</time>
        <extensions><gpxtpx:TrackPointExtension><gpxtpx:hr>147</gpxtpx:hr></gpxtpx:TrackPointExtension></extensions>
      </trkpt>
      <trkpt lat="59.550897335212" lon="17.896134759415">
        <ele>0.8</ele>
        <time>2018-12-15T10:37:41Z</time>
        <extensions><gpxtpx:TrackPointExtension><gpxtpx:hr>148</gpxtpx:hr></gpxtpx:TrackPointExtension></extensions>
      </trkpt>
      <trkpt lat="59.55046834957" lon="17.896179099666">
        <ele>1.2</ele>
        <time>2018-12-15T10:37:46Z</time>
        <extensions><gpxtpx:TrackPointExtension><gpxtpx:hr>151</gpxtpx:hr></gpxtpx:TrackPointExtension></extensions>
      </trkpt>
      <trkpt lat="59.55014061728" lon="17.896213046361">
        <ele>1.4</ele>
        <time>2018-12-15T10:37:50Z</time>
        <extensions><gpxtpx:TrackPointExtension><gpxtpx:hr>154</gpxtpx:hr></gpxtpx:TrackPointExtension></extensions>
      </trkpt>
      <trkpt lat="59.549909444478" lon="17.896239868441">
        <ele>2</ele>
        <time>2018-12-15T10:37:53Z</time>
        <extensions><gpxtpx:TrackPointExtension><gpxtpx:hr>157</gpxtpx:hr></gpxtpx:TrackPointExtension></extensions>
      </trkpt>
      <trkpt lat="59.549834594111" lon="17.896248920893">
        <ele>2.2</ele>
        <time>2018-12-15T10:37:54Z</time>
        <extensions><gpxtpx:TrackPointExtension><gpxtpx:hr>157</gpxtpx:hr></gpxtpx:TrackPointExtension></extensions>
      </trkpt>
      <trkpt lat="59.549611635571" lon="17.896288734918">
        <ele>3.2</ele>
        <time>2018-12-15T10:37:57Z</time>
        <extensions><gpxtpx:TrackPointExtension><gpxtpx:hr>160</gpxtpx:hr></gpxtpx:TrackPointExtension></extensions>
      </trkpt>
      <trkpt lat="59.549537455756" lon="17.896303906157">
        <ele>3.4</ele>
        <time>2018-12-15T10:37:58Z</time>
        <extensions><gpxtpx:TrackPointExtension><gpxtpx:hr>161</gpxtpx:hr></gpxtpx:TrackPointExtension></extensions>
      </trkpt>
      <trkpt lat="59.54924543036" lon="17.896383869483">
        <ele>4.4</ele>
        <time>2018-12-15T10:38:02Z</time>
        <extensions><gpxtpx:TrackPointExtension><gpxtpx:hr>162</gpxtpx:hr></gpxtpx:TrackPointExtension></extensions>
      </trkpt>
      <trkpt lat="59.548888026144" lon="17.896523428118">
        <ele>5.6</ele>
        <time>2018-12-15T10:38:07Z</time>
        <extensions><gpxtpx:TrackPointExtension><gpxtpx:hr>164</gpxtpx:hr></gpxtpx:TrackPointExtension></extensions>
      </trkpt>
      <trkpt lat="59.54860170044" lon="17.89666491459">
        <ele>6.8</ele>
        <time>2018-12-15T10:38:11Z</time>
        <extensions><gpxtpx:TrackPointExtension><gpxtpx:hr>164</gpxtpx:hr></gpxtpx:TrackPointExtension></extensions>
      </trkpt>
      <trkpt lat="59.548025696272" lon="17.897035478389">
        <ele>7.6</ele>
        <time>2018-12-15T10:38:19Z</time>
        <extensions><gpxtpx:TrackPointExtension><gpxtpx:hr>164</gpxtpx:hr></gpxtpx:TrackPointExtension></extensions>
      </trkpt>
      <trkpt lat="59.547477436193" lon="17.897520371304">
        <ele>7.8</ele>
        <time>2018-12-15T10:38:27Z</time>
        <extensions><gpxtpx:TrackPointExtension><gpxtpx:hr>162</gpxtpx:hr></gpxtpx:TrackPointExtension></extensions>
      </trkpt>
      <trkpt lat="59.547414069029" lon="17.897595221671">
        <ele>7.8</ele>
        <time>2018-12-15T10:38:28Z</time>
        <extensions><gpxtpx:TrackPointExtension><gpxtpx:hr>161</gpxtpx:hr></gpxtpx:TrackPointExtension></extensions>
      </trkpt>
      <trkpt lat="59.546985502482" lon="17.898200143394">
        <ele>8</ele>
        <time>2018-12-15T10:38:35Z</time>
        <extensions><gpxtpx:TrackPointExtension><gpxtpx:hr>158</gpxtpx:hr></gpxtpx:TrackPointExtension></extensions>
      </trkpt>
      <trkpt lat="59.546725328306" lon="17.898730047112">
        <ele>8.2</ele>
        <time>2018-12-15T10:38:40Z</time>
        <extensions><gpxtpx:TrackPointExtension><gpxtpx:hr>155</gpxtpx:hr></gpxtpx:TrackPointExtension></extensions>
      </trkpt>
      <trkpt lat="59.546586943137" lon="17.899074124107">
        <ele>8</ele>
        <time>2018-12-15T10:38:43Z</time>
        <extensions><gpxtpx:TrackPointExtension><gpxtpx:hr>152</gpxtpx:hr></gpxtpx:TrackPointExtension></extensions>
      </trkpt>
      <trkpt lat="59.546477643161" lon="17.899407053175">
        <ele>7.6</ele>
        <time>2018-12-15T10:38:46Z</time>
        <extensions><gpxtpx:TrackPointExtension><gpxtpx:hr>149</gpxtpx:hr></gpxtpx:TrackPointExtension></extensions>
      </trkpt>
      <trkpt lat="59.546446294855" lon="17.899501852464">
        <ele>7.4</ele>
        <time>2018-12-15T10:38:47Z</time>
        <extensions><gpxtpx:TrackPointExtension><gpxtpx:hr>147</gpxtpx:hr></gpxtpx:TrackPointExtension></extensions>
      </trkpt>
      <trkpt lat="59.546310172799" lon="17.899625904584">
        <ele>7</ele>
        <time>2018-12-15T10:38:50Z</time>
        <extensions><gpxtpx:TrackPointExtension><gpxtpx:hr>143</gpxtpx:hr></gpxtpx:TrackPointExtension></extensions>
      </trkpt>
      <trkpt lat="59.546207494524" lon="17.899565973999">
        <ele>6.8</ele>
        <time>2018-12-15T10:38:52Z</time>
        <extensions><gpxtpx:TrackPointExtension><gpxtpx:hr>141</gpxtpx:hr></gpxtpx:TrackPointExtension></extensions>
      </trkpt>
      <trkpt lat="59.546115209805" lon="17.899444771725">
        <ele>6.8</ele>
        <time>2018-12-15T10:38:54Z</time>
        <extensions><gpxtpx:TrackPointExtension><gpxtpx:hr>139</gpxtpx:hr></gpxtpx:TrackPointExtension></extensions>
      </trkpt>
      <trkpt lat="59.545710280216" lon="17.898974630954">
        <ele>7.6</ele>
        <time>2018-12-15T10:39:04Z</time>
        <extensions><gpxtpx:TrackPointExtension><gpxtpx:hr>142</gpxtpx:hr></gpxtpx:TrackPointExtension></extensions>
      </trkpt>
      <trkpt lat="59.5456462425" lon="17.898879664027">
        <ele>8</ele>
        <time>2018-12-15T10:39:06Z</time>
        <extensions><gpxtpx:TrackPointExtension><gpxtpx:hr>144</gpxtpx:hr></gpxtpx:TrackPointExtension></extensions>
      </trkpt>
      <trkpt lat="59.54555655617" lon="17.898732226406">
        <ele>8.8</ele>
        <time>2018-12-15T10:39:09Z</time>
        <extensions><gpxtpx:TrackPointExtension><gpxtpx:hr>147</gpxtpx:hr></gpxtpx:TrackPointExtension></extensions>
      </trkpt>
      <trkpt lat="59.545528309167" lon="17.898680510083">
        <ele>9.4</ele>
        <time>2018-12-15T10:39:10Z</time>
        <extensions><gpxtpx:TrackPointExtension><gpxtpx:hr>148</gpxtpx:hr></gpxtpx:TrackPointExtension></extensions>
      </trkpt>
      <trkpt lat="59.545451614782" lon="17.898509016409">
        <ele>10.6</ele>
        <time>2018-12-15T10:39:13Z</time>
        <extensions><gpxtpx:TrackPointExtension><gpxtpx:hr>150</gpxtpx:hr></gpxtpx:TrackPointExtension></extensions>
      </trkpt>
      <trkpt lat="59.545384643401" lon="17.898328051188">
        <ele>11.8</ele>
        <time>2018-12-15T10:39:16Z</time>
        <extensions><gpxtpx:TrackPointExtension><gpxtpx:hr>153</gpxtpx:hr></gpxtpx:TrackPointExtension></extensions>
      </trkpt>
      <trkpt lat="59.54532018659" lon="17.898146415415">
        <ele>13.2</ele>
        <time>2018-12-15T10:39:19Z</time>
        <extensions><gpxtpx:TrackPointExtension><gpxtpx:hr>156</gpxtpx:hr></gpxtpx:TrackPointExtension></extensions>
      </trkpt>
      <trkpt lat="59.545268554086" lon="17.897960923968">
        <ele>14.2</ele>
        <time>2018-12-15T10:39:22Z</time>
        <extensions><gpxtpx:TrackPointExtension><gpxtpx:hr>158</gpxtpx:hr></gpxtpx:TrackPointExtension></extensions>
      </trkpt>
      <trkpt lat="59.545225638758" lon="17.897764871327">
        <ele>15.6</ele>
        <time>2018-12-15T10:39:25Z</time>
        <extensions><gpxtpx:TrackPointExtension><gpxtpx:hr>159</gpxtpx:hr></gpxtpx:TrackPointExtension></extensions>
      </trkpt>
      <trkpt lat="59.545194206633" lon="17.897543756805">
        <ele>16.6</ele>
        <time>2018-12-15T10:39:28Z</time>
        <extensions><gpxtpx:TrackPointExtension><gpxtpx:hr>160</gpxtpx:hr></gpxtpx:TrackPointExtension></extensions>
      </trkpt>
      <trkpt lat="59.545161433404" lon="17.897311326718">
        <ele>17.8</ele>
        <time>2018-12-15T10:39:31Z</time>
        <extensions><gpxtpx:TrackPointExtension><gpxtpx:hr>161</gpxtpx:hr></gpxtpx:TrackPointExtension></extensions>
      </trkpt>
      <trkpt lat="59.545146094527" lon="17.897151400066">
        <ele>18.8</ele>
        <time>2018-12-15T10:39:33Z</time>
        <extensions><gpxtpx:TrackPointExtension><gpxtpx:hr>162</gpxtpx:hr></gpxtpx:TrackPointExtension></extensions>
      </trkpt>
      <trkpt lat="59.545138215541" lon="17.896908576423">
        <ele>19.8</ele>
        <time>2018-12-15T10:39:36Z</time>
        <extensions><gpxtpx:TrackPointExtension><gpxtpx:hr>163</gpxtpx:hr></gpxtpx:TrackPointExtension></extensions>
      </trkpt>
      <trkpt lat="59.545144334328" lon="17.896568438921">
        <ele>21.2</ele>
        <time>2018-12-15T10:39:40Z</time>
        <extensions><gpxtpx:TrackPointExtension><gpxtpx:hr>165</gpxtpx:hr></gpxtpx:TrackPointExtension></extensions>
      </trkpt>
      <trkpt lat="59.545187333475" lon="17.896092095544">
        <ele>22.2</ele>
        <time>2018-12-15T10:39:45Z</time>
        <extensions><gpxtpx:TrackPointExtension><gpxtpx:hr>165</gpxtpx:hr></gpxtpx:TrackPointExtension></extensions>
      </trkpt>
      <trkpt lat="59.54530090822" lon="17.895472505496">
        <ele>22.4</ele>
        <time>2018-12-15T10:39:51Z</time>
        <extensions><gpxtpx:TrackPointExtension><gpxtpx:hr>165</gpxtpx:hr></gpxtpx:TrackPointExtension></extensions>
      </trkpt>
      <trkpt lat="59.545693097321" lon="17.894619814809">
        <ele>21.8</ele>
        <time>2018-12-15T10:39:59Z</time>
        <extensions><gpxtpx:TrackPointExtension><gpxtpx:hr>163</gpxtpx:hr></gpxtpx:TrackPointExtension></extensions>
      </trkpt>
      <trkpt lat="59.545836763087" lon="17.894416218458">
        <ele>21</ele>
        <time>2018-12-15T10:40:01Z</time>
        <extensions><gpxtpx:TrackPointExtension><gpxtpx:hr>162</gpxtpx:hr></gpxtpx:TrackPointExtension></extensions>
      </trkpt>
      <trkpt lat="59.54605611741" lon="17.894121091759">
        <ele>19.4</ele>
        <time>2018-12-15T10:40:04Z</time>
        <extensions><gpxtpx:TrackPointExtension><gpxtpx:hr>160</gpxtpx:hr></gpxtpx:TrackPointExtension></extensions>
      </trkpt>
      <trkpt lat="59.546126860646" lon="17.894028304126">
        <ele>18</ele>
        <time>2018-12-15T10:40:05Z</time>
        <extensions><gpxtpx:TrackPointExtension><gpxtpx:hr>159</gpxtpx:hr></gpxtpx:TrackPointExtension></extensions>
      </trkpt>
      <trkpt lat="59.546196765692" lon="17.893933337199">
        <ele>16.6</ele>
        <time>2018-12-15T10:40:06Z</time>
        <extensions><gpxtpx:TrackPointExtension><gpxtpx:hr>158</gpxtpx:hr></gpxtpx:TrackPointExtension></extensions>
      </trkpt>
      <trkpt lat="59.546267089833" lon="17.893833844046">
        <ele>15.6</ele>
        <time>2018-12-15T10:40:07Z</time>
        <extensions><gpxtpx:TrackPointExtension><gpxtpx:hr>157</gpxtpx:hr></gpxtpx:TrackPointExtension></extensions>
      </trkpt>
      <trkpt lat="59.546402960432" lon="17.893629241867">
        <ele>13.6</ele>
        <time>2018-12-15T10:40:09Z</time>
        <extensions><gpxtpx:TrackPointExtension><gpxtpx:hr>155</gpxtpx:hr></gpxtpx:TrackPointExtension></extensions>
      </trkpt>
      <trkpt lat="59.546592223734" lon="17.893308718011">
        <ele>12.6</ele>
        <time>2018-12-15T10:40:12Z</time>
        <extensions><gpxtpx:TrackPointExtension><gpxtpx:hr>152</gpxtpx:hr></gpxtpx:TrackPointExtension></extensions>
      </trkpt>
      <trkpt lat="59.546780229751" lon="17.892986014861">
        <ele>12.4</ele>
        <time>2018-12-15T10:40:15Z</time>
        <extensions><gpxtpx:TrackPointExtension><gpxtpx:hr>148</gpxtpx:hr></gpxtpx:TrackPointExtension></extensions>
      </trkpt>
      <trkpt lat="59.547197061638" lon="17.892249664946">
        <ele>12.8</ele>
        <time>2018-12-15T10:40:22Z</time>
        <extensions><gpxtpx:TrackPointExtension><gpxtpx:hr>147</gpxtpx:hr></gpxtpx:TrackPointExtension></extensions>
      </trkpt>
      <trkpt lat="59.547374422642" lon="17.891940205198">
        <ele>13.8</ele>
        <time>2018-12-15T10:40:25Z</time>
        <extensions><gpxtpx:TrackPointExtension><gpxtpx:hr>147</gpxtpx:hr></gpxtpx:TrackPointExtension></extensions>
      </trkpt>
      <trkpt lat="59.547786728303" lon="17.891214248839">
        <ele>14</ele>
        <time>2018-12-15T10:40:32Z</time>
        <extensions><gpxtpx:TrackPointExtension><gpxtpx:hr>145</gpxtpx:hr></gpxtpx:TrackPointExtension></extensions>
      </trkpt>
      <trkpt lat="59.548205823303" lon="17.8904782342">
        <ele>13.8</ele>
        <time>2018-12-15T10:40:39Z</time>
        <extensions><gpxtpx:TrackPointExtension><gpxtpx:hr>144</gpxtpx:hr></gpxtpx:TrackPointExtension></extensions>
      </trkpt>
      <trkpt lat="59.548625756493" lon="17.889746159054">
        <ele>13.2</ele>
        <time>2018-12-15T10:40:46Z</time>
        <extensions><gpxtpx:TrackPointExtension><gpxtpx:hr>143</gpxtpx:hr></gpxtpx:TrackPointExtension></extensions>
      </trkpt>
      <trkpt lat="59.548882326452" lon="17.889305187295">
        <ele>12.6</ele>
        <time>2018-12-15T10:40:50Z</time>
        <extensions><gpxtpx:TrackPointExtension><gpxtpx:hr>140</gpxtpx:hr></gpxtpx:TrackPointExtension></extensions>
      </trkpt>
      <trkpt lat="59.549129676321" lon="17.888868238848">
        <ele>11.6</ele>
        <time>2018-12-15T10:40:54Z</time>
        <extensions><gpxtpx:TrackPointExtension><gpxtpx:hr>139</gpxtpx:hr></gpxtpx:TrackPointExtension></extensions>
      </trkpt>
      <trkpt lat="59.549445841589" lon="17.888331210515">
        <ele>10.4</ele>
        <time>2018-12-15T10:40:59Z</time>
        <extensions><gpxtpx:TrackPointExtension><gpxtpx:hr>137</gpxtpx:hr></gpxtpx:TrackPointExtension></extensions>
      </trkpt>
      <trkpt lat="59.549768125644" lon="17.887611205305">
        <ele>9.8</ele>
        <time>2018-12-15T10:41:05Z</time>
        <extensions><gpxtpx:TrackPointExtension><gpxtpx:hr>134</gpxtpx:hr></gpxtpx:TrackPointExtension></extensions>
      </trkpt>
      <trkpt lat="59.549938529671" lon="17.887256315659">
        <ele>9.4</ele>
        <time>2018-12-15T10:41:08Z</time>
        <extensions><gpxtpx:TrackPointExtension><gpxtpx:hr>132</gpxtpx:hr></gpxtpx:TrackPointExtension></extensions>
      </trkpt>
      <trkpt lat="59.550409592451" lon="17.886611831368">
        <ele>8.6</ele>
        <time>2018-12-15T10:41:15Z</time>
        <extensions><gpxtpx:TrackPointExtension><gpxtpx:hr>133</gpxtpx:hr></gpxtpx:TrackPointExtension></extensions>
      </trkpt>
      <trkpt lat="59.55095617615" lon="17.886256103532">
        <ele>8.6</ele>
        <time>2018-12-15T10:41:22Z</time>
        <extensions><gpxtpx:TrackPointExtension><gpxtpx:hr>134</gpxtpx:hr></gpxtpx:TrackPointExtension></extensions>
      </trkpt>
      <trkpt lat="59.551119790838" lon="17.886226431606">
        <ele>8.2</ele>
        <time>2018-12-15T10:41:24Z</time>
        <extensions><gpxtpx:TrackPointExtension><gpxtpx:hr>134</gpxtpx:hr></gpxtpx:TrackPointExtension></extensions>
      </trkpt>
      <trkpt lat="59.551456994675" lon="17.886247386356">
        <ele>7</ele>
        <time>2018-12-15T10:41:28Z</time>
        <extensions><gpxtpx:TrackPointExtension><gpxtpx:hr>134</gpxtpx:hr></gpxtpx:TrackPointExtension></extensions>
      </trkpt>
      <trkpt lat="59.551625638503" lon="17.886292983892">
        <ele>6.4</ele>
        <time>2018-12-15T10:41:30Z</time>
        <extensions><gpxtpx:TrackPointExtension><gpxtpx:hr>134</gpxtpx:hr></gpxtpx:TrackPointExtension></extensions>
      </trkpt>
      <trkpt lat="59.551712474987" lon="17.886339838713">
        <ele>5.8</ele>
        <time>2018-12-15T10:41:31Z</time>
        <extensions><gpxtpx:TrackPointExtension><gpxtpx:hr>133</gpxtpx:hr></gpxtpx:TrackPointExtension></extensions>
      </trkpt>
      <trkpt lat="59.551955969182" lon="17.886617614879">
        <ele>4.6</ele>
        <time>2018-12-15T10:41:34Z</time>
        <extensions><gpxtpx:TrackPointExtension><gpxtpx:hr>134</gpxtpx:hr></gpxtpx:TrackPointExtension></extensions>
      </trkpt>
      <trkpt lat="59.552098293844" lon="17.886868233689">
        <ele>4</ele>
        <time>2018-12-15T10:41:36Z</time>
        <extensions><gpxtpx:TrackPointExtension><gpxtpx:hr>136</gpxtpx:hr></gpxtpx:TrackPointExtension></extensions>
      </trkpt>
      <trkpt lat="59.55223273952" lon="17.88711541592">
        <ele>3.4</ele>
        <time>2018-12-15T10:41:38Z</time>
        <extensions><gpxtpx:TrackPointExtension><gpxtpx:hr>136</gpxtpx:hr></gpxtpx:TrackPointExtension></extensions>
      </trkpt>
      <trkpt lat="59.552574469583" lon="17.887618078463">
        <ele>2.4</ele>
        <time>2018-12-15T10:41:43Z</time>
        <extensions><gpxtpx:TrackPointExtension><gpxtpx:hr>137</gpxtpx:hr></gpxtpx:TrackPointExtension></extensions>
      </trkpt>
      <trkpt lat="59.552816203579" lon="17.887808934326">
        <ele>1.2</ele>
        <time>2018-12-15T10:41:46Z</time>
        <extensions><gpxtpx:TrackPointExtension><gpxtpx:hr>139</gpxtpx:hr></gpxtpx:TrackPointExtension></extensions>
      </trkpt>
      <trkpt lat="59.55309188427" lon="17.887962574553">
        <ele>0.6</ele>
        <time>2018-12-15T10:41:49Z</time>
        <extensions><gpxtpx:TrackPointExtension><gpxtpx:hr>141</gpxtpx:hr></gpxtpx:TrackPointExtension></extensions>
      </trkpt>
      <trkpt lat="59.553444175527" lon="17.888156364081">
        <ele>0.4</ele>
        <time>2018-12-15T10:41:53Z</time>
        <extensions><gpxtpx:TrackPointExtension><gpxtpx:hr>144</gpxtpx:hr></gpxtpx:TrackPointExtension></extensions>
      </trkpt>
      <trkpt lat="59.553747516488" lon="17.888318721484">
        <ele>0.4</ele>
        <time>2018-12-15T10:41:57Z</time>
        <extensions><gpxtpx:TrackPointExtension><gpxtpx:hr>147</gpxtpx:hr></gpxtpx:TrackPointExtension></extensions>
      </trkpt>
      <trkpt lat="59.554019592962" lon="17.888438834111">
        <ele>1.2</ele>
        <time>2018-12-15T10:42:01Z</time>
        <extensions><gpxtpx:TrackPointExtension><gpxtpx:hr>150</gpxtpx:hr></gpxtpx:TrackPointExtension></extensions>
      </trkpt>
      <trkpt lat="59.554214388318" lon="17.888488035864">
        <ele>2.4</ele>
        <time>2018-12-15T10:42:04Z</time>
        <extensions><gpxtpx:TrackPointExtension><gpxtpx:hr>152</gpxtpx:hr></gpxtpx:TrackPointExtension></extensions>
      </trkpt>
      <trkpt lat="59.554460564721" lon="17.888546876802">
        <ele>3.8</ele>
        <time>2018-12-15T10:42:09Z</time>
        <extensions><gpxtpx:TrackPointExtension><gpxtpx:hr>154</gpxtpx:hr></gpxtpx:TrackPointExtension></extensions>
      </trkpt>
      <trkpt lat="59.554549412861" lon="17.8885001058">
        <ele>5.2</ele>
        <time>2018-12-15T10:42:11Z</time>
        <extensions><gpxtpx:TrackPointExtension><gpxtpx:hr>154</gpxtpx:hr></gpxtpx:TrackPointExtension></extensions>
      </trkpt>
      <trkpt lat="59.554677320655" lon="17.888250911913">
        <ele>6.2</ele>
        <time>2018-12-15T10:42:14Z</time>
        <extensions><gpxtpx:TrackPointExtension><gpxtpx:hr>154</gpxtpx:hr></gpxtpx:TrackPointExtension></extensions>
      </trkpt>
      <trkpt lat="59.55473976581" lon="17.888028037192">
        <ele>6.4</ele>
        <time>2018-12-15T10:42:16Z</time>
        <extensions><gpxtpx:TrackPointExtension><gpxtpx:hr>153</gpxtpx:hr></gpxtpx:TrackPointExtension></extensions>
      </trkpt>
      <trkpt lat="59.554765162967" lon="17.887906834918">
        <ele>6.4</ele>
        <time>2018-12-15T10:42:17Z</time>
        <extensions><gpxtpx:TrackPointExtension><gpxtpx:hr>153</gpxtpx:hr></gpxtpx:TrackPointExtension></extensions>
      </trkpt>
      <trkpt lat="59.554885443232" lon="17.886909724094">
        <ele>6</ele>
        <time>2018-12-15T10:42:23Z</time>
        <extensions><gpxtpx:TrackPointExtension><gpxtpx:hr>153</gpxtpx:hr></gpxtpx:TrackPointExtension></extensions>
      </trkpt>
      <trkpt lat="59.554988456783" lon="17.886425920826">
        <ele>5.2</ele>
        <time>2018-12-15T10:42:26Z</time>
        <extensions><gpxtpx:TrackPointExtension><gpxtpx:hr>153</gpxtpx:hr></gpxtpx:TrackPointExtension></extensions>
      </trkpt>
      <trkpt lat="59.555074790353" lon="17.886152587067">
        <ele>3.8</ele>
        <time>2018-12-15T10:42:28Z</time>
        <extensions><gpxtpx:TrackPointExtension><gpxtpx:hr>153</gpxtpx:hr></gpxtpx:TrackPointExtension></extensions>
      </trkpt>
      <trkpt lat="59.555123153916" lon="17.886024846911">
        <ele>3.4</ele>
        <time>2018-12-15T10:42:29Z</time>
        <extensions><gpxtpx:TrackPointExtension><gpxtpx:hr>153</gpxtpx:hr></gpxtpx:TrackPointExtension></extensions>
      </trkpt>
      <trkpt lat="59.555176295162" lon="17.885904063732">
        <ele>2.6</ele>
        <time>2018-12-15T10:42:30Z</time>
        <extensions><gpxtpx:TrackPointExtension><gpxtpx:hr>153</gpxtpx:hr></gpxtpx:TrackPointExtension></extensions>
      </trkpt>
      <trkpt lat="59.555360361686" lon="17.885621928978">
        <ele>2</ele>
        <time>2018-12-15T10:42:33Z</time>
        <extensions><gpxtpx:TrackPointExtension><gpxtpx:hr>152</gpxtpx:hr></gpxtpx:TrackPointExtension></extensions>
      </trkpt>
      <trkpt lat="59.555764536904" lon="17.884982138551">
        <ele>2.4</ele>
        <time>2018-12-15T10:42:41Z</time>
        <extensions><gpxtpx:TrackPointExtension><gpxtpx:hr>150</gpxtpx:hr></gpxtpx:TrackPointExtension></extensions>
      </trkpt>
      <trkpt lat="59.555947094686" lon="17.884476626162">
        <ele>4.6</ele>
        <time>2018-12-15T10:42:47Z</time>
        <extensions><gpxtpx:TrackPointExtension><gpxtpx:hr>153</gpxtpx:hr></gpxtpx:TrackPointExtension></extensions>
      </trkpt>
      <trkpt lat="59.556013311696" lon="17.884224247153">
        <ele>6</ele>
        <time>2018-12-15T10:42:50Z</time>
        <extensions><gpxtpx:TrackPointExtension><gpxtpx:hr>155</gpxtpx:hr></gpxtpx:TrackPointExtension></extensions>
      </trkpt>
      <trkpt lat="59.556060082698" lon="17.883948566462">
        <ele>7.4</ele>
        <time>2018-12-15T10:42:53Z</time>
        <extensions><gpxtpx:TrackPointExtension><gpxtpx:hr>157</gpxtpx:hr></gpxtpx:TrackPointExtension></extensions>
      </trkpt>
      <trkpt lat="59.556083049104" lon="17.883727954854">
        <ele>8.6</ele>
        <time>2018-12-15T10:42:55Z</time>
        <extensions><gpxtpx:TrackPointExtension><gpxtpx:hr>159</gpxtpx:hr></gpxtpx:TrackPointExtension></extensions>
      </trkpt>
      <trkpt lat="59.556086485683" lon="17.882971656017">
        <ele>9.4</ele>
        <time>2018-12-15T10:43:01Z</time>
        <extensions><gpxtpx:TrackPointExtension><gpxtpx:hr>162</gpxtpx:hr></gpxtpx:TrackPointExtension></extensions>
      </trkpt>
      <trkpt lat="59.556056646119" lon="17.881876057868">
        <ele>9</ele>
        <time>2018-12-15T10:43:09Z</time>
        <extensions><gpxtpx:TrackPointExtension><gpxtpx:hr>161</gpxtpx:hr></gpxtpx:TrackPointExtension></extensions>
      </trkpt>
      <trkpt lat="59.556067626408" lon="17.880850280946">
        <ele>8.4</ele>
        <time>2018-12-15T10:43:15Z</time>
        <extensions><gpxtpx:TrackPointExtension><gpxtpx:hr>158</gpxtpx:hr></gpxtpx:TrackPointExtension></extensions>
      </trkpt>
      <trkpt lat="59.555936449673" lon="17.880185680095">
        <ele>7.6</ele>
        <time>2018-12-15T10:43:19Z</time>
        <extensions><gpxtpx:TrackPointExtension><gpxtpx:hr>156</gpxtpx:hr></gpxtpx:TrackPointExtension></extensions>
      </trkpt>
      <trkpt lat="59.555890516861" lon="17.88004109232">
        <ele>7</ele>
        <time>2018-12-15T10:43:20Z</time>
        <extensions><gpxtpx:TrackPointExtension><gpxtpx:hr>154</gpxtpx:hr></gpxtpx:TrackPointExtension></extensions>
      </trkpt>
      <trkpt lat="59.555804183291" lon="17.879769351122">
        <ele>5.4</ele>
        <time>2018-12-15T10:43:22Z</time>
        <extensions><gpxtpx:TrackPointExtension><gpxtpx:hr>154</gpxtpx:hr></gpxtpx:TrackPointExtension></extensions>
      </trkpt>
      <trkpt lat="59.55576990132" lon="17.879629624849">
        <ele>5.2</ele>
        <time>2018-12-15T10:43:23Z</time>
        <extensions><gpxtpx:TrackPointExtension><gpxtpx:hr>153</gpxtpx:hr></gpxtpx:TrackPointExtension></extensions>
      </trkpt>
      <trkpt lat="59.555740397032" lon="17.878963515256">
        <ele>4.4</ele>
        <time>2018-12-15T10:43:27Z</time>
        <extensions><gpxtpx:TrackPointExtension><gpxtpx:hr>152</gpxtpx:hr></gpxtpx:TrackPointExtension></extensions>
      </trkpt>
      <trkpt lat="59.555838297624" lon="17.877748977946">
        <ele>3.4</ele>
        <time>2018-12-15T10:43:34Z</time>
        <extensions><gpxtpx:TrackPointExtension><gpxtpx:hr>150</gpxtpx:hr></gpxtpx:TrackPointExtension></extensions>
      </trkpt>
      <trkpt lat="59.555857156899" lon="17.877579076833">
        <ele>3.4</ele>
        <time>2018-12-15T10:43:35Z</time>
        <extensions><gpxtpx:TrackPointExtension><gpxtpx:hr>149</gpxtpx:hr></gpxtpx:TrackPointExtension></extensions>
      </trkpt>
      <trkpt lat="59.555966708332" lon="17.876537122844">
        <ele>2.4</ele>
        <time>2018-12-15T10:43:42Z</time>
        <extensions><gpxtpx:TrackPointExtension><gpxtpx:hr>148</gpxtpx:hr></gpxtpx:TrackPointExtension></extensions>
      </trkpt>
      <trkpt lat="59.55599202167" lon="17.876315756865">
        <ele>2.4</ele>
        <time>2018-12-15T10:43:44Z</time>
        <extensions><gpxtpx:TrackPointExtension><gpxtpx:hr>149</gpxtpx:hr></gpxtpx:TrackPointExtension></extensions>
      </trkpt>
      <trkpt lat="59.556103081845" lon="17.875854081813">
        <ele>3.2</ele>
        <time>2018-12-15T10:43:48Z</time>
        <extensions><gpxtpx:TrackPointExtension><gpxtpx:hr>150</gpxtpx:hr></gpxtpx:TrackPointExtension></extensions>
      </trkpt>
      <trkpt lat="59.556221601911" lon="17.875525595152">
        <ele>5</ele>
        <time>2018-12-15T10:43:51Z</time>
        <extensions><gpxtpx:TrackPointExtension><gpxtpx:hr>152</gpxtpx:hr></gpxtpx:TrackPointExtension></extensions>
      </trkpt>
      <trkpt lat="59.556310198594" lon="17.875310431779">
        <ele>6</ele>
        <time>2018-12-15T10:43:53Z</time>
        <extensions><gpxtpx:TrackPointExtension><gpxtpx:hr>153</gpxtpx:hr></gpxtpx:TrackPointExtension></extensions>
      </trkpt>
      <trkpt lat="59.556467945952" lon="17.875024441351">
        <ele>6.8</ele>
        <time>2018-12-15T10:43:56Z</time>
        <extensions><gpxtpx:TrackPointExtension><gpxtpx:hr>156</gpxtpx:hr></gpxtpx:TrackPointExtension></extensions>
      </trkpt>
      <trkpt lat="59.556660562014" lon="17.874801734268">
        <ele>7.2</ele>
        <time>2018-12-15T10:43:59Z</time>
        <extensions><gpxtpx:TrackPointExtension><gpxtpx:hr>158</gpxtpx:hr></gpxtpx:TrackPointExtension></extensions>
      </trkpt>
      <trkpt lat="59.556968093925" lon="17.874394122471">
        <ele>7.2</ele>
        <time>2018-12-15T10:44:04Z</time>
        <extensions><gpxtpx:TrackPointExtension><gpxtpx:hr>161</gpxtpx:hr></gpxtpx:TrackPointExtension></extensions>
      </trkpt>
      <trkpt lat="59.557339495914" lon="17.873819794683">
        <ele>7.6</ele>
        <time>2018-12-15T10:44:11Z</time>
        <extensions><gpxtpx:TrackPointExtension><gpxtpx:hr>161</gpxtpx:hr></gpxtpx:TrackPointExtension></extensions>
      </trkpt>
      <trkpt lat="59.557657086105" lon="17.873625753698">
        <ele>8.2</ele>
        <time>2018-12-15T10:44:16Z</time>
        <extensions><gpxtpx:TrackPointExtension><gpxtpx:hr>162</gpxtpx:hr></gpxtpx:TrackPointExtension></extensions>
      </trkpt>
      <trkpt lat="59.558188330927" lon="17.873191655097">
        <ele>8.6</ele>
        <time>2018-12-15T10:44:24Z</time>
        <extensions><gpxtpx:TrackPointExtension><gpxtpx:hr>163</gpxtpx:hr></gpxtpx:TrackPointExtension></extensions>
      </trkpt>
      <trkpt lat="59.55858119058" lon="17.872583212976">
        <ele>9.2</ele>
        <time>2018-12-15T10:44:32Z</time>
        <extensions><gpxtpx:TrackPointExtension><gpxtpx:hr>163</gpxtpx:hr></gpxtpx:TrackPointExtension></extensions>
      </trkpt>
      <trkpt lat="59.558866342818" lon="17.872110222359">
        <ele>10.8</ele>
        <time>2018-12-15T10:44:38Z</time>
        <extensions><gpxtpx:TrackPointExtension><gpxtpx:hr>165</gpxtpx:hr></gpxtpx:TrackPointExtension></extensions>
      </trkpt>
      <trkpt lat="59.558915712209" lon="17.872006370618">
        <ele>11.2</ele>
        <time>2018-12-15T10:44:39Z</time>
        <extensions><gpxtpx:TrackPointExtension><gpxtpx:hr>165</gpxtpx:hr></gpxtpx:TrackPointExtension></extensions>
      </trkpt>
      <trkpt lat="59.55917965824" lon="17.871459451643">
        <ele>11.6</ele>
        <time>2018-12-15T10:44:44Z</time>
        <extensions><gpxtpx:TrackPointExtension><gpxtpx:hr>165</gpxtpx:hr></gpxtpx:TrackPointExtension></extensions>
      </trkpt>
      <trkpt lat="59.559739736798" lon="17.870949664485">
        <ele>10.4</ele>
        <time>2018-12-15T10:44:51Z</time>
        <extensions><gpxtpx:TrackPointExtension><gpxtpx:hr>166</gpxtpx:hr></gpxtpx:TrackPointExtension></extensions>
      </trkpt>
      <trkpt lat="59.559896813604" lon="17.870788732005">
        <ele>9.6</ele>
        <time>2018-12-15T10:44:53Z</time>
        <extensions><gpxtpx:TrackPointExtension><gpxtpx:hr>165</gpxtpx:hr></gpxtpx:TrackPointExtension></extensions>
      </trkpt>
      <trkpt lat="59.560118095764" lon="17.870544902534">
        <ele>8.8</ele>
        <time>2018-12-15T10:44:56Z</time>
        <extensions><gpxtpx:TrackPointExtension><gpxtpx:hr>165</gpxtpx:hr></gpxtpx:TrackPointExtension></extensions>
      </trkpt>
      <trkpt lat="59.560580357549" lon="17.870545489267">
        <ele>8.8</ele>
        <time>2018-12-15T10:45:02Z</time>
        <extensions><gpxtpx:TrackPointExtension><gpxtpx:hr>164</gpxtpx:hr></gpxtpx:TrackPointExtension></extensions>
      </trkpt>
      <trkpt lat="59.560731567025" lon="17.870629308267">
        <ele>8.6</ele>
        <time>2018-12-15T10:45:04Z</time>
        <extensions><gpxtpx:TrackPointExtension><gpxtpx:hr>163</gpxtpx:hr></gpxtpx:TrackPointExtension></extensions>
      </trkpt>
      <trkpt lat="59.560806501211" lon="17.870654034872">
        <ele>8.6</ele>
        <time>2018-12-15T10:45:05Z</time>
        <extensions><gpxtpx:TrackPointExtension><gpxtpx:hr>163</gpxtpx:hr></gpxtpx:TrackPointExtension></extensions>
      </trkpt>
      <trkpt lat="59.561346463209" lon="17.870551356597">
        <ele>9</ele>
        <time>2018-12-15T10:45:12Z</time>
        <extensions><gpxtpx:TrackPointExtension><gpxtpx:hr>162</gpxtpx:hr></gpxtpx:TrackPointExtension></extensions>
      </trkpt>
      <trkpt lat="59.561716356456" lon="17.870377013077">
        <ele>9</ele>
        <time>2018-12-15T10:45:17Z</time>
        <extensions><gpxtpx:TrackPointExtension><gpxtpx:hr>161</gpxtpx:hr></gpxtpx:TrackPointExtension></extensions>
      </trkpt>
      <trkpt lat="59.56196328723" lon="17.870049280787">
        <ele>9.4</ele>
        <time>2018-12-15T10:45:21Z</time>
        <extensions><gpxtpx:TrackPointExtension><gpxtpx:hr>161</gpxtpx:hr></gpxtpx:TrackPointExtension></extensions>
      </trkpt>
      <trkpt lat="59.562321948731" lon="17.869215784651">
        <ele>9</ele>
        <time>2018-12-15T10:45:28Z</time>
        <extensions><gpxtpx:TrackPointExtension><gpxtpx:hr>160</gpxtpx:hr></gpxtpx:TrackPointExtension></extensions>
      </trkpt>
      <trkpt lat="59.562775325702" lon="17.86853693457">
        <ele>8.8</ele>
        <time>2018-12-15T10:45:35Z</time>
        <extensions><gpxtpx:TrackPointExtension><gpxtpx:hr>158</gpxtpx:hr></gpxtpx:TrackPointExtension></extensions>
      </trkpt>
      <trkpt lat="59.563353090069" lon="17.868164275296">
        <ele>8.2</ele>
        <time>2018-12-15T10:45:42Z</time>
        <extensions><gpxtpx:TrackPointExtension><gpxtpx:hr>156</gpxtpx:hr></gpxtpx:TrackPointExtension></extensions>
      </trkpt>
      <trkpt lat="59.56343179611" lon="17.868086575083">
        <ele>8</ele>
        <time>2018-12-15T10:45:43Z</time>
        <extensions><gpxtpx:TrackPointExtension><gpxtpx:hr>155</gpxtpx:hr></gpxtpx:TrackPointExtension></extensions>
      </trkpt>
      <trkpt lat="59.563571103288" lon="17.867896976505">
        <ele>7.2</ele>
        <time>2018-12-15T10:45:45Z</time>
        <extensions><gpxtpx:TrackPointExtension><gpxtpx:hr>155</gpxtpx:hr></gpxtpx:TrackPointExtension></extensions>
      </trkpt>
      <trkpt lat="59.563984498596" lon="17.867171690698">
        <ele>6.8</ele>
        <time>2018-12-15T10:45:52Z</time>
        <extensions><gpxtpx:TrackPointExtension><gpxtpx:hr>155</gpxtpx:hr></gpxtpx:TrackPointExtension></extensions>
      </trkpt>
      <trkpt lat="59.564322205347" lon="17.866322017495">
        <ele>7.2</ele>
        <time>2018-12-15T10:45:59Z</time>
        <extensions><gpxtpx:TrackPointExtension><gpxtpx:hr>154</gpxtpx:hr></gpxtpx:TrackPointExtension></extensions>
      </trkpt>
      <trkpt lat="59.564466541665" lon="17.865916920268">
        <ele>7.4</ele>
        <time>2018-12-15T10:46:03Z</time>
        <extensions><gpxtpx:TrackPointExtension><gpxtpx:hr>151</gpxtpx:hr></gpxtpx:TrackPointExtension></extensions>
      </trkpt>
      <trkpt lat="59.564725626194" lon="17.865426830575">
        <ele>7.4</ele>
        <time>2018-12-15T10:46:09Z</time>
        <extensions><gpxtpx:TrackPointExtension><gpxtpx:hr>148</gpxtpx:hr></gpxtpx:TrackPointExtension></extensions>
      </trkpt>
      <trkpt lat="59.564869124322" lon="17.865191969737">
        <ele>7.4</ele>
        <time>2018-12-15T10:46:12Z</time>
        <extensions><gpxtpx:TrackPointExtension><gpxtpx:hr>145</gpxtpx:hr></gpxtpx:TrackPointExtension></extensions>
      </trkpt>
      <trkpt lat="59.565002647989" lon="17.864980913495">
        <ele>7.4</ele>
        <time>2018-12-15T10:46:15Z</time>
        <extensions><gpxtpx:TrackPointExtension><gpxtpx:hr>142</gpxtpx:hr></gpxtpx:TrackPointExtension></extensions>
      </trkpt>
      <trkpt lat="59.56511907258" lon="17.864788884166">
        <ele>7.4</ele>
        <time>2018-12-15T10:46:18Z</time>
        <extensions><gpxtpx:TrackPointExtension><gpxtpx:hr>139</gpxtpx:hr></gpxtpx:TrackPointExtension></extensions>
      </trkpt>
      <trkpt lat="59.56518864235" lon="17.864668939177">
        <ele>7.4</ele>
        <time>2018-12-15T10:46:20Z</time>
        <extensions><gpxtpx:TrackPointExtension><gpxtpx:hr>136</gpxtpx:hr></gpxtpx:TrackPointExtension></extensions>
      </trkpt>
      <trkpt lat="59.565384946448" lon="17.864343218543">
        <ele>7.2</ele>
        <time>2018-12-15T10:46:26Z</time>
        <extensions><gpxtpx:TrackPointExtension><gpxtpx:hr>132</gpxtpx:hr></gpxtpx:TrackPointExtension></extensions>
      </trkpt>
      <trkpt lat="59.565417719677" lon="17.864295022618">
        <ele>7</ele>
        <time>2018-12-15T10:46:27Z</time>
        <extensions><gpxtpx:TrackPointExtension><gpxtpx:hr>129</gpxtpx:hr></gpxtpx:TrackPointExtension></extensions>
      </trkpt>
      <trkpt lat="59.565484104325" lon="17.86420684503">
        <ele>7.2</ele>
        <time>2018-12-15T10:46:29Z</time>
        <extensions><gpxtpx:TrackPointExtension><gpxtpx:hr>125</gpxtpx:hr></gpxtpx:TrackPointExtension></extensions>
      </trkpt>
      <trkpt lat="59.565513189518" lon="17.864173065973">
        <ele>7.2</ele>
        <time>2018-12-15T10:46:30Z</time>
        <extensions><gpxtpx:TrackPointExtension><gpxtpx:hr>122</gpxtpx:hr></gpxtpx:TrackPointExtension></extensions>
      </trkpt>
      <trkpt lat="59.565538502856" lon="17.864148926101">
        <ele>7.2</ele>
        <time>2018-12-15T10:46:31Z</time>
        <extensions><gpxtpx:TrackPointExtension><gpxtpx:hr>119</gpxtpx:hr></gpxtpx:TrackPointExtension></extensions>
      </trkpt>
      <trkpt lat="59.565556523941" lon="17.864135934156">
        <ele>7.2</ele>
        <time>2018-12-15T10:46:32Z</time>
        <extensions><gpxtpx:TrackPointExtension><gpxtpx:hr>119</gpxtpx:hr></gpxtpx:TrackPointExtension></extensions>
      </trkpt>
      <trkpt lat="59.565568845334" lon="17.864118499804">
        <ele>7.2</ele>
        <time>2018-12-15T10:46:34Z</time>
        <extensions><gpxtpx:TrackPointExtension><gpxtpx:hr>119</gpxtpx:hr></gpxtpx:TrackPointExtension></extensions>
      </trkpt>
      <trkpt lat="59.565583681297" lon="17.864064771825">
        <ele>7.6</ele>
        <time>2018-12-15T10:46:39Z</time>
        <extensions><gpxtpx:TrackPointExtension><gpxtpx:hr>120</gpxtpx:hr></gpxtpx:TrackPointExtension></extensions>
      </trkpt>
      <trkpt lat="59.565580244718" lon="17.864007607267">
        <ele>7.6</ele>
        <time>2018-12-15T10:46:42Z</time>
        <extensions><gpxtpx:TrackPointExtension><gpxtpx:hr>124</gpxtpx:hr></gpxtpx:TrackPointExtension></extensions>
      </trkpt>
      <trkpt lat="59.56545099582" lon="17.864060245599">
        <ele>7.6</ele>
        <time>2018-12-15T10:46:47Z</time>
        <extensions><gpxtpx:TrackPointExtension><gpxtpx:hr>127</gpxtpx:hr></gpxtpx:TrackPointExtension></extensions>
      </trkpt>
      <trkpt lat="59.565340019464" lon="17.864152865594">
        <ele>7.8</ele>
        <time>2018-12-15T10:46:50Z</time>
        <extensions><gpxtpx:TrackPointExtension><gpxtpx:hr>130</gpxtpx:hr></gpxtpx:TrackPointExtension></extensions>
      </trkpt>
      <trkpt lat="59.565230970945" lon="17.864290747849">
        <ele>7.8</ele>
        <time>2018-12-15T10:46:53Z</time>
        <extensions><gpxtpx:TrackPointExtension><gpxtpx:hr>131</gpxtpx:hr></gpxtpx:TrackPointExtension></extensions>
      </trkpt>
      <trkpt lat="59.565167017048" lon="17.864401808024">
        <ele>8</ele>
        <time>2018-12-15T10:46:55Z</time>
        <extensions><gpxtpx:TrackPointExtension><gpxtpx:hr>128</gpxtpx:hr></gpxtpx:TrackPointExtension></extensions>
      </trkpt>
      <trkpt lat="59.565014550287" lon="17.864662485114">
        <ele>8</ele>
        <time>2018-12-15T10:47:00Z</time>
        <extensions><gpxtpx:TrackPointExtension><gpxtpx:hr>125</gpxtpx:hr></gpxtpx:TrackPointExtension></extensions>
      </trkpt>
      <trkpt lat="59.564800225104" lon="17.865014944009">
        <ele>7.6</ele>
        <time>2018-12-15T10:47:07Z</time>
        <extensions><gpxtpx:TrackPointExtension><gpxtpx:hr>123</gpxtpx:hr></gpxtpx:TrackPointExtension></extensions>
      </trkpt>
      <trkpt lat="59.564657481347" lon="17.865012680896">
        <ele>7.6</ele>
        <time>2018-12-15T10:47:11Z</time>
        <extensions><gpxtpx:TrackPointExtension><gpxtpx:hr>120</gpxtpx:hr></gpxtpx:TrackPointExtension></extensions>
      </trkpt>
      <trkpt lat="59.564673406957" lon="17.864548910369">
        <ele>7.4</ele>
        <time>2018-12-15T10:47:17Z</time>
        <extensions><gpxtpx:TrackPointExtension><gpxtpx:hr>118</gpxtpx:hr></gpxtpx:TrackPointExtension></extensions>
      </trkpt>
      <trkpt lat="59.56472847604" lon="17.864238780069">
        <ele>7.2</ele>
        <time>2018-12-15T10:47:20Z</time>
        <extensions><gpxtpx:TrackPointExtension><gpxtpx:hr>121</gpxtpx:hr></gpxtpx:TrackPointExtension></extensions>
      </trkpt>
      <trkpt lat="59.564797039982" lon="17.863618854745">
        <ele>6</ele>
        <time>2018-12-15T10:47:25Z</time>
        <extensions><gpxtpx:TrackPointExtension><gpxtpx:hr>122</gpxtpx:hr></gpxtpx:TrackPointExtension></extensions>
      </trkpt>
      <trkpt lat="59.56483324979" lon="17.863135051477">
        <ele>4.4</ele>
        <time>2018-12-15T10:47:29Z</time>
        <extensions><gpxtpx:TrackPointExtension><gpxtpx:hr>123</gpxtpx:hr></gpxtpx:TrackPointExtension></extensions>
      </trkpt>
      <trkpt lat="59.564852360522" lon="17.862800026934">
        <ele>4</ele>
        <time>2018-12-15T10:47:32Z</time>
        <extensions><gpxtpx:TrackPointExtension><gpxtpx:hr>124</gpxtpx:hr></gpxtpx:TrackPointExtension></extensions>
      </trkpt>
      <trkpt lat="59.564773486843" lon="17.862200385808">
        <ele>3.6</ele>
        <time>2018-12-15T10:47:37Z</time>
        <extensions><gpxtpx:TrackPointExtension><gpxtpx:hr>125</gpxtpx:hr></gpxtpx:TrackPointExtension></extensions>
      </trkpt>
      <trkpt lat="59.564683549056" lon="17.861867708197">
        <ele>3.4</ele>
        <time>2018-12-15T10:47:40Z</time>
        <extensions><gpxtpx:TrackPointExtension><gpxtpx:hr>126</gpxtpx:hr></gpxtpx:TrackPointExtension></extensions>
      </trkpt>
      <trkpt lat="59.564651781655" lon="17.861761677162">
        <ele>3.4</ele>
        <time>2018-12-15T10:47:41Z</time>
        <extensions><gpxtpx:TrackPointExtension><gpxtpx:hr>126</gpxtpx:hr></gpxtpx:TrackPointExtension></extensions>
      </trkpt>
      <trkpt lat="59.564524125318" lon="17.861225151743">
        <ele>2.2</ele>
        <time>2018-12-15T10:47:46Z</time>
        <extensions><gpxtpx:TrackPointExtension><gpxtpx:hr>125</gpxtpx:hr></gpxtpx:TrackPointExtension></extensions>
      </trkpt>
      <trkpt lat="59.564442150336" lon="17.860785940183">
        <ele>1.6</ele>
        <time>2018-12-15T10:47:50Z</time>
        <extensions><gpxtpx:TrackPointExtension><gpxtpx:hr>126</gpxtpx:hr></gpxtpx:TrackPointExtension></extensions>
      </trkpt>
      <trkpt lat="59.564273506508" lon="17.860442030826">
        <ele>1.2</ele>
        <time>2018-12-15T10:47:54Z</time>
        <extensions><gpxtpx:TrackPointExtension><gpxtpx:hr>127</gpxtpx:hr></gpxtpx:TrackPointExtension></extensions>
      </trkpt>
      <trkpt lat="59.564120369195" lon="17.860279505785">
        <ele>0.8</ele>
        <time>2018-12-15T10:47:57Z</time>
        <extensions><gpxtpx:TrackPointExtension><gpxtpx:hr>128</gpxtpx:hr></gpxtpx:TrackPointExtension></extensions>
      </trkpt>
      <trkpt lat="59.563796492579" lon="17.860015559754">
        <ele>1</ele>
        <time>2018-12-15T10:48:03Z</time>
        <extensions><gpxtpx:TrackPointExtension><gpxtpx:hr>131</gpxtpx:hr></gpxtpx:TrackPointExtension></extensions>
      </trkpt>
      <trkpt lat="59.563530786349" lon="17.859344337202">
        <ele>1</ele>
        <time>2018-12-15T10:48:10Z</time>
        <extensions><gpxtpx:TrackPointExtension><gpxtpx:hr>133</gpxtpx:hr></gpxtpx:TrackPointExtension></extensions>
      </trkpt>
      <trkpt lat="59.563373793362" lon="17.85867143827">
        <ele>1</ele>
        <time>2018-12-15T10:48:15Z</time>
        <extensions><gpxtpx:TrackPointExtension><gpxtpx:hr>136</gpxtpx:hr></gpxtpx:TrackPointExtension></extensions>
      </trkpt>
      <trkpt lat="59.563282765928" lon="17.8582665925">
        <ele>0</ele>
        <time>2018-12-15T10:48:18Z</time>
        <extensions><gpxtpx:TrackPointExtension><gpxtpx:hr>136</gpxtpx:hr></gpxtpx:TrackPointExtension></extensions>
      </trkpt>
      <trkpt lat="59.563220236954" lon="17.858004490487">
        <ele>0</ele>
        <time>2018-12-15T10:48:20Z</time>
        <extensions><gpxtpx:TrackPointExtension><gpxtpx:hr>137</gpxtpx:hr></gpxtpx:TrackPointExtension></extensions>
      </trkpt>
      <trkpt lat="59.563106829847" lon="17.857456565684">
        <ele>0</ele>
        <time>2018-12-15T10:48:24Z</time>
        <extensions><gpxtpx:TrackPointExtension><gpxtpx:hr>139</gpxtpx:hr></gpxtpx:TrackPointExtension></extensions>
      </trkpt>
      <trkpt lat="59.563091407151" lon="17.857310552986">
        <ele>0</ele>
        <time>2018-12-15T10:48:25Z</time>
        <extensions><gpxtpx:TrackPointExtension><gpxtpx:hr>139</gpxtpx:hr></gpxtpx:TrackPointExtension></extensions>
      </trkpt>
      <trkpt lat="59.563105907838" lon="17.856868156304">
        <ele>0</ele>
        <time>2018-12-15T10:48:28Z</time>
        <extensions><gpxtpx:TrackPointExtension><gpxtpx:hr>142</gpxtpx:hr></gpxtpx:TrackPointExtension></extensions>
      </trkpt>
      <trkpt lat="59.563123928923" lon="17.856724825814">
        <ele>0</ele>
        <time>2018-12-15T10:48:29Z</time>
        <extensions><gpxtpx:TrackPointExtension><gpxtpx:hr>143</gpxtpx:hr></gpxtpx:TrackPointExtension></extensions>
      </trkpt>
      <trkpt lat="59.563182183128" lon="17.856310424678">
        <ele>0</ele>
        <time>2018-12-15T10:48:32Z</time>
        <extensions><gpxtpx:TrackPointExtension><gpxtpx:hr>146</gpxtpx:hr></gpxtpx:TrackPointExtension></extensions>
      </trkpt>
      <trkpt lat="59.563246220844" lon="17.855901387958">
        <ele>0</ele>
        <time>2018-12-15T10:48:35Z</time>
        <extensions><gpxtpx:TrackPointExtension><gpxtpx:hr>149</gpxtpx:hr></gpxtpx:TrackPointExtension></extensions>
      </trkpt>
      <trkpt lat="59.563302547212" lon="17.855490842496">
        <ele>0</ele>
        <time>2018-12-15T10:48:38Z</time>
        <extensions><gpxtpx:TrackPointExtension><gpxtpx:hr>152</gpxtpx:hr></gpxtpx:TrackPointExtension></extensions>
      </trkpt>
      <trkpt lat="59.563386366212" lon="17.854646282252">
        <ele>0</ele>
        <time>2018-12-15T10:48:44Z</time>
        <extensions><gpxtpx:TrackPointExtension><gpxtpx:hr>155</gpxtpx:hr></gpxtpx:TrackPointExtension></extensions>
      </trkpt>
      <trkpt lat="59.563431460834" lon="17.85379317247">
        <ele>0</ele>
        <time>2018-12-15T10:48:50Z</time>
        <extensions><gpxtpx:TrackPointExtension><gpxtpx:hr>158</gpxtpx:hr></gpxtpx:TrackPointExtension></extensions>
      </trkpt>
      <trkpt lat="59.563491726695" lon="17.85267502701">
        <ele>0</ele>
        <time>2018-12-15T10:48:58Z</time>
        <extensions><gpxtpx:TrackPointExtension><gpxtpx:hr>159</gpxtpx:hr></gpxtpx:TrackPointExtension></extensions>
      </trkpt>
      <trkpt lat="59.563504467183" lon="17.852298009148">
        <ele>0</ele>
        <time>2018-12-15T10:49:01Z</time>
        <extensions><gpxtpx:TrackPointExtension><gpxtpx:hr>159</gpxtpx:hr></gpxtpx:TrackPointExtension></extensions>
      </trkpt>
      <trkpt lat="59.563428527169" lon="17.851899617441">
        <ele>0</ele>
        <time>2018-12-15T10:49:06Z</time>
        <extensions><gpxtpx:TrackPointExtension><gpxtpx:hr>157</gpxtpx:hr></gpxtpx:TrackPointExtension></extensions>
      </trkpt>
      <trkpt lat="59.563442357304" lon="17.8516616553">
        <ele>0</ele>
        <time>2018-12-15T10:49:10Z</time>
        <extensions><gpxtpx:TrackPointExtension><gpxtpx:hr>155</gpxtpx:hr></gpxtpx:TrackPointExtension></extensions>
      </trkpt>
      <trkpt lat="59.563467503004" lon="17.8515023992">
        <ele>0</ele>
        <time>2018-12-15T10:49:12Z</time>
        <extensions><gpxtpx:TrackPointExtension><gpxtpx:hr>152</gpxtpx:hr></gpxtpx:TrackPointExtension></extensions>
      </trkpt>
      <trkpt lat="59.563497594025" lon="17.851330402612">
        <ele>0</ele>
        <time>2018-12-15T10:49:14Z</time>
        <extensions><gpxtpx:TrackPointExtension><gpxtpx:hr>150</gpxtpx:hr></gpxtpx:TrackPointExtension></extensions>
      </trkpt>
      <trkpt lat="59.563653497365" lon="17.850308900459">
        <ele>0</ele>
        <time>2018-12-15T10:49:24Z</time>
        <extensions><gpxtpx:TrackPointExtension><gpxtpx:hr>150</gpxtpx:hr></gpxtpx:TrackPointExtension></extensions>
      </trkpt>
      <trkpt lat="59.563667243681" lon="17.850000614177">
        <ele>0</ele>
        <time>2018-12-15T10:49:27Z</time>
        <extensions><gpxtpx:TrackPointExtension><gpxtpx:hr>152</gpxtpx:hr></gpxtpx:TrackPointExtension></extensions>
      </trkpt>
      <trkpt lat="59.563669758251" lon="17.849815038911">
        <ele>0</ele>
        <time>2018-12-15T10:49:29Z</time>
        <extensions><gpxtpx:TrackPointExtension><gpxtpx:hr>155</gpxtpx:hr></gpxtpx:TrackPointExtension></extensions>
      </trkpt>
      <trkpt lat="59.563665148206" lon="17.849552266346">
        <ele>0</ele>
        <time>2018-12-15T10:49:32Z</time>
        <extensions><gpxtpx:TrackPointExtension><gpxtpx:hr>158</gpxtpx:hr></gpxtpx:TrackPointExtension></extensions>
      </trkpt>
      <trkpt lat="59.563626926742" lon="17.849361494302">
        <ele>1.4</ele>
        <time>2018-12-15T10:49:35Z</time>
        <extensions><gpxtpx:TrackPointExtension><gpxtpx:hr>161</gpxtpx:hr></gpxtpx:TrackPointExtension></extensions>
      </trkpt>
      <trkpt lat="59.563568001985" lon="17.849280608967">
        <ele>2.8</ele>
        <time>2018-12-15T10:49:37Z</time>
        <extensions><gpxtpx:TrackPointExtension><gpxtpx:hr>163</gpxtpx:hr></gpxtpx:TrackPointExtension></extensions>
      </trkpt>
      <trkpt lat="59.563493989808" lon="17.849207854075">
        <ele>3.8</ele>
        <time>2018-12-15T10:49:39Z</time>
        <extensions><gpxtpx:TrackPointExtension><gpxtpx:hr>165</gpxtpx:hr></gpxtpx:TrackPointExtension></extensions>
      </trkpt>
      <trkpt lat="59.563405728401" lon="17.849118083926">
        <ele>4.8</ele>
        <time>2018-12-15T10:49:41Z</time>
        <extensions><gpxtpx:TrackPointExtension><gpxtpx:hr>165</gpxtpx:hr></gpxtpx:TrackPointExtension></extensions>
      </trkpt>
      <trkpt lat="59.56331947865" lon="17.849035019297">
        <ele>6.2</ele>
        <time>2018-12-15T10:49:43Z</time>
        <extensions><gpxtpx:TrackPointExtension><gpxtpx:hr>166</gpxtpx:hr></gpxtpx:TrackPointExtension></extensions>
      </trkpt>
      <trkpt lat="59.563221578058" lon="17.848950865021">
        <ele>7.2</ele>
        <time>2018-12-15T10:49:45Z</time>
        <extensions><gpxtpx:TrackPointExtension><gpxtpx:hr>166</gpxtpx:hr></gpxtpx:TrackPointExtension></extensions>
      </trkpt>
      <trkpt lat="59.562782869412" lon="17.848578708661">
        <ele>7.6</ele>
        <time>2018-12-15T10:49:53Z</time>
        <extensions><gpxtpx:TrackPointExtension><gpxtpx:hr>163</gpxtpx:hr></gpxtpx:TrackPointExtension></extensions>
      </trkpt>
      <trkpt lat="59.562252881875" lon="17.848142849861">
        <ele>6.8</ele>
        <time>2018-12-15T10:50:02Z</time>
        <extensions><gpxtpx:TrackPointExtension><gpxtpx:hr>162</gpxtpx:hr></gpxtpx:TrackPointExtension></extensions>
      </trkpt>
      <trkpt lat="59.561695653163" lon="17.847705063224">
        <ele>6.8</ele>
        <time>2018-12-15T10:50:12Z</time>
        <extensions><gpxtpx:TrackPointExtension><gpxtpx:hr>162</gpxtpx:hr></gpxtpx:TrackPointExtension></extensions>
      </trkpt>
      <trkpt lat="59.561153511871" lon="17.847281777274">
        <ele>6.6</ele>
        <time>2018-12-15T10:50:20Z</time>
        <extensions><gpxtpx:TrackPointExtension><gpxtpx:hr>160</gpxtpx:hr></gpxtpx:TrackPointExtension></extensions>
      </trkpt>
      <trkpt lat="59.561014120874" lon="17.847165520321">
        <ele>5.8</ele>
        <time>2018-12-15T10:50:22Z</time>
        <extensions><gpxtpx:TrackPointExtension><gpxtpx:hr>157</gpxtpx:hr></gpxtpx:TrackPointExtension></extensions>
      </trkpt>
      <trkpt lat="59.5608761548" lon="17.847041468201">
        <ele>5.4</ele>
        <time>2018-12-15T10:50:24Z</time>
        <extensions><gpxtpx:TrackPointExtension><gpxtpx:hr>154</gpxtpx:hr></gpxtpx:TrackPointExtension></extensions>
      </trkpt>
      <trkpt lat="59.560813458188" lon="17.846969970594">
        <ele>4.8</ele>
        <time>2018-12-15T10:50:25Z</time>
        <extensions><gpxtpx:TrackPointExtension><gpxtpx:hr>152</gpxtpx:hr></gpxtpx:TrackPointExtension></extensions>
      </trkpt>
      <trkpt lat="59.560703990574" lon="17.846783221862">
        <ele>4.2</ele>
        <time>2018-12-15T10:50:27Z</time>
        <extensions><gpxtpx:TrackPointExtension><gpxtpx:hr>149</gpxtpx:hr></gpxtpx:TrackPointExtension></extensions>
      </trkpt>
      <trkpt lat="59.560629978397" lon="17.846568309946">
        <ele>3.6</ele>
        <time>2018-12-15T10:50:29Z</time>
        <extensions><gpxtpx:TrackPointExtension><gpxtpx:hr>147</gpxtpx:hr></gpxtpx:TrackPointExtension></extensions>
      </trkpt>
      <trkpt lat="59.560568455251" lon="17.846368066355">
        <ele>3.4</ele>
        <time>2018-12-15T10:50:31Z</time>
        <extensions><gpxtpx:TrackPointExtension><gpxtpx:hr>145</gpxtpx:hr></gpxtpx:TrackPointExtension></extensions>
      </trkpt>
      <trkpt lat="59.560511709788" lon="17.846178383958">
        <ele>3.4</ele>
        <time>2018-12-15T10:50:33Z</time>
        <extensions><gpxtpx:TrackPointExtension><gpxtpx:hr>145</gpxtpx:hr></gpxtpx:TrackPointExtension></extensions>
      </trkpt>
      <trkpt lat="59.560429650987" lon="17.84599465271">
        <ele>3.4</ele>
        <time>2018-12-15T10:50:35Z</time>
        <extensions><gpxtpx:TrackPointExtension><gpxtpx:hr>143</gpxtpx:hr></gpxtpx:TrackPointExtension></extensions>
      </trkpt>
      <trkpt lat="59.560335773707" lon="17.845807652521">
        <ele>3.2</ele>
        <time>2018-12-15T10:50:37Z</time>
        <extensions><gpxtpx:TrackPointExtension><gpxtpx:hr>144</gpxtpx:hr></gpxtpx:TrackPointExtension></extensions>
      </trkpt>
      <trkpt lat="59.56023242488" lon="17.84560321798">
        <ele>3</ele>
        <time>2018-12-15T10:50:39Z</time>
        <extensions><gpxtpx:TrackPointExtension><gpxtpx:hr>145</gpxtpx:hr></gpxtpx:TrackPointExtension></extensions>
      </trkpt>
      <trkpt lat="59.56011675466" lon="17.845218656408">
        <ele>2.8</ele>
        <time>2018-12-15T10:50:42Z</time>
        <extensions><gpxtpx:TrackPointExtension><gpxtpx:hr>142</gpxtpx:hr></gpxtpx:TrackPointExtension></extensions>
      </trkpt>
      <trkpt lat="59.560064619242" lon="17.844788078205">
        <ele>2.6</ele>
        <time>2018-12-15T10:50:45Z</time>
        <extensions><gpxtpx:TrackPointExtension><gpxtpx:hr>141</gpxtpx:hr></gpxtpx:TrackPointExtension></extensions>
      </trkpt>
      <trkpt lat="59.560056237342" lon="17.844646424095">
        <ele>2.2</ele>
        <time>2018-12-15T10:50:46Z</time>
        <extensions><gpxtpx:TrackPointExtension><gpxtpx:hr>141</gpxtpx:hr></gpxtpx:TrackPointExtension></extensions>
      </trkpt>
      <trkpt lat="59.560014998394" lon="17.843832206329">
        <ele>1.6</ele>
        <time>2018-12-15T10:50:52Z</time>
        <extensions><gpxtpx:TrackPointExtension><gpxtpx:hr>144</gpxtpx:hr></gpxtpx:TrackPointExtension></extensions>
      </trkpt>
      <trkpt lat="59.559984739735" lon="17.843316551841">
        <ele>1.6</ele>
        <time>2018-12-15T10:50:56Z</time>
        <extensions><gpxtpx:TrackPointExtension><gpxtpx:hr>147</gpxtpx:hr></gpxtpx:TrackPointExtension></extensions>
      </trkpt>
      <trkpt lat="59.559980800242" lon="17.843197277404">
        <ele>1.8</ele>
        <time>2018-12-15T10:50:57Z</time>
        <extensions><gpxtpx:TrackPointExtension><gpxtpx:hr>148</gpxtpx:hr></gpxtpx:TrackPointExtension></extensions>
      </trkpt>
      <trkpt lat="59.560021368638" lon="17.842461011308">
        <ele>3.2</ele>
        <time>2018-12-15T10:51:03Z</time>
        <extensions><gpxtpx:TrackPointExtension><gpxtpx:hr>150</gpxtpx:hr></gpxtpx:TrackPointExtension></extensions>
      </trkpt>
      <trkpt lat="59.560061182663" lon="17.842229838506">
        <ele>3.6</ele>
        <time>2018-12-15T10:51:05Z</time>
        <extensions><gpxtpx:TrackPointExtension><gpxtpx:hr>151</gpxtpx:hr></gpxtpx:TrackPointExtension></extensions>
      </trkpt>
      <trkpt lat="59.560177523435" lon="17.841783921426">
        <ele>4</ele>
        <time>2018-12-15T10:51:09Z</time>
        <extensions><gpxtpx:TrackPointExtension><gpxtpx:hr>153</gpxtpx:hr></gpxtpx:TrackPointExtension></extensions>
      </trkpt>
      <trkpt lat="59.560544902112" lon="17.840903402831">
        <ele>3.8</ele>
        <time>2018-12-15T10:51:18Z</time>
        <extensions><gpxtpx:TrackPointExtension><gpxtpx:hr>155</gpxtpx:hr></gpxtpx:TrackPointExtension></extensions>
      </trkpt>
      <trkpt lat="59.560699799624" lon="17.840547758814">
        <ele>3.8</ele>
        <time>2018-12-15T10:51:22Z</time>
        <extensions><gpxtpx:TrackPointExtension><gpxtpx:hr>156</gpxtpx:hr></gpxtpx:TrackPointExtension></extensions>
      </trkpt>
      <trkpt lat="59.560807255582" lon="17.840139727922">
        <ele>3.8</ele>
        <time>2018-12-15T10:51:26Z</time>
        <extensions><gpxtpx:TrackPointExtension><gpxtpx:hr>157</gpxtpx:hr></gpxtpx:TrackPointExtension></extensions>
      </trkpt>
      <trkpt lat="59.560909263305" lon="17.839739492197">
        <ele>4.6</ele>
        <time>2018-12-15T10:51:30Z</time>
        <extensions><gpxtpx:TrackPointExtension><gpxtpx:hr>160</gpxtpx:hr></gpxtpx:TrackPointExtension></extensions>
      </trkpt>
      <trkpt lat="59.560928038761" lon="17.839639999044">
        <ele>4.8</ele>
        <time>2018-12-15T10:51:31Z</time>
        <extensions><gpxtpx:TrackPointExtension><gpxtpx:hr>160</gpxtpx:hr></gpxtpx:TrackPointExtension></extensions>
      </trkpt>
      <trkpt lat="59.560986544423" lon="17.83928577995">
        <ele>5.8</ele>
        <time>2018-12-15T10:51:35Z</time>
        <extensions><gpxtpx:TrackPointExtension><gpxtpx:hr>162</gpxtpx:hr></gpxtpx:TrackPointExtension></extensions>
      </trkpt>
      <trkpt lat="59.560999284911" lon="17.839204894615">
        <ele>6</ele>
        <time>2018-12-15T10:51:36Z</time>
        <extensions><gpxtpx:TrackPointExtension><gpxtpx:hr>162</gpxtpx:hr></gpxtpx:TrackPointExtension></extensions>
      </trkpt>
      <trkpt lat="59.561063322627" lon="17.838800551759">
        <ele>7.2</ele>
        <time>2018-12-15T10:51:41Z</time>
        <extensions><gpxtpx:TrackPointExtension><gpxtpx:hr>162</gpxtpx:hr></gpxtpx:TrackPointExtension></extensions>
      </trkpt>
      <trkpt lat="59.561076566029" lon="17.838635009234">
        <ele>8.2</ele>
        <time>2018-12-15T10:51:43Z</time>
        <extensions><gpxtpx:TrackPointExtension><gpxtpx:hr>161</gpxtpx:hr></gpxtpx:TrackPointExtension></extensions>
      </trkpt>
      <trkpt lat="59.561075727839" lon="17.838550268225">
        <ele>8.6</ele>
        <time>2018-12-15T10:51:44Z</time>
        <extensions><gpxtpx:TrackPointExtension><gpxtpx:hr>161</gpxtpx:hr></gpxtpx:TrackPointExtension></extensions>
      </trkpt>
      <trkpt lat="59.561052258519" lon="17.838281795968">
        <ele>9.6</ele>
        <time>2018-12-15T10:51:47Z</time>
        <extensions><gpxtpx:TrackPointExtension><gpxtpx:hr>160</gpxtpx:hr></gpxtpx:TrackPointExtension></extensions>
      </trkpt>
      <trkpt lat="59.560740870934" lon="17.837876698741">
        <ele>10</ele>
        <time>2018-12-15T10:51:53Z</time>
        <extensions><gpxtpx:TrackPointExtension><gpxtpx:hr>158</gpxtpx:hr></gpxtpx:TrackPointExtension></extensions>
      </trkpt>
      <trkpt lat="59.560199484013" lon="17.837492556264">
        <ele>7.6</ele>
        <time>2018-12-15T10:52:00Z</time>
        <extensions><gpxtpx:TrackPointExtension><gpxtpx:hr>155</gpxtpx:hr></gpxtpx:TrackPointExtension></extensions>
      </trkpt>
      <trkpt lat="59.560058751912" lon="17.837360289882">
        <ele>5.8</ele>
        <time>2018-12-15T10:52:02Z</time>
        <extensions><gpxtpx:TrackPointExtension><gpxtpx:hr>154</gpxtpx:hr></gpxtpx:TrackPointExtension></extensions>
      </trkpt>
      <trkpt lat="59.559993121635" lon="17.837291306845">
        <ele>5</ele>
        <time>2018-12-15T10:52:03Z</time>
        <extensions><gpxtpx:TrackPointExtension><gpxtpx:hr>153</gpxtpx:hr></gpxtpx:TrackPointExtension></extensions>
      </trkpt>
      <trkpt lat="59.559934113059" lon="17.837205140913">
        <ele>4</ele>
        <time>2018-12-15T10:52:04Z</time>
        <extensions><gpxtpx:TrackPointExtension><gpxtpx:hr>152</gpxtpx:hr></gpxtpx:TrackPointExtension></extensions>
      </trkpt>
      <trkpt lat="59.559802601048" lon="17.836848910163">
        <ele>3</ele>
        <time>2018-12-15T10:52:07Z</time>
        <extensions><gpxtpx:TrackPointExtension><gpxtpx:hr>149</gpxtpx:hr></gpxtpx:TrackPointExtension></extensions>
      </trkpt>
      <trkpt lat="59.559772090932" lon="17.83670918389">
        <ele>2.8</ele>
        <time>2018-12-15T10:52:08Z</time>
        <extensions><gpxtpx:TrackPointExtension><gpxtpx:hr>148</gpxtpx:hr></gpxtpx:TrackPointExtension></extensions>
      </trkpt>
      <trkpt lat="59.559744430662" lon="17.836568451789">
        <ele>2.8</ele>
        <time>2018-12-15T10:52:09Z</time>
        <extensions><gpxtpx:TrackPointExtension><gpxtpx:hr>148</gpxtpx:hr></gpxtpx:TrackPointExtension></extensions>
      </trkpt>
      <trkpt lat="59.559538487379" lon="17.835569329309">
        <ele>2.6</ele>
        <time>2018-12-15T10:52:16Z</time>
        <extensions><gpxtpx:TrackPointExtension><gpxtpx:hr>147</gpxtpx:hr></gpxtpx:TrackPointExtension></extensions>
      </trkpt>
      <trkpt lat="59.559403371151" lon="17.83513757764">
        <ele>2.6</ele>
        <time>2018-12-15T10:52:19Z</time>
        <extensions><gpxtpx:TrackPointExtension><gpxtpx:hr>150</gpxtpx:hr></gpxtpx:TrackPointExtension></extensions>
      </trkpt>
      <trkpt lat="59.559191811995" lon="17.834605075533">
        <ele>2.2</ele>
        <time>2018-12-15T10:52:23Z</time>
        <extensions><gpxtpx:TrackPointExtension><gpxtpx:hr>153</gpxtpx:hr></gpxtpx:TrackPointExtension></extensions>
      </trkpt>
      <trkpt lat="59.558953011664" lon="17.833955645921">
        <ele>2</ele>
        <time>2018-12-15T10:52:28Z</time>
        <extensions><gpxtpx:TrackPointExtension><gpxtpx:hr>156</gpxtpx:hr></gpxtpx:TrackPointExtension></extensions>
      </trkpt>
      <trkpt lat="59.558805071129" lon="17.833381653409">
        <ele>1.8</ele>
        <time>2018-12-15T10:52:32Z</time>
        <extensions><gpxtpx:TrackPointExtension><gpxtpx:hr>158</gpxtpx:hr></gpxtpx:TrackPointExtension></extensions>
      </trkpt>
      <trkpt lat="59.558573311594" lon="17.832376915056">
        <ele>1.8</ele>
        <time>2018-12-15T10:52:39Z</time>
        <extensions><gpxtpx:TrackPointExtension><gpxtpx:hr>159</gpxtpx:hr></gpxtpx:TrackPointExtension></extensions>
      </trkpt>
      <trkpt lat="59.558510447344" lon="17.832015738985">
        <ele>1.8</ele>
        <time>2018-12-15T10:52:42Z</time>
        <extensions><gpxtpx:TrackPointExtension><gpxtpx:hr>160</gpxtpx:hr></gpxtpx:TrackPointExtension></extensions>
      </trkpt>
      <trkpt lat="59.55849820977" lon="17.831042265119">
        <ele>3</ele>
        <time>2018-12-15T10:52:50Z</time>
        <extensions><gpxtpx:TrackPointExtension><gpxtpx:hr>160</gpxtpx:hr></gpxtpx:TrackPointExtension></extensions>
      </trkpt>
      <trkpt lat="59.558557553622" lon="17.830162333257">
        <ele>3.4</ele>
        <time>2018-12-15T10:52:57Z</time>
        <extensions><gpxtpx:TrackPointExtension><gpxtpx:hr>157</gpxtpx:hr></gpxtpx:TrackPointExtension></extensions>
      </trkpt>
      <trkpt lat="59.558565181151" lon="17.829797972064">
        <ele>3.2</ele>
        <time>2018-12-15T10:53:00Z</time>
        <extensions><gpxtpx:TrackPointExtension><gpxtpx:hr>155</gpxtpx:hr></gpxtpx:TrackPointExtension></extensions>
      </trkpt>
      <trkpt lat="59.558432579493" lon="17.82925599841">
        <ele>3</ele>
        <time>2018-12-15T10:53:05Z</time>
        <extensions><gpxtpx:TrackPointExtension><gpxtpx:hr>152</gpxtpx:hr></gpxtpx:TrackPointExtension></extensions>
      </trkpt>
      <trkpt lat="59.558343647534" lon="17.828995488958">
        <ele>3</ele>
        <time>2018-12-15T10:53:08Z</time>
        <extensions><gpxtpx:TrackPointExtension><gpxtpx:hr>150</gpxtpx:hr></gpxtpx:TrackPointExtension></extensions>
      </trkpt>
      <trkpt lat="59.558357812945" lon="17.828502130324">
        <ele>2.8</ele>
        <time>2018-12-15T10:53:13Z</time>
        <extensions><gpxtpx:TrackPointExtension><gpxtpx:hr>148</gpxtpx:hr></gpxtpx:TrackPointExtension></extensions>
      </trkpt>
      <trkpt lat="59.558465101265" lon="17.8274128186">
        <ele>3.4</ele>
        <time>2018-12-15T10:53:23Z</time>
        <extensions><gpxtpx:TrackPointExtension><gpxtpx:hr>146</gpxtpx:hr></gpxtpx:TrackPointExtension></extensions>
      </trkpt>
      <trkpt lat="59.55853928108" lon="17.826618465937">
        <ele>4.4</ele>
        <time>2018-12-15T10:53:31Z</time>
        <extensions><gpxtpx:TrackPointExtension><gpxtpx:hr>148</gpxtpx:hr></gpxtpx:TrackPointExtension></extensions>
      </trkpt>
      <trkpt lat="59.558585297711" lon="17.826170118106">
        <ele>5.4</ele>
        <time>2018-12-15T10:53:36Z</time>
        <extensions><gpxtpx:TrackPointExtension><gpxtpx:hr>149</gpxtpx:hr></gpxtpx:TrackPointExtension></extensions>
      </trkpt>
      <trkpt lat="59.558606587737" lon="17.825829226233">
        <ele>6.6</ele>
        <time>2018-12-15T10:53:40Z</time>
        <extensions><gpxtpx:TrackPointExtension><gpxtpx:hr>151</gpxtpx:hr></gpxtpx:TrackPointExtension></extensions>
      </trkpt>
      <trkpt lat="59.558510614982" lon="17.825625126968">
        <ele>7.8</ele>
        <time>2018-12-15T10:53:44Z</time>
        <extensions><gpxtpx:TrackPointExtension><gpxtpx:hr>151</gpxtpx:hr></gpxtpx:TrackPointExtension></extensions>
      </trkpt>
      <trkpt lat="59.558416570064" lon="17.82559981363">
        <ele>8.8</ele>
        <time>2018-12-15T10:53:47Z</time>
        <extensions><gpxtpx:TrackPointExtension><gpxtpx:hr>150</gpxtpx:hr></gpxtpx:TrackPointExtension></extensions>
      </trkpt>
      <trkpt lat="59.558362842085" lon="17.825624624054">
        <ele>9.4</ele>
        <time>2018-12-15T10:53:49Z</time>
        <extensions><gpxtpx:TrackPointExtension><gpxtpx:hr>150</gpxtpx:hr></gpxtpx:TrackPointExtension></extensions>
      </trkpt>
      <trkpt lat="59.558322525146" lon="17.825623115312">
        <ele>9.8</ele>
        <time>2018-12-15T10:53:51Z</time>
        <extensions><gpxtpx:TrackPointExtension><gpxtpx:hr>149</gpxtpx:hr></gpxtpx:TrackPointExtension></extensions>
      </trkpt>
      <trkpt lat="59.558276005601" lon="17.825577601595">
        <ele>10</ele>
        <time>2018-12-15T10:53:53Z</time>
        <extensions><gpxtpx:TrackPointExtension><gpxtpx:hr>146</gpxtpx:hr></gpxtpx:TrackPointExtension></extensions>
      </trkpt>
      <trkpt lat="59.558231330074" lon="17.825546085651">
        <ele>10</ele>
        <time>2018-12-15T10:53:55Z</time>
        <extensions><gpxtpx:TrackPointExtension><gpxtpx:hr>144</gpxtpx:hr></gpxtpx:TrackPointExtension></extensions>
      </trkpt>
      <trkpt lat="59.558183469425" lon="17.825536446466">
        <ele>10</ele>
        <time>2018-12-15T10:53:59Z</time>
        <extensions><gpxtpx:TrackPointExtension><gpxtpx:hr>143</gpxtpx:hr></gpxtpx:TrackPointExtension></extensions>
      </trkpt>
      <trkpt lat="59.558100320977" lon="17.825517922467">
        <ele>10</ele>
        <time>2018-12-15T10:55:44Z</time>
        <extensions><gpxtpx:TrackPointExtension><gpxtpx:hr>121</gpxtpx:hr></gpxtpx:TrackPointExtension></extensions>
      </trkpt>
      <trkpt lat="59.557797399111" lon="17.825421027703">
        <ele>10</ele>
        <time>2018-12-15T10:55:52Z</time>
        <extensions><gpxtpx:TrackPointExtension><gpxtpx:hr>124</gpxtpx:hr></gpxtpx:TrackPointExtension></extensions>
      </trkpt>
      <trkpt lat="59.557643507427" lon="17.825353134313">
        <ele>9.6</ele>
        <time>2018-12-15T10:55:55Z</time>
        <extensions><gpxtpx:TrackPointExtension><gpxtpx:hr>127</gpxtpx:hr></gpxtpx:TrackPointExtension></extensions>
      </trkpt>
      <trkpt lat="59.557477713445" lon="17.825285576199">
        <ele>9.2</ele>
        <time>2018-12-15T10:55:58Z</time>
        <extensions><gpxtpx:TrackPointExtension><gpxtpx:hr>130</gpxtpx:hr></gpxtpx:TrackPointExtension></extensions>
      </trkpt>
      <trkpt lat="59.557357097904" lon="17.825247438554">
        <ele>9</ele>
        <time>2018-12-15T10:56:00Z</time>
        <extensions><gpxtpx:TrackPointExtension><gpxtpx:hr>132</gpxtpx:hr></gpxtpx:TrackPointExtension></extensions>
      </trkpt>
      <trkpt lat="59.557050068907" lon="17.825125146633">
        <ele>8.6</ele>
        <time>2018-12-15T10:56:05Z</time>
        <extensions><gpxtpx:TrackPointExtension><gpxtpx:hr>135</gpxtpx:hr></gpxtpx:TrackPointExtension></extensions>
      </trkpt>
      <trkpt lat="59.556737759313" lon="17.824993215527">
        <ele>8</ele>
        <time>2018-12-15T10:56:10Z</time>
        <extensions><gpxtpx:TrackPointExtension><gpxtpx:hr>136</gpxtpx:hr></gpxtpx:TrackPointExtension></extensions>
      </trkpt>
      <trkpt lat="59.556357807786" lon="17.824851729055">
        <ele>7</ele>
        <time>2018-12-15T10:56:16Z</time>
        <extensions><gpxtpx:TrackPointExtension><gpxtpx:hr>138</gpxtpx:hr></gpxtpx:TrackPointExtension></extensions>
      </trkpt>
      <trkpt lat="59.556182458438" lon="17.824789116262">
        <ele>7</ele>
        <time>2018-12-15T10:56:19Z</time>
        <extensions><gpxtpx:TrackPointExtension><gpxtpx:hr>138</gpxtpx:hr></gpxtpx:TrackPointExtension></extensions>
      </trkpt>
      <trkpt lat="59.556005348891" lon="17.824358538059">
        <ele>6.6</ele>
        <time>2018-12-15T10:56:24Z</time>
        <extensions><gpxtpx:TrackPointExtension><gpxtpx:hr>138</gpxtpx:hr></gpxtpx:TrackPointExtension></extensions>
      </trkpt>
      <trkpt lat="59.555877608735" lon="17.823535686936">
        <ele>6</ele>
        <time>2018-12-15T10:56:31Z</time>
        <extensions><gpxtpx:TrackPointExtension><gpxtpx:hr>137</gpxtpx:hr></gpxtpx:TrackPointExtension></extensions>
      </trkpt>
      <trkpt lat="59.555806111128" lon="17.82306931802">
        <ele>5.6</ele>
        <time>2018-12-15T10:56:35Z</time>
        <extensions><gpxtpx:TrackPointExtension><gpxtpx:hr>137</gpxtpx:hr></gpxtpx:TrackPointExtension></extensions>
      </trkpt>
      <trkpt lat="59.555570998833" lon="17.822774191321">
        <ele>5.6</ele>
        <time>2018-12-15T10:56:40Z</time>
        <extensions><gpxtpx:TrackPointExtension><gpxtpx:hr>137</gpxtpx:hr></gpxtpx:TrackPointExtension></extensions>
      </trkpt>
      <trkpt lat="59.555252235176" lon="17.82267201596">
        <ele>5.6</ele>
        <time>2018-12-15T10:56:47Z</time>
        <extensions><gpxtpx:TrackPointExtension><gpxtpx:hr>134</gpxtpx:hr></gpxtpx:TrackPointExtension></extensions>
      </trkpt>
      <trkpt lat="59.554951324966" lon="17.822571600798">
        <ele>5.8</ele>
        <time>2018-12-15T10:56:54Z</time>
        <extensions><gpxtpx:TrackPointExtension><gpxtpx:hr>137</gpxtpx:hr></gpxtpx:TrackPointExtension></extensions>
      </trkpt>
      <trkpt lat="59.554458050151" lon="17.822397676373">
        <ele>6</ele>
        <time>2018-12-15T10:57:07Z</time>
        <extensions><gpxtpx:TrackPointExtension><gpxtpx:hr>140</gpxtpx:hr></gpxtpx:TrackPointExtension></extensions>
      </trkpt>
      <trkpt lat="59.554321173724" lon="17.822351995018">
        <ele>6</ele>
        <time>2018-12-15T10:57:10Z</time>
        <extensions><gpxtpx:TrackPointExtension><gpxtpx:hr>143</gpxtpx:hr></gpxtpx:TrackPointExtension></extensions>
      </trkpt>
      <trkpt lat="59.554168204049" lon="17.822300111057">
        <ele>6</ele>
        <time>2018-12-15T10:57:13Z</time>
        <extensions><gpxtpx:TrackPointExtension><gpxtpx:hr>146</gpxtpx:hr></gpxtpx:TrackPointExtension></extensions>
      </trkpt>
      <trkpt lat="59.553973995426" lon="17.822231295658">
        <ele>6</ele>
        <time>2018-12-15T10:57:17Z</time>
        <extensions><gpxtpx:TrackPointExtension><gpxtpx:hr>149</gpxtpx:hr></gpxtpx:TrackPointExtension></extensions>
      </trkpt>
      <trkpt lat="59.553739050769" lon="17.822147644296">
        <ele>6.2</ele>
        <time>2018-12-15T10:57:22Z</time>
        <extensions><gpxtpx:TrackPointExtension><gpxtpx:hr>152</gpxtpx:hr></gpxtpx:TrackPointExtension></extensions>
      </trkpt>
      <trkpt lat="59.553436883274" lon="17.822048905514">
        <ele>6.2</ele>
        <time>2018-12-15T10:57:28Z</time>
        <extensions><gpxtpx:TrackPointExtension><gpxtpx:hr>155</gpxtpx:hr></gpxtpx:TrackPointExtension></extensions>
      </trkpt>
      <trkpt lat="59.553086184578" lon="17.821899456237">
        <ele>6.6</ele>
        <time>2018-12-15T10:57:35Z</time>
        <extensions><gpxtpx:TrackPointExtension><gpxtpx:hr>158</gpxtpx:hr></gpxtpx:TrackPointExtension></extensions>
      </trkpt>
      <trkpt lat="59.552890802489" lon="17.821824186775">
        <ele>7</ele>
        <time>2018-12-15T10:57:39Z</time>
        <extensions><gpxtpx:TrackPointExtension><gpxtpx:hr>159</gpxtpx:hr></gpxtpx:TrackPointExtension></extensions>
      </trkpt>
      <trkpt lat="59.552616462902" lon="17.821724609803">
        <ele>8.2</ele>
        <time>2018-12-15T10:57:45Z</time>
        <extensions><gpxtpx:TrackPointExtension><gpxtpx:hr>159</gpxtpx:hr></gpxtpx:TrackPointExtension></extensions>
      </trkpt>
      <trkpt lat="59.55234673336" lon="17.821498969055">
        <ele>9.4</ele>
        <time>2018-12-15T10:57:53Z</time>
        <extensions><gpxtpx:TrackPointExtension><gpxtpx:hr>159</gpxtpx:hr></gpxtpx:TrackPointExtension></extensions>
      </trkpt>
      <trkpt lat="59.5522511797" lon="17.821394865857">
        <ele>10.6</ele>
        <time>2018-12-15T10:57:56Z</time>
        <extensions><gpxtpx:TrackPointExtension><gpxtpx:hr>158</gpxtpx:hr></gpxtpx:TrackPointExtension></extensions>
      </trkpt>
      <trkpt lat="59.552145735398" lon="17.821270394642">
        <ele>12</ele>
        <time>2018-12-15T10:57:59Z</time>
        <extensions><gpxtpx:TrackPointExtension><gpxtpx:hr>159</gpxtpx:hr></gpxtpx:TrackPointExtension></extensions>
      </trkpt>
      <trkpt lat="59.551880532082" lon="17.820892203314">
        <ele>13</ele>
        <time>2018-12-15T10:58:07Z</time>
        <extensions><gpxtpx:TrackPointExtension><gpxtpx:hr>158</gpxtpx:hr></gpxtpx:TrackPointExtension></extensions>
      </trkpt>
      <trkpt lat="59.55165522661" lon="17.820809306323">
        <ele>14.2</ele>
        <time>2018-12-15T10:58:15Z</time>
        <extensions><gpxtpx:TrackPointExtension><gpxtpx:hr>158</gpxtpx:hr></gpxtpx:TrackPointExtension></extensions>
      </trkpt>
      <trkpt lat="59.551620609363" lon="17.820784244442">
        <ele>15.2</ele>
        <time>2018-12-15T10:58:17Z</time>
        <extensions><gpxtpx:TrackPointExtension><gpxtpx:hr>157</gpxtpx:hr></gpxtpx:TrackPointExtension></extensions>
      </trkpt>
      <trkpt lat="59.551532347956" lon="17.82065868358">
        <ele>16.4</ele>
        <time>2018-12-15T10:58:20Z</time>
        <extensions><gpxtpx:TrackPointExtension><gpxtpx:hr>157</gpxtpx:hr></gpxtpx:TrackPointExtension></extensions>
      </trkpt>
      <trkpt lat="59.55135264002" lon="17.820275295474">
        <ele>17.4</ele>
        <time>2018-12-15T10:58:26Z</time>
        <extensions><gpxtpx:TrackPointExtension><gpxtpx:hr>155</gpxtpx:hr></gpxtpx:TrackPointExtension></extensions>
      </trkpt>
      <trkpt lat="59.551183577097" lon="17.820127857853">
        <ele>17.4</ele>
        <time>2018-12-15T10:58:30Z</time>
        <extensions><gpxtpx:TrackPointExtension><gpxtpx:hr>155</gpxtpx:hr></gpxtpx:TrackPointExtension></extensions>
      </trkpt>
      <trkpt lat="59.55094444149" lon="17.820015708031">
        <ele>17.4</ele>
        <time>2018-12-15T10:58:35Z</time>
        <extensions><gpxtpx:TrackPointExtension><gpxtpx:hr>154</gpxtpx:hr></gpxtpx:TrackPointExtension></extensions>
      </trkpt>
      <trkpt lat="59.550837320808" lon="17.819952005591">
        <ele>17.4</ele>
        <time>2018-12-15T10:58:37Z</time>
        <extensions><gpxtpx:TrackPointExtension><gpxtpx:hr>154</gpxtpx:hr></gpxtpx:TrackPointExtension></extensions>
      </trkpt>
      <trkpt lat="59.550428619364" lon="17.81957238934">
        <ele>17.6</ele>
        <time>2018-12-15T10:58:45Z</time>
        <extensions><gpxtpx:TrackPointExtension><gpxtpx:hr>153</gpxtpx:hr></gpxtpx:TrackPointExtension></extensions>
      </trkpt>
      <trkpt lat="59.550322672148" lon="17.819466609762">
        <ele>17.6</ele>
        <time>2018-12-15T10:58:47Z</time>
        <extensions><gpxtpx:TrackPointExtension><gpxtpx:hr>153</gpxtpx:hr></gpxtpx:TrackPointExtension></extensions>
      </trkpt>
      <trkpt lat="59.54996543557" lon="17.819757880787">
        <ele>17.8</ele>
        <time>2018-12-15T10:58:56Z</time>
        <extensions><gpxtpx:TrackPointExtension><gpxtpx:hr>153</gpxtpx:hr></gpxtpx:TrackPointExtension></extensions>
      </trkpt>
      <trkpt lat="59.549721606099" lon="17.820388534943">
        <ele>19</ele>
        <time>2018-12-15T10:59:05Z</time>
        <extensions><gpxtpx:TrackPointExtension><gpxtpx:hr>155</gpxtpx:hr></gpxtpx:TrackPointExtension></extensions>
      </trkpt>
      <trkpt lat="59.549664357722" lon="17.82051619128">
        <ele>20</ele>
        <time>2018-12-15T10:59:07Z</time>
        <extensions><gpxtpx:TrackPointExtension><gpxtpx:hr>156</gpxtpx:hr></gpxtpx:TrackPointExtension></extensions>
      </trkpt>
      <trkpt lat="59.549578024152" lon="17.820742670218">
        <ele>21.8</ele>
        <time>2018-12-15T10:59:10Z</time>
        <extensions><gpxtpx:TrackPointExtension><gpxtpx:hr>158</gpxtpx:hr></gpxtpx:TrackPointExtension></extensions>
      </trkpt>
      <trkpt lat="59.549490600935" lon="17.8209755194">
        <ele>23</ele>
        <time>2018-12-15T10:59:13Z</time>
        <extensions><gpxtpx:TrackPointExtension><gpxtpx:hr>160</gpxtpx:hr></gpxtpx:TrackPointExtension></extensions>
      </trkpt>
      <trkpt lat="59.549434693662" lon="17.821129327265">
        <ele>24.2</ele>
        <time>2018-12-15T10:59:15Z</time>
        <extensions><gpxtpx:TrackPointExtension><gpxtpx:hr>162</gpxtpx:hr></gpxtpx:TrackPointExtension></extensions>
      </trkpt>
      <trkpt lat="59.549331596292" lon="17.821424034869">
        <ele>25.2</ele>
        <time>2018-12-15T10:59:19Z</time>
        <extensions><gpxtpx:TrackPointExtension><gpxtpx:hr>164</gpxtpx:hr></gpxtpx:TrackPointExtension></extensions>
      </trkpt>
      <trkpt lat="59.54927895796" lon="17.821555127785">
        <ele>26.4</ele>
        <time>2018-12-15T10:59:21Z</time>
        <extensions><gpxtpx:TrackPointExtension><gpxtpx:hr>166</gpxtpx:hr></gpxtpx:TrackPointExtension></extensions>
      </trkpt>
      <trkpt lat="59.549225397619" lon="17.821689322004">
        <ele>27.6</ele>
        <time>2018-12-15T10:59:23Z</time>
        <extensions><gpxtpx:TrackPointExtension><gpxtpx:hr>166</gpxtpx:hr></gpxtpx:TrackPointExtension></extensions>
      </trkpt>
      <trkpt lat="59.549166221405" lon="17.821825611698">
        <ele>28.6</ele>
        <time>2018-12-15T10:59:25Z</time>
        <extensions><gpxtpx:TrackPointExtension><gpxtpx:hr>167</gpxtpx:hr></gpxtpx:TrackPointExtension></extensions>
      </trkpt>
      <trkpt lat="59.549082150948" lon="17.822038428139">
        <ele>30</ele>
        <time>2018-12-15T10:59:28Z</time>
        <extensions><gpxtpx:TrackPointExtension><gpxtpx:hr>168</gpxtpx:hr></gpxtpx:TrackPointExtension></extensions>
      </trkpt>
      <trkpt lat="59.549022639458" lon="17.822177316222">
        <ele>30.4</ele>
        <time>2018-12-15T10:59:30Z</time>
        <extensions><gpxtpx:TrackPointExtension><gpxtpx:hr>168</gpxtpx:hr></gpxtpx:TrackPointExtension></extensions>
      </trkpt>
      <trkpt lat="59.548646795062" lon="17.823005867037">
        <ele>31</ele>
        <time>2018-12-15T10:59:41Z</time>
        <extensions><gpxtpx:TrackPointExtension><gpxtpx:hr>168</gpxtpx:hr></gpxtpx:TrackPointExtension></extensions>
      </trkpt>
      <trkpt lat="59.548546212262" lon="17.823232513613">
        <ele>31</ele>
        <time>2018-12-15T10:59:44Z</time>
        <extensions><gpxtpx:TrackPointExtension><gpxtpx:hr>168</gpxtpx:hr></gpxtpx:TrackPointExtension></extensions>
      </trkpt>
      <trkpt lat="59.548206996769" lon="17.824014293426">
        <ele>32.2</ele>
        <time>2018-12-15T10:59:54Z</time>
        <extensions><gpxtpx:TrackPointExtension><gpxtpx:hr>167</gpxtpx:hr></gpxtpx:TrackPointExtension></extensions>
      </trkpt>
      <trkpt lat="59.547783124086" lon="17.824818201455">
        <ele>33.2</ele>
        <time>2018-12-15T11:00:04Z</time>
        <extensions><gpxtpx:TrackPointExtension><gpxtpx:hr>167</gpxtpx:hr></gpxtpx:TrackPointExtension></extensions>
      </trkpt>
      <trkpt lat="59.54773165922" lon="17.824883496456">
        <ele>33.2</ele>
        <time>2018-12-15T11:00:05Z</time>
        <extensions><gpxtpx:TrackPointExtension><gpxtpx:hr>167</gpxtpx:hr></gpxtpx:TrackPointExtension></extensions>
      </trkpt>
      <trkpt lat="59.54736620838" lon="17.825294461013">
        <ele>34.6</ele>
        <time>2018-12-15T11:00:13Z</time>
        <extensions><gpxtpx:TrackPointExtension><gpxtpx:hr>169</gpxtpx:hr></gpxtpx:TrackPointExtension></extensions>
      </trkpt>
      <trkpt lat="59.547223967537" lon="17.82536847319">
        <ele>36</ele>
        <time>2018-12-15T11:00:16Z</time>
        <extensions><gpxtpx:TrackPointExtension><gpxtpx:hr>169</gpxtpx:hr></gpxtpx:TrackPointExtension></extensions>
      </trkpt>
      <trkpt lat="59.547010899639" lon="17.825369059923">
        <ele>36.8</ele>
        <time>2018-12-15T11:00:20Z</time>
        <extensions><gpxtpx:TrackPointExtension><gpxtpx:hr>170</gpxtpx:hr></gpxtpx:TrackPointExtension></extensions>
      </trkpt>
      <trkpt lat="59.546943006249" lon="17.825357325263">
        <ele>37.2</ele>
        <time>2018-12-15T11:00:21Z</time>
        <extensions><gpxtpx:TrackPointExtension><gpxtpx:hr>169</gpxtpx:hr></gpxtpx:TrackPointExtension></extensions>
      </trkpt>
      <trkpt lat="59.546390387582" lon="17.825178539336">
        <ele>38</ele>
        <time>2018-12-15T11:00:30Z</time>
        <extensions><gpxtpx:TrackPointExtension><gpxtpx:hr>167</gpxtpx:hr></gpxtpx:TrackPointExtension></extensions>
      </trkpt>
      <trkpt lat="59.545990235676" lon="17.825084578237">
        <ele>37.4</ele>
        <time>2018-12-15T11:00:37Z</time>
        <extensions><gpxtpx:TrackPointExtension><gpxtpx:hr>166</gpxtpx:hr></gpxtpx:TrackPointExtension></extensions>
      </trkpt>
      <trkpt lat="59.545451279506" lon="17.825196560421">
        <ele>37.8</ele>
        <time>2018-12-15T11:00:45Z</time>
        <extensions><gpxtpx:TrackPointExtension><gpxtpx:hr>165</gpxtpx:hr></gpxtpx:TrackPointExtension></extensions>
      </trkpt>
      <trkpt lat="59.545073339635" lon="17.825316756867">
        <ele>38.4</ele>
        <time>2018-12-15T11:00:51Z</time>
        <extensions><gpxtpx:TrackPointExtension><gpxtpx:hr>165</gpxtpx:hr></gpxtpx:TrackPointExtension></extensions>
      </trkpt>
      <trkpt lat="59.544563384839" lon="17.82546905599">
        <ele>39.6</ele>
        <time>2018-12-15T11:00:59Z</time>
        <extensions><gpxtpx:TrackPointExtension><gpxtpx:hr>165</gpxtpx:hr></gpxtpx:TrackPointExtension></extensions>
      </trkpt>
      <trkpt lat="59.54435794447" lon="17.82554449309">
        <ele>40.2</ele>
        <time>2018-12-15T11:01:02Z</time>
        <extensions><gpxtpx:TrackPointExtension><gpxtpx:hr>165</gpxtpx:hr></gpxtpx:TrackPointExtension></extensions>
      </trkpt>
      <trkpt lat="59.544108499126" lon="17.825774492426">
        <ele>40.4</ele>
        <time>2018-12-15T11:01:06Z</time>
        <extensions><gpxtpx:TrackPointExtension><gpxtpx:hr>164</gpxtpx:hr></gpxtpx:TrackPointExtension></extensions>
      </trkpt>
      <trkpt lat="59.54376618233" lon="17.826155282143">
        <ele>40.4</ele>
        <time>2018-12-15T11:01:12Z</time>
        <extensions><gpxtpx:TrackPointExtension><gpxtpx:hr>161</gpxtpx:hr></gpxtpx:TrackPointExtension></extensions>
      </trkpt>
      <trkpt lat="59.543273158972" lon="17.826620645231">
        <ele>40.4</ele>
        <time>2018-12-15T11:01:21Z</time>
        <extensions><gpxtpx:TrackPointExtension><gpxtpx:hr>159</gpxtpx:hr></gpxtpx:TrackPointExtension></extensions>
      </trkpt>
      <trkpt lat="59.543054475201" lon="17.826975953972">
        <ele>40.6</ele>
        <time>2018-12-15T11:01:25Z</time>
        <extensions><gpxtpx:TrackPointExtension><gpxtpx:hr>159</gpxtpx:hr></gpxtpx:TrackPointExtension></extensions>
      </trkpt>
      <trkpt lat="59.543015750823" lon="17.827086595052">
        <ele>40.8</ele>
        <time>2018-12-15T11:01:26Z</time>
        <extensions><gpxtpx:TrackPointExtension><gpxtpx:hr>159</gpxtpx:hr></gpxtpx:TrackPointExtension></extensions>
      </trkpt>
      <trkpt lat="59.54269078456" lon="17.827987481664">
        <ele>41.2</ele>
        <time>2018-12-15T11:01:34Z</time>
        <extensions><gpxtpx:TrackPointExtension><gpxtpx:hr>158</gpxtpx:hr></gpxtpx:TrackPointExtension></extensions>
      </trkpt>
      <trkpt lat="59.54257259977" lon="17.828550493887">
        <ele>41</ele>
        <time>2018-12-15T11:01:38Z</time>
        <extensions><gpxtpx:TrackPointExtension><gpxtpx:hr>157</gpxtpx:hr></gpxtpx:TrackPointExtension></extensions>
      </trkpt>
      <trkpt lat="59.542243945471" lon="17.829159522741">
        <ele>39.2</ele>
        <time>2018-12-15T11:01:44Z</time>
        <extensions><gpxtpx:TrackPointExtension><gpxtpx:hr>154</gpxtpx:hr></gpxtpx:TrackPointExtension></extensions>
      </trkpt>
      <trkpt lat="59.542004809864" lon="17.829444507341">
        <ele>38.4</ele>
        <time>2018-12-15T11:01:48Z</time>
        <extensions><gpxtpx:TrackPointExtension><gpxtpx:hr>153</gpxtpx:hr></gpxtpx:TrackPointExtension></extensions>
      </trkpt>
      <trkpt lat="59.541961475441" lon="17.82954852672">
        <ele>38.2</ele>
        <time>2018-12-15T11:01:49Z</time>
        <extensions><gpxtpx:TrackPointExtension><gpxtpx:hr>152</gpxtpx:hr></gpxtpx:TrackPointExtension></extensions>
      </trkpt>
      <trkpt lat="59.541860641184" lon="17.829955384146">
        <ele>38</ele>
        <time>2018-12-15T11:01:52Z</time>
        <extensions><gpxtpx:TrackPointExtension><gpxtpx:hr>149</gpxtpx:hr></gpxtpx:TrackPointExtension></extensions>
      </trkpt>
      <trkpt lat="59.54183415438" lon="17.830111538943">
        <ele>38</ele>
        <time>2018-12-15T11:01:53Z</time>
        <extensions><gpxtpx:TrackPointExtension><gpxtpx:hr>148</gpxtpx:hr></gpxtpx:TrackPointExtension></extensions>
      </trkpt>
      <trkpt lat="59.541809595413" lon="17.830271381776">
        <ele>38</ele>
        <time>2018-12-15T11:01:54Z</time>
        <extensions><gpxtpx:TrackPointExtension><gpxtpx:hr>145</gpxtpx:hr></gpxtpx:TrackPointExtension></extensions>
      </trkpt>
      <trkpt lat="59.541756789443" lon="17.830583356094">
        <ele>37.4</ele>
        <time>2018-12-15T11:01:56Z</time>
        <extensions><gpxtpx:TrackPointExtension><gpxtpx:hr>142</gpxtpx:hr></gpxtpx:TrackPointExtension></extensions>
      </trkpt>
      <trkpt lat="59.541729464449" lon="17.830731883362">
        <ele>37.2</ele>
        <time>2018-12-15T11:01:57Z</time>
        <extensions><gpxtpx:TrackPointExtension><gpxtpx:hr>141</gpxtpx:hr></gpxtpx:TrackPointExtension></extensions>
      </trkpt>
      <trkpt lat="59.541678334859" lon="17.831014185754">
        <ele>36.2</ele>
        <time>2018-12-15T11:01:59Z</time>
        <extensions><gpxtpx:TrackPointExtension><gpxtpx:hr>138</gpxtpx:hr></gpxtpx:TrackPointExtension></extensions>
      </trkpt>
      <trkpt lat="59.541654194987" lon="17.831149385801">
        <ele>35.8</ele>
        <time>2018-12-15T11:02:00Z</time>
        <extensions><gpxtpx:TrackPointExtension><gpxtpx:hr>136</gpxtpx:hr></gpxtpx:TrackPointExtension></extensions>
      </trkpt>
      <trkpt lat="59.541578757887" lon="17.831563032566">
        <ele>34.2</ele>
        <time>2018-12-15T11:02:03Z</time>
        <extensions><gpxtpx:TrackPointExtension><gpxtpx:hr>135</gpxtpx:hr></gpxtpx:TrackPointExtension></extensions>
      </trkpt>
      <trkpt lat="59.541507511737" lon="17.831836953058">
        <ele>33.6</ele>
        <time>2018-12-15T11:02:05Z</time>
        <extensions><gpxtpx:TrackPointExtension><gpxtpx:hr>134</gpxtpx:hr></gpxtpx:TrackPointExtension></extensions>
      </trkpt>
      <trkpt lat="59.541366192903" lon="17.832171977601">
        <ele>33</ele>
        <time>2018-12-15T11:02:08Z</time>
        <extensions><gpxtpx:TrackPointExtension><gpxtpx:hr>132</gpxtpx:hr></gpxtpx:TrackPointExtension></extensions>
      </trkpt>
      <trkpt lat="59.541269717234" lon="17.832375406314">
        <ele>32.8</ele>
        <time>2018-12-15T11:02:10Z</time>
        <extensions><gpxtpx:TrackPointExtension><gpxtpx:hr>128</gpxtpx:hr></gpxtpx:TrackPointExtension></extensions>
      </trkpt>
      <trkpt lat="59.541221688947" lon="17.832483281367">
        <ele>32.6</ele>
        <time>2018-12-15T11:02:11Z</time>
        <extensions><gpxtpx:TrackPointExtension><gpxtpx:hr>124</gpxtpx:hr></gpxtpx:TrackPointExtension></extensions>
      </trkpt>
      <trkpt lat="59.541119010672" lon="17.832699869663">
        <ele>32</ele>
        <time>2018-12-15T11:02:13Z</time>
        <extensions><gpxtpx:TrackPointExtension><gpxtpx:hr>121</gpxtpx:hr></gpxtpx:TrackPointExtension></extensions>
      </trkpt>
      <trkpt lat="59.541065366512" lon="17.832820066109">
        <ele>31.6</ele>
        <time>2018-12-15T11:02:14Z</time>
        <extensions><gpxtpx:TrackPointExtension><gpxtpx:hr>120</gpxtpx:hr></gpxtpx:TrackPointExtension></extensions>
      </trkpt>
      <trkpt lat="59.540970231947" lon="17.833108654926">
        <ele>30.8</ele>
        <time>2018-12-15T11:02:16Z</time>
        <extensions><gpxtpx:TrackPointExtension><gpxtpx:hr>120</gpxtpx:hr></gpxtpx:TrackPointExtension></extensions>
      </trkpt>
      <trkpt lat="59.540875516477" lon="17.833432447723">
        <ele>29.2</ele>
        <time>2018-12-15T11:02:18Z</time>
        <extensions><gpxtpx:TrackPointExtension><gpxtpx:hr>119</gpxtpx:hr></gpxtpx:TrackPointExtension></extensions>
      </trkpt>
      <trkpt lat="59.540793457676" lon="17.833778620193">
        <ele>27.8</ele>
        <time>2018-12-15T11:02:20Z</time>
        <extensions><gpxtpx:TrackPointExtension><gpxtpx:hr>119</gpxtpx:hr></gpxtpx:TrackPointExtension></extensions>
      </trkpt>
      <trkpt lat="59.540755739126" lon="17.833956735568">
        <ele>26</ele>
        <time>2018-12-15T11:02:21Z</time>
        <extensions><gpxtpx:TrackPointExtension><gpxtpx:hr>119</gpxtpx:hr></gpxtpx:TrackPointExtension></extensions>
      </trkpt>
      <trkpt lat="59.540724893734" lon="17.834136946418">
        <ele>24.6</ele>
        <time>2018-12-15T11:02:22Z</time>
        <extensions><gpxtpx:TrackPointExtension><gpxtpx:hr>120</gpxtpx:hr></gpxtpx:TrackPointExtension></extensions>
      </trkpt>
      <trkpt lat="59.54070175969" lon="17.834320174752">
        <ele>23.2</ele>
        <time>2018-12-15T11:02:23Z</time>
        <extensions><gpxtpx:TrackPointExtension><gpxtpx:hr>120</gpxtpx:hr></gpxtpx:TrackPointExtension></extensions>
      </trkpt>
      <trkpt lat="59.540682732777" lon="17.834500301783">
        <ele>21.8</ele>
        <time>2018-12-15T11:02:24Z</time>
        <extensions><gpxtpx:TrackPointExtension><gpxtpx:hr>121</gpxtpx:hr></gpxtpx:TrackPointExtension></extensions>
      </trkpt>
      <trkpt lat="59.540668064452" lon="17.834677578968">
        <ele>20.6</ele>
        <time>2018-12-15T11:02:25Z</time>
        <extensions><gpxtpx:TrackPointExtension><gpxtpx:hr>122</gpxtpx:hr></gpxtpx:TrackPointExtension></extensions>
      </trkpt>
      <trkpt lat="59.540656078335" lon="17.834850246108">
        <ele>19.2</ele>
        <time>2018-12-15T11:02:26Z</time>
        <extensions><gpxtpx:TrackPointExtension><gpxtpx:hr>122</gpxtpx:hr></gpxtpx:TrackPointExtension></extensions>
      </trkpt>
      <trkpt lat="59.540646522969" lon="17.835014615167">
        <ele>18.2</ele>
        <time>2018-12-15T11:02:27Z</time>
        <extensions><gpxtpx:TrackPointExtension><gpxtpx:hr>123</gpxtpx:hr></gpxtpx:TrackPointExtension></extensions>
      </trkpt>
      <trkpt lat="59.540637889612" lon="17.835167081928">
        <ele>17</ele>
        <time>2018-12-15T11:02:28Z</time>
        <extensions><gpxtpx:TrackPointExtension><gpxtpx:hr>123</gpxtpx:hr></gpxtpx:TrackPointExtension></extensions>
      </trkpt>
      <trkpt lat="59.540621964002" lon="17.835432788158">
        <ele>15.4</ele>
        <time>2018-12-15T11:02:30Z</time>
        <extensions><gpxtpx:TrackPointExtension><gpxtpx:hr>123</gpxtpx:hr></gpxtpx:TrackPointExtension></extensions>
      </trkpt>
      <trkpt lat="59.540605200202" lon="17.835739649517">
        <ele>14.4</ele>
        <time>2018-12-15T11:02:33Z</time>
        <extensions><gpxtpx:TrackPointExtension><gpxtpx:hr>119</gpxtpx:hr></gpxtpx:TrackPointExtension></extensions>
      </trkpt>
      <trkpt lat="59.540594722827" lon="17.835883482921">
        <ele>14.4</ele>
        <time>2018-12-15T11:02:35Z</time>
        <extensions><gpxtpx:TrackPointExtension><gpxtpx:hr>116</gpxtpx:hr></gpxtpx:TrackPointExtension></extensions>
      </trkpt>
      <trkpt lat="59.540588268764" lon="17.835975935278">
        <ele>14.4</ele>
        <time>2018-12-15T11:02:37Z</time>
        <extensions><gpxtpx:TrackPointExtension><gpxtpx:hr>113</gpxtpx:hr></gpxtpx:TrackPointExtension></extensions>
      </trkpt>
      <trkpt lat="59.540578629579" lon="17.836002757358">
        <ele>14.4</ele>
        <time>2018-12-15T11:02:38Z</time>
        <extensions><gpxtpx:TrackPointExtension><gpxtpx:hr>111</gpxtpx:hr></gpxtpx:TrackPointExtension></extensions>
      </trkpt>
      <trkpt lat="59.540557674829" lon="17.836099735941">
        <ele>14.6</ele>
        <time>2018-12-15T11:02:41Z</time>
        <extensions><gpxtpx:TrackPointExtension><gpxtpx:hr>114</gpxtpx:hr></gpxtpx:TrackPointExtension></extensions>
      </trkpt>
      <trkpt lat="59.540563877435" lon="17.836135359016">
        <ele>14.8</ele>
        <time>2018-12-15T11:02:43Z</time>
        <extensions><gpxtpx:TrackPointExtension><gpxtpx:hr>119</gpxtpx:hr></gpxtpx:TrackPointExtension></extensions>
      </trkpt>
      <trkpt lat="59.540570247679" lon="17.836147512771">
        <ele>14.8</ele>
        <time>2018-12-15T11:02:44Z</time>
        <extensions><gpxtpx:TrackPointExtension><gpxtpx:hr>122</gpxtpx:hr></gpxtpx:TrackPointExtension></extensions>
      </trkpt>
      <trkpt lat="59.540574103353" lon="17.836177855249">
        <ele>15</ele>
        <time>2018-12-15T11:02:46Z</time>
        <extensions><gpxtpx:TrackPointExtension><gpxtpx:hr>125</gpxtpx:hr></gpxtpx:TrackPointExtension></extensions>
      </trkpt>
      <trkpt lat="59.540570666774" lon="17.836293609288">
        <ele>15.2</ele>
        <time>2018-12-15T11:02:50Z</time>
        <extensions><gpxtpx:TrackPointExtension><gpxtpx:hr>128</gpxtpx:hr></gpxtpx:TrackPointExtension></extensions>
      </trkpt>
      <trkpt lat="59.54053412169" lon="17.836379356125">
        <ele>15.6</ele>
        <time>2018-12-15T11:02:53Z</time>
        <extensions><gpxtpx:TrackPointExtension><gpxtpx:hr>131</gpxtpx:hr></gpxtpx:TrackPointExtension></extensions>
      </trkpt>
      <trkpt lat="59.540513250759" lon="17.836400897608">
        <ele>15.6</ele>
        <time>2018-12-15T11:02:55Z</time>
        <extensions><gpxtpx:TrackPointExtension><gpxtpx:hr>134</gpxtpx:hr></gpxtpx:TrackPointExtension></extensions>
      </trkpt>
      <trkpt lat="59.540513669854" lon="17.836404753282">
        <ele>15.6</ele>
        <time>2018-12-15T11:02:57Z</time>
        <extensions><gpxtpx:TrackPointExtension><gpxtpx:hr>136</gpxtpx:hr></gpxtpx:TrackPointExtension></extensions>
      </trkpt>
      <trkpt lat="59.540489194706" lon="17.836432413552">
        <ele>15.8</ele>
        <time>2018-12-15T11:03:07Z</time>
        <extensions><gpxtpx:TrackPointExtension><gpxtpx:hr>132</gpxtpx:hr></gpxtpx:TrackPointExtension></extensions>
      </trkpt>
      <trkpt lat="59.540472179449" lon="17.836443058565">
        <ele>15.8</ele>
        <time>2018-12-15T11:03:08Z</time>
        <extensions><gpxtpx:TrackPointExtension><gpxtpx:hr>132</gpxtpx:hr></gpxtpx:TrackPointExtension></extensions>
      </trkpt>
      <trkpt lat="59.540278892835" lon="17.836409530965">
        <ele>15.8</ele>
        <time>2018-12-15T11:03:14Z</time>
        <extensions><gpxtpx:TrackPointExtension><gpxtpx:hr>129</gpxtpx:hr></gpxtpx:TrackPointExtension></extensions>
      </trkpt>
      <trkpt lat="59.540237067154" lon="17.836394527364">
        <ele>15.8</ele>
        <time>2018-12-15T11:03:15Z</time>
        <extensions><gpxtpx:TrackPointExtension><gpxtpx:hr>127</gpxtpx:hr></gpxtpx:TrackPointExtension></extensions>
      </trkpt>
      <trkpt lat="59.539842112026" lon="17.83636552599">
        <ele>14.6</ele>
        <time>2018-12-15T11:03:23Z</time>
        <extensions><gpxtpx:TrackPointExtension><gpxtpx:hr>129</gpxtpx:hr></gpxtpx:TrackPointExtension></extensions>
      </trkpt>
      <trkpt lat="59.539566934249" lon="17.83647700526">
        <ele>13.2</ele>
        <time>2018-12-15T11:03:28Z</time>
        <extensions><gpxtpx:TrackPointExtension><gpxtpx:hr>131</gpxtpx:hr></gpxtpx:TrackPointExtension></extensions>
      </trkpt>
      <trkpt lat="59.53934556827" lon="17.836591334376">
        <ele>13</ele>
        <time>2018-12-15T11:03:32Z</time>
        <extensions><gpxtpx:TrackPointExtension><gpxtpx:hr>128</gpxtpx:hr></gpxtpx:TrackPointExtension></extensions>
      </trkpt>
      <trkpt lat="59.538786914635" lon="17.83665051059">
        <ele>12.8</ele>
        <time>2018-12-15T11:03:41Z</time>
        <extensions><gpxtpx:TrackPointExtension><gpxtpx:hr>127</gpxtpx:hr></gpxtpx:TrackPointExtension></extensions>
      </trkpt>
      <trkpt lat="59.538655318805" lon="17.836640787586">
        <ele>12.8</ele>
        <time>2018-12-15T11:03:43Z</time>
        <extensions><gpxtpx:TrackPointExtension><gpxtpx:hr>130</gpxtpx:hr></gpxtpx:TrackPointExtension></extensions>
      </trkpt>
      <trkpt lat="59.538443927287" lon="17.836617402085">
        <ele>12.6</ele>
        <time>2018-12-15T11:03:46Z</time>
        <extensions><gpxtpx:TrackPointExtension><gpxtpx:hr>134</gpxtpx:hr></gpxtpx:TrackPointExtension></extensions>
      </trkpt>
      <trkpt lat="59.538222561308" lon="17.836615893343">
        <ele>12.4</ele>
        <time>2018-12-15T11:03:49Z</time>
        <extensions><gpxtpx:TrackPointExtension><gpxtpx:hr>138</gpxtpx:hr></gpxtpx:TrackPointExtension></extensions>
      </trkpt>
      <trkpt lat="59.538147208027" lon="17.836620503388">
        <ele>12.2</ele>
        <time>2018-12-15T11:03:50Z</time>
        <extensions><gpxtpx:TrackPointExtension><gpxtpx:hr>139</gpxtpx:hr></gpxtpx:TrackPointExtension></extensions>
      </trkpt>
      <trkpt lat="59.537791731648" lon="17.836646403459">
        <ele>11.2</ele>
        <time>2018-12-15T11:03:55Z</time>
        <extensions><gpxtpx:TrackPointExtension><gpxtpx:hr>139</gpxtpx:hr></gpxtpx:TrackPointExtension></extensions>
      </trkpt>
      <trkpt lat="59.537580004854" lon="17.836659646861">
        <ele>10</ele>
        <time>2018-12-15T11:03:58Z</time>
        <extensions><gpxtpx:TrackPointExtension><gpxtpx:hr>138</gpxtpx:hr></gpxtpx:TrackPointExtension></extensions>
      </trkpt>
      <trkpt lat="59.537170046125" lon="17.836746231888">
        <ele>9.4</ele>
        <time>2018-12-15T11:04:04Z</time>
        <extensions><gpxtpx:TrackPointExtension><gpxtpx:hr>135</gpxtpx:hr></gpxtpx:TrackPointExtension></extensions>
      </trkpt>
      <trkpt lat="59.536634777991" lon="17.836924933996">
        <ele>9</ele>
        <time>2018-12-15T11:04:12Z</time>
        <extensions><gpxtpx:TrackPointExtension><gpxtpx:hr>135</gpxtpx:hr></gpxtpx:TrackPointExtension></extensions>
      </trkpt>
      <trkpt lat="59.536216102086" lon="17.83700338858">
        <ele>8.8</ele>
        <time>2018-12-15T11:04:18Z</time>
        <extensions><gpxtpx:TrackPointExtension><gpxtpx:hr>136</gpxtpx:hr></gpxtpx:TrackPointExtension></extensions>
      </trkpt>
      <trkpt lat="59.535648563637" lon="17.837124339397">
        <ele>7.8</ele>
        <time>2018-12-15T11:04:26Z</time>
        <extensions><gpxtpx:TrackPointExtension><gpxtpx:hr>136</gpxtpx:hr></gpxtpx:TrackPointExtension></extensions>
      </trkpt>
      <trkpt lat="59.535507160984" lon="17.837141857568">
        <ele>7.6</ele>
        <time>2018-12-15T11:04:28Z</time>
        <extensions><gpxtpx:TrackPointExtension><gpxtpx:hr>136</gpxtpx:hr></gpxtpx:TrackPointExtension></extensions>
      </trkpt>
      <trkpt lat="59.534967785719" lon="17.837490544608">
        <ele>7.2</ele>
        <time>2018-12-15T11:04:37Z</time>
        <extensions><gpxtpx:TrackPointExtension><gpxtpx:hr>139</gpxtpx:hr></gpxtpx:TrackPointExtension></extensions>
      </trkpt>
      <trkpt lat="59.534822946487" lon="17.837694392416">
        <ele>7.2</ele>
        <time>2018-12-15T11:04:40Z</time>
        <extensions><gpxtpx:TrackPointExtension><gpxtpx:hr>142</gpxtpx:hr></gpxtpx:TrackPointExtension></extensions>
      </trkpt>
      <trkpt lat="59.534675844142" lon="17.837913243825">
        <ele>8.2</ele>
        <time>2018-12-15T11:04:43Z</time>
        <extensions><gpxtpx:TrackPointExtension><gpxtpx:hr>145</gpxtpx:hr></gpxtpx:TrackPointExtension></extensions>
      </trkpt>
      <trkpt lat="59.534630917158" lon="17.837990524943">
        <ele>8.6</ele>
        <time>2018-12-15T11:04:44Z</time>
        <extensions><gpxtpx:TrackPointExtension><gpxtpx:hr>145</gpxtpx:hr></gpxtpx:TrackPointExtension></extensions>
      </trkpt>
      <trkpt lat="59.534507284133" lon="17.838223709401">
        <ele>9.8</ele>
        <time>2018-12-15T11:04:47Z</time>
        <extensions><gpxtpx:TrackPointExtension><gpxtpx:hr>147</gpxtpx:hr></gpxtpx:TrackPointExtension></extensions>
      </trkpt>
      <trkpt lat="59.534347525119" lon="17.838543646524">
        <ele>10.4</ele>
        <time>2018-12-15T11:04:51Z</time>
        <extensions><gpxtpx:TrackPointExtension><gpxtpx:hr>150</gpxtpx:hr></gpxtpx:TrackPointExtension></extensions>
      </trkpt>
      <trkpt lat="59.53422087461" lon="17.838775908973">
        <ele>11</ele>
        <time>2018-12-15T11:04:54Z</time>
        <extensions><gpxtpx:TrackPointExtension><gpxtpx:hr>152</gpxtpx:hr></gpxtpx:TrackPointExtension></extensions>
      </trkpt>
      <trkpt lat="59.534120962362" lon="17.838919574739">
        <ele>11.4</ele>
        <time>2018-12-15T11:04:56Z</time>
        <extensions><gpxtpx:TrackPointExtension><gpxtpx:hr>155</gpxtpx:hr></gpxtpx:TrackPointExtension></extensions>
      </trkpt>
      <trkpt lat="59.533974195293" lon="17.839113028991">
        <ele>12</ele>
        <time>2018-12-15T11:04:59Z</time>
        <extensions><gpxtpx:TrackPointExtension><gpxtpx:hr>158</gpxtpx:hr></gpxtpx:TrackPointExtension></extensions>
      </trkpt>
      <trkpt lat="59.5339283463" lon="17.839182095847">
        <ele>12.2</ele>
        <time>2018-12-15T11:05:00Z</time>
        <extensions><gpxtpx:TrackPointExtension><gpxtpx:hr>159</gpxtpx:hr></gpxtpx:TrackPointExtension></extensions>
      </trkpt>
      <trkpt lat="59.533807144026" lon="17.839399941428">
        <ele>13.2</ele>
        <time>2018-12-15T11:05:03Z</time>
        <extensions><gpxtpx:TrackPointExtension><gpxtpx:hr>162</gpxtpx:hr></gpxtpx:TrackPointExtension></extensions>
      </trkpt>
      <trkpt lat="59.533734305315" lon="17.839556012406">
        <ele>13.8</ele>
        <time>2018-12-15T11:05:05Z</time>
        <extensions><gpxtpx:TrackPointExtension><gpxtpx:hr>165</gpxtpx:hr></gpxtpx:TrackPointExtension></extensions>
      </trkpt>
      <trkpt lat="59.533604553503" lon="17.839869495466">
        <ele>14.4</ele>
        <time>2018-12-15T11:05:09Z</time>
        <extensions><gpxtpx:TrackPointExtension><gpxtpx:hr>168</gpxtpx:hr></gpxtpx:TrackPointExtension></extensions>
      </trkpt>
      <trkpt lat="59.533507742558" lon="17.840104272485">
        <ele>15.6</ele>
        <time>2018-12-15T11:05:12Z</time>
        <extensions><gpxtpx:TrackPointExtension><gpxtpx:hr>169</gpxtpx:hr></gpxtpx:TrackPointExtension></extensions>
      </trkpt>
      <trkpt lat="59.533435909675" lon="17.840271239933">
        <ele>16.6</ele>
        <time>2018-12-15T11:05:14Z</time>
        <extensions><gpxtpx:TrackPointExtension><gpxtpx:hr>170</gpxtpx:hr></gpxtpx:TrackPointExtension></extensions>
      </trkpt>
      <trkpt lat="59.533391988519" lon="17.840346425576">
        <ele>16.8</ele>
        <time>2018-12-15T11:05:15Z</time>
        <extensions><gpxtpx:TrackPointExtension><gpxtpx:hr>171</gpxtpx:hr></gpxtpx:TrackPointExtension></extensions>
      </trkpt>
      <trkpt lat="59.533195935878" lon="17.840601067698">
        <ele>18.2</ele>
        <time>2018-12-15T11:05:19Z</time>
        <extensions><gpxtpx:TrackPointExtension><gpxtpx:hr>171</gpxtpx:hr></gpxtpx:TrackPointExtension></extensions>
      </trkpt>
      <trkpt lat="59.533089653386" lon="17.840685724888">
        <ele>19</ele>
        <time>2018-12-15T11:05:21Z</time>
        <extensions><gpxtpx:TrackPointExtension><gpxtpx:hr>171</gpxtpx:hr></gpxtpx:TrackPointExtension></extensions>
      </trkpt>
      <trkpt lat="59.53302896843" lon="17.840716654099">
        <ele>19.4</ele>
        <time>2018-12-15T11:05:22Z</time>
        <extensions><gpxtpx:TrackPointExtension><gpxtpx:hr>171</gpxtpx:hr></gpxtpx:TrackPointExtension></extensions>
      </trkpt>
      <trkpt lat="59.532751611359" lon="17.840846908825">
        <ele>19.6</ele>
        <time>2018-12-15T11:05:27Z</time>
        <extensions><gpxtpx:TrackPointExtension><gpxtpx:hr>168</gpxtpx:hr></gpxtpx:TrackPointExtension></extensions>
      </trkpt>
      <trkpt lat="59.532219695985" lon="17.8410836975">
        <ele>19.2</ele>
        <time>2018-12-15T11:05:34Z</time>
        <extensions><gpxtpx:TrackPointExtension><gpxtpx:hr>166</gpxtpx:hr></gpxtpx:TrackPointExtension></extensions>
      </trkpt>
      <trkpt lat="59.532036300013" lon="17.841141113515">
        <ele>18.4</ele>
        <time>2018-12-15T11:05:36Z</time>
        <extensions><gpxtpx:TrackPointExtension><gpxtpx:hr>165</gpxtpx:hr></gpxtpx:TrackPointExtension></extensions>
      </trkpt>
      <trkpt lat="59.531766151376" lon="17.841232811501">
        <ele>17.2</ele>
        <time>2018-12-15T11:05:39Z</time>
        <extensions><gpxtpx:TrackPointExtension><gpxtpx:hr>163</gpxtpx:hr></gpxtpx:TrackPointExtension></extensions>
      </trkpt>
      <trkpt lat="59.531586527259" lon="17.841295089018">
        <ele>16</ele>
        <time>2018-12-15T11:05:41Z</time>
        <extensions><gpxtpx:TrackPointExtension><gpxtpx:hr>163</gpxtpx:hr></gpxtpx:TrackPointExtension></extensions>
      </trkpt>
      <trkpt lat="59.531324425246" lon="17.841394582171">
        <ele>15</ele>
        <time>2018-12-15T11:05:44Z</time>
        <extensions><gpxtpx:TrackPointExtension><gpxtpx:hr>161</gpxtpx:hr></gpxtpx:TrackPointExtension></extensions>
      </trkpt>
      <trkpt lat="59.530995770947" lon="17.841540259593">
        <ele>14.6</ele>
        <time>2018-12-15T11:05:48Z</time>
        <extensions><gpxtpx:TrackPointExtension><gpxtpx:hr>158</gpxtpx:hr></gpxtpx:TrackPointExtension></extensions>
      </trkpt>
      <trkpt lat="59.530833329725" lon="17.841643943696">
        <ele>14.4</ele>
        <time>2018-12-15T11:05:50Z</time>
        <extensions><gpxtpx:TrackPointExtension><gpxtpx:hr>156</gpxtpx:hr></gpxtpx:TrackPointExtension></extensions>
      </trkpt>
      <trkpt lat="59.530751941476" lon="17.841718794063">
        <ele>14</ele>
        <time>2018-12-15T11:05:51Z</time>
        <extensions><gpxtpx:TrackPointExtension><gpxtpx:hr>156</gpxtpx:hr></gpxtpx:TrackPointExtension></extensions>
      </trkpt>
      <trkpt lat="59.530516493905" lon="17.841985925216">
        <ele>13.4</ele>
        <time>2018-12-15T11:05:54Z</time>
        <extensions><gpxtpx:TrackPointExtension><gpxtpx:hr>153</gpxtpx:hr></gpxtpx:TrackPointExtension></extensions>
      </trkpt>
      <trkpt lat="59.53019923899" lon="17.842332852057">
        <ele>13.2</ele>
        <time>2018-12-15T11:05:58Z</time>
        <extensions><gpxtpx:TrackPointExtension><gpxtpx:hr>150</gpxtpx:hr></gpxtpx:TrackPointExtension></extensions>
      </trkpt>
      <trkpt lat="59.530123215157" lon="17.842405606949">
        <ele>13</ele>
        <time>2018-12-15T11:05:59Z</time>
        <extensions><gpxtpx:TrackPointExtension><gpxtpx:hr>149</gpxtpx:hr></gpxtpx:TrackPointExtension></extensions>
      </trkpt>
      <trkpt lat="59.529805960242" lon="17.842636360656">
        <ele>12.2</ele>
        <time>2018-12-15T11:06:03Z</time>
        <extensions><gpxtpx:TrackPointExtension><gpxtpx:hr>146</gpxtpx:hr></gpxtpx:TrackPointExtension></extensions>
      </trkpt>
      <trkpt lat="59.52963848988" lon="17.842722023674">
        <ele>12</ele>
        <time>2018-12-15T11:06:05Z</time>
        <extensions><gpxtpx:TrackPointExtension><gpxtpx:hr>144</gpxtpx:hr></gpxtpx:TrackPointExtension></extensions>
      </trkpt>
      <trkpt lat="59.529031724139" lon="17.842883878163">
        <ele>11.4</ele>
        <time>2018-12-15T11:06:12Z</time>
        <extensions><gpxtpx:TrackPointExtension><gpxtpx:hr>145</gpxtpx:hr></gpxtpx:TrackPointExtension></extensions>
      </trkpt>
      <trkpt lat="59.528697873062" lon="17.84300147622">
        <ele>11.4</ele>
        <time>2018-12-15T11:06:16Z</time>
        <extensions><gpxtpx:TrackPointExtension><gpxtpx:hr>143</gpxtpx:hr></gpxtpx:TrackPointExtension></extensions>
      </trkpt>
      <trkpt lat="59.528443314759" lon="17.843191661531">
        <ele>11.2</ele>
        <time>2018-12-15T11:06:19Z</time>
        <extensions><gpxtpx:TrackPointExtension><gpxtpx:hr>140</gpxtpx:hr></gpxtpx:TrackPointExtension></extensions>
      </trkpt>
      <trkpt lat="59.528264025918" lon="17.843318731135">
        <ele>10.8</ele>
        <time>2018-12-15T11:06:21Z</time>
        <extensions><gpxtpx:TrackPointExtension><gpxtpx:hr>138</gpxtpx:hr></gpxtpx:TrackPointExtension></extensions>
      </trkpt>
      <trkpt lat="59.528075600806" lon="17.843404142696">
        <ele>9.6</ele>
        <time>2018-12-15T11:06:23Z</time>
        <extensions><gpxtpx:TrackPointExtension><gpxtpx:hr>138</gpxtpx:hr></gpxtpx:TrackPointExtension></extensions>
      </trkpt>
      <trkpt lat="59.52766958157" lon="17.843439179038">
        <ele>8.8</ele>
        <time>2018-12-15T11:06:27Z</time>
        <extensions><gpxtpx:TrackPointExtension><gpxtpx:hr>135</gpxtpx:hr></gpxtpx:TrackPointExtension></extensions>
      </trkpt>
      <trkpt lat="59.527565143096" lon="17.843443789083">
        <ele>8.4</ele>
        <time>2018-12-15T11:06:28Z</time>
        <extensions><gpxtpx:TrackPointExtension><gpxtpx:hr>134</gpxtpx:hr></gpxtpx:TrackPointExtension></extensions>
      </trkpt>
      <trkpt lat="59.527260377212" lon="17.843483686927">
        <ele>7.6</ele>
        <time>2018-12-15T11:06:31Z</time>
        <extensions><gpxtpx:TrackPointExtension><gpxtpx:hr>130</gpxtpx:hr></gpxtpx:TrackPointExtension></extensions>
      </trkpt>
      <trkpt lat="59.527163733905" lon="17.843494583397">
        <ele>7</ele>
        <time>2018-12-15T11:06:32Z</time>
        <extensions><gpxtpx:TrackPointExtension><gpxtpx:hr>130</gpxtpx:hr></gpxtpx:TrackPointExtension></extensions>
      </trkpt>
      <trkpt lat="59.526883443169" lon="17.843462983634">
        <ele>5.8</ele>
        <time>2018-12-15T11:06:35Z</time>
        <extensions><gpxtpx:TrackPointExtension><gpxtpx:hr>132</gpxtpx:hr></gpxtpx:TrackPointExtension></extensions>
      </trkpt>
      <trkpt lat="59.526595943999" lon="17.84336273611">
        <ele>5.6</ele>
        <time>2018-12-15T11:06:38Z</time>
        <extensions><gpxtpx:TrackPointExtension><gpxtpx:hr>135</gpxtpx:hr></gpxtpx:TrackPointExtension></extensions>
      </trkpt>
      <trkpt lat="59.526398634073" lon="17.843310516873">
        <ele>5.6</ele>
        <time>2018-12-15T11:06:40Z</time>
        <extensions><gpxtpx:TrackPointExtension><gpxtpx:hr>138</gpxtpx:hr></gpxtpx:TrackPointExtension></extensions>
      </trkpt>
      <trkpt lat="59.526112643645" lon="17.843314791642">
        <ele>5.4</ele>
        <time>2018-12-15T11:06:43Z</time>
        <extensions><gpxtpx:TrackPointExtension><gpxtpx:hr>141</gpxtpx:hr></gpxtpx:TrackPointExtension></extensions>
      </trkpt>
      <trkpt lat="59.525921620144" lon="17.843352845468">
        <ele>5.4</ele>
        <time>2018-12-15T11:06:45Z</time>
        <extensions><gpxtpx:TrackPointExtension><gpxtpx:hr>144</gpxtpx:hr></gpxtpx:TrackPointExtension></extensions>
      </trkpt>
      <trkpt lat="59.52555147544" lon="17.843423253428">
        <ele>5.6</ele>
        <time>2018-12-15T11:06:49Z</time>
        <extensions><gpxtpx:TrackPointExtension><gpxtpx:hr>147</gpxtpx:hr></gpxtpx:TrackPointExtension></extensions>
      </trkpt>
      <trkpt lat="59.52498821176" lon="17.843480417986">
        <ele>5.6</ele>
        <time>2018-12-15T11:06:55Z</time>
        <extensions><gpxtpx:TrackPointExtension><gpxtpx:hr>149</gpxtpx:hr></gpxtpx:TrackPointExtension></extensions>
      </trkpt>
      <trkpt lat="59.524453781816" lon="17.843619473707">
        <ele>5.6</ele>
        <time>2018-12-15T11:07:01Z</time>
        <extensions><gpxtpx:TrackPointExtension><gpxtpx:hr>151</gpxtpx:hr></gpxtpx:TrackPointExtension></extensions>
      </trkpt>
      <trkpt lat="59.524118254359" lon="17.843770850821">
        <ele>5.4</ele>
        <time>2018-12-15T11:07:05Z</time>
        <extensions><gpxtpx:TrackPointExtension><gpxtpx:hr>151</gpxtpx:hr></gpxtpx:TrackPointExtension></extensions>
      </trkpt>
      <trkpt lat="59.523599414749" lon="17.844331432293">
        <ele>5.2</ele>
        <time>2018-12-15T11:07:12Z</time>
        <extensions><gpxtpx:TrackPointExtension><gpxtpx:hr>150</gpxtpx:hr></gpxtpx:TrackPointExtension></extensions>
      </trkpt>
      <trkpt lat="59.523386179213" lon="17.844577441058">
        <ele>4.8</ele>
        <time>2018-12-15T11:07:15Z</time>
        <extensions><gpxtpx:TrackPointExtension><gpxtpx:hr>150</gpxtpx:hr></gpxtpx:TrackPointExtension></extensions>
      </trkpt>
      <trkpt lat="59.523249554243" lon="17.844754299148">
        <ele>3.6</ele>
        <time>2018-12-15T11:07:17Z</time>
        <extensions><gpxtpx:TrackPointExtension><gpxtpx:hr>151</gpxtpx:hr></gpxtpx:TrackPointExtension></extensions>
      </trkpt>
      <trkpt lat="59.522917547184" lon="17.845285376332">
        <ele>2.8</ele>
        <time>2018-12-15T11:07:22Z</time>
        <extensions><gpxtpx:TrackPointExtension><gpxtpx:hr>154</gpxtpx:hr></gpxtpx:TrackPointExtension></extensions>
      </trkpt>
      <trkpt lat="59.522786538087" lon="17.84552275174">
        <ele>2.6</ele>
        <time>2018-12-15T11:07:24Z</time>
        <extensions><gpxtpx:TrackPointExtension><gpxtpx:hr>155</gpxtpx:hr></gpxtpx:TrackPointExtension></extensions>
      </trkpt>
      <trkpt lat="59.522455453037" lon="17.846078304072">
        <ele>2.6</ele>
        <time>2018-12-15T11:07:29Z</time>
        <extensions><gpxtpx:TrackPointExtension><gpxtpx:hr>158</gpxtpx:hr></gpxtpx:TrackPointExtension></extensions>
      </trkpt>
      <trkpt lat="59.522100144296" lon="17.846680543587">
        <ele>2.4</ele>
        <time>2018-12-15T11:07:35Z</time>
        <extensions><gpxtpx:TrackPointExtension><gpxtpx:hr>161</gpxtpx:hr></gpxtpx:TrackPointExtension></extensions>
      </trkpt>
      <trkpt lat="59.521782470286" lon="17.847300133635">
        <ele>3.6</ele>
        <time>2018-12-15T11:07:41Z</time>
        <extensions><gpxtpx:TrackPointExtension><gpxtpx:hr>163</gpxtpx:hr></gpxtpx:TrackPointExtension></extensions>
      </trkpt>
      <trkpt lat="59.52136471639" lon="17.84803313079">
        <ele>4.4</ele>
        <time>2018-12-15T11:07:48Z</time>
        <extensions><gpxtpx:TrackPointExtension><gpxtpx:hr>164</gpxtpx:hr></gpxtpx:TrackPointExtension></extensions>
      </trkpt>
      <trkpt lat="59.520941095164" lon="17.848739138227">
        <ele>4.4</ele>
        <time>2018-12-15T11:07:55Z</time>
        <extensions><gpxtpx:TrackPointExtension><gpxtpx:hr>164</gpxtpx:hr></gpxtpx:TrackPointExtension></extensions>
      </trkpt>
      <trkpt lat="59.520507164201" lon="17.849444894207">
        <ele>4.2</ele>
        <time>2018-12-15T11:08:02Z</time>
        <extensions><gpxtpx:TrackPointExtension><gpxtpx:hr>164</gpxtpx:hr></gpxtpx:TrackPointExtension></extensions>
      </trkpt>
      <trkpt lat="59.520074071428" lon="17.850106477574">
        <ele>3.2</ele>
        <time>2018-12-15T11:08:08Z</time>
        <extensions><gpxtpx:TrackPointExtension><gpxtpx:hr>164</gpxtpx:hr></gpxtpx:TrackPointExtension></extensions>
      </trkpt>
      <trkpt lat="59.519929064558" lon="17.850275372859">
        <ele>2.6</ele>
        <time>2018-12-15T11:08:10Z</time>
        <extensions><gpxtpx:TrackPointExtension><gpxtpx:hr>164</gpxtpx:hr></gpxtpx:TrackPointExtension></extensions>
      </trkpt>
      <trkpt lat="59.519360771738" lon="17.850700586646">
        <ele>1.8</ele>
        <time>2018-12-15T11:08:17Z</time>
        <extensions><gpxtpx:TrackPointExtension><gpxtpx:hr>164</gpxtpx:hr></gpxtpx:TrackPointExtension></extensions>
      </trkpt>
      <trkpt lat="59.519269157571" lon="17.850739227205">
        <ele>1.6</ele>
        <time>2018-12-15T11:08:18Z</time>
        <extensions><gpxtpx:TrackPointExtension><gpxtpx:hr>164</gpxtpx:hr></gpxtpx:TrackPointExtension></extensions>
      </trkpt>
      <trkpt lat="59.518722238596" lon="17.850865207162">
        <ele>1</ele>
        <time>2018-12-15T11:08:24Z</time>
        <extensions><gpxtpx:TrackPointExtension><gpxtpx:hr>166</gpxtpx:hr></gpxtpx:TrackPointExtension></extensions>
      </trkpt>
      <trkpt lat="59.518192502516" lon="17.851295198632">
        <ele>1.4</ele>
        <time>2018-12-15T11:08:31Z</time>
        <extensions><gpxtpx:TrackPointExtension><gpxtpx:hr>167</gpxtpx:hr></gpxtpx:TrackPointExtension></extensions>
      </trkpt>
      <trkpt lat="59.517685984299" lon="17.851861060701">
        <ele>2.2</ele>
        <time>2018-12-15T11:08:39Z</time>
        <extensions><gpxtpx:TrackPointExtension><gpxtpx:hr>167</gpxtpx:hr></gpxtpx:TrackPointExtension></extensions>
      </trkpt>
      <trkpt lat="59.51758615587" lon="17.852022244638">
        <ele>2.6</ele>
        <time>2018-12-15T11:08:41Z</time>
        <extensions><gpxtpx:TrackPointExtension><gpxtpx:hr>167</gpxtpx:hr></gpxtpx:TrackPointExtension></extensions>
      </trkpt>
      <trkpt lat="59.517399574776" lon="17.85233388368">
        <ele>3.8</ele>
        <time>2018-12-15T11:08:45Z</time>
        <extensions><gpxtpx:TrackPointExtension><gpxtpx:hr>167</gpxtpx:hr></gpxtpx:TrackPointExtension></extensions>
      </trkpt>
      <trkpt lat="59.517284323651" lon="17.852600176643">
        <ele>5</ele>
        <time>2018-12-15T11:08:48Z</time>
        <extensions><gpxtpx:TrackPointExtension><gpxtpx:hr>167</gpxtpx:hr></gpxtpx:TrackPointExtension></extensions>
      </trkpt>
      <trkpt lat="59.517173598752" lon="17.852850041082">
        <ele>6.4</ele>
        <time>2018-12-15T11:08:51Z</time>
        <extensions><gpxtpx:TrackPointExtension><gpxtpx:hr>167</gpxtpx:hr></gpxtpx:TrackPointExtension></extensions>
      </trkpt>
      <trkpt lat="59.516951981316" lon="17.853278607629">
        <ele>7.6</ele>
        <time>2018-12-15T11:08:57Z</time>
        <extensions><gpxtpx:TrackPointExtension><gpxtpx:hr>167</gpxtpx:hr></gpxtpx:TrackPointExtension></extensions>
      </trkpt>
      <trkpt lat="59.516861456796" lon="17.853420680834">
        <ele>8.4</ele>
        <time>2018-12-15T11:08:59Z</time>
        <extensions><gpxtpx:TrackPointExtension><gpxtpx:hr>166</gpxtpx:hr></gpxtpx:TrackPointExtension></extensions>
      </trkpt>
      <trkpt lat="59.516762969471" lon="17.85355345013">
        <ele>8.8</ele>
        <time>2018-12-15T11:09:01Z</time>
        <extensions><gpxtpx:TrackPointExtension><gpxtpx:hr>167</gpxtpx:hr></gpxtpx:TrackPointExtension></extensions>
      </trkpt>
      <trkpt lat="59.516476308491" lon="17.853947315611">
        <ele>9.2</ele>
        <time>2018-12-15T11:09:07Z</time>
        <extensions><gpxtpx:TrackPointExtension><gpxtpx:hr>167</gpxtpx:hr></gpxtpx:TrackPointExtension></extensions>
      </trkpt>
      <trkpt lat="59.516328619413" lon="17.854389293198">
        <ele>9.6</ele>
        <time>2018-12-15T11:09:12Z</time>
        <extensions><gpxtpx:TrackPointExtension><gpxtpx:hr>166</gpxtpx:hr></gpxtpx:TrackPointExtension></extensions>
      </trkpt>
      <trkpt lat="59.516310765966" lon="17.85447965008">
        <ele>9.6</ele>
        <time>2018-12-15T11:09:13Z</time>
        <extensions><gpxtpx:TrackPointExtension><gpxtpx:hr>166</gpxtpx:hr></gpxtpx:TrackPointExtension></extensions>
      </trkpt>
      <trkpt lat="59.516245303327" lon="17.854832863346">
        <ele>9.8</ele>
        <time>2018-12-15T11:09:17Z</time>
        <extensions><gpxtpx:TrackPointExtension><gpxtpx:hr>166</gpxtpx:hr></gpxtpx:TrackPointExtension></extensions>
      </trkpt>
      <trkpt lat="59.5161671002" lon="17.855198398005">
        <ele>11</ele>
        <time>2018-12-15T11:09:21Z</time>
        <extensions><gpxtpx:TrackPointExtension><gpxtpx:hr>165</gpxtpx:hr></gpxtpx:TrackPointExtension></extensions>
      </trkpt>
      <trkpt lat="59.516143547061" lon="17.855291018">
        <ele>11.6</ele>
        <time>2018-12-15T11:09:22Z</time>
        <extensions><gpxtpx:TrackPointExtension><gpxtpx:hr>165</gpxtpx:hr></gpxtpx:TrackPointExtension></extensions>
      </trkpt>
      <trkpt lat="59.516089399987" lon="17.855468379004">
        <ele>12.4</ele>
        <time>2018-12-15T11:09:24Z</time>
        <extensions><gpxtpx:TrackPointExtension><gpxtpx:hr>165</gpxtpx:hr></gpxtpx:TrackPointExtension></extensions>
      </trkpt>
      <trkpt lat="59.516027038651" lon="17.855637022832">
        <ele>13</ele>
        <time>2018-12-15T11:09:26Z</time>
        <extensions><gpxtpx:TrackPointExtension><gpxtpx:hr>166</gpxtpx:hr></gpxtpx:TrackPointExtension></extensions>
      </trkpt>
      <trkpt lat="59.515958139433" lon="17.855799296416">
        <ele>13.4</ele>
        <time>2018-12-15T11:09:28Z</time>
        <extensions><gpxtpx:TrackPointExtension><gpxtpx:hr>166</gpxtpx:hr></gpxtpx:TrackPointExtension></extensions>
      </trkpt>
      <trkpt lat="59.515893179708" lon="17.855956876136">
        <ele>14.8</ele>
        <time>2018-12-15T11:09:30Z</time>
        <extensions><gpxtpx:TrackPointExtension><gpxtpx:hr>167</gpxtpx:hr></gpxtpx:TrackPointExtension></extensions>
      </trkpt>
      <trkpt lat="59.515841714842" lon="17.856123508308">
        <ele>15.8</ele>
        <time>2018-12-15T11:09:32Z</time>
        <extensions><gpxtpx:TrackPointExtension><gpxtpx:hr>168</gpxtpx:hr></gpxtpx:TrackPointExtension></extensions>
      </trkpt>
      <trkpt lat="59.515803158102" lon="17.856299863484">
        <ele>17</ele>
        <time>2018-12-15T11:09:34Z</time>
        <extensions><gpxtpx:TrackPointExtension><gpxtpx:hr>168</gpxtpx:hr></gpxtpx:TrackPointExtension></extensions>
      </trkpt>
      <trkpt lat="59.515762002973" lon="17.856574789804">
        <ele>18</ele>
        <time>2018-12-15T11:09:37Z</time>
        <extensions><gpxtpx:TrackPointExtension><gpxtpx:hr>169</gpxtpx:hr></gpxtpx:TrackPointExtension></extensions>
      </trkpt>
      <trkpt lat="59.515755632729" lon="17.856671265473">
        <ele>18.2</ele>
        <time>2018-12-15T11:09:38Z</time>
        <extensions><gpxtpx:TrackPointExtension><gpxtpx:hr>170</gpxtpx:hr></gpxtpx:TrackPointExtension></extensions>
      </trkpt>
      <trkpt lat="59.515747837562" lon="17.856872263435">
        <ele>19</ele>
        <time>2018-12-15T11:09:40Z</time>
        <extensions><gpxtpx:TrackPointExtension><gpxtpx:hr>170</gpxtpx:hr></gpxtpx:TrackPointExtension></extensions>
      </trkpt>
      <trkpt lat="59.515747502286" lon="17.856973097692">
        <ele>19.4</ele>
        <time>2018-12-15T11:09:41Z</time>
        <extensions><gpxtpx:TrackPointExtension><gpxtpx:hr>171</gpxtpx:hr></gpxtpx:TrackPointExtension></extensions>
      </trkpt>
      <trkpt lat="59.515744903897" lon="17.85717023998">
        <ele>20.4</ele>
        <time>2018-12-15T11:09:43Z</time>
        <extensions><gpxtpx:TrackPointExtension><gpxtpx:hr>172</gpxtpx:hr></gpxtpx:TrackPointExtension></extensions>
      </trkpt>
      <trkpt lat="59.515755884186" lon="17.85736470006">
        <ele>20.8</ele>
        <time>2018-12-15T11:09:45Z</time>
        <extensions><gpxtpx:TrackPointExtension><gpxtpx:hr>173</gpxtpx:hr></gpxtpx:TrackPointExtension></extensions>
      </trkpt>
      <trkpt lat="59.515768708493" lon="17.857568547868">
        <ele>21.6</ele>
        <time>2018-12-15T11:09:47Z</time>
        <extensions><gpxtpx:TrackPointExtension><gpxtpx:hr>173</gpxtpx:hr></gpxtpx:TrackPointExtension></extensions>
      </trkpt>
      <trkpt lat="59.515794357107" lon="17.857832158623">
        <ele>22.6</ele>
        <time>2018-12-15T11:09:50Z</time>
        <extensions><gpxtpx:TrackPointExtension><gpxtpx:hr>175</gpxtpx:hr></gpxtpx:TrackPointExtension></extensions>
      </trkpt>
      <trkpt lat="59.515824615766" lon="17.858139941991">
        <ele>23.8</ele>
        <time>2018-12-15T11:09:53Z</time>
        <extensions><gpxtpx:TrackPointExtension><gpxtpx:hr>175</gpxtpx:hr></gpxtpx:TrackPointExtension></extensions>
      </trkpt>
      <trkpt lat="59.51585445533" lon="17.858537746965">
        <ele>25</ele>
        <time>2018-12-15T11:09:56Z</time>
        <extensions><gpxtpx:TrackPointExtension><gpxtpx:hr>175</gpxtpx:hr></gpxtpx:TrackPointExtension></extensions>
      </trkpt>
      <trkpt lat="59.51584691162" lon="17.85969738283">
        <ele>25.2</ele>
        <time>2018-12-15T11:10:03Z</time>
        <extensions><gpxtpx:TrackPointExtension><gpxtpx:hr>174</gpxtpx:hr></gpxtpx:TrackPointExtension></extensions>
      </trkpt>
      <trkpt lat="59.515850515837" lon="17.860844697302">
        <ele>24.8</ele>
        <time>2018-12-15T11:10:10Z</time>
        <extensions><gpxtpx:TrackPointExtension><gpxtpx:hr>173</gpxtpx:hr></gpxtpx:TrackPointExtension></extensions>
      </trkpt>
      <trkpt lat="59.51595671451" lon="17.861899810874">
        <ele>24.6</ele>
        <time>2018-12-15T11:10:17Z</time>
        <extensions><gpxtpx:TrackPointExtension><gpxtpx:hr>172</gpxtpx:hr></gpxtpx:TrackPointExtension></extensions>
      </trkpt>
      <trkpt lat="59.516041120243" lon="17.863029271899">
        <ele>24.6</ele>
        <time>2018-12-15T11:10:24Z</time>
        <extensions><gpxtpx:TrackPointExtension><gpxtpx:hr>170</gpxtpx:hr></gpxtpx:TrackPointExtension></extensions>
      </trkpt>
      <trkpt lat="59.51577063633" lon="17.864036189546">
        <ele>25.2</ele>
        <time>2018-12-15T11:10:32Z</time>
        <extensions><gpxtpx:TrackPointExtension><gpxtpx:hr>169</gpxtpx:hr></gpxtpx:TrackPointExtension></extensions>
      </trkpt>
      <trkpt lat="59.515714645238" lon="17.864113303026">
        <ele>25.2</ele>
        <time>2018-12-15T11:10:33Z</time>
        <extensions><gpxtpx:TrackPointExtension><gpxtpx:hr>169</gpxtpx:hr></gpxtpx:TrackPointExtension></extensions>
      </trkpt>
      <trkpt lat="59.515472073052" lon="17.864434916529">
        <ele>26.2</ele>
        <time>2018-12-15T11:10:38Z</time>
        <extensions><gpxtpx:TrackPointExtension><gpxtpx:hr>167</gpxtpx:hr></gpxtpx:TrackPointExtension></extensions>
      </trkpt>
      <trkpt lat="59.515308458364" lon="17.864735994377">
        <ele>27.2</ele>
        <time>2018-12-15T11:10:43Z</time>
        <extensions><gpxtpx:TrackPointExtension><gpxtpx:hr>166</gpxtpx:hr></gpxtpx:TrackPointExtension></extensions>
      </trkpt>
      <trkpt lat="59.515279624628" lon="17.864798188075">
        <ele>27.4</ele>
        <time>2018-12-15T11:10:44Z</time>
        <extensions><gpxtpx:TrackPointExtension><gpxtpx:hr>165</gpxtpx:hr></gpxtpx:TrackPointExtension></extensions>
      </trkpt>
      <trkpt lat="59.515182143131" lon="17.865009328136">
        <ele>28.4</ele>
        <time>2018-12-15T11:10:47Z</time>
        <extensions><gpxtpx:TrackPointExtension><gpxtpx:hr>165</gpxtpx:hr></gpxtpx:TrackPointExtension></extensions>
      </trkpt>
      <trkpt lat="59.515112405723" lon="17.865176966136">
        <ele>29</ele>
        <time>2018-12-15T11:10:49Z</time>
        <extensions><gpxtpx:TrackPointExtension><gpxtpx:hr>165</gpxtpx:hr></gpxtpx:TrackPointExtension></extensions>
      </trkpt>
      <trkpt lat="59.515074184259" lon="17.86526464081">
        <ele>29.6</ele>
        <time>2018-12-15T11:10:50Z</time>
        <extensions><gpxtpx:TrackPointExtension><gpxtpx:hr>165</gpxtpx:hr></gpxtpx:TrackPointExtension></extensions>
      </trkpt>
      <trkpt lat="59.514935631452" lon="17.865546524107">
        <ele>30.8</ele>
        <time>2018-12-15T11:10:53Z</time>
        <extensions><gpxtpx:TrackPointExtension><gpxtpx:hr>166</gpxtpx:hr></gpxtpx:TrackPointExtension></extensions>
      </trkpt>
      <trkpt lat="59.514776123895" lon="17.865848104869">
        <ele>30.8</ele>
        <time>2018-12-15T11:10:56Z</time>
        <extensions><gpxtpx:TrackPointExtension><gpxtpx:hr>165</gpxtpx:hr></gpxtpx:TrackPointExtension></extensions>
      </trkpt>
      <trkpt lat="59.514597421787" lon="17.866495522825">
        <ele>30.6</ele>
        <time>2018-12-15T11:11:01Z</time>
        <extensions><gpxtpx:TrackPointExtension><gpxtpx:hr>163</gpxtpx:hr></gpxtpx:TrackPointExtension></extensions>
      </trkpt>
      <trkpt lat="59.514461467369" lon="17.866974380772">
        <ele>30.4</ele>
        <time>2018-12-15T11:11:05Z</time>
        <extensions><gpxtpx:TrackPointExtension><gpxtpx:hr>160</gpxtpx:hr></gpxtpx:TrackPointExtension></extensions>
      </trkpt>
      <trkpt lat="59.514298104138" lon="17.867246792522">
        <ele>30.2</ele>
        <time>2018-12-15T11:11:08Z</time>
        <extensions><gpxtpx:TrackPointExtension><gpxtpx:hr>157</gpxtpx:hr></gpxtpx:TrackPointExtension></extensions>
      </trkpt>
      <trkpt lat="59.514166675946" lon="17.867382495483">
        <ele>30.2</ele>
        <time>2018-12-15T11:11:10Z</time>
        <extensions><gpxtpx:TrackPointExtension><gpxtpx:hr>154</gpxtpx:hr></gpxtpx:TrackPointExtension></extensions>
      </trkpt>
      <trkpt lat="59.513965258889" lon="17.867572010242">
        <ele>30</ele>
        <time>2018-12-15T11:11:13Z</time>
        <extensions><gpxtpx:TrackPointExtension><gpxtpx:hr>151</gpxtpx:hr></gpxtpx:TrackPointExtension></extensions>
      </trkpt>
      <trkpt lat="59.513597125841" lon="17.86797618546">
        <ele>30</ele>
        <time>2018-12-15T11:11:19Z</time>
        <extensions><gpxtpx:TrackPointExtension><gpxtpx:hr>149</gpxtpx:hr></gpxtpx:TrackPointExtension></extensions>
      </trkpt>
      <trkpt lat="59.513433427334" lon="17.868701974181">
        <ele>29.6</ele>
        <time>2018-12-15T11:11:24Z</time>
        <extensions><gpxtpx:TrackPointExtension><gpxtpx:hr>145</gpxtpx:hr></gpxtpx:TrackPointExtension></extensions>
      </trkpt>
      <trkpt lat="59.51342873347" lon="17.868867684344">
        <ele>29.6</ele>
        <time>2018-12-15T11:11:25Z</time>
        <extensions><gpxtpx:TrackPointExtension><gpxtpx:hr>144</gpxtpx:hr></gpxtpx:TrackPointExtension></extensions>
      </trkpt>
      <trkpt lat="59.513443401795" lon="17.869698917367">
        <ele>28.4</ele>
        <time>2018-12-15T11:11:30Z</time>
        <extensions><gpxtpx:TrackPointExtension><gpxtpx:hr>144</gpxtpx:hr></gpxtpx:TrackPointExtension></extensions>
      </trkpt>
      <trkpt lat="59.513445329632" lon="17.870197305141">
        <ele>27.4</ele>
        <time>2018-12-15T11:11:33Z</time>
        <extensions><gpxtpx:TrackPointExtension><gpxtpx:hr>144</gpxtpx:hr></gpxtpx:TrackPointExtension></extensions>
      </trkpt>
      <trkpt lat="59.513448682392" lon="17.870537191186">
        <ele>27</ele>
        <time>2018-12-15T11:11:35Z</time>
        <extensions><gpxtpx:TrackPointExtension><gpxtpx:hr>140</gpxtpx:hr></gpxtpx:TrackPointExtension></extensions>
      </trkpt>
      <trkpt lat="59.513446503098" lon="17.870893505755">
        <ele>25.8</ele>
        <time>2018-12-15T11:11:37Z</time>
        <extensions><gpxtpx:TrackPointExtension><gpxtpx:hr>134</gpxtpx:hr></gpxtpx:TrackPointExtension></extensions>
      </trkpt>
      <trkpt lat="59.513444826718" lon="17.871073800424">
        <ele>25</ele>
        <time>2018-12-15T11:11:38Z</time>
        <extensions><gpxtpx:TrackPointExtension><gpxtpx:hr>131</gpxtpx:hr></gpxtpx:TrackPointExtension></extensions>
      </trkpt>
      <trkpt lat="59.51343795356" lon="17.871257531672">
        <ele>24.4</ele>
        <time>2018-12-15T11:11:39Z</time>
        <extensions><gpxtpx:TrackPointExtension><gpxtpx:hr>129</gpxtpx:hr></gpxtpx:TrackPointExtension></extensions>
      </trkpt>
      <trkpt lat="59.513389925273" lon="17.871826495044">
        <ele>23.4</ele>
        <time>2018-12-15T11:11:42Z</time>
        <extensions><gpxtpx:TrackPointExtension><gpxtpx:hr>128</gpxtpx:hr></gpxtpx:TrackPointExtension></extensions>
      </trkpt>
      <trkpt lat="59.513356816768" lon="17.872212230082">
        <ele>22.2</ele>
        <time>2018-12-15T11:11:44Z</time>
        <extensions><gpxtpx:TrackPointExtension><gpxtpx:hr>128</gpxtpx:hr></gpxtpx:TrackPointExtension></extensions>
      </trkpt>
      <trkpt lat="59.51333485619" lon="17.872572400325">
        <ele>20.2</ele>
        <time>2018-12-15T11:11:46Z</time>
        <extensions><gpxtpx:TrackPointExtension><gpxtpx:hr>124</gpxtpx:hr></gpxtpx:TrackPointExtension></extensions>
      </trkpt>
      <trkpt lat="59.513329575593" lon="17.872739954506">
        <ele>19</ele>
        <time>2018-12-15T11:11:47Z</time>
        <extensions><gpxtpx:TrackPointExtension><gpxtpx:hr>123</gpxtpx:hr></gpxtpx:TrackPointExtension></extensions>
      </trkpt>
      <trkpt lat="59.51332815067" lon="17.87289887533">
        <ele>17.8</ele>
        <time>2018-12-15T11:11:48Z</time>
        <extensions><gpxtpx:TrackPointExtension><gpxtpx:hr>120</gpxtpx:hr></gpxtpx:TrackPointExtension></extensions>
      </trkpt>
      <trkpt lat="59.513326977204" lon="17.873052096462">
        <ele>16.6</ele>
        <time>2018-12-15T11:11:49Z</time>
        <extensions><gpxtpx:TrackPointExtension><gpxtpx:hr>119</gpxtpx:hr></gpxtpx:TrackPointExtension></extensions>
      </trkpt>
      <trkpt lat="59.513320104046" lon="17.873201042825">
        <ele>15.6</ele>
        <time>2018-12-15T11:11:50Z</time>
        <extensions><gpxtpx:TrackPointExtension><gpxtpx:hr>118</gpxtpx:hr></gpxtpx:TrackPointExtension></extensions>
      </trkpt>
      <trkpt lat="59.513278948917" lon="17.873492230031">
        <ele>14</ele>
        <time>2018-12-15T11:11:52Z</time>
        <extensions><gpxtpx:TrackPointExtension><gpxtpx:hr>120</gpxtpx:hr></gpxtpx:TrackPointExtension></extensions>
      </trkpt>
      <trkpt lat="59.513192782985" lon="17.873747207429">
        <ele>12.8</ele>
        <time>2018-12-15T11:11:54Z</time>
        <extensions><gpxtpx:TrackPointExtension><gpxtpx:hr>124</gpxtpx:hr></gpxtpx:TrackPointExtension></extensions>
      </trkpt>
      <trkpt lat="59.513063114992" lon="17.873930184306">
        <ele>12.6</ele>
        <time>2018-12-15T11:11:56Z</time>
        <extensions><gpxtpx:TrackPointExtension><gpxtpx:hr>127</gpxtpx:hr></gpxtpx:TrackPointExtension></extensions>
      </trkpt>
      <trkpt lat="59.512905283815" lon="17.87405893029">
        <ele>12.4</ele>
        <time>2018-12-15T11:11:58Z</time>
        <extensions><gpxtpx:TrackPointExtension><gpxtpx:hr>129</gpxtpx:hr></gpxtpx:TrackPointExtension></extensions>
      </trkpt>
      <trkpt lat="59.51274477043" lon="17.874172169759">
        <ele>12</ele>
        <time>2018-12-15T11:12:00Z</time>
        <extensions><gpxtpx:TrackPointExtension><gpxtpx:hr>132</gpxtpx:hr></gpxtpx:TrackPointExtension></extensions>
      </trkpt>
      <trkpt lat="59.512664555647" lon="17.874228412308">
        <ele>11.8</ele>
        <time>2018-12-15T11:12:01Z</time>
        <extensions><gpxtpx:TrackPointExtension><gpxtpx:hr>132</gpxtpx:hr></gpxtpx:TrackPointExtension></extensions>
      </trkpt>
      <trkpt lat="59.512080337217" lon="17.874575925882">
        <ele>11.2</ele>
        <time>2018-12-15T11:12:08Z</time>
        <extensions><gpxtpx:TrackPointExtension><gpxtpx:hr>135</gpxtpx:hr></gpxtpx:TrackPointExtension></extensions>
      </trkpt>
      <trkpt lat="59.511892247381" lon="17.874615236993">
        <ele>11</ele>
        <time>2018-12-15T11:12:10Z</time>
        <extensions><gpxtpx:TrackPointExtension><gpxtpx:hr>136</gpxtpx:hr></gpxtpx:TrackPointExtension></extensions>
      </trkpt>
      <trkpt lat="59.511525623075" lon="17.874592438225">
        <ele>10.2</ele>
        <time>2018-12-15T11:12:14Z</time>
        <extensions><gpxtpx:TrackPointExtension><gpxtpx:hr>135</gpxtpx:hr></gpxtpx:TrackPointExtension></extensions>
      </trkpt>
      <trkpt lat="59.511270645677" lon="17.874444330052">
        <ele>9.8</ele>
        <time>2018-12-15T11:12:17Z</time>
        <extensions><gpxtpx:TrackPointExtension><gpxtpx:hr>135</gpxtpx:hr></gpxtpx:TrackPointExtension></extensions>
      </trkpt>
      <trkpt lat="59.510794889033" lon="17.873973351091">
        <ele>8.8</ele>
        <time>2018-12-15T11:12:23Z</time>
        <extensions><gpxtpx:TrackPointExtension><gpxtpx:hr>136</gpxtpx:hr></gpxtpx:TrackPointExtension></extensions>
      </trkpt>
      <trkpt lat="59.510477969394" lon="17.873401537873">
        <ele>8.2</ele>
        <time>2018-12-15T11:12:28Z</time>
        <extensions><gpxtpx:TrackPointExtension><gpxtpx:hr>139</gpxtpx:hr></gpxtpx:TrackPointExtension></extensions>
      </trkpt>
      <trkpt lat="59.510250149352" lon="17.872855792364">
        <ele>8</ele>
        <time>2018-12-15T11:12:32Z</time>
        <extensions><gpxtpx:TrackPointExtension><gpxtpx:hr>142</gpxtpx:hr></gpxtpx:TrackPointExtension></extensions>
      </trkpt>
      <trkpt lat="59.509893331869" lon="17.87195842615">
        <ele>7.8</ele>
        <time>2018-12-15T11:12:39Z</time>
        <extensions><gpxtpx:TrackPointExtension><gpxtpx:hr>145</gpxtpx:hr></gpxtpx:TrackPointExtension></extensions>
      </trkpt>
      <trkpt lat="59.509537687852" lon="17.871007834871">
        <ele>8.2</ele>
        <time>2018-12-15T11:12:47Z</time>
        <extensions><gpxtpx:TrackPointExtension><gpxtpx:hr>144</gpxtpx:hr></gpxtpx:TrackPointExtension></extensions>
      </trkpt>
      <trkpt lat="59.509361919409" lon="17.870523361051">
        <ele>8.4</ele>
        <time>2018-12-15T11:12:51Z</time>
        <extensions><gpxtpx:TrackPointExtension><gpxtpx:hr>147</gpxtpx:hr></gpxtpx:TrackPointExtension></extensions>
      </trkpt>
      <trkpt lat="59.50919419759" lon="17.870019860318">
        <ele>9.2</ele>
        <time>2018-12-15T11:12:55Z</time>
        <extensions><gpxtpx:TrackPointExtension><gpxtpx:hr>150</gpxtpx:hr></gpxtpx:TrackPointExtension></extensions>
      </trkpt>
      <trkpt lat="59.509119933956" lon="17.869777874865">
        <ele>10</ele>
        <time>2018-12-15T11:12:57Z</time>
        <extensions><gpxtpx:TrackPointExtension><gpxtpx:hr>150</gpxtpx:hr></gpxtpx:TrackPointExtension></extensions>
      </trkpt>
      <trkpt lat="59.508966293729" lon="17.86929884928">
        <ele>11.2</ele>
        <time>2018-12-15T11:13:01Z</time>
        <extensions><gpxtpx:TrackPointExtension><gpxtpx:hr>153</gpxtpx:hr></gpxtpx:TrackPointExtension></extensions>
      </trkpt>
      <trkpt lat="59.508647949167" lon="17.868282376267">
        <ele>11.6</ele>
        <time>2018-12-15T11:13:09Z</time>
        <extensions><gpxtpx:TrackPointExtension><gpxtpx:hr>152</gpxtpx:hr></gpxtpx:TrackPointExtension></extensions>
      </trkpt>
      <trkpt lat="59.508351984278" lon="17.867266657625">
        <ele>11.6</ele>
        <time>2018-12-15T11:13:18Z</time>
        <extensions><gpxtpx:TrackPointExtension><gpxtpx:hr>151</gpxtpx:hr></gpxtpx:TrackPointExtension></extensions>
      </trkpt>
      <trkpt lat="59.508316864117" lon="17.867169762861">
        <ele>11.4</ele>
        <time>2018-12-15T11:13:19Z</time>
        <extensions><gpxtpx:TrackPointExtension><gpxtpx:hr>151</gpxtpx:hr></gpxtpx:TrackPointExtension></extensions>
      </trkpt>
      <trkpt lat="59.508247126709" lon="17.866983265586">
        <ele>11.4</ele>
        <time>2018-12-15T11:13:21Z</time>
        <extensions><gpxtpx:TrackPointExtension><gpxtpx:hr>147</gpxtpx:hr></gpxtpx:TrackPointExtension></extensions>
      </trkpt>
      <trkpt lat="59.50819256054" lon="17.86679517575">
        <ele>11.2</ele>
        <time>2018-12-15T11:13:23Z</time>
        <extensions><gpxtpx:TrackPointExtension><gpxtpx:hr>144</gpxtpx:hr></gpxtpx:TrackPointExtension></extensions>
      </trkpt>
      <trkpt lat="59.508165067908" lon="17.866710434741">
        <ele>11.2</ele>
        <time>2018-12-15T11:13:24Z</time>
        <extensions><gpxtpx:TrackPointExtension><gpxtpx:hr>143</gpxtpx:hr></gpxtpx:TrackPointExtension></extensions>
      </trkpt>
      <trkpt lat="59.508052415172" lon="17.866567104251">
        <ele>10.8</ele>
        <time>2018-12-15T11:13:27Z</time>
        <extensions><gpxtpx:TrackPointExtension><gpxtpx:hr>139</gpxtpx:hr></gpxtpx:TrackPointExtension></extensions>
      </trkpt>
      <trkpt lat="59.507968679991" lon="17.866611109226">
        <ele>10.6</ele>
        <time>2018-12-15T11:13:29Z</time>
        <extensions><gpxtpx:TrackPointExtension><gpxtpx:hr>135</gpxtpx:hr></gpxtpx:TrackPointExtension></extensions>
      </trkpt>
      <trkpt lat="59.507929201242" lon="17.866648408681">
        <ele>10.6</ele>
        <time>2018-12-15T11:13:30Z</time>
        <extensions><gpxtpx:TrackPointExtension><gpxtpx:hr>134</gpxtpx:hr></gpxtpx:TrackPointExtension></extensions>
      </trkpt>
      <trkpt lat="59.507894500176" lon="17.866680678996">
        <ele>10.6</ele>
        <time>2018-12-15T11:13:31Z</time>
        <extensions><gpxtpx:TrackPointExtension><gpxtpx:hr>131</gpxtpx:hr></gpxtpx:TrackPointExtension></extensions>
      </trkpt>
      <trkpt lat="59.507836162152" lon="17.866730718939">
        <ele>10.4</ele>
        <time>2018-12-15T11:13:33Z</time>
        <extensions><gpxtpx:TrackPointExtension><gpxtpx:hr>128</gpxtpx:hr></gpxtpx:TrackPointExtension></extensions>
      </trkpt>
      <trkpt lat="59.507783607639" lon="17.866748404748">
        <ele>10</ele>
        <time>2018-12-15T11:13:35Z</time>
        <extensions><gpxtpx:TrackPointExtension><gpxtpx:hr>126</gpxtpx:hr></gpxtpx:TrackPointExtension></extensions>
      </trkpt>
      <trkpt lat="59.507700040096" lon="17.866667100318">
        <ele>9.6</ele>
        <time>2018-12-15T11:13:38Z</time>
        <extensions><gpxtpx:TrackPointExtension><gpxtpx:hr>125</gpxtpx:hr></gpxtpx:TrackPointExtension></extensions>
      </trkpt>
      <trkpt lat="59.507524271653" lon="17.866667184137">
        <ele>9.2</ele>
        <time>2018-12-15T11:13:41Z</time>
        <extensions><gpxtpx:TrackPointExtension><gpxtpx:hr>128</gpxtpx:hr></gpxtpx:TrackPointExtension></extensions>
      </trkpt>
      <trkpt lat="59.507451516761" lon="17.866676320408">
        <ele>9</ele>
        <time>2018-12-15T11:13:42Z</time>
        <extensions><gpxtpx:TrackPointExtension><gpxtpx:hr>129</gpxtpx:hr></gpxtpx:TrackPointExtension></extensions>
      </trkpt>
      <trkpt lat="59.507376498756" lon="17.866666681223">
        <ele>9</ele>
        <time>2018-12-15T11:13:43Z</time>
        <extensions><gpxtpx:TrackPointExtension><gpxtpx:hr>130</gpxtpx:hr></gpxtpx:TrackPointExtension></extensions>
      </trkpt>
      <trkpt lat="59.507158736994" lon="17.866528128416">
        <ele>8.2</ele>
        <time>2018-12-15T11:13:46Z</time>
        <extensions><gpxtpx:TrackPointExtension><gpxtpx:hr>130</gpxtpx:hr></gpxtpx:TrackPointExtension></extensions>
      </trkpt>
      <trkpt lat="59.507065865542" lon="17.866431820385">
        <ele>6.6</ele>
        <time>2018-12-15T11:13:48Z</time>
        <extensions><gpxtpx:TrackPointExtension><gpxtpx:hr>128</gpxtpx:hr></gpxtpx:TrackPointExtension></extensions>
      </trkpt>
      <trkpt lat="59.507016663789" lon="17.8663132165">
        <ele>6</ele>
        <time>2018-12-15T11:13:50Z</time>
        <extensions><gpxtpx:TrackPointExtension><gpxtpx:hr>126</gpxtpx:hr></gpxtpx:TrackPointExtension></extensions>
      </trkpt>
      <trkpt lat="59.506999313256" lon="17.866099645688">
        <ele>5.4</ele>
        <time>2018-12-15T11:13:52Z</time>
        <extensions><gpxtpx:TrackPointExtension><gpxtpx:hr>126</gpxtpx:hr></gpxtpx:TrackPointExtension></extensions>
      </trkpt>
      <trkpt lat="59.507015071228" lon="17.865756071607">
        <ele>4.8</ele>
        <time>2018-12-15T11:13:55Z</time>
        <extensions><gpxtpx:TrackPointExtension><gpxtpx:hr>127</gpxtpx:hr></gpxtpx:TrackPointExtension></extensions>
      </trkpt>
      <trkpt lat="59.507027141164" lon="17.865561443889">
        <ele>4.4</ele>
        <time>2018-12-15T11:13:57Z</time>
        <extensions><gpxtpx:TrackPointExtension><gpxtpx:hr>127</gpxtpx:hr></gpxtpx:TrackPointExtension></extensions>
      </trkpt>
      <trkpt lat="59.506893030764" lon="17.865189287529">
        <ele>4</ele>
        <time>2018-12-15T11:14:02Z</time>
        <extensions><gpxtpx:TrackPointExtension><gpxtpx:hr>129</gpxtpx:hr></gpxtpx:TrackPointExtension></extensions>
      </trkpt>
      <trkpt lat="59.506862185372" lon="17.865135894826">
        <ele>4</ele>
        <time>2018-12-15T11:14:03Z</time>
        <extensions><gpxtpx:TrackPointExtension><gpxtpx:hr>130</gpxtpx:hr></gpxtpx:TrackPointExtension></extensions>
      </trkpt>
      <trkpt lat="59.506788927566" lon="17.865076299517">
        <ele>3.8</ele>
        <time>2018-12-15T11:14:05Z</time>
        <extensions><gpxtpx:TrackPointExtension><gpxtpx:hr>133</gpxtpx:hr></gpxtpx:TrackPointExtension></extensions>
      </trkpt>
      <trkpt lat="59.506674346993" lon="17.864989127757">
        <ele>3.2</ele>
        <time>2018-12-15T11:14:08Z</time>
        <extensions><gpxtpx:TrackPointExtension><gpxtpx:hr>135</gpxtpx:hr></gpxtpx:TrackPointExtension></extensions>
      </trkpt>
      <trkpt lat="59.506466811149" lon="17.864828446734">
        <ele>2.8</ele>
        <time>2018-12-15T11:14:13Z</time>
        <extensions><gpxtpx:TrackPointExtension><gpxtpx:hr>134</gpxtpx:hr></gpxtpx:TrackPointExtension></extensions>
      </trkpt>
      <trkpt lat="59.506176881228" lon="17.865012848534">
        <ele>3</ele>
        <time>2018-12-15T11:14:21Z</time>
        <extensions><gpxtpx:TrackPointExtension><gpxtpx:hr>137</gpxtpx:hr></gpxtpx:TrackPointExtension></extensions>
      </trkpt>
      <trkpt lat="59.506144527094" lon="17.865063894305">
        <ele>3</ele>
        <time>2018-12-15T11:14:22Z</time>
        <extensions><gpxtpx:TrackPointExtension><gpxtpx:hr>137</gpxtpx:hr></gpxtpx:TrackPointExtension></extensions>
      </trkpt>
      <trkpt lat="59.505956353439" lon="17.865269837588">
        <ele>3.2</ele>
        <time>2018-12-15T11:14:26Z</time>
        <extensions><gpxtpx:TrackPointExtension><gpxtpx:hr>141</gpxtpx:hr></gpxtpx:TrackPointExtension></extensions>
      </trkpt>
      <trkpt lat="59.505916204138" lon="17.865313758744">
        <ele>3.2</ele>
        <time>2018-12-15T11:14:27Z</time>
        <extensions><gpxtpx:TrackPointExtension><gpxtpx:hr>141</gpxtpx:hr></gpxtpx:TrackPointExtension></extensions>
      </trkpt>
      <trkpt lat="59.505829116197" lon="17.865465387315">
        <ele>3.2</ele>
        <time>2018-12-15T11:14:29Z</time>
        <extensions><gpxtpx:TrackPointExtension><gpxtpx:hr>143</gpxtpx:hr></gpxtpx:TrackPointExtension></extensions>
      </trkpt>
      <trkpt lat="59.505623089095" lon="17.865766548982">
        <ele>3.2</ele>
        <time>2018-12-15T11:14:33Z</time>
        <extensions><gpxtpx:TrackPointExtension><gpxtpx:hr>146</gpxtpx:hr></gpxtpx:TrackPointExtension></extensions>
      </trkpt>
      <trkpt lat="59.505328632948" lon="17.866001242182">
        <ele>3</ele>
        <time>2018-12-15T11:14:38Z</time>
        <extensions><gpxtpx:TrackPointExtension><gpxtpx:hr>149</gpxtpx:hr></gpxtpx:TrackPointExtension></extensions>
      </trkpt>
      <trkpt lat="59.505126880615" lon="17.866157564617">
        <ele>3</ele>
        <time>2018-12-15T11:14:42Z</time>
        <extensions><gpxtpx:TrackPointExtension><gpxtpx:hr>152</gpxtpx:hr></gpxtpx:TrackPointExtension></extensions>
      </trkpt>
      <trkpt lat="59.504653303265" lon="17.866655868572">
        <ele>3</ele>
        <time>2018-12-15T11:14:51Z</time>
        <extensions><gpxtpx:TrackPointExtension><gpxtpx:hr>155</gpxtpx:hr></gpxtpx:TrackPointExtension></extensions>
      </trkpt>
      <trkpt lat="59.504356081091" lon="17.866777406122">
        <ele>3</ele>
        <time>2018-12-15T11:14:56Z</time>
        <extensions><gpxtpx:TrackPointExtension><gpxtpx:hr>154</gpxtpx:hr></gpxtpx:TrackPointExtension></extensions>
      </trkpt>
      <trkpt lat="59.504237728663" lon="17.866867595366">
        <ele>2.8</ele>
        <time>2018-12-15T11:14:58Z</time>
        <extensions><gpxtpx:TrackPointExtension><gpxtpx:hr>154</gpxtpx:hr></gpxtpx:TrackPointExtension></extensions>
      </trkpt>
      <trkpt lat="59.5039798176" lon="17.867009500933">
        <ele>2.6</ele>
        <time>2018-12-15T11:15:03Z</time>
        <extensions><gpxtpx:TrackPointExtension><gpxtpx:hr>156</gpxtpx:hr></gpxtpx:TrackPointExtension></extensions>
      </trkpt>
      <trkpt lat="59.503929610019" lon="17.867053673546">
        <ele>2.8</ele>
        <time>2018-12-15T11:15:04Z</time>
        <extensions><gpxtpx:TrackPointExtension><gpxtpx:hr>157</gpxtpx:hr></gpxtpx:TrackPointExtension></extensions>
      </trkpt>
      <trkpt lat="59.503832966712" lon="17.867119639099">
        <ele>3</ele>
        <time>2018-12-15T11:15:06Z</time>
        <extensions><gpxtpx:TrackPointExtension><gpxtpx:hr>159</gpxtpx:hr></gpxtpx:TrackPointExtension></extensions>
      </trkpt>
      <trkpt lat="59.503705058918" lon="17.867468829053">
        <ele>4.8</ele>
        <time>2018-12-15T11:15:10Z</time>
        <extensions><gpxtpx:TrackPointExtension><gpxtpx:hr>160</gpxtpx:hr></gpxtpx:TrackPointExtension></extensions>
      </trkpt>
      <trkpt lat="59.503671782775" lon="17.867571507328">
        <ele>5</ele>
        <time>2018-12-15T11:15:11Z</time>
        <extensions><gpxtpx:TrackPointExtension><gpxtpx:hr>160</gpxtpx:hr></gpxtpx:TrackPointExtension></extensions>
      </trkpt>
      <trkpt lat="59.503399454844" lon="17.867896389772">
        <ele>5</ele>
        <time>2018-12-15T11:15:16Z</time>
        <extensions><gpxtpx:TrackPointExtension><gpxtpx:hr>161</gpxtpx:hr></gpxtpx:TrackPointExtension></extensions>
      </trkpt>
      <trkpt lat="59.50329333999" lon="17.868027566507">
        <ele>5</ele>
        <time>2018-12-15T11:15:18Z</time>
        <extensions><gpxtpx:TrackPointExtension><gpxtpx:hr>161</gpxtpx:hr></gpxtpx:TrackPointExtension></extensions>
      </trkpt>
      <trkpt lat="59.503136011727" lon="17.868252201427">
        <ele>3.6</ele>
        <time>2018-12-15T11:15:21Z</time>
        <extensions><gpxtpx:TrackPointExtension><gpxtpx:hr>161</gpxtpx:hr></gpxtpx:TrackPointExtension></extensions>
      </trkpt>
      <trkpt lat="59.503038362592" lon="17.868387904388">
        <ele>3.4</ele>
        <time>2018-12-15T11:15:23Z</time>
        <extensions><gpxtpx:TrackPointExtension><gpxtpx:hr>162</gpxtpx:hr></gpxtpx:TrackPointExtension></extensions>
      </trkpt>
      <trkpt lat="59.502895115921" lon="17.868638607017">
        <ele>3</ele>
        <time>2018-12-15T11:15:26Z</time>
        <extensions><gpxtpx:TrackPointExtension><gpxtpx:hr>162</gpxtpx:hr></gpxtpx:TrackPointExtension></extensions>
      </trkpt>
      <trkpt lat="59.502614489909" lon="17.869022414218">
        <ele>3</ele>
        <time>2018-12-15T11:15:32Z</time>
        <extensions><gpxtpx:TrackPointExtension><gpxtpx:hr>160</gpxtpx:hr></gpxtpx:TrackPointExtension></extensions>
      </trkpt>
      <trkpt lat="59.502306455084" lon="17.869297508176">
        <ele>2.8</ele>
        <time>2018-12-15T11:15:38Z</time>
        <extensions><gpxtpx:TrackPointExtension><gpxtpx:hr>157</gpxtpx:hr></gpxtpx:TrackPointExtension></extensions>
      </trkpt>
      <trkpt lat="59.502254319666" lon="17.869306225352">
        <ele>3</ele>
        <time>2018-12-15T11:15:39Z</time>
        <extensions><gpxtpx:TrackPointExtension><gpxtpx:hr>157</gpxtpx:hr></gpxtpx:TrackPointExtension></extensions>
      </trkpt>
      <trkpt lat="59.502058183206" lon="17.86950001488">
        <ele>3</ele>
        <time>2018-12-15T11:15:43Z</time>
        <extensions><gpxtpx:TrackPointExtension><gpxtpx:hr>156</gpxtpx:hr></gpxtpx:TrackPointExtension></extensions>
      </trkpt>
      <trkpt lat="59.50187512251" lon="17.869660612084">
        <ele>3</ele>
        <time>2018-12-15T11:15:46Z</time>
        <extensions><gpxtpx:TrackPointExtension><gpxtpx:hr>157</gpxtpx:hr></gpxtpx:TrackPointExtension></extensions>
      </trkpt>
      <trkpt lat="59.501754758426" lon="17.869784580385">
        <ele>3</ele>
        <time>2018-12-15T11:15:48Z</time>
        <extensions><gpxtpx:TrackPointExtension><gpxtpx:hr>157</gpxtpx:hr></gpxtpx:TrackPointExtension></extensions>
      </trkpt>
      <trkpt lat="59.501205660157" lon="17.869717609004">
        <ele>3</ele>
        <time>2018-12-15T11:15:57Z</time>
        <extensions><gpxtpx:TrackPointExtension><gpxtpx:hr>158</gpxtpx:hr></gpxtpx:TrackPointExtension></extensions>
      </trkpt>
      <trkpt lat="59.501147489771" lon="17.869678297893">
        <ele>2.8</ele>
        <time>2018-12-15T11:15:58Z</time>
        <extensions><gpxtpx:TrackPointExtension><gpxtpx:hr>158</gpxtpx:hr></gpxtpx:TrackPointExtension></extensions>
      </trkpt>
      <trkpt lat="59.500825205716" lon="17.869605962096">
        <ele>2.8</ele>
        <time>2018-12-15T11:16:03Z</time>
        <extensions><gpxtpx:TrackPointExtension><gpxtpx:hr>159</gpxtpx:hr></gpxtpx:TrackPointExtension></extensions>
      </trkpt>
      <trkpt lat="59.500711379514" lon="17.869545696235">
        <ele>2.8</ele>
        <time>2018-12-15T11:16:05Z</time>
        <extensions><gpxtpx:TrackPointExtension><gpxtpx:hr>159</gpxtpx:hr></gpxtpx:TrackPointExtension></extensions>
      </trkpt>
      <trkpt lat="59.500279711664" lon="17.869143448854">
        <ele>2.8</ele>
        <time>2018-12-15T11:16:13Z</time>
        <extensions><gpxtpx:TrackPointExtension><gpxtpx:hr>161</gpxtpx:hr></gpxtpx:TrackPointExtension></extensions>
      </trkpt>
      <trkpt lat="59.500112492759" lon="17.869050996497">
        <ele>2.8</ele>
        <time>2018-12-15T11:16:16Z</time>
        <extensions><gpxtpx:TrackPointExtension><gpxtpx:hr>161</gpxtpx:hr></gpxtpx:TrackPointExtension></extensions>
      </trkpt>
      <trkpt lat="59.499770259782" lon="17.868833570011">
        <ele>2.8</ele>
        <time>2018-12-15T11:16:22Z</time>
        <extensions><gpxtpx:TrackPointExtension><gpxtpx:hr>161</gpxtpx:hr></gpxtpx:TrackPointExtension></extensions>
      </trkpt>
      <trkpt lat="59.49945862074" lon="17.86843718996">
        <ele>2.8</ele>
        <time>2018-12-15T11:16:28Z</time>
        <extensions><gpxtpx:TrackPointExtension><gpxtpx:hr>161</gpxtpx:hr></gpxtpx:TrackPointExtension></extensions>
      </trkpt>
      <trkpt lat="59.499386284943" lon="17.86806251903">
        <ele>3.2</ele>
        <time>2018-12-15T11:16:32Z</time>
        <extensions><gpxtpx:TrackPointExtension><gpxtpx:hr>162</gpxtpx:hr></gpxtpx:TrackPointExtension></extensions>
      </trkpt>
      <trkpt lat="59.499332556964" lon="17.867564382713">
        <ele>4.8</ele>
        <time>2018-12-15T11:16:38Z</time>
        <extensions><gpxtpx:TrackPointExtension><gpxtpx:hr>163</gpxtpx:hr></gpxtpx:TrackPointExtension></extensions>
      </trkpt>
      <trkpt lat="59.499272458741" lon="17.867365061131">
        <ele>6</ele>
        <time>2018-12-15T11:16:41Z</time>
        <extensions><gpxtpx:TrackPointExtension><gpxtpx:hr>164</gpxtpx:hr></gpxtpx:TrackPointExtension></extensions>
      </trkpt>
      <trkpt lat="59.499210265043" lon="17.86724779835">
        <ele>7.2</ele>
        <time>2018-12-15T11:16:43Z</time>
        <extensions><gpxtpx:TrackPointExtension><gpxtpx:hr>165</gpxtpx:hr></gpxtpx:TrackPointExtension></extensions>
      </trkpt>
      <trkpt lat="59.499080429412" lon="17.86712709899">
        <ele>8.6</ele>
        <time>2018-12-15T11:16:46Z</time>
        <extensions><gpxtpx:TrackPointExtension><gpxtpx:hr>166</gpxtpx:hr></gpxtpx:TrackPointExtension></extensions>
      </trkpt>
      <trkpt lat="59.498639792929" lon="17.866885616451">
        <ele>9.4</ele>
        <time>2018-12-15T11:16:55Z</time>
        <extensions><gpxtpx:TrackPointExtension><gpxtpx:hr>167</gpxtpx:hr></gpxtpx:TrackPointExtension></extensions>
      </trkpt>
      <trkpt lat="59.498081223113" lon="17.866585376793">
        <ele>9.8</ele>
        <time>2018-12-15T11:17:06Z</time>
        <extensions><gpxtpx:TrackPointExtension><gpxtpx:hr>168</gpxtpx:hr></gpxtpx:TrackPointExtension></extensions>
      </trkpt>
      <trkpt lat="59.497985837091" lon="17.866510945521">
        <ele>10.4</ele>
        <time>2018-12-15T11:17:08Z</time>
        <extensions><gpxtpx:TrackPointExtension><gpxtpx:hr>169</gpxtpx:hr></gpxtpx:TrackPointExtension></extensions>
      </trkpt>
      <trkpt lat="59.497764471112" lon="17.866284298945">
        <ele>11.6</ele>
        <time>2018-12-15T11:17:17Z</time>
        <extensions><gpxtpx:TrackPointExtension><gpxtpx:hr>169</gpxtpx:hr></gpxtpx:TrackPointExtension></extensions>
      </trkpt>
      <trkpt lat="59.497665480873" lon="17.866172065304">
        <ele>12.8</ele>
        <time>2018-12-15T11:17:20Z</time>
        <extensions><gpxtpx:TrackPointExtension><gpxtpx:hr>169</gpxtpx:hr></gpxtpx:TrackPointExtension></extensions>
      </trkpt>
      <trkpt lat="59.497626924133" lon="17.866135352582">
        <ele>13</ele>
        <time>2018-12-15T11:17:21Z</time>
        <extensions><gpxtpx:TrackPointExtension><gpxtpx:hr>169</gpxtpx:hr></gpxtpx:TrackPointExtension></extensions>
      </trkpt>
      <trkpt lat="59.497441432686" lon="17.865891187835">
        <ele>13.8</ele>
        <time>2018-12-15T11:17:26Z</time>
        <extensions><gpxtpx:TrackPointExtension><gpxtpx:hr>168</gpxtpx:hr></gpxtpx:TrackPointExtension></extensions>
      </trkpt>
      <trkpt lat="59.497409832923" lon="17.865832263078">
        <ele>14</ele>
        <time>2018-12-15T11:17:27Z</time>
        <extensions><gpxtpx:TrackPointExtension><gpxtpx:hr>169</gpxtpx:hr></gpxtpx:TrackPointExtension></extensions>
      </trkpt>
      <trkpt lat="59.49723071172" lon="17.865560018966">
        <ele>15.6</ele>
        <time>2018-12-15T11:17:33Z</time>
        <extensions><gpxtpx:TrackPointExtension><gpxtpx:hr>171</gpxtpx:hr></gpxtpx:TrackPointExtension></extensions>
      </trkpt>
      <trkpt lat="59.497172541334" lon="17.865505452797">
        <ele>16.8</ele>
        <time>2018-12-15T11:17:35Z</time>
        <extensions><gpxtpx:TrackPointExtension><gpxtpx:hr>171</gpxtpx:hr></gpxtpx:TrackPointExtension></extensions>
      </trkpt>
      <trkpt lat="59.497140019562" lon="17.865500926571">
        <ele>17.6</ele>
        <time>2018-12-15T11:17:36Z</time>
        <extensions><gpxtpx:TrackPointExtension><gpxtpx:hr>172</gpxtpx:hr></gpxtpx:TrackPointExtension></extensions>
      </trkpt>
      <trkpt lat="59.497105569953" lon="17.865510481937">
        <ele>18</ele>
        <time>2018-12-15T11:17:37Z</time>
        <extensions><gpxtpx:TrackPointExtension><gpxtpx:hr>172</gpxtpx:hr></gpxtpx:TrackPointExtension></extensions>
      </trkpt>
      <trkpt lat="59.497030049034" lon="17.865533448343">
        <ele>19.4</ele>
        <time>2018-12-15T11:17:39Z</time>
        <extensions><gpxtpx:TrackPointExtension><gpxtpx:hr>172</gpxtpx:hr></gpxtpx:TrackPointExtension></extensions>
      </trkpt>
      <trkpt lat="59.496907924751" lon="17.865525820814">
        <ele>20.8</ele>
        <time>2018-12-15T11:17:42Z</time>
        <extensions><gpxtpx:TrackPointExtension><gpxtpx:hr>173</gpxtpx:hr></gpxtpx:TrackPointExtension></extensions>
      </trkpt>
      <trkpt lat="59.496618413925" lon="17.865417442847">
        <ele>21.8</ele>
        <time>2018-12-15T11:17:49Z</time>
        <extensions><gpxtpx:TrackPointExtension><gpxtpx:hr>173</gpxtpx:hr></gpxtpx:TrackPointExtension></extensions>
      </trkpt>
      <trkpt lat="59.496465360431" lon="17.865511403946">
        <ele>22.6</ele>
        <time>2018-12-15T11:17:53Z</time>
        <extensions><gpxtpx:TrackPointExtension><gpxtpx:hr>174</gpxtpx:hr></gpxtpx:TrackPointExtension></extensions>
      </trkpt>
      <trkpt lat="59.496425630225" lon="17.865537639293">
        <ele>22.8</ele>
        <time>2018-12-15T11:17:54Z</time>
        <extensions><gpxtpx:TrackPointExtension><gpxtpx:hr>174</gpxtpx:hr></gpxtpx:TrackPointExtension></extensions>
      </trkpt>
      <trkpt lat="59.496310462919" lon="17.86562841527">
        <ele>23</ele>
        <time>2018-12-15T11:17:57Z</time>
        <extensions><gpxtpx:TrackPointExtension><gpxtpx:hr>173</gpxtpx:hr></gpxtpx:TrackPointExtension></extensions>
      </trkpt>
      <trkpt lat="59.496205772988" lon="17.86615563678">
        <ele>23.2</ele>
        <time>2018-12-15T11:18:02Z</time>
        <extensions><gpxtpx:TrackPointExtension><gpxtpx:hr>170</gpxtpx:hr></gpxtpx:TrackPointExtension></extensions>
      </trkpt>
      <trkpt lat="59.496176184881" lon="17.866641451704">
        <ele>22.6</ele>
        <time>2018-12-15T11:18:06Z</time>
        <extensions><gpxtpx:TrackPointExtension><gpxtpx:hr>167</gpxtpx:hr></gpxtpx:TrackPointExtension></extensions>
      </trkpt>
      <trkpt lat="59.496156655054" lon="17.866752511879">
        <ele>22</ele>
        <time>2018-12-15T11:18:07Z</time>
        <extensions><gpxtpx:TrackPointExtension><gpxtpx:hr>167</gpxtpx:hr></gpxtpx:TrackPointExtension></extensions>
      </trkpt>
      <trkpt lat="59.496112901536" lon="17.866836498517">
        <ele>21.6</ele>
        <time>2018-12-15T11:18:08Z</time>
        <extensions><gpxtpx:TrackPointExtension><gpxtpx:hr>166</gpxtpx:hr></gpxtpx:TrackPointExtension></extensions>
      </trkpt>
      <trkpt lat="59.495989100873" lon="17.866890142677">
        <ele>20.2</ele>
        <time>2018-12-15T11:18:10Z</time>
        <extensions><gpxtpx:TrackPointExtension><gpxtpx:hr>164</gpxtpx:hr></gpxtpx:TrackPointExtension></extensions>
      </trkpt>
      <trkpt lat="59.49591894437" lon="17.866888717754">
        <ele>19.6</ele>
        <time>2018-12-15T11:18:11Z</time>
        <extensions><gpxtpx:TrackPointExtension><gpxtpx:hr>163</gpxtpx:hr></gpxtpx:TrackPointExtension></extensions>
      </trkpt>
      <trkpt lat="59.495849290781" lon="17.866868433556">
        <ele>19.2</ele>
        <time>2018-12-15T11:18:12Z</time>
        <extensions><gpxtpx:TrackPointExtension><gpxtpx:hr>163</gpxtpx:hr></gpxtpx:TrackPointExtension></extensions>
      </trkpt>
      <trkpt lat="59.495783241409" lon="17.866813867387">
        <ele>19</ele>
        <time>2018-12-15T11:18:13Z</time>
        <extensions><gpxtpx:TrackPointExtension><gpxtpx:hr>162</gpxtpx:hr></gpxtpx:TrackPointExtension></extensions>
      </trkpt>
      <trkpt lat="59.495642174032" lon="17.866561572197">
        <ele>18.6</ele>
        <time>2018-12-15T11:18:16Z</time>
        <extensions><gpxtpx:TrackPointExtension><gpxtpx:hr>161</gpxtpx:hr></gpxtpx:TrackPointExtension></extensions>
      </trkpt>
      <trkpt lat="59.495466489408" lon="17.866286142963">
        <ele>18.6</ele>
        <time>2018-12-15T11:18:20Z</time>
        <extensions><gpxtpx:TrackPointExtension><gpxtpx:hr>161</gpxtpx:hr></gpxtpx:TrackPointExtension></extensions>
      </trkpt>
      <trkpt lat="59.49518636631" lon="17.866170891838">
        <ele>18.8</ele>
        <time>2018-12-15T11:18:25Z</time>
        <extensions><gpxtpx:TrackPointExtension><gpxtpx:hr>162</gpxtpx:hr></gpxtpx:TrackPointExtension></extensions>
      </trkpt>
      <trkpt lat="59.495030798246" lon="17.866176423892">
        <ele>19.6</ele>
        <time>2018-12-15T11:18:28Z</time>
        <extensions><gpxtpx:TrackPointExtension><gpxtpx:hr>160</gpxtpx:hr></gpxtpx:TrackPointExtension></extensions>
      </trkpt>
      <trkpt lat="59.494880259322" lon="17.86619084076">
        <ele>20</ele>
        <time>2018-12-15T11:18:31Z</time>
        <extensions><gpxtpx:TrackPointExtension><gpxtpx:hr>161</gpxtpx:hr></gpxtpx:TrackPointExtension></extensions>
      </trkpt>
      <trkpt lat="59.49483013556" lon="17.866203078334">
        <ele>20.2</ele>
        <time>2018-12-15T11:18:32Z</time>
        <extensions><gpxtpx:TrackPointExtension><gpxtpx:hr>161</gpxtpx:hr></gpxtpx:TrackPointExtension></extensions>
      </trkpt>
      <trkpt lat="59.494775737029" lon="17.866233001717">
        <ele>20.2</ele>
        <time>2018-12-15T11:18:33Z</time>
        <extensions><gpxtpx:TrackPointExtension><gpxtpx:hr>161</gpxtpx:hr></gpxtpx:TrackPointExtension></extensions>
      </trkpt>
      <trkpt lat="59.494617822033" lon="17.866354539267">
        <ele>21.2</ele>
        <time>2018-12-15T11:18:36Z</time>
        <extensions><gpxtpx:TrackPointExtension><gpxtpx:hr>162</gpxtpx:hr></gpxtpx:TrackPointExtension></extensions>
      </trkpt>
      <trkpt lat="59.494423697229" lon="17.866779753054">
        <ele>22</ele>
        <time>2018-12-15T11:18:42Z</time>
        <extensions><gpxtpx:TrackPointExtension><gpxtpx:hr>162</gpxtpx:hr></gpxtpx:TrackPointExtension></extensions>
      </trkpt>
      <trkpt lat="59.494380949539" lon="17.866960802094">
        <ele>22.4</ele>
        <time>2018-12-15T11:18:44Z</time>
        <extensions><gpxtpx:TrackPointExtension><gpxtpx:hr>162</gpxtpx:hr></gpxtpx:TrackPointExtension></extensions>
      </trkpt>
      <trkpt lat="59.49434566174" lon="17.867134223605">
        <ele>22.8</ele>
        <time>2018-12-15T11:18:46Z</time>
        <extensions><gpxtpx:TrackPointExtension><gpxtpx:hr>161</gpxtpx:hr></gpxtpx:TrackPointExtension></extensions>
      </trkpt>
      <trkpt lat="59.494304422792" lon="17.867394146324">
        <ele>23.4</ele>
        <time>2018-12-15T11:18:49Z</time>
        <extensions><gpxtpx:TrackPointExtension><gpxtpx:hr>161</gpxtpx:hr></gpxtpx:TrackPointExtension></extensions>
      </trkpt>
      <trkpt lat="59.494256645962" lon="17.868062435211">
        <ele>24.4</ele>
        <time>2018-12-15T11:18:56Z</time>
        <extensions><gpxtpx:TrackPointExtension><gpxtpx:hr>160</gpxtpx:hr></gpxtpx:TrackPointExtension></extensions>
      </trkpt>
      <trkpt lat="59.494247258234" lon="17.868155809577">
        <ele>24.6</ele>
        <time>2018-12-15T11:18:57Z</time>
        <extensions><gpxtpx:TrackPointExtension><gpxtpx:hr>160</gpxtpx:hr></gpxtpx:TrackPointExtension></extensions>
      </trkpt>
      <trkpt lat="59.494233931013" lon="17.868339037911">
        <ele>25.6</ele>
        <time>2018-12-15T11:18:59Z</time>
        <extensions><gpxtpx:TrackPointExtension><gpxtpx:hr>160</gpxtpx:hr></gpxtpx:TrackPointExtension></extensions>
      </trkpt>
      <trkpt lat="59.494225884389" lon="17.868439117797">
        <ele>25.8</ele>
        <time>2018-12-15T11:19:00Z</time>
        <extensions><gpxtpx:TrackPointExtension><gpxtpx:hr>160</gpxtpx:hr></gpxtpx:TrackPointExtension></extensions>
      </trkpt>
      <trkpt lat="59.494189674581" lon="17.868854189485">
        <ele>26.8</ele>
        <time>2018-12-15T11:19:04Z</time>
        <extensions><gpxtpx:TrackPointExtension><gpxtpx:hr>160</gpxtpx:hr></gpxtpx:TrackPointExtension></extensions>
      </trkpt>
      <trkpt lat="59.49418221469" lon="17.868956113389">
        <ele>27</ele>
        <time>2018-12-15T11:19:05Z</time>
        <extensions><gpxtpx:TrackPointExtension><gpxtpx:hr>160</gpxtpx:hr></gpxtpx:TrackPointExtension></extensions>
      </trkpt>
      <trkpt lat="59.494137120068" lon="17.869242942007">
        <ele>27.2</ele>
        <time>2018-12-15T11:19:08Z</time>
        <extensions><gpxtpx:TrackPointExtension><gpxtpx:hr>160</gpxtpx:hr></gpxtpx:TrackPointExtension></extensions>
      </trkpt>
      <trkpt lat="59.493971074629" lon="17.870339462165">
        <ele>27.8</ele>
        <time>2018-12-15T11:19:19Z</time>
        <extensions><gpxtpx:TrackPointExtension><gpxtpx:hr>157</gpxtpx:hr></gpxtpx:TrackPointExtension></extensions>
      </trkpt>
      <trkpt lat="59.493926902016" lon="17.87065084975">
        <ele>27.8</ele>
        <time>2018-12-15T11:19:22Z</time>
        <extensions><gpxtpx:TrackPointExtension><gpxtpx:hr>157</gpxtpx:hr></gpxtpx:TrackPointExtension></extensions>
      </trkpt>
      <trkpt lat="59.49385280602" lon="17.871097353563">
        <ele>29</ele>
        <time>2018-12-15T11:19:27Z</time>
        <extensions><gpxtpx:TrackPointExtension><gpxtpx:hr>156</gpxtpx:hr></gpxtpx:TrackPointExtension></extensions>
      </trkpt>
      <trkpt lat="59.493805196828" lon="17.871481160764">
        <ele>30</ele>
        <time>2018-12-15T11:19:32Z</time>
        <extensions><gpxtpx:TrackPointExtension><gpxtpx:hr>154</gpxtpx:hr></gpxtpx:TrackPointExtension></extensions>
      </trkpt>
      <trkpt lat="59.493780470223" lon="17.87175223141">
        <ele>30.6</ele>
        <time>2018-12-15T11:19:35Z</time>
        <extensions><gpxtpx:TrackPointExtension><gpxtpx:hr>151</gpxtpx:hr></gpxtpx:TrackPointExtension></extensions>
      </trkpt>
      <trkpt lat="59.493772172142" lon="17.871954486657">
        <ele>30.6</ele>
        <time>2018-12-15T11:19:37Z</time>
        <extensions><gpxtpx:TrackPointExtension><gpxtpx:hr>149</gpxtpx:hr></gpxtpx:TrackPointExtension></extensions>
      </trkpt>
      <trkpt lat="59.493802179344" lon="17.872355560572">
        <ele>30.8</ele>
        <time>2018-12-15T11:19:41Z</time>
        <extensions><gpxtpx:TrackPointExtension><gpxtpx:hr>146</gpxtpx:hr></gpxtpx:TrackPointExtension></extensions>
      </trkpt>
      <trkpt lat="59.49382179299" lon="17.872538369811">
        <ele>30.8</ele>
        <time>2018-12-15T11:19:43Z</time>
        <extensions><gpxtpx:TrackPointExtension><gpxtpx:hr>144</gpxtpx:hr></gpxtpx:TrackPointExtension></extensions>
      </trkpt>
      <trkpt lat="59.493827744139" lon="17.872731404968">
        <ele>30.8</ele>
        <time>2018-12-15T11:19:45Z</time>
        <extensions><gpxtpx:TrackPointExtension><gpxtpx:hr>142</gpxtpx:hr></gpxtpx:TrackPointExtension></extensions>
      </trkpt>
      <trkpt lat="59.493790025589" lon="17.873036254671">
        <ele>30.8</ele>
        <time>2018-12-15T11:19:48Z</time>
        <extensions><gpxtpx:TrackPointExtension><gpxtpx:hr>139</gpxtpx:hr></gpxtpx:TrackPointExtension></extensions>
      </trkpt>
      <trkpt lat="59.493679216871" lon="17.873249741664">
        <ele>30.8</ele>
        <time>2018-12-15T11:19:51Z</time>
        <extensions><gpxtpx:TrackPointExtension><gpxtpx:hr>136</gpxtpx:hr></gpxtpx:TrackPointExtension></extensions>
      </trkpt>
      <trkpt lat="59.493271772712" lon="17.873190649269">
        <ele>30.8</ele>
        <time>2018-12-15T11:19:58Z</time>
        <extensions><gpxtpx:TrackPointExtension><gpxtpx:hr>133</gpxtpx:hr></gpxtpx:TrackPointExtension></extensions>
      </trkpt>
      <trkpt lat="59.492904729311" lon="17.873650228846">
        <ele>30.4</ele>
        <time>2018-12-15T11:20:03Z</time>
        <extensions><gpxtpx:TrackPointExtension><gpxtpx:hr>133</gpxtpx:hr></gpxtpx:TrackPointExtension></extensions>
      </trkpt>
      <trkpt lat="59.492738516234" lon="17.873911241212">
        <ele>29.6</ele>
        <time>2018-12-15T11:20:05Z</time>
        <extensions><gpxtpx:TrackPointExtension><gpxtpx:hr>131</gpxtpx:hr></gpxtpx:TrackPointExtension></extensions>
      </trkpt>
      <trkpt lat="59.49264413604" lon="17.874028001079">
        <ele>29</ele>
        <time>2018-12-15T11:20:06Z</time>
        <extensions><gpxtpx:TrackPointExtension><gpxtpx:hr>131</gpxtpx:hr></gpxtpx:TrackPointExtension></extensions>
      </trkpt>
      <trkpt lat="59.492547576552" lon="17.874127829508">
        <ele>27.8</ele>
        <time>2018-12-15T11:20:07Z</time>
        <extensions><gpxtpx:TrackPointExtension><gpxtpx:hr>130</gpxtpx:hr></gpxtpx:TrackPointExtension></extensions>
      </trkpt>
      <trkpt lat="59.492450597969" lon="17.874213492526">
        <ele>26.6</ele>
        <time>2018-12-15T11:20:08Z</time>
        <extensions><gpxtpx:TrackPointExtension><gpxtpx:hr>129</gpxtpx:hr></gpxtpx:TrackPointExtension></extensions>
      </trkpt>
      <trkpt lat="59.49235579868" lon="17.874289013445">
        <ele>25</ele>
        <time>2018-12-15T11:20:09Z</time>
        <extensions><gpxtpx:TrackPointExtension><gpxtpx:hr>129</gpxtpx:hr></gpxtpx:TrackPointExtension></extensions>
      </trkpt>
      <trkpt lat="59.492265609436" lon="17.874360427233">
        <ele>23.8</ele>
        <time>2018-12-15T11:20:10Z</time>
        <extensions><gpxtpx:TrackPointExtension><gpxtpx:hr>129</gpxtpx:hr></gpxtpx:TrackPointExtension></extensions>
      </trkpt>
      <trkpt lat="59.492189753241" lon="17.874441396387">
        <ele>22.8</ele>
        <time>2018-12-15T11:20:11Z</time>
        <extensions><gpxtpx:TrackPointExtension><gpxtpx:hr>128</gpxtpx:hr></gpxtpx:TrackPointExtension></extensions>
      </trkpt>
      <trkpt lat="59.492138456013" lon="17.874557904797">
        <ele>21.8</ele>
        <time>2018-12-15T11:20:12Z</time>
        <extensions><gpxtpx:TrackPointExtension><gpxtpx:hr>127</gpxtpx:hr></gpxtpx:TrackPointExtension></extensions>
      </trkpt>
      <trkpt lat="59.492108113535" lon="17.874716155069">
        <ele>20.2</ele>
        <time>2018-12-15T11:20:13Z</time>
        <extensions><gpxtpx:TrackPointExtension><gpxtpx:hr>127</gpxtpx:hr></gpxtpx:TrackPointExtension></extensions>
      </trkpt>
      <trkpt lat="59.492085650043" lon="17.874897874661">
        <ele>18.4</ele>
        <time>2018-12-15T11:20:14Z</time>
        <extensions><gpxtpx:TrackPointExtension><gpxtpx:hr>129</gpxtpx:hr></gpxtpx:TrackPointExtension></extensions>
      </trkpt>
      <trkpt lat="59.492064862931" lon="17.875097196243">
        <ele>17</ele>
        <time>2018-12-15T11:20:15Z</time>
        <extensions><gpxtpx:TrackPointExtension><gpxtpx:hr>132</gpxtpx:hr></gpxtpx:TrackPointExtension></extensions>
      </trkpt>
      <trkpt lat="59.492025803277" lon="17.875522242392">
        <ele>15.4</ele>
        <time>2018-12-15T11:20:17Z</time>
        <extensions><gpxtpx:TrackPointExtension><gpxtpx:hr>136</gpxtpx:hr></gpxtpx:TrackPointExtension></extensions>
      </trkpt>
      <trkpt lat="59.491989761107" lon="17.875954580794">
        <ele>14.6</ele>
        <time>2018-12-15T11:20:19Z</time>
        <extensions><gpxtpx:TrackPointExtension><gpxtpx:hr>139</gpxtpx:hr></gpxtpx:TrackPointExtension></extensions>
      </trkpt>
      <trkpt lat="59.491970818013" lon="17.876161949">
        <ele>14.4</ele>
        <time>2018-12-15T11:20:20Z</time>
        <extensions><gpxtpx:TrackPointExtension><gpxtpx:hr>140</gpxtpx:hr></gpxtpx:TrackPointExtension></extensions>
      </trkpt>
      <trkpt lat="59.491910300695" lon="17.876763853239">
        <ele>12.8</ele>
        <time>2018-12-15T11:20:23Z</time>
        <extensions><gpxtpx:TrackPointExtension><gpxtpx:hr>143</gpxtpx:hr></gpxtpx:TrackPointExtension></extensions>
      </trkpt>
      <trkpt lat="59.491889094488" lon="17.876953870912">
        <ele>10.6</ele>
        <time>2018-12-15T11:20:24Z</time>
        <extensions><gpxtpx:TrackPointExtension><gpxtpx:hr>143</gpxtpx:hr></gpxtpx:TrackPointExtension></extensions>
      </trkpt>
      <trkpt lat="59.491858668191" lon="17.877126957147">
        <ele>10</ele>
        <time>2018-12-15T11:20:25Z</time>
        <extensions><gpxtpx:TrackPointExtension><gpxtpx:hr>144</gpxtpx:hr></gpxtpx:TrackPointExtension></extensions>
      </trkpt>
      <trkpt lat="59.49177241844" lon="17.87742510133">
        <ele>9.4</ele>
        <time>2018-12-15T11:20:27Z</time>
        <extensions><gpxtpx:TrackPointExtension><gpxtpx:hr>144</gpxtpx:hr></gpxtpx:TrackPointExtension></extensions>
      </trkpt>
      <trkpt lat="59.491685833413" lon="17.87771427688">
        <ele>9.2</ele>
        <time>2018-12-15T11:20:29Z</time>
        <extensions><gpxtpx:TrackPointExtension><gpxtpx:hr>143</gpxtpx:hr></gpxtpx:TrackPointExtension></extensions>
      </trkpt>
      <trkpt lat="59.491484500175" lon="17.878773329945">
        <ele>8.4</ele>
        <time>2018-12-15T11:20:36Z</time>
        <extensions><gpxtpx:TrackPointExtension><gpxtpx:hr>139</gpxtpx:hr></gpxtpx:TrackPointExtension></extensions>
      </trkpt>
      <trkpt lat="59.491447116901" lon="17.878867039587">
        <ele>8.4</ele>
        <time>2018-12-15T11:20:37Z</time>
        <extensions><gpxtpx:TrackPointExtension><gpxtpx:hr>137</gpxtpx:hr></gpxtpx:TrackPointExtension></extensions>
      </trkpt>
      <trkpt lat="59.491155929695" lon="17.878980111418">
        <ele>7</ele>
        <time>2018-12-15T11:20:42Z</time>
        <extensions><gpxtpx:TrackPointExtension><gpxtpx:hr>137</gpxtpx:hr></gpxtpx:TrackPointExtension></extensions>
      </trkpt>
      <trkpt lat="59.490708671511" lon="17.878989666784">
        <ele>6.4</ele>
        <time>2018-12-15T11:20:48Z</time>
        <extensions><gpxtpx:TrackPointExtension><gpxtpx:hr>140</gpxtpx:hr></gpxtpx:TrackPointExtension></extensions>
      </trkpt>
      <trkpt lat="59.490412371346" lon="17.878983128902">
        <ele>6.2</ele>
        <time>2018-12-15T11:20:52Z</time>
        <extensions><gpxtpx:TrackPointExtension><gpxtpx:hr>143</gpxtpx:hr></gpxtpx:TrackPointExtension></extensions>
      </trkpt>
      <trkpt lat="59.490115065353" lon="17.878980446694">
        <ele>6</ele>
        <time>2018-12-15T11:20:56Z</time>
        <extensions><gpxtpx:TrackPointExtension><gpxtpx:hr>145</gpxtpx:hr></gpxtpx:TrackPointExtension></extensions>
      </trkpt>
      <trkpt lat="59.489599075589" lon="17.878983631816">
        <ele>6</ele>
        <time>2018-12-15T11:21:03Z</time>
        <extensions><gpxtpx:TrackPointExtension><gpxtpx:hr>148</gpxtpx:hr></gpxtpx:TrackPointExtension></extensions>
      </trkpt>
      <trkpt lat="59.489125498239" lon="17.878942141411">
        <ele>6.2</ele>
        <time>2018-12-15T11:21:09Z</time>
        <extensions><gpxtpx:TrackPointExtension><gpxtpx:hr>151</gpxtpx:hr></gpxtpx:TrackPointExtension></extensions>
      </trkpt>
      <trkpt lat="59.488852583575" lon="17.87895060713">
        <ele>6.8</ele>
        <time>2018-12-15T11:21:12Z</time>
        <extensions><gpxtpx:TrackPointExtension><gpxtpx:hr>154</gpxtpx:hr></gpxtpx:TrackPointExtension></extensions>
      </trkpt>
      <trkpt lat="59.488680251711" lon="17.878955552451">
        <ele>7</ele>
        <time>2018-12-15T11:21:14Z</time>
        <extensions><gpxtpx:TrackPointExtension><gpxtpx:hr>156</gpxtpx:hr></gpxtpx:TrackPointExtension></extensions>
      </trkpt>
      <trkpt lat="59.488423262657" lon="17.878963682894">
        <ele>7.6</ele>
        <time>2018-12-15T11:21:17Z</time>
        <extensions><gpxtpx:TrackPointExtension><gpxtpx:hr>159</gpxtpx:hr></gpxtpx:TrackPointExtension></extensions>
      </trkpt>
      <trkpt lat="59.488171805657" lon="17.878967957663">
        <ele>8.4</ele>
        <time>2018-12-15T11:21:20Z</time>
        <extensions><gpxtpx:TrackPointExtension><gpxtpx:hr>162</gpxtpx:hr></gpxtpx:TrackPointExtension></extensions>
      </trkpt>
      <trkpt lat="59.487754051761" lon="17.878962760885">
        <ele>9.2</ele>
        <time>2018-12-15T11:21:25Z</time>
        <extensions><gpxtpx:TrackPointExtension><gpxtpx:hr>165</gpxtpx:hr></gpxtpx:TrackPointExtension></extensions>
      </trkpt>
      <trkpt lat="59.48767115477" lon="17.878967203292">
        <ele>9.4</ele>
        <time>2018-12-15T11:21:26Z</time>
        <extensions><gpxtpx:TrackPointExtension><gpxtpx:hr>165</gpxtpx:hr></gpxtpx:TrackPointExtension></extensions>
      </trkpt>
      <trkpt lat="59.487257508005" lon="17.878929568561">
        <ele>10.8</ele>
        <time>2018-12-15T11:21:32Z</time>
        <extensions><gpxtpx:TrackPointExtension><gpxtpx:hr>165</gpxtpx:hr></gpxtpx:TrackPointExtension></extensions>
      </trkpt>
      <trkpt lat="59.486939666357" lon="17.878827979933">
        <ele>12</ele>
        <time>2018-12-15T11:21:37Z</time>
        <extensions><gpxtpx:TrackPointExtension><gpxtpx:hr>165</gpxtpx:hr></gpxtpx:TrackPointExtension></extensions>
      </trkpt>
      <trkpt lat="59.486833216227" lon="17.878739131793">
        <ele>13.2</ele>
        <time>2018-12-15T11:21:39Z</time>
        <extensions><gpxtpx:TrackPointExtension><gpxtpx:hr>164</gpxtpx:hr></gpxtpx:TrackPointExtension></extensions>
      </trkpt>
      <trkpt lat="59.486702290949" lon="17.878553807984">
        <ele>14.4</ele>
        <time>2018-12-15T11:21:42Z</time>
        <extensions><gpxtpx:TrackPointExtension><gpxtpx:hr>163</gpxtpx:hr></gpxtpx:TrackPointExtension></extensions>
      </trkpt>
      <trkpt lat="59.486355280289" lon="17.878095569511">
        <ele>15.6</ele>
        <time>2018-12-15T11:21:50Z</time>
        <extensions><gpxtpx:TrackPointExtension><gpxtpx:hr>162</gpxtpx:hr></gpxtpx:TrackPointExtension></extensions>
      </trkpt>
      <trkpt lat="59.485853623574" lon="17.877643701282">
        <ele>15.6</ele>
        <time>2018-12-15T11:21:59Z</time>
        <extensions><gpxtpx:TrackPointExtension><gpxtpx:hr>160</gpxtpx:hr></gpxtpx:TrackPointExtension></extensions>
      </trkpt>
      <trkpt lat="59.485527483845" lon="17.877346395289">
        <ele>15.6</ele>
        <time>2018-12-15T11:22:05Z</time>
        <extensions><gpxtpx:TrackPointExtension><gpxtpx:hr>157</gpxtpx:hr></gpxtpx:TrackPointExtension></extensions>
      </trkpt>
      <trkpt lat="59.485317936345" lon="17.877120670722">
        <ele>15.6</ele>
        <time>2018-12-15T11:22:09Z</time>
        <extensions><gpxtpx:TrackPointExtension><gpxtpx:hr>153</gpxtpx:hr></gpxtpx:TrackPointExtension></extensions>
      </trkpt>
      <trkpt lat="59.485071843761" lon="17.876888827368">
        <ele>15.6</ele>
        <time>2018-12-15T11:22:13Z</time>
        <extensions><gpxtpx:TrackPointExtension><gpxtpx:hr>149</gpxtpx:hr></gpxtpx:TrackPointExtension></extensions>
      </trkpt>
      <trkpt lat="59.484946534356" lon="17.876793189889">
        <ele>15.4</ele>
        <time>2018-12-15T11:22:15Z</time>
        <extensions><gpxtpx:TrackPointExtension><gpxtpx:hr>146</gpxtpx:hr></gpxtpx:TrackPointExtension></extensions>
      </trkpt>
      <trkpt lat="59.484831031774" lon="17.876689757243">
        <ele>15.4</ele>
        <time>2018-12-15T11:22:17Z</time>
        <extensions><gpxtpx:TrackPointExtension><gpxtpx:hr>143</gpxtpx:hr></gpxtpx:TrackPointExtension></extensions>
      </trkpt>
      <trkpt lat="59.484668171457" lon="17.87651231242">
        <ele>14.6</ele>
        <time>2018-12-15T11:22:20Z</time>
        <extensions><gpxtpx:TrackPointExtension><gpxtpx:hr>139</gpxtpx:hr></gpxtpx:TrackPointExtension></extensions>
      </trkpt>
      <trkpt lat="59.484605977759" lon="17.876499320475">
        <ele>14.4</ele>
        <time>2018-12-15T11:22:21Z</time>
        <extensions><gpxtpx:TrackPointExtension><gpxtpx:hr>138</gpxtpx:hr></gpxtpx:TrackPointExtension></extensions>
      </trkpt>
      <trkpt lat="59.484476477404" lon="17.876533602446">
        <ele>14.4</ele>
        <time>2018-12-15T11:22:23Z</time>
        <extensions><gpxtpx:TrackPointExtension><gpxtpx:hr>136</gpxtpx:hr></gpxtpx:TrackPointExtension></extensions>
      </trkpt>
      <trkpt lat="59.483988567005" lon="17.876511977144">
        <ele>14.2</ele>
        <time>2018-12-15T11:22:30Z</time>
        <extensions><gpxtpx:TrackPointExtension><gpxtpx:hr>139</gpxtpx:hr></gpxtpx:TrackPointExtension></extensions>
      </trkpt>
      <trkpt lat="59.483473834526" lon="17.876754297873">
        <ele>14.4</ele>
        <time>2018-12-15T11:22:38Z</time>
        <extensions><gpxtpx:TrackPointExtension><gpxtpx:hr>142</gpxtpx:hr></gpxtpx:TrackPointExtension></extensions>
      </trkpt>
      <trkpt lat="59.482917527823" lon="17.877208680672">
        <ele>14.8</ele>
        <time>2018-12-15T11:22:47Z</time>
        <extensions><gpxtpx:TrackPointExtension><gpxtpx:hr>144</gpxtpx:hr></gpxtpx:TrackPointExtension></extensions>
      </trkpt>
      <trkpt lat="59.482536067554" lon="17.877538089342">
        <ele>15.6</ele>
        <time>2018-12-15T11:22:53Z</time>
        <extensions><gpxtpx:TrackPointExtension><gpxtpx:hr>145</gpxtpx:hr></gpxtpx:TrackPointExtension></extensions>
      </trkpt>
      <trkpt lat="59.482015803021" lon="17.87788275307">
        <ele>16.2</ele>
        <time>2018-12-15T11:23:01Z</time>
        <extensions><gpxtpx:TrackPointExtension><gpxtpx:hr>148</gpxtpx:hr></gpxtpx:TrackPointExtension></extensions>
      </trkpt>
      <trkpt lat="59.481696620269" lon="17.878044439921">
        <ele>16.6</ele>
        <time>2018-12-15T11:23:06Z</time>
        <extensions><gpxtpx:TrackPointExtension><gpxtpx:hr>150</gpxtpx:hr></gpxtpx:TrackPointExtension></extensions>
      </trkpt>
      <trkpt lat="59.481259085089" lon="17.878341159181">
        <ele>17.6</ele>
        <time>2018-12-15T11:23:13Z</time>
        <extensions><gpxtpx:TrackPointExtension><gpxtpx:hr>153</gpxtpx:hr></gpxtpx:TrackPointExtension></extensions>
      </trkpt>
      <trkpt lat="59.481196723753" lon="17.878389271287">
        <ele>17.6</ele>
        <time>2018-12-15T11:23:14Z</time>
        <extensions><gpxtpx:TrackPointExtension><gpxtpx:hr>154</gpxtpx:hr></gpxtpx:TrackPointExtension></extensions>
      </trkpt>
      <trkpt lat="59.480695234676" lon="17.878826974105">
        <ele>17.6</ele>
        <time>2018-12-15T11:23:22Z</time>
        <extensions><gpxtpx:TrackPointExtension><gpxtpx:hr>155</gpxtpx:hr></gpxtpx:TrackPointExtension></extensions>
      </trkpt>
      <trkpt lat="59.480178658179" lon="17.879277249773">
        <ele>17.6</ele>
        <time>2018-12-15T11:23:30Z</time>
        <extensions><gpxtpx:TrackPointExtension><gpxtpx:hr>155</gpxtpx:hr></gpxtpx:TrackPointExtension></extensions>
      </trkpt>
      <trkpt lat="59.479648586823" lon="17.879642700613">
        <ele>17.4</ele>
        <time>2018-12-15T11:23:38Z</time>
        <extensions><gpxtpx:TrackPointExtension><gpxtpx:hr>154</gpxtpx:hr></gpxtpx:TrackPointExtension></extensions>
      </trkpt>
      <trkpt lat="59.479163945365" lon="17.880133209401">
        <ele>17.2</ele>
        <time>2018-12-15T11:23:46Z</time>
        <extensions><gpxtpx:TrackPointExtension><gpxtpx:hr>153</gpxtpx:hr></gpxtpx:TrackPointExtension></extensions>
      </trkpt>
      <trkpt lat="59.47863714295" lon="17.880609552778">
        <ele>18.2</ele>
        <time>2018-12-15T11:23:54Z</time>
        <extensions><gpxtpx:TrackPointExtension><gpxtpx:hr>154</gpxtpx:hr></gpxtpx:TrackPointExtension></extensions>
      </trkpt>
      <trkpt lat="59.478202457616" lon="17.880882383623">
        <ele>18.2</ele>
        <time>2018-12-15T11:24:00Z</time>
        <extensions><gpxtpx:TrackPointExtension><gpxtpx:hr>154</gpxtpx:hr></gpxtpx:TrackPointExtension></extensions>
      </trkpt>
      <trkpt lat="59.477648497845" lon="17.880928316435">
        <ele>17.6</ele>
        <time>2018-12-15T11:24:07Z</time>
        <extensions><gpxtpx:TrackPointExtension><gpxtpx:hr>153</gpxtpx:hr></gpxtpx:TrackPointExtension></extensions>
      </trkpt>
      <trkpt lat="59.477570629994" lon="17.880960167655">
        <ele>17.2</ele>
        <time>2018-12-15T11:24:08Z</time>
        <extensions><gpxtpx:TrackPointExtension><gpxtpx:hr>153</gpxtpx:hr></gpxtpx:TrackPointExtension></extensions>
      </trkpt>
      <trkpt lat="59.477347755273" lon="17.881107689095">
        <ele>16.6</ele>
        <time>2018-12-15T11:24:11Z</time>
        <extensions><gpxtpx:TrackPointExtension><gpxtpx:hr>152</gpxtpx:hr></gpxtpx:TrackPointExtension></extensions>
      </trkpt>
      <trkpt lat="59.47680318323" lon="17.881364007597">
        <ele>16</ele>
        <time>2018-12-15T11:24:18Z</time>
        <extensions><gpxtpx:TrackPointExtension><gpxtpx:hr>153</gpxtpx:hr></gpxtpx:TrackPointExtension></extensions>
      </trkpt>
      <trkpt lat="59.476252827676" lon="17.881426788028">
        <ele>15.8</ele>
        <time>2018-12-15T11:24:25Z</time>
        <extensions><gpxtpx:TrackPointExtension><gpxtpx:hr>151</gpxtpx:hr></gpxtpx:TrackPointExtension></extensions>
      </trkpt>
      <trkpt lat="59.476044286004" lon="17.881563748274">
        <ele>15.8</ele>
        <time>2018-12-15T11:24:28Z</time>
        <extensions><gpxtpx:TrackPointExtension><gpxtpx:hr>151</gpxtpx:hr></gpxtpx:TrackPointExtension></extensions>
      </trkpt>
      <trkpt lat="59.475573307043" lon="17.882240419061">
        <ele>16.6</ele>
        <time>2018-12-15T11:24:38Z</time>
        <extensions><gpxtpx:TrackPointExtension><gpxtpx:hr>148</gpxtpx:hr></gpxtpx:TrackPointExtension></extensions>
      </trkpt>
      <trkpt lat="59.475501893255" lon="17.882336727092">
        <ele>17.8</ele>
        <time>2018-12-15T11:24:40Z</time>
        <extensions><gpxtpx:TrackPointExtension><gpxtpx:hr>147</gpxtpx:hr></gpxtpx:TrackPointExtension></extensions>
      </trkpt>
      <trkpt lat="59.475416481694" lon="17.882406296862">
        <ele>18.6</ele>
        <time>2018-12-15T11:24:43Z</time>
        <extensions><gpxtpx:TrackPointExtension><gpxtpx:hr>144</gpxtpx:hr></gpxtpx:TrackPointExtension></extensions>
      </trkpt>
      <trkpt lat="59.475392341822" lon="17.882418031522">
        <ele>19</ele>
        <time>2018-12-15T11:24:44Z</time>
        <extensions><gpxtpx:TrackPointExtension><gpxtpx:hr>143</gpxtpx:hr></gpxtpx:TrackPointExtension></extensions>
      </trkpt>
      <trkpt lat="59.475371219434" lon="17.882438483358">
        <ele>19</ele>
        <time>2018-12-15T11:24:45Z</time>
        <extensions><gpxtpx:TrackPointExtension><gpxtpx:hr>143</gpxtpx:hr></gpxtpx:TrackPointExtension></extensions>
      </trkpt>
      <trkpt lat="59.475379182239" lon="17.882515513019">
        <ele>19.6</ele>
        <time>2018-12-15T11:24:48Z</time>
        <extensions><gpxtpx:TrackPointExtension><gpxtpx:hr>140</gpxtpx:hr></gpxtpx:TrackPointExtension></extensions>
      </trkpt>
      <trkpt lat="59.475415894961" lon="17.882504784187">
        <ele>19.8</ele>
        <time>2018-12-15T11:24:50Z</time>
        <extensions><gpxtpx:TrackPointExtension><gpxtpx:hr>137</gpxtpx:hr></gpxtpx:TrackPointExtension></extensions>
      </trkpt>
      <trkpt lat="59.47546375561" lon="17.882452145855">
        <ele>19.8</ele>
        <time>2018-12-15T11:24:52Z</time>
        <extensions><gpxtpx:TrackPointExtension><gpxtpx:hr>134</gpxtpx:hr></gpxtpx:TrackPointExtension></extensions>
      </trkpt>
      <trkpt lat="59.47551739977" lon="17.882346366277">
        <ele>19.8</ele>
        <time>2018-12-15T11:24:54Z</time>
        <extensions><gpxtpx:TrackPointExtension><gpxtpx:hr>132</gpxtpx:hr></gpxtpx:TrackPointExtension></extensions>
      </trkpt>
      <trkpt lat="59.475678164612" lon="17.882070601767">
        <ele>19.8</ele>
        <time>2018-12-15T11:24:59Z</time>
        <extensions><gpxtpx:TrackPointExtension><gpxtpx:hr>132</gpxtpx:hr></gpxtpx:TrackPointExtension></extensions>
      </trkpt>
      <trkpt lat="59.475835157599" lon="17.882391544718">
        <ele>19.8</ele>
        <time>2018-12-15T11:25:07Z</time>
        <extensions><gpxtpx:TrackPointExtension><gpxtpx:hr>131</gpxtpx:hr></gpxtpx:TrackPointExtension></extensions>
      </trkpt>
      <trkpt lat="59.475832223934" lon="17.882462204135">
        <ele>20</ele>
        <time>2018-12-15T11:25:08Z</time>
        <extensions><gpxtpx:TrackPointExtension><gpxtpx:hr>131</gpxtpx:hr></gpxtpx:TrackPointExtension></extensions>
      </trkpt>
      <trkpt lat="59.475781597258" lon="17.882649036686">
        <ele>20.2</ele>
        <time>2018-12-15T11:25:11Z</time>
        <extensions><gpxtpx:TrackPointExtension><gpxtpx:hr>132</gpxtpx:hr></gpxtpx:TrackPointExtension></extensions>
      </trkpt>
      <trkpt lat="59.475629801049" lon="17.88284064692">
        <ele>21</ele>
        <time>2018-12-15T11:25:15Z</time>
        <extensions><gpxtpx:TrackPointExtension><gpxtpx:hr>132</gpxtpx:hr></gpxtpx:TrackPointExtension></extensions>
      </trkpt>
      <trkpt lat="59.475459816117" lon="17.883125044787">
        <ele>21.2</ele>
        <time>2018-12-15T11:25:20Z</time>
        <extensions><gpxtpx:TrackPointExtension><gpxtpx:hr>134</gpxtpx:hr></gpxtpx:TrackPointExtension></extensions>
      </trkpt>
      <trkpt lat="59.475389491976" lon="17.883211462176">
        <ele>21.2</ele>
        <time>2018-12-15T11:25:22Z</time>
        <extensions><gpxtpx:TrackPointExtension><gpxtpx:hr>135</gpxtpx:hr></gpxtpx:TrackPointExtension></extensions>
      </trkpt>
      <trkpt lat="59.475200312493" lon="17.883350434078">
        <ele>22</ele>
        <time>2018-12-15T11:25:27Z</time>
        <extensions><gpxtpx:TrackPointExtension><gpxtpx:hr>138</gpxtpx:hr></gpxtpx:TrackPointExtension></extensions>
      </trkpt>
      <trkpt lat="59.475160247011" lon="17.883375915054">
        <ele>22.2</ele>
        <time>2018-12-15T11:25:28Z</time>
        <extensions><gpxtpx:TrackPointExtension><gpxtpx:hr>138</gpxtpx:hr></gpxtpx:TrackPointExtension></extensions>
      </trkpt>
      <trkpt lat="59.475038625642" lon="17.88342737992">
        <ele>22.6</ele>
        <time>2018-12-15T11:25:31Z</time>
        <extensions><gpxtpx:TrackPointExtension><gpxtpx:hr>142</gpxtpx:hr></gpxtpx:TrackPointExtension></extensions>
      </trkpt>
      <trkpt lat="59.474913483875" lon="17.883476916949">
        <ele>23.2</ele>
        <time>2018-12-15T11:25:34Z</time>
        <extensions><gpxtpx:TrackPointExtension><gpxtpx:hr>143</gpxtpx:hr></gpxtpx:TrackPointExtension></extensions>
      </trkpt>
      <trkpt lat="59.474547111026" lon="17.883623935475">
        <ele>24</ele>
        <time>2018-12-15T11:25:42Z</time>
        <extensions><gpxtpx:TrackPointExtension><gpxtpx:hr>144</gpxtpx:hr></gpxtpx:TrackPointExtension></extensions>
      </trkpt>
      <trkpt lat="59.474431692263" lon="17.883959882027">
        <ele>23.8</ele>
        <time>2018-12-15T11:25:46Z</time>
        <extensions><gpxtpx:TrackPointExtension><gpxtpx:hr>142</gpxtpx:hr></gpxtpx:TrackPointExtension></extensions>
      </trkpt>
      <trkpt lat="59.47439422517" lon="17.884076725713">
        <ele>23.4</ele>
        <time>2018-12-15T11:25:48Z</time>
        <extensions><gpxtpx:TrackPointExtension><gpxtpx:hr>141</gpxtpx:hr></gpxtpx:TrackPointExtension></extensions>
      </trkpt>
      <trkpt lat="59.474339407544" lon="17.884010508703">
        <ele>22.2</ele>
        <time>2018-12-15T11:25:51Z</time>
        <extensions><gpxtpx:TrackPointExtension><gpxtpx:hr>139</gpxtpx:hr></gpxtpx:TrackPointExtension></extensions>
      </trkpt>
      <trkpt lat="59.474292887999" lon="17.883743712826">
        <ele>21.2</ele>
        <time>2018-12-15T11:25:54Z</time>
        <extensions><gpxtpx:TrackPointExtension><gpxtpx:hr>139</gpxtpx:hr></gpxtpx:TrackPointExtension></extensions>
      </trkpt>
      <trkpt lat="59.474200519461" lon="17.883003423418">
        <ele>20.8</ele>
        <time>2018-12-15T11:26:01Z</time>
        <extensions><gpxtpx:TrackPointExtension><gpxtpx:hr>142</gpxtpx:hr></gpxtpx:TrackPointExtension></extensions>
      </trkpt>
      <trkpt lat="59.474084178689" lon="17.88216003664">
        <ele>20.8</ele>
        <time>2018-12-15T11:26:09Z</time>
        <extensions><gpxtpx:TrackPointExtension><gpxtpx:hr>145</gpxtpx:hr></gpxtpx:TrackPointExtension></extensions>
      </trkpt>
      <trkpt lat="59.474022236448" lon="17.881703474547">
        <ele>21.2</ele>
        <time>2018-12-15T11:26:13Z</time>
        <extensions><gpxtpx:TrackPointExtension><gpxtpx:hr>148</gpxtpx:hr></gpxtpx:TrackPointExtension></extensions>
      </trkpt>
      <trkpt lat="59.473930454643" lon="17.881020684973">
        <ele>21.8</ele>
        <time>2018-12-15T11:26:19Z</time>
        <extensions><gpxtpx:TrackPointExtension><gpxtpx:hr>151</gpxtpx:hr></gpxtpx:TrackPointExtension></extensions>
      </trkpt>
      <trkpt lat="59.473795170777" lon="17.879878734917">
        <ele>22.2</ele>
        <time>2018-12-15T11:26:29Z</time>
        <extensions><gpxtpx:TrackPointExtension><gpxtpx:hr>153</gpxtpx:hr></gpxtpx:TrackPointExtension></extensions>
      </trkpt>
      <trkpt lat="59.473764157747" lon="17.879649322314">
        <ele>22.2</ele>
        <time>2018-12-15T11:26:31Z</time>
        <extensions><gpxtpx:TrackPointExtension><gpxtpx:hr>154</gpxtpx:hr></gpxtpx:TrackPointExtension></extensions>
      </trkpt>
      <trkpt lat="59.473626610768" lon="17.878591107439">
        <ele>22.2</ele>
        <time>2018-12-15T11:26:40Z</time>
        <extensions><gpxtpx:TrackPointExtension><gpxtpx:hr>157</gpxtpx:hr></gpxtpx:TrackPointExtension></extensions>
      </trkpt>
      <trkpt lat="59.47348143626" lon="17.877563570318">
        <ele>23.2</ele>
        <time>2018-12-15T11:26:49Z</time>
        <extensions><gpxtpx:TrackPointExtension><gpxtpx:hr>156</gpxtpx:hr></gpxtpx:TrackPointExtension></extensions>
      </trkpt>
      <trkpt lat="59.473465007736" lon="17.877449492659">
        <ele>23.2</ele>
        <time>2018-12-15T11:26:50Z</time>
        <extensions><gpxtpx:TrackPointExtension><gpxtpx:hr>156</gpxtpx:hr></gpxtpx:TrackPointExtension></extensions>
      </trkpt>
      <trkpt lat="59.473384960591" lon="17.87688782154">
        <ele>23.4</ele>
        <time>2018-12-15T11:26:55Z</time>
        <extensions><gpxtpx:TrackPointExtension><gpxtpx:hr>153</gpxtpx:hr></gpxtpx:TrackPointExtension></extensions>
      </trkpt>
      <trkpt lat="59.473265686154" lon="17.875855422917">
        <ele>23.8</ele>
        <time>2018-12-15T11:27:04Z</time>
        <extensions><gpxtpx:TrackPointExtension><gpxtpx:hr>151</gpxtpx:hr></gpxtpx:TrackPointExtension></extensions>
      </trkpt>
      <trkpt lat="59.473252275114" lon="17.874822186104">
        <ele>24.2</ele>
        <time>2018-12-15T11:27:13Z</time>
        <extensions><gpxtpx:TrackPointExtension><gpxtpx:hr>148</gpxtpx:hr></gpxtpx:TrackPointExtension></extensions>
      </trkpt>
      <trkpt lat="59.473256633702" lon="17.874714730146">
        <ele>24.4</ele>
        <time>2018-12-15T11:27:14Z</time>
        <extensions><gpxtpx:TrackPointExtension><gpxtpx:hr>148</gpxtpx:hr></gpxtpx:TrackPointExtension></extensions>
      </trkpt>
      <trkpt lat="59.473279516289" lon="17.874206116454">
        <ele>25.2</ele>
        <time>2018-12-15T11:27:19Z</time>
        <extensions><gpxtpx:TrackPointExtension><gpxtpx:hr>147</gpxtpx:hr></gpxtpx:TrackPointExtension></extensions>
      </trkpt>
      <trkpt lat="59.473240791911" lon="17.873911827945">
        <ele>25.6</ele>
        <time>2018-12-15T11:27:22Z</time>
        <extensions><gpxtpx:TrackPointExtension><gpxtpx:hr>149</gpxtpx:hr></gpxtpx:TrackPointExtension></extensions>
      </trkpt>
      <trkpt lat="59.473124283501" lon="17.873580072343">
        <ele>26.6</ele>
        <time>2018-12-15T11:27:26Z</time>
        <extensions><gpxtpx:TrackPointExtension><gpxtpx:hr>150</gpxtpx:hr></gpxtpx:TrackPointExtension></extensions>
      </trkpt>
      <trkpt lat="59.473086564951" lon="17.873508993831">
        <ele>26.8</ele>
        <time>2018-12-15T11:27:27Z</time>
        <extensions><gpxtpx:TrackPointExtension><gpxtpx:hr>150</gpxtpx:hr></gpxtpx:TrackPointExtension></extensions>
      </trkpt>
      <trkpt lat="59.472921609159" lon="17.873316210131">
        <ele>28</ele>
        <time>2018-12-15T11:27:31Z</time>
        <extensions><gpxtpx:TrackPointExtension><gpxtpx:hr>152</gpxtpx:hr></gpxtpx:TrackPointExtension></extensions>
      </trkpt>
      <trkpt lat="59.472771321692" lon="17.873163491913">
        <ele>28.4</ele>
        <time>2018-12-15T11:27:34Z</time>
        <extensions><gpxtpx:TrackPointExtension><gpxtpx:hr>152</gpxtpx:hr></gpxtpx:TrackPointExtension></extensions>
      </trkpt>
      <trkpt lat="59.472421796462" lon="17.872782953653">
        <ele>28.4</ele>
        <time>2018-12-15T11:27:40Z</time>
        <extensions><gpxtpx:TrackPointExtension><gpxtpx:hr>153</gpxtpx:hr></gpxtpx:TrackPointExtension></extensions>
      </trkpt>
      <trkpt lat="59.47227528085" lon="17.872730902054">
        <ele>28.4</ele>
        <time>2018-12-15T11:27:42Z</time>
        <extensions><gpxtpx:TrackPointExtension><gpxtpx:hr>153</gpxtpx:hr></gpxtpx:TrackPointExtension></extensions>
      </trkpt>
      <trkpt lat="59.471865657397" lon="17.873070285185">
        <ele>27.2</ele>
        <time>2018-12-15T11:27:48Z</time>
        <extensions><gpxtpx:TrackPointExtension><gpxtpx:hr>151</gpxtpx:hr></gpxtpx:TrackPointExtension></extensions>
      </trkpt>
      <trkpt lat="59.471802709328" lon="17.873169443062">
        <ele>27</ele>
        <time>2018-12-15T11:27:49Z</time>
        <extensions><gpxtpx:TrackPointExtension><gpxtpx:hr>151</gpxtpx:hr></gpxtpx:TrackPointExtension></extensions>
      </trkpt>
      <trkpt lat="59.471730960264" lon="17.873259716125">
        <ele>26.6</ele>
        <time>2018-12-15T11:27:50Z</time>
        <extensions><gpxtpx:TrackPointExtension><gpxtpx:hr>151</gpxtpx:hr></gpxtpx:TrackPointExtension></extensions>
      </trkpt>
      <trkpt lat="59.471571704164" lon="17.87340262752">
        <ele>25.8</ele>
        <time>2018-12-15T11:27:52Z</time>
        <extensions><gpxtpx:TrackPointExtension><gpxtpx:hr>149</gpxtpx:hr></gpxtpx:TrackPointExtension></extensions>
      </trkpt>
      <trkpt lat="59.47140104868" lon="17.873505389614">
        <ele>25.4</ele>
        <time>2018-12-15T11:27:54Z</time>
        <extensions><gpxtpx:TrackPointExtension><gpxtpx:hr>147</gpxtpx:hr></gpxtpx:TrackPointExtension></extensions>
      </trkpt>
      <trkpt lat="59.471146490377" lon="17.873609325174">
        <ele>24.4</ele>
        <time>2018-12-15T11:27:57Z</time>
        <extensions><gpxtpx:TrackPointExtension><gpxtpx:hr>144</gpxtpx:hr></gpxtpx:TrackPointExtension></extensions>
      </trkpt>
      <trkpt lat="59.470976002531" lon="17.873649558294">
        <ele>23</ele>
        <time>2018-12-15T11:27:59Z</time>
        <extensions><gpxtpx:TrackPointExtension><gpxtpx:hr>143</gpxtpx:hr></gpxtpx:TrackPointExtension></extensions>
      </trkpt>
      <trkpt lat="59.470808783626" lon="17.873679984591">
        <ele>21.8</ele>
        <time>2018-12-15T11:28:01Z</time>
        <extensions><gpxtpx:TrackPointExtension><gpxtpx:hr>142</gpxtpx:hr></gpxtpx:TrackPointExtension></extensions>
      </trkpt>
      <trkpt lat="59.470645085119" lon="17.873673195252">
        <ele>21.6</ele>
        <time>2018-12-15T11:28:03Z</time>
        <extensions><gpxtpx:TrackPointExtension><gpxtpx:hr>141</gpxtpx:hr></gpxtpx:TrackPointExtension></extensions>
      </trkpt>
      <trkpt lat="59.470353394999" lon="17.87345710987">
        <ele>21.4</ele>
        <time>2018-12-15T11:28:07Z</time>
        <extensions><gpxtpx:TrackPointExtension><gpxtpx:hr>141</gpxtpx:hr></gpxtpx:TrackPointExtension></extensions>
      </trkpt>
      <trkpt lat="59.469850229542" lon="17.872926032686">
        <ele>22.8</ele>
        <time>2018-12-15T11:28:15Z</time>
        <extensions><gpxtpx:TrackPointExtension><gpxtpx:hr>142</gpxtpx:hr></gpxtpx:TrackPointExtension></extensions>
      </trkpt>
      <trkpt lat="59.469693990926" lon="17.872728638941">
        <ele>23</ele>
        <time>2018-12-15T11:28:18Z</time>
        <extensions><gpxtpx:TrackPointExtension><gpxtpx:hr>142</gpxtpx:hr></gpxtpx:TrackPointExtension></extensions>
      </trkpt>
      <trkpt lat="59.469608327908" lon="17.872335444012">
        <ele>23</ele>
        <time>2018-12-15T11:28:22Z</time>
        <extensions><gpxtpx:TrackPointExtension><gpxtpx:hr>139</gpxtpx:hr></gpxtpx:TrackPointExtension></extensions>
      </trkpt>
      <trkpt lat="59.46965090796" lon="17.871983990945">
        <ele>23</ele>
        <time>2018-12-15T11:28:25Z</time>
        <extensions><gpxtpx:TrackPointExtension><gpxtpx:hr>138</gpxtpx:hr></gpxtpx:TrackPointExtension></extensions>
      </trkpt>
      <trkpt lat="59.469691392537" lon="17.871755165075">
        <ele>23.2</ele>
        <time>2018-12-15T11:28:27Z</time>
        <extensions><gpxtpx:TrackPointExtension><gpxtpx:hr>138</gpxtpx:hr></gpxtpx:TrackPointExtension></extensions>
      </trkpt>
      <trkpt lat="59.469917536199" lon="17.870679012934">
        <ele>23.4</ele>
        <time>2018-12-15T11:28:37Z</time>
        <extensions><gpxtpx:TrackPointExtension><gpxtpx:hr>140</gpxtpx:hr></gpxtpx:TrackPointExtension></extensions>
      </trkpt>
      <trkpt lat="59.46998786034" lon="17.870102505852">
        <ele>23.2</ele>
        <time>2018-12-15T11:28:42Z</time>
        <extensions><gpxtpx:TrackPointExtension><gpxtpx:hr>143</gpxtpx:hr></gpxtpx:TrackPointExtension></extensions>
      </trkpt>
      <trkpt lat="59.470029602202" lon="17.868968770058">
        <ele>23</ele>
        <time>2018-12-15T11:28:51Z</time>
        <extensions><gpxtpx:TrackPointExtension><gpxtpx:hr>145</gpxtpx:hr></gpxtpx:TrackPointExtension></extensions>
      </trkpt>
      <trkpt lat="59.470018538094" lon="17.86885125582">
        <ele>22.8</ele>
        <time>2018-12-15T11:28:52Z</time>
        <extensions><gpxtpx:TrackPointExtension><gpxtpx:hr>145</gpxtpx:hr></gpxtpx:TrackPointExtension></extensions>
      </trkpt>
      <trkpt lat="59.469803123264" lon="17.868549842696">
        <ele>23</ele>
        <time>2018-12-15T11:28:57Z</time>
        <extensions><gpxtpx:TrackPointExtension><gpxtpx:hr>145</gpxtpx:hr></gpxtpx:TrackPointExtension></extensions>
      </trkpt>
      <trkpt lat="59.469747635086" lon="17.868529977593">
        <ele>23</ele>
        <time>2018-12-15T11:28:58Z</time>
        <extensions><gpxtpx:TrackPointExtension><gpxtpx:hr>146</gpxtpx:hr></gpxtpx:TrackPointExtension></extensions>
      </trkpt>
      <trkpt lat="59.469637245463" lon="17.868470298465">
        <ele>23.2</ele>
        <time>2018-12-15T11:29:00Z</time>
        <extensions><gpxtpx:TrackPointExtension><gpxtpx:hr>146</gpxtpx:hr></gpxtpx:TrackPointExtension></extensions>
      </trkpt>
      <trkpt lat="59.469417136769" lon="17.868296709316">
        <ele>24.2</ele>
        <time>2018-12-15T11:29:04Z</time>
        <extensions><gpxtpx:TrackPointExtension><gpxtpx:hr>146</gpxtpx:hr></gpxtpx:TrackPointExtension></extensions>
      </trkpt>
      <trkpt lat="59.469115556007" lon="17.868160419622">
        <ele>24.6</ele>
        <time>2018-12-15T11:29:09Z</time>
        <extensions><gpxtpx:TrackPointExtension><gpxtpx:hr>148</gpxtpx:hr></gpxtpx:TrackPointExtension></extensions>
      </trkpt>
      <trkpt lat="59.468685564537" lon="17.86823518617">
        <ele>25.2</ele>
        <time>2018-12-15T11:29:16Z</time>
        <extensions><gpxtpx:TrackPointExtension><gpxtpx:hr>151</gpxtpx:hr></gpxtpx:TrackPointExtension></extensions>
      </trkpt>
      <trkpt lat="59.468398233005" lon="17.86822093694">
        <ele>25.4</ele>
        <time>2018-12-15T11:29:21Z</time>
        <extensions><gpxtpx:TrackPointExtension><gpxtpx:hr>152</gpxtpx:hr></gpxtpx:TrackPointExtension></extensions>
      </trkpt>
      <trkpt lat="59.468066645041" lon="17.8681823802">
        <ele>26.2</ele>
        <time>2018-12-15T11:29:27Z</time>
        <extensions><gpxtpx:TrackPointExtension><gpxtpx:hr>152</gpxtpx:hr></gpxtpx:TrackPointExtension></extensions>
      </trkpt>
      <trkpt lat="59.46795692597" lon="17.868139883967">
        <ele>26.6</ele>
        <time>2018-12-15T11:29:29Z</time>
        <extensions><gpxtpx:TrackPointExtension><gpxtpx:hr>153</gpxtpx:hr></gpxtpx:TrackPointExtension></extensions>
      </trkpt>
      <trkpt lat="59.467745953547" lon="17.868020022797">
        <ele>27.2</ele>
        <time>2018-12-15T11:29:33Z</time>
        <extensions><gpxtpx:TrackPointExtension><gpxtpx:hr>154</gpxtpx:hr></gpxtpx:TrackPointExtension></extensions>
      </trkpt>
      <trkpt lat="59.467491395244" lon="17.868115911733">
        <ele>27.8</ele>
        <time>2018-12-15T11:29:38Z</time>
        <extensions><gpxtpx:TrackPointExtension><gpxtpx:hr>155</gpxtpx:hr></gpxtpx:TrackPointExtension></extensions>
      </trkpt>
      <trkpt lat="59.46744730645" lon="17.868162431278">
        <ele>28</ele>
        <time>2018-12-15T11:29:39Z</time>
        <extensions><gpxtpx:TrackPointExtension><gpxtpx:hr>155</gpxtpx:hr></gpxtpx:TrackPointExtension></extensions>
      </trkpt>
      <trkpt lat="59.467365080011" lon="17.868249686857">
        <ele>28.2</ele>
        <time>2018-12-15T11:29:41Z</time>
        <extensions><gpxtpx:TrackPointExtension><gpxtpx:hr>156</gpxtpx:hr></gpxtpx:TrackPointExtension></extensions>
      </trkpt>
      <trkpt lat="59.467249828886" lon="17.86832906345">
        <ele>28.8</ele>
        <time>2018-12-15T11:29:44Z</time>
        <extensions><gpxtpx:TrackPointExtension><gpxtpx:hr>157</gpxtpx:hr></gpxtpx:TrackPointExtension></extensions>
      </trkpt>
      <trkpt lat="59.467160729289" lon="17.8683584001">
        <ele>29</ele>
        <time>2018-12-15T11:29:46Z</time>
        <extensions><gpxtpx:TrackPointExtension><gpxtpx:hr>157</gpxtpx:hr></gpxtpx:TrackPointExtension></extensions>
      </trkpt>
      <trkpt lat="59.467064169801" lon="17.86836510562">
        <ele>29.8</ele>
        <time>2018-12-15T11:29:48Z</time>
        <extensions><gpxtpx:TrackPointExtension><gpxtpx:hr>158</gpxtpx:hr></gpxtpx:TrackPointExtension></extensions>
      </trkpt>
      <trkpt lat="59.46701647679" lon="17.868360579394">
        <ele>30.8</ele>
        <time>2018-12-15T11:29:49Z</time>
        <extensions><gpxtpx:TrackPointExtension><gpxtpx:hr>158</gpxtpx:hr></gpxtpx:TrackPointExtension></extensions>
      </trkpt>
      <trkpt lat="59.466919162931" lon="17.86834247449">
        <ele>32.2</ele>
        <time>2018-12-15T11:29:51Z</time>
        <extensions><gpxtpx:TrackPointExtension><gpxtpx:hr>158</gpxtpx:hr></gpxtpx:TrackPointExtension></extensions>
      </trkpt>
      <trkpt lat="59.466823273995" lon="17.868309198347">
        <ele>33.2</ele>
        <time>2018-12-15T11:29:53Z</time>
        <extensions><gpxtpx:TrackPointExtension><gpxtpx:hr>160</gpxtpx:hr></gpxtpx:TrackPointExtension></extensions>
      </trkpt>
      <trkpt lat="59.466579695981" lon="17.868213644687">
        <ele>34.4</ele>
        <time>2018-12-15T11:29:58Z</time>
        <extensions><gpxtpx:TrackPointExtension><gpxtpx:hr>161</gpxtpx:hr></gpxtpx:TrackPointExtension></extensions>
      </trkpt>
      <trkpt lat="59.466028418418" lon="17.86804072609">
        <ele>34</ele>
        <time>2018-12-15T11:30:08Z</time>
        <extensions><gpxtpx:TrackPointExtension><gpxtpx:hr>162</gpxtpx:hr></gpxtpx:TrackPointExtension></extensions>
      </trkpt>
      <trkpt lat="59.465477308493" lon="17.867931342295">
        <ele>34</ele>
        <time>2018-12-15T11:30:18Z</time>
        <extensions><gpxtpx:TrackPointExtension><gpxtpx:hr>161</gpxtpx:hr></gpxtpx:TrackPointExtension></extensions>
      </trkpt>
      <trkpt lat="59.465212943367" lon="17.867963025877">
        <ele>34.2</ele>
        <time>2018-12-15T11:30:23Z</time>
        <extensions><gpxtpx:TrackPointExtension><gpxtpx:hr>159</gpxtpx:hr></gpxtpx:TrackPointExtension></extensions>
      </trkpt>
      <trkpt lat="59.464789992693" lon="17.867844338173">
        <ele>34.2</ele>
        <time>2018-12-15T11:30:29Z</time>
        <extensions><gpxtpx:TrackPointExtension><gpxtpx:hr>156</gpxtpx:hr></gpxtpx:TrackPointExtension></extensions>
      </trkpt>
      <trkpt lat="59.464343907975" lon="17.86784794239">
        <ele>33.2</ele>
        <time>2018-12-15T11:30:34Z</time>
        <extensions><gpxtpx:TrackPointExtension><gpxtpx:hr>153</gpxtpx:hr></gpxtpx:TrackPointExtension></extensions>
      </trkpt>
      <trkpt lat="59.464241648795" lon="17.867841069232">
        <ele>32.8</ele>
        <time>2018-12-15T11:30:35Z</time>
        <extensions><gpxtpx:TrackPointExtension><gpxtpx:hr>152</gpxtpx:hr></gpxtpx:TrackPointExtension></extensions>
      </trkpt>
      <trkpt lat="59.464046015249" lon="17.867849534951">
        <ele>32</ele>
        <time>2018-12-15T11:30:37Z</time>
        <extensions><gpxtpx:TrackPointExtension><gpxtpx:hr>149</gpxtpx:hr></gpxtpx:TrackPointExtension></extensions>
      </trkpt>
      <trkpt lat="59.463945935363" lon="17.867860850516">
        <ele>31.6</ele>
        <time>2018-12-15T11:30:38Z</time>
        <extensions><gpxtpx:TrackPointExtension><gpxtpx:hr>148</gpxtpx:hr></gpxtpx:TrackPointExtension></extensions>
      </trkpt>
      <trkpt lat="59.463849962608" lon="17.867870992615">
        <ele>31.4</ele>
        <time>2018-12-15T11:30:39Z</time>
        <extensions><gpxtpx:TrackPointExtension><gpxtpx:hr>145</gpxtpx:hr></gpxtpx:TrackPointExtension></extensions>
      </trkpt>
      <trkpt lat="59.463666818093" lon="17.867886331492">
        <ele>31.2</ele>
        <time>2018-12-15T11:30:41Z</time>
        <extensions><gpxtpx:TrackPointExtension><gpxtpx:hr>141</gpxtpx:hr></gpxtpx:TrackPointExtension></extensions>
      </trkpt>
      <trkpt lat="59.46351284259" lon="17.867918517988">
        <ele>29.6</ele>
        <time>2018-12-15T11:30:43Z</time>
        <extensions><gpxtpx:TrackPointExtension><gpxtpx:hr>136</gpxtpx:hr></gpxtpx:TrackPointExtension></extensions>
      </trkpt>
      <trkpt lat="59.463452409091" lon="17.867941149118">
        <ele>28.2</ele>
        <time>2018-12-15T11:30:44Z</time>
        <extensions><gpxtpx:TrackPointExtension><gpxtpx:hr>134</gpxtpx:hr></gpxtpx:TrackPointExtension></extensions>
      </trkpt>
      <trkpt lat="59.463403961709" lon="17.86797786184">
        <ele>27.6</ele>
        <time>2018-12-15T11:30:45Z</time>
        <extensions><gpxtpx:TrackPointExtension><gpxtpx:hr>131</gpxtpx:hr></gpxtpx:TrackPointExtension></extensions>
      </trkpt>
      <trkpt lat="59.463368003358" lon="17.868029745801">
        <ele>27.4</ele>
        <time>2018-12-15T11:30:46Z</time>
        <extensions><gpxtpx:TrackPointExtension><gpxtpx:hr>129</gpxtpx:hr></gpxtpx:TrackPointExtension></extensions>
      </trkpt>
      <trkpt lat="59.463348222074" lon="17.868249519219">
        <ele>27</ele>
        <time>2018-12-15T11:30:49Z</time>
        <extensions><gpxtpx:TrackPointExtension><gpxtpx:hr>126</gpxtpx:hr></gpxtpx:TrackPointExtension></extensions>
      </trkpt>
      <trkpt lat="59.463388622832" lon="17.86843048444">
        <ele>27</ele>
        <time>2018-12-15T11:30:51Z</time>
        <extensions><gpxtpx:TrackPointExtension><gpxtpx:hr>128</gpxtpx:hr></gpxtpx:TrackPointExtension></extensions>
      </trkpt>
      <trkpt lat="59.463450732711" lon="17.868643133243">
        <ele>27</ele>
        <time>2018-12-15T11:30:53Z</time>
        <extensions><gpxtpx:TrackPointExtension><gpxtpx:hr>133</gpxtpx:hr></gpxtpx:TrackPointExtension></extensions>
      </trkpt>
      <trkpt lat="59.463512591133" lon="17.868843628291">
        <ele>27</ele>
        <time>2018-12-15T11:30:55Z</time>
        <extensions><gpxtpx:TrackPointExtension><gpxtpx:hr>136</gpxtpx:hr></gpxtpx:TrackPointExtension></extensions>
      </trkpt>
      <trkpt lat="59.463559278316" lon="17.869046134995">
        <ele>27.2</ele>
        <time>2018-12-15T11:30:57Z</time>
        <extensions><gpxtpx:TrackPointExtension><gpxtpx:hr>138</gpxtpx:hr></gpxtpx:TrackPointExtension></extensions>
      </trkpt>
      <trkpt lat="59.463584507835" lon="17.869476880836">
        <ele>27.4</ele>
        <time>2018-12-15T11:31:01Z</time>
        <extensions><gpxtpx:TrackPointExtension><gpxtpx:hr>139</gpxtpx:hr></gpxtpx:TrackPointExtension></extensions>
      </trkpt>
      <trkpt lat="59.463580065428" lon="17.869578972378">
        <ele>27.4</ele>
        <time>2018-12-15T11:31:02Z</time>
        <extensions><gpxtpx:TrackPointExtension><gpxtpx:hr>140</gpxtpx:hr></gpxtpx:TrackPointExtension></extensions>
      </trkpt>
      <trkpt lat="59.46356900132" lon="17.86980930699">
        <ele>27.4</ele>
        <time>2018-12-15T11:31:04Z</time>
        <extensions><gpxtpx:TrackPointExtension><gpxtpx:hr>140</gpxtpx:hr></gpxtpx:TrackPointExtension></extensions>
      </trkpt>
      <trkpt lat="59.463463640837" lon="17.8708645882">
        <ele>27.2</ele>
        <time>2018-12-15T11:31:12Z</time>
        <extensions><gpxtpx:TrackPointExtension><gpxtpx:hr>140</gpxtpx:hr></gpxtpx:TrackPointExtension></extensions>
      </trkpt>
      <trkpt lat="59.463447379951" lon="17.87115376375">
        <ele>26.2</ele>
        <time>2018-12-15T11:31:14Z</time>
        <extensions><gpxtpx:TrackPointExtension><gpxtpx:hr>139</gpxtpx:hr></gpxtpx:TrackPointExtension></extensions>
      </trkpt>
      <trkpt lat="59.463468837615" lon="17.871544863204">
        <ele>25.2</ele>
        <time>2018-12-15T11:31:17Z</time>
        <extensions><gpxtpx:TrackPointExtension><gpxtpx:hr>138</gpxtpx:hr></gpxtpx:TrackPointExtension></extensions>
      </trkpt>
      <trkpt lat="59.463510244201" lon="17.871980386728">
        <ele>24.4</ele>
        <time>2018-12-15T11:31:21Z</time>
        <extensions><gpxtpx:TrackPointExtension><gpxtpx:hr>136</gpxtpx:hr></gpxtpx:TrackPointExtension></extensions>
      </trkpt>
      <trkpt lat="59.463316789949" lon="17.872172918971">
        <ele>24.4</ele>
        <time>2018-12-15T11:31:27Z</time>
        <extensions><gpxtpx:TrackPointExtension><gpxtpx:hr>135</gpxtpx:hr></gpxtpx:TrackPointExtension></extensions>
      </trkpt>
      <trkpt lat="59.46322450523" lon="17.872145007244">
        <ele>24.8</ele>
        <time>2018-12-15T11:31:29Z</time>
        <extensions><gpxtpx:TrackPointExtension><gpxtpx:hr>136</gpxtpx:hr></gpxtpx:TrackPointExtension></extensions>
      </trkpt>
      <trkpt lat="59.463145547732" lon="17.872122879028">
        <ele>25.8</ele>
        <time>2018-12-15T11:31:31Z</time>
        <extensions><gpxtpx:TrackPointExtension><gpxtpx:hr>134</gpxtpx:hr></gpxtpx:TrackPointExtension></extensions>
      </trkpt>
      <trkpt lat="59.463026608571" lon="17.872136876801">
        <ele>26.4</ele>
        <time>2018-12-15T11:31:34Z</time>
        <extensions><gpxtpx:TrackPointExtension><gpxtpx:hr>133</gpxtpx:hr></gpxtpx:TrackPointExtension></extensions>
      </trkpt>
      <trkpt lat="59.462825862066" lon="17.872094632025">
        <ele>26.8</ele>
        <time>2018-12-15T11:31:38Z</time>
        <extensions><gpxtpx:TrackPointExtension><gpxtpx:hr>137</gpxtpx:hr></gpxtpx:TrackPointExtension></extensions>
      </trkpt>
      <trkpt lat="59.462667444156" lon="17.872072168533">
        <ele>27.2</ele>
        <time>2018-12-15T11:31:41Z</time>
        <extensions><gpxtpx:TrackPointExtension><gpxtpx:hr>140</gpxtpx:hr></gpxtpx:TrackPointExtension></extensions>
      </trkpt>
      <trkpt lat="59.462499051785" lon="17.872018356735">
        <ele>27.2</ele>
        <time>2018-12-15T11:31:44Z</time>
        <extensions><gpxtpx:TrackPointExtension><gpxtpx:hr>141</gpxtpx:hr></gpxtpx:TrackPointExtension></extensions>
      </trkpt>
      <trkpt lat="59.462301825678" lon="17.871992875759">
        <ele>27.2</ele>
        <time>2018-12-15T11:31:47Z</time>
        <extensions><gpxtpx:TrackPointExtension><gpxtpx:hr>144</gpxtpx:hr></gpxtpx:TrackPointExtension></extensions>
      </trkpt>
      <trkpt lat="59.461709560624" lon="17.87191064932">
        <ele>25.8</ele>
        <time>2018-12-15T11:31:56Z</time>
        <extensions><gpxtpx:TrackPointExtension><gpxtpx:hr>146</gpxtpx:hr></gpxtpx:TrackPointExtension></extensions>
      </trkpt>
      <trkpt lat="59.461161971097" lon="17.87185029964">
        <ele>25.4</ele>
        <time>2018-12-15T11:32:04Z</time>
        <extensions><gpxtpx:TrackPointExtension><gpxtpx:hr>146</gpxtpx:hr></gpxtpx:TrackPointExtension></extensions>
      </trkpt>
      <trkpt lat="59.461093407155" lon="17.87184024136">
        <ele>25.2</ele>
        <time>2018-12-15T11:32:05Z</time>
        <extensions><gpxtpx:TrackPointExtension><gpxtpx:hr>146</gpxtpx:hr></gpxtpx:TrackPointExtension></extensions>
      </trkpt>
      <trkpt lat="59.460587810947" lon="17.871838145885">
        <ele>25.4</ele>
        <time>2018-12-15T11:32:13Z</time>
        <extensions><gpxtpx:TrackPointExtension><gpxtpx:hr>149</gpxtpx:hr></gpxtpx:TrackPointExtension></extensions>
      </trkpt>
      <trkpt lat="59.46035873362" lon="17.871888521104">
        <ele>26.2</ele>
        <time>2018-12-15T11:32:17Z</time>
        <extensions><gpxtpx:TrackPointExtension><gpxtpx:hr>152</gpxtpx:hr></gpxtpx:TrackPointExtension></extensions>
      </trkpt>
      <trkpt lat="59.460251948214" lon="17.87186371068">
        <ele>26.4</ele>
        <time>2018-12-15T11:32:19Z</time>
        <extensions><gpxtpx:TrackPointExtension><gpxtpx:hr>153</gpxtpx:hr></gpxtpx:TrackPointExtension></extensions>
      </trkpt>
      <trkpt lat="59.460012309693" lon="17.87180168462">
        <ele>27.2</ele>
        <time>2018-12-15T11:32:24Z</time>
        <extensions><gpxtpx:TrackPointExtension><gpxtpx:hr>155</gpxtpx:hr></gpxtpx:TrackPointExtension></extensions>
      </trkpt>
      <trkpt lat="59.459964951958" lon="17.871782322431">
        <ele>27.4</ele>
        <time>2018-12-15T11:32:25Z</time>
        <extensions><gpxtpx:TrackPointExtension><gpxtpx:hr>155</gpxtpx:hr></gpxtpx:TrackPointExtension></extensions>
      </trkpt>
      <trkpt lat="59.459865794081" lon="17.871756003265">
        <ele>28.4</ele>
        <time>2018-12-15T11:32:27Z</time>
        <extensions><gpxtpx:TrackPointExtension><gpxtpx:hr>156</gpxtpx:hr></gpxtpx:TrackPointExtension></extensions>
      </trkpt>
      <trkpt lat="59.459675022037" lon="17.871845521957">
        <ele>29.6</ele>
        <time>2018-12-15T11:32:31Z</time>
        <extensions><gpxtpx:TrackPointExtension><gpxtpx:hr>157</gpxtpx:hr></gpxtpx:TrackPointExtension></extensions>
      </trkpt>
      <trkpt lat="59.459609224122" lon="17.87198860099">
        <ele>30.2</ele>
        <time>2018-12-15T11:32:33Z</time>
        <extensions><gpxtpx:TrackPointExtension><gpxtpx:hr>158</gpxtpx:hr></gpxtpx:TrackPointExtension></extensions>
      </trkpt>
      <trkpt lat="59.459494643549" lon="17.872218935602">
        <ele>30.6</ele>
        <time>2018-12-15T11:32:36Z</time>
        <extensions><gpxtpx:TrackPointExtension><gpxtpx:hr>159</gpxtpx:hr></gpxtpx:TrackPointExtension></extensions>
      </trkpt>
      <trkpt lat="59.459450051841" lon="17.872285906983">
        <ele>30.8</ele>
        <time>2018-12-15T11:32:37Z</time>
        <extensions><gpxtpx:TrackPointExtension><gpxtpx:hr>159</gpxtpx:hr></gpxtpx:TrackPointExtension></extensions>
      </trkpt>
      <trkpt lat="59.459120391714" lon="17.872718077747">
        <ele>31.2</ele>
        <time>2018-12-15T11:32:44Z</time>
        <extensions><gpxtpx:TrackPointExtension><gpxtpx:hr>161</gpxtpx:hr></gpxtpx:TrackPointExtension></extensions>
      </trkpt>
      <trkpt lat="59.45899583668" lon="17.872900719348">
        <ele>31.2</ele>
        <time>2018-12-15T11:32:47Z</time>
        <extensions><gpxtpx:TrackPointExtension><gpxtpx:hr>161</gpxtpx:hr></gpxtpx:TrackPointExtension></extensions>
      </trkpt>
      <trkpt lat="59.458780589488" lon="17.872985125081">
        <ele>31.2</ele>
        <time>2018-12-15T11:32:51Z</time>
        <extensions><gpxtpx:TrackPointExtension><gpxtpx:hr>160</gpxtpx:hr></gpxtpx:TrackPointExtension></extensions>
      </trkpt>
      <trkpt lat="59.458533491076" lon="17.873041451449">
        <ele>31</ele>
        <time>2018-12-15T11:32:55Z</time>
        <extensions><gpxtpx:TrackPointExtension><gpxtpx:hr>157</gpxtpx:hr></gpxtpx:TrackPointExtension></extensions>
      </trkpt>
      <trkpt lat="59.458466184419" lon="17.873066261873">
        <ele>30.8</ele>
        <time>2018-12-15T11:32:56Z</time>
        <extensions><gpxtpx:TrackPointExtension><gpxtpx:hr>157</gpxtpx:hr></gpxtpx:TrackPointExtension></extensions>
      </trkpt>
      <trkpt lat="59.458165693304" lon="17.873485273054">
        <ele>30.2</ele>
        <time>2018-12-15T11:33:02Z</time>
        <extensions><gpxtpx:TrackPointExtension><gpxtpx:hr>156</gpxtpx:hr></gpxtpx:TrackPointExtension></extensions>
      </trkpt>
      <trkpt lat="59.458113390248" lon="17.873555932471">
        <ele>30</ele>
        <time>2018-12-15T11:33:03Z</time>
        <extensions><gpxtpx:TrackPointExtension><gpxtpx:hr>155</gpxtpx:hr></gpxtpx:TrackPointExtension></extensions>
      </trkpt>
      <trkpt lat="59.458056393328" lon="17.873617539436">
        <ele>29.8</ele>
        <time>2018-12-15T11:33:04Z</time>
        <extensions><gpxtpx:TrackPointExtension><gpxtpx:hr>155</gpxtpx:hr></gpxtpx:TrackPointExtension></extensions>
      </trkpt>
      <trkpt lat="59.457798985179" lon="17.873806467462">
        <ele>29.4</ele>
        <time>2018-12-15T11:33:08Z</time>
        <extensions><gpxtpx:TrackPointExtension><gpxtpx:hr>152</gpxtpx:hr></gpxtpx:TrackPointExtension></extensions>
      </trkpt>
      <trkpt lat="59.45773268435" lon="17.873858351423">
        <ele>29.2</ele>
        <time>2018-12-15T11:33:09Z</time>
        <extensions><gpxtpx:TrackPointExtension><gpxtpx:hr>152</gpxtpx:hr></gpxtpx:TrackPointExtension></extensions>
      </trkpt>
      <trkpt lat="59.457369161347" lon="17.874299574639">
        <ele>28.6</ele>
        <time>2018-12-15T11:33:15Z</time>
        <extensions><gpxtpx:TrackPointExtension><gpxtpx:hr>149</gpxtpx:hr></gpxtpx:TrackPointExtension></extensions>
      </trkpt>
      <trkpt lat="59.4571166147" lon="17.874582631402">
        <ele>27.4</ele>
        <time>2018-12-15T11:33:19Z</time>
        <extensions><gpxtpx:TrackPointExtension><gpxtpx:hr>149</gpxtpx:hr></gpxtpx:TrackPointExtension></extensions>
      </trkpt>
      <trkpt lat="59.456924501552" lon="17.87479234654">
        <ele>27.2</ele>
        <time>2018-12-15T11:33:22Z</time>
        <extensions><gpxtpx:TrackPointExtension><gpxtpx:hr>149</gpxtpx:hr></gpxtpx:TrackPointExtension></extensions>
      </trkpt>
      <trkpt lat="59.456473052418" lon="17.875509753361">
        <ele>27.2</ele>
        <time>2018-12-15T11:33:30Z</time>
        <extensions><gpxtpx:TrackPointExtension><gpxtpx:hr>148</gpxtpx:hr></gpxtpx:TrackPointExtension></extensions>
      </trkpt>
      <trkpt lat="59.456044737328" lon="17.876357331089">
        <ele>27.6</ele>
        <time>2018-12-15T11:33:38Z</time>
        <extensions><gpxtpx:TrackPointExtension><gpxtpx:hr>148</gpxtpx:hr></gpxtpx:TrackPointExtension></extensions>
      </trkpt>
      <trkpt lat="59.455924121787" lon="17.876557071766">
        <ele>27.6</ele>
        <time>2018-12-15T11:33:40Z</time>
        <extensions><gpxtpx:TrackPointExtension><gpxtpx:hr>149</gpxtpx:hr></gpxtpx:TrackPointExtension></extensions>
      </trkpt>
      <trkpt lat="59.455368820912" lon="17.876996702421">
        <ele>27.4</ele>
        <time>2018-12-15T11:33:48Z</time>
        <extensions><gpxtpx:TrackPointExtension><gpxtpx:hr>149</gpxtpx:hr></gpxtpx:TrackPointExtension></extensions>
      </trkpt>
      <trkpt lat="59.454828104543" lon="17.877315466078">
        <ele>27.6</ele>
        <time>2018-12-15T11:33:56Z</time>
        <extensions><gpxtpx:TrackPointExtension><gpxtpx:hr>150</gpxtpx:hr></gpxtpx:TrackPointExtension></extensions>
      </trkpt>
      <trkpt lat="59.454270792012" lon="17.877675217226">
        <ele>28.2</ele>
        <time>2018-12-15T11:34:04Z</time>
        <extensions><gpxtpx:TrackPointExtension><gpxtpx:hr>152</gpxtpx:hr></gpxtpx:TrackPointExtension></extensions>
      </trkpt>
      <trkpt lat="59.454125198409" lon="17.877773369275">
        <ele>28.2</ele>
        <time>2018-12-15T11:34:06Z</time>
        <extensions><gpxtpx:TrackPointExtension><gpxtpx:hr>152</gpxtpx:hr></gpxtpx:TrackPointExtension></extensions>
      </trkpt>
      <trkpt lat="59.453996284787" lon="17.877903540182">
        <ele>28.4</ele>
        <time>2018-12-15T11:34:08Z</time>
        <extensions><gpxtpx:TrackPointExtension><gpxtpx:hr>152</gpxtpx:hr></gpxtpx:TrackPointExtension></extensions>
      </trkpt>
      <trkpt lat="59.453803836363" lon="17.8782490421">
        <ele>28.4</ele>
        <time>2018-12-15T11:34:12Z</time>
        <extensions><gpxtpx:TrackPointExtension><gpxtpx:hr>153</gpxtpx:hr></gpxtpx:TrackPointExtension></extensions>
      </trkpt>
      <trkpt lat="59.453440732455" lon="17.879175493507">
        <ele>29.4</ele>
        <time>2018-12-15T11:34:21Z</time>
        <extensions><gpxtpx:TrackPointExtension><gpxtpx:hr>154</gpxtpx:hr></gpxtpx:TrackPointExtension></extensions>
      </trkpt>
      <trkpt lat="59.45338750739" lon="17.879276914497">
        <ele>29.2</ele>
        <time>2018-12-15T11:34:22Z</time>
        <extensions><gpxtpx:TrackPointExtension><gpxtpx:hr>153</gpxtpx:hr></gpxtpx:TrackPointExtension></extensions>
      </trkpt>
      <trkpt lat="59.453231436412" lon="17.879552259912">
        <ele>29.4</ele>
        <time>2018-12-15T11:34:25Z</time>
        <extensions><gpxtpx:TrackPointExtension><gpxtpx:hr>153</gpxtpx:hr></gpxtpx:TrackPointExtension></extensions>
      </trkpt>
      <trkpt lat="59.453056757616" lon="17.880136981256">
        <ele>28.8</ele>
        <time>2018-12-15T11:34:30Z</time>
        <extensions><gpxtpx:TrackPointExtension><gpxtpx:hr>152</gpxtpx:hr></gpxtpx:TrackPointExtension></extensions>
      </trkpt>
      <trkpt lat="59.452910325823" lon="17.880829996748">
        <ele>28.8</ele>
        <time>2018-12-15T11:34:36Z</time>
        <extensions><gpxtpx:TrackPointExtension><gpxtpx:hr>151</gpxtpx:hr></gpxtpx:TrackPointExtension></extensions>
      </trkpt>
      <trkpt lat="59.452959611395" lon="17.881338778078">
        <ele>29</ele>
        <time>2018-12-15T11:34:40Z</time>
        <extensions><gpxtpx:TrackPointExtension><gpxtpx:hr>152</gpxtpx:hr></gpxtpx:TrackPointExtension></extensions>
      </trkpt>
      <trkpt lat="59.453029684079" lon="17.881719567795">
        <ele>29.2</ele>
        <time>2018-12-15T11:34:43Z</time>
        <extensions><gpxtpx:TrackPointExtension><gpxtpx:hr>152</gpxtpx:hr></gpxtpx:TrackPointExtension></extensions>
      </trkpt>
      <trkpt lat="59.45326764622" lon="17.882727575089">
        <ele>29.2</ele>
        <time>2018-12-15T11:34:51Z</time>
        <extensions><gpxtpx:TrackPointExtension><gpxtpx:hr>151</gpxtpx:hr></gpxtpx:TrackPointExtension></extensions>
      </trkpt>
      <trkpt lat="59.453391279245" lon="17.883254377504">
        <ele>28.6</ele>
        <time>2018-12-15T11:34:55Z</time>
        <extensions><gpxtpx:TrackPointExtension><gpxtpx:hr>150</gpxtpx:hr></gpxtpx:TrackPointExtension></extensions>
      </trkpt>
      <trkpt lat="59.453421956999" lon="17.883384464592">
        <ele>28</ele>
        <time>2018-12-15T11:34:56Z</time>
        <extensions><gpxtpx:TrackPointExtension><gpxtpx:hr>149</gpxtpx:hr></gpxtpx:TrackPointExtension></extensions>
      </trkpt>
      <trkpt lat="59.453466045793" lon="17.883944794607">
        <ele>27.2</ele>
        <time>2018-12-15T11:35:00Z</time>
        <extensions><gpxtpx:TrackPointExtension><gpxtpx:hr>148</gpxtpx:hr></gpxtpx:TrackPointExtension></extensions>
      </trkpt>
      <trkpt lat="59.453457328617" lon="17.884083012138">
        <ele>27.2</ele>
        <time>2018-12-15T11:35:01Z</time>
        <extensions><gpxtpx:TrackPointExtension><gpxtpx:hr>148</gpxtpx:hr></gpxtpx:TrackPointExtension></extensions>
      </trkpt>
      <trkpt lat="59.453441067731" lon="17.884214105054">
        <ele>27</ele>
        <time>2018-12-15T11:35:02Z</time>
        <extensions><gpxtpx:TrackPointExtension><gpxtpx:hr>148</gpxtpx:hr></gpxtpx:TrackPointExtension></extensions>
      </trkpt>
      <trkpt lat="59.453256079198" lon="17.885079200953">
        <ele>26.8</ele>
        <time>2018-12-15T11:35:08Z</time>
        <extensions><gpxtpx:TrackPointExtension><gpxtpx:hr>149</gpxtpx:hr></gpxtpx:TrackPointExtension></extensions>
      </trkpt>
      <trkpt lat="59.453107971025" lon="17.885384469751">
        <ele>26.8</ele>
        <time>2018-12-15T11:35:11Z</time>
        <extensions><gpxtpx:TrackPointExtension><gpxtpx:hr>149</gpxtpx:hr></gpxtpx:TrackPointExtension></extensions>
      </trkpt>
      <trkpt lat="59.452705639825" lon="17.885544899317">
        <ele>26.2</ele>
        <time>2018-12-15T11:35:17Z</time>
        <extensions><gpxtpx:TrackPointExtension><gpxtpx:hr>147</gpxtpx:hr></gpxtpx:TrackPointExtension></extensions>
      </trkpt>
      <trkpt lat="59.452564320991" lon="17.885503828007">
        <ele>25.8</ele>
        <time>2018-12-15T11:35:19Z</time>
        <extensions><gpxtpx:TrackPointExtension><gpxtpx:hr>146</gpxtpx:hr></gpxtpx:TrackPointExtension></extensions>
      </trkpt>
      <trkpt lat="59.452083367569" lon="17.885564010049">
        <ele>25</ele>
        <time>2018-12-15T11:35:26Z</time>
        <extensions><gpxtpx:TrackPointExtension><gpxtpx:hr>146</gpxtpx:hr></gpxtpx:TrackPointExtension></extensions>
      </trkpt>
      <trkpt lat="59.451959147811" lon="17.885646487945">
        <ele>24.8</ele>
        <time>2018-12-15T11:35:28Z</time>
        <extensions><gpxtpx:TrackPointExtension><gpxtpx:hr>147</gpxtpx:hr></gpxtpx:TrackPointExtension></extensions>
      </trkpt>
      <trkpt lat="59.451405690954" lon="17.886027361481">
        <ele>24</ele>
        <time>2018-12-15T11:35:37Z</time>
        <extensions><gpxtpx:TrackPointExtension><gpxtpx:hr>146</gpxtpx:hr></gpxtpx:TrackPointExtension></extensions>
      </trkpt>
      <trkpt lat="59.451144343312" lon="17.886413599433">
        <ele>24</ele>
        <time>2018-12-15T11:35:42Z</time>
        <extensions><gpxtpx:TrackPointExtension><gpxtpx:hr>146</gpxtpx:hr></gpxtpx:TrackPointExtension></extensions>
      </trkpt>
      <trkpt lat="59.451011574016" lon="17.886951885051">
        <ele>23.6</ele>
        <time>2018-12-15T11:35:47Z</time>
        <extensions><gpxtpx:TrackPointExtension><gpxtpx:hr>148</gpxtpx:hr></gpxtpx:TrackPointExtension></extensions>
      </trkpt>
      <trkpt lat="59.450871680105" lon="17.887286658137">
        <ele>23.2</ele>
        <time>2018-12-15T11:35:51Z</time>
        <extensions><gpxtpx:TrackPointExtension><gpxtpx:hr>149</gpxtpx:hr></gpxtpx:TrackPointExtension></extensions>
      </trkpt>
      <trkpt lat="59.450570937533" lon="17.887755206347">
        <ele>23.2</ele>
        <time>2018-12-15T11:35:57Z</time>
        <extensions><gpxtpx:TrackPointExtension><gpxtpx:hr>152</gpxtpx:hr></gpxtpx:TrackPointExtension></extensions>
      </trkpt>
      <trkpt lat="59.450397348384" lon="17.88798629533">
        <ele>24.6</ele>
        <time>2018-12-15T11:36:00Z</time>
        <extensions><gpxtpx:TrackPointExtension><gpxtpx:hr>154</gpxtpx:hr></gpxtpx:TrackPointExtension></extensions>
      </trkpt>
      <trkpt lat="59.450340100007" lon="17.888048237571">
        <ele>24.8</ele>
        <time>2018-12-15T11:36:01Z</time>
        <extensions><gpxtpx:TrackPointExtension><gpxtpx:hr>154</gpxtpx:hr></gpxtpx:TrackPointExtension></extensions>
      </trkpt>
      <trkpt lat="59.449982863429" lon="17.888293659603">
        <ele>25.4</ele>
        <time>2018-12-15T11:36:07Z</time>
        <extensions><gpxtpx:TrackPointExtension><gpxtpx:hr>157</gpxtpx:hr></gpxtpx:TrackPointExtension></extensions>
      </trkpt>
      <trkpt lat="59.449925112138" lon="17.888306819186">
        <ele>25.6</ele>
        <time>2018-12-15T11:36:08Z</time>
        <extensions><gpxtpx:TrackPointExtension><gpxtpx:hr>157</gpxtpx:hr></gpxtpx:TrackPointExtension></extensions>
      </trkpt>
      <trkpt lat="59.449622693186" lon="17.888336742569">
        <ele>26.2</ele>
        <time>2018-12-15T11:36:13Z</time>
        <extensions><gpxtpx:TrackPointExtension><gpxtpx:hr>160</gpxtpx:hr></gpxtpx:TrackPointExtension></extensions>
      </trkpt>
      <trkpt lat="59.449559661298" lon="17.888358200233">
        <ele>26.4</ele>
        <time>2018-12-15T11:36:14Z</time>
        <extensions><gpxtpx:TrackPointExtension><gpxtpx:hr>161</gpxtpx:hr></gpxtpx:TrackPointExtension></extensions>
      </trkpt>
      <trkpt lat="59.449501993826" lon="17.888389632358">
        <ele>27</ele>
        <time>2018-12-15T11:36:15Z</time>
        <extensions><gpxtpx:TrackPointExtension><gpxtpx:hr>161</gpxtpx:hr></gpxtpx:TrackPointExtension></extensions>
      </trkpt>
      <trkpt lat="59.449257242346" lon="17.889084156592">
        <ele>27.8</ele>
        <time>2018-12-15T11:36:22Z</time>
        <extensions><gpxtpx:TrackPointExtension><gpxtpx:hr>163</gpxtpx:hr></gpxtpx:TrackPointExtension></extensions>
      </trkpt>
      <trkpt lat="59.449246597333" lon="17.889211812929">
        <ele>27.8</ele>
        <time>2018-12-15T11:36:23Z</time>
        <extensions><gpxtpx:TrackPointExtension><gpxtpx:hr>163</gpxtpx:hr></gpxtpx:TrackPointExtension></extensions>
      </trkpt>
      <trkpt lat="59.449200077788" lon="17.889595871587">
        <ele>28</ele>
        <time>2018-12-15T11:36:26Z</time>
        <extensions><gpxtpx:TrackPointExtension><gpxtpx:hr>164</gpxtpx:hr></gpxtpx:TrackPointExtension></extensions>
      </trkpt>
      <trkpt lat="59.449138806099" lon="17.889854537021">
        <ele>28</ele>
        <time>2018-12-15T11:36:28Z</time>
        <extensions><gpxtpx:TrackPointExtension><gpxtpx:hr>164</gpxtpx:hr></gpxtpx:TrackPointExtension></extensions>
      </trkpt>
      <trkpt lat="59.448929090961" lon="17.890764811361">
        <ele>28.4</ele>
        <time>2018-12-15T11:36:36Z</time>
        <extensions><gpxtpx:TrackPointExtension><gpxtpx:hr>164</gpxtpx:hr></gpxtpx:TrackPointExtension></extensions>
      </trkpt>
      <trkpt lat="59.448915177007" lon="17.8908889473">
        <ele>29</ele>
        <time>2018-12-15T11:36:37Z</time>
        <extensions><gpxtpx:TrackPointExtension><gpxtpx:hr>164</gpxtpx:hr></gpxtpx:TrackPointExtension></extensions>
      </trkpt>
      <trkpt lat="59.448877207" lon="17.891253308493">
        <ele>30.2</ele>
        <time>2018-12-15T11:36:40Z</time>
        <extensions><gpxtpx:TrackPointExtension><gpxtpx:hr>165</gpxtpx:hr></gpxtpx:TrackPointExtension></extensions>
      </trkpt>
      <trkpt lat="59.448874860068" lon="17.891364620125">
        <ele>30.4</ele>
        <time>2018-12-15T11:36:41Z</time>
        <extensions><gpxtpx:TrackPointExtension><gpxtpx:hr>165</gpxtpx:hr></gpxtpx:TrackPointExtension></extensions>
      </trkpt>
      <trkpt lat="59.448931856988" lon="17.892241283046">
        <ele>30.8</ele>
        <time>2018-12-15T11:36:48Z</time>
        <extensions><gpxtpx:TrackPointExtension><gpxtpx:hr>165</gpxtpx:hr></gpxtpx:TrackPointExtension></extensions>
      </trkpt>
      <trkpt lat="59.44888894166" lon="17.892596005054">
        <ele>31.4</ele>
        <time>2018-12-15T11:36:51Z</time>
        <extensions><gpxtpx:TrackPointExtension><gpxtpx:hr>165</gpxtpx:hr></gpxtpx:TrackPointExtension></extensions>
      </trkpt>
      <trkpt lat="59.448828340523" lon="17.89281846068">
        <ele>31.6</ele>
        <time>2018-12-15T11:36:53Z</time>
        <extensions><gpxtpx:TrackPointExtension><gpxtpx:hr>164</gpxtpx:hr></gpxtpx:TrackPointExtension></extensions>
      </trkpt>
      <trkpt lat="59.448566573786" lon="17.893814565676">
        <ele>32.2</ele>
        <time>2018-12-15T11:37:02Z</time>
        <extensions><gpxtpx:TrackPointExtension><gpxtpx:hr>164</gpxtpx:hr></gpxtpx:TrackPointExtension></extensions>
      </trkpt>
      <trkpt lat="59.448330120387" lon="17.894154200264">
        <ele>32.4</ele>
        <time>2018-12-15T11:37:07Z</time>
        <extensions><gpxtpx:TrackPointExtension><gpxtpx:hr>164</gpxtpx:hr></gpxtpx:TrackPointExtension></extensions>
      </trkpt>
      <trkpt lat="59.448213444339" lon="17.894222848025">
        <ele>32.8</ele>
        <time>2018-12-15T11:37:09Z</time>
        <extensions><gpxtpx:TrackPointExtension><gpxtpx:hr>163</gpxtpx:hr></gpxtpx:TrackPointExtension></extensions>
      </trkpt>
      <trkpt lat="59.44802728234" lon="17.89432049716">
        <ele>33.4</ele>
        <time>2018-12-15T11:37:12Z</time>
        <extensions><gpxtpx:TrackPointExtension><gpxtpx:hr>162</gpxtpx:hr></gpxtpx:TrackPointExtension></extensions>
      </trkpt>
      <trkpt lat="59.447759396816" lon="17.894411776051">
        <ele>33.6</ele>
        <time>2018-12-15T11:37:16Z</time>
        <extensions><gpxtpx:TrackPointExtension><gpxtpx:hr>161</gpxtpx:hr></gpxtpx:TrackPointExtension></extensions>
      </trkpt>
      <trkpt lat="59.447560326691" lon="17.894481764916">
        <ele>33.6</ele>
        <time>2018-12-15T11:37:19Z</time>
        <extensions><gpxtpx:TrackPointExtension><gpxtpx:hr>162</gpxtpx:hr></gpxtpx:TrackPointExtension></extensions>
      </trkpt>
      <trkpt lat="59.447204850312" lon="17.894752416467">
        <ele>33.6</ele>
        <time>2018-12-15T11:37:25Z</time>
        <extensions><gpxtpx:TrackPointExtension><gpxtpx:hr>161</gpxtpx:hr></gpxtpx:TrackPointExtension></extensions>
      </trkpt>
      <trkpt lat="59.446805788053" lon="17.894834056173">
        <ele>33.2</ele>
        <time>2018-12-15T11:37:31Z</time>
        <extensions><gpxtpx:TrackPointExtension><gpxtpx:hr>160</gpxtpx:hr></gpxtpx:TrackPointExtension></extensions>
      </trkpt>
      <trkpt lat="59.4465889483" lon="17.894944781072">
        <ele>33.2</ele>
        <time>2018-12-15T11:37:34Z</time>
        <extensions><gpxtpx:TrackPointExtension><gpxtpx:hr>159</gpxtpx:hr></gpxtpx:TrackPointExtension></extensions>
      </trkpt>
      <trkpt lat="59.446368252873" lon="17.895101019688">
        <ele>32.2</ele>
        <time>2018-12-15T11:37:37Z</time>
        <extensions><gpxtpx:TrackPointExtension><gpxtpx:hr>158</gpxtpx:hr></gpxtpx:TrackPointExtension></extensions>
      </trkpt>
      <trkpt lat="59.446085279929" lon="17.895303777849">
        <ele>30.8</ele>
        <time>2018-12-15T11:37:41Z</time>
        <extensions><gpxtpx:TrackPointExtension><gpxtpx:hr>156</gpxtpx:hr></gpxtpx:TrackPointExtension></extensions>
      </trkpt>
      <trkpt lat="59.445788393031" lon="17.895515672281">
        <ele>29.8</ele>
        <time>2018-12-15T11:37:45Z</time>
        <extensions><gpxtpx:TrackPointExtension><gpxtpx:hr>153</gpxtpx:hr></gpxtpx:TrackPointExtension></extensions>
      </trkpt>
      <trkpt lat="59.445715638139" lon="17.89557526759">
        <ele>29.6</ele>
        <time>2018-12-15T11:37:46Z</time>
        <extensions><gpxtpx:TrackPointExtension><gpxtpx:hr>152</gpxtpx:hr></gpxtpx:TrackPointExtension></extensions>
      </trkpt>
      <trkpt lat="59.445302410469" lon="17.895927977942">
        <ele>28.2</ele>
        <time>2018-12-15T11:37:52Z</time>
        <extensions><gpxtpx:TrackPointExtension><gpxtpx:hr>150</gpxtpx:hr></gpxtpx:TrackPointExtension></extensions>
      </trkpt>
      <trkpt lat="59.445169389716" lon="17.896002660671">
        <ele>27.2</ele>
        <time>2018-12-15T11:37:54Z</time>
        <extensions><gpxtpx:TrackPointExtension><gpxtpx:hr>148</gpxtpx:hr></gpxtpx:TrackPointExtension></extensions>
      </trkpt>
      <trkpt lat="59.444872754275" lon="17.895928397037">
        <ele>26.2</ele>
        <time>2018-12-15T11:37:58Z</time>
        <extensions><gpxtpx:TrackPointExtension><gpxtpx:hr>145</gpxtpx:hr></gpxtpx:TrackPointExtension></extensions>
      </trkpt>
      <trkpt lat="59.444722550627" lon="17.895811218075">
        <ele>26.2</ele>
        <time>2018-12-15T11:38:00Z</time>
        <extensions><gpxtpx:TrackPointExtension><gpxtpx:hr>144</gpxtpx:hr></gpxtpx:TrackPointExtension></extensions>
      </trkpt>
      <trkpt lat="59.444655076332" lon="17.89571775989">
        <ele>26</ele>
        <time>2018-12-15T11:38:01Z</time>
        <extensions><gpxtpx:TrackPointExtension><gpxtpx:hr>143</gpxtpx:hr></gpxtpx:TrackPointExtension></extensions>
      </trkpt>
      <trkpt lat="59.444394818337" lon="17.895366306823">
        <ele>25</ele>
        <time>2018-12-15T11:38:05Z</time>
        <extensions><gpxtpx:TrackPointExtension><gpxtpx:hr>140</gpxtpx:hr></gpxtpx:TrackPointExtension></extensions>
      </trkpt>
      <trkpt lat="59.444179068231" lon="17.895229849491">
        <ele>24.6</ele>
        <time>2018-12-15T11:38:08Z</time>
        <extensions><gpxtpx:TrackPointExtension><gpxtpx:hr>142</gpxtpx:hr></gpxtpx:TrackPointExtension></extensions>
      </trkpt>
      <trkpt lat="59.443944207393" lon="17.895157262237">
        <ele>24</ele>
        <time>2018-12-15T11:38:11Z</time>
        <extensions><gpxtpx:TrackPointExtension><gpxtpx:hr>143</gpxtpx:hr></gpxtpx:TrackPointExtension></extensions>
      </trkpt>
      <trkpt lat="59.443716890265" lon="17.895094565625">
        <ele>23.8</ele>
        <time>2018-12-15T11:38:14Z</time>
        <extensions><gpxtpx:TrackPointExtension><gpxtpx:hr>140</gpxtpx:hr></gpxtpx:TrackPointExtension></extensions>
      </trkpt>
      <trkpt lat="59.443190758402" lon="17.895159860626">
        <ele>23.2</ele>
        <time>2018-12-15T11:38:21Z</time>
        <extensions><gpxtpx:TrackPointExtension><gpxtpx:hr>138</gpxtpx:hr></gpxtpx:TrackPointExtension></extensions>
      </trkpt>
      <trkpt lat="59.443061258047" lon="17.895244266359">
        <ele>22.8</ele>
        <time>2018-12-15T11:38:23Z</time>
        <extensions><gpxtpx:TrackPointExtension><gpxtpx:hr>136</gpxtpx:hr></gpxtpx:TrackPointExtension></extensions>
      </trkpt>
      <trkpt lat="59.442954137365" lon="17.895386507202">
        <ele>22.4</ele>
        <time>2018-12-15T11:38:25Z</time>
        <extensions><gpxtpx:TrackPointExtension><gpxtpx:hr>132</gpxtpx:hr></gpxtpx:TrackPointExtension></extensions>
      </trkpt>
      <trkpt lat="59.442868474347" lon="17.895562108007">
        <ele>22.4</ele>
        <time>2018-12-15T11:38:27Z</time>
        <extensions><gpxtpx:TrackPointExtension><gpxtpx:hr>130</gpxtpx:hr></gpxtpx:TrackPointExtension></extensions>
      </trkpt>
      <trkpt lat="59.442683318176" lon="17.895940047878">
        <ele>22.2</ele>
        <time>2018-12-15T11:38:31Z</time>
        <extensions><gpxtpx:TrackPointExtension><gpxtpx:hr>133</gpxtpx:hr></gpxtpx:TrackPointExtension></extensions>
      </trkpt>
      <trkpt lat="59.442489444829" lon="17.896279179552">
        <ele>22</ele>
        <time>2018-12-15T11:38:35Z</time>
        <extensions><gpxtpx:TrackPointExtension><gpxtpx:hr>136</gpxtpx:hr></gpxtpx:TrackPointExtension></extensions>
      </trkpt>
      <trkpt lat="59.442362207587" lon="17.896514124209">
        <ele>22</ele>
        <time>2018-12-15T11:38:38Z</time>
        <extensions><gpxtpx:TrackPointExtension><gpxtpx:hr>140</gpxtpx:hr></gpxtpx:TrackPointExtension></extensions>
      </trkpt>
      <trkpt lat="59.442231114671" lon="17.896737418025">
        <ele>22.2</ele>
        <time>2018-12-15T11:38:41Z</time>
        <extensions><gpxtpx:TrackPointExtension><gpxtpx:hr>143</gpxtpx:hr></gpxtpx:TrackPointExtension></extensions>
      </trkpt>
      <trkpt lat="59.442108655112" lon="17.896979738754">
        <ele>22.8</ele>
        <time>2018-12-15T11:38:44Z</time>
        <extensions><gpxtpx:TrackPointExtension><gpxtpx:hr>146</gpxtpx:hr></gpxtpx:TrackPointExtension></extensions>
      </trkpt>
      <trkpt lat="59.441994158358" lon="17.897237565998">
        <ele>24.4</ele>
        <time>2018-12-15T11:38:47Z</time>
        <extensions><gpxtpx:TrackPointExtension><gpxtpx:hr>148</gpxtpx:hr></gpxtpx:TrackPointExtension></extensions>
      </trkpt>
      <trkpt lat="59.441845547271" lon="17.897599664078">
        <ele>25.6</ele>
        <time>2018-12-15T11:38:51Z</time>
        <extensions><gpxtpx:TrackPointExtension><gpxtpx:hr>150</gpxtpx:hr></gpxtpx:TrackPointExtension></extensions>
      </trkpt>
      <trkpt lat="59.441502643742" lon="17.898475656447">
        <ele>26.4</ele>
        <time>2018-12-15T11:39:01Z</time>
        <extensions><gpxtpx:TrackPointExtension><gpxtpx:hr>150</gpxtpx:hr></gpxtpx:TrackPointExtension></extensions>
      </trkpt>
      <trkpt lat="59.441308016024" lon="17.898366607928">
        <ele>26.6</ele>
        <time>2018-12-15T11:39:05Z</time>
        <extensions><gpxtpx:TrackPointExtension><gpxtpx:hr>149</gpxtpx:hr></gpxtpx:TrackPointExtension></extensions>
      </trkpt>
      <trkpt lat="59.440854387596" lon="17.897978609777">
        <ele>26.2</ele>
        <time>2018-12-15T11:39:11Z</time>
        <extensions><gpxtpx:TrackPointExtension><gpxtpx:hr>146</gpxtpx:hr></gpxtpx:TrackPointExtension></extensions>
      </trkpt>
      <trkpt lat="59.440595554524" lon="17.89778473643">
        <ele>24.4</ele>
        <time>2018-12-15T11:39:14Z</time>
        <extensions><gpxtpx:TrackPointExtension><gpxtpx:hr>144</gpxtpx:hr></gpxtpx:TrackPointExtension></extensions>
      </trkpt>
      <trkpt lat="59.440509723868" lon="17.897723967655">
        <ele>22.6</ele>
        <time>2018-12-15T11:39:15Z</time>
        <extensions><gpxtpx:TrackPointExtension><gpxtpx:hr>143</gpxtpx:hr></gpxtpx:TrackPointExtension></extensions>
      </trkpt>
      <trkpt lat="59.440337475823" lon="17.897608045978">
        <ele>21</ele>
        <time>2018-12-15T11:39:17Z</time>
        <extensions><gpxtpx:TrackPointExtension><gpxtpx:hr>143</gpxtpx:hr></gpxtpx:TrackPointExtension></extensions>
      </trkpt>
      <trkpt lat="59.440168831995" lon="17.8974938845">
        <ele>19.2</ele>
        <time>2018-12-15T11:39:19Z</time>
        <extensions><gpxtpx:TrackPointExtension><gpxtpx:hr>143</gpxtpx:hr></gpxtpx:TrackPointExtension></extensions>
      </trkpt>
      <trkpt lat="59.440013096293" lon="17.897367653086">
        <ele>18.2</ele>
        <time>2018-12-15T11:39:21Z</time>
        <extensions><gpxtpx:TrackPointExtension><gpxtpx:hr>145</gpxtpx:hr></gpxtpx:TrackPointExtension></extensions>
      </trkpt>
      <trkpt lat="59.439747557701" lon="17.897104461426">
        <ele>17.8</ele>
        <time>2018-12-15T11:39:25Z</time>
        <extensions><gpxtpx:TrackPointExtension><gpxtpx:hr>147</gpxtpx:hr></gpxtpx:TrackPointExtension></extensions>
      </trkpt>
      <trkpt lat="59.439530801767" lon="17.896658795803">
        <ele>17.8</ele>
        <time>2018-12-15T11:39:30Z</time>
        <extensions><gpxtpx:TrackPointExtension><gpxtpx:hr>150</gpxtpx:hr></gpxtpx:TrackPointExtension></extensions>
      </trkpt>
      <trkpt lat="59.439393841521" lon="17.896355371023">
        <ele>19.6</ele>
        <time>2018-12-15T11:39:33Z</time>
        <extensions><gpxtpx:TrackPointExtension><gpxtpx:hr>151</gpxtpx:hr></gpxtpx:TrackPointExtension></extensions>
      </trkpt>
      <trkpt lat="59.438993773434" lon="17.895483569604">
        <ele>20</ele>
        <time>2018-12-15T11:39:41Z</time>
        <extensions><gpxtpx:TrackPointExtension><gpxtpx:hr>149</gpxtpx:hr></gpxtpx:TrackPointExtension></extensions>
      </trkpt>
      <trkpt lat="59.438616420296" lon="17.894695419547">
        <ele>19.8</ele>
        <time>2018-12-15T11:39:50Z</time>
        <extensions><gpxtpx:TrackPointExtension><gpxtpx:hr>149</gpxtpx:hr></gpxtpx:TrackPointExtension></extensions>
      </trkpt>
      <trkpt lat="59.438205958653" lon="17.893845411068">
        <ele>19.4</ele>
        <time>2018-12-15T11:39:58Z</time>
        <extensions><gpxtpx:TrackPointExtension><gpxtpx:hr>150</gpxtpx:hr></gpxtpx:TrackPointExtension></extensions>
      </trkpt>
      <trkpt lat="59.438055168272" lon="17.893532347103">
        <ele>18.4</ele>
        <time>2018-12-15T11:40:01Z</time>
        <extensions><gpxtpx:TrackPointExtension><gpxtpx:hr>148</gpxtpx:hr></gpxtpx:TrackPointExtension></extensions>
      </trkpt>
      <trkpt lat="59.437868754816" lon="17.89315373668">
        <ele>17.4</ele>
        <time>2018-12-15T11:40:05Z</time>
        <extensions><gpxtpx:TrackPointExtension><gpxtpx:hr>145</gpxtpx:hr></gpxtpx:TrackPointExtension></extensions>
      </trkpt>
      <trkpt lat="59.437824666022" lon="17.89306405035">
        <ele>17.4</ele>
        <time>2018-12-15T11:40:06Z</time>
        <extensions><gpxtpx:TrackPointExtension><gpxtpx:hr>145</gpxtpx:hr></gpxtpx:TrackPointExtension></extensions>
      </trkpt>
      <trkpt lat="59.437395009828" lon="17.892366257175">
        <ele>17.4</ele>
        <time>2018-12-15T11:40:14Z</time>
        <extensions><gpxtpx:TrackPointExtension><gpxtpx:hr>146</gpxtpx:hr></gpxtpx:TrackPointExtension></extensions>
      </trkpt>
      <trkpt lat="59.437225611629" lon="17.892096276176">
        <ele>17.2</ele>
        <time>2018-12-15T11:40:17Z</time>
        <extensions><gpxtpx:TrackPointExtension><gpxtpx:hr>149</gpxtpx:hr></gpxtpx:TrackPointExtension></extensions>
      </trkpt>
      <trkpt lat="59.436961833236" lon="17.891675588615">
        <ele>17.2</ele>
        <time>2018-12-15T11:40:22Z</time>
        <extensions><gpxtpx:TrackPointExtension><gpxtpx:hr>152</gpxtpx:hr></gpxtpx:TrackPointExtension></extensions>
      </trkpt>
      <trkpt lat="59.436593448731" lon="17.891428574022">
        <ele>17</ele>
        <time>2018-12-15T11:40:27Z</time>
        <extensions><gpxtpx:TrackPointExtension><gpxtpx:hr>155</gpxtpx:hr></gpxtpx:TrackPointExtension></extensions>
      </trkpt>
      <trkpt lat="59.436263537147" lon="17.891181559429">
        <ele>17</ele>
        <time>2018-12-15T11:40:31Z</time>
        <extensions><gpxtpx:TrackPointExtension><gpxtpx:hr>159</gpxtpx:hr></gpxtpx:TrackPointExtension></extensions>
      </trkpt>
      <trkpt lat="59.436026161739" lon="17.89102724865">
        <ele>17</ele>
        <time>2018-12-15T11:40:34Z</time>
        <extensions><gpxtpx:TrackPointExtension><gpxtpx:hr>163</gpxtpx:hr></gpxtpx:TrackPointExtension></extensions>
      </trkpt>
      <trkpt lat="59.435773615092" lon="17.890916691389">
        <ele>17</ele>
        <time>2018-12-15T11:40:37Z</time>
        <extensions><gpxtpx:TrackPointExtension><gpxtpx:hr>166</gpxtpx:hr></gpxtpx:TrackPointExtension></extensions>
      </trkpt>
      <trkpt lat="59.435687532979" lon="17.890866735265">
        <ele>17</ele>
        <time>2018-12-15T11:40:38Z</time>
        <extensions><gpxtpx:TrackPointExtension><gpxtpx:hr>167</gpxtpx:hr></gpxtpx:TrackPointExtension></extensions>
      </trkpt>
      <trkpt lat="59.435429621916" lon="17.890766739198">
        <ele>17</ele>
        <time>2018-12-15T11:40:41Z</time>
        <extensions><gpxtpx:TrackPointExtension><gpxtpx:hr>170</gpxtpx:hr></gpxtpx:TrackPointExtension></extensions>
      </trkpt>
      <trkpt lat="59.435137847977" lon="17.890678058696">
        <ele>17</ele>
        <time>2018-12-15T11:40:45Z</time>
        <extensions><gpxtpx:TrackPointExtension><gpxtpx:hr>172</gpxtpx:hr></gpxtpx:TrackPointExtension></extensions>
      </trkpt>
      <trkpt lat="59.435011113649" lon="17.890601280492">
        <ele>17.4</ele>
        <time>2018-12-15T11:40:47Z</time>
        <extensions><gpxtpx:TrackPointExtension><gpxtpx:hr>172</gpxtpx:hr></gpxtpx:TrackPointExtension></extensions>
      </trkpt>
      <trkpt lat="59.434830902799" lon="17.890579990466">
        <ele>17.8</ele>
        <time>2018-12-15T11:40:50Z</time>
        <extensions><gpxtpx:TrackPointExtension><gpxtpx:hr>173</gpxtpx:hr></gpxtpx:TrackPointExtension></extensions>
      </trkpt>
      <trkpt lat="59.434605429689" lon="17.890378154314">
        <ele>18.8</ele>
        <time>2018-12-15T11:40:54Z</time>
        <extensions><gpxtpx:TrackPointExtension><gpxtpx:hr>174</gpxtpx:hr></gpxtpx:TrackPointExtension></extensions>
      </trkpt>
      <trkpt lat="59.434548516588" lon="17.890323755783">
        <ele>19.2</ele>
        <time>2018-12-15T11:40:55Z</time>
        <extensions><gpxtpx:TrackPointExtension><gpxtpx:hr>174</gpxtpx:hr></gpxtpx:TrackPointExtension></extensions>
      </trkpt>
      <trkpt lat="59.434422201355" lon="17.890252425814">
        <ele>19.8</ele>
        <time>2018-12-15T11:40:57Z</time>
        <extensions><gpxtpx:TrackPointExtension><gpxtpx:hr>174</gpxtpx:hr></gpxtpx:TrackPointExtension></extensions>
      </trkpt>
      <trkpt lat="59.434038394154" lon="17.889906756258">
        <ele>20.8</ele>
        <time>2018-12-15T11:41:04Z</time>
        <extensions><gpxtpx:TrackPointExtension><gpxtpx:hr>174</gpxtpx:hr></gpxtpx:TrackPointExtension></extensions>
      </trkpt>
      <trkpt lat="59.433923394486" lon="17.88978840383">
        <ele>21.2</ele>
        <time>2018-12-15T11:41:07Z</time>
        <extensions><gpxtpx:TrackPointExtension><gpxtpx:hr>174</gpxtpx:hr></gpxtpx:TrackPointExtension></extensions>
      </trkpt>
      <trkpt lat="59.433885256841" lon="17.889769796012">
        <ele>21.4</ele>
        <time>2018-12-15T11:41:08Z</time>
        <extensions><gpxtpx:TrackPointExtension><gpxtpx:hr>174</gpxtpx:hr></gpxtpx:TrackPointExtension></extensions>
      </trkpt>
      <trkpt lat="59.433791128104" lon="17.88971380492">
        <ele>22</ele>
        <time>2018-12-15T11:41:10Z</time>
        <extensions><gpxtpx:TrackPointExtension><gpxtpx:hr>174</gpxtpx:hr></gpxtpx:TrackPointExtension></extensions>
      </trkpt>
      <trkpt lat="59.433700603584" lon="17.889634679784">
        <ele>23.8</ele>
        <time>2018-12-15T11:41:12Z</time>
        <extensions><gpxtpx:TrackPointExtension><gpxtpx:hr>175</gpxtpx:hr></gpxtpx:TrackPointExtension></extensions>
      </trkpt>
      <trkpt lat="59.433652910573" lon="17.889609534084">
        <ele>24.6</ele>
        <time>2018-12-15T11:41:13Z</time>
        <extensions><gpxtpx:TrackPointExtension><gpxtpx:hr>175</gpxtpx:hr></gpxtpx:TrackPointExtension></extensions>
      </trkpt>
      <trkpt lat="59.433610498159" lon="17.88957634176">
        <ele>25.4</ele>
        <time>2018-12-15T11:41:14Z</time>
        <extensions><gpxtpx:TrackPointExtension><gpxtpx:hr>175</gpxtpx:hr></gpxtpx:TrackPointExtension></extensions>
      </trkpt>
      <trkpt lat="59.433472783542" lon="17.889444913568">
        <ele>26.4</ele>
        <time>2018-12-15T11:41:17Z</time>
        <extensions><gpxtpx:TrackPointExtension><gpxtpx:hr>175</gpxtpx:hr></gpxtpx:TrackPointExtension></extensions>
      </trkpt>
      <trkpt lat="59.433340014246" lon="17.889278029939">
        <ele>27.2</ele>
        <time>2018-12-15T11:41:20Z</time>
        <extensions><gpxtpx:TrackPointExtension><gpxtpx:hr>175</gpxtpx:hr></gpxtpx:TrackPointExtension></extensions>
      </trkpt>
      <trkpt lat="59.433213615194" lon="17.88908767699">
        <ele>27.4</ele>
        <time>2018-12-15T11:41:23Z</time>
        <extensions><gpxtpx:TrackPointExtension><gpxtpx:hr>175</gpxtpx:hr></gpxtpx:TrackPointExtension></extensions>
      </trkpt>
      <trkpt lat="59.433110601643" lon="17.888851977962">
        <ele>28</ele>
        <time>2018-12-15T11:41:26Z</time>
        <extensions><gpxtpx:TrackPointExtension><gpxtpx:hr>175</gpxtpx:hr></gpxtpx:TrackPointExtension></extensions>
      </trkpt>
      <trkpt lat="59.432953608656" lon="17.888456687558">
        <ele>28.4</ele>
        <time>2018-12-15T11:41:31Z</time>
        <extensions><gpxtpx:TrackPointExtension><gpxtpx:hr>175</gpxtpx:hr></gpxtpx:TrackPointExtension></extensions>
      </trkpt>
      <trkpt lat="59.432886469637" lon="17.888291647947">
        <ele>28.4</ele>
        <time>2018-12-15T11:41:33Z</time>
        <extensions><gpxtpx:TrackPointExtension><gpxtpx:hr>175</gpxtpx:hr></gpxtpx:TrackPointExtension></extensions>
      </trkpt>
      <trkpt lat="59.432822180464" lon="17.888125602508">
        <ele>28.6</ele>
        <time>2018-12-15T11:41:35Z</time>
        <extensions><gpxtpx:TrackPointExtension><gpxtpx:hr>175</gpxtpx:hr></gpxtpx:TrackPointExtension></extensions>
      </trkpt>
      <trkpt lat="59.432784545733" lon="17.888044381897">
        <ele>29.6</ele>
        <time>2018-12-15T11:41:36Z</time>
        <extensions><gpxtpx:TrackPointExtension><gpxtpx:hr>175</gpxtpx:hr></gpxtpx:TrackPointExtension></extensions>
      </trkpt>
      <trkpt lat="59.432627385108" lon="17.887728971">
        <ele>30.8</ele>
        <time>2018-12-15T11:41:40Z</time>
        <extensions><gpxtpx:TrackPointExtension><gpxtpx:hr>175</gpxtpx:hr></gpxtpx:TrackPointExtension></extensions>
      </trkpt>
      <trkpt lat="59.432572399844" lon="17.887537109309">
        <ele>31.4</ele>
        <time>2018-12-15T11:41:42Z</time>
        <extensions><gpxtpx:TrackPointExtension><gpxtpx:hr>175</gpxtpx:hr></gpxtpx:TrackPointExtension></extensions>
      </trkpt>
      <trkpt lat="59.432533759285" lon="17.88734088903">
        <ele>31.8</ele>
        <time>2018-12-15T11:41:44Z</time>
        <extensions><gpxtpx:TrackPointExtension><gpxtpx:hr>174</gpxtpx:hr></gpxtpx:TrackPointExtension></extensions>
      </trkpt>
      <trkpt lat="59.432518085132" lon="17.88724114442">
        <ele>32</ele>
        <time>2018-12-15T11:41:45Z</time>
        <extensions><gpxtpx:TrackPointExtension><gpxtpx:hr>174</gpxtpx:hr></gpxtpx:TrackPointExtension></extensions>
      </trkpt>
      <trkpt lat="59.432458238366" lon="17.886970325231">
        <ele>32.6</ele>
        <time>2018-12-15T11:41:48Z</time>
        <extensions><gpxtpx:TrackPointExtension><gpxtpx:hr>173</gpxtpx:hr></gpxtpx:TrackPointExtension></extensions>
      </trkpt>
      <trkpt lat="59.432387746587" lon="17.886756754419">
        <ele>33</ele>
        <time>2018-12-15T11:41:51Z</time>
        <extensions><gpxtpx:TrackPointExtension><gpxtpx:hr>172</gpxtpx:hr></gpxtpx:TrackPointExtension></extensions>
      </trkpt>
      <trkpt lat="59.432355476272" lon="17.886599761432">
        <ele>33.4</ele>
        <time>2018-12-15T11:41:53Z</time>
        <extensions><gpxtpx:TrackPointExtension><gpxtpx:hr>171</gpxtpx:hr></gpxtpx:TrackPointExtension></extensions>
      </trkpt>
      <trkpt lat="59.432295461868" lon="17.88616742303">
        <ele>33.6</ele>
        <time>2018-12-15T11:41:57Z</time>
        <extensions><gpxtpx:TrackPointExtension><gpxtpx:hr>168</gpxtpx:hr></gpxtpx:TrackPointExtension></extensions>
      </trkpt>
      <trkpt lat="59.432264784114" lon="17.885973382045">
        <ele>33.6</ele>
        <time>2018-12-15T11:41:59Z</time>
        <extensions><gpxtpx:TrackPointExtension><gpxtpx:hr>167</gpxtpx:hr></gpxtpx:TrackPointExtension></extensions>
      </trkpt>
      <trkpt lat="59.432106785299" lon="17.885922168636">
        <ele>32.4</ele>
        <time>2018-12-15T11:42:04Z</time>
        <extensions><gpxtpx:TrackPointExtension><gpxtpx:hr>165</gpxtpx:hr></gpxtpx:TrackPointExtension></extensions>
      </trkpt>
      <trkpt lat="59.432015171132" lon="17.885949745087">
        <ele>31.6</ele>
        <time>2018-12-15T11:42:06Z</time>
        <extensions><gpxtpx:TrackPointExtension><gpxtpx:hr>163</gpxtpx:hr></gpxtpx:TrackPointExtension></extensions>
      </trkpt>
      <trkpt lat="59.43192146149" lon="17.88598721218">
        <ele>30.4</ele>
        <time>2018-12-15T11:42:08Z</time>
        <extensions><gpxtpx:TrackPointExtension><gpxtpx:hr>163</gpxtpx:hr></gpxtpx:TrackPointExtension></extensions>
      </trkpt>
      <trkpt lat="59.431761618657" lon="17.886050495525">
        <ele>29.4</ele>
        <time>2018-12-15T11:42:12Z</time>
        <extensions><gpxtpx:TrackPointExtension><gpxtpx:hr>160</gpxtpx:hr></gpxtpx:TrackPointExtension></extensions>
      </trkpt>
      <trkpt lat="59.431704957013" lon="17.886098272355">
        <ele>28.8</ele>
        <time>2018-12-15T11:42:14Z</time>
        <extensions><gpxtpx:TrackPointExtension><gpxtpx:hr>157</gpxtpx:hr></gpxtpx:TrackPointExtension></extensions>
      </trkpt>
      <trkpt lat="59.431641338392" lon="17.8861615557">
        <ele>28.2</ele>
        <time>2018-12-15T11:42:16Z</time>
        <extensions><gpxtpx:TrackPointExtension><gpxtpx:hr>155</gpxtpx:hr></gpxtpx:TrackPointExtension></extensions>
      </trkpt>
      <trkpt lat="59.431601775824" lon="17.886192484911">
        <ele>27.8</ele>
        <time>2018-12-15T11:42:17Z</time>
        <extensions><gpxtpx:TrackPointExtension><gpxtpx:hr>154</gpxtpx:hr></gpxtpx:TrackPointExtension></extensions>
      </trkpt>
      <trkpt lat="59.431459534981" lon="17.886258953378">
        <ele>27.4</ele>
        <time>2018-12-15T11:42:20Z</time>
        <extensions><gpxtpx:TrackPointExtension><gpxtpx:hr>150</gpxtpx:hr></gpxtpx:TrackPointExtension></extensions>
      </trkpt>
      <trkpt lat="59.431405555545" lon="17.886281668327">
        <ele>27.4</ele>
        <time>2018-12-15T11:42:21Z</time>
        <extensions><gpxtpx:TrackPointExtension><gpxtpx:hr>148</gpxtpx:hr></gpxtpx:TrackPointExtension></extensions>
      </trkpt>
      <trkpt lat="59.431301284709" lon="17.886370516467">
        <ele>27.2</ele>
        <time>2018-12-15T11:42:23Z</time>
        <extensions><gpxtpx:TrackPointExtension><gpxtpx:hr>144</gpxtpx:hr></gpxtpx:TrackPointExtension></extensions>
      </trkpt>
      <trkpt lat="59.431249819843" lon="17.886433883631">
        <ele>27</ele>
        <time>2018-12-15T11:42:24Z</time>
        <extensions><gpxtpx:TrackPointExtension><gpxtpx:hr>143</gpxtpx:hr></gpxtpx:TrackPointExtension></extensions>
      </trkpt>
      <trkpt lat="59.431138508211" lon="17.886589116419">
        <ele>26.6</ele>
        <time>2018-12-15T11:42:26Z</time>
        <extensions><gpxtpx:TrackPointExtension><gpxtpx:hr>139</gpxtpx:hr></gpxtpx:TrackPointExtension></extensions>
      </trkpt>
      <trkpt lat="59.431037087221" lon="17.886768656717">
        <ele>26</ele>
        <time>2018-12-15T11:42:28Z</time>
        <extensions><gpxtpx:TrackPointExtension><gpxtpx:hr>139</gpxtpx:hr></gpxtpx:TrackPointExtension></extensions>
      </trkpt>
      <trkpt lat="59.43084606372" lon="17.887022544468">
        <ele>24.8</ele>
        <time>2018-12-15T11:42:31Z</time>
        <extensions><gpxtpx:TrackPointExtension><gpxtpx:hr>136</gpxtpx:hr></gpxtpx:TrackPointExtension></extensions>
      </trkpt>
      <trkpt lat="59.430776913045" lon="17.887075098981">
        <ele>23.6</ele>
        <time>2018-12-15T11:42:32Z</time>
        <extensions><gpxtpx:TrackPointExtension><gpxtpx:hr>135</gpxtpx:hr></gpxtpx:TrackPointExtension></extensions>
      </trkpt>
      <trkpt lat="59.430586643915" lon="17.887117679033">
        <ele>22.2</ele>
        <time>2018-12-15T11:42:35Z</time>
        <extensions><gpxtpx:TrackPointExtension><gpxtpx:hr>132</gpxtpx:hr></gpxtpx:TrackPointExtension></extensions>
      </trkpt>
      <trkpt lat="59.43043283605" lon="17.887338793555">
        <ele>20.8</ele>
        <time>2018-12-15T11:42:38Z</time>
        <extensions><gpxtpx:TrackPointExtension><gpxtpx:hr>130</gpxtpx:hr></gpxtpx:TrackPointExtension></extensions>
      </trkpt>
      <trkpt lat="59.430393105844" lon="17.887443064391">
        <ele>20.4</ele>
        <time>2018-12-15T11:42:39Z</time>
        <extensions><gpxtpx:TrackPointExtension><gpxtpx:hr>130</gpxtpx:hr></gpxtpx:TrackPointExtension></extensions>
      </trkpt>
      <trkpt lat="59.430356393122" lon="17.887554711299">
        <ele>20.2</ele>
        <time>2018-12-15T11:42:40Z</time>
        <extensions><gpxtpx:TrackPointExtension><gpxtpx:hr>130</gpxtpx:hr></gpxtpx:TrackPointExtension></extensions>
      </trkpt>
      <trkpt lat="59.430175679358" lon="17.888040107128">
        <ele>19.8</ele>
        <time>2018-12-15T11:42:44Z</time>
        <extensions><gpxtpx:TrackPointExtension><gpxtpx:hr>129</gpxtpx:hr></gpxtpx:TrackPointExtension></extensions>
      </trkpt>
      <trkpt lat="59.42999446268" lon="17.888527682251">
        <ele>18.6</ele>
        <time>2018-12-15T11:42:48Z</time>
        <extensions><gpxtpx:TrackPointExtension><gpxtpx:hr>131</gpxtpx:hr></gpxtpx:TrackPointExtension></extensions>
      </trkpt>
      <trkpt lat="59.429907458558" lon="17.888764806202">
        <ele>17.4</ele>
        <time>2018-12-15T11:42:50Z</time>
        <extensions><gpxtpx:TrackPointExtension><gpxtpx:hr>132</gpxtpx:hr></gpxtpx:TrackPointExtension></extensions>
      </trkpt>
      <trkpt lat="59.42974719663" lon="17.889257326646">
        <ele>16.6</ele>
        <time>2018-12-15T11:42:55Z</time>
        <extensions><gpxtpx:TrackPointExtension><gpxtpx:hr>136</gpxtpx:hr></gpxtpx:TrackPointExtension></extensions>
      </trkpt>
      <trkpt lat="59.429683829466" lon="17.889471400372">
        <ele>16.6</ele>
        <time>2018-12-15T11:42:58Z</time>
        <extensions><gpxtpx:TrackPointExtension><gpxtpx:hr>140</gpxtpx:hr></gpxtpx:TrackPointExtension></extensions>
      </trkpt>
      <trkpt lat="59.429633957161" lon="17.889674577628">
        <ele>17.4</ele>
        <time>2018-12-15T11:43:01Z</time>
        <extensions><gpxtpx:TrackPointExtension><gpxtpx:hr>143</gpxtpx:hr></gpxtpx:TrackPointExtension></extensions>
      </trkpt>
      <trkpt lat="59.429604117597" lon="17.889812459883">
        <ele>18.8</ele>
        <time>2018-12-15T11:43:03Z</time>
        <extensions><gpxtpx:TrackPointExtension><gpxtpx:hr>145</gpxtpx:hr></gpxtpx:TrackPointExtension></extensions>
      </trkpt>
      <trkpt lat="59.429566818142" lon="17.889952605251">
        <ele>20.2</ele>
        <time>2018-12-15T11:43:05Z</time>
        <extensions><gpxtpx:TrackPointExtension><gpxtpx:hr>147</gpxtpx:hr></gpxtpx:TrackPointExtension></extensions>
      </trkpt>
      <trkpt lat="59.429512251973" lon="17.890081602692">
        <ele>21.6</ele>
        <time>2018-12-15T11:43:07Z</time>
        <extensions><gpxtpx:TrackPointExtension><gpxtpx:hr>149</gpxtpx:hr></gpxtpx:TrackPointExtension></extensions>
      </trkpt>
      <trkpt lat="59.429433965027" lon="17.890319061919">
        <ele>22.6</ele>
        <time>2018-12-15T11:43:10Z</time>
        <extensions><gpxtpx:TrackPointExtension><gpxtpx:hr>151</gpxtpx:hr></gpxtpx:TrackPointExtension></extensions>
      </trkpt>
      <trkpt lat="59.429045547781" lon="17.891225732042">
        <ele>23</ele>
        <time>2018-12-15T11:43:20Z</time>
        <extensions><gpxtpx:TrackPointExtension><gpxtpx:hr>151</gpxtpx:hr></gpxtpx:TrackPointExtension></extensions>
      </trkpt>
      <trkpt lat="59.428680432217" lon="17.892057467979">
        <ele>21</ele>
        <time>2018-12-15T11:43:28Z</time>
        <extensions><gpxtpx:TrackPointExtension><gpxtpx:hr>148</gpxtpx:hr></gpxtpx:TrackPointExtension></extensions>
      </trkpt>
      <trkpt lat="59.428411205589" lon="17.892690888162">
        <ele>19.8</ele>
        <time>2018-12-15T11:43:34Z</time>
        <extensions><gpxtpx:TrackPointExtension><gpxtpx:hr>146</gpxtpx:hr></gpxtpx:TrackPointExtension></extensions>
      </trkpt>
      <trkpt lat="59.428276676094" lon="17.893044520523">
        <ele>19.8</ele>
        <time>2018-12-15T11:43:37Z</time>
        <extensions><gpxtpx:TrackPointExtension><gpxtpx:hr>145</gpxtpx:hr></gpxtpx:TrackPointExtension></extensions>
      </trkpt>
      <trkpt lat="59.42785875456" lon="17.893777433859">
        <ele>19.8</ele>
        <time>2018-12-15T11:43:44Z</time>
        <extensions><gpxtpx:TrackPointExtension><gpxtpx:hr>146</gpxtpx:hr></gpxtpx:TrackPointExtension></extensions>
      </trkpt>
      <trkpt lat="59.427356511112" lon="17.894439352502">
        <ele>19.2</ele>
        <time>2018-12-15T11:43:51Z</time>
        <extensions><gpxtpx:TrackPointExtension><gpxtpx:hr>147</gpxtpx:hr></gpxtpx:TrackPointExtension></extensions>
      </trkpt>
      <trkpt lat="59.427071861788" lon="17.894807820826">
        <ele>19</ele>
        <time>2018-12-15T11:43:55Z</time>
        <extensions><gpxtpx:TrackPointExtension><gpxtpx:hr>148</gpxtpx:hr></gpxtpx:TrackPointExtension></extensions>
      </trkpt>
      <trkpt lat="59.426602391569" lon="17.895534112461">
        <ele>18.8</ele>
        <time>2018-12-15T11:44:02Z</time>
        <extensions><gpxtpx:TrackPointExtension><gpxtpx:hr>149</gpxtpx:hr></gpxtpx:TrackPointExtension></extensions>
      </trkpt>
      <trkpt lat="59.426358143003" lon="17.896353359367">
        <ele>18.8</ele>
        <time>2018-12-15T11:44:09Z</time>
        <extensions><gpxtpx:TrackPointExtension><gpxtpx:hr>146</gpxtpx:hr></gpxtpx:TrackPointExtension></extensions>
      </trkpt>
      <trkpt lat="59.426302571006" lon="17.896546813619">
        <ele>19</ele>
        <time>2018-12-15T11:44:11Z</time>
        <extensions><gpxtpx:TrackPointExtension><gpxtpx:hr>146</gpxtpx:hr></gpxtpx:TrackPointExtension></extensions>
      </trkpt>
      <trkpt lat="59.426141387069" lon="17.896910923355">
        <ele>20</ele>
        <time>2018-12-15T11:44:16Z</time>
        <extensions><gpxtpx:TrackPointExtension><gpxtpx:hr>147</gpxtpx:hr></gpxtpx:TrackPointExtension></extensions>
      </trkpt>
      <trkpt lat="59.426064776503" lon="17.897038831149">
        <ele>20.4</ele>
        <time>2018-12-15T11:44:18Z</time>
        <extensions><gpxtpx:TrackPointExtension><gpxtpx:hr>148</gpxtpx:hr></gpxtpx:TrackPointExtension></extensions>
      </trkpt>
      <trkpt lat="59.425928486809" lon="17.897232620677">
        <ele>21.2</ele>
        <time>2018-12-15T11:44:21Z</time>
        <extensions><gpxtpx:TrackPointExtension><gpxtpx:hr>149</gpxtpx:hr></gpxtpx:TrackPointExtension></extensions>
      </trkpt>
      <trkpt lat="59.425433116519" lon="17.8978794519">
        <ele>21.8</ele>
        <time>2018-12-15T11:44:30Z</time>
        <extensions><gpxtpx:TrackPointExtension><gpxtpx:hr>147</gpxtpx:hr></gpxtpx:TrackPointExtension></extensions>
      </trkpt>
      <trkpt lat="59.425195657292" lon="17.898219673221">
        <ele>21.2</ele>
        <time>2018-12-15T11:44:34Z</time>
        <extensions><gpxtpx:TrackPointExtension><gpxtpx:hr>144</gpxtpx:hr></gpxtpx:TrackPointExtension></extensions>
      </trkpt>
      <trkpt lat="59.425020810858" lon="17.898496275921">
        <ele>19.8</ele>
        <time>2018-12-15T11:44:37Z</time>
        <extensions><gpxtpx:TrackPointExtension><gpxtpx:hr>142</gpxtpx:hr></gpxtpx:TrackPointExtension></extensions>
      </trkpt>
      <trkpt lat="59.424698442984" lon="17.899112597028">
        <ele>19</ele>
        <time>2018-12-15T11:44:43Z</time>
        <extensions><gpxtpx:TrackPointExtension><gpxtpx:hr>139</gpxtpx:hr></gpxtpx:TrackPointExtension></extensions>
      </trkpt>
      <trkpt lat="59.424649995602" lon="17.899217789873">
        <ele>18.8</ele>
        <time>2018-12-15T11:44:44Z</time>
        <extensions><gpxtpx:TrackPointExtension><gpxtpx:hr>139</gpxtpx:hr></gpxtpx:TrackPointExtension></extensions>
      </trkpt>
      <trkpt lat="59.424339949121" lon="17.899926898613">
        <ele>18.6</ele>
        <time>2018-12-15T11:44:51Z</time>
        <extensions><gpxtpx:TrackPointExtension><gpxtpx:hr>136</gpxtpx:hr></gpxtpx:TrackPointExtension></extensions>
      </trkpt>
      <trkpt lat="59.423954381721" lon="17.900776907092">
        <ele>18.8</ele>
        <time>2018-12-15T11:45:00Z</time>
        <extensions><gpxtpx:TrackPointExtension><gpxtpx:hr>137</gpxtpx:hr></gpxtpx:TrackPointExtension></extensions>
      </trkpt>
      <trkpt lat="59.423620614463" lon="17.901497834311">
        <ele>19.4</ele>
        <time>2018-12-15T11:45:08Z</time>
        <extensions><gpxtpx:TrackPointExtension><gpxtpx:hr>134</gpxtpx:hr></gpxtpx:TrackPointExtension></extensions>
      </trkpt>
      <trkpt lat="59.423478792715" lon="17.901828835542">
        <ele>19.6</ele>
        <time>2018-12-15T11:45:12Z</time>
        <extensions><gpxtpx:TrackPointExtension><gpxtpx:hr>133</gpxtpx:hr></gpxtpx:TrackPointExtension></extensions>
      </trkpt>
      <trkpt lat="59.423356500794" lon="17.901923299555">
        <ele>20</ele>
        <time>2018-12-15T11:45:15Z</time>
        <extensions><gpxtpx:TrackPointExtension><gpxtpx:hr>135</gpxtpx:hr></gpxtpx:TrackPointExtension></extensions>
      </trkpt>
      <trkpt lat="59.423232532493" lon="17.901717607729">
        <ele>20</ele>
        <time>2018-12-15T11:45:18Z</time>
        <extensions><gpxtpx:TrackPointExtension><gpxtpx:hr>135</gpxtpx:hr></gpxtpx:TrackPointExtension></extensions>
      </trkpt>
      <trkpt lat="59.422833721691" lon="17.900885871792">
        <ele>19.8</ele>
        <time>2018-12-15T11:45:27Z</time>
        <extensions><gpxtpx:TrackPointExtension><gpxtpx:hr>135</gpxtpx:hr></gpxtpx:TrackPointExtension></extensions>
      </trkpt>
      <trkpt lat="59.42278267592" lon="17.900814374185">
        <ele>19.6</ele>
        <time>2018-12-15T11:45:28Z</time>
        <extensions><gpxtpx:TrackPointExtension><gpxtpx:hr>136</gpxtpx:hr></gpxtpx:TrackPointExtension></extensions>
      </trkpt>
      <trkpt lat="59.422503810107" lon="17.900638102828">
        <ele>19.6</ele>
        <time>2018-12-15T11:45:33Z</time>
        <extensions><gpxtpx:TrackPointExtension><gpxtpx:hr>138</gpxtpx:hr></gpxtpx:TrackPointExtension></extensions>
      </trkpt>
      <trkpt lat="59.422280181015" lon="17.900616309888">
        <ele>19.8</ele>
        <time>2018-12-15T11:45:37Z</time>
        <extensions><gpxtpx:TrackPointExtension><gpxtpx:hr>139</gpxtpx:hr></gpxtpx:TrackPointExtension></extensions>
      </trkpt>
      <trkpt lat="59.42196879343" lon="17.900503908609">
        <ele>21.2</ele>
        <time>2018-12-15T11:45:43Z</time>
        <extensions><gpxtpx:TrackPointExtension><gpxtpx:hr>142</gpxtpx:hr></gpxtpx:TrackPointExtension></extensions>
      </trkpt>
      <trkpt lat="59.421705350313" lon="17.900309616167">
        <ele>22.4</ele>
        <time>2018-12-15T11:45:50Z</time>
        <extensions><gpxtpx:TrackPointExtension><gpxtpx:hr>142</gpxtpx:hr></gpxtpx:TrackPointExtension></extensions>
      </trkpt>
      <trkpt lat="59.421586159695" lon="17.900224036968">
        <ele>23.4</ele>
        <time>2018-12-15T11:45:53Z</time>
        <extensions><gpxtpx:TrackPointExtension><gpxtpx:hr>143</gpxtpx:hr></gpxtpx:TrackPointExtension></extensions>
      </trkpt>
      <trkpt lat="59.421188606178" lon="17.90028338082">
        <ele>24.4</ele>
        <time>2018-12-15T11:46:00Z</time>
        <extensions><gpxtpx:TrackPointExtension><gpxtpx:hr>146</gpxtpx:hr></gpxtpx:TrackPointExtension></extensions>
      </trkpt>
      <trkpt lat="59.420945614897" lon="17.900608095626">
        <ele>24.6</ele>
        <time>2018-12-15T11:46:05Z</time>
        <extensions><gpxtpx:TrackPointExtension><gpxtpx:hr>149</gpxtpx:hr></gpxtpx:TrackPointExtension></extensions>
      </trkpt>
      <trkpt lat="59.420912590211" lon="17.900691076436">
        <ele>24.6</ele>
        <time>2018-12-15T11:46:06Z</time>
        <extensions><gpxtpx:TrackPointExtension><gpxtpx:hr>150</gpxtpx:hr></gpxtpx:TrackPointExtension></extensions>
      </trkpt>
      <trkpt lat="59.420714693552" lon="17.901194074255">
        <ele>24.6</ele>
        <time>2018-12-15T11:46:11Z</time>
        <extensions><gpxtpx:TrackPointExtension><gpxtpx:hr>151</gpxtpx:hr></gpxtpx:TrackPointExtension></extensions>
      </trkpt>
      <trkpt lat="59.420492824659" lon="17.901500516519">
        <ele>24.8</ele>
        <time>2018-12-15T11:46:15Z</time>
        <extensions><gpxtpx:TrackPointExtension><gpxtpx:hr>150</gpxtpx:hr></gpxtpx:TrackPointExtension></extensions>
      </trkpt>
      <trkpt lat="59.420430295685" lon="17.901555417964">
        <ele>24.8</ele>
        <time>2018-12-15T11:46:16Z</time>
        <extensions><gpxtpx:TrackPointExtension><gpxtpx:hr>149</gpxtpx:hr></gpxtpx:TrackPointExtension></extensions>
      </trkpt>
      <trkpt lat="59.41983811445" lon="17.901837804175">
        <ele>24.8</ele>
        <time>2018-12-15T11:46:24Z</time>
        <extensions><gpxtpx:TrackPointExtension><gpxtpx:hr>147</gpxtpx:hr></gpxtpx:TrackPointExtension></extensions>
      </trkpt>
      <trkpt lat="59.41960342125" lon="17.901980547932">
        <ele>24.2</ele>
        <time>2018-12-15T11:46:27Z</time>
        <extensions><gpxtpx:TrackPointExtension><gpxtpx:hr>147</gpxtpx:hr></gpxtpx:TrackPointExtension></extensions>
      </trkpt>
      <trkpt lat="59.419331260957" lon="17.902340382899">
        <ele>23.6</ele>
        <time>2018-12-15T11:46:31Z</time>
        <extensions><gpxtpx:TrackPointExtension><gpxtpx:hr>146</gpxtpx:hr></gpxtpx:TrackPointExtension></extensions>
      </trkpt>
      <trkpt lat="59.419146523881" lon="17.902616315047">
        <ele>23</ele>
        <time>2018-12-15T11:46:34Z</time>
        <extensions><gpxtpx:TrackPointExtension><gpxtpx:hr>146</gpxtpx:hr></gpxtpx:TrackPointExtension></extensions>
      </trkpt>
      <trkpt lat="59.418883080764" lon="17.902703570626">
        <ele>22.6</ele>
        <time>2018-12-15T11:46:38Z</time>
        <extensions><gpxtpx:TrackPointExtension><gpxtpx:hr>144</gpxtpx:hr></gpxtpx:TrackPointExtension></extensions>
      </trkpt>
      <trkpt lat="59.418744611776" lon="17.902690913957">
        <ele>22.6</ele>
        <time>2018-12-15T11:46:40Z</time>
        <extensions><gpxtpx:TrackPointExtension><gpxtpx:hr>144</gpxtpx:hr></gpxtpx:TrackPointExtension></extensions>
      </trkpt>
      <trkpt lat="59.418286876217" lon="17.902639700548">
        <ele>22.4</ele>
        <time>2018-12-15T11:46:47Z</time>
        <extensions><gpxtpx:TrackPointExtension><gpxtpx:hr>142</gpxtpx:hr></gpxtpx:TrackPointExtension></extensions>
      </trkpt>
      <trkpt lat="59.417994683183" lon="17.902889481168">
        <ele>22.6</ele>
        <time>2018-12-15T11:46:52Z</time>
        <extensions><gpxtpx:TrackPointExtension><gpxtpx:hr>141</gpxtpx:hr></gpxtpx:TrackPointExtension></extensions>
      </trkpt>
      <trkpt lat="59.417489841346" lon="17.903404716561">
        <ele>22.8</ele>
        <time>2018-12-15T11:47:00Z</time>
        <extensions><gpxtpx:TrackPointExtension><gpxtpx:hr>142</gpxtpx:hr></gpxtpx:TrackPointExtension></extensions>
      </trkpt>
      <trkpt lat="59.416964296216" lon="17.903792295617">
        <ele>23</ele>
        <time>2018-12-15T11:47:08Z</time>
        <extensions><gpxtpx:TrackPointExtension><gpxtpx:hr>144</gpxtpx:hr></gpxtpx:TrackPointExtension></extensions>
      </trkpt>
      <trkpt lat="59.416777463665" lon="17.903940655247">
        <ele>23</ele>
        <time>2018-12-15T11:47:11Z</time>
        <extensions><gpxtpx:TrackPointExtension><gpxtpx:hr>144</gpxtpx:hr></gpxtpx:TrackPointExtension></extensions>
      </trkpt>
      <trkpt lat="59.416535897307" lon="17.904515905044">
        <ele>23.2</ele>
        <time>2018-12-15T11:47:17Z</time>
        <extensions><gpxtpx:TrackPointExtension><gpxtpx:hr>144</gpxtpx:hr></gpxtpx:TrackPointExtension></extensions>
      </trkpt>
      <trkpt lat="59.416438164353" lon="17.904934580949">
        <ele>23.6</ele>
        <time>2018-12-15T11:47:21Z</time>
        <extensions><gpxtpx:TrackPointExtension><gpxtpx:hr>143</gpxtpx:hr></gpxtpx:TrackPointExtension></extensions>
      </trkpt>
      <trkpt lat="59.41640153545" lon="17.905123257518">
        <ele>23.8</ele>
        <time>2018-12-15T11:47:23Z</time>
        <extensions><gpxtpx:TrackPointExtension><gpxtpx:hr>142</gpxtpx:hr></gpxtpx:TrackPointExtension></extensions>
      </trkpt>
      <trkpt lat="59.416559198989" lon="17.905464903762">
        <ele>24.4</ele>
        <time>2018-12-15T11:47:28Z</time>
        <extensions><gpxtpx:TrackPointExtension><gpxtpx:hr>142</gpxtpx:hr></gpxtpx:TrackPointExtension></extensions>
      </trkpt>
      <trkpt lat="59.417063286455" lon="17.905928087556">
        <ele>24.6</ele>
        <time>2018-12-15T11:47:37Z</time>
        <extensions><gpxtpx:TrackPointExtension><gpxtpx:hr>143</gpxtpx:hr></gpxtpx:TrackPointExtension></extensions>
      </trkpt>
      <trkpt lat="59.417630741085" lon="17.906206282817">
        <ele>23.4</ele>
        <time>2018-12-15T11:47:46Z</time>
        <extensions><gpxtpx:TrackPointExtension><gpxtpx:hr>142</gpxtpx:hr></gpxtpx:TrackPointExtension></extensions>
      </trkpt>
      <trkpt lat="59.417692264231" lon="17.906244001367">
        <ele>23.2</ele>
        <time>2018-12-15T11:47:47Z</time>
        <extensions><gpxtpx:TrackPointExtension><gpxtpx:hr>141</gpxtpx:hr></gpxtpx:TrackPointExtension></extensions>
      </trkpt>
      <trkpt lat="59.417795361601" lon="17.906495793643">
        <ele>23</ele>
        <time>2018-12-15T11:47:50Z</time>
        <extensions><gpxtpx:TrackPointExtension><gpxtpx:hr>139</gpxtpx:hr></gpxtpx:TrackPointExtension></extensions>
      </trkpt>
      <trkpt lat="59.417805838976" lon="17.906601321764">
        <ele>22.8</ele>
        <time>2018-12-15T11:47:51Z</time>
        <extensions><gpxtpx:TrackPointExtension><gpxtpx:hr>138</gpxtpx:hr></gpxtpx:TrackPointExtension></extensions>
      </trkpt>
      <trkpt lat="59.417770048263" lon="17.906912457892">
        <ele>21.6</ele>
        <time>2018-12-15T11:47:54Z</time>
        <extensions><gpxtpx:TrackPointExtension><gpxtpx:hr>137</gpxtpx:hr></gpxtpx:TrackPointExtension></extensions>
      </trkpt>
      <trkpt lat="59.417598554589" lon="17.90722694678">
        <ele>20.6</ele>
        <time>2018-12-15T11:47:58Z</time>
        <extensions><gpxtpx:TrackPointExtension><gpxtpx:hr>136</gpxtpx:hr></gpxtpx:TrackPointExtension></extensions>
      </trkpt>
      <trkpt lat="59.417420020119" lon="17.907365164311">
        <ele>20</ele>
        <time>2018-12-15T11:48:01Z</time>
        <extensions><gpxtpx:TrackPointExtension><gpxtpx:hr>137</gpxtpx:hr></gpxtpx:TrackPointExtension></extensions>
      </trkpt>
      <trkpt lat="59.417358580792" lon="17.907388214536">
        <ele>20</ele>
        <time>2018-12-15T11:48:02Z</time>
        <extensions><gpxtpx:TrackPointExtension><gpxtpx:hr>137</gpxtpx:hr></gpxtpx:TrackPointExtension></extensions>
      </trkpt>
      <trkpt lat="59.417119612823" lon="17.907245051684">
        <ele>20</ele>
        <time>2018-12-15T11:48:06Z</time>
        <extensions><gpxtpx:TrackPointExtension><gpxtpx:hr>140</gpxtpx:hr></gpxtpx:TrackPointExtension></extensions>
      </trkpt>
      <trkpt lat="59.416883578519" lon="17.907018321289">
        <ele>20.2</ele>
        <time>2018-12-15T11:48:10Z</time>
        <extensions><gpxtpx:TrackPointExtension><gpxtpx:hr>143</gpxtpx:hr></gpxtpx:TrackPointExtension></extensions>
      </trkpt>
      <trkpt lat="59.416595744073" lon="17.906691930103">
        <ele>20.8</ele>
        <time>2018-12-15T11:48:15Z</time>
        <extensions><gpxtpx:TrackPointExtension><gpxtpx:hr>146</gpxtpx:hr></gpxtpx:TrackPointExtension></extensions>
      </trkpt>
      <trkpt lat="59.416248565775" lon="17.906317762087">
        <ele>21.2</ele>
        <time>2018-12-15T11:48:21Z</time>
        <extensions><gpxtpx:TrackPointExtension><gpxtpx:hr>149</gpxtpx:hr></gpxtpx:TrackPointExtension></extensions>
      </trkpt>
      <trkpt lat="59.416022003018" lon="17.906070998951">
        <ele>21.6</ele>
        <time>2018-12-15T11:48:25Z</time>
        <extensions><gpxtpx:TrackPointExtension><gpxtpx:hr>151</gpxtpx:hr></gpxtpx:TrackPointExtension></extensions>
      </trkpt>
      <trkpt lat="59.415967436849" lon="17.906000507172">
        <ele>21.6</ele>
        <time>2018-12-15T11:48:26Z</time>
        <extensions><gpxtpx:TrackPointExtension><gpxtpx:hr>151</gpxtpx:hr></gpxtpx:TrackPointExtension></extensions>
      </trkpt>
      <trkpt lat="59.415543061252" lon="17.905267174741">
        <ele>22.4</ele>
        <time>2018-12-15T11:48:34Z</time>
        <extensions><gpxtpx:TrackPointExtension><gpxtpx:hr>153</gpxtpx:hr></gpxtpx:TrackPointExtension></extensions>
      </trkpt>
      <trkpt lat="59.415430995249" lon="17.905094507601">
        <ele>22.6</ele>
        <time>2018-12-15T11:48:36Z</time>
        <extensions><gpxtpx:TrackPointExtension><gpxtpx:hr>154</gpxtpx:hr></gpxtpx:TrackPointExtension></extensions>
      </trkpt>
      <trkpt lat="59.414966386532" lon="17.904316583462">
        <ele>22.8</ele>
        <time>2018-12-15T11:48:44Z</time>
        <extensions><gpxtpx:TrackPointExtension><gpxtpx:hr>154</gpxtpx:hr></gpxtpx:TrackPointExtension></extensions>
      </trkpt>
      <trkpt lat="59.414554583785" lon="17.903593979863">
        <ele>22.8</ele>
        <time>2018-12-15T11:48:51Z</time>
        <extensions><gpxtpx:TrackPointExtension><gpxtpx:hr>155</gpxtpx:hr></gpxtpx:TrackPointExtension></extensions>
      </trkpt>
      <trkpt lat="59.414159461019" lon="17.902871376264">
        <ele>22.6</ele>
        <time>2018-12-15T11:48:58Z</time>
        <extensions><gpxtpx:TrackPointExtension><gpxtpx:hr>153</gpxtpx:hr></gpxtpx:TrackPointExtension></extensions>
      </trkpt>
      <trkpt lat="59.413774731809" lon="17.902414981809">
        <ele>22.2</ele>
        <time>2018-12-15T11:49:04Z</time>
        <extensions><gpxtpx:TrackPointExtension><gpxtpx:hr>150</gpxtpx:hr></gpxtpx:TrackPointExtension></extensions>
      </trkpt>
      <trkpt lat="59.413574739675" lon="17.902201410997">
        <ele>21.6</ele>
        <time>2018-12-15T11:49:07Z</time>
        <extensions><gpxtpx:TrackPointExtension><gpxtpx:hr>147</gpxtpx:hr></gpxtpx:TrackPointExtension></extensions>
      </trkpt>
      <trkpt lat="59.413330826385" lon="17.901919443881">
        <ele>20.6</ele>
        <time>2018-12-15T11:49:11Z</time>
        <extensions><gpxtpx:TrackPointExtension><gpxtpx:hr>144</gpxtpx:hr></gpxtpx:TrackPointExtension></extensions>
      </trkpt>
      <trkpt lat="59.413273075094" lon="17.901860519124">
        <ele>20.2</ele>
        <time>2018-12-15T11:49:12Z</time>
        <extensions><gpxtpx:TrackPointExtension><gpxtpx:hr>143</gpxtpx:hr></gpxtpx:TrackPointExtension></extensions>
      </trkpt>
      <trkpt lat="59.41315019644" lon="17.90179044644">
        <ele>19.4</ele>
        <time>2018-12-15T11:49:14Z</time>
        <extensions><gpxtpx:TrackPointExtension><gpxtpx:hr>139</gpxtpx:hr></gpxtpx:TrackPointExtension></extensions>
      </trkpt>
      <trkpt lat="59.412952886514" lon="17.901720289937">
        <ele>18.8</ele>
        <time>2018-12-15T11:49:17Z</time>
        <extensions><gpxtpx:TrackPointExtension><gpxtpx:hr>136</gpxtpx:hr></gpxtpx:TrackPointExtension></extensions>
      </trkpt>
      <trkpt lat="59.412692712338" lon="17.901553825403">
        <ele>18.2</ele>
        <time>2018-12-15T11:49:21Z</time>
        <extensions><gpxtpx:TrackPointExtension><gpxtpx:hr>133</gpxtpx:hr></gpxtpx:TrackPointExtension></extensions>
      </trkpt>
      <trkpt lat="59.412589782606" lon="17.90157084066">
        <ele>17.8</ele>
        <time>2018-12-15T11:49:23Z</time>
        <extensions><gpxtpx:TrackPointExtension><gpxtpx:hr>128</gpxtpx:hr></gpxtpx:TrackPointExtension></extensions>
      </trkpt>
      <trkpt lat="59.412498755172" lon="17.901725738172">
        <ele>17.4</ele>
        <time>2018-12-15T11:49:26Z</time>
        <extensions><gpxtpx:TrackPointExtension><gpxtpx:hr>124</gpxtpx:hr></gpxtpx:TrackPointExtension></extensions>
      </trkpt>
      <trkpt lat="59.41247377711" lon="17.90183654689">
        <ele>17.2</ele>
        <time>2018-12-15T11:49:28Z</time>
        <extensions><gpxtpx:TrackPointExtension><gpxtpx:hr>123</gpxtpx:hr></gpxtpx:TrackPointExtension></extensions>
      </trkpt>
      <trkpt lat="59.412466736314" lon="17.901899075864">
        <ele>17</ele>
        <time>2018-12-15T11:49:29Z</time>
        <extensions><gpxtpx:TrackPointExtension><gpxtpx:hr>124</gpxtpx:hr></gpxtpx:TrackPointExtension></extensions>
      </trkpt>
      <trkpt lat="59.412429604497" lon="17.902168889225">
        <ele>17</ele>
        <time>2018-12-15T11:49:32Z</time>
        <extensions><gpxtpx:TrackPointExtension><gpxtpx:hr>127</gpxtpx:hr></gpxtpx:TrackPointExtension></extensions>
      </trkpt>
      <trkpt lat="59.412392388861" lon="17.90240735428">
        <ele>16.8</ele>
        <time>2018-12-15T11:49:34Z</time>
        <extensions><gpxtpx:TrackPointExtension><gpxtpx:hr>130</gpxtpx:hr></gpxtpx:TrackPointExtension></extensions>
      </trkpt>
      <trkpt lat="59.412351569008" lon="17.902651099932">
        <ele>16.8</ele>
        <time>2018-12-15T11:49:36Z</time>
        <extensions><gpxtpx:TrackPointExtension><gpxtpx:hr>133</gpxtpx:hr></gpxtpx:TrackPointExtension></extensions>
      </trkpt>
      <trkpt lat="59.412310497698" lon="17.90290104819">
        <ele>16.8</ele>
        <time>2018-12-15T11:49:38Z</time>
        <extensions><gpxtpx:TrackPointExtension><gpxtpx:hr>136</gpxtpx:hr></gpxtpx:TrackPointExtension></extensions>
      </trkpt>
      <trkpt lat="59.412251992036" lon="17.903419552524">
        <ele>16.2</ele>
        <time>2018-12-15T11:49:42Z</time>
        <extensions><gpxtpx:TrackPointExtension><gpxtpx:hr>137</gpxtpx:hr></gpxtpx:TrackPointExtension></extensions>
      </trkpt>
      <trkpt lat="59.412218632074" lon="17.903814088557">
        <ele>15.6</ele>
        <time>2018-12-15T11:49:45Z</time>
        <extensions><gpxtpx:TrackPointExtension><gpxtpx:hr>138</gpxtpx:hr></gpxtpx:TrackPointExtension></extensions>
      </trkpt>
      <trkpt lat="59.411933898931" lon="17.904811618476">
        <ele>15.4</ele>
        <time>2018-12-15T11:49:54Z</time>
        <extensions><gpxtpx:TrackPointExtension><gpxtpx:hr>140</gpxtpx:hr></gpxtpx:TrackPointExtension></extensions>
      </trkpt>
      <trkpt lat="59.411639107508" lon="17.905813842259">
        <ele>15.6</ele>
        <time>2018-12-15T11:50:03Z</time>
        <extensions><gpxtpx:TrackPointExtension><gpxtpx:hr>142</gpxtpx:hr></gpxtpx:TrackPointExtension></extensions>
      </trkpt>
      <trkpt lat="59.411510110067" lon="17.906808187056">
        <ele>15.6</ele>
        <time>2018-12-15T11:50:11Z</time>
        <extensions><gpxtpx:TrackPointExtension><gpxtpx:hr>145</gpxtpx:hr></gpxtpx:TrackPointExtension></extensions>
      </trkpt>
      <trkpt lat="59.411290085192" lon="17.907860869877">
        <ele>16</ele>
        <time>2018-12-15T11:50:20Z</time>
        <extensions><gpxtpx:TrackPointExtension><gpxtpx:hr>145</gpxtpx:hr></gpxtpx:TrackPointExtension></extensions>
      </trkpt>
      <trkpt lat="59.41101532651" lon="17.908788662388">
        <ele>16.4</ele>
        <time>2018-12-15T11:50:28Z</time>
        <extensions><gpxtpx:TrackPointExtension><gpxtpx:hr>147</gpxtpx:hr></gpxtpx:TrackPointExtension></extensions>
      </trkpt>
      <trkpt lat="59.410659179579" lon="17.909706061343">
        <ele>16</ele>
        <time>2018-12-15T11:50:37Z</time>
        <extensions><gpxtpx:TrackPointExtension><gpxtpx:hr>147</gpxtpx:hr></gpxtpx:TrackPointExtension></extensions>
      </trkpt>
      <trkpt lat="59.410518363659" lon="17.909865401262">
        <ele>16</ele>
        <time>2018-12-15T11:50:40Z</time>
        <extensions><gpxtpx:TrackPointExtension><gpxtpx:hr>147</gpxtpx:hr></gpxtpx:TrackPointExtension></extensions>
      </trkpt>
      <trkpt lat="59.410379475576" lon="17.909988112278">
        <ele>16.2</ele>
        <time>2018-12-15T11:50:43Z</time>
        <extensions><gpxtpx:TrackPointExtension><gpxtpx:hr>148</gpxtpx:hr></gpxtpx:TrackPointExtension></extensions>
      </trkpt>
      <trkpt lat="59.410255758732" lon="17.91014552436">
        <ele>17</ele>
        <time>2018-12-15T11:50:46Z</time>
        <extensions><gpxtpx:TrackPointExtension><gpxtpx:hr>149</gpxtpx:hr></gpxtpx:TrackPointExtension></extensions>
      </trkpt>
      <trkpt lat="59.410218040182" lon="17.910200425805">
        <ele>17.6</ele>
        <time>2018-12-15T11:50:47Z</time>
        <extensions><gpxtpx:TrackPointExtension><gpxtpx:hr>149</gpxtpx:hr></gpxtpx:TrackPointExtension></extensions>
      </trkpt>
      <trkpt lat="59.410138663589" lon="17.910325064658">
        <ele>19</ele>
        <time>2018-12-15T11:50:49Z</time>
        <extensions><gpxtpx:TrackPointExtension><gpxtpx:hr>150</gpxtpx:hr></gpxtpx:TrackPointExtension></extensions>
      </trkpt>
      <trkpt lat="59.409901958733" lon="17.910736532129">
        <ele>20.2</ele>
        <time>2018-12-15T11:50:54Z</time>
        <extensions><gpxtpx:TrackPointExtension><gpxtpx:hr>151</gpxtpx:hr></gpxtpx:TrackPointExtension></extensions>
      </trkpt>
      <trkpt lat="59.409479008059" lon="17.911556701044">
        <ele>19.2</ele>
        <time>2018-12-15T11:51:03Z</time>
        <extensions><gpxtpx:TrackPointExtension><gpxtpx:hr>149</gpxtpx:hr></gpxtpx:TrackPointExtension></extensions>
      </trkpt>
      <trkpt lat="59.409434332532" lon="17.911647393202">
        <ele>19.2</ele>
        <time>2018-12-15T11:51:04Z</time>
        <extensions><gpxtpx:TrackPointExtension><gpxtpx:hr>149</gpxtpx:hr></gpxtpx:TrackPointExtension></extensions>
      </trkpt>
      <trkpt lat="59.409051698797" lon="17.912516093318">
        <ele>19</ele>
        <time>2018-12-15T11:51:14Z</time>
        <extensions><gpxtpx:TrackPointExtension><gpxtpx:hr>147</gpxtpx:hr></gpxtpx:TrackPointExtension></extensions>
      </trkpt>
      <trkpt lat="59.408891772145" lon="17.912820523926">
        <ele>19.8</ele>
        <time>2018-12-15T11:51:18Z</time>
        <extensions><gpxtpx:TrackPointExtension><gpxtpx:hr>147</gpxtpx:hr></gpxtpx:TrackPointExtension></extensions>
      </trkpt>
      <trkpt lat="59.408862267857" lon="17.912907611867">
        <ele>20.2</ele>
        <time>2018-12-15T11:51:19Z</time>
        <extensions><gpxtpx:TrackPointExtension><gpxtpx:hr>148</gpxtpx:hr></gpxtpx:TrackPointExtension></extensions>
      </trkpt>
      <trkpt lat="59.408755733908" lon="17.913393762067">
        <ele>21.2</ele>
        <time>2018-12-15T11:51:24Z</time>
        <extensions><gpxtpx:TrackPointExtension><gpxtpx:hr>148</gpxtpx:hr></gpxtpx:TrackPointExtension></extensions>
      </trkpt>
      <trkpt lat="59.408730504389" lon="17.913478838352">
        <ele>21.4</ele>
        <time>2018-12-15T11:51:25Z</time>
        <extensions><gpxtpx:TrackPointExtension><gpxtpx:hr>149</gpxtpx:hr></gpxtpx:TrackPointExtension></extensions>
      </trkpt>
      <trkpt lat="59.408645679561" lon="17.913744879858">
        <ele>21.4</ele>
        <time>2018-12-15T11:51:28Z</time>
        <extensions><gpxtpx:TrackPointExtension><gpxtpx:hr>150</gpxtpx:hr></gpxtpx:TrackPointExtension></extensions>
      </trkpt>
      <trkpt lat="59.408351223414" lon="17.914663703736">
        <ele>22</ele>
        <time>2018-12-15T11:51:37Z</time>
        <extensions><gpxtpx:TrackPointExtension><gpxtpx:hr>151</gpxtpx:hr></gpxtpx:TrackPointExtension></extensions>
      </trkpt>
      <trkpt lat="59.408209988399" lon="17.915084642754">
        <ele>22</ele>
        <time>2018-12-15T11:51:41Z</time>
        <extensions><gpxtpx:TrackPointExtension><gpxtpx:hr>150</gpxtpx:hr></gpxtpx:TrackPointExtension></extensions>
      </trkpt>
      <trkpt lat="59.408024580771" lon="17.916108491839">
        <ele>22.2</ele>
        <time>2018-12-15T11:51:50Z</time>
        <extensions><gpxtpx:TrackPointExtension><gpxtpx:hr>148</gpxtpx:hr></gpxtpx:TrackPointExtension></extensions>
      </trkpt>
      <trkpt lat="59.407996333768" lon="17.916332456207">
        <ele>22.4</ele>
        <time>2018-12-15T11:51:52Z</time>
        <extensions><gpxtpx:TrackPointExtension><gpxtpx:hr>148</gpxtpx:hr></gpxtpx:TrackPointExtension></extensions>
      </trkpt>
      <trkpt lat="59.407964650186" lon="17.916543009535">
        <ele>22.8</ele>
        <time>2018-12-15T11:51:54Z</time>
        <extensions><gpxtpx:TrackPointExtension><gpxtpx:hr>147</gpxtpx:hr></gpxtpx:TrackPointExtension></extensions>
      </trkpt>
      <trkpt lat="59.407816374375" lon="17.917046426449">
        <ele>23.6</ele>
        <time>2018-12-15T11:52:00Z</time>
        <extensions><gpxtpx:TrackPointExtension><gpxtpx:hr>147</gpxtpx:hr></gpxtpx:TrackPointExtension></extensions>
      </trkpt>
      <trkpt lat="59.407717719412" lon="17.917304337512">
        <ele>24.8</ele>
        <time>2018-12-15T11:52:03Z</time>
        <extensions><gpxtpx:TrackPointExtension><gpxtpx:hr>146</gpxtpx:hr></gpxtpx:TrackPointExtension></extensions>
      </trkpt>
      <trkpt lat="59.407599283165" lon="17.917547747888">
        <ele>26</ele>
        <time>2018-12-15T11:52:06Z</time>
        <extensions><gpxtpx:TrackPointExtension><gpxtpx:hr>146</gpxtpx:hr></gpxtpx:TrackPointExtension></extensions>
      </trkpt>
      <trkpt lat="59.407363500318" lon="17.917940439903">
        <ele>26.2</ele>
        <time>2018-12-15T11:52:11Z</time>
        <extensions><gpxtpx:TrackPointExtension><gpxtpx:hr>145</gpxtpx:hr></gpxtpx:TrackPointExtension></extensions>
      </trkpt>
      <trkpt lat="59.407013975088" lon="17.918890528268">
        <ele>25.2</ele>
        <time>2018-12-15T11:52:20Z</time>
        <extensions><gpxtpx:TrackPointExtension><gpxtpx:hr>144</gpxtpx:hr></gpxtpx:TrackPointExtension></extensions>
      </trkpt>
      <trkpt lat="59.406932000106" lon="17.919103512347">
        <ele>25</ele>
        <time>2018-12-15T11:52:22Z</time>
        <extensions><gpxtpx:TrackPointExtension><gpxtpx:hr>144</gpxtpx:hr></gpxtpx:TrackPointExtension></extensions>
      </trkpt>
      <trkpt lat="59.406570991673" lon="17.919997106706">
        <ele>24.4</ele>
        <time>2018-12-15T11:52:30Z</time>
        <extensions><gpxtpx:TrackPointExtension><gpxtpx:hr>145</gpxtpx:hr></gpxtpx:TrackPointExtension></extensions>
      </trkpt>
      <trkpt lat="59.406430762486" lon="17.920353253637">
        <ele>23.8</ele>
        <time>2018-12-15T11:52:33Z</time>
        <extensions><gpxtpx:TrackPointExtension><gpxtpx:hr>145</gpxtpx:hr></gpxtpx:TrackPointExtension></extensions>
      </trkpt>
      <trkpt lat="59.406198919132" lon="17.920951972754">
        <ele>22.6</ele>
        <time>2018-12-15T11:52:38Z</time>
        <extensions><gpxtpx:TrackPointExtension><gpxtpx:hr>145</gpxtpx:hr></gpxtpx:TrackPointExtension></extensions>
      </trkpt>
      <trkpt lat="59.405949054693" lon="17.921476009142">
        <ele>21.6</ele>
        <time>2018-12-15T11:52:43Z</time>
        <extensions><gpxtpx:TrackPointExtension><gpxtpx:hr>144</gpxtpx:hr></gpxtpx:TrackPointExtension></extensions>
      </trkpt>
      <trkpt lat="59.40553943124" lon="17.922175311059">
        <ele>21.8</ele>
        <time>2018-12-15T11:52:51Z</time>
        <extensions><gpxtpx:TrackPointExtension><gpxtpx:hr>143</gpxtpx:hr></gpxtpx:TrackPointExtension></extensions>
      </trkpt>
      <trkpt lat="59.405154785849" lon="17.922919623779">
        <ele>22.6</ele>
        <time>2018-12-15T11:52:59Z</time>
        <extensions><gpxtpx:TrackPointExtension><gpxtpx:hr>143</gpxtpx:hr></gpxtpx:TrackPointExtension></extensions>
      </trkpt>
      <trkpt lat="59.4051153071" lon="17.923028420841">
        <ele>22.6</ele>
        <time>2018-12-15T11:53:00Z</time>
        <extensions><gpxtpx:TrackPointExtension><gpxtpx:hr>143</gpxtpx:hr></gpxtpx:TrackPointExtension></extensions>
      </trkpt>
      <trkpt lat="59.404832250337" lon="17.923991082056">
        <ele>22.4</ele>
        <time>2018-12-15T11:53:08Z</time>
        <extensions><gpxtpx:TrackPointExtension><gpxtpx:hr>142</gpxtpx:hr></gpxtpx:TrackPointExtension></extensions>
      </trkpt>
      <trkpt lat="59.404741725817" lon="17.924509167295">
        <ele>22.2</ele>
        <time>2018-12-15T11:53:12Z</time>
        <extensions><gpxtpx:TrackPointExtension><gpxtpx:hr>142</gpxtpx:hr></gpxtpx:TrackPointExtension></extensions>
      </trkpt>
      <trkpt lat="59.404465290755" lon="17.925402342559">
        <ele>21.6</ele>
        <time>2018-12-15T11:53:19Z</time>
        <extensions><gpxtpx:TrackPointExtension><gpxtpx:hr>142</gpxtpx:hr></gpxtpx:TrackPointExtension></extensions>
      </trkpt>
      <trkpt lat="59.404340065169" lon="17.925914728106">
        <ele>20.6</ele>
        <time>2018-12-15T11:53:23Z</time>
        <extensions><gpxtpx:TrackPointExtension><gpxtpx:hr>143</gpxtpx:hr></gpxtpx:TrackPointExtension></extensions>
      </trkpt>
      <trkpt lat="59.404088440531" lon="17.926847968852">
        <ele>19.6</ele>
        <time>2018-12-15T11:53:30Z</time>
        <extensions><gpxtpx:TrackPointExtension><gpxtpx:hr>143</gpxtpx:hr></gpxtpx:TrackPointExtension></extensions>
      </trkpt>
      <trkpt lat="59.403819968274" lon="17.927395390741">
        <ele>19.4</ele>
        <time>2018-12-15T11:53:36Z</time>
        <extensions><gpxtpx:TrackPointExtension><gpxtpx:hr>141</gpxtpx:hr></gpxtpx:TrackPointExtension></extensions>
      </trkpt>
      <trkpt lat="59.403565912885" lon="17.927256083563">
        <ele>19.8</ele>
        <time>2018-12-15T11:53:41Z</time>
        <extensions><gpxtpx:TrackPointExtension><gpxtpx:hr>138</gpxtpx:hr></gpxtpx:TrackPointExtension></extensions>
      </trkpt>
      <trkpt lat="59.403519896254" lon="17.927206127439">
        <ele>20</ele>
        <time>2018-12-15T11:53:42Z</time>
        <extensions><gpxtpx:TrackPointExtension><gpxtpx:hr>137</gpxtpx:hr></gpxtpx:TrackPointExtension></extensions>
      </trkpt>
      <trkpt lat="59.403427946811" lon="17.927072017039">
        <ele>20.8</ele>
        <time>2018-12-15T11:53:44Z</time>
        <extensions><gpxtpx:TrackPointExtension><gpxtpx:hr>136</gpxtpx:hr></gpxtpx:TrackPointExtension></extensions>
      </trkpt>
      <trkpt lat="59.403053694976" lon="17.926841263332">
        <ele>21.2</ele>
        <time>2018-12-15T11:53:50Z</time>
        <extensions><gpxtpx:TrackPointExtension><gpxtpx:hr>133</gpxtpx:hr></gpxtpx:TrackPointExtension></extensions>
      </trkpt>
      <trkpt lat="59.40291505835" lon="17.926871438172">
        <ele>21.2</ele>
        <time>2018-12-15T11:53:52Z</time>
        <extensions><gpxtpx:TrackPointExtension><gpxtpx:hr>132</gpxtpx:hr></gpxtpx:TrackPointExtension></extensions>
      </trkpt>
      <trkpt lat="59.402854960127" lon="17.92687914952">
        <ele>21.2</ele>
        <time>2018-12-15T11:53:53Z</time>
        <extensions><gpxtpx:TrackPointExtension><gpxtpx:hr>132</gpxtpx:hr></gpxtpx:TrackPointExtension></extensions>
      </trkpt>
      <trkpt lat="59.402671899431" lon="17.926836150373">
        <ele>20</ele>
        <time>2018-12-15T11:53:56Z</time>
        <extensions><gpxtpx:TrackPointExtension><gpxtpx:hr>132</gpxtpx:hr></gpxtpx:TrackPointExtension></extensions>
      </trkpt>
      <trkpt lat="59.40261666271" lon="17.926846711567">
        <ele>19.8</ele>
        <time>2018-12-15T11:53:57Z</time>
        <extensions><gpxtpx:TrackPointExtension><gpxtpx:hr>131</gpxtpx:hr></gpxtpx:TrackPointExtension></extensions>
      </trkpt>
      <trkpt lat="59.402402505165" lon="17.927099677309">
        <ele>18.6</ele>
        <time>2018-12-15T11:54:01Z</time>
        <extensions><gpxtpx:TrackPointExtension><gpxtpx:hr>129</gpxtpx:hr></gpxtpx:TrackPointExtension></extensions>
      </trkpt>
      <trkpt lat="59.402346262616" lon="17.927195314788">
        <ele>18.6</ele>
        <time>2018-12-15T11:54:02Z</time>
        <extensions><gpxtpx:TrackPointExtension><gpxtpx:hr>131</gpxtpx:hr></gpxtpx:TrackPointExtension></extensions>
      </trkpt>
      <trkpt lat="59.402233442242" lon="17.927384242814">
        <ele>18</ele>
        <time>2018-12-15T11:54:04Z</time>
        <extensions><gpxtpx:TrackPointExtension><gpxtpx:hr>134</gpxtpx:hr></gpxtpx:TrackPointExtension></extensions>
      </trkpt>
      <trkpt lat="59.402121208601" lon="17.927573506116">
        <ele>17.4</ele>
        <time>2018-12-15T11:54:06Z</time>
        <extensions><gpxtpx:TrackPointExtension><gpxtpx:hr>135</gpxtpx:hr></gpxtpx:TrackPointExtension></extensions>
      </trkpt>
      <trkpt lat="59.401873691094" lon="17.927992098202">
        <ele>16.4</ele>
        <time>2018-12-15T11:54:11Z</time>
        <extensions><gpxtpx:TrackPointExtension><gpxtpx:hr>136</gpxtpx:hr></gpxtpx:TrackPointExtension></extensions>
      </trkpt>
      <trkpt lat="59.401704544352" lon="17.928259564631">
        <ele>16</ele>
        <time>2018-12-15T11:54:15Z</time>
        <extensions><gpxtpx:TrackPointExtension><gpxtpx:hr>132</gpxtpx:hr></gpxtpx:TrackPointExtension></extensions>
      </trkpt>
      <trkpt lat="59.401634052573" lon="17.928253529663">
        <ele>16</ele>
        <time>2018-12-15T11:54:17Z</time>
        <extensions><gpxtpx:TrackPointExtension><gpxtpx:hr>129</gpxtpx:hr></gpxtpx:TrackPointExtension></extensions>
      </trkpt>
      <trkpt lat="59.401561716776" lon="17.928127382068">
        <ele>16</ele>
        <time>2018-12-15T11:54:19Z</time>
        <extensions><gpxtpx:TrackPointExtension><gpxtpx:hr>126</gpxtpx:hr></gpxtpx:TrackPointExtension></extensions>
      </trkpt>
      <trkpt lat="59.401521651294" lon="17.928036103177">
        <ele>16</ele>
        <time>2018-12-15T11:54:20Z</time>
        <extensions><gpxtpx:TrackPointExtension><gpxtpx:hr>125</gpxtpx:hr></gpxtpx:TrackPointExtension></extensions>
      </trkpt>
      <trkpt lat="59.401203390551" lon="17.927322468211">
        <ele>15.2</ele>
        <time>2018-12-15T11:54:28Z</time>
        <extensions><gpxtpx:TrackPointExtension><gpxtpx:hr>124</gpxtpx:hr></gpxtpx:TrackPointExtension></extensions>
      </trkpt>
      <trkpt lat="59.401137005903" lon="17.927265722748">
        <ele>14.6</ele>
        <time>2018-12-15T11:54:30Z</time>
        <extensions><gpxtpx:TrackPointExtension><gpxtpx:hr>121</gpxtpx:hr></gpxtpx:TrackPointExtension></extensions>
      </trkpt>
      <trkpt lat="59.401098532982" lon="17.92727058425">
        <ele>14.6</ele>
        <time>2018-12-15T11:54:31Z</time>
        <extensions><gpxtpx:TrackPointExtension><gpxtpx:hr>121</gpxtpx:hr></gpxtpx:TrackPointExtension></extensions>
      </trkpt>
      <trkpt lat="59.400910275508" lon="17.927584821681">
        <ele>14.2</ele>
        <time>2018-12-15T11:54:36Z</time>
        <extensions><gpxtpx:TrackPointExtension><gpxtpx:hr>126</gpxtpx:hr></gpxtpx:TrackPointExtension></extensions>
      </trkpt>
      <trkpt lat="59.400793431822" lon="17.927765032531">
        <ele>14.2</ele>
        <time>2018-12-15T11:54:38Z</time>
        <extensions><gpxtpx:TrackPointExtension><gpxtpx:hr>129</gpxtpx:hr></gpxtpx:TrackPointExtension></extensions>
      </trkpt>
      <trkpt lat="59.400661919811" lon="17.927937364395">
        <ele>14</ele>
        <time>2018-12-15T11:54:40Z</time>
        <extensions><gpxtpx:TrackPointExtension><gpxtpx:hr>132</gpxtpx:hr></gpxtpx:TrackPointExtension></extensions>
      </trkpt>
      <trkpt lat="59.40052454047" lon="17.928078767048">
        <ele>14</ele>
        <time>2018-12-15T11:54:42Z</time>
        <extensions><gpxtpx:TrackPointExtension><gpxtpx:hr>135</gpxtpx:hr></gpxtpx:TrackPointExtension></extensions>
      </trkpt>
      <trkpt lat="59.400313065133" lon="17.928285045607">
        <ele>13</ele>
        <time>2018-12-15T11:54:45Z</time>
        <extensions><gpxtpx:TrackPointExtension><gpxtpx:hr>138</gpxtpx:hr></gpxtpx:TrackPointExtension></extensions>
      </trkpt>
      <trkpt lat="59.400132183731" lon="17.928546644706">
        <ele>12</ele>
        <time>2018-12-15T11:54:48Z</time>
        <extensions><gpxtpx:TrackPointExtension><gpxtpx:hr>139</gpxtpx:hr></gpxtpx:TrackPointExtension></extensions>
      </trkpt>
      <trkpt lat="59.399927665371" lon="17.929540235132">
        <ele>11</ele>
        <time>2018-12-15T11:54:56Z</time>
        <extensions><gpxtpx:TrackPointExtension><gpxtpx:hr>139</gpxtpx:hr></gpxtpx:TrackPointExtension></extensions>
      </trkpt>
      <trkpt lat="59.399926408086" lon="17.929668562021">
        <ele>11</ele>
        <time>2018-12-15T11:54:57Z</time>
        <extensions><gpxtpx:TrackPointExtension><gpxtpx:hr>139</gpxtpx:hr></gpxtpx:TrackPointExtension></extensions>
      </trkpt>
      <trkpt lat="59.399911488304" lon="17.930592247401">
        <ele>11</ele>
        <time>2018-12-15T11:55:04Z</time>
        <extensions><gpxtpx:TrackPointExtension><gpxtpx:hr>141</gpxtpx:hr></gpxtpx:TrackPointExtension></extensions>
      </trkpt>
      <trkpt lat="59.39974083282" lon="17.931724474453">
        <ele>11.4</ele>
        <time>2018-12-15T11:55:13Z</time>
        <extensions><gpxtpx:TrackPointExtension><gpxtpx:hr>143</gpxtpx:hr></gpxtpx:TrackPointExtension></extensions>
      </trkpt>
      <trkpt lat="59.399712837274" lon="17.931842240148">
        <ele>11.4</ele>
        <time>2018-12-15T11:55:14Z</time>
        <extensions><gpxtpx:TrackPointExtension><gpxtpx:hr>144</gpxtpx:hr></gpxtpx:TrackPointExtension></extensions>
      </trkpt>
      <trkpt lat="59.399369849926" lon="17.932734828679">
        <ele>11.6</ele>
        <time>2018-12-15T11:55:22Z</time>
        <extensions><gpxtpx:TrackPointExtension><gpxtpx:hr>146</gpxtpx:hr></gpxtpx:TrackPointExtension></extensions>
      </trkpt>
      <trkpt lat="59.399011858977" lon="17.933589782479">
        <ele>11.2</ele>
        <time>2018-12-15T11:55:29Z</time>
        <extensions><gpxtpx:TrackPointExtension><gpxtpx:hr>146</gpxtpx:hr></gpxtpx:TrackPointExtension></extensions>
      </trkpt>
      <trkpt lat="59.398953185677" lon="17.933676535144">
        <ele>10.8</ele>
        <time>2018-12-15T11:55:30Z</time>
        <extensions><gpxtpx:TrackPointExtension><gpxtpx:hr>146</gpxtpx:hr></gpxtpx:TrackPointExtension></extensions>
      </trkpt>
      <trkpt lat="59.398826618987" lon="17.933830762104">
        <ele>9.6</ele>
        <time>2018-12-15T11:55:32Z</time>
        <extensions><gpxtpx:TrackPointExtension><gpxtpx:hr>147</gpxtpx:hr></gpxtpx:TrackPointExtension></extensions>
      </trkpt>
      <trkpt lat="59.398450187858" lon="17.934400815123">
        <ele>8.6</ele>
        <time>2018-12-15T11:55:38Z</time>
        <extensions><gpxtpx:TrackPointExtension><gpxtpx:hr>146</gpxtpx:hr></gpxtpx:TrackPointExtension></extensions>
      </trkpt>
      <trkpt lat="59.398120276274" lon="17.935099614126">
        <ele>8.2</ele>
        <time>2018-12-15T11:55:44Z</time>
        <extensions><gpxtpx:TrackPointExtension><gpxtpx:hr>146</gpxtpx:hr></gpxtpx:TrackPointExtension></extensions>
      </trkpt>
      <trkpt lat="59.397854318587" lon="17.93544042218">
        <ele>8</ele>
        <time>2018-12-15T11:55:48Z</time>
        <extensions><gpxtpx:TrackPointExtension><gpxtpx:hr>146</gpxtpx:hr></gpxtpx:TrackPointExtension></extensions>
      </trkpt>
      <trkpt lat="59.397485347349" lon="17.93564577873">
        <ele>7.8</ele>
        <time>2018-12-15T11:55:53Z</time>
        <extensions><gpxtpx:TrackPointExtension><gpxtpx:hr>145</gpxtpx:hr></gpxtpx:TrackPointExtension></extensions>
      </trkpt>
      <trkpt lat="59.396879168341" lon="17.935740158924">
        <ele>7.8</ele>
        <time>2018-12-15T11:56:01Z</time>
        <extensions><gpxtpx:TrackPointExtension><gpxtpx:hr>148</gpxtpx:hr></gpxtpx:TrackPointExtension></extensions>
      </trkpt>
      <trkpt lat="59.396283215251" lon="17.935975103581">
        <ele>8</ele>
        <time>2018-12-15T11:56:09Z</time>
        <extensions><gpxtpx:TrackPointExtension><gpxtpx:hr>149</gpxtpx:hr></gpxtpx:TrackPointExtension></extensions>
      </trkpt>
      <trkpt lat="59.396013150433" lon="17.936281713483">
        <ele>8</ele>
        <time>2018-12-15T11:56:13Z</time>
        <extensions><gpxtpx:TrackPointExtension><gpxtpx:hr>149</gpxtpx:hr></gpxtpx:TrackPointExtension></extensions>
      </trkpt>
      <trkpt lat="59.395780552708" lon="17.936863584981">
        <ele>7.8</ele>
        <time>2018-12-15T11:56:18Z</time>
        <extensions><gpxtpx:TrackPointExtension><gpxtpx:hr>150</gpxtpx:hr></gpxtpx:TrackPointExtension></extensions>
      </trkpt>
      <trkpt lat="59.395660104805" lon="17.93731293864">
        <ele>7.8</ele>
        <time>2018-12-15T11:56:22Z</time>
        <extensions><gpxtpx:TrackPointExtension><gpxtpx:hr>150</gpxtpx:hr></gpxtpx:TrackPointExtension></extensions>
      </trkpt>
      <trkpt lat="59.395405462683" lon="17.937485689599">
        <ele>7.8</ele>
        <time>2018-12-15T11:56:28Z</time>
        <extensions><gpxtpx:TrackPointExtension><gpxtpx:hr>146</gpxtpx:hr></gpxtpx:TrackPointExtension></extensions>
      </trkpt>
      <trkpt lat="59.395350980333" lon="17.937459370433">
        <ele>8.2</ele>
        <time>2018-12-15T11:56:30Z</time>
        <extensions><gpxtpx:TrackPointExtension><gpxtpx:hr>144</gpxtpx:hr></gpxtpx:TrackPointExtension></extensions>
      </trkpt>
      <trkpt lat="59.395337904569" lon="17.93745123999">
        <ele>8.8</ele>
        <time>2018-12-15T11:56:31Z</time>
        <extensions><gpxtpx:TrackPointExtension><gpxtpx:hr>141</gpxtpx:hr></gpxtpx:TrackPointExtension></extensions>
      </trkpt>
      <trkpt lat="59.395322062778" lon="17.937466243591">
        <ele>9.2</ele>
        <time>2018-12-15T11:56:34Z</time>
        <extensions><gpxtpx:TrackPointExtension><gpxtpx:hr>138</gpxtpx:hr></gpxtpx:TrackPointExtension></extensions>
      </trkpt>
      <trkpt lat="59.395269843541" lon="17.937778804642">
        <ele>9.6</ele>
        <time>2018-12-15T11:56:40Z</time>
        <extensions><gpxtpx:TrackPointExtension><gpxtpx:hr>135</gpxtpx:hr></gpxtpx:TrackPointExtension></extensions>
      </trkpt>
      <trkpt lat="59.395166913809" lon="17.938867026719">
        <ele>9.6</ele>
        <time>2018-12-15T11:56:50Z</time>
        <extensions><gpxtpx:TrackPointExtension><gpxtpx:hr>136</gpxtpx:hr></gpxtpx:TrackPointExtension></extensions>
      </trkpt>
      <trkpt lat="59.395128524707" lon="17.939363654294">
        <ele>9.2</ele>
        <time>2018-12-15T11:56:54Z</time>
        <extensions><gpxtpx:TrackPointExtension><gpxtpx:hr>135</gpxtpx:hr></gpxtpx:TrackPointExtension></extensions>
      </trkpt>
      <trkpt lat="59.394998689076" lon="17.940506610178">
        <ele>8.8</ele>
        <time>2018-12-15T11:57:03Z</time>
        <extensions><gpxtpx:TrackPointExtension><gpxtpx:hr>137</gpxtpx:hr></gpxtpx:TrackPointExtension></extensions>
      </trkpt>
      <trkpt lat="59.394915624447" lon="17.941510510341">
        <ele>8.4</ele>
        <time>2018-12-15T11:57:11Z</time>
        <extensions><gpxtpx:TrackPointExtension><gpxtpx:hr>140</gpxtpx:hr></gpxtpx:TrackPointExtension></extensions>
      </trkpt>
      <trkpt lat="59.394957869223" lon="17.942130687122">
        <ele>8.4</ele>
        <time>2018-12-15T11:57:16Z</time>
        <extensions><gpxtpx:TrackPointExtension><gpxtpx:hr>141</gpxtpx:hr></gpxtpx:TrackPointExtension></extensions>
      </trkpt>
      <trkpt lat="59.394990390995" lon="17.942374432774">
        <ele>8.4</ele>
        <time>2018-12-15T11:57:18Z</time>
        <extensions><gpxtpx:TrackPointExtension><gpxtpx:hr>141</gpxtpx:hr></gpxtpx:TrackPointExtension></extensions>
      </trkpt>
      <trkpt lat="59.395048896657" lon="17.942871144168">
        <ele>8.4</ele>
        <time>2018-12-15T11:57:22Z</time>
        <extensions><gpxtpx:TrackPointExtension><gpxtpx:hr>143</gpxtpx:hr></gpxtpx:TrackPointExtension></extensions>
      </trkpt>
      <trkpt lat="59.395104217197" lon="17.943355785626">
        <ele>8.2</ele>
        <time>2018-12-15T11:57:26Z</time>
        <extensions><gpxtpx:TrackPointExtension><gpxtpx:hr>142</gpxtpx:hr></gpxtpx:TrackPointExtension></extensions>
      </trkpt>
      <trkpt lat="59.395137409521" lon="17.943918378754">
        <ele>8.4</ele>
        <time>2018-12-15T11:57:31Z</time>
        <extensions><gpxtpx:TrackPointExtension><gpxtpx:hr>141</gpxtpx:hr></gpxtpx:TrackPointExtension></extensions>
      </trkpt>
      <trkpt lat="59.39497069353" lon="17.944637461955">
        <ele>8.6</ele>
        <time>2018-12-15T11:57:38Z</time>
        <extensions><gpxtpx:TrackPointExtension><gpxtpx:hr>141</gpxtpx:hr></gpxtpx:TrackPointExtension></extensions>
      </trkpt>
      <trkpt lat="59.394703897653" lon="17.945296949847">
        <ele>8.8</ele>
        <time>2018-12-15T11:57:45Z</time>
        <extensions><gpxtpx:TrackPointExtension><gpxtpx:hr>144</gpxtpx:hr></gpxtpx:TrackPointExtension></extensions>
      </trkpt>
      <trkpt lat="59.394328220895" lon="17.946154669674">
        <ele>9</ele>
        <time>2018-12-15T11:57:54Z</time>
        <extensions><gpxtpx:TrackPointExtension><gpxtpx:hr>146</gpxtpx:hr></gpxtpx:TrackPointExtension></extensions>
      </trkpt>
      <trkpt lat="59.393954723431" lon="17.947053376992">
        <ele>8.2</ele>
        <time>2018-12-15T11:58:03Z</time>
        <extensions><gpxtpx:TrackPointExtension><gpxtpx:hr>147</gpxtpx:hr></gpxtpx:TrackPointExtension></extensions>
      </trkpt>
      <trkpt lat="59.393672923953" lon="17.947743375">
        <ele>8</ele>
        <time>2018-12-15T11:58:10Z</time>
        <extensions><gpxtpx:TrackPointExtension><gpxtpx:hr>146</gpxtpx:hr></gpxtpx:TrackPointExtension></extensions>
      </trkpt>
      <trkpt lat="59.393477206588" lon="17.948387021101">
        <ele>8</ele>
        <time>2018-12-15T11:58:16Z</time>
        <extensions><gpxtpx:TrackPointExtension><gpxtpx:hr>143</gpxtpx:hr></gpxtpx:TrackPointExtension></extensions>
      </trkpt>
      <trkpt lat="59.393323985456" lon="17.949199813944">
        <ele>8</ele>
        <time>2018-12-15T11:58:23Z</time>
        <extensions><gpxtpx:TrackPointExtension><gpxtpx:hr>144</gpxtpx:hr></gpxtpx:TrackPointExtension></extensions>
      </trkpt>
      <trkpt lat="59.393162633881" lon="17.950271104583">
        <ele>8</ele>
        <time>2018-12-15T11:58:32Z</time>
        <extensions><gpxtpx:TrackPointExtension><gpxtpx:hr>146</gpxtpx:hr></gpxtpx:TrackPointExtension></extensions>
      </trkpt>
      <trkpt lat="59.393142265864" lon="17.95047084526">
        <ele>8</ele>
        <time>2018-12-15T11:58:34Z</time>
        <extensions><gpxtpx:TrackPointExtension><gpxtpx:hr>145</gpxtpx:hr></gpxtpx:TrackPointExtension></extensions>
      </trkpt>
      <trkpt lat="59.393221893914" lon="17.950826573096">
        <ele>8</ele>
        <time>2018-12-15T11:58:39Z</time>
        <extensions><gpxtpx:TrackPointExtension><gpxtpx:hr>142</gpxtpx:hr></gpxtpx:TrackPointExtension></extensions>
      </trkpt>
      <trkpt lat="59.393208063779" lon="17.950989768689">
        <ele>8</ele>
        <time>2018-12-15T11:58:41Z</time>
        <extensions><gpxtpx:TrackPointExtension><gpxtpx:hr>139</gpxtpx:hr></gpxtpx:TrackPointExtension></extensions>
      </trkpt>
      <trkpt lat="59.393167830659" lon="17.951182552389">
        <ele>8.6</ele>
        <time>2018-12-15T11:58:43Z</time>
        <extensions><gpxtpx:TrackPointExtension><gpxtpx:hr>138</gpxtpx:hr></gpxtpx:TrackPointExtension></extensions>
      </trkpt>
      <trkpt lat="59.393043862358" lon="17.95185134419">
        <ele>8.8</ele>
        <time>2018-12-15T11:58:49Z</time>
        <extensions><gpxtpx:TrackPointExtension><gpxtpx:hr>138</gpxtpx:hr></gpxtpx:TrackPointExtension></extensions>
      </trkpt>
      <trkpt lat="59.392983093583" lon="17.952318048382">
        <ele>8.8</ele>
        <time>2018-12-15T11:58:53Z</time>
        <extensions><gpxtpx:TrackPointExtension><gpxtpx:hr>137</gpxtpx:hr></gpxtpx:TrackPointExtension></extensions>
      </trkpt>
      <trkpt lat="59.392897765841" lon="17.952632034356">
        <ele>8.6</ele>
        <time>2018-12-15T11:58:56Z</time>
        <extensions><gpxtpx:TrackPointExtension><gpxtpx:hr>138</gpxtpx:hr></gpxtpx:TrackPointExtension></extensions>
      </trkpt>
      <trkpt lat="59.392761895242" lon="17.953666612273">
        <ele>8.2</ele>
        <time>2018-12-15T11:59:05Z</time>
        <extensions><gpxtpx:TrackPointExtension><gpxtpx:hr>139</gpxtpx:hr></gpxtpx:TrackPointExtension></extensions>
      </trkpt>
      <trkpt lat="59.392615714906" lon="17.954460797298">
        <ele>7.6</ele>
        <time>2018-12-15T11:59:12Z</time>
        <extensions><gpxtpx:TrackPointExtension><gpxtpx:hr>142</gpxtpx:hr></gpxtpx:TrackPointExtension></extensions>
      </trkpt>
      <trkpt lat="59.392535248666" lon="17.954893303338">
        <ele>7.6</ele>
        <time>2018-12-15T11:59:16Z</time>
        <extensions><gpxtpx:TrackPointExtension><gpxtpx:hr>143</gpxtpx:hr></gpxtpx:TrackPointExtension></extensions>
      </trkpt>
      <trkpt lat="59.392542624738" lon="17.955397893718">
        <ele>7.2</ele>
        <time>2018-12-15T11:59:21Z</time>
        <extensions><gpxtpx:TrackPointExtension><gpxtpx:hr>146</gpxtpx:hr></gpxtpx:TrackPointExtension></extensions>
      </trkpt>
      <trkpt lat="59.392554946131" lon="17.955748340957">
        <ele>7.6</ele>
        <time>2018-12-15T11:59:25Z</time>
        <extensions><gpxtpx:TrackPointExtension><gpxtpx:hr>146</gpxtpx:hr></gpxtpx:TrackPointExtension></extensions>
      </trkpt>
      <trkpt lat="59.392542708557" lon="17.955926372513">
        <ele>8</ele>
        <time>2018-12-15T11:59:27Z</time>
        <extensions><gpxtpx:TrackPointExtension><gpxtpx:hr>146</gpxtpx:hr></gpxtpx:TrackPointExtension></extensions>
      </trkpt>
      <trkpt lat="59.392545139308" lon="17.956135920013">
        <ele>9.2</ele>
        <time>2018-12-15T11:59:30Z</time>
        <extensions><gpxtpx:TrackPointExtension><gpxtpx:hr>145</gpxtpx:hr></gpxtpx:TrackPointExtension></extensions>
      </trkpt>
      <trkpt lat="59.392610601947" lon="17.956255110631">
        <ele>10.2</ele>
        <time>2018-12-15T11:59:33Z</time>
        <extensions><gpxtpx:TrackPointExtension><gpxtpx:hr>145</gpxtpx:hr></gpxtpx:TrackPointExtension></extensions>
      </trkpt>
      <trkpt lat="59.392635999104" lon="17.956282100349">
        <ele>10.6</ele>
        <time>2018-12-15T11:59:34Z</time>
        <extensions><gpxtpx:TrackPointExtension><gpxtpx:hr>146</gpxtpx:hr></gpxtpx:TrackPointExtension></extensions>
      </trkpt>
      <trkpt lat="59.392688218341" lon="17.956372121955">
        <ele>11</ele>
        <time>2018-12-15T11:59:37Z</time>
        <extensions><gpxtpx:TrackPointExtension><gpxtpx:hr>143</gpxtpx:hr></gpxtpx:TrackPointExtension></extensions>
      </trkpt>
      <trkpt lat="59.392695678232" lon="17.95640103951">
        <ele>11.2</ele>
        <time>2018-12-15T11:59:38Z</time>
        <extensions><gpxtpx:TrackPointExtension><gpxtpx:hr>142</gpxtpx:hr></gpxtpx:TrackPointExtension></extensions>
      </trkpt>
      <trkpt lat="59.392695762051" lon="17.956422580993">
        <ele>11.4</ele>
        <time>2018-12-15T11:59:39Z</time>
        <extensions><gpxtpx:TrackPointExtension><gpxtpx:hr>142</gpxtpx:hr></gpxtpx:TrackPointExtension></extensions>
      </trkpt>
      <trkpt lat="59.392696181146" lon="17.956436578766">
        <ele>11.4</ele>
        <time>2018-12-15T11:59:41Z</time>
        <extensions><gpxtpx:TrackPointExtension><gpxtpx:hr>141</gpxtpx:hr></gpxtpx:TrackPointExtension></extensions>
      </trkpt>
      <trkpt lat="59.392683189201" lon="17.956492737496">
        <ele>12.6</ele>
        <time>2018-12-15T11:59:50Z</time>
        <extensions><gpxtpx:TrackPointExtension><gpxtpx:hr>137</gpxtpx:hr></gpxtpx:TrackPointExtension></extensions>
      </trkpt>
      <trkpt lat="59.392494512632" lon="17.956797587199">
        <ele>12.6</ele>
        <time>2018-12-15T11:59:56Z</time>
        <extensions><gpxtpx:TrackPointExtension><gpxtpx:hr>134</gpxtpx:hr></gpxtpx:TrackPointExtension></extensions>
      </trkpt>
      <trkpt lat="59.392424691405" lon="17.956947958485">
        <ele>12.6</ele>
        <time>2018-12-15T11:59:58Z</time>
        <extensions><gpxtpx:TrackPointExtension><gpxtpx:hr>130</gpxtpx:hr></gpxtpx:TrackPointExtension></extensions>
      </trkpt>
      <trkpt lat="59.392402144094" lon="17.957092378622">
        <ele>12.2</ele>
        <time>2018-12-15T12:00:00Z</time>
        <extensions><gpxtpx:TrackPointExtension><gpxtpx:hr>125</gpxtpx:hr></gpxtpx:TrackPointExtension></extensions>
      </trkpt>
      <trkpt lat="59.392410358356" lon="17.957236044388">
        <ele>11.4</ele>
        <time>2018-12-15T12:00:02Z</time>
        <extensions><gpxtpx:TrackPointExtension><gpxtpx:hr>122</gpxtpx:hr></gpxtpx:TrackPointExtension></extensions>
      </trkpt>
      <trkpt lat="59.392418488799" lon="17.957404688216">
        <ele>10.4</ele>
        <time>2018-12-15T12:00:04Z</time>
        <extensions><gpxtpx:TrackPointExtension><gpxtpx:hr>123</gpxtpx:hr></gpxtpx:TrackPointExtension></extensions>
      </trkpt>
      <trkpt lat="59.392424188491" lon="17.957493284899">
        <ele>10</ele>
        <time>2018-12-15T12:00:05Z</time>
        <extensions><gpxtpx:TrackPointExtension><gpxtpx:hr>124</gpxtpx:hr></gpxtpx:TrackPointExtension></extensions>
      </trkpt>
      <trkpt lat="59.392437012798" lon="17.957785142657">
        <ele>9.4</ele>
        <time>2018-12-15T12:00:08Z</time>
        <extensions><gpxtpx:TrackPointExtension><gpxtpx:hr>127</gpxtpx:hr></gpxtpx:TrackPointExtension></extensions>
      </trkpt>
      <trkpt lat="59.392455452978" lon="17.958169452772">
        <ele>9.4</ele>
        <time>2018-12-15T12:00:12Z</time>
        <extensions><gpxtpx:TrackPointExtension><gpxtpx:hr>130</gpxtpx:hr></gpxtpx:TrackPointExtension></extensions>
      </trkpt>
      <trkpt lat="59.392483197067" lon="17.958637917163">
        <ele>9.2</ele>
        <time>2018-12-15T12:00:17Z</time>
        <extensions><gpxtpx:TrackPointExtension><gpxtpx:hr>133</gpxtpx:hr></gpxtpx:TrackPointExtension></extensions>
      </trkpt>
      <trkpt lat="59.392511527889" lon="17.959095401265">
        <ele>9.2</ele>
        <time>2018-12-15T12:00:22Z</time>
        <extensions><gpxtpx:TrackPointExtension><gpxtpx:hr>136</gpxtpx:hr></gpxtpx:TrackPointExtension></extensions>
      </trkpt>
      <trkpt lat="59.392411783279" lon="17.95946881491">
        <ele>9</ele>
        <time>2018-12-15T12:00:28Z</time>
        <extensions><gpxtpx:TrackPointExtension><gpxtpx:hr>138</gpxtpx:hr></gpxtpx:TrackPointExtension></extensions>
      </trkpt>
      <trkpt lat="59.392151357646" lon="17.959760085935">
        <ele>9</ele>
        <time>2018-12-15T12:00:35Z</time>
        <extensions><gpxtpx:TrackPointExtension><gpxtpx:hr>136</gpxtpx:hr></gpxtpx:TrackPointExtension></extensions>
      </trkpt>
      <trkpt lat="59.391952706616" lon="17.959954797472">
        <ele>9.2</ele>
        <time>2018-12-15T12:00:41Z</time>
        <extensions><gpxtpx:TrackPointExtension><gpxtpx:hr>139</gpxtpx:hr></gpxtpx:TrackPointExtension></extensions>
      </trkpt>
      <trkpt lat="59.39184173026" lon="17.96028185921">
        <ele>9.6</ele>
        <time>2018-12-15T12:00:47Z</time>
        <extensions><gpxtpx:TrackPointExtension><gpxtpx:hr>142</gpxtpx:hr></gpxtpx:TrackPointExtension></extensions>
      </trkpt>
      <trkpt lat="59.391834521826" lon="17.960403648217">
        <ele>10.2</ele>
        <time>2018-12-15T12:00:49Z</time>
        <extensions><gpxtpx:TrackPointExtension><gpxtpx:hr>143</gpxtpx:hr></gpxtpx:TrackPointExtension></extensions>
      </trkpt>
      <trkpt lat="59.391821194605" lon="17.960596934831">
        <ele>11.4</ele>
        <time>2018-12-15T12:00:52Z</time>
        <extensions><gpxtpx:TrackPointExtension><gpxtpx:hr>146</gpxtpx:hr></gpxtpx:TrackPointExtension></extensions>
      </trkpt>
      <trkpt lat="59.391799317846" lon="17.960906813674">
        <ele>12</ele>
        <time>2018-12-15T12:00:55Z</time>
        <extensions><gpxtpx:TrackPointExtension><gpxtpx:hr>148</gpxtpx:hr></gpxtpx:TrackPointExtension></extensions>
      </trkpt>
      <trkpt lat="59.391740560727" lon="17.961258937293">
        <ele>12</ele>
        <time>2018-12-15T12:00:58Z</time>
        <extensions><gpxtpx:TrackPointExtension><gpxtpx:hr>149</gpxtpx:hr></gpxtpx:TrackPointExtension></extensions>
      </trkpt>
      <trkpt lat="59.391663363428" lon="17.961541491142">
        <ele>12</ele>
        <time>2018-12-15T12:01:01Z</time>
        <extensions><gpxtpx:TrackPointExtension><gpxtpx:hr>150</gpxtpx:hr></gpxtpx:TrackPointExtension></extensions>
      </trkpt>
      <trkpt lat="59.391474938316" lon="17.962076088724">
        <ele>11.8</ele>
        <time>2018-12-15T12:01:08Z</time>
        <extensions><gpxtpx:TrackPointExtension><gpxtpx:hr>151</gpxtpx:hr></gpxtpx:TrackPointExtension></extensions>
      </trkpt>
      <trkpt lat="59.391359603372" lon="17.962322516584">
        <ele>11.2</ele>
        <time>2018-12-15T12:01:11Z</time>
        <extensions><gpxtpx:TrackPointExtension><gpxtpx:hr>150</gpxtpx:hr></gpxtpx:TrackPointExtension></extensions>
      </trkpt>
      <trkpt lat="59.391131196597" lon="17.962594257782">
        <ele>11</ele>
        <time>2018-12-15T12:01:16Z</time>
        <extensions><gpxtpx:TrackPointExtension><gpxtpx:hr>148</gpxtpx:hr></gpxtpx:TrackPointExtension></extensions>
      </trkpt>
      <trkpt lat="59.391081827206" lon="17.962640190594">
        <ele>11.2</ele>
        <time>2018-12-15T12:01:17Z</time>
        <extensions><gpxtpx:TrackPointExtension><gpxtpx:hr>148</gpxtpx:hr></gpxtpx:TrackPointExtension></extensions>
      </trkpt>
      <trkpt lat="59.390856521734" lon="17.963000277018">
        <ele>11.4</ele>
        <time>2018-12-15T12:01:22Z</time>
        <extensions><gpxtpx:TrackPointExtension><gpxtpx:hr>147</gpxtpx:hr></gpxtpx:TrackPointExtension></extensions>
      </trkpt>
      <trkpt lat="59.39040255803" lon="17.963592206796">
        <ele>11</ele>
        <time>2018-12-15T12:01:30Z</time>
        <extensions><gpxtpx:TrackPointExtension><gpxtpx:hr>145</gpxtpx:hr></gpxtpx:TrackPointExtension></extensions>
      </trkpt>
      <trkpt lat="59.389929483594" lon="17.964249766851">
        <ele>12</ele>
        <time>2018-12-15T12:01:41Z</time>
        <extensions><gpxtpx:TrackPointExtension><gpxtpx:hr>144</gpxtpx:hr></gpxtpx:TrackPointExtension></extensions>
      </trkpt>
      <trkpt lat="59.3898937767" lon="17.964308607789">
        <ele>12.4</ele>
        <time>2018-12-15T12:01:42Z</time>
        <extensions><gpxtpx:TrackPointExtension><gpxtpx:hr>144</gpxtpx:hr></gpxtpx:TrackPointExtension></extensions>
      </trkpt>
      <trkpt lat="59.38985605815" lon="17.964374154247">
        <ele>12.6</ele>
        <time>2018-12-15T12:01:43Z</time>
        <extensions><gpxtpx:TrackPointExtension><gpxtpx:hr>144</gpxtpx:hr></gpxtpx:TrackPointExtension></extensions>
      </trkpt>
      <trkpt lat="59.389690012711" lon="17.964646733635">
        <ele>13.6</ele>
        <time>2018-12-15T12:01:47Z</time>
        <extensions><gpxtpx:TrackPointExtension><gpxtpx:hr>146</gpxtpx:hr></gpxtpx:TrackPointExtension></extensions>
      </trkpt>
      <trkpt lat="59.389598314725" lon="17.964782604234">
        <ele>13.8</ele>
        <time>2018-12-15T12:01:49Z</time>
        <extensions><gpxtpx:TrackPointExtension><gpxtpx:hr>147</gpxtpx:hr></gpxtpx:TrackPointExtension></extensions>
      </trkpt>
      <trkpt lat="59.389416427495" lon="17.965016123968">
        <ele>14.2</ele>
        <time>2018-12-15T12:01:53Z</time>
        <extensions><gpxtpx:TrackPointExtension><gpxtpx:hr>149</gpxtpx:hr></gpxtpx:TrackPointExtension></extensions>
      </trkpt>
      <trkpt lat="59.389291034271" lon="17.965293900134">
        <ele>14.2</ele>
        <time>2018-12-15T12:01:57Z</time>
        <extensions><gpxtpx:TrackPointExtension><gpxtpx:hr>150</gpxtpx:hr></gpxtpx:TrackPointExtension></extensions>
      </trkpt>
      <trkpt lat="59.389231355143" lon="17.965565473694">
        <ele>14.8</ele>
        <time>2018-12-15T12:02:01Z</time>
        <extensions><gpxtpx:TrackPointExtension><gpxtpx:hr>152</gpxtpx:hr></gpxtpx:TrackPointExtension></extensions>
      </trkpt>
      <trkpt lat="59.389169496721" lon="17.965838555996">
        <ele>15.8</ele>
        <time>2018-12-15T12:02:05Z</time>
        <extensions><gpxtpx:TrackPointExtension><gpxtpx:hr>153</gpxtpx:hr></gpxtpx:TrackPointExtension></extensions>
      </trkpt>
      <trkpt lat="59.389099256399" lon="17.966081798734">
        <ele>17</ele>
        <time>2018-12-15T12:02:09Z</time>
        <extensions><gpxtpx:TrackPointExtension><gpxtpx:hr>155</gpxtpx:hr></gpxtpx:TrackPointExtension></extensions>
      </trkpt>
      <trkpt lat="59.389036559787" lon="17.966275504443">
        <ele>18.8</ele>
        <time>2018-12-15T12:02:12Z</time>
        <extensions><gpxtpx:TrackPointExtension><gpxtpx:hr>157</gpxtpx:hr></gpxtpx:TrackPointExtension></extensions>
      </trkpt>
      <trkpt lat="59.388992051898" lon="17.966425288996">
        <ele>20.2</ele>
        <time>2018-12-15T12:02:14Z</time>
        <extensions><gpxtpx:TrackPointExtension><gpxtpx:hr>158</gpxtpx:hr></gpxtpx:TrackPointExtension></extensions>
      </trkpt>
      <trkpt lat="59.388921141024" lon="17.966623437112">
        <ele>21.4</ele>
        <time>2018-12-15T12:02:18Z</time>
        <extensions><gpxtpx:TrackPointExtension><gpxtpx:hr>161</gpxtpx:hr></gpxtpx:TrackPointExtension></extensions>
      </trkpt>
      <trkpt lat="59.388840088051" lon="17.966783112307">
        <ele>22.6</ele>
        <time>2018-12-15T12:02:21Z</time>
        <extensions><gpxtpx:TrackPointExtension><gpxtpx:hr>162</gpxtpx:hr></gpxtpx:TrackPointExtension></extensions>
      </trkpt>
      <trkpt lat="59.388777223801" lon="17.966880174709">
        <ele>24</ele>
        <time>2018-12-15T12:02:23Z</time>
        <extensions><gpxtpx:TrackPointExtension><gpxtpx:hr>163</gpxtpx:hr></gpxtpx:TrackPointExtension></extensions>
      </trkpt>
      <trkpt lat="59.388705390918" lon="17.966956198542">
        <ele>25.8</ele>
        <time>2018-12-15T12:02:25Z</time>
        <extensions><gpxtpx:TrackPointExtension><gpxtpx:hr>164</gpxtpx:hr></gpxtpx:TrackPointExtension></extensions>
      </trkpt>
      <trkpt lat="59.388604724299" lon="17.967050159641">
        <ele>27</ele>
        <time>2018-12-15T12:02:28Z</time>
        <extensions><gpxtpx:TrackPointExtension><gpxtpx:hr>164</gpxtpx:hr></gpxtpx:TrackPointExtension></extensions>
      </trkpt>
      <trkpt lat="59.388433062987" lon="17.967145880939">
        <ele>27.8</ele>
        <time>2018-12-15T12:02:35Z</time>
        <extensions><gpxtpx:TrackPointExtension><gpxtpx:hr>161</gpxtpx:hr></gpxtpx:TrackPointExtension></extensions>
      </trkpt>
      <trkpt lat="59.388418813757" lon="17.967155771581">
        <ele>28</ele>
        <time>2018-12-15T12:02:36Z</time>
        <extensions><gpxtpx:TrackPointExtension><gpxtpx:hr>160</gpxtpx:hr></gpxtpx:TrackPointExtension></extensions>
      </trkpt>
      <trkpt lat="59.388376736619" lon="17.967186114059">
        <ele>28.2</ele>
        <time>2018-12-15T12:02:39Z</time>
        <extensions><gpxtpx:TrackPointExtension><gpxtpx:hr>159</gpxtpx:hr></gpxtpx:TrackPointExtension></extensions>
      </trkpt>
      <trkpt lat="59.388291492696" lon="17.967215450709">
        <ele>29.2</ele>
        <time>2018-12-15T12:04:20Z</time>
        <extensions><gpxtpx:TrackPointExtension><gpxtpx:hr>125</gpxtpx:hr></gpxtpx:TrackPointExtension></extensions>
      </trkpt>
      <trkpt lat="59.388280512407" lon="17.967217378546">
        <ele>29.2</ele>
        <time>2018-12-15T12:04:21Z</time>
        <extensions><gpxtpx:TrackPointExtension><gpxtpx:hr>126</gpxtpx:hr></gpxtpx:TrackPointExtension></extensions>
      </trkpt>
      <trkpt lat="59.388218821623" lon="17.967215953623">
        <ele>29.2</ele>
        <time>2018-12-15T12:04:24Z</time>
        <extensions><gpxtpx:TrackPointExtension><gpxtpx:hr>129</gpxtpx:hr></gpxtpx:TrackPointExtension></extensions>
      </trkpt>
      <trkpt lat="59.388155538278" lon="17.967217378546">
        <ele>29.2</ele>
        <time>2018-12-15T12:04:26Z</time>
        <extensions><gpxtpx:TrackPointExtension><gpxtpx:hr>132</gpxtpx:hr></gpxtpx:TrackPointExtension></extensions>
      </trkpt>
      <trkpt lat="59.388073563296" lon="17.967226095722">
        <ele>29.4</ele>
        <time>2018-12-15T12:04:28Z</time>
        <extensions><gpxtpx:TrackPointExtension><gpxtpx:hr>135</gpxtpx:hr></gpxtpx:TrackPointExtension></extensions>
      </trkpt>
      <trkpt lat="59.38792822115" lon="17.967283427918">
        <ele>29.6</ele>
        <time>2018-12-15T12:04:31Z</time>
        <extensions><gpxtpx:TrackPointExtension><gpxtpx:hr>138</gpxtpx:hr></gpxtpx:TrackPointExtension></extensions>
      </trkpt>
      <trkpt lat="59.38778069971" lon="17.967367498375">
        <ele>29.8</ele>
        <time>2018-12-15T12:04:34Z</time>
        <extensions><gpxtpx:TrackPointExtension><gpxtpx:hr>141</gpxtpx:hr></gpxtpx:TrackPointExtension></extensions>
      </trkpt>
      <trkpt lat="59.387646086396" lon="17.967434888851">
        <ele>30.2</ele>
        <time>2018-12-15T12:04:37Z</time>
        <extensions><gpxtpx:TrackPointExtension><gpxtpx:hr>143</gpxtpx:hr></gpxtpx:TrackPointExtension></extensions>
      </trkpt>
      <trkpt lat="59.387470317953" lon="17.967480737844">
        <ele>30.4</ele>
        <time>2018-12-15T12:04:41Z</time>
        <extensions><gpxtpx:TrackPointExtension><gpxtpx:hr>147</gpxtpx:hr></gpxtpx:TrackPointExtension></extensions>
      </trkpt>
      <trkpt lat="59.387306032713" lon="17.967527089751">
        <ele>31.2</ele>
        <time>2018-12-15T12:04:45Z</time>
        <extensions><gpxtpx:TrackPointExtension><gpxtpx:hr>150</gpxtpx:hr></gpxtpx:TrackPointExtension></extensions>
      </trkpt>
      <trkpt lat="59.387228751595" lon="17.967555504392">
        <ele>32.2</ele>
        <time>2018-12-15T12:04:47Z</time>
        <extensions><gpxtpx:TrackPointExtension><gpxtpx:hr>153</gpxtpx:hr></gpxtpx:TrackPointExtension></extensions>
      </trkpt>
      <trkpt lat="59.387190446312" lon="17.967576542961">
        <ele>32.6</ele>
        <time>2018-12-15T12:04:48Z</time>
        <extensions><gpxtpx:TrackPointExtension><gpxtpx:hr>153</gpxtpx:hr></gpxtpx:TrackPointExtension></extensions>
      </trkpt>
      <trkpt lat="59.387081481612" lon="17.967637227917">
        <ele>33.6</ele>
        <time>2018-12-15T12:04:51Z</time>
        <extensions><gpxtpx:TrackPointExtension><gpxtpx:hr>156</gpxtpx:hr></gpxtpx:TrackPointExtension></extensions>
      </trkpt>
      <trkpt lat="59.386984000115" lon="17.967669582051">
        <ele>34.8</ele>
        <time>2018-12-15T12:04:54Z</time>
        <extensions><gpxtpx:TrackPointExtension><gpxtpx:hr>159</gpxtpx:hr></gpxtpx:TrackPointExtension></extensions>
      </trkpt>
      <trkpt lat="59.386913340698" lon="17.967693805742">
        <ele>36</ele>
        <time>2018-12-15T12:04:56Z</time>
        <extensions><gpxtpx:TrackPointExtension><gpxtpx:hr>161</gpxtpx:hr></gpxtpx:TrackPointExtension></extensions>
      </trkpt>
      <trkpt lat="59.386874281044" lon="17.96771660451">
        <ele>37.6</ele>
        <time>2018-12-15T12:04:57Z</time>
        <extensions><gpxtpx:TrackPointExtension><gpxtpx:hr>162</gpxtpx:hr></gpxtpx:TrackPointExtension></extensions>
      </trkpt>
      <trkpt lat="59.386807644939" lon="17.967773014697">
        <ele>38.8</ele>
        <time>2018-12-15T12:04:59Z</time>
        <extensions><gpxtpx:TrackPointExtension><gpxtpx:hr>163</gpxtpx:hr></gpxtpx:TrackPointExtension></extensions>
      </trkpt>
      <trkpt lat="59.386740338282" lon="17.967853648575">
        <ele>40.2</ele>
        <time>2018-12-15T12:05:01Z</time>
        <extensions><gpxtpx:TrackPointExtension><gpxtpx:hr>164</gpxtpx:hr></gpxtpx:TrackPointExtension></extensions>
      </trkpt>
      <trkpt lat="59.38661980656" lon="17.968044672076">
        <ele>41.2</ele>
        <time>2018-12-15T12:05:05Z</time>
        <extensions><gpxtpx:TrackPointExtension><gpxtpx:hr>164</gpxtpx:hr></gpxtpx:TrackPointExtension></extensions>
      </trkpt>
      <trkpt lat="59.386248991304" lon="17.968786554045">
        <ele>41.2</ele>
        <time>2018-12-15T12:05:14Z</time>
        <extensions><gpxtpx:TrackPointExtension><gpxtpx:hr>162</gpxtpx:hr></gpxtpx:TrackPointExtension></extensions>
      </trkpt>
      <trkpt lat="59.386109684126" lon="17.96893617096">
        <ele>40</ele>
        <time>2018-12-15T12:05:17Z</time>
        <extensions><gpxtpx:TrackPointExtension><gpxtpx:hr>161</gpxtpx:hr></gpxtpx:TrackPointExtension></extensions>
      </trkpt>
      <trkpt lat="59.386026116583" lon="17.968972716044">
        <ele>38.6</ele>
        <time>2018-12-15T12:05:19Z</time>
        <extensions><gpxtpx:TrackPointExtension><gpxtpx:hr>160</gpxtpx:hr></gpxtpx:TrackPointExtension></extensions>
      </trkpt>
      <trkpt lat="59.385886474129" lon="17.969068102066">
        <ele>37.6</ele>
        <time>2018-12-15T12:05:22Z</time>
        <extensions><gpxtpx:TrackPointExtension><gpxtpx:hr>158</gpxtpx:hr></gpxtpx:TrackPointExtension></extensions>
      </trkpt>
      <trkpt lat="59.385741048164" lon="17.969146808107">
        <ele>37.6</ele>
        <time>2018-12-15T12:05:25Z</time>
        <extensions><gpxtpx:TrackPointExtension><gpxtpx:hr>157</gpxtpx:hr></gpxtpx:TrackPointExtension></extensions>
      </trkpt>
      <trkpt lat="59.385692852239" lon="17.969159297138">
        <ele>37.4</ele>
        <time>2018-12-15T12:05:26Z</time>
        <extensions><gpxtpx:TrackPointExtension><gpxtpx:hr>156</gpxtpx:hr></gpxtpx:TrackPointExtension></extensions>
      </trkpt>
      <trkpt lat="59.385502918385" lon="17.969186370675">
        <ele>37.4</ele>
        <time>2018-12-15T12:05:30Z</time>
        <extensions><gpxtpx:TrackPointExtension><gpxtpx:hr>155</gpxtpx:hr></gpxtpx:TrackPointExtension></extensions>
      </trkpt>
      <trkpt lat="59.38514375397" lon="17.96914739484">
        <ele>37.8</ele>
        <time>2018-12-15T12:05:37Z</time>
        <extensions><gpxtpx:TrackPointExtension><gpxtpx:hr>153</gpxtpx:hr></gpxtpx:TrackPointExtension></extensions>
      </trkpt>
      <trkpt lat="59.384843430493" lon="17.969033736276">
        <ele>37.6</ele>
        <time>2018-12-15T12:05:42Z</time>
        <extensions><gpxtpx:TrackPointExtension><gpxtpx:hr>152</gpxtpx:hr></gpxtpx:TrackPointExtension></extensions>
      </trkpt>
      <trkpt lat="59.38458971038" lon="17.968902894817">
        <ele>37.4</ele>
        <time>2018-12-15T12:05:46Z</time>
        <extensions><gpxtpx:TrackPointExtension><gpxtpx:hr>149</gpxtpx:hr></gpxtpx:TrackPointExtension></extensions>
      </trkpt>
      <trkpt lat="59.384524666836" lon="17.96889174689">
        <ele>37.4</ele>
        <time>2018-12-15T12:05:47Z</time>
        <extensions><gpxtpx:TrackPointExtension><gpxtpx:hr>148</gpxtpx:hr></gpxtpx:TrackPointExtension></extensions>
      </trkpt>
      <trkpt lat="59.384279412442" lon="17.968895267288">
        <ele>37</ele>
        <time>2018-12-15T12:05:51Z</time>
        <extensions><gpxtpx:TrackPointExtension><gpxtpx:hr>144</gpxtpx:hr></gpxtpx:TrackPointExtension></extensions>
      </trkpt>
      <trkpt lat="59.384089227131" lon="17.968955533149">
        <ele>36.6</ele>
        <time>2018-12-15T12:05:54Z</time>
        <extensions><gpxtpx:TrackPointExtension><gpxtpx:hr>141</gpxtpx:hr></gpxtpx:TrackPointExtension></extensions>
      </trkpt>
      <trkpt lat="59.384031056745" lon="17.969007752386">
        <ele>36.2</ele>
        <time>2018-12-15T12:05:55Z</time>
        <extensions><gpxtpx:TrackPointExtension><gpxtpx:hr>138</gpxtpx:hr></gpxtpx:TrackPointExtension></extensions>
      </trkpt>
      <trkpt lat="59.383946651012" lon="17.969153010713">
        <ele>35.8</ele>
        <time>2018-12-15T12:05:57Z</time>
        <extensions><gpxtpx:TrackPointExtension><gpxtpx:hr>135</gpxtpx:hr></gpxtpx:TrackPointExtension></extensions>
      </trkpt>
      <trkpt lat="59.38391077648" lon="17.969233057858">
        <ele>35.8</ele>
        <time>2018-12-15T12:05:58Z</time>
        <extensions><gpxtpx:TrackPointExtension><gpxtpx:hr>132</gpxtpx:hr></gpxtpx:TrackPointExtension></extensions>
      </trkpt>
      <trkpt lat="59.383871465369" lon="17.969314529926">
        <ele>35.6</ele>
        <time>2018-12-15T12:05:59Z</time>
        <extensions><gpxtpx:TrackPointExtension><gpxtpx:hr>131</gpxtpx:hr></gpxtpx:TrackPointExtension></extensions>
      </trkpt>
      <trkpt lat="59.383835507018" lon="17.969407149921">
        <ele>35.6</ele>
        <time>2018-12-15T12:06:00Z</time>
        <extensions><gpxtpx:TrackPointExtension><gpxtpx:hr>131</gpxtpx:hr></gpxtpx:TrackPointExtension></extensions>
      </trkpt>
      <trkpt lat="59.383746658878" lon="17.969719208058">
        <ele>34.8</ele>
        <time>2018-12-15T12:06:03Z</time>
        <extensions><gpxtpx:TrackPointExtension><gpxtpx:hr>130</gpxtpx:hr></gpxtpx:TrackPointExtension></extensions>
      </trkpt>
      <trkpt lat="59.383664180982" lon="17.969931521585">
        <ele>34.4</ele>
        <time>2018-12-15T12:06:05Z</time>
        <extensions><gpxtpx:TrackPointExtension><gpxtpx:hr>126</gpxtpx:hr></gpxtpx:TrackPointExtension></extensions>
      </trkpt>
      <trkpt lat="59.383549432771" lon="17.970113157358">
        <ele>33.8</ele>
        <time>2018-12-15T12:06:07Z</time>
        <extensions><gpxtpx:TrackPointExtension><gpxtpx:hr>124</gpxtpx:hr></gpxtpx:TrackPointExtension></extensions>
      </trkpt>
      <trkpt lat="59.383477851345" lon="17.970183313861">
        <ele>33.6</ele>
        <time>2018-12-15T12:06:08Z</time>
        <extensions><gpxtpx:TrackPointExtension><gpxtpx:hr>121</gpxtpx:hr></gpxtpx:TrackPointExtension></extensions>
      </trkpt>
      <trkpt lat="59.383315913037" lon="17.970245842835">
        <ele>32.6</ele>
        <time>2018-12-15T12:06:10Z</time>
        <extensions><gpxtpx:TrackPointExtension><gpxtpx:hr>120</gpxtpx:hr></gpxtpx:TrackPointExtension></extensions>
      </trkpt>
      <trkpt lat="59.383225472336" lon="17.970255984934">
        <ele>32.2</ele>
        <time>2018-12-15T12:06:11Z</time>
        <extensions><gpxtpx:TrackPointExtension><gpxtpx:hr>120</gpxtpx:hr></gpxtpx:TrackPointExtension></extensions>
      </trkpt>
      <trkpt lat="59.383039561794" lon="17.97027140763">
        <ele>31.4</ele>
        <time>2018-12-15T12:06:13Z</time>
        <extensions><gpxtpx:TrackPointExtension><gpxtpx:hr>120</gpxtpx:hr></gpxtpx:TrackPointExtension></extensions>
      </trkpt>
      <trkpt lat="59.382854070347" lon="17.970298145891">
        <ele>30</ele>
        <time>2018-12-15T12:06:15Z</time>
        <extensions><gpxtpx:TrackPointExtension><gpxtpx:hr>117</gpxtpx:hr></gpxtpx:TrackPointExtension></extensions>
      </trkpt>
      <trkpt lat="59.382757846135" lon="17.970311054017">
        <ele>28.8</ele>
        <time>2018-12-15T12:06:16Z</time>
        <extensions><gpxtpx:TrackPointExtension><gpxtpx:hr>117</gpxtpx:hr></gpxtpx:TrackPointExtension></extensions>
      </trkpt>
      <trkpt lat="59.382665729054" lon="17.970304348497">
        <ele>27.2</ele>
        <time>2018-12-15T12:06:17Z</time>
        <extensions><gpxtpx:TrackPointExtension><gpxtpx:hr>117</gpxtpx:hr></gpxtpx:TrackPointExtension></extensions>
      </trkpt>
      <trkpt lat="59.382578222018" lon="17.970273000191">
        <ele>26</ele>
        <time>2018-12-15T12:06:18Z</time>
        <extensions><gpxtpx:TrackPointExtension><gpxtpx:hr>116</gpxtpx:hr></gpxtpx:TrackPointExtension></extensions>
      </trkpt>
      <trkpt lat="59.382493900104" lon="17.970217931108">
        <ele>24.8</ele>
        <time>2018-12-15T12:06:19Z</time>
        <extensions><gpxtpx:TrackPointExtension><gpxtpx:hr>114</gpxtpx:hr></gpxtpx:TrackPointExtension></extensions>
      </trkpt>
      <trkpt lat="59.382411338389" lon="17.970151043546">
        <ele>23.8</ele>
        <time>2018-12-15T12:06:20Z</time>
        <extensions><gpxtpx:TrackPointExtension><gpxtpx:hr>113</gpxtpx:hr></gpxtpx:TrackPointExtension></extensions>
      </trkpt>
      <trkpt lat="59.382253758669" lon="17.970006958685">
        <ele>21.6</ele>
        <time>2018-12-15T12:06:22Z</time>
        <extensions><gpxtpx:TrackPointExtension><gpxtpx:hr>115</gpxtpx:hr></gpxtpx:TrackPointExtension></extensions>
      </trkpt>
      <trkpt lat="59.382105734315" lon="17.969864634023">
        <ele>20.4</ele>
        <time>2018-12-15T12:06:24Z</time>
        <extensions><gpxtpx:TrackPointExtension><gpxtpx:hr>117</gpxtpx:hr></gpxtpx:TrackPointExtension></extensions>
      </trkpt>
      <trkpt lat="59.381970785725" lon="17.969752316563">
        <ele>19.4</ele>
        <time>2018-12-15T12:06:26Z</time>
        <extensions><gpxtpx:TrackPointExtension><gpxtpx:hr>119</gpxtpx:hr></gpxtpx:TrackPointExtension></extensions>
      </trkpt>
      <trkpt lat="59.381905993638" lon="17.969733457288">
        <ele>18.8</ele>
        <time>2018-12-15T12:06:27Z</time>
        <extensions><gpxtpx:TrackPointExtension><gpxtpx:hr>120</gpxtpx:hr></gpxtpx:TrackPointExtension></extensions>
      </trkpt>
      <trkpt lat="59.381747575728" lon="17.969877961244">
        <ele>18</ele>
        <time>2018-12-15T12:06:30Z</time>
        <extensions><gpxtpx:TrackPointExtension><gpxtpx:hr>117</gpxtpx:hr></gpxtpx:TrackPointExtension></extensions>
      </trkpt>
      <trkpt lat="59.381706420599" lon="17.969962366977">
        <ele>17.8</ele>
        <time>2018-12-15T12:06:31Z</time>
        <extensions><gpxtpx:TrackPointExtension><gpxtpx:hr>118</gpxtpx:hr></gpxtpx:TrackPointExtension></extensions>
      </trkpt>
      <trkpt lat="59.381601898306" lon="17.9702655403">
        <ele>17.6</ele>
        <time>2018-12-15T12:06:34Z</time>
        <extensions><gpxtpx:TrackPointExtension><gpxtpx:hr>122</gpxtpx:hr></gpxtpx:TrackPointExtension></extensions>
      </trkpt>
      <trkpt lat="59.381538950237" lon="17.970461257665">
        <ele>17.6</ele>
        <time>2018-12-15T12:06:36Z</time>
        <extensions><gpxtpx:TrackPointExtension><gpxtpx:hr>126</gpxtpx:hr></gpxtpx:TrackPointExtension></extensions>
      </trkpt>
      <trkpt lat="59.381324792692" lon="17.970802484814">
        <ele>17.8</ele>
        <time>2018-12-15T12:06:41Z</time>
        <extensions><gpxtpx:TrackPointExtension><gpxtpx:hr>128</gpxtpx:hr></gpxtpx:TrackPointExtension></extensions>
      </trkpt>
      <trkpt lat="59.381084232162" lon="17.97102661682">
        <ele>18</ele>
        <time>2018-12-15T12:06:46Z</time>
        <extensions><gpxtpx:TrackPointExtension><gpxtpx:hr>131</gpxtpx:hr></gpxtpx:TrackPointExtension></extensions>
      </trkpt>
      <trkpt lat="59.380706459929" lon="17.971426684907">
        <ele>17.6</ele>
        <time>2018-12-15T12:06:54Z</time>
        <extensions><gpxtpx:TrackPointExtension><gpxtpx:hr>134</gpxtpx:hr></gpxtpx:TrackPointExtension></extensions>
      </trkpt>
      <trkpt lat="59.380532367866" lon="17.971574709261">
        <ele>17.4</ele>
        <time>2018-12-15T12:06:57Z</time>
        <extensions><gpxtpx:TrackPointExtension><gpxtpx:hr>134</gpxtpx:hr></gpxtpx:TrackPointExtension></extensions>
      </trkpt>
      <trkpt lat="59.380349977722" lon="17.971678309545">
        <ele>17.2</ele>
        <time>2018-12-15T12:07:00Z</time>
        <extensions><gpxtpx:TrackPointExtension><gpxtpx:hr>129</gpxtpx:hr></gpxtpx:TrackPointExtension></extensions>
      </trkpt>
      <trkpt lat="59.380215364408" lon="17.971726589289">
        <ele>16.8</ele>
        <time>2018-12-15T12:07:02Z</time>
        <extensions><gpxtpx:TrackPointExtension><gpxtpx:hr>124</gpxtpx:hr></gpxtpx:TrackPointExtension></extensions>
      </trkpt>
      <trkpt lat="59.38014814157" lon="17.971757937595">
        <ele>16.4</ele>
        <time>2018-12-15T12:07:03Z</time>
        <extensions><gpxtpx:TrackPointExtension><gpxtpx:hr>122</gpxtpx:hr></gpxtpx:TrackPointExtension></extensions>
      </trkpt>
      <trkpt lat="59.380023335079" lon="17.971874110729">
        <ele>15.8</ele>
        <time>2018-12-15T12:07:05Z</time>
        <extensions><gpxtpx:TrackPointExtension><gpxtpx:hr>120</gpxtpx:hr></gpxtpx:TrackPointExtension></extensions>
      </trkpt>
      <trkpt lat="59.379788474241" lon="17.972255235722">
        <ele>14.8</ele>
        <time>2018-12-15T12:07:09Z</time>
        <extensions><gpxtpx:TrackPointExtension><gpxtpx:hr>123</gpxtpx:hr></gpxtpx:TrackPointExtension></extensions>
      </trkpt>
      <trkpt lat="59.379605245907" lon="17.972558157588">
        <ele>14.2</ele>
        <time>2018-12-15T12:07:12Z</time>
        <extensions><gpxtpx:TrackPointExtension><gpxtpx:hr>126</gpxtpx:hr></gpxtpx:TrackPointExtension></extensions>
      </trkpt>
      <trkpt lat="59.379402487746" lon="17.972823947637">
        <ele>13.6</ele>
        <time>2018-12-15T12:07:14Z</time>
        <extensions><gpxtpx:TrackPointExtension><gpxtpx:hr>124</gpxtpx:hr></gpxtpx:TrackPointExtension></extensions>
      </trkpt>
      <trkpt lat="59.379264605491" lon="17.972995692768">
        <ele>12.8</ele>
        <time>2018-12-15T12:07:17Z</time>
        <extensions><gpxtpx:TrackPointExtension><gpxtpx:hr>121</gpxtpx:hr></gpxtpx:TrackPointExtension></extensions>
      </trkpt>
      <trkpt lat="59.379194448988" lon="17.973079595587">
        <ele>12.6</ele>
        <time>2018-12-15T12:07:18Z</time>
        <extensions><gpxtpx:TrackPointExtension><gpxtpx:hr>121</gpxtpx:hr></gpxtpx:TrackPointExtension></extensions>
      </trkpt>
      <trkpt lat="59.378997893433" lon="17.973308253819">
        <ele>11.4</ele>
        <time>2018-12-15T12:07:21Z</time>
        <extensions><gpxtpx:TrackPointExtension><gpxtpx:hr>120</gpxtpx:hr></gpxtpx:TrackPointExtension></extensions>
      </trkpt>
      <trkpt lat="59.378931592604" lon="17.973364496368">
        <ele>10.8</ele>
        <time>2018-12-15T12:07:22Z</time>
        <extensions><gpxtpx:TrackPointExtension><gpxtpx:hr>121</gpxtpx:hr></gpxtpx:TrackPointExtension></extensions>
      </trkpt>
      <trkpt lat="59.378798739489" lon="17.973406154411">
        <ele>10.2</ele>
        <time>2018-12-15T12:07:24Z</time>
        <extensions><gpxtpx:TrackPointExtension><gpxtpx:hr>121</gpxtpx:hr></gpxtpx:TrackPointExtension></extensions>
      </trkpt>
      <trkpt lat="59.378650966592" lon="17.973376650123">
        <ele>9.4</ele>
        <time>2018-12-15T12:07:26Z</time>
        <extensions><gpxtpx:TrackPointExtension><gpxtpx:hr>121</gpxtpx:hr></gpxtpx:TrackPointExtension></extensions>
      </trkpt>
      <trkpt lat="59.378572847284" lon="17.973354354269">
        <ele>9</ele>
        <time>2018-12-15T12:07:27Z</time>
        <extensions><gpxtpx:TrackPointExtension><gpxtpx:hr>122</gpxtpx:hr></gpxtpx:TrackPointExtension></extensions>
      </trkpt>
      <trkpt lat="59.378243187157" lon="17.973258213876">
        <ele>8.2</ele>
        <time>2018-12-15T12:07:31Z</time>
        <extensions><gpxtpx:TrackPointExtension><gpxtpx:hr>125</gpxtpx:hr></gpxtpx:TrackPointExtension></extensions>
      </trkpt>
      <trkpt lat="59.378160709261" lon="17.973232481443">
        <ele>7.4</ele>
        <time>2018-12-15T12:07:32Z</time>
        <extensions><gpxtpx:TrackPointExtension><gpxtpx:hr>125</gpxtpx:hr></gpxtpx:TrackPointExtension></extensions>
      </trkpt>
      <trkpt lat="59.37792107074" lon="17.97315645761">
        <ele>6.2</ele>
        <time>2018-12-15T12:07:35Z</time>
        <extensions><gpxtpx:TrackPointExtension><gpxtpx:hr>128</gpxtpx:hr></gpxtpx:TrackPointExtension></extensions>
      </trkpt>
      <trkpt lat="59.377384293864" lon="17.97291002975">
        <ele>5.6</ele>
        <time>2018-12-15T12:07:44Z</time>
        <extensions><gpxtpx:TrackPointExtension><gpxtpx:hr>127</gpxtpx:hr></gpxtpx:TrackPointExtension></extensions>
      </trkpt>
      <trkpt lat="59.37732847041" lon="17.972875077227">
        <ele>7</ele>
        <time>2018-12-15T12:07:49Z</time>
        <extensions><gpxtpx:TrackPointExtension><gpxtpx:hr>126</gpxtpx:hr></gpxtpx:TrackPointExtension></extensions>
      </trkpt>
      <trkpt lat="59.377296032457" lon="17.972855128305">
        <ele>9.6</ele>
        <time>2018-12-15T12:07:57Z</time>
        <extensions><gpxtpx:TrackPointExtension><gpxtpx:hr>127</gpxtpx:hr></gpxtpx:TrackPointExtension></extensions>
      </trkpt>
      <trkpt lat="59.3771029973" lon="17.972742056474">
        <ele>9.8</ele>
        <time>2018-12-15T12:08:03Z</time>
        <extensions><gpxtpx:TrackPointExtension><gpxtpx:hr>130</gpxtpx:hr></gpxtpx:TrackPointExtension></extensions>
      </trkpt>
      <trkpt lat="59.376911806161" lon="17.972628649367">
        <ele>10</ele>
        <time>2018-12-15T12:08:08Z</time>
        <extensions><gpxtpx:TrackPointExtension><gpxtpx:hr>133</gpxtpx:hr></gpxtpx:TrackPointExtension></extensions>
      </trkpt>
      <trkpt lat="59.376779623598" lon="17.972576262492">
        <ele>10</ele>
        <time>2018-12-15T12:08:11Z</time>
        <extensions><gpxtpx:TrackPointExtension><gpxtpx:hr>134</gpxtpx:hr></gpxtpx:TrackPointExtension></extensions>
      </trkpt>
      <trkpt lat="59.376611315046" lon="17.972489342189">
        <ele>10.8</ele>
        <time>2018-12-15T12:08:15Z</time>
        <extensions><gpxtpx:TrackPointExtension><gpxtpx:hr>136</gpxtpx:hr></gpxtpx:TrackPointExtension></extensions>
      </trkpt>
      <trkpt lat="59.376383914099" lon="17.972406026103">
        <ele>11.6</ele>
        <time>2018-12-15T12:08:20Z</time>
        <extensions><gpxtpx:TrackPointExtension><gpxtpx:hr>139</gpxtpx:hr></gpxtpx:TrackPointExtension></extensions>
      </trkpt>
      <trkpt lat="59.376338987115" lon="17.972388172656">
        <ele>11.8</ele>
        <time>2018-12-15T12:08:21Z</time>
        <extensions><gpxtpx:TrackPointExtension><gpxtpx:hr>140</gpxtpx:hr></gpxtpx:TrackPointExtension></extensions>
      </trkpt>
      <trkpt lat="59.376157267523" lon="17.972314579574">
        <ele>12.4</ele>
        <time>2018-12-15T12:08:25Z</time>
        <extensions><gpxtpx:TrackPointExtension><gpxtpx:hr>142</gpxtpx:hr></gpxtpx:TrackPointExtension></extensions>
      </trkpt>
      <trkpt lat="59.376022905666" lon="17.972290858797">
        <ele>12.8</ele>
        <time>2018-12-15T12:08:28Z</time>
        <extensions><gpxtpx:TrackPointExtension><gpxtpx:hr>145</gpxtpx:hr></gpxtpx:TrackPointExtension></extensions>
      </trkpt>
      <trkpt lat="59.375981750537" lon="17.972291864625">
        <ele>13</ele>
        <time>2018-12-15T12:08:29Z</time>
        <extensions><gpxtpx:TrackPointExtension><gpxtpx:hr>146</gpxtpx:hr></gpxtpx:TrackPointExtension></extensions>
      </trkpt>
      <trkpt lat="59.375811681786" lon="17.972314831031">
        <ele>13.6</ele>
        <time>2018-12-15T12:08:33Z</time>
        <extensions><gpxtpx:TrackPointExtension><gpxtpx:hr>149</gpxtpx:hr></gpxtpx:TrackPointExtension></extensions>
      </trkpt>
      <trkpt lat="59.375768515001" lon="17.972315501583">
        <ele>14</ele>
        <time>2018-12-15T12:08:34Z</time>
        <extensions><gpxtpx:TrackPointExtension><gpxtpx:hr>150</gpxtpx:hr></gpxtpx:TrackPointExtension></extensions>
      </trkpt>
      <trkpt lat="59.37568477982" lon="17.972317261782">
        <ele>14.4</ele>
        <time>2018-12-15T12:08:36Z</time>
        <extensions><gpxtpx:TrackPointExtension><gpxtpx:hr>151</gpxtpx:hr></gpxtpx:TrackPointExtension></extensions>
      </trkpt>
      <trkpt lat="59.375607163426" lon="17.972325140768">
        <ele>15</ele>
        <time>2018-12-15T12:08:38Z</time>
        <extensions><gpxtpx:TrackPointExtension><gpxtpx:hr>152</gpxtpx:hr></gpxtpx:TrackPointExtension></extensions>
      </trkpt>
      <trkpt lat="59.375431143526" lon="17.972351124658">
        <ele>16.2</ele>
        <time>2018-12-15T12:08:42Z</time>
        <extensions><gpxtpx:TrackPointExtension><gpxtpx:hr>154</gpxtpx:hr></gpxtpx:TrackPointExtension></extensions>
      </trkpt>
      <trkpt lat="59.37534028373" lon="17.972333019754">
        <ele>16.4</ele>
        <time>2018-12-15T12:08:44Z</time>
        <extensions><gpxtpx:TrackPointExtension><gpxtpx:hr>154</gpxtpx:hr></gpxtpx:TrackPointExtension></extensions>
      </trkpt>
      <trkpt lat="59.375152864446" lon="17.972324386397">
        <ele>17.2</ele>
        <time>2018-12-15T12:08:48Z</time>
        <extensions><gpxtpx:TrackPointExtension><gpxtpx:hr>155</gpxtpx:hr></gpxtpx:TrackPointExtension></extensions>
      </trkpt>
      <trkpt lat="59.375110284394" lon="17.972341569292">
        <ele>17.2</ele>
        <time>2018-12-15T12:08:49Z</time>
        <extensions><gpxtpx:TrackPointExtension><gpxtpx:hr>155</gpxtpx:hr></gpxtpx:TrackPointExtension></extensions>
      </trkpt>
      <trkpt lat="59.374914818486" lon="17.972379706937">
        <ele>18</ele>
        <time>2018-12-15T12:08:54Z</time>
        <extensions><gpxtpx:TrackPointExtension><gpxtpx:hr>155</gpxtpx:hr></gpxtpx:TrackPointExtension></extensions>
      </trkpt>
      <trkpt lat="59.374792610384" lon="17.972328912623">
        <ele>18.4</ele>
        <time>2018-12-15T12:08:57Z</time>
        <extensions><gpxtpx:TrackPointExtension><gpxtpx:hr>154</gpxtpx:hr></gpxtpx:TrackPointExtension></extensions>
      </trkpt>
      <trkpt lat="59.374643915478" lon="17.972295887937">
        <ele>19.4</ele>
        <time>2018-12-15T12:09:00Z</time>
        <extensions><gpxtpx:TrackPointExtension><gpxtpx:hr>154</gpxtpx:hr></gpxtpx:TrackPointExtension></extensions>
      </trkpt>
      <trkpt lat="59.374491113441" lon="17.972268479124">
        <ele>20.6</ele>
        <time>2018-12-15T12:09:03Z</time>
        <extensions><gpxtpx:TrackPointExtension><gpxtpx:hr>154</gpxtpx:hr></gpxtpx:TrackPointExtension></extensions>
      </trkpt>
      <trkpt lat="59.374162710599" lon="17.972262192699">
        <ele>20.6</ele>
        <time>2018-12-15T12:09:08Z</time>
        <extensions><gpxtpx:TrackPointExtension><gpxtpx:hr>153</gpxtpx:hr></gpxtpx:TrackPointExtension></extensions>
      </trkpt>
      <trkpt lat="59.373969256347" lon="17.972481211746">
        <ele>20.4</ele>
        <time>2018-12-15T12:09:12Z</time>
        <extensions><gpxtpx:TrackPointExtension><gpxtpx:hr>151</gpxtpx:hr></gpxtpx:TrackPointExtension></extensions>
      </trkpt>
      <trkpt lat="59.373780579778" lon="17.972749013451">
        <ele>19.4</ele>
        <time>2018-12-15T12:09:16Z</time>
        <extensions><gpxtpx:TrackPointExtension><gpxtpx:hr>148</gpxtpx:hr></gpxtpx:TrackPointExtension></extensions>
      </trkpt>
      <trkpt lat="59.373734144052" lon="17.97279771229">
        <ele>19.4</ele>
        <time>2018-12-15T12:09:17Z</time>
        <extensions><gpxtpx:TrackPointExtension><gpxtpx:hr>147</gpxtpx:hr></gpxtpx:TrackPointExtension></extensions>
      </trkpt>
      <trkpt lat="59.373578911264" lon="17.972869628992">
        <ele>19</ele>
        <time>2018-12-15T12:09:20Z</time>
        <extensions><gpxtpx:TrackPointExtension><gpxtpx:hr>144</gpxtpx:hr></gpxtpx:TrackPointExtension></extensions>
      </trkpt>
      <trkpt lat="59.373255202286" lon="17.972991753275">
        <ele>19</ele>
        <time>2018-12-15T12:09:25Z</time>
        <extensions><gpxtpx:TrackPointExtension><gpxtpx:hr>143</gpxtpx:hr></gpxtpx:TrackPointExtension></extensions>
      </trkpt>
      <trkpt lat="59.373029729176" lon="17.973252933279">
        <ele>18.4</ele>
        <time>2018-12-15T12:09:29Z</time>
        <extensions><gpxtpx:TrackPointExtension><gpxtpx:hr>137</gpxtpx:hr></gpxtpx:TrackPointExtension></extensions>
      </trkpt>
      <trkpt lat="59.372977509939" lon="17.973317809185">
        <ele>18</ele>
        <time>2018-12-15T12:09:30Z</time>
        <extensions><gpxtpx:TrackPointExtension><gpxtpx:hr>134</gpxtpx:hr></gpxtpx:TrackPointExtension></extensions>
      </trkpt>
      <trkpt lat="59.372853038724" lon="17.97339785633">
        <ele>16.8</ele>
        <time>2018-12-15T12:09:32Z</time>
        <extensions><gpxtpx:TrackPointExtension><gpxtpx:hr>130</gpxtpx:hr></gpxtpx:TrackPointExtension></extensions>
      </trkpt>
      <trkpt lat="59.372777517805" lon="17.973407998429">
        <ele>16.2</ele>
        <time>2018-12-15T12:09:33Z</time>
        <extensions><gpxtpx:TrackPointExtension><gpxtpx:hr>127</gpxtpx:hr></gpxtpx:TrackPointExtension></extensions>
      </trkpt>
      <trkpt lat="59.372695542823" lon="17.973402801651">
        <ele>15.4</ele>
        <time>2018-12-15T12:09:34Z</time>
        <extensions><gpxtpx:TrackPointExtension><gpxtpx:hr>125</gpxtpx:hr></gpxtpx:TrackPointExtension></extensions>
      </trkpt>
      <trkpt lat="59.372428998403" lon="17.973280593549">
        <ele>14.2</ele>
        <time>2018-12-15T12:09:37Z</time>
        <extensions><gpxtpx:TrackPointExtension><gpxtpx:hr>125</gpxtpx:hr></gpxtpx:TrackPointExtension></extensions>
      </trkpt>
      <trkpt lat="59.37233872534" lon="17.973216388195">
        <ele>13.8</ele>
        <time>2018-12-15T12:09:38Z</time>
        <extensions><gpxtpx:TrackPointExtension><gpxtpx:hr>125</gpxtpx:hr></gpxtpx:TrackPointExtension></extensions>
      </trkpt>
      <trkpt lat="59.372162118707" lon="17.97308772603">
        <ele>12.4</ele>
        <time>2018-12-15T12:09:40Z</time>
      </trkpt>
      <trkpt lat="59.372075366042" lon="17.97302569997">
        <ele>11.4</ele>
        <time>2018-12-15T12:09:41Z</time>
        <extensions><gpxtpx:TrackPointExtension><gpxtpx:hr>125</gpxtpx:hr></gpxtpx:TrackPointExtension></extensions>
      </trkpt>
      <trkpt lat="59.37199422925" lon="17.972962668082">
        <ele>10.2</ele>
        <time>2018-12-15T12:09:42Z</time>
        <extensions><gpxtpx:TrackPointExtension><gpxtpx:hr>125</gpxtpx:hr></gpxtpx:TrackPointExtension></extensions>
      </trkpt>
      <trkpt lat="59.371913427734" lon="17.972908101913">
        <ele>8.8</ele>
        <time>2018-12-15T12:09:43Z</time>
        <extensions><gpxtpx:TrackPointExtension><gpxtpx:hr>124</gpxtpx:hr></gpxtpx:TrackPointExtension></extensions>
      </trkpt>
      <trkpt lat="59.371833799684" lon="17.972857978151">
        <ele>7.4</ele>
        <time>2018-12-15T12:09:44Z</time>
        <extensions><gpxtpx:TrackPointExtension><gpxtpx:hr>122</gpxtpx:hr></gpxtpx:TrackPointExtension></extensions>
      </trkpt>
      <trkpt lat="59.371756350928" lon="17.972813554081">
        <ele>6.2</ele>
        <time>2018-12-15T12:09:45Z</time>
        <extensions><gpxtpx:TrackPointExtension><gpxtpx:hr>121</gpxtpx:hr></gpxtpx:TrackPointExtension></extensions>
      </trkpt>
      <trkpt lat="59.371607572203" lon="17.972733423117">
        <ele>4.6</ele>
        <time>2018-12-15T12:09:47Z</time>
        <extensions><gpxtpx:TrackPointExtension><gpxtpx:hr>120</gpxtpx:hr></gpxtpx:TrackPointExtension></extensions>
      </trkpt>
      <trkpt lat="59.371453429062" lon="17.972682293527">
        <ele>4.2</ele>
        <time>2018-12-15T12:09:49Z</time>
        <extensions><gpxtpx:TrackPointExtension><gpxtpx:hr>120</gpxtpx:hr></gpxtpx:TrackPointExtension></extensions>
      </trkpt>
      <trkpt lat="59.370882034939" lon="17.972786480544">
        <ele>4.6</ele>
        <time>2018-12-15T12:09:58Z</time>
        <extensions><gpxtpx:TrackPointExtension><gpxtpx:hr>119</gpxtpx:hr></gpxtpx:TrackPointExtension></extensions>
      </trkpt>
      <trkpt lat="59.370794108808" lon="17.972825456379">
        <ele>5</ele>
        <time>2018-12-15T12:10:00Z</time>
        <extensions><gpxtpx:TrackPointExtension><gpxtpx:hr>116</gpxtpx:hr></gpxtpx:TrackPointExtension></extensions>
      </trkpt>
      <trkpt lat="59.370711882369" lon="17.972875412503">
        <ele>5.2</ele>
        <time>2018-12-15T12:10:02Z</time>
        <extensions><gpxtpx:TrackPointExtension><gpxtpx:hr>111</gpxtpx:hr></gpxtpx:TrackPointExtension></extensions>
      </trkpt>
      <trkpt lat="59.370580035082" lon="17.972971720534">
        <ele>5.4</ele>
        <time>2018-12-15T12:10:06Z</time>
        <extensions><gpxtpx:TrackPointExtension><gpxtpx:hr>108</gpxtpx:hr></gpxtpx:TrackPointExtension></extensions>
      </trkpt>
      <trkpt lat="59.370526474741" lon="17.973011702197">
        <ele>5.8</ele>
        <time>2018-12-15T12:10:08Z</time>
        <extensions><gpxtpx:TrackPointExtension><gpxtpx:hr>107</gpxtpx:hr></gpxtpx:TrackPointExtension></extensions>
      </trkpt>
      <trkpt lat="59.370480541929" lon="17.973078254483">
        <ele>6.2</ele>
        <time>2018-12-15T12:10:10Z</time>
        <extensions><gpxtpx:TrackPointExtension><gpxtpx:hr>109</gpxtpx:hr></gpxtpx:TrackPointExtension></extensions>
      </trkpt>
      <trkpt lat="59.370476015703" lon="17.973286544698">
        <ele>6.6</ele>
        <time>2018-12-15T12:10:13Z</time>
        <extensions><gpxtpx:TrackPointExtension><gpxtpx:hr>112</gpxtpx:hr></gpxtpx:TrackPointExtension></extensions>
      </trkpt>
      <trkpt lat="59.370486241621" lon="17.973380673435">
        <ele>6.8</ele>
        <time>2018-12-15T12:10:14Z</time>
        <extensions><gpxtpx:TrackPointExtension><gpxtpx:hr>115</gpxtpx:hr></gpxtpx:TrackPointExtension></extensions>
      </trkpt>
      <trkpt lat="59.370511806416" lon="17.973586197623">
        <ele>6.8</ele>
        <time>2018-12-15T12:10:16Z</time>
        <extensions><gpxtpx:TrackPointExtension><gpxtpx:hr>119</gpxtpx:hr></gpxtpx:TrackPointExtension></extensions>
      </trkpt>
      <trkpt lat="59.370524463085" lon="17.973693318305">
        <ele>6.8</ele>
        <time>2018-12-15T12:10:17Z</time>
        <extensions><gpxtpx:TrackPointExtension><gpxtpx:hr>121</gpxtpx:hr></gpxtpx:TrackPointExtension></extensions>
      </trkpt>
      <trkpt lat="59.370551536622" lon="17.973908397859">
        <ele>6.8</ele>
        <time>2018-12-15T12:10:19Z</time>
        <extensions><gpxtpx:TrackPointExtension><gpxtpx:hr>123</gpxtpx:hr></gpxtpx:TrackPointExtension></extensions>
      </trkpt>
      <trkpt lat="59.370581543824" lon="17.974489766443">
        <ele>6</ele>
        <time>2018-12-15T12:10:24Z</time>
        <extensions><gpxtpx:TrackPointExtension><gpxtpx:hr>126</gpxtpx:hr></gpxtpx:TrackPointExtension></extensions>
      </trkpt>
      <trkpt lat="59.370578693978" lon="17.974850188143">
        <ele>5.8</ele>
        <time>2018-12-15T12:10:27Z</time>
        <extensions><gpxtpx:TrackPointExtension><gpxtpx:hr>127</gpxtpx:hr></gpxtpx:TrackPointExtension></extensions>
      </trkpt>
      <trkpt lat="59.370512728425" lon="17.975626184445">
        <ele>5.2</ele>
        <time>2018-12-15T12:10:34Z</time>
        <extensions><gpxtpx:TrackPointExtension><gpxtpx:hr>126</gpxtpx:hr></gpxtpx:TrackPointExtension></extensions>
      </trkpt>
      <trkpt lat="59.370563355101" lon="17.976048967481">
        <ele>5.2</ele>
        <time>2018-12-15T12:10:38Z</time>
        <extensions><gpxtpx:TrackPointExtension><gpxtpx:hr>128</gpxtpx:hr></gpxtpx:TrackPointExtension></extensions>
      </trkpt>
      <trkpt lat="59.370584896584" lon="17.976609297496">
        <ele>5.4</ele>
        <time>2018-12-15T12:10:43Z</time>
        <extensions><gpxtpx:TrackPointExtension><gpxtpx:hr>129</gpxtpx:hr></gpxtpx:TrackPointExtension></extensions>
      </trkpt>
      <trkpt lat="59.370468807269" lon="17.97725855947">
        <ele>5.6</ele>
        <time>2018-12-15T12:10:49Z</time>
        <extensions><gpxtpx:TrackPointExtension><gpxtpx:hr>132</gpxtpx:hr></gpxtpx:TrackPointExtension></extensions>
      </trkpt>
      <trkpt lat="59.370448858347" lon="17.977375403156">
        <ele>5.6</ele>
        <time>2018-12-15T12:10:50Z</time>
        <extensions><gpxtpx:TrackPointExtension><gpxtpx:hr>132</gpxtpx:hr></gpxtpx:TrackPointExtension></extensions>
      </trkpt>
      <trkpt lat="59.370382808975" lon="17.978481646318">
        <ele>5.2</ele>
        <time>2018-12-15T12:10:59Z</time>
        <extensions><gpxtpx:TrackPointExtension><gpxtpx:hr>131</gpxtpx:hr></gpxtpx:TrackPointExtension></extensions>
      </trkpt>
      <trkpt lat="59.370347353538" lon="17.978863777139">
        <ele>4.6</ele>
        <time>2018-12-15T12:11:02Z</time>
        <extensions><gpxtpx:TrackPointExtension><gpxtpx:hr>132</gpxtpx:hr></gpxtpx:TrackPointExtension></extensions>
      </trkpt>
      <trkpt lat="59.370311395187" lon="17.979248003435">
        <ele>4.4</ele>
        <time>2018-12-15T12:11:05Z</time>
        <extensions><gpxtpx:TrackPointExtension><gpxtpx:hr>133</gpxtpx:hr></gpxtpx:TrackPointExtension></extensions>
      </trkpt>
      <trkpt lat="59.370180050814" lon="17.980017964769">
        <ele>4</ele>
        <time>2018-12-15T12:11:12Z</time>
        <extensions><gpxtpx:TrackPointExtension><gpxtpx:hr>134</gpxtpx:hr></gpxtpx:TrackPointExtension></extensions>
      </trkpt>
      <trkpt lat="59.370242747426" lon="17.980559184052">
        <ele>4.6</ele>
        <time>2018-12-15T12:11:17Z</time>
        <extensions><gpxtpx:TrackPointExtension><gpxtpx:hr>136</gpxtpx:hr></gpxtpx:TrackPointExtension></extensions>
      </trkpt>
      <trkpt lat="59.370467214708" lon="17.98129276794">
        <ele>4.6</ele>
        <time>2018-12-15T12:11:24Z</time>
        <extensions><gpxtpx:TrackPointExtension><gpxtpx:hr>139</gpxtpx:hr></gpxtpx:TrackPointExtension></extensions>
      </trkpt>
      <trkpt lat="59.37049051639" lon="17.981397206414">
        <ele>4.6</ele>
        <time>2018-12-15T12:11:25Z</time>
        <extensions><gpxtpx:TrackPointExtension><gpxtpx:hr>139</gpxtpx:hr></gpxtpx:TrackPointExtension></extensions>
      </trkpt>
      <trkpt lat="59.370504933258" lon="17.981833819585">
        <ele>4.6</ele>
        <time>2018-12-15T12:11:29Z</time>
        <extensions><gpxtpx:TrackPointExtension><gpxtpx:hr>138</gpxtpx:hr></gpxtpx:TrackPointExtension></extensions>
      </trkpt>
      <trkpt lat="59.370506358181" lon="17.981936078765">
        <ele>4.6</ele>
        <time>2018-12-15T12:11:30Z</time>
        <extensions><gpxtpx:TrackPointExtension><gpxtpx:hr>139</gpxtpx:hr></gpxtpx:TrackPointExtension></extensions>
      </trkpt>
      <trkpt lat="59.370528737854" lon="17.982141435315">
        <ele>4.6</ele>
        <time>2018-12-15T12:11:32Z</time>
        <extensions><gpxtpx:TrackPointExtension><gpxtpx:hr>138</gpxtpx:hr></gpxtpx:TrackPointExtension></extensions>
      </trkpt>
      <trkpt lat="59.370590009543" lon="17.982455086013">
        <ele>4.6</ele>
        <time>2018-12-15T12:11:35Z</time>
        <extensions><gpxtpx:TrackPointExtension><gpxtpx:hr>139</gpxtpx:hr></gpxtpx:TrackPointExtension></extensions>
      </trkpt>
      <trkpt lat="59.370654047259" lon="17.982788015081">
        <ele>5.6</ele>
        <time>2018-12-15T12:11:38Z</time>
        <extensions><gpxtpx:TrackPointExtension><gpxtpx:hr>140</gpxtpx:hr></gpxtpx:TrackPointExtension></extensions>
      </trkpt>
      <trkpt lat="59.370704506297" lon="17.983148185324">
        <ele>6</ele>
        <time>2018-12-15T12:11:41Z</time>
        <extensions><gpxtpx:TrackPointExtension><gpxtpx:hr>141</gpxtpx:hr></gpxtpx:TrackPointExtension></extensions>
      </trkpt>
      <trkpt lat="59.370695621483" lon="17.983790406502">
        <ele>6</ele>
        <time>2018-12-15T12:11:46Z</time>
        <extensions><gpxtpx:TrackPointExtension><gpxtpx:hr>144</gpxtpx:hr></gpxtpx:TrackPointExtension></extensions>
      </trkpt>
      <trkpt lat="59.370667039204" lon="17.984545531873">
        <ele>5.8</ele>
        <time>2018-12-15T12:11:52Z</time>
        <extensions><gpxtpx:TrackPointExtension><gpxtpx:hr>147</gpxtpx:hr></gpxtpx:TrackPointExtension></extensions>
      </trkpt>
      <trkpt lat="59.370517170832" lon="17.985690583232">
        <ele>6</ele>
        <time>2018-12-15T12:12:01Z</time>
        <extensions><gpxtpx:TrackPointExtension><gpxtpx:hr>149</gpxtpx:hr></gpxtpx:TrackPointExtension></extensions>
      </trkpt>
      <trkpt lat="59.37028599803" lon="17.9867695014">
        <ele>6</ele>
        <time>2018-12-15T12:12:10Z</time>
        <extensions><gpxtpx:TrackPointExtension><gpxtpx:hr>150</gpxtpx:hr></gpxtpx:TrackPointExtension></extensions>
      </trkpt>
      <trkpt lat="59.370119114401" lon="17.987466288747">
        <ele>6.4</ele>
        <time>2018-12-15T12:12:16Z</time>
        <extensions><gpxtpx:TrackPointExtension><gpxtpx:hr>151</gpxtpx:hr></gpxtpx:TrackPointExtension></extensions>
      </trkpt>
      <trkpt lat="59.369918535534" lon="17.988258378297">
        <ele>7.4</ele>
        <time>2018-12-15T12:12:23Z</time>
        <extensions><gpxtpx:TrackPointExtension><gpxtpx:hr>151</gpxtpx:hr></gpxtpx:TrackPointExtension></extensions>
      </trkpt>
      <trkpt lat="59.369653583675" lon="17.989323550149">
        <ele>8.2</ele>
        <time>2018-12-15T12:12:32Z</time>
        <extensions><gpxtpx:TrackPointExtension><gpxtpx:hr>152</gpxtpx:hr></gpxtpx:TrackPointExtension></extensions>
      </trkpt>
      <trkpt lat="59.369396007888" lon="17.990389979286">
        <ele>7.6</ele>
        <time>2018-12-15T12:12:41Z</time>
        <extensions><gpxtpx:TrackPointExtension><gpxtpx:hr>153</gpxtpx:hr></gpxtpx:TrackPointExtension></extensions>
      </trkpt>
      <trkpt lat="59.369169109855" lon="17.991350880302">
        <ele>7.4</ele>
        <time>2018-12-15T12:12:49Z</time>
        <extensions><gpxtpx:TrackPointExtension><gpxtpx:hr>151</gpxtpx:hr></gpxtpx:TrackPointExtension></extensions>
      </trkpt>
      <trkpt lat="59.368983869865" lon="17.992105670397">
        <ele>7</ele>
        <time>2018-12-15T12:12:55Z</time>
        <extensions><gpxtpx:TrackPointExtension><gpxtpx:hr>148</gpxtpx:hr></gpxtpx:TrackPointExtension></extensions>
      </trkpt>
      <trkpt lat="59.368895105544" lon="17.992478748766">
        <ele>6.4</ele>
        <time>2018-12-15T12:12:58Z</time>
        <extensions><gpxtpx:TrackPointExtension><gpxtpx:hr>145</gpxtpx:hr></gpxtpx:TrackPointExtension></extensions>
      </trkpt>
      <trkpt lat="59.368647923313" lon="17.993283997899">
        <ele>5.4</ele>
        <time>2018-12-15T12:13:05Z</time>
        <extensions><gpxtpx:TrackPointExtension><gpxtpx:hr>144</gpxtpx:hr></gpxtpx:TrackPointExtension></extensions>
      </trkpt>
      <trkpt lat="59.36835816103" lon="17.99383125215">
        <ele>5.2</ele>
        <time>2018-12-15T12:13:11Z</time>
        <extensions><gpxtpx:TrackPointExtension><gpxtpx:hr>144</gpxtpx:hr></gpxtpx:TrackPointExtension></extensions>
      </trkpt>
      <trkpt lat="59.367872178468" lon="17.994487471101">
        <ele>5.8</ele>
        <time>2018-12-15T12:13:20Z</time>
        <extensions><gpxtpx:TrackPointExtension><gpxtpx:hr>144</gpxtpx:hr></gpxtpx:TrackPointExtension></extensions>
      </trkpt>
      <trkpt lat="59.367399104032" lon="17.995150227934">
        <ele>6.4</ele>
        <time>2018-12-15T12:13:29Z</time>
        <extensions><gpxtpx:TrackPointExtension><gpxtpx:hr>145</gpxtpx:hr></gpxtpx:TrackPointExtension></extensions>
      </trkpt>
      <trkpt lat="59.36734814208" lon="17.995225581215">
        <ele>6.4</ele>
        <time>2018-12-15T12:13:30Z</time>
        <extensions><gpxtpx:TrackPointExtension><gpxtpx:hr>145</gpxtpx:hr></gpxtpx:TrackPointExtension></extensions>
      </trkpt>
      <trkpt lat="59.366985708724" lon="17.995789096352">
        <ele>7.4</ele>
        <time>2018-12-15T12:13:38Z</time>
        <extensions><gpxtpx:TrackPointExtension><gpxtpx:hr>147</gpxtpx:hr></gpxtpx:TrackPointExtension></extensions>
      </trkpt>
      <trkpt lat="59.366869870866" lon="17.9959812095">
        <ele>8.4</ele>
        <time>2018-12-15T12:13:41Z</time>
        <extensions><gpxtpx:TrackPointExtension><gpxtpx:hr>148</gpxtpx:hr></gpxtpx:TrackPointExtension></extensions>
      </trkpt>
      <trkpt lat="59.366754033008" lon="17.996164437834">
        <ele>9.6</ele>
        <time>2018-12-15T12:13:44Z</time>
        <extensions><gpxtpx:TrackPointExtension><gpxtpx:hr>149</gpxtpx:hr></gpxtpx:TrackPointExtension></extensions>
      </trkpt>
      <trkpt lat="59.366569295932" lon="17.996455541221">
        <ele>10.8</ele>
        <time>2018-12-15T12:13:49Z</time>
        <extensions><gpxtpx:TrackPointExtension><gpxtpx:hr>149</gpxtpx:hr></gpxtpx:TrackPointExtension></extensions>
      </trkpt>
      <trkpt lat="59.366432084229" lon="17.996679337951">
        <ele>11.8</ele>
        <time>2018-12-15T12:13:53Z</time>
        <extensions><gpxtpx:TrackPointExtension><gpxtpx:hr>150</gpxtpx:hr></gpxtpx:TrackPointExtension></extensions>
      </trkpt>
      <trkpt lat="59.366282970228" lon="17.99692920239">
        <ele>13</ele>
        <time>2018-12-15T12:13:57Z</time>
        <extensions><gpxtpx:TrackPointExtension><gpxtpx:hr>151</gpxtpx:hr></gpxtpx:TrackPointExtension></extensions>
      </trkpt>
      <trkpt lat="59.366112985296" lon="17.997245367658">
        <ele>14.2</ele>
        <time>2018-12-15T12:14:01Z</time>
        <extensions><gpxtpx:TrackPointExtension><gpxtpx:hr>152</gpxtpx:hr></gpxtpx:TrackPointExtension></extensions>
      </trkpt>
      <trkpt lat="59.365809476697" lon="17.997878620203">
        <ele>14.4</ele>
        <time>2018-12-15T12:14:08Z</time>
        <extensions><gpxtpx:TrackPointExtension><gpxtpx:hr>152</gpxtpx:hr></gpxtpx:TrackPointExtension></extensions>
      </trkpt>
      <trkpt lat="59.365645023819" lon="17.998138459103">
        <ele>14.2</ele>
        <time>2018-12-15T12:14:11Z</time>
        <extensions><gpxtpx:TrackPointExtension><gpxtpx:hr>151</gpxtpx:hr></gpxtpx:TrackPointExtension></extensions>
      </trkpt>
      <trkpt lat="59.365219223299" lon="17.998636427782">
        <ele>13</ele>
        <time>2018-12-15T12:14:18Z</time>
        <extensions><gpxtpx:TrackPointExtension><gpxtpx:hr>149</gpxtpx:hr></gpxtpx:TrackPointExtension></extensions>
      </trkpt>
      <trkpt lat="59.364745813587" lon="17.999174378124">
        <ele>12.6</ele>
        <time>2018-12-15T12:14:26Z</time>
        <extensions><gpxtpx:TrackPointExtension><gpxtpx:hr>148</gpxtpx:hr></gpxtpx:TrackPointExtension></extensions>
      </trkpt>
      <trkpt lat="59.364246922899" lon="17.999720626547">
        <ele>12.6</ele>
        <time>2018-12-15T12:14:35Z</time>
        <extensions><gpxtpx:TrackPointExtension><gpxtpx:hr>146</gpxtpx:hr></gpxtpx:TrackPointExtension></extensions>
      </trkpt>
      <trkpt lat="59.36385875711" lon="18.000209794231">
        <ele>13</ele>
        <time>2018-12-15T12:14:42Z</time>
        <extensions><gpxtpx:TrackPointExtension><gpxtpx:hr>144</gpxtpx:hr></gpxtpx:TrackPointExtension></extensions>
      </trkpt>
      <trkpt lat="59.363658094424" lon="18.000628470136">
        <ele>13.2</ele>
        <time>2018-12-15T12:14:47Z</time>
        <extensions><gpxtpx:TrackPointExtension><gpxtpx:hr>141</gpxtpx:hr></gpxtpx:TrackPointExtension></extensions>
      </trkpt>
      <trkpt lat="59.363596906554" lon="18.000759563052">
        <ele>13.2</ele>
        <time>2018-12-15T12:14:49Z</time>
        <extensions><gpxtpx:TrackPointExtension><gpxtpx:hr>137</gpxtpx:hr></gpxtpx:TrackPointExtension></extensions>
      </trkpt>
      <trkpt lat="59.363488612406" lon="18.001015127183">
        <ele>13.2</ele>
        <time>2018-12-15T12:14:53Z</time>
        <extensions><gpxtpx:TrackPointExtension><gpxtpx:hr>136</gpxtpx:hr></gpxtpx:TrackPointExtension></extensions>
      </trkpt>
      <trkpt lat="59.363324913899" lon="18.001351325192">
        <ele>13.2</ele>
        <time>2018-12-15T12:14:57Z</time>
        <extensions><gpxtpx:TrackPointExtension><gpxtpx:hr>139</gpxtpx:hr></gpxtpx:TrackPointExtension></extensions>
      </trkpt>
      <trkpt lat="59.363183762703" lon="18.001606889323">
        <ele>13.4</ele>
        <time>2018-12-15T12:15:00Z</time>
        <extensions><gpxtpx:TrackPointExtension><gpxtpx:hr>142</gpxtpx:hr></gpxtpx:TrackPointExtension></extensions>
      </trkpt>
      <trkpt lat="59.362846726504" lon="18.002309208724">
        <ele>13.6</ele>
        <time>2018-12-15T12:15:08Z</time>
        <extensions><gpxtpx:TrackPointExtension><gpxtpx:hr>139</gpxtpx:hr></gpxtpx:TrackPointExtension></extensions>
      </trkpt>
      <trkpt lat="59.362637095185" lon="18.002713300123">
        <ele>14</ele>
        <time>2018-12-15T12:15:13Z</time>
        <extensions><gpxtpx:TrackPointExtension><gpxtpx:hr>137</gpxtpx:hr></gpxtpx:TrackPointExtension></extensions>
      </trkpt>
      <trkpt lat="59.362342387581" lon="18.003222249091">
        <ele>14.6</ele>
        <time>2018-12-15T12:15:21Z</time>
        <extensions><gpxtpx:TrackPointExtension><gpxtpx:hr>134</gpxtpx:hr></gpxtpx:TrackPointExtension></extensions>
      </trkpt>
      <trkpt lat="59.362273572182" lon="18.00333465037">
        <ele>14.6</ele>
        <time>2018-12-15T12:15:23Z</time>
        <extensions><gpxtpx:TrackPointExtension><gpxtpx:hr>135</gpxtpx:hr></gpxtpx:TrackPointExtension></extensions>
      </trkpt>
      <trkpt lat="59.362207355172" lon="18.003475298652">
        <ele>14.6</ele>
        <time>2018-12-15T12:15:25Z</time>
        <extensions><gpxtpx:TrackPointExtension><gpxtpx:hr>134</gpxtpx:hr></gpxtpx:TrackPointExtension></extensions>
      </trkpt>
      <trkpt lat="59.362100318309" lon="18.003687360722">
        <ele>14.8</ele>
        <time>2018-12-15T12:15:28Z</time>
        <extensions><gpxtpx:TrackPointExtension><gpxtpx:hr>136</gpxtpx:hr></gpxtpx:TrackPointExtension></extensions>
      </trkpt>
      <trkpt lat="59.361998394405" lon="18.003884000096">
        <ele>15</ele>
        <time>2018-12-15T12:15:31Z</time>
        <extensions><gpxtpx:TrackPointExtension><gpxtpx:hr>138</gpxtpx:hr></gpxtpx:TrackPointExtension></extensions>
      </trkpt>
      <trkpt lat="59.361926226246" lon="18.004074269226">
        <ele>15</ele>
        <time>2018-12-15T12:15:34Z</time>
        <extensions><gpxtpx:TrackPointExtension><gpxtpx:hr>139</gpxtpx:hr></gpxtpx:TrackPointExtension></extensions>
      </trkpt>
      <trkpt lat="59.361900996727" lon="18.00421307349">
        <ele>15.2</ele>
        <time>2018-12-15T12:15:36Z</time>
        <extensions><gpxtpx:TrackPointExtension><gpxtpx:hr>139</gpxtpx:hr></gpxtpx:TrackPointExtension></extensions>
      </trkpt>
      <trkpt lat="59.361894542664" lon="18.004287923857">
        <ele>15.2</ele>
        <time>2018-12-15T12:15:37Z</time>
        <extensions><gpxtpx:TrackPointExtension><gpxtpx:hr>137</gpxtpx:hr></gpxtpx:TrackPointExtension></extensions>
      </trkpt>
      <trkpt lat="59.361911977016" lon="18.004569974792">
        <ele>15.4</ele>
        <time>2018-12-15T12:15:41Z</time>
        <extensions><gpxtpx:TrackPointExtension><gpxtpx:hr>134</gpxtpx:hr></gpxtpx:TrackPointExtension></extensions>
      </trkpt>
      <trkpt lat="59.361926310065" lon="18.00476627889">
        <ele>15.8</ele>
        <time>2018-12-15T12:15:45Z</time>
        <extensions><gpxtpx:TrackPointExtension><gpxtpx:hr>130</gpxtpx:hr></gpxtpx:TrackPointExtension></extensions>
      </trkpt>
      <trkpt lat="59.361943576779" lon="18.004842218904">
        <ele>16.2</ele>
        <time>2018-12-15T12:15:47Z</time>
        <extensions><gpxtpx:TrackPointExtension><gpxtpx:hr>130</gpxtpx:hr></gpxtpx:TrackPointExtension></extensions>
      </trkpt>
      <trkpt lat="59.361970734135" lon="18.004955039278">
        <ele>17.2</ele>
        <time>2018-12-15T12:15:54Z</time>
        <extensions><gpxtpx:TrackPointExtension><gpxtpx:hr>127</gpxtpx:hr></gpxtpx:TrackPointExtension></extensions>
      </trkpt>
      <trkpt lat="59.36187559957" lon="18.004599646718">
        <ele>17.4</ele>
        <time>2018-12-15T12:16:00Z</time>
        <extensions><gpxtpx:TrackPointExtension><gpxtpx:hr>124</gpxtpx:hr></gpxtpx:TrackPointExtension></extensions>
      </trkpt>
      <trkpt lat="59.361928740816" lon="18.004028923147">
        <ele>17.4</ele>
        <time>2018-12-15T12:16:06Z</time>
        <extensions><gpxtpx:TrackPointExtension><gpxtpx:hr>122</gpxtpx:hr></gpxtpx:TrackPointExtension></extensions>
      </trkpt>
      <trkpt lat="59.362064276139" lon="18.003726671833">
        <ele>16.8</ele>
        <time>2018-12-15T12:16:10Z</time>
        <extensions><gpxtpx:TrackPointExtension><gpxtpx:hr>121</gpxtpx:hr></gpxtpx:TrackPointExtension></extensions>
      </trkpt>
      <trkpt lat="59.362125715466" lon="18.003574959443">
        <ele>16</ele>
        <time>2018-12-15T12:16:12Z</time>
        <extensions><gpxtpx:TrackPointExtension><gpxtpx:hr>123</gpxtpx:hr></gpxtpx:TrackPointExtension></extensions>
      </trkpt>
      <trkpt lat="59.36217315702" lon="18.003448141296">
        <ele>15.6</ele>
        <time>2018-12-15T12:16:14Z</time>
        <extensions><gpxtpx:TrackPointExtension><gpxtpx:hr>124</gpxtpx:hr></gpxtpx:TrackPointExtension></extensions>
      </trkpt>
      <trkpt lat="59.362167541147" lon="18.003043714621">
        <ele>15.4</ele>
        <time>2018-12-15T12:16:19Z</time>
        <extensions><gpxtpx:TrackPointExtension><gpxtpx:hr>127</gpxtpx:hr></gpxtpx:TrackPointExtension></extensions>
      </trkpt>
      <trkpt lat="59.362161925274" lon="18.00256686833">
        <ele>15.6</ele>
        <time>2018-12-15T12:16:25Z</time>
        <extensions><gpxtpx:TrackPointExtension><gpxtpx:hr>130</gpxtpx:hr></gpxtpx:TrackPointExtension></extensions>
      </trkpt>
      <trkpt lat="59.362156309401" lon="18.00229110382">
        <ele>17</ele>
        <time>2018-12-15T12:16:28Z</time>
        <extensions><gpxtpx:TrackPointExtension><gpxtpx:hr>133</gpxtpx:hr></gpxtpx:TrackPointExtension></extensions>
      </trkpt>
      <trkpt lat="59.36214884951" lon="18.002190856296">
        <ele>17.4</ele>
        <time>2018-12-15T12:16:29Z</time>
        <extensions><gpxtpx:TrackPointExtension><gpxtpx:hr>134</gpxtpx:hr></gpxtpx:TrackPointExtension></extensions>
      </trkpt>
      <trkpt lat="59.362118507032" lon="18.001768324717">
        <ele>17.8</ele>
        <time>2018-12-15T12:16:33Z</time>
        <extensions><gpxtpx:TrackPointExtension><gpxtpx:hr>137</gpxtpx:hr></gpxtpx:TrackPointExtension></extensions>
      </trkpt>
      <trkpt lat="59.362084644156" lon="18.001284605268">
        <ele>17.8</ele>
        <time>2018-12-15T12:16:37Z</time>
        <extensions><gpxtpx:TrackPointExtension><gpxtpx:hr>140</gpxtpx:hr></gpxtpx:TrackPointExtension></extensions>
      </trkpt>
      <trkpt lat="59.362028736883" lon="18.000609610861">
        <ele>16.4</ele>
        <time>2018-12-15T12:16:43Z</time>
        <extensions><gpxtpx:TrackPointExtension><gpxtpx:hr>141</gpxtpx:hr></gpxtpx:TrackPointExtension></extensions>
      </trkpt>
      <trkpt lat="59.362010045246" lon="18.000390843271">
        <ele>15.2</ele>
        <time>2018-12-15T12:16:45Z</time>
        <extensions><gpxtpx:TrackPointExtension><gpxtpx:hr>141</gpxtpx:hr></gpxtpx:TrackPointExtension></extensions>
      </trkpt>
      <trkpt lat="59.362012643635" lon="18.000067134293">
        <ele>14.6</ele>
        <time>2018-12-15T12:16:48Z</time>
        <extensions><gpxtpx:TrackPointExtension><gpxtpx:hr>138</gpxtpx:hr></gpxtpx:TrackPointExtension></extensions>
      </trkpt>
      <trkpt lat="59.362019349155" lon="17.999903771062">
        <ele>13.8</ele>
        <time>2018-12-15T12:16:50Z</time>
        <extensions><gpxtpx:TrackPointExtension><gpxtpx:hr>137</gpxtpx:hr></gpxtpx:TrackPointExtension></extensions>
      </trkpt>
      <trkpt lat="59.361987665573" lon="17.999721045642">
        <ele>13.4</ele>
        <time>2018-12-15T12:16:53Z</time>
        <extensions><gpxtpx:TrackPointExtension><gpxtpx:hr>133</gpxtpx:hr></gpxtpx:TrackPointExtension></extensions>
      </trkpt>
      <trkpt lat="59.361959753846" lon="17.999646111456">
        <ele>13.4</ele>
        <time>2018-12-15T12:16:55Z</time>
        <extensions><gpxtpx:TrackPointExtension><gpxtpx:hr>130</gpxtpx:hr></gpxtpx:TrackPointExtension></extensions>
      </trkpt>
      <trkpt lat="59.36195019848" lon="17.999622223041">
        <ele>13.4</ele>
        <time>2018-12-15T12:16:58Z</time>
        <extensions><gpxtpx:TrackPointExtension><gpxtpx:hr>128</gpxtpx:hr></gpxtpx:TrackPointExtension></extensions>
      </trkpt>
      <trkpt lat="59.361918850174" lon="17.999533207263">
        <ele>14</ele>
        <time>2018-12-15T12:17:41Z</time>
        <extensions><gpxtpx:TrackPointExtension><gpxtpx:hr>109</gpxtpx:hr></gpxtpx:TrackPointExtension></extensions>
      </trkpt>
      <trkpt lat="59.361902756926" lon="17.999499428206">
        <ele>14</ele>
        <time>2018-12-15T12:17:42Z</time>
        <extensions><gpxtpx:TrackPointExtension><gpxtpx:hr>111</gpxtpx:hr></gpxtpx:TrackPointExtension></extensions>
      </trkpt>
      <trkpt lat="59.361853555173" lon="17.999405550926">
        <ele>14</ele>
        <time>2018-12-15T12:17:45Z</time>
        <extensions><gpxtpx:TrackPointExtension><gpxtpx:hr>111</gpxtpx:hr></gpxtpx:TrackPointExtension></extensions>
      </trkpt>
      <trkpt lat="59.361818267374" lon="17.999388368031">
        <ele>13.8</ele>
        <time>2018-12-15T12:17:48Z</time>
        <extensions><gpxtpx:TrackPointExtension><gpxtpx:hr>107</gpxtpx:hr></gpxtpx:TrackPointExtension></extensions>
      </trkpt>
      <trkpt lat="59.361811645673" lon="17.999391134058">
        <ele>13.8</ele>
        <time>2018-12-15T12:17:49Z</time>
        <extensions><gpxtpx:TrackPointExtension><gpxtpx:hr>107</gpxtpx:hr></gpxtpx:TrackPointExtension></extensions>
      </trkpt>
      <trkpt lat="59.36177753134" lon="17.999376968647">
        <ele>13.6</ele>
        <time>2018-12-15T12:19:11Z</time>
        <extensions><gpxtpx:TrackPointExtension><gpxtpx:hr>99</gpxtpx:hr></gpxtpx:TrackPointExtension></extensions>
      </trkpt>
      <trkpt lat="59.361755403124" lon="17.999384428538">
        <ele>13.6</ele>
        <time>2018-12-15T12:19:12Z</time>
        <extensions><gpxtpx:TrackPointExtension><gpxtpx:hr>99</gpxtpx:hr></gpxtpx:TrackPointExtension></extensions>
      </trkpt>
      <trkpt lat="59.361704860267" lon="17.999400605605">
        <ele>13.6</ele>
        <time>2018-12-15T12:19:14Z</time>
        <extensions><gpxtpx:TrackPointExtension><gpxtpx:hr>103</gpxtpx:hr></gpxtpx:TrackPointExtension></extensions>
      </trkpt>
      <trkpt lat="59.361628752615" lon="17.999429690798">
        <ele>13.6</ele>
        <time>2018-12-15T12:19:17Z</time>
        <extensions><gpxtpx:TrackPointExtension><gpxtpx:hr>106</gpxtpx:hr></gpxtpx:TrackPointExtension></extensions>
      </trkpt>
      <trkpt lat="59.361607881684" lon="17.999441928372">
        <ele>13.4</ele>
        <time>2018-12-15T12:19:19Z</time>
        <extensions><gpxtpx:TrackPointExtension><gpxtpx:hr>107</gpxtpx:hr></gpxtpx:TrackPointExtension></extensions>
      </trkpt>
      <trkpt lat="59.361603271639" lon="17.999443604752">
        <ele>13.2</ele>
        <time>2018-12-15T12:19:20Z</time>
        <extensions><gpxtpx:TrackPointExtension><gpxtpx:hr>107</gpxtpx:hr></gpxtpx:TrackPointExtension></extensions>
      </trkpt>
      <trkpt lat="59.361545687986" lon="17.999545277199">
        <ele>13</ele>
        <time>2018-12-15T12:19:25Z</time>
        <extensions><gpxtpx:TrackPointExtension><gpxtpx:hr>110</gpxtpx:hr></gpxtpx:TrackPointExtension></extensions>
      </trkpt>
      <trkpt lat="59.361461868986" lon="17.999726661515">
        <ele>13</ele>
        <time>2018-12-15T12:19:29Z</time>
        <extensions><gpxtpx:TrackPointExtension><gpxtpx:hr>112</gpxtpx:hr></gpxtpx:TrackPointExtension></extensions>
      </trkpt>
      <trkpt lat="59.361323316179" lon="17.999982560922">
        <ele>12.4</ele>
        <time>2018-12-15T12:19:33Z</time>
        <extensions><gpxtpx:TrackPointExtension><gpxtpx:hr>115</gpxtpx:hr></gpxtpx:TrackPointExtension></extensions>
      </trkpt>
      <trkpt lat="59.361287525466" lon="18.000049280846">
        <ele>11.8</ele>
        <time>2018-12-15T12:19:34Z</time>
        <extensions><gpxtpx:TrackPointExtension><gpxtpx:hr>117</gpxtpx:hr></gpxtpx:TrackPointExtension></extensions>
      </trkpt>
      <trkpt lat="59.361223739207" lon="18.000175093165">
        <ele>11.2</ele>
        <time>2018-12-15T12:19:36Z</time>
        <extensions><gpxtpx:TrackPointExtension><gpxtpx:hr>119</gpxtpx:hr></gpxtpx:TrackPointExtension></extensions>
      </trkpt>
      <trkpt lat="59.361148805021" lon="18.000293529412">
        <ele>10.6</ele>
        <time>2018-12-15T12:19:38Z</time>
        <extensions><gpxtpx:TrackPointExtension><gpxtpx:hr>123</gpxtpx:hr></gpxtpx:TrackPointExtension></extensions>
      </trkpt>
      <trkpt lat="59.361035062638" lon="18.000469800769">
        <ele>10.2</ele>
        <time>2018-12-15T12:19:41Z</time>
        <extensions><gpxtpx:TrackPointExtension><gpxtpx:hr>127</gpxtpx:hr></gpxtpx:TrackPointExtension></extensions>
      </trkpt>
      <trkpt lat="59.360951159819" lon="18.000622518987">
        <ele>10.2</ele>
        <time>2018-12-15T12:19:43Z</time>
        <extensions><gpxtpx:TrackPointExtension><gpxtpx:hr>130</gpxtpx:hr></gpxtpx:TrackPointExtension></extensions>
      </trkpt>
      <trkpt lat="59.360823084387" lon="18.000879005127">
        <ele>10.2</ele>
        <time>2018-12-15T12:19:46Z</time>
        <extensions><gpxtpx:TrackPointExtension><gpxtpx:hr>133</gpxtpx:hr></gpxtpx:TrackPointExtension></extensions>
      </trkpt>
      <trkpt lat="59.360693248756" lon="18.001142615882">
        <ele>10.6</ele>
        <time>2018-12-15T12:19:49Z</time>
        <extensions><gpxtpx:TrackPointExtension><gpxtpx:hr>135</gpxtpx:hr></gpxtpx:TrackPointExtension></extensions>
      </trkpt>
      <trkpt lat="59.360562407297" lon="18.001420140591">
        <ele>10.6</ele>
        <time>2018-12-15T12:19:52Z</time>
        <extensions><gpxtpx:TrackPointExtension><gpxtpx:hr>138</gpxtpx:hr></gpxtpx:TrackPointExtension></extensions>
      </trkpt>
      <trkpt lat="59.360323606966" lon="18.001855161201">
        <ele>10.8</ele>
        <time>2018-12-15T12:19:57Z</time>
        <extensions><gpxtpx:TrackPointExtension><gpxtpx:hr>141</gpxtpx:hr></gpxtpx:TrackPointExtension></extensions>
      </trkpt>
      <trkpt lat="59.360141635917" lon="18.002213906521">
        <ele>10.8</ele>
        <time>2018-12-15T12:20:01Z</time>
        <extensions><gpxtpx:TrackPointExtension><gpxtpx:hr>144</gpxtpx:hr></gpxtpx:TrackPointExtension></extensions>
      </trkpt>
      <trkpt lat="59.359900740111" lon="18.002686394224">
        <ele>10.8</ele>
        <time>2018-12-15T12:20:06Z</time>
        <extensions><gpxtpx:TrackPointExtension><gpxtpx:hr>145</gpxtpx:hr></gpxtpx:TrackPointExtension></extensions>
      </trkpt>
      <trkpt lat="59.359515507987" lon="18.003484099647">
        <ele>10.4</ele>
        <time>2018-12-15T12:20:14Z</time>
        <extensions><gpxtpx:TrackPointExtension><gpxtpx:hr>146</gpxtpx:hr></gpxtpx:TrackPointExtension></extensions>
      </trkpt>
      <trkpt lat="59.359191128457" lon="18.004051973372">
        <ele>9.8</ele>
        <time>2018-12-15T12:20:21Z</time>
        <extensions><gpxtpx:TrackPointExtension><gpxtpx:hr>145</gpxtpx:hr></gpxtpx:TrackPointExtension></extensions>
      </trkpt>
      <trkpt lat="59.359115607538" lon="18.004168146506">
        <ele>9.8</ele>
        <time>2018-12-15T12:20:24Z</time>
        <extensions><gpxtpx:TrackPointExtension><gpxtpx:hr>142</gpxtpx:hr></gpxtpx:TrackPointExtension></extensions>
      </trkpt>
      <trkpt lat="59.359090629476" lon="18.004199578631">
        <ele>9.8</ele>
        <time>2018-12-15T12:20:27Z</time>
        <extensions><gpxtpx:TrackPointExtension><gpxtpx:hr>139</gpxtpx:hr></gpxtpx:TrackPointExtension></extensions>
      </trkpt>
      <trkpt lat="59.359088282544" lon="18.004202847572">
        <ele>10</ele>
        <time>2018-12-15T12:20:28Z</time>
        <extensions><gpxtpx:TrackPointExtension><gpxtpx:hr>138</gpxtpx:hr></gpxtpx:TrackPointExtension></extensions>
      </trkpt>
      <trkpt lat="59.359056179867" lon="18.004263029614">
        <ele>11.4</ele>
        <time>2018-12-15T12:20:32Z</time>
        <extensions><gpxtpx:TrackPointExtension><gpxtpx:hr>136</gpxtpx:hr></gpxtpx:TrackPointExtension></extensions>
      </trkpt>
      <trkpt lat="59.358974121066" lon="18.004422956266">
        <ele>11.6</ele>
        <time>2018-12-15T12:20:35Z</time>
        <extensions><gpxtpx:TrackPointExtension><gpxtpx:hr>133</gpxtpx:hr></gpxtpx:TrackPointExtension></extensions>
      </trkpt>
      <trkpt lat="59.358569107658" lon="18.005218650033">
        <ele>11</ele>
        <time>2018-12-15T12:20:45Z</time>
        <extensions><gpxtpx:TrackPointExtension><gpxtpx:hr>133</gpxtpx:hr></gpxtpx:TrackPointExtension></extensions>
      </trkpt>
      <trkpt lat="59.358413958689" lon="18.005650066426">
        <ele>10</ele>
        <time>2018-12-15T12:20:49Z</time>
        <extensions><gpxtpx:TrackPointExtension><gpxtpx:hr>134</gpxtpx:hr></gpxtpx:TrackPointExtension></extensions>
      </trkpt>
      <trkpt lat="59.358191419244" lon="18.006179131954">
        <ele>9.6</ele>
        <time>2018-12-15T12:20:54Z</time>
        <extensions><gpxtpx:TrackPointExtension><gpxtpx:hr>137</gpxtpx:hr></gpxtpx:TrackPointExtension></extensions>
      </trkpt>
      <trkpt lat="59.357817167409" lon="18.007052106839">
        <ele>9.2</ele>
        <time>2018-12-15T12:21:02Z</time>
        <extensions><gpxtpx:TrackPointExtension><gpxtpx:hr>138</gpxtpx:hr></gpxtpx:TrackPointExtension></extensions>
      </trkpt>
      <trkpt lat="59.357442915574" lon="18.007860289637">
        <ele>9.2</ele>
        <time>2018-12-15T12:21:10Z</time>
        <extensions><gpxtpx:TrackPointExtension><gpxtpx:hr>137</gpxtpx:hr></gpxtpx:TrackPointExtension></extensions>
      </trkpt>
      <trkpt lat="59.357178718086" lon="18.00831266078">
        <ele>9.8</ele>
        <time>2018-12-15T12:21:21Z</time>
        <extensions><gpxtpx:TrackPointExtension><gpxtpx:hr>136</gpxtpx:hr></gpxtpx:TrackPointExtension></extensions>
      </trkpt>
      <trkpt lat="59.357158350069" lon="18.008364712379">
        <ele>12.2</ele>
        <time>2018-12-15T12:21:50Z</time>
        <extensions><gpxtpx:TrackPointExtension><gpxtpx:hr>111</gpxtpx:hr></gpxtpx:TrackPointExtension></extensions>
      </trkpt>
      <trkpt lat="59.357123732822" lon="18.008433108683">
        <ele>12.2</ele>
        <time>2018-12-15T12:21:52Z</time>
        <extensions><gpxtpx:TrackPointExtension><gpxtpx:hr>108</gpxtpx:hr></gpxtpx:TrackPointExtension></extensions>
      </trkpt>
      <trkpt lat="59.356933212235" lon="18.008828063811">
        <ele>12.2</ele>
        <time>2018-12-15T12:22:00Z</time>
        <extensions><gpxtpx:TrackPointExtension><gpxtpx:hr>111</gpxtpx:hr></gpxtpx:TrackPointExtension></extensions>
      </trkpt>
      <trkpt lat="59.356845202285" lon="18.009052698731">
        <ele>12.2</ele>
        <time>2018-12-15T12:22:03Z</time>
        <extensions><gpxtpx:TrackPointExtension><gpxtpx:hr>114</gpxtpx:hr></gpxtpx:TrackPointExtension></extensions>
      </trkpt>
      <trkpt lat="59.356771944479" lon="18.009202986198">
        <ele>12.2</ele>
        <time>2018-12-15T12:22:05Z</time>
        <extensions><gpxtpx:TrackPointExtension><gpxtpx:hr>117</gpxtpx:hr></gpxtpx:TrackPointExtension></extensions>
      </trkpt>
      <trkpt lat="59.356690891506" lon="18.009353273665">
        <ele>12.2</ele>
        <time>2018-12-15T12:22:07Z</time>
        <extensions><gpxtpx:TrackPointExtension><gpxtpx:hr>120</gpxtpx:hr></gpxtpx:TrackPointExtension></extensions>
      </trkpt>
      <trkpt lat="59.35660757542" lon="18.009516385439">
        <ele>12</ele>
        <time>2018-12-15T12:22:09Z</time>
        <extensions><gpxtpx:TrackPointExtension><gpxtpx:hr>124</gpxtpx:hr></gpxtpx:TrackPointExtension></extensions>
      </trkpt>
      <trkpt lat="59.35652124185" lon="18.009697099203">
        <ele>12</ele>
        <time>2018-12-15T12:22:11Z</time>
        <extensions><gpxtpx:TrackPointExtension><gpxtpx:hr>127</gpxtpx:hr></gpxtpx:TrackPointExtension></extensions>
      </trkpt>
      <trkpt lat="59.356442368171" lon="18.009889799084">
        <ele>12.2</ele>
        <time>2018-12-15T12:22:13Z</time>
        <extensions><gpxtpx:TrackPointExtension><gpxtpx:hr>131</gpxtpx:hr></gpxtpx:TrackPointExtension></extensions>
      </trkpt>
      <trkpt lat="59.356286883926" lon="18.010285173307">
        <ele>12.4</ele>
        <time>2018-12-15T12:22:17Z</time>
        <extensions><gpxtpx:TrackPointExtension><gpxtpx:hr>134</gpxtpx:hr></gpxtpx:TrackPointExtension></extensions>
      </trkpt>
      <trkpt lat="59.356147492929" lon="18.010574767952">
        <ele>12.2</ele>
        <time>2018-12-15T12:22:20Z</time>
        <extensions><gpxtpx:TrackPointExtension><gpxtpx:hr>137</gpxtpx:hr></gpxtpx:TrackPointExtension></extensions>
      </trkpt>
      <trkpt lat="59.355745245548" lon="18.011386638786">
        <ele>11.8</ele>
        <time>2018-12-15T12:22:28Z</time>
        <extensions><gpxtpx:TrackPointExtension><gpxtpx:hr>138</gpxtpx:hr></gpxtpx:TrackPointExtension></extensions>
      </trkpt>
      <trkpt lat="59.355582804326" lon="18.011865496733">
        <ele>11</ele>
        <time>2018-12-15T12:22:32Z</time>
        <extensions><gpxtpx:TrackPointExtension><gpxtpx:hr>137</gpxtpx:hr></gpxtpx:TrackPointExtension></extensions>
      </trkpt>
      <trkpt lat="59.355392870472" lon="18.012677367567">
        <ele>10</ele>
        <time>2018-12-15T12:22:38Z</time>
        <extensions><gpxtpx:TrackPointExtension><gpxtpx:hr>135</gpxtpx:hr></gpxtpx:TrackPointExtension></extensions>
      </trkpt>
      <trkpt lat="59.355187597741" lon="18.013704569412">
        <ele>9.4</ele>
        <time>2018-12-15T12:22:46Z</time>
        <extensions><gpxtpx:TrackPointExtension><gpxtpx:hr>134</gpxtpx:hr></gpxtpx:TrackPointExtension></extensions>
      </trkpt>
      <trkpt lat="59.354864475496" lon="18.014704781539">
        <ele>9.4</ele>
        <time>2018-12-15T12:22:55Z</time>
        <extensions><gpxtpx:TrackPointExtension><gpxtpx:hr>137</gpxtpx:hr></gpxtpx:TrackPointExtension></extensions>
      </trkpt>
      <trkpt lat="59.35459675761" lon="18.015325461234">
        <ele>9.8</ele>
        <time>2018-12-15T12:23:01Z</time>
        <extensions><gpxtpx:TrackPointExtension><gpxtpx:hr>140</gpxtpx:hr></gpxtpx:TrackPointExtension></extensions>
      </trkpt>
      <trkpt lat="59.354305151309" lon="18.01587397277">
        <ele>10.6</ele>
        <time>2018-12-15T12:23:07Z</time>
        <extensions><gpxtpx:TrackPointExtension><gpxtpx:hr>143</gpxtpx:hr></gpxtpx:TrackPointExtension></extensions>
      </trkpt>
      <trkpt lat="59.354115301274" lon="18.016239842705">
        <ele>11</ele>
        <time>2018-12-15T12:23:11Z</time>
        <extensions><gpxtpx:TrackPointExtension><gpxtpx:hr>143</gpxtpx:hr></gpxtpx:TrackPointExtension></extensions>
      </trkpt>
      <trkpt lat="59.353926540886" lon="18.016572436497">
        <ele>11.4</ele>
        <time>2018-12-15T12:23:15Z</time>
        <extensions><gpxtpx:TrackPointExtension><gpxtpx:hr>143</gpxtpx:hr></gpxtpx:TrackPointExtension></extensions>
      </trkpt>
      <trkpt lat="59.353537117812" lon="18.016903689185">
        <ele>11.6</ele>
        <time>2018-12-15T12:23:24Z</time>
        <extensions><gpxtpx:TrackPointExtension><gpxtpx:hr>140</gpxtpx:hr></gpxtpx:TrackPointExtension></extensions>
      </trkpt>
      <trkpt lat="59.353519180546" lon="18.017016341921">
        <ele>11.6</ele>
        <time>2018-12-15T12:23:25Z</time>
        <extensions><gpxtpx:TrackPointExtension><gpxtpx:hr>140</gpxtpx:hr></gpxtpx:TrackPointExtension></extensions>
      </trkpt>
      <trkpt lat="59.35349789052" lon="18.017129162295">
        <ele>11.4</ele>
        <time>2018-12-15T12:23:26Z</time>
        <extensions><gpxtpx:TrackPointExtension><gpxtpx:hr>140</gpxtpx:hr></gpxtpx:TrackPointExtension></extensions>
      </trkpt>
      <trkpt lat="59.353252049393" lon="18.017755290225">
        <ele>11.6</ele>
        <time>2018-12-15T12:23:33Z</time>
        <extensions><gpxtpx:TrackPointExtension><gpxtpx:hr>140</gpxtpx:hr></gpxtpx:TrackPointExtension></extensions>
      </trkpt>
      <trkpt lat="59.353218940888" lon="18.017861907993">
        <ele>11.4</ele>
        <time>2018-12-15T12:23:34Z</time>
        <extensions><gpxtpx:TrackPointExtension><gpxtpx:hr>140</gpxtpx:hr></gpxtpx:TrackPointExtension></extensions>
      </trkpt>
      <trkpt lat="59.352834966049" lon="18.018738235638">
        <ele>11</ele>
        <time>2018-12-15T12:23:43Z</time>
        <extensions><gpxtpx:TrackPointExtension><gpxtpx:hr>140</gpxtpx:hr></gpxtpx:TrackPointExtension></extensions>
      </trkpt>
      <trkpt lat="59.35253061926" lon="18.01941197276">
        <ele>11.2</ele>
        <time>2018-12-15T12:23:50Z</time>
        <extensions><gpxtpx:TrackPointExtension><gpxtpx:hr>143</gpxtpx:hr></gpxtpx:TrackPointExtension></extensions>
      </trkpt>
      <trkpt lat="59.352165336058" lon="18.02011018503">
        <ele>11.8</ele>
        <time>2018-12-15T12:23:58Z</time>
        <extensions><gpxtpx:TrackPointExtension><gpxtpx:hr>146</gpxtpx:hr></gpxtpx:TrackPointExtension></extensions>
      </trkpt>
      <trkpt lat="59.351985125208" lon="18.02048904691">
        <ele>12.2</ele>
        <time>2018-12-15T12:24:02Z</time>
        <extensions><gpxtpx:TrackPointExtension><gpxtpx:hr>145</gpxtpx:hr></gpxtpx:TrackPointExtension></extensions>
      </trkpt>
      <trkpt lat="59.351604754586" lon="18.021295804785">
        <ele>12.6</ele>
        <time>2018-12-15T12:24:11Z</time>
        <extensions><gpxtpx:TrackPointExtension><gpxtpx:hr>144</gpxtpx:hr></gpxtpx:TrackPointExtension></extensions>
      </trkpt>
      <trkpt lat="59.351528730753" lon="18.021459838568">
        <ele>12.6</ele>
        <time>2018-12-15T12:24:13Z</time>
        <extensions><gpxtpx:TrackPointExtension><gpxtpx:hr>144</gpxtpx:hr></gpxtpx:TrackPointExtension></extensions>
      </trkpt>
      <trkpt lat="59.351386909005" lon="18.021870216392">
        <ele>13.2</ele>
        <time>2018-12-15T12:24:17Z</time>
        <extensions><gpxtpx:TrackPointExtension><gpxtpx:hr>145</gpxtpx:hr></gpxtpx:TrackPointExtension></extensions>
      </trkpt>
      <trkpt lat="59.351020703794" lon="18.022709998953">
        <ele>14.4</ele>
        <time>2018-12-15T12:24:26Z</time>
        <extensions><gpxtpx:TrackPointExtension><gpxtpx:hr>147</gpxtpx:hr></gpxtpx:TrackPointExtension></extensions>
      </trkpt>
      <trkpt lat="59.350830686121" lon="18.023159268793">
        <ele>15.6</ele>
        <time>2018-12-15T12:24:31Z</time>
        <extensions><gpxtpx:TrackPointExtension><gpxtpx:hr>148</gpxtpx:hr></gpxtpx:TrackPointExtension></extensions>
      </trkpt>
      <trkpt lat="59.350658354257" lon="18.023584063485">
        <ele>16.6</ele>
        <time>2018-12-15T12:24:36Z</time>
        <extensions><gpxtpx:TrackPointExtension><gpxtpx:hr>148</gpxtpx:hr></gpxtpx:TrackPointExtension></extensions>
      </trkpt>
      <trkpt lat="59.350494571931" lon="18.023960578433">
        <ele>17.8</ele>
        <time>2018-12-15T12:24:41Z</time>
        <extensions><gpxtpx:TrackPointExtension><gpxtpx:hr>147</gpxtpx:hr></gpxtpx:TrackPointExtension></extensions>
      </trkpt>
      <trkpt lat="59.350464061815" lon="18.024019167914">
        <ele>17.8</ele>
        <time>2018-12-15T12:24:42Z</time>
        <extensions><gpxtpx:TrackPointExtension><gpxtpx:hr>147</gpxtpx:hr></gpxtpx:TrackPointExtension></extensions>
      </trkpt>
      <trkpt lat="59.350321066601" lon="18.024253525838">
        <ele>18.8</ele>
        <time>2018-12-15T12:24:47Z</time>
        <extensions><gpxtpx:TrackPointExtension><gpxtpx:hr>146</gpxtpx:hr></gpxtpx:TrackPointExtension></extensions>
      </trkpt>
      <trkpt lat="59.350309164303" lon="18.024293675139">
        <ele>19</ele>
        <time>2018-12-15T12:24:48Z</time>
        <extensions><gpxtpx:TrackPointExtension><gpxtpx:hr>145</gpxtpx:hr></gpxtpx:TrackPointExtension></extensions>
      </trkpt>
      <trkpt lat="59.350306649733" lon="18.024452763601">
        <ele>19.8</ele>
        <time>2018-12-15T12:24:51Z</time>
        <extensions><gpxtpx:TrackPointExtension><gpxtpx:hr>144</gpxtpx:hr></gpxtpx:TrackPointExtension></extensions>
      </trkpt>
      <trkpt lat="59.350193913178" lon="18.024868254384">
        <ele>20.6</ele>
        <time>2018-12-15T12:24:57Z</time>
        <extensions><gpxtpx:TrackPointExtension><gpxtpx:hr>145</gpxtpx:hr></gpxtpx:TrackPointExtension></extensions>
      </trkpt>
      <trkpt lat="59.350038596571" lon="18.025203698022">
        <ele>20.8</ele>
        <time>2018-12-15T12:25:03Z</time>
        <extensions><gpxtpx:TrackPointExtension><gpxtpx:hr>142</gpxtpx:hr></gpxtpx:TrackPointExtension></extensions>
      </trkpt>
      <trkpt lat="59.349982856936" lon="18.025319200604">
        <ele>20.8</ele>
        <time>2018-12-15T12:25:05Z</time>
        <extensions><gpxtpx:TrackPointExtension><gpxtpx:hr>142</gpxtpx:hr></gpxtpx:TrackPointExtension></extensions>
      </trkpt>
      <trkpt lat="59.349916723745" lon="18.025469907166">
        <ele>21.2</ele>
        <time>2018-12-15T12:25:08Z</time>
        <extensions><gpxtpx:TrackPointExtension><gpxtpx:hr>142</gpxtpx:hr></gpxtpx:TrackPointExtension></extensions>
      </trkpt>
      <trkpt lat="59.349753863428" lon="18.02577215848">
        <ele>21.6</ele>
        <time>2018-12-15T12:25:15Z</time>
        <extensions><gpxtpx:TrackPointExtension><gpxtpx:hr>139</gpxtpx:hr></gpxtpx:TrackPointExtension></extensions>
      </trkpt>
      <trkpt lat="59.349705416046" lon="18.025894869496">
        <ele>22</ele>
        <time>2018-12-15T12:25:17Z</time>
        <extensions><gpxtpx:TrackPointExtension><gpxtpx:hr>139</gpxtpx:hr></gpxtpx:TrackPointExtension></extensions>
      </trkpt>
      <trkpt lat="59.349589997283" lon="18.026115900199">
        <ele>23</ele>
        <time>2018-12-15T12:25:22Z</time>
        <extensions><gpxtpx:TrackPointExtension><gpxtpx:hr>138</gpxtpx:hr></gpxtpx:TrackPointExtension></extensions>
      </trkpt>
      <trkpt lat="59.349390340425" lon="18.026605906073">
        <ele>24.2</ele>
        <time>2018-12-15T12:25:30Z</time>
        <extensions><gpxtpx:TrackPointExtension><gpxtpx:hr>139</gpxtpx:hr></gpxtpx:TrackPointExtension></extensions>
      </trkpt>
      <trkpt lat="59.349269305789" lon="18.026931207612">
        <ele>25.4</ele>
        <time>2018-12-15T12:25:37Z</time>
        <extensions><gpxtpx:TrackPointExtension><gpxtpx:hr>136</gpxtpx:hr></gpxtpx:TrackPointExtension></extensions>
      </trkpt>
      <trkpt lat="59.349121365254" lon="18.027283666507">
        <ele>26.4</ele>
        <time>2018-12-15T12:25:43Z</time>
        <extensions><gpxtpx:TrackPointExtension><gpxtpx:hr>138</gpxtpx:hr></gpxtpx:TrackPointExtension></extensions>
      </trkpt>
      <trkpt lat="59.34909655483" lon="18.027367653145">
        <ele>26.6</ele>
        <time>2018-12-15T12:25:44Z</time>
        <extensions><gpxtpx:TrackPointExtension><gpxtpx:hr>138</gpxtpx:hr></gpxtpx:TrackPointExtension></extensions>
      </trkpt>
      <trkpt lat="59.348996726401" lon="18.02773687584">
        <ele>26.8</ele>
        <time>2018-12-15T12:25:48Z</time>
        <extensions><gpxtpx:TrackPointExtension><gpxtpx:hr>135</gpxtpx:hr></gpxtpx:TrackPointExtension></extensions>
      </trkpt>
      <trkpt lat="59.348934867979" lon="18.027923373115">
        <ele>26.8</ele>
        <time>2018-12-15T12:25:50Z</time>
        <extensions><gpxtpx:TrackPointExtension><gpxtpx:hr>136</gpxtpx:hr></gpxtpx:TrackPointExtension></extensions>
      </trkpt>
      <trkpt lat="59.348883738389" lon="18.028013981454">
        <ele>27</ele>
        <time>2018-12-15T12:25:51Z</time>
        <extensions><gpxtpx:TrackPointExtension><gpxtpx:hr>135</gpxtpx:hr></gpxtpx:TrackPointExtension></extensions>
      </trkpt>
      <trkpt lat="59.348641082384" lon="18.028507423907">
        <ele>27</ele>
        <time>2018-12-15T12:25:57Z</time>
        <extensions><gpxtpx:TrackPointExtension><gpxtpx:hr>135</gpxtpx:hr></gpxtpx:TrackPointExtension></extensions>
      </trkpt>
      <trkpt lat="59.348241768668" lon="18.029245869297">
        <ele>27.2</ele>
        <time>2018-12-15T12:26:05Z</time>
        <extensions><gpxtpx:TrackPointExtension><gpxtpx:hr>136</gpxtpx:hr></gpxtpx:TrackPointExtension></extensions>
      </trkpt>
      <trkpt lat="59.348065832587" lon="18.029476874461">
        <ele>27.2</ele>
        <time>2018-12-15T12:26:08Z</time>
        <extensions><gpxtpx:TrackPointExtension><gpxtpx:hr>136</gpxtpx:hr></gpxtpx:TrackPointExtension></extensions>
      </trkpt>
      <trkpt lat="59.347843293142" lon="18.02977032478">
        <ele>27.2</ele>
        <time>2018-12-15T12:26:12Z</time>
        <extensions><gpxtpx:TrackPointExtension><gpxtpx:hr>136</gpxtpx:hr></gpxtpx:TrackPointExtension></extensions>
      </trkpt>
      <trkpt lat="59.347461749054" lon="18.030395363063">
        <ele>27.2</ele>
        <time>2018-12-15T12:26:20Z</time>
        <extensions><gpxtpx:TrackPointExtension><gpxtpx:hr>134</gpxtpx:hr></gpxtpx:TrackPointExtension></extensions>
      </trkpt>
      <trkpt lat="59.347313221786" lon="18.030498125157">
        <ele>27.2</ele>
        <time>2018-12-15T12:26:23Z</time>
        <extensions><gpxtpx:TrackPointExtension><gpxtpx:hr>133</gpxtpx:hr></gpxtpx:TrackPointExtension></extensions>
      </trkpt>
      <trkpt lat="59.347293440502" lon="18.030863156902">
        <ele>27.6</ele>
        <time>2018-12-15T12:26:28Z</time>
        <extensions><gpxtpx:TrackPointExtension><gpxtpx:hr>130</gpxtpx:hr></gpxtpx:TrackPointExtension></extensions>
      </trkpt>
      <trkpt lat="59.347171986771" lon="18.031166665501">
        <ele>27.6</ele>
        <time>2018-12-15T12:26:32Z</time>
        <extensions><gpxtpx:TrackPointExtension><gpxtpx:hr>130</gpxtpx:hr></gpxtpx:TrackPointExtension></extensions>
      </trkpt>
      <trkpt lat="59.34700275621" lon="18.031443435839">
        <ele>27.6</ele>
        <time>2018-12-15T12:26:38Z</time>
        <extensions><gpxtpx:TrackPointExtension><gpxtpx:hr>129</gpxtpx:hr></gpxtpx:TrackPointExtension></extensions>
      </trkpt>
      <trkpt lat="59.346974006293" lon="18.03146011582">
        <ele>27.8</ele>
        <time>2018-12-15T12:26:41Z</time>
        <extensions><gpxtpx:TrackPointExtension><gpxtpx:hr>125</gpxtpx:hr></gpxtpx:TrackPointExtension></extensions>
      </trkpt>
      <trkpt lat="59.346976856139" lon="18.031449806083">
        <ele>27.8</ele>
        <time>2018-12-15T12:26:43Z</time>
        <extensions><gpxtpx:TrackPointExtension><gpxtpx:hr>126</gpxtpx:hr></gpxtpx:TrackPointExtension></extensions>
      </trkpt>
      <trkpt lat="59.346966378764" lon="18.031466486064">
        <ele>29.2</ele>
        <time>2018-12-15T12:26:58Z</time>
        <extensions><gpxtpx:TrackPointExtension><gpxtpx:hr>118</gpxtpx:hr></gpxtpx:TrackPointExtension></extensions>
      </trkpt>
      <trkpt lat="59.346946513661" lon="18.031501019492">
        <ele>29.2</ele>
        <time>2018-12-15T12:26:59Z</time>
        <extensions><gpxtpx:TrackPointExtension><gpxtpx:hr>120</gpxtpx:hr></gpxtpx:TrackPointExtension></extensions>
      </trkpt>
      <trkpt lat="59.346788850122" lon="18.031815759837">
        <ele>29.2</ele>
        <time>2018-12-15T12:27:05Z</time>
        <extensions><gpxtpx:TrackPointExtension><gpxtpx:hr>119</gpxtpx:hr></gpxtpx:TrackPointExtension></extensions>
      </trkpt>
      <trkpt lat="59.346551642352" lon="18.032207865119">
        <ele>28.4</ele>
        <time>2018-12-15T12:27:11Z</time>
        <extensions><gpxtpx:TrackPointExtension><gpxtpx:hr>121</gpxtpx:hr></gpxtpx:TrackPointExtension></extensions>
      </trkpt>
      <trkpt lat="59.346393727356" lon="18.032524700939">
        <ele>28.2</ele>
        <time>2018-12-15T12:27:15Z</time>
        <extensions><gpxtpx:TrackPointExtension><gpxtpx:hr>117</gpxtpx:hr></gpxtpx:TrackPointExtension></extensions>
      </trkpt>
      <trkpt lat="59.34635399715" lon="18.032600138039">
        <ele>28</ele>
        <time>2018-12-15T12:27:16Z</time>
        <extensions><gpxtpx:TrackPointExtension><gpxtpx:hr>116</gpxtpx:hr></gpxtpx:TrackPointExtension></extensions>
      </trkpt>
      <trkpt lat="59.346252073246" lon="18.032778672509">
        <ele>27.4</ele>
        <time>2018-12-15T12:27:19Z</time>
        <extensions><gpxtpx:TrackPointExtension><gpxtpx:hr>115</gpxtpx:hr></gpxtpx:TrackPointExtension></extensions>
      </trkpt>
      <trkpt lat="59.346203039131" lon="18.032852517048">
        <ele>26.8</ele>
        <time>2018-12-15T12:27:21Z</time>
        <extensions><gpxtpx:TrackPointExtension><gpxtpx:hr>112</gpxtpx:hr></gpxtpx:TrackPointExtension></extensions>
      </trkpt>
      <trkpt lat="59.346175797956" lon="18.032875399635">
        <ele>26.2</ele>
        <time>2018-12-15T12:27:23Z</time>
        <extensions><gpxtpx:TrackPointExtension><gpxtpx:hr>113</gpxtpx:hr></gpxtpx:TrackPointExtension></extensions>
      </trkpt>
      <trkpt lat="59.346162554554" lon="18.032879255309">
        <ele>26</ele>
        <time>2018-12-15T12:27:25Z</time>
        <extensions><gpxtpx:TrackPointExtension><gpxtpx:hr>114</gpxtpx:hr></gpxtpx:TrackPointExtension></extensions>
      </trkpt>
      <trkpt lat="59.346119974502" lon="18.032913621099">
        <ele>25.6</ele>
        <time>2018-12-15T12:27:50Z</time>
        <extensions><gpxtpx:TrackPointExtension><gpxtpx:hr>107</gpxtpx:hr></gpxtpx:TrackPointExtension></extensions>
      </trkpt>
      <trkpt lat="59.346103629797" lon="18.032942454835">
        <ele>25.6</ele>
        <time>2018-12-15T12:27:51Z</time>
        <extensions><gpxtpx:TrackPointExtension><gpxtpx:hr>108</gpxtpx:hr></gpxtpx:TrackPointExtension></extensions>
      </trkpt>
      <trkpt lat="59.346056104424" lon="18.033032224984">
        <ele>25.6</ele>
        <time>2018-12-15T12:27:53Z</time>
        <extensions><gpxtpx:TrackPointExtension><gpxtpx:hr>112</gpxtpx:hr></gpxtpx:TrackPointExtension></extensions>
      </trkpt>
      <trkpt lat="59.345930878838" lon="18.033252417497">
        <ele>25.4</ele>
        <time>2018-12-15T12:27:56Z</time>
        <extensions><gpxtpx:TrackPointExtension><gpxtpx:hr>115</gpxtpx:hr></gpxtpx:TrackPointExtension></extensions>
      </trkpt>
      <trkpt lat="59.345838258843" lon="18.033416116004">
        <ele>25.4</ele>
        <time>2018-12-15T12:27:58Z</time>
        <extensions><gpxtpx:TrackPointExtension><gpxtpx:hr>117</gpxtpx:hr></gpxtpx:TrackPointExtension></extensions>
      </trkpt>
      <trkpt lat="59.34578905709" lon="18.033494151493">
        <ele>25.2</ele>
        <time>2018-12-15T12:27:59Z</time>
        <extensions><gpxtpx:TrackPointExtension><gpxtpx:hr>117</gpxtpx:hr></gpxtpx:TrackPointExtension></extensions>
      </trkpt>
      <trkpt lat="59.345636757967" lon="18.033677715103">
        <ele>24.4</ele>
        <time>2018-12-15T12:28:02Z</time>
        <extensions><gpxtpx:TrackPointExtension><gpxtpx:hr>119</gpxtpx:hr></gpxtpx:TrackPointExtension></extensions>
      </trkpt>
      <trkpt lat="59.345583029988" lon="18.033727503589">
        <ele>24.2</ele>
        <time>2018-12-15T12:28:03Z</time>
        <extensions><gpxtpx:TrackPointExtension><gpxtpx:hr>119</gpxtpx:hr></gpxtpx:TrackPointExtension></extensions>
      </trkpt>
      <trkpt lat="59.345424528259" lon="18.033879718893">
        <ele>23.4</ele>
        <time>2018-12-15T12:28:06Z</time>
        <extensions><gpxtpx:TrackPointExtension><gpxtpx:hr>122</gpxtpx:hr></gpxtpx:TrackPointExtension></extensions>
      </trkpt>
      <trkpt lat="59.345267451453" lon="18.0340350355">
        <ele>23.4</ele>
        <time>2018-12-15T12:28:09Z</time>
        <extensions><gpxtpx:TrackPointExtension><gpxtpx:hr>126</gpxtpx:hr></gpxtpx:TrackPointExtension></extensions>
      </trkpt>
      <trkpt lat="59.345160163133" lon="18.034136707947">
        <ele>23.4</ele>
        <time>2018-12-15T12:28:11Z</time>
        <extensions><gpxtpx:TrackPointExtension><gpxtpx:hr>128</gpxtpx:hr></gpxtpx:TrackPointExtension></extensions>
      </trkpt>
      <trkpt lat="59.345054551193" lon="18.034228573571">
        <ele>23.4</ele>
        <time>2018-12-15T12:28:13Z</time>
        <extensions><gpxtpx:TrackPointExtension><gpxtpx:hr>131</gpxtpx:hr></gpxtpx:TrackPointExtension></extensions>
      </trkpt>
      <trkpt lat="59.344898647853" lon="18.034373748079">
        <ele>23.4</ele>
        <time>2018-12-15T12:28:16Z</time>
        <extensions><gpxtpx:TrackPointExtension><gpxtpx:hr>134</gpxtpx:hr></gpxtpx:TrackPointExtension></extensions>
      </trkpt>
      <trkpt lat="59.344733943518" lon="18.034521688614">
        <ele>23.8</ele>
        <time>2018-12-15T12:28:19Z</time>
        <extensions><gpxtpx:TrackPointExtension><gpxtpx:hr>137</gpxtpx:hr></gpxtpx:TrackPointExtension></extensions>
      </trkpt>
      <trkpt lat="59.344584661879" lon="18.034660660516">
        <ele>24.4</ele>
        <time>2018-12-15T12:28:22Z</time>
        <extensions><gpxtpx:TrackPointExtension><gpxtpx:hr>140</gpxtpx:hr></gpxtpx:TrackPointExtension></extensions>
      </trkpt>
      <trkpt lat="59.344495394644" lon="18.034752693778">
        <ele>25.2</ele>
        <time>2018-12-15T12:28:24Z</time>
        <extensions><gpxtpx:TrackPointExtension><gpxtpx:hr>141</gpxtpx:hr></gpxtpx:TrackPointExtension></extensions>
      </trkpt>
      <trkpt lat="59.344352818525" lon="18.034900801951">
        <ele>25.8</ele>
        <time>2018-12-15T12:28:27Z</time>
        <extensions><gpxtpx:TrackPointExtension><gpxtpx:hr>144</gpxtpx:hr></gpxtpx:TrackPointExtension></extensions>
      </trkpt>
      <trkpt lat="59.344251732811" lon="18.034990320643">
        <ele>26.4</ele>
        <time>2018-12-15T12:28:29Z</time>
        <extensions><gpxtpx:TrackPointExtension><gpxtpx:hr>145</gpxtpx:hr></gpxtpx:TrackPointExtension></extensions>
      </trkpt>
      <trkpt lat="59.344039084008" lon="18.035206070749">
        <ele>27.4</ele>
        <time>2018-12-15T12:28:34Z</time>
        <extensions><gpxtpx:TrackPointExtension><gpxtpx:hr>147</gpxtpx:hr></gpxtpx:TrackPointExtension></extensions>
      </trkpt>
      <trkpt lat="59.343680003412" lon="18.035514859945">
        <ele>27.8</ele>
        <time>2018-12-15T12:28:41Z</time>
        <extensions><gpxtpx:TrackPointExtension><gpxtpx:hr>144</gpxtpx:hr></gpxtpx:TrackPointExtension></extensions>
      </trkpt>
      <trkpt lat="59.343635914618" lon="18.035557859092">
        <ele>27.8</ele>
        <time>2018-12-15T12:28:42Z</time>
        <extensions><gpxtpx:TrackPointExtension><gpxtpx:hr>144</gpxtpx:hr></gpxtpx:TrackPointExtension></extensions>
      </trkpt>
      <trkpt lat="59.343140125233" lon="18.03598718001">
        <ele>26.8</ele>
        <time>2018-12-15T12:28:52Z</time>
        <extensions><gpxtpx:TrackPointExtension><gpxtpx:hr>142</gpxtpx:hr></gpxtpx:TrackPointExtension></extensions>
      </trkpt>
      <trkpt lat="59.343007188299" lon="18.03613553964">
        <ele>26.6</ele>
        <time>2018-12-15T12:28:55Z</time>
        <extensions><gpxtpx:TrackPointExtension><gpxtpx:hr>139</gpxtpx:hr></gpxtpx:TrackPointExtension></extensions>
      </trkpt>
      <trkpt lat="59.342919010711" lon="18.036233104956">
        <ele>26.4</ele>
        <time>2018-12-15T12:28:57Z</time>
        <extensions><gpxtpx:TrackPointExtension><gpxtpx:hr>135</gpxtpx:hr></gpxtpx:TrackPointExtension></extensions>
      </trkpt>
      <trkpt lat="59.342844076525" lon="18.03628389927">
        <ele>26.4</ele>
        <time>2018-12-15T12:28:59Z</time>
        <extensions><gpxtpx:TrackPointExtension><gpxtpx:hr>131</gpxtpx:hr></gpxtpx:TrackPointExtension></extensions>
      </trkpt>
      <trkpt lat="59.342809878373" lon="18.036301585079">
        <ele>26.4</ele>
        <time>2018-12-15T12:29:00Z</time>
        <extensions><gpxtpx:TrackPointExtension><gpxtpx:hr>130</gpxtpx:hr></gpxtpx:TrackPointExtension></extensions>
      </trkpt>
      <trkpt lat="59.342740643879" lon="18.036323042743">
        <ele>26.4</ele>
        <time>2018-12-15T12:29:04Z</time>
        <extensions><gpxtpx:TrackPointExtension><gpxtpx:hr>128</gpxtpx:hr></gpxtpx:TrackPointExtension></extensions>
      </trkpt>
      <trkpt lat="59.342632601188" lon="18.036413567263">
        <ele>26.8</ele>
        <time>2018-12-15T12:29:11Z</time>
        <extensions><gpxtpx:TrackPointExtension><gpxtpx:hr>129</gpxtpx:hr></gpxtpx:TrackPointExtension></extensions>
      </trkpt>
      <trkpt lat="59.342478877142" lon="18.036585396213">
        <ele>26.8</ele>
        <time>2018-12-15T12:29:15Z</time>
        <extensions><gpxtpx:TrackPointExtension><gpxtpx:hr>130</gpxtpx:hr></gpxtpx:TrackPointExtension></extensions>
      </trkpt>
      <trkpt lat="59.342376701781" lon="18.036696791664">
        <ele>26.8</ele>
        <time>2018-12-15T12:29:17Z</time>
        <extensions><gpxtpx:TrackPointExtension><gpxtpx:hr>129</gpxtpx:hr></gpxtpx:TrackPointExtension></extensions>
      </trkpt>
      <trkpt lat="59.342162041322" lon="18.03689158702">
        <ele>26.6</ele>
        <time>2018-12-15T12:29:21Z</time>
        <extensions><gpxtpx:TrackPointExtension><gpxtpx:hr>125</gpxtpx:hr></gpxtpx:TrackPointExtension></extensions>
      </trkpt>
      <trkpt lat="59.342068415499" lon="18.036976663305">
        <ele>26.2</ele>
        <time>2018-12-15T12:29:23Z</time>
        <extensions><gpxtpx:TrackPointExtension><gpxtpx:hr>121</gpxtpx:hr></gpxtpx:TrackPointExtension></extensions>
      </trkpt>
      <trkpt lat="59.341936903488" lon="18.037086717652">
        <ele>25.6</ele>
        <time>2018-12-15T12:29:26Z</time>
        <extensions><gpxtpx:TrackPointExtension><gpxtpx:hr>120</gpxtpx:hr></gpxtpx:TrackPointExtension></extensions>
      </trkpt>
      <trkpt lat="59.34188979721" lon="18.037123430374">
        <ele>25.4</ele>
        <time>2018-12-15T12:29:27Z</time>
        <extensions><gpxtpx:TrackPointExtension><gpxtpx:hr>120</gpxtpx:hr></gpxtpx:TrackPointExtension></extensions>
      </trkpt>
      <trkpt lat="59.341763649615" lon="18.03724697958">
        <ele>24.6</ele>
        <time>2018-12-15T12:29:30Z</time>
        <extensions><gpxtpx:TrackPointExtension><gpxtpx:hr>116</gpxtpx:hr></gpxtpx:TrackPointExtension></extensions>
      </trkpt>
      <trkpt lat="59.341668850326" lon="18.037351669511">
        <ele>24.2</ele>
        <time>2018-12-15T12:29:32Z</time>
        <extensions><gpxtpx:TrackPointExtension><gpxtpx:hr>113</gpxtpx:hr></gpxtpx:TrackPointExtension></extensions>
      </trkpt>
      <trkpt lat="59.341616463451" lon="18.037399613979">
        <ele>24</ele>
        <time>2018-12-15T12:29:33Z</time>
        <extensions><gpxtpx:TrackPointExtension><gpxtpx:hr>113</gpxtpx:hr></gpxtpx:TrackPointExtension></extensions>
      </trkpt>
      <trkpt lat="59.341435917325" lon="18.037524839565">
        <ele>23.6</ele>
        <time>2018-12-15T12:29:36Z</time>
        <extensions><gpxtpx:TrackPointExtension><gpxtpx:hr>116</gpxtpx:hr></gpxtpx:TrackPointExtension></extensions>
      </trkpt>
      <trkpt lat="59.341102904438" lon="18.037774284909">
        <ele>22.8</ele>
        <time>2018-12-15T12:29:42Z</time>
        <extensions><gpxtpx:TrackPointExtension><gpxtpx:hr>118</gpxtpx:hr></gpxtpx:TrackPointExtension></extensions>
      </trkpt>
      <trkpt lat="59.340985474019" lon="18.037876041175">
        <ele>22.6</ele>
        <time>2018-12-15T12:29:44Z</time>
        <extensions><gpxtpx:TrackPointExtension><gpxtpx:hr>121</gpxtpx:hr></gpxtpx:TrackPointExtension></extensions>
      </trkpt>
      <trkpt lat="59.340771148836" lon="18.038060778251">
        <ele>22.2</ele>
        <time>2018-12-15T12:29:48Z</time>
        <extensions><gpxtpx:TrackPointExtension><gpxtpx:hr>124</gpxtpx:hr></gpxtpx:TrackPointExtension></extensions>
      </trkpt>
      <trkpt lat="59.340663860516" lon="18.038160103766">
        <ele>21.8</ele>
        <time>2018-12-15T12:29:50Z</time>
        <extensions><gpxtpx:TrackPointExtension><gpxtpx:hr>126</gpxtpx:hr></gpxtpx:TrackPointExtension></extensions>
      </trkpt>
      <trkpt lat="59.340434196456" lon="18.038340230797">
        <ele>20.6</ele>
        <time>2018-12-15T12:29:54Z</time>
        <extensions><gpxtpx:TrackPointExtension><gpxtpx:hr>124</gpxtpx:hr></gpxtpx:TrackPointExtension></extensions>
      </trkpt>
      <trkpt lat="59.340245352249" lon="18.038414326793">
        <ele>20.4</ele>
        <time>2018-12-15T12:29:59Z</time>
        <extensions><gpxtpx:TrackPointExtension><gpxtpx:hr>124</gpxtpx:hr></gpxtpx:TrackPointExtension></extensions>
      </trkpt>
      <trkpt lat="59.340175531022" lon="18.038437544656">
        <ele>20.4</ele>
        <time>2018-12-15T12:30:03Z</time>
        <extensions><gpxtpx:TrackPointExtension><gpxtpx:hr>124</gpxtpx:hr></gpxtpx:TrackPointExtension></extensions>
      </trkpt>
      <trkpt lat="59.340082994846" lon="18.038531673393">
        <ele>20.8</ele>
        <time>2018-12-15T12:30:46Z</time>
        <extensions><gpxtpx:TrackPointExtension><gpxtpx:hr>102</gpxtpx:hr></gpxtpx:TrackPointExtension></extensions>
      </trkpt>
      <trkpt lat="59.340054412567" lon="18.038562267328">
        <ele>20.8</ele>
        <time>2018-12-15T12:30:47Z</time>
        <extensions><gpxtpx:TrackPointExtension><gpxtpx:hr>104</gpxtpx:hr></gpxtpx:TrackPointExtension></extensions>
      </trkpt>
      <trkpt lat="59.339985597168" lon="18.038645248138">
        <ele>20.8</ele>
        <time>2018-12-15T12:30:49Z</time>
        <extensions><gpxtpx:TrackPointExtension><gpxtpx:hr>108</gpxtpx:hr></gpxtpx:TrackPointExtension></extensions>
      </trkpt>
      <trkpt lat="59.339889289137" lon="18.038745495662">
        <ele>20.8</ele>
        <time>2018-12-15T12:30:51Z</time>
        <extensions><gpxtpx:TrackPointExtension><gpxtpx:hr>112</gpxtpx:hr></gpxtpx:TrackPointExtension></extensions>
      </trkpt>
      <trkpt lat="59.339776133487" lon="18.038863345176">
        <ele>20.6</ele>
        <time>2018-12-15T12:30:53Z</time>
        <extensions><gpxtpx:TrackPointExtension><gpxtpx:hr>115</gpxtpx:hr></gpxtpx:TrackPointExtension></extensions>
      </trkpt>
      <trkpt lat="59.339646884589" lon="18.038986391468">
        <ele>20.4</ele>
        <time>2018-12-15T12:30:55Z</time>
        <extensions><gpxtpx:TrackPointExtension><gpxtpx:hr>118</gpxtpx:hr></gpxtpx:TrackPointExtension></extensions>
      </trkpt>
      <trkpt lat="59.339517132777" lon="18.039115640366">
        <ele>20.4</ele>
        <time>2018-12-15T12:30:57Z</time>
        <extensions><gpxtpx:TrackPointExtension><gpxtpx:hr>121</gpxtpx:hr></gpxtpx:TrackPointExtension></extensions>
      </trkpt>
      <trkpt lat="59.339317140643" lon="18.039311273912">
        <ele>19.6</ele>
        <time>2018-12-15T12:31:00Z</time>
        <extensions><gpxtpx:TrackPointExtension><gpxtpx:hr>124</gpxtpx:hr></gpxtpx:TrackPointExtension></extensions>
      </trkpt>
      <trkpt lat="59.339248157606" lon="18.039374221981">
        <ele>19.2</ele>
        <time>2018-12-15T12:31:01Z</time>
        <extensions><gpxtpx:TrackPointExtension><gpxtpx:hr>125</gpxtpx:hr></gpxtpx:TrackPointExtension></extensions>
      </trkpt>
      <trkpt lat="59.339029809111" lon="18.039563233826">
        <ele>18.8</ele>
        <time>2018-12-15T12:31:04Z</time>
        <extensions><gpxtpx:TrackPointExtension><gpxtpx:hr>128</gpxtpx:hr></gpxtpx:TrackPointExtension></extensions>
      </trkpt>
      <trkpt lat="59.338820177792" lon="18.039749144368">
        <ele>18</ele>
        <time>2018-12-15T12:31:07Z</time>
        <extensions><gpxtpx:TrackPointExtension><gpxtpx:hr>131</gpxtpx:hr></gpxtpx:TrackPointExtension></extensions>
      </trkpt>
      <trkpt lat="59.338543910368" lon="18.039992722382">
        <ele>17.2</ele>
        <time>2018-12-15T12:31:11Z</time>
        <extensions><gpxtpx:TrackPointExtension><gpxtpx:hr>134</gpxtpx:hr></gpxtpx:TrackPointExtension></extensions>
      </trkpt>
      <trkpt lat="59.338277701224" lon="18.040297320628">
        <ele>16.8</ele>
        <time>2018-12-15T12:31:15Z</time>
        <extensions><gpxtpx:TrackPointExtension><gpxtpx:hr>136</gpxtpx:hr></gpxtpx:TrackPointExtension></extensions>
      </trkpt>
      <trkpt lat="59.337826587366" lon="18.0410255401">
        <ele>16.4</ele>
        <time>2018-12-15T12:31:22Z</time>
        <extensions><gpxtpx:TrackPointExtension><gpxtpx:hr>138</gpxtpx:hr></gpxtpx:TrackPointExtension></extensions>
      </trkpt>
      <trkpt lat="59.337600024609" lon="18.041607830693">
        <ele>15.8</ele>
        <time>2018-12-15T12:31:26Z</time>
        <extensions><gpxtpx:TrackPointExtension><gpxtpx:hr>140</gpxtpx:hr></gpxtpx:TrackPointExtension></extensions>
      </trkpt>
      <trkpt lat="59.337547553915" lon="18.041742276369">
        <ele>15.4</ele>
        <time>2018-12-15T12:31:27Z</time>
        <extensions><gpxtpx:TrackPointExtension><gpxtpx:hr>141</gpxtpx:hr></gpxtpx:TrackPointExtension></extensions>
      </trkpt>
      <trkpt lat="59.33724203366" lon="18.042474183877">
        <ele>14.6</ele>
        <time>2018-12-15T12:31:32Z</time>
        <extensions><gpxtpx:TrackPointExtension><gpxtpx:hr>144</gpxtpx:hr></gpxtpx:TrackPointExtension></extensions>
      </trkpt>
      <trkpt lat="59.337186377844" lon="18.042621956774">
        <ele>14.6</ele>
        <time>2018-12-15T12:31:33Z</time>
        <extensions><gpxtpx:TrackPointExtension><gpxtpx:hr>144</gpxtpx:hr></gpxtpx:TrackPointExtension></extensions>
      </trkpt>
      <trkpt lat="59.337137343729" lon="18.042758414106">
        <ele>14.4</ele>
        <time>2018-12-15T12:31:34Z</time>
        <extensions><gpxtpx:TrackPointExtension><gpxtpx:hr>144</gpxtpx:hr></gpxtpx:TrackPointExtension></extensions>
      </trkpt>
      <trkpt lat="59.336939363251" lon="18.043480430972">
        <ele>14.4</ele>
        <time>2018-12-15T12:31:39Z</time>
        <extensions><gpxtpx:TrackPointExtension><gpxtpx:hr>142</gpxtpx:hr></gpxtpx:TrackPointExtension></extensions>
      </trkpt>
      <trkpt lat="59.336794859295" lon="18.044435883753">
        <ele>14</ele>
        <time>2018-12-15T12:31:45Z</time>
        <extensions><gpxtpx:TrackPointExtension><gpxtpx:hr>139</gpxtpx:hr></gpxtpx:TrackPointExtension></extensions>
      </trkpt>
      <trkpt lat="59.336732581778" lon="18.044740146723">
        <ele>13.4</ele>
        <time>2018-12-15T12:31:47Z</time>
        <extensions><gpxtpx:TrackPointExtension><gpxtpx:hr>140</gpxtpx:hr></gpxtpx:TrackPointExtension></extensions>
      </trkpt>
      <trkpt lat="59.336612636789" lon="18.045383709005">
        <ele>12.4</ele>
        <time>2018-12-15T12:31:51Z</time>
        <extensions><gpxtpx:TrackPointExtension><gpxtpx:hr>140</gpxtpx:hr></gpxtpx:TrackPointExtension></extensions>
      </trkpt>
      <trkpt lat="59.33642731298" lon="18.046513421487">
        <ele>11.4</ele>
        <time>2018-12-15T12:31:58Z</time>
        <extensions><gpxtpx:TrackPointExtension><gpxtpx:hr>140</gpxtpx:hr></gpxtpx:TrackPointExtension></extensions>
      </trkpt>
      <trkpt lat="59.336264536482" lon="18.047473987227">
        <ele>10.2</ele>
        <time>2018-12-15T12:32:04Z</time>
        <extensions><gpxtpx:TrackPointExtension><gpxtpx:hr>139</gpxtpx:hr></gpxtpx:TrackPointExtension></extensions>
      </trkpt>
      <trkpt lat="59.336108130228" lon="18.048490124964">
        <ele>9.4</ele>
        <time>2018-12-15T12:32:11Z</time>
        <extensions><gpxtpx:TrackPointExtension><gpxtpx:hr>137</gpxtpx:hr></gpxtpx:TrackPointExtension></extensions>
      </trkpt>
      <trkpt lat="59.336032274033" lon="18.048922547185">
        <ele>9.2</ele>
        <time>2018-12-15T12:32:14Z</time>
        <extensions><gpxtpx:TrackPointExtension><gpxtpx:hr>137</gpxtpx:hr></gpxtpx:TrackPointExtension></extensions>
      </trkpt>
      <trkpt lat="59.335976031484" lon="18.049219936997">
        <ele>8.8</ele>
        <time>2018-12-15T12:32:16Z</time>
        <extensions><gpxtpx:TrackPointExtension><gpxtpx:hr>137</gpxtpx:hr></gpxtpx:TrackPointExtension></extensions>
      </trkpt>
      <trkpt lat="59.335779727386" lon="18.050282929555">
        <ele>8.4</ele>
        <time>2018-12-15T12:32:23Z</time>
        <extensions><gpxtpx:TrackPointExtension><gpxtpx:hr>138</gpxtpx:hr></gpxtpx:TrackPointExtension></extensions>
      </trkpt>
      <trkpt lat="59.335643856787" lon="18.051047945568">
        <ele>8.2</ele>
        <time>2018-12-15T12:32:28Z</time>
        <extensions><gpxtpx:TrackPointExtension><gpxtpx:hr>140</gpxtpx:hr></gpxtpx:TrackPointExtension></extensions>
      </trkpt>
      <trkpt lat="59.335428609595" lon="18.052052181007">
        <ele>7.8</ele>
        <time>2018-12-15T12:32:35Z</time>
        <extensions><gpxtpx:TrackPointExtension><gpxtpx:hr>142</gpxtpx:hr></gpxtpx:TrackPointExtension></extensions>
      </trkpt>
      <trkpt lat="59.335231970221" lon="18.052957677664">
        <ele>7.6</ele>
        <time>2018-12-15T12:32:42Z</time>
        <extensions><gpxtpx:TrackPointExtension><gpxtpx:hr>139</gpxtpx:hr></gpxtpx:TrackPointExtension></extensions>
      </trkpt>
      <trkpt lat="59.334777838879" lon="18.053570143097">
        <ele>7.2</ele>
        <time>2018-12-15T12:32:50Z</time>
        <extensions><gpxtpx:TrackPointExtension><gpxtpx:hr>138</gpxtpx:hr></gpxtpx:TrackPointExtension></extensions>
      </trkpt>
      <trkpt lat="59.334550857027" lon="18.053805758306">
        <ele>6.8</ele>
        <time>2018-12-15T12:32:53Z</time>
        <extensions><gpxtpx:TrackPointExtension><gpxtpx:hr>139</gpxtpx:hr></gpxtpx:TrackPointExtension></extensions>
      </trkpt>
      <trkpt lat="59.334195632105" lon="18.05419099043">
        <ele>5.6</ele>
        <time>2018-12-15T12:32:58Z</time>
        <extensions><gpxtpx:TrackPointExtension><gpxtpx:hr>140</gpxtpx:hr></gpxtpx:TrackPointExtension></extensions>
      </trkpt>
      <trkpt lat="59.333659861057" lon="18.054694491163">
        <ele>4.8</ele>
        <time>2018-12-15T12:33:06Z</time>
        <extensions><gpxtpx:TrackPointExtension><gpxtpx:hr>142</gpxtpx:hr></gpxtpx:TrackPointExtension></extensions>
      </trkpt>
      <trkpt lat="59.333256356391" lon="18.055070754654">
        <ele>4.6</ele>
        <time>2018-12-15T12:33:12Z</time>
        <extensions><gpxtpx:TrackPointExtension><gpxtpx:hr>143</gpxtpx:hr></gpxtpx:TrackPointExtension></extensions>
      </trkpt>
      <trkpt lat="59.333187121897" lon="18.055120878416">
        <ele>4.6</ele>
        <time>2018-12-15T12:33:13Z</time>
        <extensions><gpxtpx:TrackPointExtension><gpxtpx:hr>143</gpxtpx:hr></gpxtpx:TrackPointExtension></extensions>
      </trkpt>
      <trkpt lat="59.333003977382" lon="18.055318691256">
        <ele>4.6</ele>
        <time>2018-12-15T12:33:16Z</time>
        <extensions><gpxtpx:TrackPointExtension><gpxtpx:hr>144</gpxtpx:hr></gpxtpx:TrackPointExtension></extensions>
      </trkpt>
      <trkpt lat="59.332833405717" lon="18.055434277657">
        <ele>4.6</ele>
        <time>2018-12-15T12:33:19Z</time>
        <extensions><gpxtpx:TrackPointExtension><gpxtpx:hr>143</gpxtpx:hr></gpxtpx:TrackPointExtension></extensions>
      </trkpt>
      <trkpt lat="59.332643471863" lon="18.055766452354">
        <ele>4.6</ele>
        <time>2018-12-15T12:33:23Z</time>
        <extensions><gpxtpx:TrackPointExtension><gpxtpx:hr>142</gpxtpx:hr></gpxtpx:TrackPointExtension></extensions>
      </trkpt>
      <trkpt lat="59.332427637938" lon="18.056001816106">
        <ele>5.8</ele>
        <time>2018-12-15T12:33:27Z</time>
        <extensions><gpxtpx:TrackPointExtension><gpxtpx:hr>141</gpxtpx:hr></gpxtpx:TrackPointExtension></extensions>
      </trkpt>
      <trkpt lat="59.332373742321" lon="18.056062584881">
        <ele>6</ele>
        <time>2018-12-15T12:33:28Z</time>
        <extensions><gpxtpx:TrackPointExtension><gpxtpx:hr>141</gpxtpx:hr></gpxtpx:TrackPointExtension></extensions>
      </trkpt>
      <trkpt lat="59.33227240515" lon="18.056199209851">
        <ele>6.4</ele>
        <time>2018-12-15T12:33:31Z</time>
        <extensions><gpxtpx:TrackPointExtension><gpxtpx:hr>141</gpxtpx:hr></gpxtpx:TrackPointExtension></extensions>
      </trkpt>
      <trkpt lat="59.332254886979" lon="18.05655552442">
        <ele>6.8</ele>
        <time>2018-12-15T12:33:35Z</time>
        <extensions><gpxtpx:TrackPointExtension><gpxtpx:hr>140</gpxtpx:hr></gpxtpx:TrackPointExtension></extensions>
      </trkpt>
      <trkpt lat="59.332291180606" lon="18.056735399994">
        <ele>7.2</ele>
        <time>2018-12-15T12:33:37Z</time>
        <extensions><gpxtpx:TrackPointExtension><gpxtpx:hr>139</gpxtpx:hr></gpxtpx:TrackPointExtension></extensions>
      </trkpt>
      <trkpt lat="59.332371479208" lon="18.057044105371">
        <ele>7.4</ele>
        <time>2018-12-15T12:33:42Z</time>
        <extensions><gpxtpx:TrackPointExtension><gpxtpx:hr>136</gpxtpx:hr></gpxtpx:TrackPointExtension></extensions>
      </trkpt>
      <trkpt lat="59.332397714555" lon="18.057218867986">
        <ele>7.6</ele>
        <time>2018-12-15T12:33:46Z</time>
        <extensions><gpxtpx:TrackPointExtension><gpxtpx:hr>134</gpxtpx:hr></gpxtpx:TrackPointExtension></extensions>
      </trkpt>
      <trkpt lat="59.332288079303" lon="18.057444089639">
        <ele>7.8</ele>
        <time>2018-12-15T12:33:51Z</time>
        <extensions><gpxtpx:TrackPointExtension><gpxtpx:hr>134</gpxtpx:hr></gpxtpx:TrackPointExtension></extensions>
      </trkpt>
      <trkpt lat="59.332109628652" lon="18.057670484758">
        <ele>7.6</ele>
        <time>2018-12-15T12:33:55Z</time>
        <extensions><gpxtpx:TrackPointExtension><gpxtpx:hr>135</gpxtpx:hr></gpxtpx:TrackPointExtension></extensions>
      </trkpt>
      <trkpt lat="59.331796732325" lon="18.058047418801">
        <ele>7.8</ele>
        <time>2018-12-15T12:34:01Z</time>
        <extensions><gpxtpx:TrackPointExtension><gpxtpx:hr>138</gpxtpx:hr></gpxtpx:TrackPointExtension></extensions>
      </trkpt>
      <trkpt lat="59.331312593781" lon="18.058606742988">
        <ele>7.8</ele>
        <time>2018-12-15T12:34:09Z</time>
        <extensions><gpxtpx:TrackPointExtension><gpxtpx:hr>138</gpxtpx:hr></gpxtpx:TrackPointExtension></extensions>
      </trkpt>
      <trkpt lat="59.331052922519" lon="18.058797850308">
        <ele>7.8</ele>
        <time>2018-12-15T12:34:13Z</time>
        <extensions><gpxtpx:TrackPointExtension><gpxtpx:hr>136</gpxtpx:hr></gpxtpx:TrackPointExtension></extensions>
      </trkpt>
      <trkpt lat="59.330824515744" lon="18.058922992075">
        <ele>8.2</ele>
        <time>2018-12-15T12:34:17Z</time>
        <extensions><gpxtpx:TrackPointExtension><gpxtpx:hr>134</gpxtpx:hr></gpxtpx:TrackPointExtension></extensions>
      </trkpt>
      <trkpt lat="59.33068235872" lon="18.059000776107">
        <ele>8.2</ele>
        <time>2018-12-15T12:34:21Z</time>
        <extensions><gpxtpx:TrackPointExtension><gpxtpx:hr>131</gpxtpx:hr></gpxtpx:TrackPointExtension></extensions>
      </trkpt>
      <trkpt lat="59.330631899682" lon="18.059204456277">
        <ele>8.2</ele>
        <time>2018-12-15T12:34:24Z</time>
        <extensions><gpxtpx:TrackPointExtension><gpxtpx:hr>131</gpxtpx:hr></gpxtpx:TrackPointExtension></extensions>
      </trkpt>
      <trkpt lat="59.330329899825" lon="18.059521292097">
        <ele>8.4</ele>
        <time>2018-12-15T12:34:32Z</time>
        <extensions><gpxtpx:TrackPointExtension><gpxtpx:hr>128</gpxtpx:hr></gpxtpx:TrackPointExtension></extensions>
      </trkpt>
      <trkpt lat="59.33016687187" lon="18.059679542369">
        <ele>8.4</ele>
        <time>2018-12-15T12:34:35Z</time>
        <extensions><gpxtpx:TrackPointExtension><gpxtpx:hr>125</gpxtpx:hr></gpxtpx:TrackPointExtension></extensions>
      </trkpt>
      <trkpt lat="59.329952881963" lon="18.059864530902">
        <ele>7.4</ele>
        <time>2018-12-15T12:34:39Z</time>
        <extensions><gpxtpx:TrackPointExtension><gpxtpx:hr>121</gpxtpx:hr></gpxtpx:TrackPointExtension></extensions>
      </trkpt>
      <trkpt lat="59.329863782366" lon="18.059929993541">
        <ele>6.8</ele>
        <time>2018-12-15T12:34:41Z</time>
        <extensions><gpxtpx:TrackPointExtension><gpxtpx:hr>117</gpxtpx:hr></gpxtpx:TrackPointExtension></extensions>
      </trkpt>
      <trkpt lat="59.329836960286" lon="18.059941644382">
        <ele>6.8</ele>
        <time>2018-12-15T12:34:42Z</time>
        <extensions><gpxtpx:TrackPointExtension><gpxtpx:hr>114</gpxtpx:hr></gpxtpx:TrackPointExtension></extensions>
      </trkpt>
      <trkpt lat="59.329733443821" lon="18.060014650731">
        <ele>6.4</ele>
        <time>2018-12-15T12:34:45Z</time>
        <extensions><gpxtpx:TrackPointExtension><gpxtpx:hr>112</gpxtpx:hr></gpxtpx:TrackPointExtension></extensions>
      </trkpt>
      <trkpt lat="59.329661694757" lon="18.060067708158">
        <ele>6.4</ele>
        <time>2018-12-15T12:34:47Z</time>
        <extensions><gpxtpx:TrackPointExtension><gpxtpx:hr>114</gpxtpx:hr></gpxtpx:TrackPointExtension></extensions>
      </trkpt>
      <trkpt lat="59.329319377961" lon="18.060449168427">
        <ele>6</ele>
        <time>2018-12-15T12:34:55Z</time>
        <extensions><gpxtpx:TrackPointExtension><gpxtpx:hr>117</gpxtpx:hr></gpxtpx:TrackPointExtension></extensions>
      </trkpt>
      <trkpt lat="59.329169928684" lon="18.060590403442">
        <ele>5.8</ele>
        <time>2018-12-15T12:34:58Z</time>
        <extensions><gpxtpx:TrackPointExtension><gpxtpx:hr>120</gpxtpx:hr></gpxtpx:TrackPointExtension></extensions>
      </trkpt>
      <trkpt lat="59.328918639322" lon="18.060859462432">
        <ele>5.8</ele>
        <time>2018-12-15T12:35:03Z</time>
        <extensions><gpxtpx:TrackPointExtension><gpxtpx:hr>117</gpxtpx:hr></gpxtpx:TrackPointExtension></extensions>
      </trkpt>
      <trkpt lat="59.328862229135" lon="18.060879495173">
        <ele>5.6</ele>
        <time>2018-12-15T12:35:04Z</time>
        <extensions><gpxtpx:TrackPointExtension><gpxtpx:hr>117</gpxtpx:hr></gpxtpx:TrackPointExtension></extensions>
      </trkpt>
      <trkpt lat="59.328725771803" lon="18.060892822394">
        <ele>5.6</ele>
        <time>2018-12-15T12:35:07Z</time>
        <extensions><gpxtpx:TrackPointExtension><gpxtpx:hr>114</gpxtpx:hr></gpxtpx:TrackPointExtension></extensions>
      </trkpt>
      <trkpt lat="59.328631475428" lon="18.060982676362">
        <ele>5.6</ele>
        <time>2018-12-15T12:35:10Z</time>
        <extensions><gpxtpx:TrackPointExtension><gpxtpx:hr>112</gpxtpx:hr></gpxtpx:TrackPointExtension></extensions>
      </trkpt>
      <trkpt lat="59.328606497366" lon="18.061000278352">
        <ele>5.6</ele>
        <time>2018-12-15T12:35:11Z</time>
        <extensions><gpxtpx:TrackPointExtension><gpxtpx:hr>113</gpxtpx:hr></gpxtpx:TrackPointExtension></extensions>
      </trkpt>
      <trkpt lat="59.328572466852" lon="18.061016287781">
        <ele>5.6</ele>
        <time>2018-12-15T12:35:14Z</time>
        <extensions><gpxtpx:TrackPointExtension><gpxtpx:hr>115</gpxtpx:hr></gpxtpx:TrackPointExtension></extensions>
      </trkpt>
      <trkpt lat="59.328527958963" lon="18.061081498963">
        <ele>5.8</ele>
        <time>2018-12-15T12:35:25Z</time>
        <extensions><gpxtpx:TrackPointExtension><gpxtpx:hr>116</gpxtpx:hr></gpxtpx:TrackPointExtension></extensions>
      </trkpt>
      <trkpt lat="59.328412875476" lon="18.061359778043">
        <ele>5.8</ele>
        <time>2018-12-15T12:35:30Z</time>
        <extensions><gpxtpx:TrackPointExtension><gpxtpx:hr>120</gpxtpx:hr></gpxtpx:TrackPointExtension></extensions>
      </trkpt>
      <trkpt lat="59.328361997343" lon="18.061514005003">
        <ele>5.8</ele>
        <time>2018-12-15T12:35:32Z</time>
        <extensions><gpxtpx:TrackPointExtension><gpxtpx:hr>122</gpxtpx:hr></gpxtpx:TrackPointExtension></extensions>
      </trkpt>
      <trkpt lat="59.32829770817" lon="18.06211356231">
        <ele>5.6</ele>
        <time>2018-12-15T12:35:38Z</time>
        <extensions><gpxtpx:TrackPointExtension><gpxtpx:hr>126</gpxtpx:hr></gpxtpx:TrackPointExtension></extensions>
      </trkpt>
      <trkpt lat="59.328257055955" lon="18.062423022058">
        <ele>5.6</ele>
        <time>2018-12-15T12:35:41Z</time>
        <extensions><gpxtpx:TrackPointExtension><gpxtpx:hr>130</gpxtpx:hr></gpxtpx:TrackPointExtension></extensions>
      </trkpt>
      <trkpt lat="59.328191677135" lon="18.062718232576">
        <ele>5.6</ele>
        <time>2018-12-15T12:35:44Z</time>
        <extensions><gpxtpx:TrackPointExtension><gpxtpx:hr>134</gpxtpx:hr></gpxtpx:TrackPointExtension></extensions>
      </trkpt>
      <trkpt lat="59.32816443596" lon="18.062812109856">
        <ele>5.8</ele>
        <time>2018-12-15T12:35:45Z</time>
        <extensions><gpxtpx:TrackPointExtension><gpxtpx:hr>135</gpxtpx:hr></gpxtpx:TrackPointExtension></extensions>
      </trkpt>
      <trkpt lat="59.328013477941" lon="18.063127856029">
        <ele>5.8</ele>
        <time>2018-12-15T12:35:49Z</time>
        <extensions><gpxtpx:TrackPointExtension><gpxtpx:hr>138</gpxtpx:hr></gpxtpx:TrackPointExtension></extensions>
      </trkpt>
      <trkpt lat="59.327966455482" lon="18.063201952025">
        <ele>6</ele>
        <time>2018-12-15T12:35:50Z</time>
        <extensions><gpxtpx:TrackPointExtension><gpxtpx:hr>139</gpxtpx:hr></gpxtpx:TrackPointExtension></extensions>
      </trkpt>
      <trkpt lat="59.327785909356" lon="18.063495905258">
        <ele>7.4</ele>
        <time>2018-12-15T12:35:54Z</time>
        <extensions><gpxtpx:TrackPointExtension><gpxtpx:hr>142</gpxtpx:hr></gpxtpx:TrackPointExtension></extensions>
      </trkpt>
      <trkpt lat="59.327600417909" lon="18.063787763016">
        <ele>8</ele>
        <time>2018-12-15T12:35:58Z</time>
        <extensions><gpxtpx:TrackPointExtension><gpxtpx:hr>145</gpxtpx:hr></gpxtpx:TrackPointExtension></extensions>
      </trkpt>
      <trkpt lat="59.327220047287" lon="18.064404251761">
        <ele>8.8</ele>
        <time>2018-12-15T12:36:06Z</time>
        <extensions><gpxtpx:TrackPointExtension><gpxtpx:hr>145</gpxtpx:hr></gpxtpx:TrackPointExtension></extensions>
      </trkpt>
      <trkpt lat="59.326764742479" lon="18.065103302221">
        <ele>8.8</ele>
        <time>2018-12-15T12:36:16Z</time>
        <extensions><gpxtpx:TrackPointExtension><gpxtpx:hr>143</gpxtpx:hr></gpxtpx:TrackPointExtension></extensions>
      </trkpt>
      <trkpt lat="59.326724593178" lon="18.065171447068">
        <ele>8.8</ele>
        <time>2018-12-15T12:36:17Z</time>
        <extensions><gpxtpx:TrackPointExtension><gpxtpx:hr>143</gpxtpx:hr></gpxtpx:TrackPointExtension></extensions>
      </trkpt>
      <trkpt lat="59.326599954325" lon="18.065297510844">
        <ele>8.6</ele>
        <time>2018-12-15T12:36:20Z</time>
        <extensions><gpxtpx:TrackPointExtension><gpxtpx:hr>139</gpxtpx:hr></gpxtpx:TrackPointExtension></extensions>
      </trkpt>
      <trkpt lat="59.326462742622" lon="18.065006156">
        <ele>8.4</ele>
        <time>2018-12-15T12:36:24Z</time>
        <extensions><gpxtpx:TrackPointExtension><gpxtpx:hr>136</gpxtpx:hr></gpxtpx:TrackPointExtension></extensions>
      </trkpt>
      <trkpt lat="59.326346653307" lon="18.064730307671">
        <ele>8.2</ele>
        <time>2018-12-15T12:36:27Z</time>
        <extensions><gpxtpx:TrackPointExtension><gpxtpx:hr>133</gpxtpx:hr></gpxtpx:TrackPointExtension></extensions>
      </trkpt>
      <trkpt lat="59.326309605309" lon="18.064648919422">
        <ele>8</ele>
        <time>2018-12-15T12:36:28Z</time>
        <extensions><gpxtpx:TrackPointExtension><gpxtpx:hr>132</gpxtpx:hr></gpxtpx:TrackPointExtension></extensions>
      </trkpt>
      <trkpt lat="59.326186978112" lon="18.064606255551">
        <ele>7.6</ele>
        <time>2018-12-15T12:36:31Z</time>
        <extensions><gpxtpx:TrackPointExtension><gpxtpx:hr>129</gpxtpx:hr></gpxtpx:TrackPointExtension></extensions>
      </trkpt>
      <trkpt lat="59.326109696994" lon="18.064714801156">
        <ele>6.8</ele>
        <time>2018-12-15T12:36:33Z</time>
        <extensions><gpxtpx:TrackPointExtension><gpxtpx:hr>128</gpxtpx:hr></gpxtpx:TrackPointExtension></extensions>
      </trkpt>
      <trkpt lat="59.326064937648" lon="18.064790573532">
        <ele>6.6</ele>
        <time>2018-12-15T12:36:34Z</time>
        <extensions><gpxtpx:TrackPointExtension><gpxtpx:hr>128</gpxtpx:hr></gpxtpx:TrackPointExtension></extensions>
      </trkpt>
      <trkpt lat="59.325827394602" lon="18.065182427357">
        <ele>6.4</ele>
        <time>2018-12-15T12:36:39Z</time>
        <extensions><gpxtpx:TrackPointExtension><gpxtpx:hr>131</gpxtpx:hr></gpxtpx:TrackPointExtension></extensions>
      </trkpt>
      <trkpt lat="59.325379549685" lon="18.065915089236">
        <ele>6</ele>
        <time>2018-12-15T12:36:48Z</time>
        <extensions><gpxtpx:TrackPointExtension><gpxtpx:hr>131</gpxtpx:hr></gpxtpx:TrackPointExtension></extensions>
      </trkpt>
      <trkpt lat="59.325212414599" lon="18.066149195703">
        <ele>5.4</ele>
        <time>2018-12-15T12:36:51Z</time>
        <extensions><gpxtpx:TrackPointExtension><gpxtpx:hr>131</gpxtpx:hr></gpxtpx:TrackPointExtension></extensions>
      </trkpt>
      <trkpt lat="59.324821063688" lon="18.066502911883">
        <ele>4.4</ele>
        <time>2018-12-15T12:36:57Z</time>
        <extensions><gpxtpx:TrackPointExtension><gpxtpx:hr>131</gpxtpx:hr></gpxtpx:TrackPointExtension></extensions>
      </trkpt>
      <trkpt lat="59.324750404271" lon="18.066545827211">
        <ele>4.4</ele>
        <time>2018-12-15T12:36:58Z</time>
        <extensions><gpxtpx:TrackPointExtension><gpxtpx:hr>131</gpxtpx:hr></gpxtpx:TrackPointExtension></extensions>
      </trkpt>
      <trkpt lat="59.324462569825" lon="18.06658698234">
        <ele>4.2</ele>
        <time>2018-12-15T12:37:02Z</time>
        <extensions><gpxtpx:TrackPointExtension><gpxtpx:hr>132</gpxtpx:hr></gpxtpx:TrackPointExtension></extensions>
      </trkpt>
      <trkpt lat="59.32428529264" lon="18.066562507192">
        <ele>4.2</ele>
        <time>2018-12-15T12:37:05Z</time>
        <extensions><gpxtpx:TrackPointExtension><gpxtpx:hr>132</gpxtpx:hr></gpxtpx:TrackPointExtension></extensions>
      </trkpt>
      <trkpt lat="59.324068369068" lon="18.066663089992">
        <ele>4.4</ele>
        <time>2018-12-15T12:37:09Z</time>
        <extensions><gpxtpx:TrackPointExtension><gpxtpx:hr>133</gpxtpx:hr></gpxtpx:TrackPointExtension></extensions>
      </trkpt>
      <trkpt lat="59.323853457152" lon="18.066869955284">
        <ele>5.8</ele>
        <time>2018-12-15T12:37:13Z</time>
        <extensions><gpxtpx:TrackPointExtension><gpxtpx:hr>135</gpxtpx:hr></gpxtpx:TrackPointExtension></extensions>
      </trkpt>
      <trkpt lat="59.323673749216" lon="18.067038012379">
        <ele>6.4</ele>
        <time>2018-12-15T12:37:16Z</time>
        <extensions><gpxtpx:TrackPointExtension><gpxtpx:hr>138</gpxtpx:hr></gpxtpx:TrackPointExtension></extensions>
      </trkpt>
      <trkpt lat="59.323033623513" lon="18.067853235973">
        <ele>5.8</ele>
        <time>2018-12-15T12:37:27Z</time>
        <extensions><gpxtpx:TrackPointExtension><gpxtpx:hr>140</gpxtpx:hr></gpxtpx:TrackPointExtension></extensions>
      </trkpt>
      <trkpt lat="59.32284947317" lon="18.068279874683">
        <ele>4.6</ele>
        <time>2018-12-15T12:37:31Z</time>
        <extensions><gpxtpx:TrackPointExtension><gpxtpx:hr>140</gpxtpx:hr></gpxtpx:TrackPointExtension></extensions>
      </trkpt>
      <trkpt lat="59.322505647632" lon="18.069147820428">
        <ele>4.6</ele>
        <time>2018-12-15T12:37:39Z</time>
        <extensions><gpxtpx:TrackPointExtension><gpxtpx:hr>140</gpxtpx:hr></gpxtpx:TrackPointExtension></extensions>
      </trkpt>
      <trkpt lat="59.322411602714" lon="18.06952316191">
        <ele>4.8</ele>
        <time>2018-12-15T12:37:42Z</time>
        <extensions><gpxtpx:TrackPointExtension><gpxtpx:hr>141</gpxtpx:hr></gpxtpx:TrackPointExtension></extensions>
      </trkpt>
      <trkpt lat="59.322459547182" lon="18.070394292777">
        <ele>4.8</ele>
        <time>2018-12-15T12:37:48Z</time>
        <extensions><gpxtpx:TrackPointExtension><gpxtpx:hr>143</gpxtpx:hr></gpxtpx:TrackPointExtension></extensions>
      </trkpt>
      <trkpt lat="59.322460133915" lon="18.071204403412">
        <ele>4.6</ele>
        <time>2018-12-15T12:37:54Z</time>
        <extensions><gpxtpx:TrackPointExtension><gpxtpx:hr>145</gpxtpx:hr></gpxtpx:TrackPointExtension></extensions>
      </trkpt>
      <trkpt lat="59.322378075114" lon="18.071720728452">
        <ele>4.4</ele>
        <time>2018-12-15T12:37:58Z</time>
        <extensions><gpxtpx:TrackPointExtension><gpxtpx:hr>146</gpxtpx:hr></gpxtpx:TrackPointExtension></extensions>
      </trkpt>
      <trkpt lat="59.322247233655" lon="18.072139404357">
        <ele>4.4</ele>
        <time>2018-12-15T12:38:02Z</time>
        <extensions><gpxtpx:TrackPointExtension><gpxtpx:hr>145</gpxtpx:hr></gpxtpx:TrackPointExtension></extensions>
      </trkpt>
      <trkpt lat="59.321870215793" lon="18.072288769815">
        <ele>5.8</ele>
        <time>2018-12-15T12:38:10Z</time>
        <extensions><gpxtpx:TrackPointExtension><gpxtpx:hr>142</gpxtpx:hr></gpxtpx:TrackPointExtension></extensions>
      </trkpt>
      <trkpt lat="59.321828976845" lon="18.072257170052">
        <ele>6</ele>
        <time>2018-12-15T12:38:11Z</time>
        <extensions><gpxtpx:TrackPointExtension><gpxtpx:hr>142</gpxtpx:hr></gpxtpx:TrackPointExtension></extensions>
      </trkpt>
      <trkpt lat="59.321684808165" lon="18.072203777349">
        <ele>7</ele>
        <time>2018-12-15T12:38:15Z</time>
        <extensions><gpxtpx:TrackPointExtension><gpxtpx:hr>141</gpxtpx:hr></gpxtpx:TrackPointExtension></extensions>
      </trkpt>
      <trkpt lat="59.32160308464" lon="18.072179302201">
        <ele>7.8</ele>
        <time>2018-12-15T12:38:18Z</time>
        <extensions><gpxtpx:TrackPointExtension><gpxtpx:hr>141</gpxtpx:hr></gpxtpx:TrackPointExtension></extensions>
      </trkpt>
      <trkpt lat="59.321579028587" lon="18.072138566167">
        <ele>8.4</ele>
        <time>2018-12-15T12:38:19Z</time>
        <extensions><gpxtpx:TrackPointExtension><gpxtpx:hr>140</gpxtpx:hr></gpxtpx:TrackPointExtension></extensions>
      </trkpt>
      <trkpt lat="59.32147903252" lon="18.072030523476">
        <ele>9.6</ele>
        <time>2018-12-15T12:38:22Z</time>
        <extensions><gpxtpx:TrackPointExtension><gpxtpx:hr>140</gpxtpx:hr></gpxtpx:TrackPointExtension></extensions>
      </trkpt>
      <trkpt lat="59.321267892459" lon="18.071838075052">
        <ele>10.6</ele>
        <time>2018-12-15T12:38:27Z</time>
        <extensions><gpxtpx:TrackPointExtension><gpxtpx:hr>141</gpxtpx:hr></gpxtpx:TrackPointExtension></extensions>
      </trkpt>
      <trkpt lat="59.321185749839" lon="18.071738581899">
        <ele>10.6</ele>
        <time>2018-12-15T12:38:29Z</time>
        <extensions><gpxtpx:TrackPointExtension><gpxtpx:hr>141</gpxtpx:hr></gpxtpx:TrackPointExtension></extensions>
      </trkpt>
      <trkpt lat="59.321056500941" lon="18.07173849808">
        <ele>10.2</ele>
        <time>2018-12-15T12:38:33Z</time>
        <extensions><gpxtpx:TrackPointExtension><gpxtpx:hr>138</gpxtpx:hr></gpxtpx:TrackPointExtension></extensions>
      </trkpt>
      <trkpt lat="59.32102138078" lon="18.071774037336">
        <ele>9.6</ele>
        <time>2018-12-15T12:38:34Z</time>
        <extensions><gpxtpx:TrackPointExtension><gpxtpx:hr>137</gpxtpx:hr></gpxtpx:TrackPointExtension></extensions>
      </trkpt>
      <trkpt lat="59.320983746049" lon="18.071807648755">
        <ele>9</ele>
        <time>2018-12-15T12:38:35Z</time>
        <extensions><gpxtpx:TrackPointExtension><gpxtpx:hr>134</gpxtpx:hr></gpxtpx:TrackPointExtension></extensions>
      </trkpt>
      <trkpt lat="59.320943177653" lon="18.071822065623">
        <ele>8.6</ele>
        <time>2018-12-15T12:38:36Z</time>
        <extensions><gpxtpx:TrackPointExtension><gpxtpx:hr>132</gpxtpx:hr></gpxtpx:TrackPointExtension></extensions>
      </trkpt>
      <trkpt lat="59.320904117999" lon="18.071885851882">
        <ele>8.2</ele>
        <time>2018-12-15T12:38:38Z</time>
        <extensions><gpxtpx:TrackPointExtension><gpxtpx:hr>128</gpxtpx:hr></gpxtpx:TrackPointExtension></extensions>
      </trkpt>
      <trkpt lat="59.320883582344" lon="18.071890713384">
        <ele>8</ele>
        <time>2018-12-15T12:38:40Z</time>
        <extensions><gpxtpx:TrackPointExtension><gpxtpx:hr>125</gpxtpx:hr></gpxtpx:TrackPointExtension></extensions>
      </trkpt>
      <trkpt lat="59.320880648679" lon="18.07185500649">
        <ele>7.8</ele>
        <time>2018-12-15T12:38:42Z</time>
        <extensions><gpxtpx:TrackPointExtension><gpxtpx:hr>120</gpxtpx:hr></gpxtpx:TrackPointExtension></extensions>
      </trkpt>
      <trkpt lat="59.320878720842" lon="18.071821311252">
        <ele>7.4</ele>
        <time>2018-12-15T12:38:43Z</time>
        <extensions><gpxtpx:TrackPointExtension><gpxtpx:hr>119</gpxtpx:hr></gpxtpx:TrackPointExtension></extensions>
      </trkpt>
      <trkpt lat="59.320882325059" lon="18.071730870551">
        <ele>7</ele>
        <time>2018-12-15T12:38:45Z</time>
        <extensions><gpxtpx:TrackPointExtension><gpxtpx:hr>120</gpxtpx:hr></gpxtpx:TrackPointExtension></extensions>
      </trkpt>
      <trkpt lat="59.320919205419" lon="18.071622324946">
        <ele>6.2</ele>
        <time>2018-12-15T12:38:48Z</time>
        <extensions><gpxtpx:TrackPointExtension><gpxtpx:hr>124</gpxtpx:hr></gpxtpx:TrackPointExtension></extensions>
      </trkpt>
      <trkpt lat="59.320785933209" lon="18.071669682681">
        <ele>6</ele>
        <time>2018-12-15T12:38:50Z</time>
        <extensions><gpxtpx:TrackPointExtension><gpxtpx:hr>127</gpxtpx:hr></gpxtpx:TrackPointExtension></extensions>
      </trkpt>
      <trkpt lat="59.320919792152" lon="18.070557404551">
        <ele>5.6</ele>
        <time>2018-12-15T12:39:00Z</time>
        <extensions><gpxtpx:TrackPointExtension><gpxtpx:hr>124</gpxtpx:hr></gpxtpx:TrackPointExtension></extensions>
      </trkpt>
      <trkpt lat="59.320953152114" lon="18.069967821705">
        <ele>5.6</ele>
        <time>2018-12-15T12:39:04Z</time>
        <extensions><gpxtpx:TrackPointExtension><gpxtpx:hr>125</gpxtpx:hr></gpxtpx:TrackPointExtension></extensions>
      </trkpt>
      <trkpt lat="59.321077120415" lon="18.068991414174">
        <ele>5.4</ele>
        <time>2018-12-15T12:39:13Z</time>
        <extensions><gpxtpx:TrackPointExtension><gpxtpx:hr>126</gpxtpx:hr></gpxtpx:TrackPointExtension></extensions>
      </trkpt>
      <trkpt lat="59.321050298335" lon="18.06864306241">
        <ele>5.4</ele>
        <time>2018-12-15T12:39:16Z</time>
        <extensions><gpxtpx:TrackPointExtension><gpxtpx:hr>127</gpxtpx:hr></gpxtpx:TrackPointExtension></extensions>
      </trkpt>
      <trkpt lat="59.321051807077" lon="18.068427815218">
        <ele>5.2</ele>
        <time>2018-12-15T12:39:18Z</time>
        <extensions><gpxtpx:TrackPointExtension><gpxtpx:hr>127</gpxtpx:hr></gpxtpx:TrackPointExtension></extensions>
      </trkpt>
      <trkpt lat="59.321041664978" lon="18.068097735996">
        <ele>5.2</ele>
        <time>2018-12-15T12:39:22Z</time>
        <extensions><gpxtpx:TrackPointExtension><gpxtpx:hr>128</gpxtpx:hr></gpxtpx:TrackPointExtension></extensions>
      </trkpt>
      <trkpt lat="59.321024398264" lon="18.067901515717">
        <ele>5.2</ele>
        <time>2018-12-15T12:39:24Z</time>
        <extensions><gpxtpx:TrackPointExtension><gpxtpx:hr>130</gpxtpx:hr></gpxtpx:TrackPointExtension></extensions>
      </trkpt>
      <trkpt lat="59.321040156236" lon="18.06681832278">
        <ele>4.6</ele>
        <time>2018-12-15T12:39:32Z</time>
        <extensions><gpxtpx:TrackPointExtension><gpxtpx:hr>132</gpxtpx:hr></gpxtpx:TrackPointExtension></extensions>
      </trkpt>
      <trkpt lat="59.3210951415" lon="18.066024389212">
        <ele>4.2</ele>
        <time>2018-12-15T12:39:38Z</time>
        <extensions><gpxtpx:TrackPointExtension><gpxtpx:hr>134</gpxtpx:hr></gpxtpx:TrackPointExtension></extensions>
      </trkpt>
      <trkpt lat="59.321139817027" lon="18.065355765049">
        <ele>4.2</ele>
        <time>2018-12-15T12:39:43Z</time>
        <extensions><gpxtpx:TrackPointExtension><gpxtpx:hr>137</gpxtpx:hr></gpxtpx:TrackPointExtension></extensions>
      </trkpt>
      <trkpt lat="59.321202346001" lon="18.064278942356">
        <ele>4.4</ele>
        <time>2018-12-15T12:39:51Z</time>
        <extensions><gpxtpx:TrackPointExtension><gpxtpx:hr>139</gpxtpx:hr></gpxtpx:TrackPointExtension></extensions>
      </trkpt>
      <trkpt lat="59.321257247446" lon="18.063192396659">
        <ele>4.6</ele>
        <time>2018-12-15T12:39:59Z</time>
        <extensions><gpxtpx:TrackPointExtension><gpxtpx:hr>140</gpxtpx:hr></gpxtpx:TrackPointExtension></extensions>
      </trkpt>
      <trkpt lat="59.321301671516" lon="18.062141893132">
        <ele>4.4</ele>
        <time>2018-12-15T12:40:07Z</time>
        <extensions><gpxtpx:TrackPointExtension><gpxtpx:hr>140</gpxtpx:hr></gpxtpx:TrackPointExtension></extensions>
      </trkpt>
      <trkpt lat="59.321309885778" lon="18.060973540091">
        <ele>4.4</ele>
        <time>2018-12-15T12:40:16Z</time>
        <extensions><gpxtpx:TrackPointExtension><gpxtpx:hr>140</gpxtpx:hr></gpxtpx:TrackPointExtension></extensions>
      </trkpt>
      <trkpt lat="59.321300414231" lon="18.059886575299">
        <ele>4.8</ele>
        <time>2018-12-15T12:40:24Z</time>
        <extensions><gpxtpx:TrackPointExtension><gpxtpx:hr>140</gpxtpx:hr></gpxtpx:TrackPointExtension></extensions>
      </trkpt>
      <trkpt lat="59.321292702883" lon="18.058815619936">
        <ele>4.6</ele>
        <time>2018-12-15T12:40:32Z</time>
        <extensions><gpxtpx:TrackPointExtension><gpxtpx:hr>142</gpxtpx:hr></gpxtpx:TrackPointExtension></extensions>
      </trkpt>
      <trkpt lat="59.321264120604" lon="18.057649949103">
        <ele>4.6</ele>
        <time>2018-12-15T12:40:41Z</time>
        <extensions><gpxtpx:TrackPointExtension><gpxtpx:hr>140</gpxtpx:hr></gpxtpx:TrackPointExtension></extensions>
      </trkpt>
      <trkpt lat="59.321258504731" lon="18.056861379951">
        <ele>4.6</ele>
        <time>2018-12-15T12:40:47Z</time>
        <extensions><gpxtpx:TrackPointExtension><gpxtpx:hr>143</gpxtpx:hr></gpxtpx:TrackPointExtension></extensions>
      </trkpt>
      <trkpt lat="59.321261857491" lon="18.056215638375">
        <ele>4.8</ele>
        <time>2018-12-15T12:40:52Z</time>
        <extensions><gpxtpx:TrackPointExtension><gpxtpx:hr>146</gpxtpx:hr></gpxtpx:TrackPointExtension></extensions>
      </trkpt>
      <trkpt lat="59.321268060097" lon="18.055320535274">
        <ele>5</ele>
        <time>2018-12-15T12:40:59Z</time>
        <extensions><gpxtpx:TrackPointExtension><gpxtpx:hr>147</gpxtpx:hr></gpxtpx:TrackPointExtension></extensions>
      </trkpt>
      <trkpt lat="59.321223133113" lon="18.054303140252">
        <ele>5</ele>
        <time>2018-12-15T12:41:07Z</time>
        <extensions><gpxtpx:TrackPointExtension><gpxtpx:hr>144</gpxtpx:hr></gpxtpx:TrackPointExtension></extensions>
      </trkpt>
      <trkpt lat="59.321213913023" lon="18.053146689509">
        <ele>4.6</ele>
        <time>2018-12-15T12:41:16Z</time>
        <extensions><gpxtpx:TrackPointExtension><gpxtpx:hr>144</gpxtpx:hr></gpxtpx:TrackPointExtension></extensions>
      </trkpt>
      <trkpt lat="59.321201004897" lon="18.051987221282">
        <ele>4.4</ele>
        <time>2018-12-15T12:41:25Z</time>
        <extensions><gpxtpx:TrackPointExtension><gpxtpx:hr>145</gpxtpx:hr></gpxtpx:TrackPointExtension></extensions>
      </trkpt>
      <trkpt lat="59.321196059576" lon="18.050823478286">
        <ele>4.4</ele>
        <time>2018-12-15T12:41:34Z</time>
        <extensions><gpxtpx:TrackPointExtension><gpxtpx:hr>143</gpxtpx:hr></gpxtpx:TrackPointExtension></extensions>
      </trkpt>
      <trkpt lat="59.321120538657" lon="18.049649928467">
        <ele>5</ele>
        <time>2018-12-15T12:41:43Z</time>
        <extensions><gpxtpx:TrackPointExtension><gpxtpx:hr>142</gpxtpx:hr></gpxtpx:TrackPointExtension></extensions>
      </trkpt>
      <trkpt lat="59.320965724964" lon="18.048519377795">
        <ele>5.2</ele>
        <time>2018-12-15T12:41:52Z</time>
        <extensions><gpxtpx:TrackPointExtension><gpxtpx:hr>142</gpxtpx:hr></gpxtpx:TrackPointExtension></extensions>
      </trkpt>
      <trkpt lat="59.320883833801" lon="18.047496283081">
        <ele>5.2</ele>
        <time>2018-12-15T12:42:00Z</time>
        <extensions><gpxtpx:TrackPointExtension><gpxtpx:hr>139</gpxtpx:hr></gpxtpx:TrackPointExtension></extensions>
      </trkpt>
      <trkpt lat="59.320794482747" lon="18.046332037171">
        <ele>5.2</ele>
        <time>2018-12-15T12:42:09Z</time>
        <extensions><gpxtpx:TrackPointExtension><gpxtpx:hr>137</gpxtpx:hr></gpxtpx:TrackPointExtension></extensions>
      </trkpt>
      <trkpt lat="59.320752573247" lon="18.045193356056">
        <ele>5.2</ele>
        <time>2018-12-15T12:42:18Z</time>
        <extensions><gpxtpx:TrackPointExtension><gpxtpx:hr>139</gpxtpx:hr></gpxtpx:TrackPointExtension></extensions>
      </trkpt>
      <trkpt lat="59.320753243799" lon="18.044807034285">
        <ele>5.2</ele>
        <time>2018-12-15T12:42:21Z</time>
        <extensions><gpxtpx:TrackPointExtension><gpxtpx:hr>140</gpxtpx:hr></gpxtpx:TrackPointExtension></extensions>
      </trkpt>
      <trkpt lat="59.320643943823" lon="18.043682267124">
        <ele>5.2</ele>
        <time>2018-12-15T12:42:30Z</time>
        <extensions><gpxtpx:TrackPointExtension><gpxtpx:hr>138</gpxtpx:hr></gpxtpx:TrackPointExtension></extensions>
      </trkpt>
      <trkpt lat="59.320526261947" lon="18.042569737537">
        <ele>5.2</ele>
        <time>2018-12-15T12:42:39Z</time>
        <extensions><gpxtpx:TrackPointExtension><gpxtpx:hr>137</gpxtpx:hr></gpxtpx:TrackPointExtension></extensions>
      </trkpt>
      <trkpt lat="59.320503295541" lon="18.041436337019">
        <ele>5.6</ele>
        <time>2018-12-15T12:42:48Z</time>
        <extensions><gpxtpx:TrackPointExtension><gpxtpx:hr>138</gpxtpx:hr></gpxtpx:TrackPointExtension></extensions>
      </trkpt>
      <trkpt lat="59.320418554532" lon="18.040316934274">
        <ele>5.6</ele>
        <time>2018-12-15T12:42:57Z</time>
        <extensions><gpxtpx:TrackPointExtension><gpxtpx:hr>137</gpxtpx:hr></gpxtpx:TrackPointExtension></extensions>
      </trkpt>
      <trkpt lat="59.320317720275" lon="18.03918487486">
        <ele>5.6</ele>
        <time>2018-12-15T12:43:06Z</time>
        <extensions><gpxtpx:TrackPointExtension><gpxtpx:hr>139</gpxtpx:hr></gpxtpx:TrackPointExtension></extensions>
      </trkpt>
      <trkpt lat="59.32028880272" lon="18.038796373795">
        <ele>5.6</ele>
        <time>2018-12-15T12:43:09Z</time>
        <extensions><gpxtpx:TrackPointExtension><gpxtpx:hr>139</gpxtpx:hr></gpxtpx:TrackPointExtension></extensions>
      </trkpt>
      <trkpt lat="59.320161816935" lon="18.037708486994">
        <ele>5.2</ele>
        <time>2018-12-15T12:43:17Z</time>
        <extensions><gpxtpx:TrackPointExtension><gpxtpx:hr>140</gpxtpx:hr></gpxtpx:TrackPointExtension></extensions>
      </trkpt>
      <trkpt lat="59.320079758134" lon="18.036783041415">
        <ele>3.8</ele>
        <time>2018-12-15T12:43:24Z</time>
        <extensions><gpxtpx:TrackPointExtension><gpxtpx:hr>140</gpxtpx:hr></gpxtpx:TrackPointExtension></extensions>
      </trkpt>
      <trkpt lat="59.32000214174" lon="18.035732705526">
        <ele>3.8</ele>
        <time>2018-12-15T12:43:32Z</time>
        <extensions><gpxtpx:TrackPointExtension><gpxtpx:hr>139</gpxtpx:hr></gpxtpx:TrackPointExtension></extensions>
      </trkpt>
      <trkpt lat="59.319987557234" lon="18.035385862504">
        <ele>3.8</ele>
        <time>2018-12-15T12:43:35Z</time>
        <extensions><gpxtpx:TrackPointExtension><gpxtpx:hr>139</gpxtpx:hr></gpxtpx:TrackPointExtension></extensions>
      </trkpt>
      <trkpt lat="59.319920082939" lon="18.034608776555">
        <ele>5</ele>
        <time>2018-12-15T12:43:43Z</time>
        <extensions><gpxtpx:TrackPointExtension><gpxtpx:hr>141</gpxtpx:hr></gpxtpx:TrackPointExtension></extensions>
      </trkpt>
      <trkpt lat="59.31989736799" lon="18.034438121071">
        <ele>6.2</ele>
        <time>2018-12-15T12:43:45Z</time>
        <extensions><gpxtpx:TrackPointExtension><gpxtpx:hr>140</gpxtpx:hr></gpxtpx:TrackPointExtension></extensions>
      </trkpt>
      <trkpt lat="59.31988563333" lon="18.03435187132">
        <ele>6.6</ele>
        <time>2018-12-15T12:43:46Z</time>
        <extensions><gpxtpx:TrackPointExtension><gpxtpx:hr>140</gpxtpx:hr></gpxtpx:TrackPointExtension></extensions>
      </trkpt>
      <trkpt lat="59.319869372444" lon="18.034038891174">
        <ele>7.2</ele>
        <time>2018-12-15T12:43:49Z</time>
        <extensions><gpxtpx:TrackPointExtension><gpxtpx:hr>139</gpxtpx:hr></gpxtpx:TrackPointExtension></extensions>
      </trkpt>
      <trkpt lat="59.31984204745" lon="18.033779722826">
        <ele>7.2</ele>
        <time>2018-12-15T12:43:51Z</time>
        <extensions><gpxtpx:TrackPointExtension><gpxtpx:hr>139</gpxtpx:hr></gpxtpx:TrackPointExtension></extensions>
      </trkpt>
      <trkpt lat="59.319693520182" lon="18.032737936475">
        <ele>6.6</ele>
        <time>2018-12-15T12:43:59Z</time>
        <extensions><gpxtpx:TrackPointExtension><gpxtpx:hr>137</gpxtpx:hr></gpxtpx:TrackPointExtension></extensions>
      </trkpt>
      <trkpt lat="59.319674744726" lon="18.032613716717">
        <ele>6</ele>
        <time>2018-12-15T12:44:00Z</time>
        <extensions><gpxtpx:TrackPointExtension><gpxtpx:hr>136</gpxtpx:hr></gpxtpx:TrackPointExtension></extensions>
      </trkpt>
      <trkpt lat="59.319618585996" lon="18.032091608166">
        <ele>5</ele>
        <time>2018-12-15T12:44:04Z</time>
        <extensions><gpxtpx:TrackPointExtension><gpxtpx:hr>135</gpxtpx:hr></gpxtpx:TrackPointExtension></extensions>
      </trkpt>
      <trkpt lat="59.319559828877" lon="18.031646780733">
        <ele>4.8</ele>
        <time>2018-12-15T12:44:08Z</time>
        <extensions><gpxtpx:TrackPointExtension><gpxtpx:hr>134</gpxtpx:hr></gpxtpx:TrackPointExtension></extensions>
      </trkpt>
      <trkpt lat="59.319492857496" lon="18.031385433091">
        <ele>4.8</ele>
        <time>2018-12-15T12:44:11Z</time>
        <extensions><gpxtpx:TrackPointExtension><gpxtpx:hr>134</gpxtpx:hr></gpxtpx:TrackPointExtension></extensions>
      </trkpt>
      <trkpt lat="59.319461006276" lon="18.030861396703">
        <ele>5</ele>
        <time>2018-12-15T12:44:16Z</time>
        <extensions><gpxtpx:TrackPointExtension><gpxtpx:hr>131</gpxtpx:hr></gpxtpx:TrackPointExtension></extensions>
      </trkpt>
      <trkpt lat="59.319459497534" lon="18.030770201631">
        <ele>5</ele>
        <time>2018-12-15T12:44:17Z</time>
        <extensions><gpxtpx:TrackPointExtension><gpxtpx:hr>130</gpxtpx:hr></gpxtpx:TrackPointExtension></extensions>
      </trkpt>
      <trkpt lat="59.319405182822" lon="18.030416150175">
        <ele>5.4</ele>
        <time>2018-12-15T12:44:21Z</time>
        <extensions><gpxtpx:TrackPointExtension><gpxtpx:hr>130</gpxtpx:hr></gpxtpx:TrackPointExtension></extensions>
      </trkpt>
      <trkpt lat="59.319345168418" lon="18.030177349844">
        <ele>5.6</ele>
        <time>2018-12-15T12:44:24Z</time>
        <extensions><gpxtpx:TrackPointExtension><gpxtpx:hr>133</gpxtpx:hr></gpxtpx:TrackPointExtension></extensions>
      </trkpt>
      <trkpt lat="59.319245423808" lon="18.029511994622">
        <ele>6</ele>
        <time>2018-12-15T12:44:31Z</time>
        <extensions><gpxtpx:TrackPointExtension><gpxtpx:hr>132</gpxtpx:hr></gpxtpx:TrackPointExtension></extensions>
      </trkpt>
      <trkpt lat="59.319224385239" lon="18.029285599503">
        <ele>6</ele>
        <time>2018-12-15T12:44:33Z</time>
        <extensions><gpxtpx:TrackPointExtension><gpxtpx:hr>134</gpxtpx:hr></gpxtpx:TrackPointExtension></extensions>
      </trkpt>
      <trkpt lat="59.319167639776" lon="18.028830210876">
        <ele>6.2</ele>
        <time>2018-12-15T12:44:37Z</time>
        <extensions><gpxtpx:TrackPointExtension><gpxtpx:hr>135</gpxtpx:hr></gpxtpx:TrackPointExtension></extensions>
      </trkpt>
      <trkpt lat="59.319058591257" lon="18.028532653426">
        <ele>6.2</ele>
        <time>2018-12-15T12:44:41Z</time>
        <extensions><gpxtpx:TrackPointExtension><gpxtpx:hr>132</gpxtpx:hr></gpxtpx:TrackPointExtension></extensions>
      </trkpt>
      <trkpt lat="59.318991116962" lon="18.028131160416">
        <ele>6.6</ele>
        <time>2018-12-15T12:44:47Z</time>
        <extensions><gpxtpx:TrackPointExtension><gpxtpx:hr>130</gpxtpx:hr></gpxtpx:TrackPointExtension></extensions>
      </trkpt>
      <trkpt lat="59.318785760412" lon="18.027372179371">
        <ele>6.8</ele>
        <time>2018-12-15T12:44:54Z</time>
        <extensions><gpxtpx:TrackPointExtension><gpxtpx:hr>130</gpxtpx:hr></gpxtpx:TrackPointExtension></extensions>
      </trkpt>
      <trkpt lat="59.318657182066" lon="18.027141258026">
        <ele>6.6</ele>
        <time>2018-12-15T12:44:57Z</time>
        <extensions><gpxtpx:TrackPointExtension><gpxtpx:hr>131</gpxtpx:hr></gpxtpx:TrackPointExtension></extensions>
      </trkpt>
      <trkpt lat="59.318583337527" lon="18.026985522324">
        <ele>6.6</ele>
        <time>2018-12-15T12:44:59Z</time>
        <extensions><gpxtpx:TrackPointExtension><gpxtpx:hr>131</gpxtpx:hr></gpxtpx:TrackPointExtension></extensions>
      </trkpt>
      <trkpt lat="59.318510834092" lon="18.026819393066">
        <ele>6.6</ele>
        <time>2018-12-15T12:45:01Z</time>
        <extensions><gpxtpx:TrackPointExtension><gpxtpx:hr>132</gpxtpx:hr></gpxtpx:TrackPointExtension></extensions>
      </trkpt>
      <trkpt lat="59.318258622721" lon="18.026548909153">
        <ele>6.6</ele>
        <time>2018-12-15T12:45:06Z</time>
        <extensions><gpxtpx:TrackPointExtension><gpxtpx:hr>133</gpxtpx:hr></gpxtpx:TrackPointExtension></extensions>
      </trkpt>
      <trkpt lat="59.318143539234" lon="18.02646366523">
        <ele>6.8</ele>
        <time>2018-12-15T12:45:08Z</time>
        <extensions><gpxtpx:TrackPointExtension><gpxtpx:hr>135</gpxtpx:hr></gpxtpx:TrackPointExtension></extensions>
      </trkpt>
      <trkpt lat="59.317850843286" lon="18.026361992783">
        <ele>6.8</ele>
        <time>2018-12-15T12:45:13Z</time>
        <extensions><gpxtpx:TrackPointExtension><gpxtpx:hr>138</gpxtpx:hr></gpxtpx:TrackPointExtension></extensions>
      </trkpt>
      <trkpt lat="59.31779183471" lon="18.026358807661">
        <ele>6.8</ele>
        <time>2018-12-15T12:45:14Z</time>
        <extensions><gpxtpx:TrackPointExtension><gpxtpx:hr>138</gpxtpx:hr></gpxtpx:TrackPointExtension></extensions>
      </trkpt>
      <trkpt lat="59.317671805902" lon="18.026372386339">
        <ele>6.8</ele>
        <time>2018-12-15T12:45:16Z</time>
        <extensions><gpxtpx:TrackPointExtension><gpxtpx:hr>139</gpxtpx:hr></gpxtpx:TrackPointExtension></extensions>
      </trkpt>
      <trkpt lat="59.317090940232" lon="18.02657179174">
        <ele>6.6</ele>
        <time>2018-12-15T12:45:25Z</time>
        <extensions><gpxtpx:TrackPointExtension><gpxtpx:hr>140</gpxtpx:hr></gpxtpx:TrackPointExtension></extensions>
      </trkpt>
      <trkpt lat="59.316848284227" lon="18.026660136966">
        <ele>6.8</ele>
        <time>2018-12-15T12:45:29Z</time>
        <extensions><gpxtpx:TrackPointExtension><gpxtpx:hr>140</gpxtpx:hr></gpxtpx:TrackPointExtension></extensions>
      </trkpt>
      <trkpt lat="59.316665223531" lon="18.026712691479">
        <ele>6.8</ele>
        <time>2018-12-15T12:45:32Z</time>
        <extensions><gpxtpx:TrackPointExtension><gpxtpx:hr>140</gpxtpx:hr></gpxtpx:TrackPointExtension></extensions>
      </trkpt>
      <trkpt lat="59.316201704461" lon="18.026953838742">
        <ele>7</ele>
        <time>2018-12-15T12:45:40Z</time>
        <extensions><gpxtpx:TrackPointExtension><gpxtpx:hr>141</gpxtpx:hr></gpxtpx:TrackPointExtension></extensions>
      </trkpt>
      <trkpt lat="59.315998443386" lon="18.027598909766">
        <ele>7.4</ele>
        <time>2018-12-15T12:45:47Z</time>
        <extensions><gpxtpx:TrackPointExtension><gpxtpx:hr>141</gpxtpx:hr></gpxtpx:TrackPointExtension></extensions>
      </trkpt>
      <trkpt lat="59.315738939762" lon="18.028637427176">
        <ele>7.6</ele>
        <time>2018-12-15T12:45:57Z</time>
        <extensions><gpxtpx:TrackPointExtension><gpxtpx:hr>140</gpxtpx:hr></gpxtpx:TrackPointExtension></extensions>
      </trkpt>
      <trkpt lat="59.315536181601" lon="18.029375704928">
        <ele>7.6</ele>
        <time>2018-12-15T12:46:04Z</time>
        <extensions><gpxtpx:TrackPointExtension><gpxtpx:hr>140</gpxtpx:hr></gpxtpx:TrackPointExtension></extensions>
      </trkpt>
      <trkpt lat="59.315237283047" lon="18.030289918761">
        <ele>7.6</ele>
        <time>2018-12-15T12:46:12Z</time>
        <extensions><gpxtpx:TrackPointExtension><gpxtpx:hr>139</gpxtpx:hr></gpxtpx:TrackPointExtension></extensions>
      </trkpt>
      <trkpt lat="59.315159163739" lon="18.030537352449">
        <ele>7.4</ele>
        <time>2018-12-15T12:46:14Z</time>
        <extensions><gpxtpx:TrackPointExtension><gpxtpx:hr>138</gpxtpx:hr></gpxtpx:TrackPointExtension></extensions>
      </trkpt>
      <trkpt lat="59.314869485275" lon="18.031421810537">
        <ele>6.6</ele>
        <time>2018-12-15T12:46:21Z</time>
        <extensions><gpxtpx:TrackPointExtension><gpxtpx:hr>137</gpxtpx:hr></gpxtpx:TrackPointExtension></extensions>
      </trkpt>
      <trkpt lat="59.314685586389" lon="18.031894968792">
        <ele>6.4</ele>
        <time>2018-12-15T12:46:25Z</time>
        <extensions><gpxtpx:TrackPointExtension><gpxtpx:hr>135</gpxtpx:hr></gpxtpx:TrackPointExtension></extensions>
      </trkpt>
      <trkpt lat="59.314494814345" lon="18.032382208639">
        <ele>5.8</ele>
        <time>2018-12-15T12:46:29Z</time>
        <extensions><gpxtpx:TrackPointExtension><gpxtpx:hr>134</gpxtpx:hr></gpxtpx:TrackPointExtension></extensions>
      </trkpt>
      <trkpt lat="59.314255762557" lon="18.033067177507">
        <ele>5.8</ele>
        <time>2018-12-15T12:46:35Z</time>
        <extensions><gpxtpx:TrackPointExtension><gpxtpx:hr>131</gpxtpx:hr></gpxtpx:TrackPointExtension></extensions>
      </trkpt>
      <trkpt lat="59.314151156445" lon="18.033364567319">
        <ele>5.8</ele>
        <time>2018-12-15T12:46:38Z</time>
        <extensions><gpxtpx:TrackPointExtension><gpxtpx:hr>131</gpxtpx:hr></gpxtpx:TrackPointExtension></extensions>
      </trkpt>
      <trkpt lat="59.313991313612" lon="18.033754996221">
        <ele>5.8</ele>
        <time>2018-12-15T12:46:42Z</time>
        <extensions><gpxtpx:TrackPointExtension><gpxtpx:hr>132</gpxtpx:hr></gpxtpx:TrackPointExtension></extensions>
      </trkpt>
      <trkpt lat="59.313967425197" lon="18.033851136614">
        <ele>5.8</ele>
        <time>2018-12-15T12:46:43Z</time>
        <extensions><gpxtpx:TrackPointExtension><gpxtpx:hr>131</gpxtpx:hr></gpxtpx:TrackPointExtension></extensions>
      </trkpt>
      <trkpt lat="59.313911182648" lon="18.034227651562">
        <ele>6</ele>
        <time>2018-12-15T12:46:47Z</time>
        <extensions><gpxtpx:TrackPointExtension><gpxtpx:hr>130</gpxtpx:hr></gpxtpx:TrackPointExtension></extensions>
      </trkpt>
      <trkpt lat="59.313774306221" lon="18.034696618867">
        <ele>6</ele>
        <time>2018-12-15T12:46:51Z</time>
        <extensions><gpxtpx:TrackPointExtension><gpxtpx:hr>132</gpxtpx:hr></gpxtpx:TrackPointExtension></extensions>
      </trkpt>
      <trkpt lat="59.313544223066" lon="18.035235994132">
        <ele>5.4</ele>
        <time>2018-12-15T12:46:56Z</time>
        <extensions><gpxtpx:TrackPointExtension><gpxtpx:hr>135</gpxtpx:hr></gpxtpx:TrackPointExtension></extensions>
      </trkpt>
      <trkpt lat="59.31319017161" lon="18.036037806686">
        <ele>5</ele>
        <time>2018-12-15T12:47:04Z</time>
        <extensions><gpxtpx:TrackPointExtension><gpxtpx:hr>134</gpxtpx:hr></gpxtpx:TrackPointExtension></extensions>
      </trkpt>
      <trkpt lat="59.312783565641" lon="18.036749681453">
        <ele>4.8</ele>
        <time>2018-12-15T12:47:12Z</time>
        <extensions><gpxtpx:TrackPointExtension><gpxtpx:hr>136</gpxtpx:hr></gpxtpx:TrackPointExtension></extensions>
      </trkpt>
      <trkpt lat="59.312354328542" lon="18.037544453211">
        <ele>5</ele>
        <time>2018-12-15T12:47:21Z</time>
        <extensions><gpxtpx:TrackPointExtension><gpxtpx:hr>137</gpxtpx:hr></gpxtpx:TrackPointExtension></extensions>
      </trkpt>
      <trkpt lat="59.312017711438" lon="18.03837769789">
        <ele>5.8</ele>
        <time>2018-12-15T12:47:30Z</time>
        <extensions><gpxtpx:TrackPointExtension><gpxtpx:hr>138</gpxtpx:hr></gpxtpx:TrackPointExtension></extensions>
      </trkpt>
      <trkpt lat="59.31164706382" lon="18.039133074718">
        <ele>6.4</ele>
        <time>2018-12-15T12:47:39Z</time>
        <extensions><gpxtpx:TrackPointExtension><gpxtpx:hr>136</gpxtpx:hr></gpxtpx:TrackPointExtension></extensions>
      </trkpt>
      <trkpt lat="59.311431481352" lon="18.039775882629">
        <ele>6.4</ele>
        <time>2018-12-15T12:47:45Z</time>
        <extensions><gpxtpx:TrackPointExtension><gpxtpx:hr>135</gpxtpx:hr></gpxtpx:TrackPointExtension></extensions>
      </trkpt>
      <trkpt lat="59.311066784883" lon="18.04067014754">
        <ele>5.6</ele>
        <time>2018-12-15T12:47:54Z</time>
        <extensions><gpxtpx:TrackPointExtension><gpxtpx:hr>136</gpxtpx:hr></gpxtpx:TrackPointExtension></extensions>
      </trkpt>
      <trkpt lat="59.310928399714" lon="18.041110700204">
        <ele>5.6</ele>
        <time>2018-12-15T12:47:58Z</time>
        <extensions><gpxtpx:TrackPointExtension><gpxtpx:hr>136</gpxtpx:hr></gpxtpx:TrackPointExtension></extensions>
      </trkpt>
      <trkpt lat="59.310851956786" lon="18.04170950314">
        <ele>5.4</ele>
        <time>2018-12-15T12:48:03Z</time>
        <extensions><gpxtpx:TrackPointExtension><gpxtpx:hr>137</gpxtpx:hr></gpxtpx:TrackPointExtension></extensions>
      </trkpt>
      <trkpt lat="59.310829325656" lon="18.042561187999">
        <ele>5.4</ele>
        <time>2018-12-15T12:48:10Z</time>
        <extensions><gpxtpx:TrackPointExtension><gpxtpx:hr>136</gpxtpx:hr></gpxtpx:TrackPointExtension></extensions>
      </trkpt>
      <trkpt lat="59.310920604547" lon="18.042909288306">
        <ele>5.2</ele>
        <time>2018-12-15T12:48:14Z</time>
        <extensions><gpxtpx:TrackPointExtension><gpxtpx:hr>137</gpxtpx:hr></gpxtpx:TrackPointExtension></extensions>
      </trkpt>
      <trkpt lat="59.311007860126" lon="18.043407843718">
        <ele>7</ele>
        <time>2018-12-15T12:48:24Z</time>
        <extensions><gpxtpx:TrackPointExtension><gpxtpx:hr>140</gpxtpx:hr></gpxtpx:TrackPointExtension></extensions>
      </trkpt>
      <trkpt lat="59.310991766878" lon="18.043506331043">
        <ele>8.2</ele>
        <time>2018-12-15T12:48:26Z</time>
        <extensions><gpxtpx:TrackPointExtension><gpxtpx:hr>141</gpxtpx:hr></gpxtpx:TrackPointExtension></extensions>
      </trkpt>
      <trkpt lat="59.310974248707" lon="18.04358956331">
        <ele>9.4</ele>
        <time>2018-12-15T12:48:28Z</time>
        <extensions><gpxtpx:TrackPointExtension><gpxtpx:hr>143</gpxtpx:hr></gpxtpx:TrackPointExtension></extensions>
      </trkpt>
      <trkpt lat="59.310956143803" lon="18.043687966816">
        <ele>10.8</ele>
        <time>2018-12-15T12:48:30Z</time>
        <extensions><gpxtpx:TrackPointExtension><gpxtpx:hr>144</gpxtpx:hr></gpxtpx:TrackPointExtension></extensions>
      </trkpt>
      <trkpt lat="59.310891770811" lon="18.043921067455">
        <ele>12</ele>
        <time>2018-12-15T12:48:34Z</time>
        <extensions><gpxtpx:TrackPointExtension><gpxtpx:hr>147</gpxtpx:hr></gpxtpx:TrackPointExtension></extensions>
      </trkpt>
      <trkpt lat="59.310838294289" lon="18.044111671861">
        <ele>13</ele>
        <time>2018-12-15T12:48:37Z</time>
        <extensions><gpxtpx:TrackPointExtension><gpxtpx:hr>148</gpxtpx:hr></gpxtpx:TrackPointExtension></extensions>
      </trkpt>
      <trkpt lat="59.310848101112" lon="18.044725562217">
        <ele>14</ele>
        <time>2018-12-15T12:48:46Z</time>
        <extensions><gpxtpx:TrackPointExtension><gpxtpx:hr>150</gpxtpx:hr></gpxtpx:TrackPointExtension></extensions>
      </trkpt>
      <trkpt lat="59.310950108835" lon="18.045259405428">
        <ele>15.4</ele>
        <time>2018-12-15T12:48:54Z</time>
        <extensions><gpxtpx:TrackPointExtension><gpxtpx:hr>152</gpxtpx:hr></gpxtpx:TrackPointExtension></extensions>
      </trkpt>
      <trkpt lat="59.311047674151" lon="18.045572888488">
        <ele>16.4</ele>
        <time>2018-12-15T12:48:59Z</time>
        <extensions><gpxtpx:TrackPointExtension><gpxtpx:hr>152</gpxtpx:hr></gpxtpx:TrackPointExtension></extensions>
      </trkpt>
      <trkpt lat="59.311113639704" lon="18.045813784294">
        <ele>17.6</ele>
        <time>2018-12-15T12:49:03Z</time>
        <extensions><gpxtpx:TrackPointExtension><gpxtpx:hr>152</gpxtpx:hr></gpxtpx:TrackPointExtension></extensions>
      </trkpt>
      <trkpt lat="59.311155381566" lon="18.046047304028">
        <ele>18.8</ele>
        <time>2018-12-15T12:49:07Z</time>
        <extensions><gpxtpx:TrackPointExtension><gpxtpx:hr>152</gpxtpx:hr></gpxtpx:TrackPointExtension></extensions>
      </trkpt>
      <trkpt lat="59.311191172279" lon="18.046290630585">
        <ele>20</ele>
        <time>2018-12-15T12:49:11Z</time>
        <extensions><gpxtpx:TrackPointExtension><gpxtpx:hr>152</gpxtpx:hr></gpxtpx:TrackPointExtension></extensions>
      </trkpt>
      <trkpt lat="59.311228136458" lon="18.046544434517">
        <ele>21</ele>
        <time>2018-12-15T12:49:15Z</time>
        <extensions><gpxtpx:TrackPointExtension><gpxtpx:hr>151</gpxtpx:hr></gpxtpx:TrackPointExtension></extensions>
      </trkpt>
      <trkpt lat="59.311271051786" lon="18.046794382775">
        <ele>22.2</ele>
        <time>2018-12-15T12:49:19Z</time>
        <extensions><gpxtpx:TrackPointExtension><gpxtpx:hr>151</gpxtpx:hr></gpxtpx:TrackPointExtension></extensions>
      </trkpt>
      <trkpt lat="59.311331317647" lon="18.047023376283">
        <ele>23.2</ele>
        <time>2018-12-15T12:49:23Z</time>
        <extensions><gpxtpx:TrackPointExtension><gpxtpx:hr>151</gpxtpx:hr></gpxtpx:TrackPointExtension></extensions>
      </trkpt>
      <trkpt lat="59.311387979291" lon="18.047230157756">
        <ele>24.6</ele>
        <time>2018-12-15T12:49:27Z</time>
        <extensions><gpxtpx:TrackPointExtension><gpxtpx:hr>150</gpxtpx:hr></gpxtpx:TrackPointExtension></extensions>
      </trkpt>
      <trkpt lat="59.311384123617" lon="18.047285059201">
        <ele>24.8</ele>
        <time>2018-12-15T12:49:28Z</time>
        <extensions><gpxtpx:TrackPointExtension><gpxtpx:hr>150</gpxtpx:hr></gpxtpx:TrackPointExtension></extensions>
      </trkpt>
      <trkpt lat="59.311305836671" lon="18.047280532975">
        <ele>25.6</ele>
        <time>2018-12-15T12:49:32Z</time>
        <extensions><gpxtpx:TrackPointExtension><gpxtpx:hr>149</gpxtpx:hr></gpxtpx:TrackPointExtension></extensions>
      </trkpt>
      <trkpt lat="59.31127826022" lon="18.047147931317">
        <ele>26</ele>
        <time>2018-12-15T12:49:34Z</time>
        <extensions><gpxtpx:TrackPointExtension><gpxtpx:hr>148</gpxtpx:hr></gpxtpx:TrackPointExtension></extensions>
      </trkpt>
      <trkpt lat="59.311153705186" lon="18.046511074555">
        <ele>26.8</ele>
        <time>2018-12-15T12:49:43Z</time>
        <extensions><gpxtpx:TrackPointExtension><gpxtpx:hr>148</gpxtpx:hr></gpxtpx:TrackPointExtension></extensions>
      </trkpt>
      <trkpt lat="59.311135516463" lon="18.046429853944">
        <ele>26.8</ele>
        <time>2018-12-15T12:49:44Z</time>
        <extensions><gpxtpx:TrackPointExtension><gpxtpx:hr>149</gpxtpx:hr></gpxtpx:TrackPointExtension></extensions>
      </trkpt>
      <trkpt lat="59.311029736885" lon="18.045997515542">
        <ele>27.8</ele>
        <time>2018-12-15T12:49:49Z</time>
        <extensions><gpxtpx:TrackPointExtension><gpxtpx:hr>150</gpxtpx:hr></gpxtpx:TrackPointExtension></extensions>
      </trkpt>
      <trkpt lat="59.310754726746" lon="18.045120265888">
        <ele>29.2</ele>
        <time>2018-12-15T12:50:00Z</time>
        <extensions><gpxtpx:TrackPointExtension><gpxtpx:hr>149</gpxtpx:hr></gpxtpx:TrackPointExtension></extensions>
      </trkpt>
      <trkpt lat="59.310429425207" lon="18.044277130567">
        <ele>30.4</ele>
        <time>2018-12-15T12:50:10Z</time>
        <extensions><gpxtpx:TrackPointExtension><gpxtpx:hr>147</gpxtpx:hr></gpxtpx:TrackPointExtension></extensions>
      </trkpt>
      <trkpt lat="59.310259775551" lon="18.04395585234">
        <ele>30.6</ele>
        <time>2018-12-15T12:50:14Z</time>
        <extensions><gpxtpx:TrackPointExtension><gpxtpx:hr>148</gpxtpx:hr></gpxtpx:TrackPointExtension></extensions>
      </trkpt>
      <trkpt lat="59.310044360721" lon="18.043534578046">
        <ele>30.4</ele>
        <time>2018-12-15T12:50:19Z</time>
        <extensions><gpxtpx:TrackPointExtension><gpxtpx:hr>148</gpxtpx:hr></gpxtpx:TrackPointExtension></extensions>
      </trkpt>
      <trkpt lat="59.309620488038" lon="18.042864780417">
        <ele>31.2</ele>
        <time>2018-12-15T12:50:28Z</time>
        <extensions><gpxtpx:TrackPointExtension><gpxtpx:hr>147</gpxtpx:hr></gpxtpx:TrackPointExtension></extensions>
      </trkpt>
      <trkpt lat="59.309418484248" lon="18.042591530477">
        <ele>31.8</ele>
        <time>2018-12-15T12:50:32Z</time>
        <extensions><gpxtpx:TrackPointExtension><gpxtpx:hr>146</gpxtpx:hr></gpxtpx:TrackPointExtension></extensions>
      </trkpt>
      <trkpt lat="59.308941637957" lon="18.042006725314">
        <ele>32.4</ele>
        <time>2018-12-15T12:50:41Z</time>
        <extensions><gpxtpx:TrackPointExtension><gpxtpx:hr>148</gpxtpx:hr></gpxtpx:TrackPointExtension></extensions>
      </trkpt>
      <trkpt lat="59.308460013983" lon="18.041424686178">
        <ele>33</ele>
        <time>2018-12-15T12:50:50Z</time>
        <extensions><gpxtpx:TrackPointExtension><gpxtpx:hr>148</gpxtpx:hr></gpxtpx:TrackPointExtension></extensions>
      </trkpt>
      <trkpt lat="59.308148123484" lon="18.041056972225">
        <ele>33</ele>
        <time>2018-12-15T12:50:56Z</time>
        <extensions><gpxtpx:TrackPointExtension><gpxtpx:hr>148</gpxtpx:hr></gpxtpx:TrackPointExtension></extensions>
      </trkpt>
      <trkpt lat="59.307677982713" lon="18.040487673577">
        <ele>34.8</ele>
        <time>2018-12-15T12:51:05Z</time>
        <extensions><gpxtpx:TrackPointExtension><gpxtpx:hr>148</gpxtpx:hr></gpxtpx:TrackPointExtension></extensions>
      </trkpt>
      <trkpt lat="59.3071811875" lon="18.039846542046">
        <ele>35.6</ele>
        <time>2018-12-15T12:51:14Z</time>
        <extensions><gpxtpx:TrackPointExtension><gpxtpx:hr>148</gpxtpx:hr></gpxtpx:TrackPointExtension></extensions>
      </trkpt>
      <trkpt lat="59.307067780393" lon="18.039711006723">
        <ele>35.8</ele>
        <time>2018-12-15T12:51:16Z</time>
        <extensions><gpxtpx:TrackPointExtension><gpxtpx:hr>149</gpxtpx:hr></gpxtpx:TrackPointExtension></extensions>
      </trkpt>
      <trkpt lat="59.306591604654" lon="18.039148413595">
        <ele>36</ele>
        <time>2018-12-15T12:51:24Z</time>
        <extensions><gpxtpx:TrackPointExtension><gpxtpx:hr>150</gpxtpx:hr></gpxtpx:TrackPointExtension></extensions>
      </trkpt>
      <trkpt lat="59.306106376463" lon="18.038563273156">
        <ele>36.2</ele>
        <time>2018-12-15T12:51:32Z</time>
        <extensions><gpxtpx:TrackPointExtension><gpxtpx:hr>151</gpxtpx:hr></gpxtpx:TrackPointExtension></extensions>
      </trkpt>
      <trkpt lat="59.305684766893" lon="18.038068908694">
        <ele>36.2</ele>
        <time>2018-12-15T12:51:39Z</time>
        <extensions><gpxtpx:TrackPointExtension><gpxtpx:hr>148</gpxtpx:hr></gpxtpx:TrackPointExtension></extensions>
      </trkpt>
      <trkpt lat="59.305503214939" lon="18.037827174698">
        <ele>36.2</ele>
        <time>2018-12-15T12:51:42Z</time>
        <extensions><gpxtpx:TrackPointExtension><gpxtpx:hr>145</gpxtpx:hr></gpxtpx:TrackPointExtension></extensions>
      </trkpt>
      <trkpt lat="59.30511840191" lon="18.037350412226">
        <ele>35.4</ele>
        <time>2018-12-15T12:51:48Z</time>
        <extensions><gpxtpx:TrackPointExtension><gpxtpx:hr>142</gpxtpx:hr></gpxtpx:TrackPointExtension></extensions>
      </trkpt>
      <trkpt lat="59.304988314822" lon="18.037192413411">
        <ele>35.4</ele>
        <time>2018-12-15T12:51:50Z</time>
        <extensions><gpxtpx:TrackPointExtension><gpxtpx:hr>141</gpxtpx:hr></gpxtpx:TrackPointExtension></extensions>
      </trkpt>
      <trkpt lat="59.304681621101" lon="18.036740629001">
        <ele>34.4</ele>
        <time>2018-12-15T12:51:55Z</time>
        <extensions><gpxtpx:TrackPointExtension><gpxtpx:hr>140</gpxtpx:hr></gpxtpx:TrackPointExtension></extensions>
      </trkpt>
      <trkpt lat="59.304174348513" lon="18.036093043407">
        <ele>34</ele>
        <time>2018-12-15T12:52:04Z</time>
        <extensions><gpxtpx:TrackPointExtension><gpxtpx:hr>143</gpxtpx:hr></gpxtpx:TrackPointExtension></extensions>
      </trkpt>
      <trkpt lat="59.303914258156" lon="18.035784589487">
        <ele>34.8</ele>
        <time>2018-12-15T12:52:09Z</time>
        <extensions><gpxtpx:TrackPointExtension><gpxtpx:hr>146</gpxtpx:hr></gpxtpx:TrackPointExtension></extensions>
      </trkpt>
      <trkpt lat="59.303868157706" lon="18.035738321399">
        <ele>35.8</ele>
        <time>2018-12-15T12:52:10Z</time>
        <extensions><gpxtpx:TrackPointExtension><gpxtpx:hr>147</gpxtpx:hr></gpxtpx:TrackPointExtension></extensions>
      </trkpt>
      <trkpt lat="59.303821889618" lon="18.03569213713">
        <ele>36</ele>
        <time>2018-12-15T12:52:11Z</time>
        <extensions><gpxtpx:TrackPointExtension><gpxtpx:hr>147</gpxtpx:hr></gpxtpx:TrackPointExtension></extensions>
      </trkpt>
      <trkpt lat="59.30368090606" lon="18.035525504958">
        <ele>36.8</ele>
        <time>2018-12-15T12:52:14Z</time>
        <extensions><gpxtpx:TrackPointExtension><gpxtpx:hr>148</gpxtpx:hr></gpxtpx:TrackPointExtension></extensions>
      </trkpt>
      <trkpt lat="59.303210430013" lon="18.03494279527">
        <ele>37.4</ele>
        <time>2018-12-15T12:52:22Z</time>
        <extensions><gpxtpx:TrackPointExtension><gpxtpx:hr>146</gpxtpx:hr></gpxtpx:TrackPointExtension></extensions>
      </trkpt>
      <trkpt lat="59.302802315302" lon="18.03439880996">
        <ele>35.4</ele>
        <time>2018-12-15T12:52:28Z</time>
        <extensions><gpxtpx:TrackPointExtension><gpxtpx:hr>143</gpxtpx:hr></gpxtpx:TrackPointExtension></extensions>
      </trkpt>
      <trkpt lat="59.302605759747" lon="18.034063785417">
        <ele>34</ele>
        <time>2018-12-15T12:52:31Z</time>
        <extensions><gpxtpx:TrackPointExtension><gpxtpx:hr>141</gpxtpx:hr></gpxtpx:TrackPointExtension></extensions>
      </trkpt>
      <trkpt lat="59.302542727859" lon="18.033952809061">
        <ele>33.6</ele>
        <time>2018-12-15T12:52:32Z</time>
        <extensions><gpxtpx:TrackPointExtension><gpxtpx:hr>138</gpxtpx:hr></gpxtpx:TrackPointExtension></extensions>
      </trkpt>
      <trkpt lat="59.302477516677" lon="18.033849208777">
        <ele>33</ele>
        <time>2018-12-15T12:52:33Z</time>
        <extensions><gpxtpx:TrackPointExtension><gpxtpx:hr>137</gpxtpx:hr></gpxtpx:TrackPointExtension></extensions>
      </trkpt>
      <trkpt lat="59.302353883652" lon="18.033646702073">
        <ele>31.8</ele>
        <time>2018-12-15T12:52:35Z</time>
        <extensions><gpxtpx:TrackPointExtension><gpxtpx:hr>135</gpxtpx:hr></gpxtpx:TrackPointExtension></extensions>
      </trkpt>
      <trkpt lat="59.302195130466" lon="18.033327351683">
        <ele>30.8</ele>
        <time>2018-12-15T12:52:38Z</time>
        <extensions><gpxtpx:TrackPointExtension><gpxtpx:hr>132</gpxtpx:hr></gpxtpx:TrackPointExtension></extensions>
      </trkpt>
      <trkpt lat="59.302145425799" lon="18.033223164666">
        <ele>30.6</ele>
        <time>2018-12-15T12:52:39Z</time>
        <extensions><gpxtpx:TrackPointExtension><gpxtpx:hr>132</gpxtpx:hr></gpxtpx:TrackPointExtension></extensions>
      </trkpt>
      <trkpt lat="59.301723816229" lon="18.03236871378">
        <ele>30.4</ele>
        <time>2018-12-15T12:52:47Z</time>
        <extensions><gpxtpx:TrackPointExtension><gpxtpx:hr>132</gpxtpx:hr></gpxtpx:TrackPointExtension></extensions>
      </trkpt>
      <trkpt lat="59.30135660519" lon="18.031561788267">
        <ele>30.4</ele>
        <time>2018-12-15T12:52:54Z</time>
        <extensions><gpxtpx:TrackPointExtension><gpxtpx:hr>129</gpxtpx:hr></gpxtpx:TrackPointExtension></extensions>
      </trkpt>
      <trkpt lat="59.301258201684" lon="18.031369088386">
        <ele>29.4</ele>
        <time>2018-12-15T12:52:56Z</time>
        <extensions><gpxtpx:TrackPointExtension><gpxtpx:hr>130</gpxtpx:hr></gpxtpx:TrackPointExtension></extensions>
      </trkpt>
      <trkpt lat="59.301015210403" lon="18.030917387795">
        <ele>28.4</ele>
        <time>2018-12-15T12:53:01Z</time>
        <extensions><gpxtpx:TrackPointExtension><gpxtpx:hr>128</gpxtpx:hr></gpxtpx:TrackPointExtension></extensions>
      </trkpt>
      <trkpt lat="59.300976486025" lon="18.030820325393">
        <ele>28.4</ele>
        <time>2018-12-15T12:53:02Z</time>
        <extensions><gpxtpx:TrackPointExtension><gpxtpx:hr>125</gpxtpx:hr></gpxtpx:TrackPointExtension></extensions>
      </trkpt>
      <trkpt lat="59.300941533502" lon="18.030718904403">
        <ele>28.4</ele>
        <time>2018-12-15T12:53:03Z</time>
        <extensions><gpxtpx:TrackPointExtension><gpxtpx:hr>122</gpxtpx:hr></gpxtpx:TrackPointExtension></extensions>
      </trkpt>
      <trkpt lat="59.300615058497" lon="18.029872500141">
        <ele>28.4</ele>
        <time>2018-12-15T12:53:11Z</time>
        <extensions><gpxtpx:TrackPointExtension><gpxtpx:hr>121</gpxtpx:hr></gpxtpx:TrackPointExtension></extensions>
      </trkpt>
      <trkpt lat="59.300508440729" lon="18.029573769225">
        <ele>28.4</ele>
        <time>2018-12-15T12:53:14Z</time>
        <extensions><gpxtpx:TrackPointExtension><gpxtpx:hr>120</gpxtpx:hr></gpxtpx:TrackPointExtension></extensions>
      </trkpt>
      <trkpt lat="59.300448929239" lon="18.029385176475">
        <ele>27.8</ele>
        <time>2018-12-15T12:53:16Z</time>
        <extensions><gpxtpx:TrackPointExtension><gpxtpx:hr>120</gpxtpx:hr></gpxtpx:TrackPointExtension></extensions>
      </trkpt>
      <trkpt lat="59.300418000028" lon="18.029303620588">
        <ele>27.2</ele>
        <time>2018-12-15T12:53:17Z</time>
        <extensions><gpxtpx:TrackPointExtension><gpxtpx:hr>120</gpxtpx:hr></gpxtpx:TrackPointExtension></extensions>
      </trkpt>
      <trkpt lat="59.300333510476" lon="18.029100778608">
        <ele>26.8</ele>
        <time>2018-12-15T12:53:21Z</time>
        <extensions><gpxtpx:TrackPointExtension><gpxtpx:hr>117</gpxtpx:hr></gpxtpx:TrackPointExtension></extensions>
      </trkpt>
      <trkpt lat="59.300314399744" lon="18.02910564011">
        <ele>26.6</ele>
        <time>2018-12-15T12:53:24Z</time>
        <extensions><gpxtpx:TrackPointExtension><gpxtpx:hr>113</gpxtpx:hr></gpxtpx:TrackPointExtension></extensions>
      </trkpt>
      <trkpt lat="59.300315824667" lon="18.029129779982">
        <ele>26.6</ele>
        <time>2018-12-15T12:53:25Z</time>
        <extensions><gpxtpx:TrackPointExtension><gpxtpx:hr>112</gpxtpx:hr></gpxtpx:TrackPointExtension></extensions>
      </trkpt>
      <trkpt lat="59.300347508249" lon="18.029258023052">
        <ele>26.6</ele>
        <time>2018-12-15T12:53:28Z</time>
        <extensions><gpxtpx:TrackPointExtension><gpxtpx:hr>115</gpxtpx:hr></gpxtpx:TrackPointExtension></extensions>
      </trkpt>
      <trkpt lat="59.300348178801" lon="18.029367909761">
        <ele>26.4</ele>
        <time>2018-12-15T12:53:34Z</time>
        <extensions><gpxtpx:TrackPointExtension><gpxtpx:hr>118</gpxtpx:hr></gpxtpx:TrackPointExtension></extensions>
      </trkpt>
      <trkpt lat="59.300322865463" lon="18.029324994433">
        <ele>26.2</ele>
        <time>2018-12-15T12:53:36Z</time>
        <extensions><gpxtpx:TrackPointExtension><gpxtpx:hr>119</gpxtpx:hr></gpxtpx:TrackPointExtension></extensions>
      </trkpt>
      <trkpt lat="59.300313980649" lon="18.029343937527">
        <ele>25.6</ele>
        <time>2018-12-15T12:53:38Z</time>
        <extensions><gpxtpx:TrackPointExtension><gpxtpx:hr>121</gpxtpx:hr></gpxtpx:TrackPointExtension></extensions>
      </trkpt>
      <trkpt lat="59.300316495219" lon="18.02946773819">
        <ele>25.4</ele>
        <time>2018-12-15T12:53:41Z</time>
        <extensions><gpxtpx:TrackPointExtension><gpxtpx:hr>124</gpxtpx:hr></gpxtpx:TrackPointExtension></extensions>
      </trkpt>
      <trkpt lat="59.300310963165" lon="18.029514425373">
        <ele>25.2</ele>
        <time>2018-12-15T12:53:42Z</time>
        <extensions><gpxtpx:TrackPointExtension><gpxtpx:hr>124</gpxtpx:hr></gpxtpx:TrackPointExtension></extensions>
      </trkpt>
      <trkpt lat="59.300236196617" lon="18.029616433096">
        <ele>24.4</ele>
        <time>2018-12-15T12:53:48Z</time>
        <extensions><gpxtpx:TrackPointExtension><gpxtpx:hr>121</gpxtpx:hr></gpxtpx:TrackPointExtension></extensions>
      </trkpt>
      <trkpt lat="59.300219432817" lon="18.02962028877">
        <ele>24</ele>
        <time>2018-12-15T12:53:50Z</time>
        <extensions><gpxtpx:TrackPointExtension><gpxtpx:hr>119</gpxtpx:hr></gpxtpx:TrackPointExtension></extensions>
      </trkpt>
      <trkpt lat="59.300212224383" lon="18.029629089765">
        <ele>24</ele>
        <time>2018-12-15T12:53:51Z</time>
        <extensions><gpxtpx:TrackPointExtension><gpxtpx:hr>119</gpxtpx:hr></gpxtpx:TrackPointExtension></extensions>
      </trkpt>
    </trkseg>
  </trk>
</gpx>